<?xml version="1.0" encoding="UTF-8" standalone="no" ?>
<gpx xmlns="http://www.topografix.com/GPX/1/1" xmlns:xsi="http://www.w3.org/2001/XMLSchema-instance" xsi:schemaLocation="http://www.topografix.com/GPX/1/1 http://www.topografix.com/GPX/1/1/gpx.xsd" version="1.1" creator="VisuGPX - https://www.visugpx.com">
  <metadata>
    <name>Eddimo Norvège à vélo 2019 Oslo Trondheim</name>
    <desc><![CDATA[

]]></desc>
  </metadata>
  <wpt lat="59.89934" lon="10.7689">
    <ele>128.7</ele>
    <name><![CDATA[Oslo Juin 2019]]></name>
    <type><![CDATA[bivouacls3]]></type>
  </wpt>
  <wpt lat="61.57293" lon="11.01814">
    <ele>276.7</ele>
    <name><![CDATA[Koppang Juin 2019]]></name>
    <type><![CDATA[bivouacls3]]></type>
  </wpt>
  <wpt lat="62.02914" lon="10.76452">
    <ele>474.9</ele>
    <name><![CDATA[Avdal Juin 2019]]></name>
    <desc><![CDATA[Camping à la ferme]]></desc>
    <type><![CDATA[bivouacls3]]></type>
  </wpt>
  <wpt lat="60.96886" lon="11.49666">
    <ele>197.8</ele>
    <name><![CDATA[Elverum juin 2019]]></name>
    <type><![CDATA[bivouacls0]]></type>
  </wpt>
  <wpt lat="60.39706" lon="11.24404">
    <ele>130.2</ele>
    <name><![CDATA[Minnsesund Juin 2019]]></name>
    <type><![CDATA[bivouacls3]]></type>
  </wpt>
  <wpt lat="63.44973" lon="10.20054">
    <ele>5</ele>
    <name><![CDATA[Flakk Juin 2019]]></name>
    <type><![CDATA[bivouacls3]]></type>
  </wpt>
  <wpt lat="62.62095" lon="10.24732">
    <ele>537</ele>
    <name><![CDATA[KvikneJuin 2019]]></name>
    <type><![CDATA[bivouacls3]]></type>
  </wpt>
  <wpt lat="63.04428" lon="10.29129">
    <ele>65</ele>
    <name><![CDATA[Storen Juin 2019]]></name>
    <type><![CDATA[bivouacls3]]></type>
  </wpt>
  <trk>
    <name><![CDATA[Eddimo Norvège à vélo 2019 Oslo Trondheim]]></name>
    <extensions>
      <line xmlns="http://www.topografix.com/GPX/gpx_style/0/2">
        <color>00FFFF</color>
        <width>4</width>
      </line>
    </extensions>
    <trkseg>
      <trkpt lat="59.90508" lon="10.74565">
        <ele>16.60000038147</ele>
        <time>2019-06-13T04:43:45Z</time>
      </trkpt>
      <trkpt lat="59.90568" lon="10.74608">
        <ele>16.799999237061</ele>
        <time>2019-06-13T04:44:01Z</time>
      </trkpt>
      <trkpt lat="59.90594" lon="10.74562">
        <ele>16.799999237061</ele>
        <time>2019-06-13T04:44:05Z</time>
      </trkpt>
      <trkpt lat="59.90645" lon="10.74541">
        <ele>17</ele>
        <time>2019-06-13T04:44:10Z</time>
      </trkpt>
      <trkpt lat="59.90716" lon="10.74687">
        <ele>16.60000038147</ele>
        <time>2019-06-13T04:44:29Z</time>
      </trkpt>
      <trkpt lat="59.90711" lon="10.74707">
        <ele>16.799999237061</ele>
        <time>2019-06-13T04:44:46Z</time>
      </trkpt>
      <trkpt lat="59.90759" lon="10.74823">
        <ele>16.799999237061</ele>
        <time>2019-06-13T04:45:00Z</time>
      </trkpt>
      <trkpt lat="59.90786" lon="10.7484">
        <ele>17</ele>
        <time>2019-06-13T04:45:09Z</time>
      </trkpt>
      <trkpt lat="59.90845" lon="10.74961">
        <ele>17.200000762939</ele>
        <time>2019-06-13T04:45:16Z</time>
      </trkpt>
      <trkpt lat="59.90896" lon="10.75031">
        <ele>17.200000762939</ele>
        <time>2019-06-13T04:46:02Z</time>
      </trkpt>
      <trkpt lat="59.90919" lon="10.75051">
        <ele>17</ele>
        <time>2019-06-13T04:46:06Z</time>
      </trkpt>
      <trkpt lat="59.90934" lon="10.75109">
        <ele>17.60000038147</ele>
        <time>2019-06-13T04:46:20Z</time>
      </trkpt>
      <trkpt lat="59.90919" lon="10.75182">
        <ele>17.799999237061</ele>
        <time>2019-06-13T04:46:30Z</time>
      </trkpt>
      <trkpt lat="59.90892" lon="10.75293">
        <ele>17.60000038147</ele>
        <time>2019-06-13T04:46:33Z</time>
      </trkpt>
      <trkpt lat="59.90899" lon="10.75312">
        <ele>17.39999961853</ele>
        <time>2019-06-13T04:46:37Z</time>
      </trkpt>
      <trkpt lat="59.90874" lon="10.75439">
        <ele>18.200000762939</ele>
        <time>2019-06-13T04:46:57Z</time>
      </trkpt>
      <trkpt lat="59.90875" lon="10.75474">
        <ele>18.60000038147</ele>
        <time>2019-06-13T04:47:12Z</time>
      </trkpt>
      <trkpt lat="59.90854" lon="10.75535">
        <ele>19</ele>
        <time>2019-06-13T04:47:17Z</time>
      </trkpt>
      <trkpt lat="59.90843" lon="10.75555">
        <ele>18.799999237061</ele>
        <time>2019-06-13T04:47:22Z</time>
      </trkpt>
      <trkpt lat="59.90799" lon="10.75693">
        <ele>18.60000038147</ele>
        <time>2019-06-13T04:47:32Z</time>
      </trkpt>
      <trkpt lat="59.90776" lon="10.75785">
        <ele>18</ele>
        <time>2019-06-13T04:47:44Z</time>
      </trkpt>
      <trkpt lat="59.90752" lon="10.75879">
        <ele>17.799999237061</ele>
        <time>2019-06-13T04:47:50Z</time>
      </trkpt>
      <trkpt lat="59.90743" lon="10.75893">
        <ele>17.39999961853</ele>
        <time>2019-06-13T04:48:03Z</time>
      </trkpt>
      <trkpt lat="59.90733" lon="10.75978">
        <ele>17.60000038147</ele>
        <time>2019-06-13T04:48:23Z</time>
      </trkpt>
      <trkpt lat="59.90721" lon="10.76055">
        <ele>18.39999961853</ele>
        <time>2019-06-13T04:48:52Z</time>
      </trkpt>
      <trkpt lat="59.90703" lon="10.76114">
        <ele>18.60000038147</ele>
        <time>2019-06-13T04:49:07Z</time>
      </trkpt>
      <trkpt lat="59.90645" lon="10.7629">
        <ele>19.60000038147</ele>
        <time>2019-06-13T04:49:18Z</time>
      </trkpt>
      <trkpt lat="59.90598" lon="10.76426">
        <ele>20.60000038147</ele>
        <time>2019-06-13T04:49:32Z</time>
      </trkpt>
      <trkpt lat="59.90565" lon="10.76585">
        <ele>25.799999237061</ele>
        <time>2019-06-13T04:49:41Z</time>
      </trkpt>
      <trkpt lat="59.90569" lon="10.76725">
        <ele>25.799999237061</ele>
        <time>2019-06-13T04:49:43Z</time>
      </trkpt>
      <trkpt lat="59.90568" lon="10.7674">
        <ele>26.60000038147</ele>
        <time>2019-06-13T04:49:59Z</time>
      </trkpt>
      <trkpt lat="59.90545" lon="10.76732">
        <ele>28.39999961853</ele>
        <time>2019-06-13T04:50:04Z</time>
      </trkpt>
      <trkpt lat="59.90484" lon="10.76704">
        <ele>29</ele>
        <time>2019-06-13T04:50:16Z</time>
      </trkpt>
      <trkpt lat="59.9044" lon="10.76677">
        <ele>28.60000038147</ele>
        <time>2019-06-13T04:50:27Z</time>
      </trkpt>
      <trkpt lat="59.90396" lon="10.76709">
        <ele>29.799999237061</ele>
        <time>2019-06-13T04:50:52Z</time>
      </trkpt>
      <trkpt lat="59.90371" lon="10.7674">
        <ele>29.799999237061</ele>
        <time>2019-06-13T04:50:54Z</time>
      </trkpt>
      <trkpt lat="59.90285" lon="10.76748">
        <ele>27</ele>
        <time>2019-06-13T04:51:05Z</time>
      </trkpt>
      <trkpt lat="59.90272" lon="10.76739">
        <ele>27</ele>
        <time>2019-06-13T04:51:14Z</time>
      </trkpt>
      <trkpt lat="59.9026" lon="10.76716">
        <ele>27.200000762939</ele>
        <time>2019-06-13T04:51:21Z</time>
      </trkpt>
      <trkpt lat="59.90212" lon="10.767">
        <ele>28.60000038147</ele>
        <time>2019-06-13T04:51:29Z</time>
      </trkpt>
      <trkpt lat="59.90175" lon="10.76615">
        <ele>33.200000762939</ele>
        <time>2019-06-13T04:51:43Z</time>
      </trkpt>
      <trkpt lat="59.9016" lon="10.7658">
        <ele>36.599998474121</ele>
        <time>2019-06-13T04:51:58Z</time>
      </trkpt>
      <trkpt lat="59.90148" lon="10.76544">
        <ele>36.599998474121</ele>
        <time>2019-06-13T04:52:04Z</time>
      </trkpt>
      <trkpt lat="59.90096" lon="10.76385">
        <ele>42.400001525879</ele>
        <time>2019-06-13T04:52:12Z</time>
      </trkpt>
      <trkpt lat="59.90047" lon="10.76114">
        <ele>49.400001525879</ele>
        <time>2019-06-13T04:52:24Z</time>
      </trkpt>
      <trkpt lat="59.90016" lon="10.75986">
        <ele>54.200000762939</ele>
        <time>2019-06-13T04:52:32Z</time>
      </trkpt>
      <trkpt lat="59.89974" lon="10.75887">
        <ele>57.400001525879</ele>
        <time>2019-06-13T04:52:46Z</time>
      </trkpt>
      <trkpt lat="59.89954" lon="10.75864">
        <ele>58.400001525879</ele>
        <time>2019-06-13T04:52:53Z</time>
      </trkpt>
      <trkpt lat="59.8995" lon="10.75859">
        <ele>60</ele>
        <time>2019-06-13T04:52:57Z</time>
      </trkpt>
      <trkpt lat="59.89932" lon="10.75853">
        <ele>60</ele>
        <time>2019-06-13T04:53:01Z</time>
      </trkpt>
      <trkpt lat="59.89905" lon="10.75863">
        <ele>61</ele>
        <time>2019-06-13T04:53:07Z</time>
      </trkpt>
      <trkpt lat="59.89851" lon="10.7586">
        <ele>64</ele>
        <time>2019-06-13T04:53:13Z</time>
      </trkpt>
      <trkpt lat="59.89804" lon="10.75837">
        <ele>68.400001525879</ele>
        <time>2019-06-13T04:53:24Z</time>
      </trkpt>
      <trkpt lat="59.89775" lon="10.75894">
        <ele>69.599998474121</ele>
        <time>2019-06-13T04:53:35Z</time>
      </trkpt>
      <trkpt lat="59.89774" lon="10.75977">
        <ele>71.800003051758</ele>
        <time>2019-06-13T04:53:46Z</time>
      </trkpt>
      <trkpt lat="59.89787" lon="10.75979">
        <ele>71.599998474121</ele>
        <time>2019-06-13T04:53:51Z</time>
      </trkpt>
      <trkpt lat="59.89801" lon="10.75963">
        <ele>72.400001525879</ele>
        <time>2019-06-13T04:53:58Z</time>
      </trkpt>
      <trkpt lat="59.8982" lon="10.76024">
        <ele>78.199996948242</ele>
        <time>2019-06-13T04:54:09Z</time>
      </trkpt>
      <trkpt lat="59.89912" lon="10.76099">
        <ele>89.400001525879</ele>
        <time>2019-06-13T04:54:13Z</time>
      </trkpt>
      <trkpt lat="59.89954" lon="10.76105">
        <ele>95</ele>
        <time>2019-06-13T04:54:18Z</time>
      </trkpt>
      <trkpt lat="59.8996" lon="10.76136">
        <ele>95</ele>
        <time>2019-06-13T04:54:30Z</time>
      </trkpt>
      <trkpt lat="59.89971" lon="10.76209">
        <ele>98.199996948242</ele>
        <time>2019-06-13T04:54:36Z</time>
      </trkpt>
      <trkpt lat="59.89984" lon="10.76298">
        <ele>106.80000305176</ele>
        <time>2019-06-13T04:54:47Z</time>
      </trkpt>
      <trkpt lat="59.89998" lon="10.7654">
        <ele>120.40000152588</ele>
        <time>2019-06-13T04:54:54Z</time>
      </trkpt>
      <trkpt lat="59.89988" lon="10.76585">
        <ele>124</ele>
        <time>2019-06-13T04:55:01Z</time>
      </trkpt>
      <trkpt lat="59.90014" lon="10.76762">
        <ele>135.80000305176</ele>
        <time>2019-06-13T04:55:39Z</time>
      </trkpt>
      <trkpt lat="59.89957" lon="10.7679">
        <ele>144.19999694824</ele>
        <time>2019-06-13T04:56:24Z</time>
      </trkpt>
      <trkpt lat="59.89935" lon="10.7679">
        <ele>144.60000610352</ele>
        <time>2019-06-13T04:56:32Z</time>
      </trkpt>
      <trkpt lat="59.89904" lon="10.76821">
        <ele>144</ele>
        <time>2019-06-13T04:56:45Z</time>
      </trkpt>
      <trkpt lat="59.89864" lon="10.76922">
        <ele>147.39999389648</ele>
        <time>2019-06-13T04:56:58Z</time>
      </trkpt>
      <trkpt lat="59.89855" lon="10.76957">
        <ele>147.19999694824</ele>
        <time>2019-06-13T04:57:13Z</time>
      </trkpt>
      <trkpt lat="59.89825" lon="10.76926">
        <ele>147.39999389648</ele>
        <time>2019-06-13T04:57:19Z</time>
      </trkpt>
      <trkpt lat="59.89765" lon="10.76898">
        <ele>149.19999694824</ele>
        <time>2019-06-13T04:57:25Z</time>
      </trkpt>
      <trkpt lat="59.89736" lon="10.76911">
        <ele>149.80000305176</ele>
        <time>2019-06-13T04:57:36Z</time>
      </trkpt>
      <trkpt lat="59.89724" lon="10.76945">
        <ele>151.19999694824</ele>
        <time>2019-06-13T04:57:42Z</time>
      </trkpt>
      <trkpt lat="59.89727" lon="10.77074">
        <ele>152.80000305176</ele>
        <time>2019-06-13T04:57:55Z</time>
      </trkpt>
      <trkpt lat="59.8974" lon="10.77099">
        <ele>152.80000305176</ele>
        <time>2019-06-13T04:58:06Z</time>
      </trkpt>
      <trkpt lat="59.89778" lon="10.77171">
        <ele>151</ele>
        <time>2019-06-13T04:58:13Z</time>
      </trkpt>
      <trkpt lat="59.89804" lon="10.77226">
        <ele>147.19999694824</ele>
        <time>2019-06-13T04:58:21Z</time>
      </trkpt>
      <trkpt lat="59.89842" lon="10.77363">
        <ele>148.39999389648</ele>
        <time>2019-06-13T04:58:33Z</time>
      </trkpt>
      <trkpt lat="59.89845" lon="10.77359">
        <ele>145.80000305176</ele>
        <time>2019-06-13T04:58:43Z</time>
      </trkpt>
      <trkpt lat="59.89845" lon="10.77329">
        <ele>145.60000610352</ele>
        <time>2019-06-13T04:58:57Z</time>
      </trkpt>
      <trkpt lat="59.89853" lon="10.77266">
        <ele>145.39999389648</ele>
        <time>2019-06-13T04:59:06Z</time>
      </trkpt>
      <trkpt lat="59.89897" lon="10.7716">
        <ele>140</ele>
        <time>2019-06-13T04:59:55Z</time>
      </trkpt>
      <trkpt lat="59.89905" lon="10.77125">
        <ele>139.60000610352</ele>
        <time>2019-06-13T05:00:03Z</time>
      </trkpt>
      <trkpt lat="59.8992" lon="10.77027">
        <ele>137.39999389648</ele>
        <time>2019-06-13T05:00:13Z</time>
      </trkpt>
      <trkpt lat="59.89923" lon="10.76993">
        <ele>135.39999389648</ele>
        <time>2019-06-13T05:00:28Z</time>
      </trkpt>
      <trkpt lat="59.89928" lon="10.76944">
        <ele>135.60000610352</ele>
        <time>2019-06-13T05:00:35Z</time>
      </trkpt>
      <trkpt lat="59.8992" lon="10.76925">
        <ele>136.60000610352</ele>
        <time>2019-06-13T05:00:43Z</time>
      </trkpt>
      <trkpt lat="59.89854" lon="10.76957">
        <ele>160.39999389648</ele>
        <time>2019-06-13T05:00:56Z</time>
      </trkpt>
      <trkpt lat="59.89856" lon="10.77019">
        <ele>158.80000305176</ele>
        <time>2019-06-13T05:01:36Z</time>
      </trkpt>
      <trkpt lat="59.89854" lon="10.77071">
        <ele>158.80000305176</ele>
        <time>2019-06-13T05:01:52Z</time>
      </trkpt>
      <trkpt lat="59.89852" lon="10.77145">
        <ele>159</ele>
        <time>2019-06-13T05:02:03Z</time>
      </trkpt>
      <trkpt lat="59.89846" lon="10.7726">
        <ele>161.39999389648</ele>
        <time>2019-06-13T05:02:27Z</time>
      </trkpt>
      <trkpt lat="59.89849" lon="10.7737">
        <ele>162</ele>
        <time>2019-06-13T05:02:49Z</time>
      </trkpt>
      <trkpt lat="59.89842" lon="10.77382">
        <ele>160.80000305176</ele>
        <time>2019-06-13T05:03:25Z</time>
      </trkpt>
      <trkpt lat="59.89805" lon="10.7747">
        <ele>160.19999694824</ele>
        <time>2019-06-13T05:03:30Z</time>
      </trkpt>
      <trkpt lat="59.89794" lon="10.77535">
        <ele>159.39999389648</ele>
        <time>2019-06-13T05:04:00Z</time>
      </trkpt>
      <trkpt lat="59.89813" lon="10.77564">
        <ele>159.19999694824</ele>
        <time>2019-06-13T05:04:10Z</time>
      </trkpt>
      <trkpt lat="59.89815" lon="10.77656">
        <ele>158.39999389648</ele>
        <time>2019-06-13T05:04:16Z</time>
      </trkpt>
      <trkpt lat="59.89807" lon="10.77805">
        <ele>157.39999389648</ele>
        <time>2019-06-13T05:04:20Z</time>
      </trkpt>
      <trkpt lat="59.89801" lon="10.77905">
        <ele>157</ele>
        <time>2019-06-13T05:04:23Z</time>
      </trkpt>
      <trkpt lat="59.89785" lon="10.78027">
        <ele>157.60000610352</ele>
        <time>2019-06-13T05:04:33Z</time>
      </trkpt>
      <trkpt lat="59.89691" lon="10.78248">
        <ele>158</ele>
        <time>2019-06-13T05:04:38Z</time>
      </trkpt>
      <trkpt lat="59.89651" lon="10.78325">
        <ele>159.39999389648</ele>
        <time>2019-06-13T05:04:46Z</time>
      </trkpt>
      <trkpt lat="59.89534" lon="10.7856">
        <ele>165.39999389648</ele>
        <time>2019-06-13T05:04:56Z</time>
      </trkpt>
      <trkpt lat="59.89544" lon="10.78632">
        <ele>167.39999389648</ele>
        <time>2019-06-13T05:05:03Z</time>
      </trkpt>
      <trkpt lat="59.89555" lon="10.78665">
        <ele>167.60000610352</ele>
        <time>2019-06-13T05:05:14Z</time>
      </trkpt>
      <trkpt lat="59.89612" lon="10.78832">
        <ele>170.39999389648</ele>
        <time>2019-06-13T05:05:18Z</time>
      </trkpt>
      <trkpt lat="59.89661" lon="10.78991">
        <ele>171.60000610352</ele>
        <time>2019-06-13T05:05:25Z</time>
      </trkpt>
      <trkpt lat="59.89707" lon="10.79145">
        <ele>174.19999694824</ele>
        <time>2019-06-13T05:05:32Z</time>
      </trkpt>
      <trkpt lat="59.89699" lon="10.79148">
        <ele>175</ele>
        <time>2019-06-13T05:05:37Z</time>
      </trkpt>
      <trkpt lat="59.89702" lon="10.79161">
        <ele>173.60000610352</ele>
        <time>2019-06-13T05:05:44Z</time>
      </trkpt>
      <trkpt lat="59.89716" lon="10.79191">
        <ele>173.60000610352</ele>
        <time>2019-06-13T05:05:50Z</time>
      </trkpt>
      <trkpt lat="59.89731" lon="10.79238">
        <ele>174</ele>
        <time>2019-06-13T05:07:04Z</time>
      </trkpt>
      <trkpt lat="59.89767" lon="10.79351">
        <ele>174.19999694824</ele>
        <time>2019-06-13T05:07:10Z</time>
      </trkpt>
      <trkpt lat="59.8979" lon="10.79426">
        <ele>173</ele>
        <time>2019-06-13T05:07:18Z</time>
      </trkpt>
      <trkpt lat="59.89801" lon="10.79495">
        <ele>170</ele>
        <time>2019-06-13T05:07:24Z</time>
      </trkpt>
      <trkpt lat="59.89799" lon="10.79563">
        <ele>169.60000610352</ele>
        <time>2019-06-13T05:07:39Z</time>
      </trkpt>
      <trkpt lat="59.89776" lon="10.79655">
        <ele>167.80000305176</ele>
        <time>2019-06-13T05:07:57Z</time>
      </trkpt>
      <trkpt lat="59.89756" lon="10.79706">
        <ele>165.80000305176</ele>
        <time>2019-06-13T05:08:10Z</time>
      </trkpt>
      <trkpt lat="59.89684" lon="10.79901">
        <ele>160.60000610352</ele>
        <time>2019-06-13T05:08:22Z</time>
      </trkpt>
      <trkpt lat="59.89602" lon="10.7999">
        <ele>157.19999694824</ele>
        <time>2019-06-13T05:08:30Z</time>
      </trkpt>
      <trkpt lat="59.89576" lon="10.80029">
        <ele>155.19999694824</ele>
        <time>2019-06-13T05:08:43Z</time>
      </trkpt>
      <trkpt lat="59.89555" lon="10.8018">
        <ele>151.60000610352</ele>
        <time>2019-06-13T05:09:06Z</time>
      </trkpt>
      <trkpt lat="59.89562" lon="10.80245">
        <ele>150.60000610352</ele>
        <time>2019-06-13T05:09:17Z</time>
      </trkpt>
      <trkpt lat="59.89571" lon="10.80283">
        <ele>151.39999389648</ele>
        <time>2019-06-13T05:09:51Z</time>
      </trkpt>
      <trkpt lat="59.89554" lon="10.80324">
        <ele>153.80000305176</ele>
        <time>2019-06-13T05:10:04Z</time>
      </trkpt>
      <trkpt lat="59.89568" lon="10.80351">
        <ele>153.80000305176</ele>
        <time>2019-06-13T05:10:17Z</time>
      </trkpt>
      <trkpt lat="59.89567" lon="10.80405">
        <ele>153.39999389648</ele>
        <time>2019-06-13T05:10:27Z</time>
      </trkpt>
      <trkpt lat="59.89582" lon="10.80497">
        <ele>148.39999389648</ele>
        <time>2019-06-13T05:10:33Z</time>
      </trkpt>
      <trkpt lat="59.896" lon="10.80573">
        <ele>148.39999389648</ele>
        <time>2019-06-13T05:10:44Z</time>
      </trkpt>
      <trkpt lat="59.89617" lon="10.80703">
        <ele>147.19999694824</ele>
        <time>2019-06-13T05:10:52Z</time>
      </trkpt>
      <trkpt lat="59.89626" lon="10.80755">
        <ele>146.19999694824</ele>
        <time>2019-06-13T05:11:03Z</time>
      </trkpt>
      <trkpt lat="59.89645" lon="10.80866">
        <ele>144.80000305176</ele>
        <time>2019-06-13T05:11:16Z</time>
      </trkpt>
      <trkpt lat="59.89708" lon="10.81034">
        <ele>155.80000305176</ele>
        <time>2019-06-13T05:11:20Z</time>
      </trkpt>
      <trkpt lat="59.89771" lon="10.81171">
        <ele>160</ele>
        <time>2019-06-13T05:11:37Z</time>
      </trkpt>
      <trkpt lat="59.89798" lon="10.81233">
        <ele>160.19999694824</ele>
        <time>2019-06-13T05:11:46Z</time>
      </trkpt>
      <trkpt lat="59.89816" lon="10.81279">
        <ele>159.39999389648</ele>
        <time>2019-06-13T05:12:00Z</time>
      </trkpt>
      <trkpt lat="59.8993" lon="10.81471">
        <ele>151.80000305176</ele>
        <time>2019-06-13T05:12:14Z</time>
      </trkpt>
      <trkpt lat="59.89939" lon="10.81483">
        <ele>149.60000610352</ele>
        <time>2019-06-13T05:12:17Z</time>
      </trkpt>
      <trkpt lat="59.89954" lon="10.81507">
        <ele>149.19999694824</ele>
        <time>2019-06-13T05:12:22Z</time>
      </trkpt>
      <trkpt lat="59.8999" lon="10.81557">
        <ele>148.80000305176</ele>
        <time>2019-06-13T05:12:43Z</time>
      </trkpt>
      <trkpt lat="59.90024" lon="10.816">
        <ele>146.39999389648</ele>
        <time>2019-06-13T05:12:50Z</time>
      </trkpt>
      <trkpt lat="59.90061" lon="10.81652">
        <ele>145</ele>
        <time>2019-06-13T05:13:05Z</time>
      </trkpt>
      <trkpt lat="59.90096" lon="10.81702">
        <ele>144</ele>
        <time>2019-06-13T05:13:12Z</time>
      </trkpt>
      <trkpt lat="59.90176" lon="10.8181">
        <ele>142.80000305176</ele>
        <time>2019-06-13T05:13:18Z</time>
      </trkpt>
      <trkpt lat="59.90206" lon="10.81832">
        <ele>141.39999389648</ele>
        <time>2019-06-13T05:13:33Z</time>
      </trkpt>
      <trkpt lat="59.90207" lon="10.81915">
        <ele>143.19999694824</ele>
        <time>2019-06-13T05:13:42Z</time>
      </trkpt>
      <trkpt lat="59.90207" lon="10.81964">
        <ele>143.39999389648</ele>
        <time>2019-06-13T05:13:50Z</time>
      </trkpt>
      <trkpt lat="59.90426" lon="10.82108">
        <ele>124.40000152588</ele>
        <time>2019-06-13T05:14:03Z</time>
      </trkpt>
      <trkpt lat="59.9044" lon="10.82138">
        <ele>122</ele>
        <time>2019-06-13T05:14:12Z</time>
      </trkpt>
      <trkpt lat="59.90442" lon="10.82228">
        <ele>117.80000305176</ele>
        <time>2019-06-13T05:14:27Z</time>
      </trkpt>
      <trkpt lat="59.9046" lon="10.8223">
        <ele>117</ele>
        <time>2019-06-13T05:14:49Z</time>
      </trkpt>
      <trkpt lat="59.90546" lon="10.82138">
        <ele>117.59999847412</ele>
        <time>2019-06-13T05:15:03Z</time>
      </trkpt>
      <trkpt lat="59.90542" lon="10.82144">
        <ele>118.59999847412</ele>
        <time>2019-06-13T05:15:20Z</time>
      </trkpt>
      <trkpt lat="59.90539" lon="10.82164">
        <ele>118.40000152588</ele>
        <time>2019-06-13T05:15:34Z</time>
      </trkpt>
      <trkpt lat="59.90548" lon="10.8218">
        <ele>118.40000152588</ele>
        <time>2019-06-13T05:15:44Z</time>
      </trkpt>
      <trkpt lat="59.90569" lon="10.82215">
        <ele>121.40000152588</ele>
        <time>2019-06-13T05:16:00Z</time>
      </trkpt>
      <trkpt lat="59.90607" lon="10.82202">
        <ele>128</ele>
        <time>2019-06-13T05:16:09Z</time>
      </trkpt>
      <trkpt lat="59.90624" lon="10.82255">
        <ele>132</ele>
        <time>2019-06-13T05:16:25Z</time>
      </trkpt>
      <trkpt lat="59.90637" lon="10.82283">
        <ele>136.80000305176</ele>
        <time>2019-06-13T05:16:37Z</time>
      </trkpt>
      <trkpt lat="59.90605" lon="10.82379">
        <ele>137</ele>
        <time>2019-06-13T05:16:45Z</time>
      </trkpt>
      <trkpt lat="59.90576" lon="10.82477">
        <ele>137.39999389648</ele>
        <time>2019-06-13T05:17:01Z</time>
      </trkpt>
      <trkpt lat="59.90564" lon="10.82516">
        <ele>137.80000305176</ele>
        <time>2019-06-13T05:17:11Z</time>
      </trkpt>
      <trkpt lat="59.90612" lon="10.82466">
        <ele>140.19999694824</ele>
        <time>2019-06-13T05:17:18Z</time>
      </trkpt>
      <trkpt lat="59.90665" lon="10.8243">
        <ele>144.80000305176</ele>
        <time>2019-06-13T05:17:32Z</time>
      </trkpt>
      <trkpt lat="59.90717" lon="10.82415">
        <ele>146.60000610352</ele>
        <time>2019-06-13T05:17:38Z</time>
      </trkpt>
      <trkpt lat="59.9072" lon="10.82421">
        <ele>147.60000610352</ele>
        <time>2019-06-13T05:17:50Z</time>
      </trkpt>
      <trkpt lat="59.90723" lon="10.82439">
        <ele>147.60000610352</ele>
        <time>2019-06-13T05:18:00Z</time>
      </trkpt>
      <trkpt lat="59.90729" lon="10.82489">
        <ele>148.80000305176</ele>
        <time>2019-06-13T05:18:12Z</time>
      </trkpt>
      <trkpt lat="59.90749" lon="10.82625">
        <ele>156.60000610352</ele>
        <time>2019-06-13T05:18:27Z</time>
      </trkpt>
      <trkpt lat="59.90774" lon="10.82709">
        <ele>164.19999694824</ele>
        <time>2019-06-13T05:35:02Z</time>
      </trkpt>
      <trkpt lat="59.90783" lon="10.82717">
        <ele>167.60000610352</ele>
        <time>2019-06-13T05:35:20Z</time>
      </trkpt>
      <trkpt lat="59.90808" lon="10.82717">
        <ele>167.60000610352</ele>
        <time>2019-06-13T05:35:48Z</time>
      </trkpt>
      <trkpt lat="59.90852" lon="10.82714">
        <ele>167.19999694824</ele>
        <time>2019-06-13T05:36:02Z</time>
      </trkpt>
      <trkpt lat="59.9089" lon="10.82719">
        <ele>165.80000305176</ele>
        <time>2019-06-13T05:36:22Z</time>
      </trkpt>
      <trkpt lat="59.90915" lon="10.82726">
        <ele>161.19999694824</ele>
        <time>2019-06-13T05:36:32Z</time>
      </trkpt>
      <trkpt lat="59.90921" lon="10.8275">
        <ele>161.19999694824</ele>
        <time>2019-06-13T05:36:46Z</time>
      </trkpt>
      <trkpt lat="59.9092" lon="10.82769">
        <ele>161.80000305176</ele>
        <time>2019-06-13T05:37:08Z</time>
      </trkpt>
      <trkpt lat="59.90914" lon="10.82804">
        <ele>164.80000305176</ele>
        <time>2019-06-13T05:37:19Z</time>
      </trkpt>
      <trkpt lat="59.90922" lon="10.82881">
        <ele>158.19999694824</ele>
        <time>2019-06-13T05:37:30Z</time>
      </trkpt>
      <trkpt lat="59.90931" lon="10.82964">
        <ele>154.39999389648</ele>
        <time>2019-06-13T05:37:35Z</time>
      </trkpt>
      <trkpt lat="59.90927" lon="10.83007">
        <ele>150.19999694824</ele>
        <time>2019-06-13T05:37:56Z</time>
      </trkpt>
      <trkpt lat="59.9093" lon="10.83055">
        <ele>150</ele>
        <time>2019-06-13T05:38:11Z</time>
      </trkpt>
      <trkpt lat="59.90938" lon="10.83095">
        <ele>148.39999389648</ele>
        <time>2019-06-13T05:38:14Z</time>
      </trkpt>
      <trkpt lat="59.90979" lon="10.83125">
        <ele>143</ele>
        <time>2019-06-13T05:38:39Z</time>
      </trkpt>
      <trkpt lat="59.90993" lon="10.83173">
        <ele>140</ele>
        <time>2019-06-14T07:14:57Z</time>
      </trkpt>
      <trkpt lat="59.90995" lon="10.83157">
        <ele>140.19999694824</ele>
        <time>2019-06-14T07:14:59Z</time>
      </trkpt>
      <trkpt lat="59.90997" lon="10.83142">
        <ele>140.19999694824</ele>
        <time>2019-06-14T07:15:06Z</time>
      </trkpt>
      <trkpt lat="59.91023" lon="10.83112">
        <ele>138.60000610352</ele>
        <time>2019-06-14T07:15:14Z</time>
      </trkpt>
      <trkpt lat="59.9104" lon="10.83099">
        <ele>134.80000305176</ele>
        <time>2019-06-14T07:15:30Z</time>
      </trkpt>
      <trkpt lat="59.91048" lon="10.83062">
        <ele>135.19999694824</ele>
        <time>2019-06-14T07:15:46Z</time>
      </trkpt>
      <trkpt lat="59.91078" lon="10.83066">
        <ele>138.39999389648</ele>
        <time>2019-06-14T07:15:54Z</time>
      </trkpt>
      <trkpt lat="59.91085" lon="10.83084">
        <ele>138.60000610352</ele>
        <time>2019-06-14T07:16:08Z</time>
      </trkpt>
      <trkpt lat="59.91061" lon="10.83131">
        <ele>138</ele>
        <time>2019-06-14T07:16:19Z</time>
      </trkpt>
      <trkpt lat="59.91056" lon="10.83152">
        <ele>137.19999694824</ele>
        <time>2019-06-14T07:33:16Z</time>
      </trkpt>
      <trkpt lat="59.91056" lon="10.83217">
        <ele>136.80000305176</ele>
        <time>2019-06-14T07:33:37Z</time>
      </trkpt>
      <trkpt lat="59.91093" lon="10.83581">
        <ele>150</ele>
        <time>2019-06-14T07:33:48Z</time>
      </trkpt>
      <trkpt lat="59.91119" lon="10.83652">
        <ele>153</ele>
        <time>2019-06-14T07:33:57Z</time>
      </trkpt>
      <trkpt lat="59.91128" lon="10.83676">
        <ele>155.60000610352</ele>
        <time>2019-06-14T07:34:08Z</time>
      </trkpt>
      <trkpt lat="59.91153" lon="10.8373">
        <ele>156.80000305176</ele>
        <time>2019-06-14T07:34:21Z</time>
      </trkpt>
      <trkpt lat="59.91229" lon="10.83839">
        <ele>162.80000305176</ele>
        <time>2019-06-14T07:34:23Z</time>
      </trkpt>
      <trkpt lat="59.91267" lon="10.83858">
        <ele>165</ele>
        <time>2019-06-14T07:34:29Z</time>
      </trkpt>
      <trkpt lat="59.91282" lon="10.83889">
        <ele>165</ele>
        <time>2019-06-14T07:34:34Z</time>
      </trkpt>
      <trkpt lat="59.91282" lon="10.83894">
        <ele>165.19999694824</ele>
        <time>2019-06-14T07:34:48Z</time>
      </trkpt>
      <trkpt lat="59.91285" lon="10.83935">
        <ele>165.19999694824</ele>
        <time>2019-06-14T07:35:04Z</time>
      </trkpt>
      <trkpt lat="59.91327" lon="10.84093">
        <ele>167</ele>
        <time>2019-06-14T07:35:21Z</time>
      </trkpt>
      <trkpt lat="59.91355" lon="10.84311">
        <ele>172</ele>
        <time>2019-06-14T07:35:39Z</time>
      </trkpt>
      <trkpt lat="59.91401" lon="10.84467">
        <ele>176.60000610352</ele>
        <time>2019-06-14T07:35:47Z</time>
      </trkpt>
      <trkpt lat="59.91451" lon="10.84584">
        <ele>178.39999389648</ele>
        <time>2019-06-14T07:36:01Z</time>
      </trkpt>
      <trkpt lat="59.91554" lon="10.84773">
        <ele>180.80000305176</ele>
        <time>2019-06-14T07:36:13Z</time>
      </trkpt>
      <trkpt lat="59.91604" lon="10.84826">
        <ele>181.39999389648</ele>
        <time>2019-06-14T07:36:23Z</time>
      </trkpt>
      <trkpt lat="59.91624" lon="10.84854">
        <ele>181.39999389648</ele>
        <time>2019-06-14T07:36:36Z</time>
      </trkpt>
      <trkpt lat="59.91645" lon="10.84898">
        <ele>181.60000610352</ele>
        <time>2019-06-14T07:36:50Z</time>
      </trkpt>
      <trkpt lat="59.91722" lon="10.84964">
        <ele>183</ele>
        <time>2019-06-14T07:36:57Z</time>
      </trkpt>
      <trkpt lat="59.91796" lon="10.85043">
        <ele>183.60000610352</ele>
        <time>2019-06-14T07:37:12Z</time>
      </trkpt>
      <trkpt lat="59.91819" lon="10.85046">
        <ele>183.80000305176</ele>
        <time>2019-06-14T07:37:19Z</time>
      </trkpt>
      <trkpt lat="59.91847" lon="10.85112">
        <ele>184.39999389648</ele>
        <time>2019-06-14T07:37:30Z</time>
      </trkpt>
      <trkpt lat="59.91847" lon="10.85109">
        <ele>184.80000305176</ele>
        <time>2019-06-14T07:37:46Z</time>
      </trkpt>
      <trkpt lat="59.91827" lon="10.85084">
        <ele>184.80000305176</ele>
        <time>2019-06-14T07:37:59Z</time>
      </trkpt>
      <trkpt lat="59.91819" lon="10.85045">
        <ele>184.39999389648</ele>
        <time>2019-06-14T07:38:19Z</time>
      </trkpt>
      <trkpt lat="59.91817" lon="10.85041">
        <ele>184</ele>
        <time>2019-06-14T07:38:29Z</time>
      </trkpt>
      <trkpt lat="59.91789" lon="10.85036">
        <ele>183.80000305176</ele>
        <time>2019-06-14T07:38:33Z</time>
      </trkpt>
      <trkpt lat="59.9179" lon="10.8504">
        <ele>184</ele>
        <time>2019-06-14T07:38:41Z</time>
      </trkpt>
      <trkpt lat="59.91785" lon="10.85077">
        <ele>184</ele>
        <time>2019-06-14T07:55:25Z</time>
      </trkpt>
      <trkpt lat="59.91777" lon="10.85133">
        <ele>184.39999389648</ele>
        <time>2019-06-14T07:57:13Z</time>
      </trkpt>
      <trkpt lat="59.91806" lon="10.85211">
        <ele>186.60000610352</ele>
        <time>2019-06-14T07:57:23Z</time>
      </trkpt>
      <trkpt lat="59.91825" lon="10.85259">
        <ele>187.39999389648</ele>
        <time>2019-06-14T07:57:32Z</time>
      </trkpt>
      <trkpt lat="59.91855" lon="10.85341">
        <ele>187.80000305176</ele>
        <time>2019-06-14T07:57:50Z</time>
      </trkpt>
      <trkpt lat="59.91932" lon="10.85481">
        <ele>190.60000610352</ele>
        <time>2019-06-14T07:58:00Z</time>
      </trkpt>
      <trkpt lat="59.92042" lon="10.85627">
        <ele>194.39999389648</ele>
        <time>2019-06-14T07:58:06Z</time>
      </trkpt>
      <trkpt lat="59.921" lon="10.85717">
        <ele>195.80000305176</ele>
        <time>2019-06-14T07:58:35Z</time>
      </trkpt>
      <trkpt lat="59.92108" lon="10.85764">
        <ele>195.80000305176</ele>
        <time>2019-06-14T07:58:41Z</time>
      </trkpt>
      <trkpt lat="59.92166" lon="10.8591">
        <ele>195.19999694824</ele>
        <time>2019-06-14T07:58:49Z</time>
      </trkpt>
      <trkpt lat="59.92182" lon="10.85989">
        <ele>194.39999389648</ele>
        <time>2019-06-14T07:58:54Z</time>
      </trkpt>
      <trkpt lat="59.92203" lon="10.86115">
        <ele>194.80000305176</ele>
        <time>2019-06-14T07:58:59Z</time>
      </trkpt>
      <trkpt lat="59.92212" lon="10.86199">
        <ele>195.60000610352</ele>
        <time>2019-06-14T07:59:07Z</time>
      </trkpt>
      <trkpt lat="59.92216" lon="10.86247">
        <ele>195.80000305176</ele>
        <time>2019-06-14T07:59:10Z</time>
      </trkpt>
      <trkpt lat="59.92243" lon="10.86372">
        <ele>199.80000305176</ele>
        <time>2019-06-14T07:59:15Z</time>
      </trkpt>
      <trkpt lat="59.92257" lon="10.86409">
        <ele>200</ele>
        <time>2019-06-14T07:59:25Z</time>
      </trkpt>
      <trkpt lat="59.92311" lon="10.86477">
        <ele>197.80000305176</ele>
        <time>2019-06-14T07:59:31Z</time>
      </trkpt>
      <trkpt lat="59.924" lon="10.86538">
        <ele>198.60000610352</ele>
        <time>2019-06-14T07:59:37Z</time>
      </trkpt>
      <trkpt lat="59.92473" lon="10.86554">
        <ele>197.39999389648</ele>
        <time>2019-06-14T07:59:40Z</time>
      </trkpt>
      <trkpt lat="59.92533" lon="10.86599">
        <ele>196.39999389648</ele>
        <time>2019-06-14T07:59:43Z</time>
      </trkpt>
      <trkpt lat="59.92577" lon="10.86621">
        <ele>193.60000610352</ele>
        <time>2019-06-14T07:59:50Z</time>
      </trkpt>
      <trkpt lat="59.92633" lon="10.8668">
        <ele>190.60000610352</ele>
        <time>2019-06-14T07:59:59Z</time>
      </trkpt>
      <trkpt lat="59.92753" lon="10.8666">
        <ele>179.39999389648</ele>
        <time>2019-06-14T08:00:05Z</time>
      </trkpt>
      <trkpt lat="59.92774" lon="10.8669">
        <ele>176.39999389648</ele>
        <time>2019-06-14T08:00:20Z</time>
      </trkpt>
      <trkpt lat="59.92789" lon="10.86742">
        <ele>178.39999389648</ele>
        <time>2019-06-14T08:00:25Z</time>
      </trkpt>
      <trkpt lat="59.92815" lon="10.86877">
        <ele>187.39999389648</ele>
        <time>2019-06-14T08:00:34Z</time>
      </trkpt>
      <trkpt lat="59.92826" lon="10.86899">
        <ele>188.60000610352</ele>
        <time>2019-06-14T08:00:38Z</time>
      </trkpt>
      <trkpt lat="59.92847" lon="10.8694">
        <ele>189.19999694824</ele>
        <time>2019-06-14T08:00:44Z</time>
      </trkpt>
      <trkpt lat="59.92884" lon="10.87064">
        <ele>188</ele>
        <time>2019-06-14T08:00:51Z</time>
      </trkpt>
      <trkpt lat="59.92893" lon="10.87153">
        <ele>186</ele>
        <time>2019-06-14T08:00:58Z</time>
      </trkpt>
      <trkpt lat="59.92886" lon="10.87242">
        <ele>190.80000305176</ele>
        <time>2019-06-14T08:01:10Z</time>
      </trkpt>
      <trkpt lat="59.9289" lon="10.87436">
        <ele>197.60000610352</ele>
        <time>2019-06-14T08:01:21Z</time>
      </trkpt>
      <trkpt lat="59.92843" lon="10.87595">
        <ele>203.39999389648</ele>
        <time>2019-06-14T08:01:25Z</time>
      </trkpt>
      <trkpt lat="59.92828" lon="10.8768">
        <ele>208.19999694824</ele>
        <time>2019-06-14T08:01:41Z</time>
      </trkpt>
      <trkpt lat="59.92834" lon="10.87764">
        <ele>207.19999694824</ele>
        <time>2019-06-14T08:01:48Z</time>
      </trkpt>
      <trkpt lat="59.9284" lon="10.87793">
        <ele>206</ele>
        <time>2019-06-14T08:01:55Z</time>
      </trkpt>
      <trkpt lat="59.92856" lon="10.87846">
        <ele>203.39999389648</ele>
        <time>2019-06-14T08:02:04Z</time>
      </trkpt>
      <trkpt lat="59.92933" lon="10.87899">
        <ele>198.39999389648</ele>
        <time>2019-06-14T08:02:11Z</time>
      </trkpt>
      <trkpt lat="59.92987" lon="10.87887">
        <ele>196.19999694824</ele>
        <time>2019-06-14T08:02:19Z</time>
      </trkpt>
      <trkpt lat="59.93018" lon="10.87817">
        <ele>192.60000610352</ele>
        <time>2019-06-14T08:02:29Z</time>
      </trkpt>
      <trkpt lat="59.93054" lon="10.87789">
        <ele>190.19999694824</ele>
        <time>2019-06-14T08:02:37Z</time>
      </trkpt>
      <trkpt lat="59.93077" lon="10.87788">
        <ele>190</ele>
        <time>2019-06-14T08:02:53Z</time>
      </trkpt>
      <trkpt lat="59.93104" lon="10.87783">
        <ele>190.60000610352</ele>
        <time>2019-06-14T08:03:03Z</time>
      </trkpt>
      <trkpt lat="59.93104" lon="10.87763">
        <ele>190.80000305176</ele>
        <time>2019-06-14T08:03:15Z</time>
      </trkpt>
      <trkpt lat="59.93101" lon="10.87753">
        <ele>190.19999694824</ele>
        <time>2019-06-14T08:03:30Z</time>
      </trkpt>
      <trkpt lat="59.93107" lon="10.87777">
        <ele>190.19999694824</ele>
        <time>2019-06-14T08:03:37Z</time>
      </trkpt>
      <trkpt lat="59.93089" lon="10.87785">
        <ele>190.80000305176</ele>
        <time>2019-06-14T08:03:41Z</time>
      </trkpt>
      <trkpt lat="59.93075" lon="10.87787">
        <ele>190.60000610352</ele>
        <time>2019-06-14T08:03:49Z</time>
      </trkpt>
      <trkpt lat="59.93117" lon="10.87794">
        <ele>190.80000305176</ele>
        <time>2019-06-14T08:03:54Z</time>
      </trkpt>
      <trkpt lat="59.93158" lon="10.87888">
        <ele>191.80000305176</ele>
        <time>2019-06-14T08:03:59Z</time>
      </trkpt>
      <trkpt lat="59.93216" lon="10.88064">
        <ele>192.80000305176</ele>
        <time>2019-06-14T08:04:03Z</time>
      </trkpt>
      <trkpt lat="59.93231" lon="10.88139">
        <ele>192</ele>
        <time>2019-06-14T08:04:05Z</time>
      </trkpt>
      <trkpt lat="59.93244" lon="10.88164">
        <ele>191.39999389648</ele>
        <time>2019-06-14T08:08:40Z</time>
      </trkpt>
      <trkpt lat="59.9328" lon="10.88249">
        <ele>187.39999389648</ele>
        <time>2019-06-14T08:08:47Z</time>
      </trkpt>
      <trkpt lat="59.93305" lon="10.88301">
        <ele>186.19999694824</ele>
        <time>2019-06-14T08:08:53Z</time>
      </trkpt>
      <trkpt lat="59.93311" lon="10.88467">
        <ele>184.80000305176</ele>
        <time>2019-06-14T08:09:00Z</time>
      </trkpt>
      <trkpt lat="59.93324" lon="10.88626">
        <ele>178.60000610352</ele>
        <time>2019-06-14T08:09:08Z</time>
      </trkpt>
      <trkpt lat="59.93404" lon="10.88713">
        <ele>174.19999694824</ele>
        <time>2019-06-14T08:09:27Z</time>
      </trkpt>
      <trkpt lat="59.93436" lon="10.88743">
        <ele>173.80000305176</ele>
        <time>2019-06-14T08:09:31Z</time>
      </trkpt>
      <trkpt lat="59.93479" lon="10.88657">
        <ele>173.60000610352</ele>
        <time>2019-06-14T08:09:34Z</time>
      </trkpt>
      <trkpt lat="59.93484" lon="10.88608">
        <ele>173</ele>
        <time>2019-06-14T08:09:49Z</time>
      </trkpt>
      <trkpt lat="59.9352" lon="10.88509">
        <ele>171</ele>
        <time>2019-06-14T08:09:56Z</time>
      </trkpt>
      <trkpt lat="59.93579" lon="10.88413">
        <ele>166.60000610352</ele>
        <time>2019-06-14T08:10:03Z</time>
      </trkpt>
      <trkpt lat="59.93592" lon="10.88359">
        <ele>166</ele>
        <time>2019-06-14T08:10:08Z</time>
      </trkpt>
      <trkpt lat="59.93594" lon="10.88359">
        <ele>164.60000610352</ele>
        <time>2019-06-14T08:10:14Z</time>
      </trkpt>
      <trkpt lat="59.93519" lon="10.88499">
        <ele>166.60000610352</ele>
        <time>2019-06-14T08:10:19Z</time>
      </trkpt>
      <trkpt lat="59.93492" lon="10.88574">
        <ele>171</ele>
        <time>2019-06-14T08:10:23Z</time>
      </trkpt>
      <trkpt lat="59.93487" lon="10.8863">
        <ele>171.39999389648</ele>
        <time>2019-06-14T08:10:27Z</time>
      </trkpt>
      <trkpt lat="59.93461" lon="10.88703">
        <ele>172.60000610352</ele>
        <time>2019-06-14T08:10:31Z</time>
      </trkpt>
      <trkpt lat="59.9343" lon="10.88734">
        <ele>173.60000610352</ele>
        <time>2019-06-14T08:10:34Z</time>
      </trkpt>
      <trkpt lat="59.93427" lon="10.88729">
        <ele>173.39999389648</ele>
        <time>2019-06-14T08:10:40Z</time>
      </trkpt>
      <trkpt lat="59.93436" lon="10.88744">
        <ele>173.19999694824</ele>
        <time>2019-06-14T08:10:43Z</time>
      </trkpt>
      <trkpt lat="59.93447" lon="10.88803">
        <ele>174.80000305176</ele>
        <time>2019-06-14T08:10:48Z</time>
      </trkpt>
      <trkpt lat="59.93468" lon="10.88908">
        <ele>179.60000610352</ele>
        <time>2019-06-14T08:10:54Z</time>
      </trkpt>
      <trkpt lat="59.9351" lon="10.8896">
        <ele>184.39999389648</ele>
        <time>2019-06-14T08:10:57Z</time>
      </trkpt>
      <trkpt lat="59.93544" lon="10.88988">
        <ele>185</ele>
        <time>2019-06-14T08:11:02Z</time>
      </trkpt>
      <trkpt lat="59.9357" lon="10.88994">
        <ele>183.80000305176</ele>
        <time>2019-06-14T08:11:10Z</time>
      </trkpt>
      <trkpt lat="59.93586" lon="10.89009">
        <ele>183.60000610352</ele>
        <time>2019-06-14T08:11:16Z</time>
      </trkpt>
      <trkpt lat="59.93618" lon="10.89046">
        <ele>185.39999389648</ele>
        <time>2019-06-14T08:11:38Z</time>
      </trkpt>
      <trkpt lat="59.93636" lon="10.89076">
        <ele>185.80000305176</ele>
        <time>2019-06-14T08:11:47Z</time>
      </trkpt>
      <trkpt lat="59.93677" lon="10.89194">
        <ele>186.39999389648</ele>
        <time>2019-06-14T08:11:53Z</time>
      </trkpt>
      <trkpt lat="59.93716" lon="10.89314">
        <ele>189.19999694824</ele>
        <time>2019-06-14T08:12:02Z</time>
      </trkpt>
      <trkpt lat="59.93734" lon="10.89353">
        <ele>190.80000305176</ele>
        <time>2019-06-14T08:12:26Z</time>
      </trkpt>
      <trkpt lat="59.93749" lon="10.89393">
        <ele>191.19999694824</ele>
        <time>2019-06-14T08:12:38Z</time>
      </trkpt>
      <trkpt lat="59.93737" lon="10.89437">
        <ele>190.80000305176</ele>
        <time>2019-06-14T08:12:50Z</time>
      </trkpt>
      <trkpt lat="59.93719" lon="10.89489">
        <ele>192.80000305176</ele>
        <time>2019-06-14T08:12:55Z</time>
      </trkpt>
      <trkpt lat="59.93698" lon="10.89598">
        <ele>201</ele>
        <time>2019-06-14T08:13:06Z</time>
      </trkpt>
      <trkpt lat="59.93708" lon="10.89618">
        <ele>202</ele>
        <time>2019-06-14T08:13:10Z</time>
      </trkpt>
      <trkpt lat="59.93742" lon="10.89654">
        <ele>202.80000305176</ele>
        <time>2019-06-14T08:13:20Z</time>
      </trkpt>
      <trkpt lat="59.93773" lon="10.89762">
        <ele>208.39999389648</ele>
        <time>2019-06-14T08:13:32Z</time>
      </trkpt>
      <trkpt lat="59.93785" lon="10.89966">
        <ele>212.60000610352</ele>
        <time>2019-06-14T08:13:37Z</time>
      </trkpt>
      <trkpt lat="59.93798" lon="10.90051">
        <ele>213</ele>
        <time>2019-06-14T08:13:45Z</time>
      </trkpt>
      <trkpt lat="59.93804" lon="10.90073">
        <ele>212.39999389648</ele>
        <time>2019-06-14T08:13:59Z</time>
      </trkpt>
      <trkpt lat="59.93799" lon="10.90047">
        <ele>212.39999389648</ele>
        <time>2019-06-14T08:14:08Z</time>
      </trkpt>
      <trkpt lat="59.93802" lon="10.90066">
        <ele>212.80000305176</ele>
        <time>2019-06-14T08:14:19Z</time>
      </trkpt>
      <trkpt lat="59.93814" lon="10.90096">
        <ele>212.80000305176</ele>
        <time>2019-06-14T08:14:27Z</time>
      </trkpt>
      <trkpt lat="59.93856" lon="10.90144">
        <ele>212.19999694824</ele>
        <time>2019-06-14T08:14:45Z</time>
      </trkpt>
      <trkpt lat="59.93895" lon="10.90198">
        <ele>211</ele>
        <time>2019-06-14T08:15:03Z</time>
      </trkpt>
      <trkpt lat="59.93912" lon="10.90262">
        <ele>209</ele>
        <time>2019-06-14T08:15:18Z</time>
      </trkpt>
      <trkpt lat="59.93916" lon="10.9032">
        <ele>207.80000305176</ele>
        <time>2019-06-14T08:15:28Z</time>
      </trkpt>
      <trkpt lat="59.93916" lon="10.90382">
        <ele>207.19999694824</ele>
        <time>2019-06-14T08:16:02Z</time>
      </trkpt>
      <trkpt lat="59.93894" lon="10.90463">
        <ele>203.19999694824</ele>
        <time>2019-06-14T08:16:04Z</time>
      </trkpt>
      <trkpt lat="59.93875" lon="10.90497">
        <ele>202.80000305176</ele>
        <time>2019-06-14T08:16:23Z</time>
      </trkpt>
      <trkpt lat="59.93824" lon="10.90565">
        <ele>205.80000305176</ele>
        <time>2019-06-14T08:16:30Z</time>
      </trkpt>
      <trkpt lat="59.93788" lon="10.90606">
        <ele>206.39999389648</ele>
        <time>2019-06-14T08:16:37Z</time>
      </trkpt>
      <trkpt lat="59.93754" lon="10.90643">
        <ele>209.39999389648</ele>
        <time>2019-06-14T08:16:44Z</time>
      </trkpt>
      <trkpt lat="59.93737" lon="10.90675">
        <ele>209.80000305176</ele>
        <time>2019-06-14T08:17:00Z</time>
      </trkpt>
      <trkpt lat="59.93686" lon="10.90797">
        <ele>213.39999389648</ele>
        <time>2019-06-14T08:17:06Z</time>
      </trkpt>
      <trkpt lat="59.93537" lon="10.90864">
        <ele>222.60000610352</ele>
        <time>2019-06-14T08:18:31Z</time>
      </trkpt>
      <trkpt lat="59.93487" lon="10.9088">
        <ele>223.19999694824</ele>
        <time>2019-06-14T08:18:38Z</time>
      </trkpt>
      <trkpt lat="59.93453" lon="10.90911">
        <ele>222.19999694824</ele>
        <time>2019-06-14T08:18:50Z</time>
      </trkpt>
      <trkpt lat="59.93424" lon="10.90972">
        <ele>221.19999694824</ele>
        <time>2019-06-14T08:18:55Z</time>
      </trkpt>
      <trkpt lat="59.93412" lon="10.91043">
        <ele>219</ele>
        <time>2019-06-14T08:19:02Z</time>
      </trkpt>
      <trkpt lat="59.93417" lon="10.91121">
        <ele>216.39999389648</ele>
        <time>2019-06-14T08:19:11Z</time>
      </trkpt>
      <trkpt lat="59.93434" lon="10.91177">
        <ele>211.80000305176</ele>
        <time>2019-06-14T08:19:20Z</time>
      </trkpt>
      <trkpt lat="59.93423" lon="10.91284">
        <ele>207.60000610352</ele>
        <time>2019-06-14T08:19:31Z</time>
      </trkpt>
      <trkpt lat="59.93351" lon="10.91378">
        <ele>206</ele>
        <time>2019-06-14T08:19:36Z</time>
      </trkpt>
      <trkpt lat="59.93313" lon="10.9147">
        <ele>203.39999389648</ele>
        <time>2019-06-14T08:19:44Z</time>
      </trkpt>
      <trkpt lat="59.93217" lon="10.91717">
        <ele>190.60000610352</ele>
        <time>2019-06-14T08:19:53Z</time>
      </trkpt>
      <trkpt lat="59.93189" lon="10.91785">
        <ele>186</ele>
        <time>2019-06-14T08:19:56Z</time>
      </trkpt>
      <trkpt lat="59.93171" lon="10.91841">
        <ele>185.60000610352</ele>
        <time>2019-06-14T08:20:02Z</time>
      </trkpt>
      <trkpt lat="59.93132" lon="10.91945">
        <ele>185.39999389648</ele>
        <time>2019-06-14T08:20:14Z</time>
      </trkpt>
      <trkpt lat="59.93102" lon="10.92019">
        <ele>185.60000610352</ele>
        <time>2019-06-14T08:20:21Z</time>
      </trkpt>
      <trkpt lat="59.93068" lon="10.92101">
        <ele>186.19999694824</ele>
        <time>2019-06-14T08:20:31Z</time>
      </trkpt>
      <trkpt lat="59.93052" lon="10.92191">
        <ele>187.39999389648</ele>
        <time>2019-06-14T08:21:12Z</time>
      </trkpt>
      <trkpt lat="59.93054" lon="10.92212">
        <ele>188</ele>
        <time>2019-06-14T08:21:14Z</time>
      </trkpt>
      <trkpt lat="59.93052" lon="10.92351">
        <ele>186.39999389648</ele>
        <time>2019-06-14T08:21:26Z</time>
      </trkpt>
      <trkpt lat="59.93049" lon="10.92408">
        <ele>184.60000610352</ele>
        <time>2019-06-14T08:21:32Z</time>
      </trkpt>
      <trkpt lat="59.93034" lon="10.92509">
        <ele>183</ele>
        <time>2019-06-14T08:21:45Z</time>
      </trkpt>
      <trkpt lat="59.93004" lon="10.92584">
        <ele>183.19999694824</ele>
        <time>2019-06-14T08:22:01Z</time>
      </trkpt>
      <trkpt lat="59.92972" lon="10.92634">
        <ele>184.80000305176</ele>
        <time>2019-06-14T08:22:08Z</time>
      </trkpt>
      <trkpt lat="59.92954" lon="10.9271">
        <ele>189.19999694824</ele>
        <time>2019-06-14T08:22:20Z</time>
      </trkpt>
      <trkpt lat="59.93033" lon="10.92869">
        <ele>187.80000305176</ele>
        <time>2019-06-14T08:22:30Z</time>
      </trkpt>
      <trkpt lat="59.93074" lon="10.92911">
        <ele>188</ele>
        <time>2019-06-14T08:22:38Z</time>
      </trkpt>
      <trkpt lat="59.93131" lon="10.92972">
        <ele>192</ele>
        <time>2019-06-14T08:22:45Z</time>
      </trkpt>
      <trkpt lat="59.93152" lon="10.92996">
        <ele>192.60000610352</ele>
        <time>2019-06-14T08:22:52Z</time>
      </trkpt>
      <trkpt lat="59.93181" lon="10.93047">
        <ele>192.19999694824</ele>
        <time>2019-06-14T08:23:18Z</time>
      </trkpt>
      <trkpt lat="59.93203" lon="10.93162">
        <ele>190.19999694824</ele>
        <time>2019-06-14T08:23:29Z</time>
      </trkpt>
      <trkpt lat="59.93206" lon="10.93214">
        <ele>190.39999389648</ele>
        <time>2019-06-14T08:24:30Z</time>
      </trkpt>
      <trkpt lat="59.93207" lon="10.93221">
        <ele>191.39999389648</ele>
        <time>2019-06-14T08:24:43Z</time>
      </trkpt>
      <trkpt lat="59.93207" lon="10.93164">
        <ele>190.80000305176</ele>
        <time>2019-06-14T08:24:49Z</time>
      </trkpt>
      <trkpt lat="59.93197" lon="10.93086">
        <ele>190.39999389648</ele>
        <time>2019-06-14T08:24:57Z</time>
      </trkpt>
      <trkpt lat="59.93172" lon="10.93025">
        <ele>190.39999389648</ele>
        <time>2019-06-14T08:25:01Z</time>
      </trkpt>
      <trkpt lat="59.93143" lon="10.92992">
        <ele>192</ele>
        <time>2019-06-14T08:25:10Z</time>
      </trkpt>
      <trkpt lat="59.93122" lon="10.93005">
        <ele>192.60000610352</ele>
        <time>2019-06-14T08:25:18Z</time>
      </trkpt>
      <trkpt lat="59.93122" lon="10.93006">
        <ele>194.19999694824</ele>
        <time>2019-06-14T08:25:27Z</time>
      </trkpt>
      <trkpt lat="59.93105" lon="10.93067">
        <ele>198</ele>
        <time>2019-06-14T08:25:33Z</time>
      </trkpt>
      <trkpt lat="59.93102" lon="10.9313">
        <ele>198.39999389648</ele>
        <time>2019-06-14T08:25:44Z</time>
      </trkpt>
      <trkpt lat="59.93086" lon="10.93164">
        <ele>199</ele>
        <time>2019-06-14T08:25:52Z</time>
      </trkpt>
      <trkpt lat="59.93068" lon="10.93122">
        <ele>201.80000305176</ele>
        <time>2019-06-14T08:25:58Z</time>
      </trkpt>
      <trkpt lat="59.93072" lon="10.93087">
        <ele>202.60000610352</ele>
        <time>2019-06-14T08:26:06Z</time>
      </trkpt>
      <trkpt lat="59.93071" lon="10.93093">
        <ele>201</ele>
        <time>2019-06-14T08:26:12Z</time>
      </trkpt>
      <trkpt lat="59.93077" lon="10.93035">
        <ele>199.19999694824</ele>
        <time>2019-06-14T08:26:23Z</time>
      </trkpt>
      <trkpt lat="59.93112" lon="10.93037">
        <ele>197</ele>
        <time>2019-06-14T08:26:32Z</time>
      </trkpt>
      <trkpt lat="59.9313" lon="10.93001">
        <ele>195.60000610352</ele>
        <time>2019-06-14T08:26:37Z</time>
      </trkpt>
      <trkpt lat="59.93144" lon="10.92992">
        <ele>191</ele>
        <time>2019-06-14T08:26:43Z</time>
      </trkpt>
      <trkpt lat="59.93167" lon="10.93025">
        <ele>190.80000305176</ele>
        <time>2019-06-14T08:26:50Z</time>
      </trkpt>
      <trkpt lat="59.93195" lon="10.93088">
        <ele>188</ele>
        <time>2019-06-14T08:26:55Z</time>
      </trkpt>
      <trkpt lat="59.93206" lon="10.93174">
        <ele>188</ele>
        <time>2019-06-14T08:27:08Z</time>
      </trkpt>
      <trkpt lat="59.9321" lon="10.93213">
        <ele>189</ele>
        <time>2019-06-14T08:27:19Z</time>
      </trkpt>
      <trkpt lat="59.93209" lon="10.93232">
        <ele>189</ele>
        <time>2019-06-14T08:27:28Z</time>
      </trkpt>
      <trkpt lat="59.93212" lon="10.93414">
        <ele>188.80000305176</ele>
        <time>2019-06-14T08:27:34Z</time>
      </trkpt>
      <trkpt lat="59.93219" lon="10.9344">
        <ele>186.39999389648</ele>
        <time>2019-06-14T08:27:39Z</time>
      </trkpt>
      <trkpt lat="59.93263" lon="10.93453">
        <ele>184.60000610352</ele>
        <time>2019-06-14T08:27:50Z</time>
      </trkpt>
      <trkpt lat="59.93342" lon="10.93513">
        <ele>183</ele>
        <time>2019-06-14T08:27:55Z</time>
      </trkpt>
      <trkpt lat="59.93394" lon="10.93559">
        <ele>183.39999389648</ele>
        <time>2019-06-14T08:28:08Z</time>
      </trkpt>
      <trkpt lat="59.93421" lon="10.93577">
        <ele>184.39999389648</ele>
        <time>2019-06-14T08:28:25Z</time>
      </trkpt>
      <trkpt lat="59.93461" lon="10.93595">
        <ele>184.60000610352</ele>
        <time>2019-06-14T08:28:30Z</time>
      </trkpt>
      <trkpt lat="59.93463" lon="10.93616">
        <ele>184</ele>
        <time>2019-06-14T08:28:45Z</time>
      </trkpt>
      <trkpt lat="59.93463" lon="10.93637">
        <ele>184</ele>
        <time>2019-06-14T08:28:53Z</time>
      </trkpt>
      <trkpt lat="59.93431" lon="10.93736">
        <ele>184.39999389648</ele>
        <time>2019-06-14T08:29:00Z</time>
      </trkpt>
      <trkpt lat="59.93412" lon="10.93785">
        <ele>184.80000305176</ele>
        <time>2019-06-14T08:29:14Z</time>
      </trkpt>
      <trkpt lat="59.93411" lon="10.93802">
        <ele>185.80000305176</ele>
        <time>2019-06-14T08:29:28Z</time>
      </trkpt>
      <trkpt lat="59.93415" lon="10.9386">
        <ele>187</ele>
        <time>2019-06-14T08:29:34Z</time>
      </trkpt>
      <trkpt lat="59.93438" lon="10.93886">
        <ele>189.39999389648</ele>
        <time>2019-06-14T08:29:47Z</time>
      </trkpt>
      <trkpt lat="59.93441" lon="10.93871">
        <ele>189.60000610352</ele>
        <time>2019-06-14T08:29:53Z</time>
      </trkpt>
      <trkpt lat="59.93422" lon="10.93846">
        <ele>189</ele>
        <time>2019-06-14T08:30:10Z</time>
      </trkpt>
      <trkpt lat="59.93425" lon="10.93794">
        <ele>186.60000610352</ele>
        <time>2019-06-14T08:30:26Z</time>
      </trkpt>
      <trkpt lat="59.93457" lon="10.93691">
        <ele>185.80000305176</ele>
        <time>2019-06-14T08:30:35Z</time>
      </trkpt>
      <trkpt lat="59.93487" lon="10.93642">
        <ele>185.39999389648</ele>
        <time>2019-06-14T08:30:46Z</time>
      </trkpt>
      <trkpt lat="59.93521" lon="10.93633">
        <ele>185.19999694824</ele>
        <time>2019-06-14T08:30:56Z</time>
      </trkpt>
      <trkpt lat="59.93532" lon="10.93644">
        <ele>186.80000305176</ele>
        <time>2019-06-14T08:31:05Z</time>
      </trkpt>
      <trkpt lat="59.9353" lon="10.9366">
        <ele>187.19999694824</ele>
        <time>2019-06-14T08:31:19Z</time>
      </trkpt>
      <trkpt lat="59.93526" lon="10.93688">
        <ele>187.19999694824</ele>
        <time>2019-06-14T08:31:22Z</time>
      </trkpt>
      <trkpt lat="59.93497" lon="10.93675">
        <ele>187.60000610352</ele>
        <time>2019-06-14T08:31:32Z</time>
      </trkpt>
      <trkpt lat="59.93468" lon="10.93725">
        <ele>186.19999694824</ele>
        <time>2019-06-14T08:31:36Z</time>
      </trkpt>
      <trkpt lat="59.93474" lon="10.93685">
        <ele>183.80000305176</ele>
        <time>2019-06-14T08:31:43Z</time>
      </trkpt>
      <trkpt lat="59.93536" lon="10.93655">
        <ele>186.80000305176</ele>
        <time>2019-06-14T08:31:53Z</time>
      </trkpt>
      <trkpt lat="59.9353" lon="10.93625">
        <ele>186.80000305176</ele>
        <time>2019-06-14T08:31:59Z</time>
      </trkpt>
      <trkpt lat="59.93502" lon="10.93574">
        <ele>184.39999389648</ele>
        <time>2019-06-14T08:32:14Z</time>
      </trkpt>
      <trkpt lat="59.93496" lon="10.93571">
        <ele>184.19999694824</ele>
        <time>2019-06-14T08:32:29Z</time>
      </trkpt>
      <trkpt lat="59.93471" lon="10.93595">
        <ele>184.19999694824</ele>
        <time>2019-06-14T08:32:39Z</time>
      </trkpt>
      <trkpt lat="59.93467" lon="10.93629">
        <ele>184.19999694824</ele>
        <time>2019-06-14T08:32:55Z</time>
      </trkpt>
      <trkpt lat="59.93455" lon="10.93678">
        <ele>184.39999389648</ele>
        <time>2019-06-14T08:33:11Z</time>
      </trkpt>
      <trkpt lat="59.93434" lon="10.93745">
        <ele>185</ele>
        <time>2019-06-14T08:33:18Z</time>
      </trkpt>
      <trkpt lat="59.93415" lon="10.93798">
        <ele>185.19999694824</ele>
        <time>2019-06-14T08:33:30Z</time>
      </trkpt>
      <trkpt lat="59.93374" lon="10.93913">
        <ele>187</ele>
        <time>2019-06-14T08:33:39Z</time>
      </trkpt>
      <trkpt lat="59.9335" lon="10.94001">
        <ele>187.39999389648</ele>
        <time>2019-06-14T08:33:55Z</time>
      </trkpt>
      <trkpt lat="59.93317" lon="10.94083">
        <ele>187.19999694824</ele>
        <time>2019-06-14T08:34:15Z</time>
      </trkpt>
      <trkpt lat="59.932" lon="10.94235">
        <ele>188.39999389648</ele>
        <time>2019-06-14T08:34:25Z</time>
      </trkpt>
      <trkpt lat="59.93138" lon="10.94299">
        <ele>188.80000305176</ele>
        <time>2019-06-14T08:34:43Z</time>
      </trkpt>
      <trkpt lat="59.93064" lon="10.94385">
        <ele>190.19999694824</ele>
        <time>2019-06-14T08:35:01Z</time>
      </trkpt>
      <trkpt lat="59.93001" lon="10.94483">
        <ele>191</ele>
        <time>2019-06-14T08:35:09Z</time>
      </trkpt>
      <trkpt lat="59.92997" lon="10.94513">
        <ele>191</ele>
        <time>2019-06-14T08:35:29Z</time>
      </trkpt>
      <trkpt lat="59.92982" lon="10.94556">
        <ele>191.39999389648</ele>
        <time>2019-06-14T08:35:37Z</time>
      </trkpt>
      <trkpt lat="59.92969" lon="10.9457">
        <ele>190.39999389648</ele>
        <time>2019-06-14T08:35:48Z</time>
      </trkpt>
      <trkpt lat="59.92948" lon="10.94588">
        <ele>190.60000610352</ele>
        <time>2019-06-14T08:36:04Z</time>
      </trkpt>
      <trkpt lat="59.92912" lon="10.94687">
        <ele>188.39999389648</ele>
        <time>2019-06-14T08:36:13Z</time>
      </trkpt>
      <trkpt lat="59.92901" lon="10.94739">
        <ele>188.60000610352</ele>
        <time>2019-06-14T08:36:36Z</time>
      </trkpt>
      <trkpt lat="59.92886" lon="10.94855">
        <ele>190.19999694824</ele>
        <time>2019-06-14T08:36:44Z</time>
      </trkpt>
      <trkpt lat="59.92885" lon="10.94902">
        <ele>189.19999694824</ele>
        <time>2019-06-14T08:36:48Z</time>
      </trkpt>
      <trkpt lat="59.92846" lon="10.95124">
        <ele>186.80000305176</ele>
        <time>2019-06-14T08:37:01Z</time>
      </trkpt>
      <trkpt lat="59.92816" lon="10.95288">
        <ele>184</ele>
        <time>2019-06-14T08:37:10Z</time>
      </trkpt>
      <trkpt lat="59.92806" lon="10.95331">
        <ele>182.80000305176</ele>
        <time>2019-06-14T08:37:22Z</time>
      </trkpt>
      <trkpt lat="59.92774" lon="10.95339">
        <ele>181.80000305176</ele>
        <time>2019-06-14T08:37:33Z</time>
      </trkpt>
      <trkpt lat="59.92791" lon="10.9534">
        <ele>181.80000305176</ele>
        <time>2019-06-14T08:37:37Z</time>
      </trkpt>
      <trkpt lat="59.92786" lon="10.95457">
        <ele>181.80000305176</ele>
        <time>2019-06-14T08:37:48Z</time>
      </trkpt>
      <trkpt lat="59.92804" lon="10.95599">
        <ele>182.39999389648</ele>
        <time>2019-06-14T08:37:53Z</time>
      </trkpt>
      <trkpt lat="59.92803" lon="10.95681">
        <ele>183</ele>
        <time>2019-06-14T08:38:01Z</time>
      </trkpt>
      <trkpt lat="59.92804" lon="10.95947">
        <ele>183</ele>
        <time>2019-06-14T08:38:12Z</time>
      </trkpt>
      <trkpt lat="59.92814" lon="10.96063">
        <ele>182.80000305176</ele>
        <time>2019-06-14T08:38:21Z</time>
      </trkpt>
      <trkpt lat="59.92817" lon="10.96214">
        <ele>182.80000305176</ele>
        <time>2019-06-14T08:38:27Z</time>
      </trkpt>
      <trkpt lat="59.92811" lon="10.96272">
        <ele>182</ele>
        <time>2019-06-14T08:38:35Z</time>
      </trkpt>
      <trkpt lat="59.92814" lon="10.96287">
        <ele>181.39999389648</ele>
        <time>2019-06-14T08:38:46Z</time>
      </trkpt>
      <trkpt lat="59.92813" lon="10.96331">
        <ele>181.39999389648</ele>
        <time>2019-06-14T08:39:00Z</time>
      </trkpt>
      <trkpt lat="59.92808" lon="10.96412">
        <ele>182.39999389648</ele>
        <time>2019-06-14T08:39:08Z</time>
      </trkpt>
      <trkpt lat="59.92816" lon="10.96515">
        <ele>182.39999389648</ele>
        <time>2019-06-14T08:39:18Z</time>
      </trkpt>
      <trkpt lat="59.9282" lon="10.96609">
        <ele>181</ele>
        <time>2019-06-14T08:39:34Z</time>
      </trkpt>
      <trkpt lat="59.92835" lon="10.96713">
        <ele>180.19999694824</ele>
        <time>2019-06-14T08:39:43Z</time>
      </trkpt>
      <trkpt lat="59.92875" lon="10.96914">
        <ele>174.60000610352</ele>
        <time>2019-06-14T08:39:56Z</time>
      </trkpt>
      <trkpt lat="59.929" lon="10.96931">
        <ele>174.60000610352</ele>
        <time>2019-06-14T08:40:06Z</time>
      </trkpt>
      <trkpt lat="59.92941" lon="10.97018">
        <ele>174.80000305176</ele>
        <time>2019-06-14T08:40:13Z</time>
      </trkpt>
      <trkpt lat="59.93014" lon="10.97187">
        <ele>175.39999389648</ele>
        <time>2019-06-14T08:40:34Z</time>
      </trkpt>
      <trkpt lat="59.93075" lon="10.974">
        <ele>176</ele>
        <time>2019-06-14T08:40:41Z</time>
      </trkpt>
      <trkpt lat="59.93114" lon="10.97531">
        <ele>176.19999694824</ele>
        <time>2019-06-14T08:40:52Z</time>
      </trkpt>
      <trkpt lat="59.93151" lon="10.97661">
        <ele>175.80000305176</ele>
        <time>2019-06-14T08:41:09Z</time>
      </trkpt>
      <trkpt lat="59.93186" lon="10.9779">
        <ele>176.39999389648</ele>
        <time>2019-06-14T08:41:22Z</time>
      </trkpt>
      <trkpt lat="59.93249" lon="10.98035">
        <ele>176.39999389648</ele>
        <time>2019-06-14T08:41:43Z</time>
      </trkpt>
      <trkpt lat="59.93276" lon="10.98134">
        <ele>176.80000305176</ele>
        <time>2019-06-14T08:41:55Z</time>
      </trkpt>
      <trkpt lat="59.93311" lon="10.98311">
        <ele>179.39999389648</ele>
        <time>2019-06-14T08:42:02Z</time>
      </trkpt>
      <trkpt lat="59.93312" lon="10.98468">
        <ele>183.60000610352</ele>
        <time>2019-06-14T08:42:14Z</time>
      </trkpt>
      <trkpt lat="59.93302" lon="10.98551">
        <ele>184.80000305176</ele>
        <time>2019-06-14T08:42:21Z</time>
      </trkpt>
      <trkpt lat="59.93275" lon="10.98605">
        <ele>185</ele>
        <time>2019-06-14T08:42:29Z</time>
      </trkpt>
      <trkpt lat="59.93281" lon="10.9869">
        <ele>185</ele>
        <time>2019-06-14T08:42:34Z</time>
      </trkpt>
      <trkpt lat="59.9328" lon="10.98743">
        <ele>184.39999389648</ele>
        <time>2019-06-14T08:42:42Z</time>
      </trkpt>
      <trkpt lat="59.93279" lon="10.9882">
        <ele>186.19999694824</ele>
        <time>2019-06-14T08:42:52Z</time>
      </trkpt>
      <trkpt lat="59.93267" lon="10.98974">
        <ele>191.80000305176</ele>
        <time>2019-06-14T08:43:06Z</time>
      </trkpt>
      <trkpt lat="59.93265" lon="10.99056">
        <ele>192.60000610352</ele>
        <time>2019-06-14T08:43:17Z</time>
      </trkpt>
      <trkpt lat="59.93299" lon="10.99113">
        <ele>190.60000610352</ele>
        <time>2019-06-14T08:43:30Z</time>
      </trkpt>
      <trkpt lat="59.933" lon="10.99267">
        <ele>193.80000305176</ele>
        <time>2019-06-14T08:43:36Z</time>
      </trkpt>
      <trkpt lat="59.93324" lon="10.99323">
        <ele>193.80000305176</ele>
        <time>2019-06-14T08:43:53Z</time>
      </trkpt>
      <trkpt lat="59.93374" lon="10.99405">
        <ele>194</ele>
        <time>2019-06-14T08:43:56Z</time>
      </trkpt>
      <trkpt lat="59.93395" lon="10.99445">
        <ele>193.60000610352</ele>
        <time>2019-06-14T08:44:01Z</time>
      </trkpt>
      <trkpt lat="59.93395" lon="10.99475">
        <ele>192.80000305176</ele>
        <time>2019-06-14T08:44:07Z</time>
      </trkpt>
      <trkpt lat="59.93411" lon="10.99642">
        <ele>191</ele>
        <time>2019-06-14T08:44:09Z</time>
      </trkpt>
      <trkpt lat="59.93448" lon="10.99721">
        <ele>187.19999694824</ele>
        <time>2019-06-14T08:44:13Z</time>
      </trkpt>
      <trkpt lat="59.9345" lon="10.99754">
        <ele>186.80000305176</ele>
        <time>2019-06-14T08:44:19Z</time>
      </trkpt>
      <trkpt lat="59.93451" lon="10.9975">
        <ele>185.39999389648</ele>
        <time>2019-06-14T08:44:23Z</time>
      </trkpt>
      <trkpt lat="59.93435" lon="10.99728">
        <ele>186.60000610352</ele>
        <time>2019-06-14T08:44:30Z</time>
      </trkpt>
      <trkpt lat="59.93434" lon="10.99856">
        <ele>185.39999389648</ele>
        <time>2019-06-14T08:44:35Z</time>
      </trkpt>
      <trkpt lat="59.93436" lon="10.99906">
        <ele>184</ele>
        <time>2019-06-14T08:44:42Z</time>
      </trkpt>
      <trkpt lat="59.93485" lon="11.00003">
        <ele>178.80000305176</ele>
        <time>2019-06-14T08:44:58Z</time>
      </trkpt>
      <trkpt lat="59.93515" lon="11.00055">
        <ele>177.60000610352</ele>
        <time>2019-06-14T08:45:09Z</time>
      </trkpt>
      <trkpt lat="59.93563" lon="11.00116">
        <ele>176.60000610352</ele>
        <time>2019-06-14T08:45:14Z</time>
      </trkpt>
      <trkpt lat="59.93614" lon="11.00107">
        <ele>179.39999389648</ele>
        <time>2019-06-14T08:45:26Z</time>
      </trkpt>
      <trkpt lat="59.93668" lon="11.00247">
        <ele>185.80000305176</ele>
        <time>2019-06-14T08:45:32Z</time>
      </trkpt>
      <trkpt lat="59.93684" lon="11.00278">
        <ele>186</ele>
        <time>2019-06-14T08:45:41Z</time>
      </trkpt>
      <trkpt lat="59.93731" lon="11.00382">
        <ele>185.60000610352</ele>
        <time>2019-06-14T08:45:49Z</time>
      </trkpt>
      <trkpt lat="59.93767" lon="11.00474">
        <ele>187</ele>
        <time>2019-06-14T08:46:01Z</time>
      </trkpt>
      <trkpt lat="59.9381" lon="11.00591">
        <ele>194.19999694824</ele>
        <time>2019-06-14T08:46:12Z</time>
      </trkpt>
      <trkpt lat="59.93861" lon="11.00726">
        <ele>198.60000610352</ele>
        <time>2019-06-14T08:46:17Z</time>
      </trkpt>
      <trkpt lat="59.9389" lon="11.00814">
        <ele>199.19999694824</ele>
        <time>2019-06-14T08:46:21Z</time>
      </trkpt>
      <trkpt lat="59.93905" lon="11.00848">
        <ele>199.60000610352</ele>
        <time>2019-06-14T08:46:30Z</time>
      </trkpt>
      <trkpt lat="59.93923" lon="11.00868">
        <ele>199.60000610352</ele>
        <time>2019-06-14T08:46:36Z</time>
      </trkpt>
      <trkpt lat="59.94019" lon="11.00968">
        <ele>198.19999694824</ele>
        <time>2019-06-14T08:46:43Z</time>
      </trkpt>
      <trkpt lat="59.94057" lon="11.01046">
        <ele>201</ele>
        <time>2019-06-14T08:46:49Z</time>
      </trkpt>
      <trkpt lat="59.94038" lon="11.01094">
        <ele>201.39999389648</ele>
        <time>2019-06-14T08:46:56Z</time>
      </trkpt>
      <trkpt lat="59.94022" lon="11.0113">
        <ele>201</ele>
        <time>2019-06-14T08:47:10Z</time>
      </trkpt>
      <trkpt lat="59.94008" lon="11.01211">
        <ele>198</ele>
        <time>2019-06-14T08:47:16Z</time>
      </trkpt>
      <trkpt lat="59.94039" lon="11.01291">
        <ele>197</ele>
        <time>2019-06-14T08:47:24Z</time>
      </trkpt>
      <trkpt lat="59.94067" lon="11.01379">
        <ele>196.60000610352</ele>
        <time>2019-06-14T08:47:36Z</time>
      </trkpt>
      <trkpt lat="59.94102" lon="11.0144">
        <ele>196.80000305176</ele>
        <time>2019-06-14T08:47:44Z</time>
      </trkpt>
      <trkpt lat="59.94165" lon="11.01495">
        <ele>197.39999389648</ele>
        <time>2019-06-14T08:47:59Z</time>
      </trkpt>
      <trkpt lat="59.94211" lon="11.01532">
        <ele>197.19999694824</ele>
        <time>2019-06-14T08:48:08Z</time>
      </trkpt>
      <trkpt lat="59.94233" lon="11.01542">
        <ele>196.19999694824</ele>
        <time>2019-06-14T08:48:23Z</time>
      </trkpt>
      <trkpt lat="59.94306" lon="11.01578">
        <ele>195.80000305176</ele>
        <time>2019-06-14T08:48:36Z</time>
      </trkpt>
      <trkpt lat="59.94354" lon="11.01641">
        <ele>195.80000305176</ele>
        <time>2019-06-14T08:48:42Z</time>
      </trkpt>
      <trkpt lat="59.944" lon="11.01739">
        <ele>195.60000610352</ele>
        <time>2019-06-14T08:48:50Z</time>
      </trkpt>
      <trkpt lat="59.94427" lon="11.01799">
        <ele>195.39999389648</ele>
        <time>2019-06-14T08:49:00Z</time>
      </trkpt>
      <trkpt lat="59.94468" lon="11.01881">
        <ele>195.39999389648</ele>
        <time>2019-06-14T08:49:42Z</time>
      </trkpt>
      <trkpt lat="59.94521" lon="11.01939">
        <ele>194.39999389648</ele>
        <time>2019-06-14T08:49:56Z</time>
      </trkpt>
      <trkpt lat="59.94556" lon="11.01976">
        <ele>194.39999389648</ele>
        <time>2019-06-14T08:49:59Z</time>
      </trkpt>
      <trkpt lat="59.94563" lon="11.02094">
        <ele>192.80000305176</ele>
        <time>2019-06-14T08:50:02Z</time>
      </trkpt>
      <trkpt lat="59.94565" lon="11.021">
        <ele>191.60000610352</ele>
        <time>2019-06-14T08:50:05Z</time>
      </trkpt>
      <trkpt lat="59.94572" lon="11.02133">
        <ele>191.39999389648</ele>
        <time>2019-06-14T08:50:08Z</time>
      </trkpt>
      <trkpt lat="59.94588" lon="11.02382">
        <ele>186.19999694824</ele>
        <time>2019-06-14T08:50:14Z</time>
      </trkpt>
      <trkpt lat="59.94586" lon="11.02444">
        <ele>184</ele>
        <time>2019-06-14T08:50:22Z</time>
      </trkpt>
      <trkpt lat="59.94581" lon="11.02504">
        <ele>180.39999389648</ele>
        <time>2019-06-14T08:50:27Z</time>
      </trkpt>
      <trkpt lat="59.94592" lon="11.02576">
        <ele>174.80000305176</ele>
        <time>2019-06-14T08:50:34Z</time>
      </trkpt>
      <trkpt lat="59.94658" lon="11.02582">
        <ele>170.19999694824</ele>
        <time>2019-06-14T08:50:38Z</time>
      </trkpt>
      <trkpt lat="59.94749" lon="11.02619">
        <ele>165.39999389648</ele>
        <time>2019-06-14T08:50:42Z</time>
      </trkpt>
      <trkpt lat="59.94836" lon="11.02708">
        <ele>161.60000610352</ele>
        <time>2019-06-14T08:50:46Z</time>
      </trkpt>
      <trkpt lat="59.94929" lon="11.02756">
        <ele>158.60000610352</ele>
        <time>2019-06-14T08:50:49Z</time>
      </trkpt>
      <trkpt lat="59.95006" lon="11.0283">
        <ele>155.80000305176</ele>
        <time>2019-06-14T08:50:56Z</time>
      </trkpt>
      <trkpt lat="59.95122" lon="11.02872">
        <ele>149</ele>
        <time>2019-06-14T08:51:07Z</time>
      </trkpt>
      <trkpt lat="59.95172" lon="11.02869">
        <ele>147</ele>
        <time>2019-06-14T08:51:12Z</time>
      </trkpt>
      <trkpt lat="59.95203" lon="11.02863">
        <ele>143.80000305176</ele>
        <time>2019-06-14T08:51:20Z</time>
      </trkpt>
      <trkpt lat="59.95214" lon="11.02892">
        <ele>139.19999694824</ele>
        <time>2019-06-14T08:51:24Z</time>
      </trkpt>
      <trkpt lat="59.95213" lon="11.02939">
        <ele>137.80000305176</ele>
        <time>2019-06-14T08:51:31Z</time>
      </trkpt>
      <trkpt lat="59.95214" lon="11.03065">
        <ele>137.60000610352</ele>
        <time>2019-06-14T08:51:36Z</time>
      </trkpt>
      <trkpt lat="59.95211" lon="11.03291">
        <ele>135.80000305176</ele>
        <time>2019-06-14T08:51:42Z</time>
      </trkpt>
      <trkpt lat="59.95201" lon="11.03465">
        <ele>133.80000305176</ele>
        <time>2019-06-14T08:51:51Z</time>
      </trkpt>
      <trkpt lat="59.95214" lon="11.03528">
        <ele>127.40000152588</ele>
        <time>2019-06-14T08:51:56Z</time>
      </trkpt>
      <trkpt lat="59.95253" lon="11.03531">
        <ele>125.19999694824</ele>
        <time>2019-06-14T08:52:10Z</time>
      </trkpt>
      <trkpt lat="59.9526" lon="11.03523">
        <ele>123</ele>
        <time>2019-06-14T08:52:35Z</time>
      </trkpt>
      <trkpt lat="59.9526" lon="11.03543">
        <ele>123</ele>
        <time>2019-06-14T08:52:41Z</time>
      </trkpt>
      <trkpt lat="59.95259" lon="11.03608">
        <ele>124.59999847412</ele>
        <time>2019-06-14T08:52:46Z</time>
      </trkpt>
      <trkpt lat="59.9526" lon="11.03643">
        <ele>126.40000152588</ele>
        <time>2019-06-14T08:52:56Z</time>
      </trkpt>
      <trkpt lat="59.9527" lon="11.03852">
        <ele>126.40000152588</ele>
        <time>2019-06-14T08:53:10Z</time>
      </trkpt>
      <trkpt lat="59.95281" lon="11.03954">
        <ele>126.80000305176</ele>
        <time>2019-06-14T08:53:19Z</time>
      </trkpt>
      <trkpt lat="59.95283" lon="11.0397">
        <ele>126.19999694824</ele>
        <time>2019-06-14T08:53:22Z</time>
      </trkpt>
      <trkpt lat="59.95294" lon="11.04036">
        <ele>126.19999694824</ele>
        <time>2019-06-14T08:53:27Z</time>
      </trkpt>
      <trkpt lat="59.95312" lon="11.04126">
        <ele>125</ele>
        <time>2019-06-14T08:53:31Z</time>
      </trkpt>
      <trkpt lat="59.95326" lon="11.0419">
        <ele>124.59999847412</ele>
        <time>2019-06-14T08:53:38Z</time>
      </trkpt>
      <trkpt lat="59.95339" lon="11.04251">
        <ele>124.40000152588</ele>
        <time>2019-06-14T08:53:48Z</time>
      </trkpt>
      <trkpt lat="59.95351" lon="11.04275">
        <ele>124.59999847412</ele>
        <time>2019-06-14T08:54:01Z</time>
      </trkpt>
      <trkpt lat="59.95356" lon="11.04314">
        <ele>124.59999847412</ele>
        <time>2019-06-14T08:54:07Z</time>
      </trkpt>
      <trkpt lat="59.9537" lon="11.0439">
        <ele>124.40000152588</ele>
        <time>2019-06-14T08:54:13Z</time>
      </trkpt>
      <trkpt lat="59.95374" lon="11.04402">
        <ele>124.19999694824</ele>
        <time>2019-06-14T08:54:15Z</time>
      </trkpt>
      <trkpt lat="59.95377" lon="11.04421">
        <ele>124.19999694824</ele>
        <time>2019-06-14T08:54:19Z</time>
      </trkpt>
      <trkpt lat="59.9537" lon="11.04425">
        <ele>123.80000305176</ele>
        <time>2019-06-14T08:54:25Z</time>
      </trkpt>
      <trkpt lat="59.95388" lon="11.04481">
        <ele>123.59999847412</ele>
        <time>2019-06-14T08:54:31Z</time>
      </trkpt>
      <trkpt lat="59.95394" lon="11.04517">
        <ele>123.80000305176</ele>
        <time>2019-06-14T08:54:39Z</time>
      </trkpt>
      <trkpt lat="59.95381" lon="11.04466">
        <ele>123.59999847412</ele>
        <time>2019-06-14T08:54:51Z</time>
      </trkpt>
      <trkpt lat="59.95385" lon="11.04473">
        <ele>123.40000152588</ele>
        <time>2019-06-14T08:54:57Z</time>
      </trkpt>
      <trkpt lat="59.95391" lon="11.0449">
        <ele>123.40000152588</ele>
        <time>2019-06-14T08:55:14Z</time>
      </trkpt>
      <trkpt lat="59.95401" lon="11.0453">
        <ele>123.59999847412</ele>
        <time>2019-06-14T08:55:19Z</time>
      </trkpt>
      <trkpt lat="59.95408" lon="11.04529">
        <ele>123.80000305176</ele>
        <time>2019-06-14T08:55:23Z</time>
      </trkpt>
      <trkpt lat="59.95423" lon="11.04533">
        <ele>123.59999847412</ele>
        <time>2019-06-14T08:55:31Z</time>
      </trkpt>
      <trkpt lat="59.95441" lon="11.04522">
        <ele>123.59999847412</ele>
        <time>2019-06-14T08:55:35Z</time>
      </trkpt>
      <trkpt lat="59.95479" lon="11.04549">
        <ele>123.59999847412</ele>
        <time>2019-06-14T08:55:39Z</time>
      </trkpt>
      <trkpt lat="59.9551" lon="11.04573">
        <ele>124.40000152588</ele>
        <time>2019-06-14T08:55:49Z</time>
      </trkpt>
      <trkpt lat="59.95588" lon="11.04638">
        <ele>125</ele>
        <time>2019-06-14T08:55:55Z</time>
      </trkpt>
      <trkpt lat="59.95592" lon="11.04648">
        <ele>125.19999694824</ele>
        <time>2019-06-14T08:56:24Z</time>
      </trkpt>
      <trkpt lat="59.95598" lon="11.04663">
        <ele>125.19999694824</ele>
        <time>2019-06-14T08:57:37Z</time>
      </trkpt>
      <trkpt lat="59.95598" lon="11.04693">
        <ele>125</ele>
        <time>2019-06-14T08:57:43Z</time>
      </trkpt>
      <trkpt lat="59.95584" lon="11.04738">
        <ele>125.19999694824</ele>
        <time>2019-06-14T08:58:10Z</time>
      </trkpt>
      <trkpt lat="59.95582" lon="11.0475">
        <ele>124.80000305176</ele>
        <time>2019-06-14T08:58:15Z</time>
      </trkpt>
      <trkpt lat="59.95573" lon="11.04803">
        <ele>124.80000305176</ele>
        <time>2019-06-14T08:58:18Z</time>
      </trkpt>
      <trkpt lat="59.95569" lon="11.04843">
        <ele>125</ele>
        <time>2019-06-14T08:58:22Z</time>
      </trkpt>
      <trkpt lat="59.95562" lon="11.04875">
        <ele>124.59999847412</ele>
        <time>2019-06-14T08:58:26Z</time>
      </trkpt>
      <trkpt lat="59.95547" lon="11.04957">
        <ele>124.59999847412</ele>
        <time>2019-06-14T08:58:32Z</time>
      </trkpt>
      <trkpt lat="59.95545" lon="11.04974">
        <ele>124.40000152588</ele>
        <time>2019-06-14T08:58:42Z</time>
      </trkpt>
      <trkpt lat="59.95554" lon="11.05001">
        <ele>124.40000152588</ele>
        <time>2019-06-14T08:58:53Z</time>
      </trkpt>
      <trkpt lat="59.95619" lon="11.0506">
        <ele>124.59999847412</ele>
        <time>2019-06-14T08:59:09Z</time>
      </trkpt>
      <trkpt lat="59.95672" lon="11.051">
        <ele>124.59999847412</ele>
        <time>2019-06-14T08:59:22Z</time>
      </trkpt>
      <trkpt lat="59.95738" lon="11.05149">
        <ele>125</ele>
        <time>2019-06-14T08:59:26Z</time>
      </trkpt>
      <trkpt lat="59.95761" lon="11.05187">
        <ele>125.40000152588</ele>
        <time>2019-06-14T08:59:30Z</time>
      </trkpt>
      <trkpt lat="59.95781" lon="11.05223">
        <ele>125.40000152588</ele>
        <time>2019-06-14T08:59:38Z</time>
      </trkpt>
      <trkpt lat="59.95852" lon="11.05381">
        <ele>125.19999694824</ele>
        <time>2019-06-14T08:59:46Z</time>
      </trkpt>
      <trkpt lat="59.95863" lon="11.05411">
        <ele>125.19999694824</ele>
        <time>2019-06-14T08:59:50Z</time>
      </trkpt>
      <trkpt lat="59.95901" lon="11.05504">
        <ele>125.40000152588</ele>
        <time>2019-06-14T08:59:55Z</time>
      </trkpt>
      <trkpt lat="59.95963" lon="11.05655">
        <ele>125.59999847412</ele>
        <time>2019-06-14T09:00:16Z</time>
      </trkpt>
      <trkpt lat="59.95987" lon="11.05716">
        <ele>125.59999847412</ele>
        <time>2019-06-14T09:00:22Z</time>
      </trkpt>
      <trkpt lat="59.96011" lon="11.05772">
        <ele>126</ele>
        <time>2019-06-14T09:00:33Z</time>
      </trkpt>
      <trkpt lat="59.96046" lon="11.05858">
        <ele>126</ele>
        <time>2019-06-14T09:00:40Z</time>
      </trkpt>
      <trkpt lat="59.96099" lon="11.05984">
        <ele>126.19999694824</ele>
        <time>2019-06-14T09:00:49Z</time>
      </trkpt>
      <trkpt lat="59.96132" lon="11.06058">
        <ele>126.40000152588</ele>
        <time>2019-06-14T09:00:57Z</time>
      </trkpt>
      <trkpt lat="59.96147" lon="11.06042">
        <ele>126.59999847412</ele>
        <time>2019-06-14T09:01:04Z</time>
      </trkpt>
      <trkpt lat="59.96156" lon="11.06057">
        <ele>126.59999847412</ele>
        <time>2019-06-14T09:01:17Z</time>
      </trkpt>
      <trkpt lat="59.96206" lon="11.06127">
        <ele>125.80000305176</ele>
        <time>2019-06-14T09:01:25Z</time>
      </trkpt>
      <trkpt lat="59.96225" lon="11.06135">
        <ele>123</ele>
        <time>2019-06-14T09:01:31Z</time>
      </trkpt>
      <trkpt lat="59.9625" lon="11.06072">
        <ele>124.59999847412</ele>
        <time>2019-06-14T09:01:42Z</time>
      </trkpt>
      <trkpt lat="59.96262" lon="11.06051">
        <ele>125.80000305176</ele>
        <time>2019-06-14T09:01:47Z</time>
      </trkpt>
      <trkpt lat="59.96312" lon="11.05998">
        <ele>127.40000152588</ele>
        <time>2019-06-14T09:01:50Z</time>
      </trkpt>
      <trkpt lat="59.96337" lon="11.06056">
        <ele>127.59999847412</ele>
        <time>2019-06-14T09:02:02Z</time>
      </trkpt>
      <trkpt lat="59.96367" lon="11.06167">
        <ele>127.19999694824</ele>
        <time>2019-06-14T09:02:16Z</time>
      </trkpt>
      <trkpt lat="59.96416" lon="11.06317">
        <ele>127</ele>
        <time>2019-06-14T09:02:26Z</time>
      </trkpt>
      <trkpt lat="59.96429" lon="11.06344">
        <ele>127</ele>
        <time>2019-06-14T09:02:43Z</time>
      </trkpt>
      <trkpt lat="59.96539" lon="11.06483">
        <ele>127.40000152588</ele>
        <time>2019-06-14T09:02:52Z</time>
      </trkpt>
      <trkpt lat="59.96609" lon="11.0651">
        <ele>127.40000152588</ele>
        <time>2019-06-14T09:03:03Z</time>
      </trkpt>
      <trkpt lat="59.96671" lon="11.06532">
        <ele>129</ele>
        <time>2019-06-14T09:03:10Z</time>
      </trkpt>
      <trkpt lat="59.96742" lon="11.06562">
        <ele>128</ele>
        <time>2019-06-14T09:03:20Z</time>
      </trkpt>
      <trkpt lat="59.96843" lon="11.06587">
        <ele>131.39999389648</ele>
        <time>2019-06-14T09:03:36Z</time>
      </trkpt>
      <trkpt lat="59.96898" lon="11.06607">
        <ele>131.60000610352</ele>
        <time>2019-06-14T09:03:42Z</time>
      </trkpt>
      <trkpt lat="59.97" lon="11.06643">
        <ele>129</ele>
        <time>2019-06-14T09:03:48Z</time>
      </trkpt>
      <trkpt lat="59.97064" lon="11.06665">
        <ele>128.60000610352</ele>
        <time>2019-06-14T09:03:57Z</time>
      </trkpt>
      <trkpt lat="59.97204" lon="11.0673">
        <ele>131.39999389648</ele>
        <time>2019-06-14T09:04:04Z</time>
      </trkpt>
      <trkpt lat="59.97251" lon="11.06735">
        <ele>132</ele>
        <time>2019-06-14T09:04:16Z</time>
      </trkpt>
      <trkpt lat="59.97328" lon="11.06764">
        <ele>131</ele>
        <time>2019-06-14T09:04:23Z</time>
      </trkpt>
      <trkpt lat="59.9741" lon="11.06793">
        <ele>129.39999389648</ele>
        <time>2019-06-14T09:04:40Z</time>
      </trkpt>
      <trkpt lat="59.97507" lon="11.06826">
        <ele>128.39999389648</ele>
        <time>2019-06-14T09:04:48Z</time>
      </trkpt>
      <trkpt lat="59.97578" lon="11.06851">
        <ele>128.60000610352</ele>
        <time>2019-06-14T09:04:54Z</time>
      </trkpt>
      <trkpt lat="59.97673" lon="11.06891">
        <ele>128.60000610352</ele>
        <time>2019-06-14T09:05:03Z</time>
      </trkpt>
      <trkpt lat="59.97736" lon="11.06908">
        <ele>128.80000305176</ele>
        <time>2019-06-14T09:05:13Z</time>
      </trkpt>
      <trkpt lat="59.97795" lon="11.06929">
        <ele>128.60000610352</ele>
        <time>2019-06-14T09:05:24Z</time>
      </trkpt>
      <trkpt lat="59.9783" lon="11.06953">
        <ele>128.60000610352</ele>
        <time>2019-06-14T09:05:40Z</time>
      </trkpt>
      <trkpt lat="59.97945" lon="11.06981">
        <ele>129.39999389648</ele>
        <time>2019-06-14T09:05:55Z</time>
      </trkpt>
      <trkpt lat="59.98" lon="11.07001">
        <ele>129.39999389648</ele>
        <time>2019-06-14T09:06:04Z</time>
      </trkpt>
      <trkpt lat="59.9806" lon="11.07022">
        <ele>130.19999694824</ele>
        <time>2019-06-14T09:06:24Z</time>
      </trkpt>
      <trkpt lat="59.98103" lon="11.07049">
        <ele>130.39999389648</ele>
        <time>2019-06-14T09:06:32Z</time>
      </trkpt>
      <trkpt lat="59.98141" lon="11.07053">
        <ele>130.39999389648</ele>
        <time>2019-06-14T09:07:28Z</time>
      </trkpt>
      <trkpt lat="59.98247" lon="11.07088">
        <ele>130.60000610352</ele>
        <time>2019-06-14T09:07:34Z</time>
      </trkpt>
      <trkpt lat="59.98339" lon="11.07137">
        <ele>130.60000610352</ele>
        <time>2019-06-14T09:07:42Z</time>
      </trkpt>
      <trkpt lat="59.98414" lon="11.07149">
        <ele>129.60000610352</ele>
        <time>2019-06-14T09:07:53Z</time>
      </trkpt>
      <trkpt lat="59.98525" lon="11.07191">
        <ele>131.19999694824</ele>
        <time>2019-06-14T09:08:00Z</time>
      </trkpt>
      <trkpt lat="59.98587" lon="11.07223">
        <ele>131.60000610352</ele>
        <time>2019-06-14T09:08:12Z</time>
      </trkpt>
      <trkpt lat="59.98611" lon="11.07238">
        <ele>131.60000610352</ele>
        <time>2019-06-14T09:08:19Z</time>
      </trkpt>
      <trkpt lat="59.9867" lon="11.07259">
        <ele>132.19999694824</ele>
        <time>2019-06-14T09:08:24Z</time>
      </trkpt>
      <trkpt lat="59.98794" lon="11.07345">
        <ele>132.80000305176</ele>
        <time>2019-06-14T09:08:28Z</time>
      </trkpt>
      <trkpt lat="59.98816" lon="11.07378">
        <ele>132.80000305176</ele>
        <time>2019-06-14T09:08:32Z</time>
      </trkpt>
      <trkpt lat="59.98861" lon="11.07403">
        <ele>132.39999389648</ele>
        <time>2019-06-14T09:08:34Z</time>
      </trkpt>
      <trkpt lat="59.98944" lon="11.07495">
        <ele>133.60000610352</ele>
        <time>2019-06-14T09:08:39Z</time>
      </trkpt>
      <trkpt lat="59.99025" lon="11.07609">
        <ele>133.19999694824</ele>
        <time>2019-06-14T09:08:47Z</time>
      </trkpt>
      <trkpt lat="59.99127" lon="11.07762">
        <ele>135</ele>
        <time>2019-06-14T09:08:55Z</time>
      </trkpt>
      <trkpt lat="59.99158" lon="11.07836">
        <ele>135.19999694824</ele>
        <time>2019-06-14T09:09:07Z</time>
      </trkpt>
      <trkpt lat="59.99186" lon="11.0787">
        <ele>135.39999389648</ele>
        <time>2019-06-14T09:09:19Z</time>
      </trkpt>
      <trkpt lat="59.99214" lon="11.07965">
        <ele>136.39999389648</ele>
        <time>2019-06-14T09:09:28Z</time>
      </trkpt>
      <trkpt lat="59.9924" lon="11.07983">
        <ele>135.60000610352</ele>
        <time>2019-06-14T09:09:33Z</time>
      </trkpt>
      <trkpt lat="59.99243" lon="11.07966">
        <ele>135.60000610352</ele>
        <time>2019-06-14T09:09:40Z</time>
      </trkpt>
      <trkpt lat="59.99231" lon="11.07953">
        <ele>137.39999389648</ele>
        <time>2019-06-14T09:09:53Z</time>
      </trkpt>
      <trkpt lat="59.99235" lon="11.07984">
        <ele>138.19999694824</ele>
        <time>2019-06-14T09:10:03Z</time>
      </trkpt>
      <trkpt lat="59.99244" lon="11.08093">
        <ele>138.80000305176</ele>
        <time>2019-06-14T09:10:07Z</time>
      </trkpt>
      <trkpt lat="59.99266" lon="11.08116">
        <ele>138.39999389648</ele>
        <time>2019-06-14T09:10:15Z</time>
      </trkpt>
      <trkpt lat="59.99333" lon="11.08141">
        <ele>136.19999694824</ele>
        <time>2019-06-14T09:10:25Z</time>
      </trkpt>
      <trkpt lat="59.99383" lon="11.08176">
        <ele>136.19999694824</ele>
        <time>2019-06-14T09:10:31Z</time>
      </trkpt>
      <trkpt lat="59.99452" lon="11.08285">
        <ele>136.39999389648</ele>
        <time>2019-06-14T09:10:53Z</time>
      </trkpt>
      <trkpt lat="59.99491" lon="11.08357">
        <ele>136</ele>
        <time>2019-06-14T09:11:03Z</time>
      </trkpt>
      <trkpt lat="59.9956" lon="11.08475">
        <ele>133.39999389648</ele>
        <time>2019-06-14T09:11:14Z</time>
      </trkpt>
      <trkpt lat="59.99656" lon="11.08657">
        <ele>126.80000305176</ele>
        <time>2019-06-14T09:11:20Z</time>
      </trkpt>
      <trkpt lat="59.99725" lon="11.08787">
        <ele>125.59999847412</ele>
        <time>2019-06-14T09:11:26Z</time>
      </trkpt>
      <trkpt lat="59.99757" lon="11.08837">
        <ele>124.40000152588</ele>
        <time>2019-06-14T09:11:37Z</time>
      </trkpt>
      <trkpt lat="59.99796" lon="11.08909">
        <ele>124.19999694824</ele>
        <time>2019-06-14T09:11:46Z</time>
      </trkpt>
      <trkpt lat="59.99841" lon="11.09045">
        <ele>124.40000152588</ele>
        <time>2019-06-14T09:12:04Z</time>
      </trkpt>
      <trkpt lat="59.99854" lon="11.09165">
        <ele>125.19999694824</ele>
        <time>2019-06-14T09:12:15Z</time>
      </trkpt>
      <trkpt lat="59.99874" lon="11.0934">
        <ele>125</ele>
        <time>2019-06-14T09:12:24Z</time>
      </trkpt>
      <trkpt lat="59.99897" lon="11.09582">
        <ele>125.59999847412</ele>
        <time>2019-06-14T09:12:31Z</time>
      </trkpt>
      <trkpt lat="59.9983" lon="11.09779">
        <ele>124.80000305176</ele>
        <time>2019-06-14T09:12:33Z</time>
      </trkpt>
      <trkpt lat="59.99833" lon="11.09803">
        <ele>124.80000305176</ele>
        <time>2019-06-14T09:12:36Z</time>
      </trkpt>
      <trkpt lat="59.99852" lon="11.09835">
        <ele>124.59999847412</ele>
        <time>2019-06-14T09:12:39Z</time>
      </trkpt>
      <trkpt lat="59.99935" lon="11.09917">
        <ele>133</ele>
        <time>2019-06-14T09:12:41Z</time>
      </trkpt>
      <trkpt lat="60.00065" lon="11.09975">
        <ele>147.60000610352</ele>
        <time>2019-06-14T09:12:46Z</time>
      </trkpt>
      <trkpt lat="60.00144" lon="11.09996">
        <ele>148.39999389648</ele>
        <time>2019-06-14T09:12:50Z</time>
      </trkpt>
      <trkpt lat="60.00209" lon="11.10022">
        <ele>149.60000610352</ele>
        <time>2019-06-14T09:12:54Z</time>
      </trkpt>
      <trkpt lat="60.00237" lon="11.10045">
        <ele>149.60000610352</ele>
        <time>2019-06-14T09:13:05Z</time>
      </trkpt>
      <trkpt lat="60.00303" lon="11.10108">
        <ele>147.39999389648</ele>
        <time>2019-06-14T09:13:09Z</time>
      </trkpt>
      <trkpt lat="60.00358" lon="11.1019">
        <ele>146.39999389648</ele>
        <time>2019-06-14T09:13:12Z</time>
      </trkpt>
      <trkpt lat="60.00393" lon="11.10223">
        <ele>146.60000610352</ele>
        <time>2019-06-14T09:13:16Z</time>
      </trkpt>
      <trkpt lat="60.00424" lon="11.10253">
        <ele>148.60000610352</ele>
        <time>2019-06-14T09:13:20Z</time>
      </trkpt>
      <trkpt lat="60.00482" lon="11.10314">
        <ele>149.80000305176</ele>
        <time>2019-06-14T09:13:24Z</time>
      </trkpt>
      <trkpt lat="60.00497" lon="11.10348">
        <ele>150</ele>
        <time>2019-06-14T09:13:29Z</time>
      </trkpt>
      <trkpt lat="60.00562" lon="11.10447">
        <ele>155.39999389648</ele>
        <time>2019-06-14T09:13:33Z</time>
      </trkpt>
      <trkpt lat="60.00595" lon="11.10484">
        <ele>155.39999389648</ele>
        <time>2019-06-14T09:13:41Z</time>
      </trkpt>
      <trkpt lat="60.00651" lon="11.1057">
        <ele>154.19999694824</ele>
        <time>2019-06-14T09:13:50Z</time>
      </trkpt>
      <trkpt lat="60.00718" lon="11.10632">
        <ele>153.80000305176</ele>
        <time>2019-06-14T09:14:08Z</time>
      </trkpt>
      <trkpt lat="60.00769" lon="11.10669">
        <ele>154.39999389648</ele>
        <time>2019-06-14T09:14:24Z</time>
      </trkpt>
      <trkpt lat="60.00849" lon="11.10756">
        <ele>151.80000305176</ele>
        <time>2019-06-14T09:14:38Z</time>
      </trkpt>
      <trkpt lat="60.00876" lon="11.10788">
        <ele>150</ele>
        <time>2019-06-14T09:14:54Z</time>
      </trkpt>
      <trkpt lat="60.00985" lon="11.10883">
        <ele>140</ele>
        <time>2019-06-14T09:14:58Z</time>
      </trkpt>
      <trkpt lat="60.01051" lon="11.10922">
        <ele>137.39999389648</ele>
        <time>2019-06-14T09:16:24Z</time>
      </trkpt>
      <trkpt lat="60.01103" lon="11.1097">
        <ele>138.60000610352</ele>
        <time>2019-06-14T09:16:36Z</time>
      </trkpt>
      <trkpt lat="60.01195" lon="11.11073">
        <ele>136.60000610352</ele>
        <time>2019-06-14T09:16:40Z</time>
      </trkpt>
      <trkpt lat="60.01212" lon="11.11092">
        <ele>135.19999694824</ele>
        <time>2019-06-14T09:16:51Z</time>
      </trkpt>
      <trkpt lat="60.01248" lon="11.1113">
        <ele>134.39999389648</ele>
        <time>2019-06-14T09:17:05Z</time>
      </trkpt>
      <trkpt lat="60.01329" lon="11.11202">
        <ele>134.80000305176</ele>
        <time>2019-06-14T09:17:23Z</time>
      </trkpt>
      <trkpt lat="60.01445" lon="11.11245">
        <ele>142.60000610352</ele>
        <time>2019-06-14T09:17:31Z</time>
      </trkpt>
      <trkpt lat="60.01544" lon="11.11233">
        <ele>148.39999389648</ele>
        <time>2019-06-14T09:17:35Z</time>
      </trkpt>
      <trkpt lat="60.01582" lon="11.11217">
        <ele>148.60000610352</ele>
        <time>2019-06-14T09:17:41Z</time>
      </trkpt>
      <trkpt lat="60.01626" lon="11.11191">
        <ele>148.39999389648</ele>
        <time>2019-06-14T09:19:11Z</time>
      </trkpt>
      <trkpt lat="60.0172" lon="11.11164">
        <ele>146.19999694824</ele>
        <time>2019-06-14T09:19:20Z</time>
      </trkpt>
      <trkpt lat="60.01748" lon="11.11174">
        <ele>146</ele>
        <time>2019-06-14T09:19:45Z</time>
      </trkpt>
      <trkpt lat="60.01829" lon="11.11209">
        <ele>148</ele>
        <time>2019-06-14T09:19:59Z</time>
      </trkpt>
      <trkpt lat="60.01903" lon="11.11262">
        <ele>153.39999389648</ele>
        <time>2019-06-14T09:20:13Z</time>
      </trkpt>
      <trkpt lat="60.0194" lon="11.11299">
        <ele>154</ele>
        <time>2019-06-14T09:20:22Z</time>
      </trkpt>
      <trkpt lat="60.01984" lon="11.11348">
        <ele>154</ele>
        <time>2019-06-14T09:20:34Z</time>
      </trkpt>
      <trkpt lat="60.0203" lon="11.114">
        <ele>153.80000305176</ele>
        <time>2019-06-14T09:20:47Z</time>
      </trkpt>
      <trkpt lat="60.02089" lon="11.11452">
        <ele>152</ele>
        <time>2019-06-14T09:21:01Z</time>
      </trkpt>
      <trkpt lat="60.02122" lon="11.11467">
        <ele>152.80000305176</ele>
        <time>2019-06-14T09:21:06Z</time>
      </trkpt>
      <trkpt lat="60.02201" lon="11.11485">
        <ele>158.19999694824</ele>
        <time>2019-06-14T09:21:43Z</time>
      </trkpt>
      <trkpt lat="60.02236" lon="11.11486">
        <ele>158</ele>
        <time>2019-06-14T09:22:12Z</time>
      </trkpt>
      <trkpt lat="60.02276" lon="11.11486">
        <ele>158</ele>
        <time>2019-06-14T09:22:22Z</time>
      </trkpt>
      <trkpt lat="60.02325" lon="11.11484">
        <ele>157</ele>
        <time>2019-06-14T09:22:39Z</time>
      </trkpt>
      <trkpt lat="60.02397" lon="11.11484">
        <ele>157.39999389648</ele>
        <time>2019-06-14T09:22:41Z</time>
      </trkpt>
      <trkpt lat="60.02445" lon="11.11484">
        <ele>158.60000610352</ele>
        <time>2019-06-14T09:22:55Z</time>
      </trkpt>
      <trkpt lat="60.02484" lon="11.11493">
        <ele>159</ele>
        <time>2019-06-14T09:23:03Z</time>
      </trkpt>
      <trkpt lat="60.02563" lon="11.11565">
        <ele>156.80000305176</ele>
        <time>2019-06-14T09:23:08Z</time>
      </trkpt>
      <trkpt lat="60.02607" lon="11.11582">
        <ele>157.60000610352</ele>
        <time>2019-06-14T09:23:19Z</time>
      </trkpt>
      <trkpt lat="60.02632" lon="11.11579">
        <ele>157.60000610352</ele>
        <time>2019-06-14T09:23:32Z</time>
      </trkpt>
      <trkpt lat="60.02627" lon="11.11621">
        <ele>155.60000610352</ele>
        <time>2019-06-14T09:23:46Z</time>
      </trkpt>
      <trkpt lat="60.02628" lon="11.11607">
        <ele>158.19999694824</ele>
        <time>2019-06-14T09:23:59Z</time>
      </trkpt>
      <trkpt lat="60.0268" lon="11.11597">
        <ele>160</ele>
        <time>2019-06-14T09:24:07Z</time>
      </trkpt>
      <trkpt lat="60.02756" lon="11.11591">
        <ele>161</ele>
        <time>2019-06-14T09:24:12Z</time>
      </trkpt>
      <trkpt lat="60.02802" lon="11.11594">
        <ele>160.80000305176</ele>
        <time>2019-06-14T09:24:23Z</time>
      </trkpt>
      <trkpt lat="60.02951" lon="11.11512">
        <ele>158.19999694824</ele>
        <time>2019-06-14T09:24:26Z</time>
      </trkpt>
      <trkpt lat="60.03026" lon="11.115">
        <ele>157.60000610352</ele>
        <time>2019-06-14T09:24:34Z</time>
      </trkpt>
      <trkpt lat="60.03051" lon="11.11507">
        <ele>156.60000610352</ele>
        <time>2019-06-14T09:24:46Z</time>
      </trkpt>
      <trkpt lat="60.03073" lon="11.11533">
        <ele>156.80000305176</ele>
        <time>2019-06-14T09:24:58Z</time>
      </trkpt>
      <trkpt lat="60.03108" lon="11.11543">
        <ele>158.60000610352</ele>
        <time>2019-06-14T09:25:09Z</time>
      </trkpt>
      <trkpt lat="60.03234" lon="11.11494">
        <ele>164.80000305176</ele>
        <time>2019-06-14T09:25:15Z</time>
      </trkpt>
      <trkpt lat="60.03306" lon="11.11465">
        <ele>165.19999694824</ele>
        <time>2019-06-14T09:25:25Z</time>
      </trkpt>
      <trkpt lat="60.03334" lon="11.11451">
        <ele>166.60000610352</ele>
        <time>2019-06-14T09:26:45Z</time>
      </trkpt>
      <trkpt lat="60.03397" lon="11.11411">
        <ele>168</ele>
        <time>2019-06-14T09:26:52Z</time>
      </trkpt>
      <trkpt lat="60.03435" lon="11.11387">
        <ele>168.19999694824</ele>
        <time>2019-06-14T09:45:30Z</time>
      </trkpt>
      <trkpt lat="60.03562" lon="11.11359">
        <ele>168.60000610352</ele>
        <time>2019-06-14T09:45:38Z</time>
      </trkpt>
      <trkpt lat="60.03631" lon="11.11354">
        <ele>168.60000610352</ele>
        <time>2019-06-14T09:47:45Z</time>
      </trkpt>
      <trkpt lat="60.03774" lon="11.11324">
        <ele>169.80000305176</ele>
        <time>2019-06-14T09:47:57Z</time>
      </trkpt>
      <trkpt lat="60.03826" lon="11.11319">
        <ele>169.39999389648</ele>
        <time>2019-06-14T09:48:02Z</time>
      </trkpt>
      <trkpt lat="60.0383" lon="11.11296">
        <ele>169.60000610352</ele>
        <time>2019-06-14T09:48:14Z</time>
      </trkpt>
      <trkpt lat="60.03833" lon="11.113">
        <ele>170.60000610352</ele>
        <time>2019-06-14T09:48:19Z</time>
      </trkpt>
      <trkpt lat="60.03858" lon="11.11311">
        <ele>170.60000610352</ele>
        <time>2019-06-14T09:48:25Z</time>
      </trkpt>
      <trkpt lat="60.03903" lon="11.11317">
        <ele>171.60000610352</ele>
        <time>2019-06-14T09:48:31Z</time>
      </trkpt>
      <trkpt lat="60.03975" lon="11.11327">
        <ele>174.39999389648</ele>
        <time>2019-06-14T09:49:48Z</time>
      </trkpt>
      <trkpt lat="60.04027" lon="11.11337">
        <ele>174.39999389648</ele>
        <time>2019-06-14T09:49:58Z</time>
      </trkpt>
      <trkpt lat="60.0415" lon="11.11363">
        <ele>171.39999389648</ele>
        <time>2019-06-14T09:50:11Z</time>
      </trkpt>
      <trkpt lat="60.04225" lon="11.11405">
        <ele>171.19999694824</ele>
        <time>2019-06-14T09:51:24Z</time>
      </trkpt>
      <trkpt lat="60.04268" lon="11.11472">
        <ele>170.60000610352</ele>
        <time>2019-06-14T09:51:40Z</time>
      </trkpt>
      <trkpt lat="60.04334" lon="11.11595">
        <ele>171.60000610352</ele>
        <time>2019-06-14T09:51:49Z</time>
      </trkpt>
      <trkpt lat="60.04405" lon="11.11701">
        <ele>171.80000305176</ele>
        <time>2019-06-14T09:51:53Z</time>
      </trkpt>
      <trkpt lat="60.04464" lon="11.1177">
        <ele>172.60000610352</ele>
        <time>2019-06-14T09:52:19Z</time>
      </trkpt>
      <trkpt lat="60.04547" lon="11.11816">
        <ele>173.19999694824</ele>
        <time>2019-06-14T09:52:24Z</time>
      </trkpt>
      <trkpt lat="60.04674" lon="11.1184">
        <ele>173.60000610352</ele>
        <time>2019-06-14T09:52:27Z</time>
      </trkpt>
      <trkpt lat="60.04737" lon="11.1186">
        <ele>173.19999694824</ele>
        <time>2019-06-14T09:52:40Z</time>
      </trkpt>
      <trkpt lat="60.04948" lon="11.11946">
        <ele>169</ele>
        <time>2019-06-14T09:52:47Z</time>
      </trkpt>
      <trkpt lat="60.05051" lon="11.11927">
        <ele>169.39999389648</ele>
        <time>2019-06-14T09:53:00Z</time>
      </trkpt>
      <trkpt lat="60.0511" lon="11.11903">
        <ele>170.39999389648</ele>
        <time>2019-06-14T09:53:15Z</time>
      </trkpt>
      <trkpt lat="60.05145" lon="11.11886">
        <ele>170.60000610352</ele>
        <time>2019-06-14T09:53:24Z</time>
      </trkpt>
      <trkpt lat="60.05256" lon="11.11818">
        <ele>170.60000610352</ele>
        <time>2019-06-14T09:53:43Z</time>
      </trkpt>
      <trkpt lat="60.05337" lon="11.11769">
        <ele>170.80000305176</ele>
        <time>2019-06-14T09:54:28Z</time>
      </trkpt>
      <trkpt lat="60.05409" lon="11.11769">
        <ele>170.39999389648</ele>
        <time>2019-06-14T09:54:32Z</time>
      </trkpt>
      <trkpt lat="60.055" lon="11.11799">
        <ele>173</ele>
        <time>2019-06-14T09:54:51Z</time>
      </trkpt>
      <trkpt lat="60.05632" lon="11.11843">
        <ele>174.19999694824</ele>
        <time>2019-06-14T09:55:01Z</time>
      </trkpt>
      <trkpt lat="60.0567" lon="11.11857">
        <ele>175</ele>
        <time>2019-06-14T09:55:25Z</time>
      </trkpt>
      <trkpt lat="60.05789" lon="11.11935">
        <ele>175.60000610352</ele>
        <time>2019-06-14T09:55:32Z</time>
      </trkpt>
      <trkpt lat="60.05856" lon="11.12004">
        <ele>176.39999389648</ele>
        <time>2019-06-14T09:55:42Z</time>
      </trkpt>
      <trkpt lat="60.05939" lon="11.12096">
        <ele>176.19999694824</ele>
        <time>2019-06-14T09:55:48Z</time>
      </trkpt>
      <trkpt lat="60.06017" lon="11.12166">
        <ele>176.39999389648</ele>
        <time>2019-06-14T09:55:56Z</time>
      </trkpt>
      <trkpt lat="60.06155" lon="11.12249">
        <ele>173.80000305176</ele>
        <time>2019-06-14T09:55:59Z</time>
      </trkpt>
      <trkpt lat="60.06209" lon="11.12272">
        <ele>173.39999389648</ele>
        <time>2019-06-14T09:56:05Z</time>
      </trkpt>
      <trkpt lat="60.06308" lon="11.12367">
        <ele>174.19999694824</ele>
        <time>2019-06-14T09:56:08Z</time>
      </trkpt>
      <trkpt lat="60.06353" lon="11.12477">
        <ele>178.39999389648</ele>
        <time>2019-06-14T09:56:16Z</time>
      </trkpt>
      <trkpt lat="60.0636" lon="11.12499">
        <ele>178.39999389648</ele>
        <time>2019-06-14T09:56:27Z</time>
      </trkpt>
      <trkpt lat="60.06361" lon="11.12499">
        <ele>178.60000610352</ele>
        <time>2019-06-14T09:56:36Z</time>
      </trkpt>
      <trkpt lat="60.06395" lon="11.12582">
        <ele>178.60000610352</ele>
        <time>2019-06-14T09:56:43Z</time>
      </trkpt>
      <trkpt lat="60.06446" lon="11.12727">
        <ele>178.19999694824</ele>
        <time>2019-06-14T09:56:48Z</time>
      </trkpt>
      <trkpt lat="60.06462" lon="11.12804">
        <ele>176.80000305176</ele>
        <time>2019-06-14T09:57:01Z</time>
      </trkpt>
      <trkpt lat="60.06481" lon="11.12926">
        <ele>175.19999694824</ele>
        <time>2019-06-14T09:57:08Z</time>
      </trkpt>
      <trkpt lat="60.06503" lon="11.13018">
        <ele>173</ele>
        <time>2019-06-14T09:57:17Z</time>
      </trkpt>
      <trkpt lat="60.06537" lon="11.13098">
        <ele>173.60000610352</ele>
        <time>2019-06-14T09:57:25Z</time>
      </trkpt>
      <trkpt lat="60.06591" lon="11.13197">
        <ele>178.39999389648</ele>
        <time>2019-06-14T09:57:29Z</time>
      </trkpt>
      <trkpt lat="60.06642" lon="11.13272">
        <ele>180</ele>
        <time>2019-06-14T09:57:48Z</time>
      </trkpt>
      <trkpt lat="60.06694" lon="11.13337">
        <ele>180</ele>
        <time>2019-06-14T09:57:56Z</time>
      </trkpt>
      <trkpt lat="60.06768" lon="11.13415">
        <ele>180.19999694824</ele>
        <time>2019-06-14T09:58:09Z</time>
      </trkpt>
      <trkpt lat="60.06825" lon="11.13456">
        <ele>180.39999389648</ele>
        <time>2019-06-14T09:59:06Z</time>
      </trkpt>
      <trkpt lat="60.06893" lon="11.13452">
        <ele>180.60000610352</ele>
        <time>2019-06-14T09:59:16Z</time>
      </trkpt>
      <trkpt lat="60.06922" lon="11.13447">
        <ele>180.80000305176</ele>
        <time>2019-06-14T09:59:23Z</time>
      </trkpt>
      <trkpt lat="60.07023" lon="11.13433">
        <ele>181</ele>
        <time>2019-06-14T10:19:46Z</time>
      </trkpt>
      <trkpt lat="60.07134" lon="11.13467">
        <ele>181.60000610352</ele>
        <time>2019-06-14T10:19:54Z</time>
      </trkpt>
      <trkpt lat="60.07191" lon="11.1355">
        <ele>181.80000305176</ele>
        <time>2019-06-14T10:20:01Z</time>
      </trkpt>
      <trkpt lat="60.07221" lon="11.13603">
        <ele>181.80000305176</ele>
        <time>2019-06-14T10:20:15Z</time>
      </trkpt>
      <trkpt lat="60.07231" lon="11.13631">
        <ele>182.39999389648</ele>
        <time>2019-06-14T10:20:21Z</time>
      </trkpt>
      <trkpt lat="60.07263" lon="11.13682">
        <ele>182.60000610352</ele>
        <time>2019-06-14T10:20:29Z</time>
      </trkpt>
      <trkpt lat="60.07303" lon="11.13748">
        <ele>183.19999694824</ele>
        <time>2019-06-14T10:20:36Z</time>
      </trkpt>
      <trkpt lat="60.07366" lon="11.13808">
        <ele>184.19999694824</ele>
        <time>2019-06-14T10:21:43Z</time>
      </trkpt>
      <trkpt lat="60.07416" lon="11.13844">
        <ele>181.19999694824</ele>
        <time>2019-06-14T10:21:52Z</time>
      </trkpt>
      <trkpt lat="60.07429" lon="11.13825">
        <ele>181.19999694824</ele>
        <time>2019-06-14T10:22:00Z</time>
      </trkpt>
      <trkpt lat="60.07508" lon="11.13818">
        <ele>184.19999694824</ele>
        <time>2019-06-14T10:22:03Z</time>
      </trkpt>
      <trkpt lat="60.07536" lon="11.13824">
        <ele>184.19999694824</ele>
        <time>2019-06-14T10:22:12Z</time>
      </trkpt>
      <trkpt lat="60.07564" lon="11.13831">
        <ele>184</ele>
        <time>2019-06-14T10:22:19Z</time>
      </trkpt>
      <trkpt lat="60.07589" lon="11.13826">
        <ele>184</ele>
        <time>2019-06-14T10:22:30Z</time>
      </trkpt>
      <trkpt lat="60.07644" lon="11.13797">
        <ele>185.39999389648</ele>
        <time>2019-06-14T10:22:43Z</time>
      </trkpt>
      <trkpt lat="60.0768" lon="11.13849">
        <ele>185.39999389648</ele>
        <time>2019-06-14T10:22:52Z</time>
      </trkpt>
      <trkpt lat="60.07693" lon="11.1382">
        <ele>185.19999694824</ele>
        <time>2019-06-14T10:23:08Z</time>
      </trkpt>
      <trkpt lat="60.07715" lon="11.13769">
        <ele>185.39999389648</ele>
        <time>2019-06-14T10:23:15Z</time>
      </trkpt>
      <trkpt lat="60.07753" lon="11.13746">
        <ele>185.80000305176</ele>
        <time>2019-06-14T10:23:28Z</time>
      </trkpt>
      <trkpt lat="60.07804" lon="11.13719">
        <ele>185.80000305176</ele>
        <time>2019-06-14T10:23:53Z</time>
      </trkpt>
      <trkpt lat="60.07887" lon="11.13671">
        <ele>185.60000610352</ele>
        <time>2019-06-14T10:24:07Z</time>
      </trkpt>
      <trkpt lat="60.0794" lon="11.13639">
        <ele>185.19999694824</ele>
        <time>2019-06-14T10:24:19Z</time>
      </trkpt>
      <trkpt lat="60.08084" lon="11.13549">
        <ele>187.80000305176</ele>
        <time>2019-06-14T10:24:26Z</time>
      </trkpt>
      <trkpt lat="60.08122" lon="11.13525">
        <ele>188</ele>
        <time>2019-06-14T10:24:44Z</time>
      </trkpt>
      <trkpt lat="60.08167" lon="11.13501">
        <ele>188</ele>
        <time>2019-06-14T10:25:01Z</time>
      </trkpt>
      <trkpt lat="60.08197" lon="11.13479">
        <ele>188.19999694824</ele>
        <time>2019-06-14T10:25:12Z</time>
      </trkpt>
      <trkpt lat="60.08307" lon="11.13401">
        <ele>187.80000305176</ele>
        <time>2019-06-14T10:25:23Z</time>
      </trkpt>
      <trkpt lat="60.08362" lon="11.13364">
        <ele>187.80000305176</ele>
        <time>2019-06-14T10:25:37Z</time>
      </trkpt>
      <trkpt lat="60.08454" lon="11.13304">
        <ele>187.39999389648</ele>
        <time>2019-06-14T10:25:44Z</time>
      </trkpt>
      <trkpt lat="60.08527" lon="11.13256">
        <ele>187.39999389648</ele>
        <time>2019-06-14T10:25:51Z</time>
      </trkpt>
      <trkpt lat="60.0855" lon="11.13243">
        <ele>187.19999694824</ele>
        <time>2019-06-14T10:26:03Z</time>
      </trkpt>
      <trkpt lat="60.08722" lon="11.13125">
        <ele>188</ele>
        <time>2019-06-14T10:27:34Z</time>
      </trkpt>
      <trkpt lat="60.08762" lon="11.13119">
        <ele>188.60000610352</ele>
        <time>2019-06-14T10:28:25Z</time>
      </trkpt>
      <trkpt lat="60.08764" lon="11.13099">
        <ele>188.80000305176</ele>
        <time>2019-06-14T10:28:46Z</time>
      </trkpt>
      <trkpt lat="60.08805" lon="11.1312">
        <ele>189.39999389648</ele>
        <time>2019-06-14T10:28:54Z</time>
      </trkpt>
      <trkpt lat="60.08855" lon="11.13162">
        <ele>189.39999389648</ele>
        <time>2019-06-14T10:29:02Z</time>
      </trkpt>
      <trkpt lat="60.08931" lon="11.13263">
        <ele>189.80000305176</ele>
        <time>2019-06-14T10:29:07Z</time>
      </trkpt>
      <trkpt lat="60.08959" lon="11.13305">
        <ele>190.19999694824</ele>
        <time>2019-06-14T10:29:22Z</time>
      </trkpt>
      <trkpt lat="60.08994" lon="11.13341">
        <ele>190.39999389648</ele>
        <time>2019-06-14T10:29:36Z</time>
      </trkpt>
      <trkpt lat="60.09059" lon="11.13468">
        <ele>191.60000610352</ele>
        <time>2019-06-14T10:29:46Z</time>
      </trkpt>
      <trkpt lat="60.09166" lon="11.13662">
        <ele>192.60000610352</ele>
        <time>2019-06-14T10:30:07Z</time>
      </trkpt>
      <trkpt lat="60.09214" lon="11.13711">
        <ele>193</ele>
        <time>2019-06-14T10:30:17Z</time>
      </trkpt>
      <trkpt lat="60.093" lon="11.13739">
        <ele>193.39999389648</ele>
        <time>2019-06-14T10:30:22Z</time>
      </trkpt>
      <trkpt lat="60.09371" lon="11.13756">
        <ele>194</ele>
        <time>2019-06-14T10:30:36Z</time>
      </trkpt>
      <trkpt lat="60.09517" lon="11.13802">
        <ele>194.60000610352</ele>
        <time>2019-06-14T10:30:43Z</time>
      </trkpt>
      <trkpt lat="60.09619" lon="11.13837">
        <ele>195.39999389648</ele>
        <time>2019-06-14T10:30:55Z</time>
      </trkpt>
      <trkpt lat="60.09762" lon="11.13879">
        <ele>195.39999389648</ele>
        <time>2019-06-14T10:30:59Z</time>
      </trkpt>
      <trkpt lat="60.0989" lon="11.13921">
        <ele>195</ele>
        <time>2019-06-14T10:31:04Z</time>
      </trkpt>
      <trkpt lat="60.10098" lon="11.14028">
        <ele>192.39999389648</ele>
        <time>2019-06-14T10:31:16Z</time>
      </trkpt>
      <trkpt lat="60.10145" lon="11.14041">
        <ele>192.39999389648</ele>
        <time>2019-06-14T10:31:27Z</time>
      </trkpt>
      <trkpt lat="60.10245" lon="11.1402">
        <ele>192.80000305176</ele>
        <time>2019-06-14T10:31:38Z</time>
      </trkpt>
      <trkpt lat="60.10404" lon="11.13957">
        <ele>187.60000610352</ele>
        <time>2019-06-14T10:31:43Z</time>
      </trkpt>
      <trkpt lat="60.10461" lon="11.13933">
        <ele>187.19999694824</ele>
        <time>2019-06-14T10:31:56Z</time>
      </trkpt>
      <trkpt lat="60.10538" lon="11.13905">
        <ele>187.60000610352</ele>
        <time>2019-06-14T10:32:15Z</time>
      </trkpt>
      <trkpt lat="60.10612" lon="11.13881">
        <ele>187.39999389648</ele>
        <time>2019-06-14T10:32:28Z</time>
      </trkpt>
      <trkpt lat="60.10687" lon="11.13868">
        <ele>187.39999389648</ele>
        <time>2019-06-14T10:32:41Z</time>
      </trkpt>
      <trkpt lat="60.10758" lon="11.13862">
        <ele>188</ele>
        <time>2019-06-14T10:33:04Z</time>
      </trkpt>
      <trkpt lat="60.10813" lon="11.13864">
        <ele>188.80000305176</ele>
        <time>2019-06-14T10:33:20Z</time>
      </trkpt>
      <trkpt lat="60.10859" lon="11.1386">
        <ele>188.80000305176</ele>
        <time>2019-06-14T10:33:40Z</time>
      </trkpt>
      <trkpt lat="60.10976" lon="11.1386">
        <ele>188.39999389648</ele>
        <time>2019-06-14T10:33:49Z</time>
      </trkpt>
      <trkpt lat="60.11067" lon="11.13878">
        <ele>188.80000305176</ele>
        <time>2019-06-14T10:33:53Z</time>
      </trkpt>
      <trkpt lat="60.11126" lon="11.13899">
        <ele>188.60000610352</ele>
        <time>2019-06-14T10:34:02Z</time>
      </trkpt>
      <trkpt lat="60.11282" lon="11.14">
        <ele>185.60000610352</ele>
        <time>2019-06-14T10:34:15Z</time>
      </trkpt>
      <trkpt lat="60.11343" lon="11.14066">
        <ele>185.60000610352</ele>
        <time>2019-06-14T10:34:28Z</time>
      </trkpt>
      <trkpt lat="60.1137" lon="11.14103">
        <ele>186.39999389648</ele>
        <time>2019-06-14T10:34:36Z</time>
      </trkpt>
      <trkpt lat="60.11418" lon="11.14176">
        <ele>186.60000610352</ele>
        <time>2019-06-14T10:34:38Z</time>
      </trkpt>
      <trkpt lat="60.11476" lon="11.14264">
        <ele>186.60000610352</ele>
        <time>2019-06-14T10:34:47Z</time>
      </trkpt>
      <trkpt lat="60.11586" lon="11.14496">
        <ele>187</ele>
        <time>2019-06-14T10:34:49Z</time>
      </trkpt>
      <trkpt lat="60.11655" lon="11.14697">
        <ele>194.60000610352</ele>
        <time>2019-06-14T10:34:53Z</time>
      </trkpt>
      <trkpt lat="60.11669" lon="11.14733">
        <ele>195</ele>
        <time>2019-06-14T10:34:58Z</time>
      </trkpt>
      <trkpt lat="60.11694" lon="11.14787">
        <ele>195</ele>
        <time>2019-06-14T10:35:02Z</time>
      </trkpt>
      <trkpt lat="60.11797" lon="11.14933">
        <ele>192.60000610352</ele>
        <time>2019-06-14T10:35:06Z</time>
      </trkpt>
      <trkpt lat="60.11864" lon="11.15013">
        <ele>190.39999389648</ele>
        <time>2019-06-14T10:35:11Z</time>
      </trkpt>
      <trkpt lat="60.11906" lon="11.15058">
        <ele>188.19999694824</ele>
        <time>2019-06-14T10:35:18Z</time>
      </trkpt>
      <trkpt lat="60.11953" lon="11.15101">
        <ele>188</ele>
        <time>2019-06-14T10:35:33Z</time>
      </trkpt>
      <trkpt lat="60.1218" lon="11.15246">
        <ele>201.39999389648</ele>
        <time>2019-06-14T10:35:46Z</time>
      </trkpt>
      <trkpt lat="60.1221" lon="11.15262">
        <ele>204</ele>
        <time>2019-06-14T10:36:03Z</time>
      </trkpt>
      <trkpt lat="60.12258" lon="11.15288">
        <ele>205.60000610352</ele>
        <time>2019-06-14T10:36:32Z</time>
      </trkpt>
      <trkpt lat="60.12329" lon="11.15325">
        <ele>206.80000305176</ele>
        <time>2019-06-14T10:36:50Z</time>
      </trkpt>
      <trkpt lat="60.12547" lon="11.15506">
        <ele>209.80000305176</ele>
        <time>2019-06-14T10:37:07Z</time>
      </trkpt>
      <trkpt lat="60.1268" lon="11.15647">
        <ele>208</ele>
        <time>2019-06-14T10:37:25Z</time>
      </trkpt>
      <trkpt lat="60.12756" lon="11.15795">
        <ele>208</ele>
        <time>2019-06-14T10:37:44Z</time>
      </trkpt>
      <trkpt lat="60.12819" lon="11.15945">
        <ele>209</ele>
        <time>2019-06-14T10:37:58Z</time>
      </trkpt>
      <trkpt lat="60.12836" lon="11.15976">
        <ele>210.19999694824</ele>
        <time>2019-06-14T10:38:13Z</time>
      </trkpt>
      <trkpt lat="60.12877" lon="11.16027">
        <ele>210.19999694824</ele>
        <time>2019-06-14T10:38:21Z</time>
      </trkpt>
      <trkpt lat="60.12924" lon="11.16042">
        <ele>209.19999694824</ele>
        <time>2019-06-14T10:38:34Z</time>
      </trkpt>
      <trkpt lat="60.12958" lon="11.16039">
        <ele>207.39999389648</ele>
        <time>2019-06-14T10:38:42Z</time>
      </trkpt>
      <trkpt lat="60.13004" lon="11.16018">
        <ele>207.39999389648</ele>
        <time>2019-06-14T10:38:49Z</time>
      </trkpt>
      <trkpt lat="60.13085" lon="11.16012">
        <ele>209.19999694824</ele>
        <time>2019-06-14T10:39:02Z</time>
      </trkpt>
      <trkpt lat="60.13117" lon="11.16027">
        <ele>209.60000610352</ele>
        <time>2019-06-14T10:39:10Z</time>
      </trkpt>
      <trkpt lat="60.13131" lon="11.1608">
        <ele>209.60000610352</ele>
        <time>2019-06-14T10:39:22Z</time>
      </trkpt>
      <trkpt lat="60.13188" lon="11.16158">
        <ele>210</ele>
        <time>2019-06-14T10:39:34Z</time>
      </trkpt>
      <trkpt lat="60.13242" lon="11.16205">
        <ele>209.80000305176</ele>
        <time>2019-06-14T10:39:38Z</time>
      </trkpt>
      <trkpt lat="60.1325" lon="11.16234">
        <ele>209.60000610352</ele>
        <time>2019-06-14T10:39:45Z</time>
      </trkpt>
      <trkpt lat="60.13274" lon="11.16306">
        <ele>209.80000305176</ele>
        <time>2019-06-14T10:39:51Z</time>
      </trkpt>
      <trkpt lat="60.13304" lon="11.16377">
        <ele>210.39999389648</ele>
        <time>2019-06-14T10:40:07Z</time>
      </trkpt>
      <trkpt lat="60.13322" lon="11.16384">
        <ele>211</ele>
        <time>2019-06-14T10:40:18Z</time>
      </trkpt>
      <trkpt lat="60.13339" lon="11.16266">
        <ele>210.19999694824</ele>
        <time>2019-06-14T10:40:27Z</time>
      </trkpt>
      <trkpt lat="60.13377" lon="11.16108">
        <ele>208.19999694824</ele>
        <time>2019-06-14T10:40:37Z</time>
      </trkpt>
      <trkpt lat="60.13466" lon="11.15979">
        <ele>204.80000305176</ele>
        <time>2019-06-14T10:40:51Z</time>
      </trkpt>
      <trkpt lat="60.13603" lon="11.15834">
        <ele>199.19999694824</ele>
        <time>2019-06-14T10:40:55Z</time>
      </trkpt>
      <trkpt lat="60.13661" lon="11.15744">
        <ele>197.39999389648</ele>
        <time>2019-06-14T10:41:01Z</time>
      </trkpt>
      <trkpt lat="60.1372" lon="11.157">
        <ele>196.60000610352</ele>
        <time>2019-06-14T10:41:09Z</time>
      </trkpt>
      <trkpt lat="60.13766" lon="11.15704">
        <ele>196.19999694824</ele>
        <time>2019-06-14T10:41:31Z</time>
      </trkpt>
      <trkpt lat="60.13807" lon="11.15714">
        <ele>196.60000610352</ele>
        <time>2019-06-14T10:41:38Z</time>
      </trkpt>
      <trkpt lat="60.13832" lon="11.15722">
        <ele>198.19999694824</ele>
        <time>2019-06-14T10:41:49Z</time>
      </trkpt>
      <trkpt lat="60.13952" lon="11.15683">
        <ele>206.60000610352</ele>
        <time>2019-06-14T10:42:08Z</time>
      </trkpt>
      <trkpt lat="60.14022" lon="11.15653">
        <ele>207.19999694824</ele>
        <time>2019-06-14T10:42:15Z</time>
      </trkpt>
      <trkpt lat="60.14063" lon="11.15655">
        <ele>207.39999389648</ele>
        <time>2019-06-14T10:42:20Z</time>
      </trkpt>
      <trkpt lat="60.14122" lon="11.15674">
        <ele>207.39999389648</ele>
        <time>2019-06-14T10:42:32Z</time>
      </trkpt>
      <trkpt lat="60.14138" lon="11.15691">
        <ele>206.60000610352</ele>
        <time>2019-06-14T10:42:40Z</time>
      </trkpt>
      <trkpt lat="60.14165" lon="11.15679">
        <ele>204.60000610352</ele>
        <time>2019-06-14T10:42:46Z</time>
      </trkpt>
      <trkpt lat="60.14168" lon="11.15671">
        <ele>205.80000305176</ele>
        <time>2019-06-14T10:42:51Z</time>
      </trkpt>
      <trkpt lat="60.14232" lon="11.15716">
        <ele>205.80000305176</ele>
        <time>2019-06-14T10:42:59Z</time>
      </trkpt>
      <trkpt lat="60.14336" lon="11.15836">
        <ele>210.19999694824</ele>
        <time>2019-06-14T10:43:13Z</time>
      </trkpt>
      <trkpt lat="60.14361" lon="11.15867">
        <ele>210.39999389648</ele>
        <time>2019-06-14T10:43:32Z</time>
      </trkpt>
      <trkpt lat="60.14389" lon="11.15896">
        <ele>210.39999389648</ele>
        <time>2019-06-14T10:43:45Z</time>
      </trkpt>
      <trkpt lat="60.14429" lon="11.15922">
        <ele>211.19999694824</ele>
        <time>2019-06-14T10:43:52Z</time>
      </trkpt>
      <trkpt lat="60.14482" lon="11.15947">
        <ele>214.39999389648</ele>
        <time>2019-06-14T10:43:57Z</time>
      </trkpt>
      <trkpt lat="60.14517" lon="11.15926">
        <ele>214.60000610352</ele>
        <time>2019-06-14T10:44:37Z</time>
      </trkpt>
      <trkpt lat="60.14567" lon="11.15953">
        <ele>214.19999694824</ele>
        <time>2019-06-14T10:44:45Z</time>
      </trkpt>
      <trkpt lat="60.1457" lon="11.15952">
        <ele>213.60000610352</ele>
        <time>2019-06-14T10:44:49Z</time>
      </trkpt>
      <trkpt lat="60.14572" lon="11.15937">
        <ele>213.39999389648</ele>
        <time>2019-06-14T10:44:54Z</time>
      </trkpt>
      <trkpt lat="60.14581" lon="11.15922">
        <ele>213.39999389648</ele>
        <time>2019-06-14T10:45:00Z</time>
      </trkpt>
      <trkpt lat="60.14605" lon="11.15986">
        <ele>213.39999389648</ele>
        <time>2019-06-14T10:45:07Z</time>
      </trkpt>
      <trkpt lat="60.1465" lon="11.161">
        <ele>214.60000610352</ele>
        <time>2019-06-14T10:45:19Z</time>
      </trkpt>
      <trkpt lat="60.14656" lon="11.16121">
        <ele>215.19999694824</ele>
        <time>2019-06-14T10:45:29Z</time>
      </trkpt>
      <trkpt lat="60.14691" lon="11.16223">
        <ele>216.19999694824</ele>
        <time>2019-06-14T10:45:36Z</time>
      </trkpt>
      <trkpt lat="60.14723" lon="11.16313">
        <ele>216.60000610352</ele>
        <time>2019-06-14T10:45:42Z</time>
      </trkpt>
      <trkpt lat="60.14752" lon="11.16396">
        <ele>217.60000610352</ele>
        <time>2019-06-14T10:45:49Z</time>
      </trkpt>
      <trkpt lat="60.14789" lon="11.16536">
        <ele>218.80000305176</ele>
        <time>2019-06-14T10:45:58Z</time>
      </trkpt>
      <trkpt lat="60.14788" lon="11.16575">
        <ele>219.60000610352</ele>
        <time>2019-06-14T10:46:04Z</time>
      </trkpt>
      <trkpt lat="60.14781" lon="11.16874">
        <ele>221.39999389648</ele>
        <time>2019-06-14T10:46:11Z</time>
      </trkpt>
      <trkpt lat="60.14774" lon="11.16966">
        <ele>221.60000610352</ele>
        <time>2019-06-14T10:46:27Z</time>
      </trkpt>
      <trkpt lat="60.14757" lon="11.16987">
        <ele>221.80000305176</ele>
        <time>2019-06-14T10:46:45Z</time>
      </trkpt>
      <trkpt lat="60.14746" lon="11.17041">
        <ele>222</ele>
        <time>2019-06-14T10:47:07Z</time>
      </trkpt>
      <trkpt lat="60.14776" lon="11.16963">
        <ele>221.60000610352</ele>
        <time>2019-06-14T10:47:15Z</time>
      </trkpt>
      <trkpt lat="60.14798" lon="11.16937">
        <ele>221</ele>
        <time>2019-06-14T10:47:23Z</time>
      </trkpt>
      <trkpt lat="60.14885" lon="11.16974">
        <ele>222.19999694824</ele>
        <time>2019-06-14T10:47:32Z</time>
      </trkpt>
      <trkpt lat="60.15001" lon="11.17031">
        <ele>224.60000610352</ele>
        <time>2019-06-14T10:47:45Z</time>
      </trkpt>
      <trkpt lat="60.15052" lon="11.17055">
        <ele>225.19999694824</ele>
        <time>2019-06-14T10:47:53Z</time>
      </trkpt>
      <trkpt lat="60.15129" lon="11.17089">
        <ele>225.19999694824</ele>
        <time>2019-06-14T10:48:04Z</time>
      </trkpt>
      <trkpt lat="60.15173" lon="11.17111">
        <ele>222.19999694824</ele>
        <time>2019-06-14T10:48:12Z</time>
      </trkpt>
      <trkpt lat="60.15203" lon="11.17114">
        <ele>222.19999694824</ele>
        <time>2019-06-14T10:48:25Z</time>
      </trkpt>
      <trkpt lat="60.1526" lon="11.17138">
        <ele>223.19999694824</ele>
        <time>2019-06-14T10:48:41Z</time>
      </trkpt>
      <trkpt lat="60.15312" lon="11.17159">
        <ele>225.39999389648</ele>
        <time>2019-06-14T10:48:54Z</time>
      </trkpt>
      <trkpt lat="60.15371" lon="11.17172">
        <ele>226.39999389648</ele>
        <time>2019-06-14T10:49:05Z</time>
      </trkpt>
      <trkpt lat="60.15397" lon="11.1718">
        <ele>226.39999389648</ele>
        <time>2019-06-14T10:49:13Z</time>
      </trkpt>
      <trkpt lat="60.15462" lon="11.17198">
        <ele>226.80000305176</ele>
        <time>2019-06-14T10:49:35Z</time>
      </trkpt>
      <trkpt lat="60.15519" lon="11.17218">
        <ele>226.60000610352</ele>
        <time>2019-06-14T10:49:44Z</time>
      </trkpt>
      <trkpt lat="60.15519" lon="11.17237">
        <ele>226.60000610352</ele>
        <time>2019-06-14T10:49:56Z</time>
      </trkpt>
      <trkpt lat="60.1555" lon="11.17252">
        <ele>226.80000305176</ele>
        <time>2019-06-14T10:50:04Z</time>
      </trkpt>
      <trkpt lat="60.15608" lon="11.1727">
        <ele>226.80000305176</ele>
        <time>2019-06-14T10:50:15Z</time>
      </trkpt>
      <trkpt lat="60.15766" lon="11.17313">
        <ele>227.19999694824</ele>
        <time>2019-06-14T10:50:20Z</time>
      </trkpt>
      <trkpt lat="60.15817" lon="11.17325">
        <ele>227.60000610352</ele>
        <time>2019-06-14T10:50:30Z</time>
      </trkpt>
      <trkpt lat="60.15867" lon="11.17331">
        <ele>227.80000305176</ele>
        <time>2019-06-14T10:50:34Z</time>
      </trkpt>
      <trkpt lat="60.16005" lon="11.17322">
        <ele>226.39999389648</ele>
        <time>2019-06-14T10:50:47Z</time>
      </trkpt>
      <trkpt lat="60.16157" lon="11.17302">
        <ele>223.60000610352</ele>
        <time>2019-06-14T10:51:02Z</time>
      </trkpt>
      <trkpt lat="60.16232" lon="11.17272">
        <ele>223.80000305176</ele>
        <time>2019-06-14T10:51:17Z</time>
      </trkpt>
      <trkpt lat="60.1629" lon="11.17249">
        <ele>225.80000305176</ele>
        <time>2019-06-14T10:51:37Z</time>
      </trkpt>
      <trkpt lat="60.16329" lon="11.17235">
        <ele>226.60000610352</ele>
        <time>2019-06-14T10:51:50Z</time>
      </trkpt>
      <trkpt lat="60.16357" lon="11.17224">
        <ele>226.80000305176</ele>
        <time>2019-06-14T10:51:57Z</time>
      </trkpt>
      <trkpt lat="60.16419" lon="11.17196">
        <ele>226.19999694824</ele>
        <time>2019-06-14T10:52:18Z</time>
      </trkpt>
      <trkpt lat="60.16436" lon="11.17194">
        <ele>225.19999694824</ele>
        <time>2019-06-14T10:52:34Z</time>
      </trkpt>
      <trkpt lat="60.16463" lon="11.17247">
        <ele>224</ele>
        <time>2019-06-14T10:52:52Z</time>
      </trkpt>
      <trkpt lat="60.16482" lon="11.17244">
        <ele>223.19999694824</ele>
        <time>2019-06-14T10:53:03Z</time>
      </trkpt>
      <trkpt lat="60.16493" lon="11.17215">
        <ele>222.80000305176</ele>
        <time>2019-06-14T10:53:19Z</time>
      </trkpt>
      <trkpt lat="60.16509" lon="11.1715">
        <ele>224.60000610352</ele>
        <time>2019-06-14T10:53:36Z</time>
      </trkpt>
      <trkpt lat="60.16502" lon="11.17133">
        <ele>225.80000305176</ele>
        <time>2019-06-14T10:53:49Z</time>
      </trkpt>
      <trkpt lat="60.16581" lon="11.17118">
        <ele>227</ele>
        <time>2019-06-14T10:53:58Z</time>
      </trkpt>
      <trkpt lat="60.16676" lon="11.1707">
        <ele>227.80000305176</ele>
        <time>2019-06-14T10:54:09Z</time>
      </trkpt>
      <trkpt lat="60.16702" lon="11.17056">
        <ele>229</ele>
        <time>2019-06-14T10:54:32Z</time>
      </trkpt>
      <trkpt lat="60.16758" lon="11.17028">
        <ele>229.80000305176</ele>
        <time>2019-06-14T10:54:41Z</time>
      </trkpt>
      <trkpt lat="60.16861" lon="11.16986">
        <ele>230.39999389648</ele>
        <time>2019-06-14T10:54:47Z</time>
      </trkpt>
      <trkpt lat="60.16925" lon="11.1696">
        <ele>230.39999389648</ele>
        <time>2019-06-14T10:54:53Z</time>
      </trkpt>
      <trkpt lat="60.1706" lon="11.16931">
        <ele>228.80000305176</ele>
        <time>2019-06-14T10:55:02Z</time>
      </trkpt>
      <trkpt lat="60.17149" lon="11.16927">
        <ele>229.39999389648</ele>
        <time>2019-06-14T10:55:05Z</time>
      </trkpt>
      <trkpt lat="60.17215" lon="11.16931">
        <ele>231</ele>
        <time>2019-06-14T10:55:10Z</time>
      </trkpt>
      <trkpt lat="60.17289" lon="11.16937">
        <ele>231.80000305176</ele>
        <time>2019-06-14T10:55:13Z</time>
      </trkpt>
      <trkpt lat="60.17507" lon="11.17002">
        <ele>233.80000305176</ele>
        <time>2019-06-14T10:55:16Z</time>
      </trkpt>
      <trkpt lat="60.17642" lon="11.17035">
        <ele>233.19999694824</ele>
        <time>2019-06-14T10:55:20Z</time>
      </trkpt>
      <trkpt lat="60.17735" lon="11.17067">
        <ele>233</ele>
        <time>2019-06-14T10:55:24Z</time>
      </trkpt>
      <trkpt lat="60.17812" lon="11.171">
        <ele>234</ele>
        <time>2019-06-14T10:55:27Z</time>
      </trkpt>
      <trkpt lat="60.17863" lon="11.17161">
        <ele>234.60000610352</ele>
        <time>2019-06-14T10:55:31Z</time>
      </trkpt>
      <trkpt lat="60.17897" lon="11.17194">
        <ele>235.19999694824</ele>
        <time>2019-06-14T10:55:36Z</time>
      </trkpt>
      <trkpt lat="60.1792" lon="11.17232">
        <ele>235.19999694824</ele>
        <time>2019-06-14T10:55:39Z</time>
      </trkpt>
      <trkpt lat="60.17944" lon="11.17258">
        <ele>234</ele>
        <time>2019-06-14T10:55:48Z</time>
      </trkpt>
      <trkpt lat="60.17951" lon="11.17238">
        <ele>233.60000610352</ele>
        <time>2019-06-14T10:55:52Z</time>
      </trkpt>
      <trkpt lat="60.17967" lon="11.17138">
        <ele>234.60000610352</ele>
        <time>2019-06-14T10:56:00Z</time>
      </trkpt>
      <trkpt lat="60.17989" lon="11.17068">
        <ele>235</ele>
        <time>2019-06-14T10:56:04Z</time>
      </trkpt>
      <trkpt lat="60.18016" lon="11.17048">
        <ele>235</ele>
        <time>2019-06-14T10:56:09Z</time>
      </trkpt>
      <trkpt lat="60.18067" lon="11.17126">
        <ele>234</ele>
        <time>2019-06-14T10:56:21Z</time>
      </trkpt>
      <trkpt lat="60.1811" lon="11.17163">
        <ele>235.60000610352</ele>
        <time>2019-06-14T10:56:25Z</time>
      </trkpt>
      <trkpt lat="60.1816" lon="11.17178">
        <ele>236.60000610352</ele>
        <time>2019-06-14T10:56:31Z</time>
      </trkpt>
      <trkpt lat="60.18321" lon="11.17182">
        <ele>236.19999694824</ele>
        <time>2019-06-14T10:56:37Z</time>
      </trkpt>
      <trkpt lat="60.18397" lon="11.17201">
        <ele>235.60000610352</ele>
        <time>2019-06-14T10:56:41Z</time>
      </trkpt>
      <trkpt lat="60.18468" lon="11.17227">
        <ele>237.80000305176</ele>
        <time>2019-06-14T10:56:46Z</time>
      </trkpt>
      <trkpt lat="60.18614" lon="11.17287">
        <ele>240.80000305176</ele>
        <time>2019-06-14T10:56:49Z</time>
      </trkpt>
      <trkpt lat="60.18636" lon="11.17299">
        <ele>241.19999694824</ele>
        <time>2019-06-14T10:56:54Z</time>
      </trkpt>
      <trkpt lat="60.18674" lon="11.17337">
        <ele>241.60000610352</ele>
        <time>2019-06-14T10:57:01Z</time>
      </trkpt>
      <trkpt lat="60.18742" lon="11.17392">
        <ele>242</ele>
        <time>2019-06-14T10:57:06Z</time>
      </trkpt>
      <trkpt lat="60.18789" lon="11.17441">
        <ele>241.80000305176</ele>
        <time>2019-06-14T10:57:10Z</time>
      </trkpt>
      <trkpt lat="60.18846" lon="11.17524">
        <ele>240.80000305176</ele>
        <time>2019-06-14T10:57:13Z</time>
      </trkpt>
      <trkpt lat="60.18928" lon="11.17652">
        <ele>239</ele>
        <time>2019-06-14T10:57:19Z</time>
      </trkpt>
      <trkpt lat="60.18967" lon="11.17692">
        <ele>237.60000610352</ele>
        <time>2019-06-14T10:57:33Z</time>
      </trkpt>
      <trkpt lat="60.19047" lon="11.17718">
        <ele>234.19999694824</ele>
        <time>2019-06-14T10:57:45Z</time>
      </trkpt>
      <trkpt lat="60.19089" lon="11.17711">
        <ele>232</ele>
        <time>2019-06-14T10:57:54Z</time>
      </trkpt>
      <trkpt lat="60.19183" lon="11.17633">
        <ele>226.60000610352</ele>
        <time>2019-06-14T10:58:05Z</time>
      </trkpt>
      <trkpt lat="60.19252" lon="11.17549">
        <ele>222.80000305176</ele>
        <time>2019-06-14T10:58:11Z</time>
      </trkpt>
      <trkpt lat="60.19375" lon="11.17417">
        <ele>220.19999694824</ele>
        <time>2019-06-14T10:58:17Z</time>
      </trkpt>
      <trkpt lat="60.19482" lon="11.17335">
        <ele>220.60000610352</ele>
        <time>2019-06-14T10:58:20Z</time>
      </trkpt>
      <trkpt lat="60.1954" lon="11.1727">
        <ele>219.80000305176</ele>
        <time>2019-06-14T10:58:26Z</time>
      </trkpt>
      <trkpt lat="60.19578" lon="11.17225">
        <ele>219.60000610352</ele>
        <time>2019-06-14T10:58:31Z</time>
      </trkpt>
      <trkpt lat="60.19659" lon="11.17128">
        <ele>221.19999694824</ele>
        <time>2019-06-14T10:58:37Z</time>
      </trkpt>
      <trkpt lat="60.19723" lon="11.17049">
        <ele>221.19999694824</ele>
        <time>2019-06-14T10:58:44Z</time>
      </trkpt>
      <trkpt lat="60.1978" lon="11.16972">
        <ele>220.60000610352</ele>
        <time>2019-06-14T10:58:48Z</time>
      </trkpt>
      <trkpt lat="60.19845" lon="11.16914">
        <ele>219.19999694824</ele>
        <time>2019-06-14T10:59:00Z</time>
      </trkpt>
      <trkpt lat="60.19905" lon="11.16878">
        <ele>221</ele>
        <time>2019-06-14T11:00:20Z</time>
      </trkpt>
      <trkpt lat="60.20002" lon="11.16822">
        <ele>222.80000305176</ele>
        <time>2019-06-14T11:00:26Z</time>
      </trkpt>
      <trkpt lat="60.20016" lon="11.16814">
        <ele>222</ele>
        <time>2019-06-14T11:00:41Z</time>
      </trkpt>
      <trkpt lat="60.20041" lon="11.16798">
        <ele>222.60000610352</ele>
        <time>2019-06-14T11:00:48Z</time>
      </trkpt>
      <trkpt lat="60.2011" lon="11.16753">
        <ele>221.19999694824</ele>
        <time>2019-06-14T11:01:42Z</time>
      </trkpt>
      <trkpt lat="60.20227" lon="11.16673">
        <ele>222.39999389648</ele>
        <time>2019-06-14T11:01:51Z</time>
      </trkpt>
      <trkpt lat="60.20294" lon="11.16636">
        <ele>222.39999389648</ele>
        <time>2019-06-14T11:02:14Z</time>
      </trkpt>
      <trkpt lat="60.20408" lon="11.16615">
        <ele>221.39999389648</ele>
        <time>2019-06-14T11:02:29Z</time>
      </trkpt>
      <trkpt lat="60.20448" lon="11.16606">
        <ele>220.19999694824</ele>
        <time>2019-06-14T11:02:47Z</time>
      </trkpt>
      <trkpt lat="60.20576" lon="11.16596">
        <ele>213.60000610352</ele>
        <time>2019-06-14T11:02:52Z</time>
      </trkpt>
      <trkpt lat="60.20623" lon="11.16601">
        <ele>212.60000610352</ele>
        <time>2019-06-14T11:02:56Z</time>
      </trkpt>
      <trkpt lat="60.20643" lon="11.16599">
        <ele>212.60000610352</ele>
        <time>2019-06-14T11:03:12Z</time>
      </trkpt>
      <trkpt lat="60.20733" lon="11.16553">
        <ele>216.19999694824</ele>
        <time>2019-06-14T11:03:18Z</time>
      </trkpt>
      <trkpt lat="60.20778" lon="11.16528">
        <ele>217</ele>
        <time>2019-06-14T11:03:21Z</time>
      </trkpt>
      <trkpt lat="60.20853" lon="11.16488">
        <ele>217.19999694824</ele>
        <time>2019-06-14T11:03:29Z</time>
      </trkpt>
      <trkpt lat="60.20892" lon="11.16466">
        <ele>217.60000610352</ele>
        <time>2019-06-14T11:03:37Z</time>
      </trkpt>
      <trkpt lat="60.21019" lon="11.16387">
        <ele>221.60000610352</ele>
        <time>2019-06-14T11:03:46Z</time>
      </trkpt>
      <trkpt lat="60.2109" lon="11.16362">
        <ele>221.39999389648</ele>
        <time>2019-06-14T11:03:52Z</time>
      </trkpt>
      <trkpt lat="60.21156" lon="11.16368">
        <ele>221</ele>
        <time>2019-06-14T11:03:59Z</time>
      </trkpt>
      <trkpt lat="60.21286" lon="11.16391">
        <ele>221</ele>
        <time>2019-06-14T11:04:19Z</time>
      </trkpt>
      <trkpt lat="60.21353" lon="11.16404">
        <ele>221.60000610352</ele>
        <time>2019-06-14T11:05:02Z</time>
      </trkpt>
      <trkpt lat="60.21429" lon="11.16418">
        <ele>221.39999389648</ele>
        <time>2019-06-14T11:05:09Z</time>
      </trkpt>
      <trkpt lat="60.21489" lon="11.16429">
        <ele>220.60000610352</ele>
        <time>2019-06-14T11:05:49Z</time>
      </trkpt>
      <trkpt lat="60.21561" lon="11.16441">
        <ele>221.19999694824</ele>
        <time>2019-06-14T11:05:59Z</time>
      </trkpt>
      <trkpt lat="60.21681" lon="11.16461">
        <ele>219.60000610352</ele>
        <time>2019-06-14T11:06:16Z</time>
      </trkpt>
      <trkpt lat="60.21726" lon="11.16466">
        <ele>219.80000305176</ele>
        <time>2019-06-14T11:06:26Z</time>
      </trkpt>
      <trkpt lat="60.21795" lon="11.16447">
        <ele>220</ele>
        <time>2019-06-14T11:08:58Z</time>
      </trkpt>
      <trkpt lat="60.21823" lon="11.16438">
        <ele>220</ele>
        <time>2019-06-14T11:09:11Z</time>
      </trkpt>
      <trkpt lat="60.21877" lon="11.16422">
        <ele>220.19999694824</ele>
        <time>2019-06-14T11:09:16Z</time>
      </trkpt>
      <trkpt lat="60.21928" lon="11.16412">
        <ele>219.60000610352</ele>
        <time>2019-06-14T11:10:03Z</time>
      </trkpt>
      <trkpt lat="60.21988" lon="11.16416">
        <ele>219.60000610352</ele>
        <time>2019-06-14T11:10:06Z</time>
      </trkpt>
      <trkpt lat="60.22051" lon="11.16435">
        <ele>219.19999694824</ele>
        <time>2019-06-14T11:10:12Z</time>
      </trkpt>
      <trkpt lat="60.22147" lon="11.16471">
        <ele>220</ele>
        <time>2019-06-14T11:10:30Z</time>
      </trkpt>
      <trkpt lat="60.22285" lon="11.16528">
        <ele>219</ele>
        <time>2019-06-14T11:11:07Z</time>
      </trkpt>
      <trkpt lat="60.2232" lon="11.16548">
        <ele>217.60000610352</ele>
        <time>2019-06-14T11:11:15Z</time>
      </trkpt>
      <trkpt lat="60.22376" lon="11.16569">
        <ele>218.19999694824</ele>
        <time>2019-06-14T11:11:23Z</time>
      </trkpt>
      <trkpt lat="60.22449" lon="11.16597">
        <ele>221</ele>
        <time>2019-06-14T11:11:30Z</time>
      </trkpt>
      <trkpt lat="60.22591" lon="11.16648">
        <ele>223.80000305176</ele>
        <time>2019-06-14T11:11:45Z</time>
      </trkpt>
      <trkpt lat="60.22668" lon="11.16678">
        <ele>224</ele>
        <time>2019-06-14T11:11:58Z</time>
      </trkpt>
      <trkpt lat="60.22716" lon="11.16698">
        <ele>222.80000305176</ele>
        <time>2019-06-14T11:12:12Z</time>
      </trkpt>
      <trkpt lat="60.22766" lon="11.16723">
        <ele>222.60000610352</ele>
        <time>2019-06-14T11:12:27Z</time>
      </trkpt>
      <trkpt lat="60.22808" lon="11.16764">
        <ele>222.19999694824</ele>
        <time>2019-06-14T11:12:32Z</time>
      </trkpt>
      <trkpt lat="60.22813" lon="11.1677">
        <ele>218.19999694824</ele>
        <time>2019-06-14T11:12:46Z</time>
      </trkpt>
      <trkpt lat="60.2287" lon="11.16828">
        <ele>220.60000610352</ele>
        <time>2019-06-14T11:12:59Z</time>
      </trkpt>
      <trkpt lat="60.22898" lon="11.16877">
        <ele>221.60000610352</ele>
        <time>2019-06-14T11:13:02Z</time>
      </trkpt>
      <trkpt lat="60.22941" lon="11.16972">
        <ele>221.39999389648</ele>
        <time>2019-06-14T11:13:22Z</time>
      </trkpt>
      <trkpt lat="60.22986" lon="11.17075">
        <ele>221.60000610352</ele>
        <time>2019-06-14T11:13:47Z</time>
      </trkpt>
      <trkpt lat="60.23015" lon="11.17172">
        <ele>220.80000305176</ele>
        <time>2019-06-14T11:13:50Z</time>
      </trkpt>
      <trkpt lat="60.23029" lon="11.17257">
        <ele>219.19999694824</ele>
        <time>2019-06-14T11:14:09Z</time>
      </trkpt>
      <trkpt lat="60.23047" lon="11.17291">
        <ele>218</ele>
        <time>2019-06-14T11:14:30Z</time>
      </trkpt>
      <trkpt lat="60.23061" lon="11.17339">
        <ele>217.19999694824</ele>
        <time>2019-06-14T11:14:35Z</time>
      </trkpt>
      <trkpt lat="60.23071" lon="11.17376">
        <ele>217</ele>
        <time>2019-06-14T11:14:55Z</time>
      </trkpt>
      <trkpt lat="60.23106" lon="11.17498">
        <ele>217.39999389648</ele>
        <time>2019-06-14T11:15:14Z</time>
      </trkpt>
      <trkpt lat="60.23207" lon="11.17604">
        <ele>219.60000610352</ele>
        <time>2019-06-14T11:15:33Z</time>
      </trkpt>
      <trkpt lat="60.2328" lon="11.17728">
        <ele>222.39999389648</ele>
        <time>2019-06-14T11:15:41Z</time>
      </trkpt>
      <trkpt lat="60.23315" lon="11.17821">
        <ele>223</ele>
        <time>2019-06-14T11:15:51Z</time>
      </trkpt>
      <trkpt lat="60.2333" lon="11.17869">
        <ele>223</ele>
        <time>2019-06-14T11:16:09Z</time>
      </trkpt>
      <trkpt lat="60.23375" lon="11.18028">
        <ele>222.19999694824</ele>
        <time>2019-06-14T11:16:15Z</time>
      </trkpt>
      <trkpt lat="60.23398" lon="11.18108">
        <ele>221.60000610352</ele>
        <time>2019-06-14T11:16:21Z</time>
      </trkpt>
      <trkpt lat="60.23425" lon="11.18203">
        <ele>220.19999694824</ele>
        <time>2019-06-14T11:16:41Z</time>
      </trkpt>
      <trkpt lat="60.23458" lon="11.18312">
        <ele>219.19999694824</ele>
        <time>2019-06-14T11:16:54Z</time>
      </trkpt>
      <trkpt lat="60.23483" lon="11.18397">
        <ele>219.39999389648</ele>
        <time>2019-06-14T11:17:13Z</time>
      </trkpt>
      <trkpt lat="60.23534" lon="11.18538">
        <ele>220</ele>
        <time>2019-06-14T11:17:22Z</time>
      </trkpt>
      <trkpt lat="60.23566" lon="11.18591">
        <ele>219.80000305176</ele>
        <time>2019-06-14T11:17:29Z</time>
      </trkpt>
      <trkpt lat="60.2362" lon="11.1866">
        <ele>217.80000305176</ele>
        <time>2019-06-14T11:17:53Z</time>
      </trkpt>
      <trkpt lat="60.23731" lon="11.1884">
        <ele>210.60000610352</ele>
        <time>2019-06-14T11:17:57Z</time>
      </trkpt>
      <trkpt lat="60.2383" lon="11.18945">
        <ele>208.60000610352</ele>
        <time>2019-06-14T11:18:10Z</time>
      </trkpt>
      <trkpt lat="60.23872" lon="11.19018">
        <ele>207</ele>
        <time>2019-06-14T11:18:31Z</time>
      </trkpt>
      <trkpt lat="60.23914" lon="11.19131">
        <ele>205.80000305176</ele>
        <time>2019-06-14T11:18:40Z</time>
      </trkpt>
      <trkpt lat="60.23926" lon="11.1918">
        <ele>207.19999694824</ele>
        <time>2019-06-14T11:18:48Z</time>
      </trkpt>
      <trkpt lat="60.23933" lon="11.19241">
        <ele>211</ele>
        <time>2019-06-14T11:19:01Z</time>
      </trkpt>
      <trkpt lat="60.23938" lon="11.19302">
        <ele>211.80000305176</ele>
        <time>2019-06-14T11:19:18Z</time>
      </trkpt>
      <trkpt lat="60.23954" lon="11.1933">
        <ele>210.60000610352</ele>
        <time>2019-06-14T11:19:31Z</time>
      </trkpt>
      <trkpt lat="60.23952" lon="11.19326">
        <ele>209.80000305176</ele>
        <time>2019-06-14T11:19:36Z</time>
      </trkpt>
      <trkpt lat="60.23937" lon="11.19296">
        <ele>210</ele>
        <time>2019-06-14T11:19:43Z</time>
      </trkpt>
      <trkpt lat="60.23934" lon="11.19224">
        <ele>211.39999389648</ele>
        <time>2019-06-14T11:19:53Z</time>
      </trkpt>
      <trkpt lat="60.2393" lon="11.19191">
        <ele>211.60000610352</ele>
        <time>2019-06-14T11:20:08Z</time>
      </trkpt>
      <trkpt lat="60.23914" lon="11.19116">
        <ele>210.39999389648</ele>
        <time>2019-06-14T11:20:17Z</time>
      </trkpt>
      <trkpt lat="60.23923" lon="11.1911">
        <ele>208.60000610352</ele>
        <time>2019-06-14T11:20:21Z</time>
      </trkpt>
      <trkpt lat="60.23944" lon="11.1915">
        <ele>205</ele>
        <time>2019-06-14T11:20:25Z</time>
      </trkpt>
      <trkpt lat="60.24054" lon="11.19261">
        <ele>200.60000610352</ele>
        <time>2019-06-14T11:20:41Z</time>
      </trkpt>
      <trkpt lat="60.24109" lon="11.19306">
        <ele>200.19999694824</ele>
        <time>2019-06-14T11:20:47Z</time>
      </trkpt>
      <trkpt lat="60.24176" lon="11.19366">
        <ele>200</ele>
        <time>2019-06-14T11:21:08Z</time>
      </trkpt>
      <trkpt lat="60.24337" lon="11.19521">
        <ele>193.19999694824</ele>
        <time>2019-06-14T11:21:20Z</time>
      </trkpt>
      <trkpt lat="60.24386" lon="11.19567">
        <ele>190</ele>
        <time>2019-06-14T11:21:36Z</time>
      </trkpt>
      <trkpt lat="60.24478" lon="11.19641">
        <ele>187.80000305176</ele>
        <time>2019-06-14T11:21:59Z</time>
      </trkpt>
      <trkpt lat="60.24539" lon="11.19685">
        <ele>185.60000610352</ele>
        <time>2019-06-14T11:22:04Z</time>
      </trkpt>
      <trkpt lat="60.24593" lon="11.19727">
        <ele>184.80000305176</ele>
        <time>2019-06-14T11:22:22Z</time>
      </trkpt>
      <trkpt lat="60.24623" lon="11.19763">
        <ele>185.80000305176</ele>
        <time>2019-06-14T11:22:38Z</time>
      </trkpt>
      <trkpt lat="60.24697" lon="11.19872">
        <ele>192.19999694824</ele>
        <time>2019-06-14T11:22:54Z</time>
      </trkpt>
      <trkpt lat="60.24764" lon="11.19925">
        <ele>193</ele>
        <time>2019-06-14T11:23:10Z</time>
      </trkpt>
      <trkpt lat="60.24814" lon="11.19994">
        <ele>194.19999694824</ele>
        <time>2019-06-14T11:23:24Z</time>
      </trkpt>
      <trkpt lat="60.2484" lon="11.20037">
        <ele>196.39999389648</ele>
        <time>2019-06-14T11:23:39Z</time>
      </trkpt>
      <trkpt lat="60.24867" lon="11.20077">
        <ele>197.39999389648</ele>
        <time>2019-06-14T11:23:56Z</time>
      </trkpt>
      <trkpt lat="60.24941" lon="11.2012">
        <ele>202</ele>
        <time>2019-06-14T11:24:10Z</time>
      </trkpt>
      <trkpt lat="60.25102" lon="11.20111">
        <ele>211.80000305176</ele>
        <time>2019-06-14T11:24:16Z</time>
      </trkpt>
      <trkpt lat="60.25148" lon="11.201">
        <ele>212</ele>
        <time>2019-06-14T11:24:22Z</time>
      </trkpt>
      <trkpt lat="60.2521" lon="11.20086">
        <ele>211.80000305176</ele>
        <time>2019-06-14T11:24:28Z</time>
      </trkpt>
      <trkpt lat="60.25279" lon="11.20051">
        <ele>210</ele>
        <time>2019-06-14T11:24:46Z</time>
      </trkpt>
      <trkpt lat="60.25292" lon="11.20022">
        <ele>210</ele>
        <time>2019-06-14T11:25:02Z</time>
      </trkpt>
      <trkpt lat="60.2532" lon="11.19987">
        <ele>210.19999694824</ele>
        <time>2019-06-14T11:25:12Z</time>
      </trkpt>
      <trkpt lat="60.25349" lon="11.19932">
        <ele>211</ele>
        <time>2019-06-14T11:25:24Z</time>
      </trkpt>
      <trkpt lat="60.25366" lon="11.19878">
        <ele>211</ele>
        <time>2019-06-14T11:25:37Z</time>
      </trkpt>
      <trkpt lat="60.25403" lon="11.19832">
        <ele>210.60000610352</ele>
        <time>2019-06-14T11:25:53Z</time>
      </trkpt>
      <trkpt lat="60.25474" lon="11.19697">
        <ele>213.19999694824</ele>
        <time>2019-06-14T11:26:10Z</time>
      </trkpt>
      <trkpt lat="60.25505" lon="11.19629">
        <ele>215.19999694824</ele>
        <time>2019-06-14T11:26:14Z</time>
      </trkpt>
      <trkpt lat="60.25559" lon="11.19504">
        <ele>216</ele>
        <time>2019-06-14T11:26:21Z</time>
      </trkpt>
      <trkpt lat="60.256" lon="11.19405">
        <ele>217</ele>
        <time>2019-06-14T11:26:32Z</time>
      </trkpt>
      <trkpt lat="60.25632" lon="11.19331">
        <ele>219.60000610352</ele>
        <time>2019-06-14T11:26:48Z</time>
      </trkpt>
      <trkpt lat="60.25675" lon="11.19223">
        <ele>221.60000610352</ele>
        <time>2019-06-14T11:27:11Z</time>
      </trkpt>
      <trkpt lat="60.25693" lon="11.19182">
        <ele>221.80000305176</ele>
        <time>2019-06-14T11:27:26Z</time>
      </trkpt>
      <trkpt lat="60.25712" lon="11.19137">
        <ele>222.60000610352</ele>
        <time>2019-06-14T11:27:39Z</time>
      </trkpt>
      <trkpt lat="60.2573" lon="11.19092">
        <ele>224.80000305176</ele>
        <time>2019-06-14T11:27:47Z</time>
      </trkpt>
      <trkpt lat="60.25782" lon="11.18973">
        <ele>228</ele>
        <time>2019-06-14T11:27:53Z</time>
      </trkpt>
      <trkpt lat="60.25805" lon="11.18917">
        <ele>228.39999389648</ele>
        <time>2019-06-14T11:28:16Z</time>
      </trkpt>
      <trkpt lat="60.2585" lon="11.18811">
        <ele>228.19999694824</ele>
        <time>2019-06-14T11:28:30Z</time>
      </trkpt>
      <trkpt lat="60.25884" lon="11.18728">
        <ele>228.60000610352</ele>
        <time>2019-06-14T11:28:45Z</time>
      </trkpt>
      <trkpt lat="60.25881" lon="11.18666">
        <ele>229.19999694824</ele>
        <time>2019-06-14T11:28:56Z</time>
      </trkpt>
      <trkpt lat="60.25853" lon="11.18643">
        <ele>230.80000305176</ele>
        <time>2019-06-14T11:29:00Z</time>
      </trkpt>
      <trkpt lat="60.25913" lon="11.1857">
        <ele>229.39999389648</ele>
        <time>2019-06-14T11:29:05Z</time>
      </trkpt>
      <trkpt lat="60.25934" lon="11.18554">
        <ele>228.19999694824</ele>
        <time>2019-06-14T11:29:28Z</time>
      </trkpt>
      <trkpt lat="60.25955" lon="11.18561">
        <ele>228.19999694824</ele>
        <time>2019-06-14T11:29:40Z</time>
      </trkpt>
      <trkpt lat="60.26025" lon="11.18578">
        <ele>228.80000305176</ele>
        <time>2019-06-14T11:29:49Z</time>
      </trkpt>
      <trkpt lat="60.26213" lon="11.18534">
        <ele>225.39999389648</ele>
        <time>2019-06-14T11:29:54Z</time>
      </trkpt>
      <trkpt lat="60.26274" lon="11.18505">
        <ele>226</ele>
        <time>2019-06-14T11:30:00Z</time>
      </trkpt>
      <trkpt lat="60.26354" lon="11.18447">
        <ele>225.80000305176</ele>
        <time>2019-06-14T11:30:12Z</time>
      </trkpt>
      <trkpt lat="60.26415" lon="11.18387">
        <ele>225.19999694824</ele>
        <time>2019-06-14T11:34:38Z</time>
      </trkpt>
      <trkpt lat="60.26505" lon="11.18322">
        <ele>223</ele>
        <time>2019-06-14T11:34:55Z</time>
      </trkpt>
      <trkpt lat="60.26603" lon="11.18285">
        <ele>223.19999694824</ele>
        <time>2019-06-14T11:35:10Z</time>
      </trkpt>
      <trkpt lat="60.26671" lon="11.18265">
        <ele>223</ele>
        <time>2019-06-14T11:35:26Z</time>
      </trkpt>
      <trkpt lat="60.26738" lon="11.18241">
        <ele>223.80000305176</ele>
        <time>2019-06-14T11:35:32Z</time>
      </trkpt>
      <trkpt lat="60.26802" lon="11.18223">
        <ele>225.39999389648</ele>
        <time>2019-06-14T11:35:47Z</time>
      </trkpt>
      <trkpt lat="60.26931" lon="11.18198">
        <ele>226.80000305176</ele>
        <time>2019-06-14T11:35:58Z</time>
      </trkpt>
      <trkpt lat="60.27015" lon="11.18176">
        <ele>226.39999389648</ele>
        <time>2019-06-14T11:36:21Z</time>
      </trkpt>
      <trkpt lat="60.27085" lon="11.18155">
        <ele>225.39999389648</ele>
        <time>2019-06-14T11:36:27Z</time>
      </trkpt>
      <trkpt lat="60.27119" lon="11.18138">
        <ele>224.19999694824</ele>
        <time>2019-06-14T11:36:38Z</time>
      </trkpt>
      <trkpt lat="60.27191" lon="11.18081">
        <ele>224</ele>
        <time>2019-06-14T11:36:54Z</time>
      </trkpt>
      <trkpt lat="60.27229" lon="11.18032">
        <ele>223.39999389648</ele>
        <time>2019-06-14T11:37:02Z</time>
      </trkpt>
      <trkpt lat="60.2728" lon="11.18003">
        <ele>223.19999694824</ele>
        <time>2019-06-14T11:37:24Z</time>
      </trkpt>
      <trkpt lat="60.27363" lon="11.17948">
        <ele>222.39999389648</ele>
        <time>2019-06-14T11:37:40Z</time>
      </trkpt>
      <trkpt lat="60.27429" lon="11.1792">
        <ele>223.19999694824</ele>
        <time>2019-06-14T11:37:57Z</time>
      </trkpt>
      <trkpt lat="60.27471" lon="11.17901">
        <ele>223.39999389648</ele>
        <time>2019-06-14T11:38:08Z</time>
      </trkpt>
      <trkpt lat="60.27501" lon="11.17883">
        <ele>222.60000610352</ele>
        <time>2019-06-14T11:38:19Z</time>
      </trkpt>
      <trkpt lat="60.27574" lon="11.17867">
        <ele>222.19999694824</ele>
        <time>2019-06-14T11:38:33Z</time>
      </trkpt>
      <trkpt lat="60.277" lon="11.17795">
        <ele>220</ele>
        <time>2019-06-14T11:38:41Z</time>
      </trkpt>
      <trkpt lat="60.27764" lon="11.1776">
        <ele>219.80000305176</ele>
        <time>2019-06-14T11:38:45Z</time>
      </trkpt>
      <trkpt lat="60.27822" lon="11.17728">
        <ele>222</ele>
        <time>2019-06-14T11:38:55Z</time>
      </trkpt>
      <trkpt lat="60.27878" lon="11.17702">
        <ele>222.60000610352</ele>
        <time>2019-06-14T11:38:57Z</time>
      </trkpt>
      <trkpt lat="60.27932" lon="11.17674">
        <ele>222.60000610352</ele>
        <time>2019-06-14T11:39:03Z</time>
      </trkpt>
      <trkpt lat="60.28049" lon="11.17593">
        <ele>221.60000610352</ele>
        <time>2019-06-14T11:39:20Z</time>
      </trkpt>
      <trkpt lat="60.28072" lon="11.17562">
        <ele>220</ele>
        <time>2019-06-14T11:39:25Z</time>
      </trkpt>
      <trkpt lat="60.28138" lon="11.17514">
        <ele>219</ele>
        <time>2019-06-14T11:39:32Z</time>
      </trkpt>
      <trkpt lat="60.28171" lon="11.17487">
        <ele>218.80000305176</ele>
        <time>2019-06-14T11:39:38Z</time>
      </trkpt>
      <trkpt lat="60.28212" lon="11.17447">
        <ele>217.80000305176</ele>
        <time>2019-06-14T11:39:52Z</time>
      </trkpt>
      <trkpt lat="60.28268" lon="11.17393">
        <ele>217.19999694824</ele>
        <time>2019-06-14T11:40:18Z</time>
      </trkpt>
      <trkpt lat="60.28319" lon="11.17347">
        <ele>217.60000610352</ele>
        <time>2019-06-14T11:40:32Z</time>
      </trkpt>
      <trkpt lat="60.28373" lon="11.17265">
        <ele>217.60000610352</ele>
        <time>2019-06-14T11:40:39Z</time>
      </trkpt>
      <trkpt lat="60.28427" lon="11.17235">
        <ele>217</ele>
        <time>2019-06-14T11:40:47Z</time>
      </trkpt>
      <trkpt lat="60.28475" lon="11.1719">
        <ele>217.19999694824</ele>
        <time>2019-06-14T11:40:51Z</time>
      </trkpt>
      <trkpt lat="60.28515" lon="11.17154">
        <ele>217.80000305176</ele>
        <time>2019-06-14T11:40:59Z</time>
      </trkpt>
      <trkpt lat="60.28601" lon="11.17108">
        <ele>217.39999389648</ele>
        <time>2019-06-14T11:41:03Z</time>
      </trkpt>
      <trkpt lat="60.28643" lon="11.17089">
        <ele>216</ele>
        <time>2019-06-14T11:41:09Z</time>
      </trkpt>
      <trkpt lat="60.28695" lon="11.17051">
        <ele>215.39999389648</ele>
        <time>2019-06-14T11:41:21Z</time>
      </trkpt>
      <trkpt lat="60.28719" lon="11.17041">
        <ele>215.39999389648</ele>
        <time>2019-06-14T11:41:24Z</time>
      </trkpt>
      <trkpt lat="60.28729" lon="11.17051">
        <ele>215.19999694824</ele>
        <time>2019-06-14T11:41:30Z</time>
      </trkpt>
      <trkpt lat="60.28828" lon="11.17037">
        <ele>215.80000305176</ele>
        <time>2019-06-14T11:41:40Z</time>
      </trkpt>
      <trkpt lat="60.28876" lon="11.17018">
        <ele>216.39999389648</ele>
        <time>2019-06-14T11:41:54Z</time>
      </trkpt>
      <trkpt lat="60.28907" lon="11.17016">
        <ele>216</ele>
        <time>2019-06-14T11:42:16Z</time>
      </trkpt>
      <trkpt lat="60.28921" lon="11.17037">
        <ele>215.39999389648</ele>
        <time>2019-06-14T11:42:30Z</time>
      </trkpt>
      <trkpt lat="60.28978" lon="11.17016">
        <ele>214</ele>
        <time>2019-06-14T11:42:49Z</time>
      </trkpt>
      <trkpt lat="60.29046" lon="11.16995">
        <ele>213.80000305176</ele>
        <time>2019-06-14T11:43:07Z</time>
      </trkpt>
      <trkpt lat="60.29074" lon="11.16987">
        <ele>214.19999694824</ele>
        <time>2019-06-14T11:43:20Z</time>
      </trkpt>
      <trkpt lat="60.29086" lon="11.16984">
        <ele>214</ele>
        <time>2019-06-14T11:43:29Z</time>
      </trkpt>
      <trkpt lat="60.29127" lon="11.16975">
        <ele>214</ele>
        <time>2019-06-14T11:43:49Z</time>
      </trkpt>
      <trkpt lat="60.29207" lon="11.16992">
        <ele>214.60000610352</ele>
        <time>2019-06-14T11:43:52Z</time>
      </trkpt>
      <trkpt lat="60.29255" lon="11.17003">
        <ele>214</ele>
        <time>2019-06-14T11:44:00Z</time>
      </trkpt>
      <trkpt lat="60.29304" lon="11.1701">
        <ele>214</ele>
        <time>2019-06-14T11:44:11Z</time>
      </trkpt>
      <trkpt lat="60.29375" lon="11.17018">
        <ele>213.60000610352</ele>
        <time>2019-06-14T11:44:17Z</time>
      </trkpt>
      <trkpt lat="60.2945" lon="11.17029">
        <ele>214.19999694824</ele>
        <time>2019-06-14T11:44:28Z</time>
      </trkpt>
      <trkpt lat="60.29542" lon="11.17101">
        <ele>213.80000305176</ele>
        <time>2019-06-14T11:44:34Z</time>
      </trkpt>
      <trkpt lat="60.29578" lon="11.17131">
        <ele>213</ele>
        <time>2019-06-14T11:44:48Z</time>
      </trkpt>
      <trkpt lat="60.29637" lon="11.1713">
        <ele>212</ele>
        <time>2019-06-14T11:44:57Z</time>
      </trkpt>
      <trkpt lat="60.29705" lon="11.17121">
        <ele>211.39999389648</ele>
        <time>2019-06-14T11:45:03Z</time>
      </trkpt>
      <trkpt lat="60.29745" lon="11.17115">
        <ele>211.39999389648</ele>
        <time>2019-06-14T11:45:13Z</time>
      </trkpt>
      <trkpt lat="60.29836" lon="11.17088">
        <ele>211.60000610352</ele>
        <time>2019-06-14T11:45:18Z</time>
      </trkpt>
      <trkpt lat="60.29903" lon="11.17038">
        <ele>211.19999694824</ele>
        <time>2019-06-14T11:45:24Z</time>
      </trkpt>
      <trkpt lat="60.29979" lon="11.16966">
        <ele>210.39999389648</ele>
        <time>2019-06-14T11:45:33Z</time>
      </trkpt>
      <trkpt lat="60.30038" lon="11.16897">
        <ele>208</ele>
        <time>2019-06-14T11:45:47Z</time>
      </trkpt>
      <trkpt lat="60.30051" lon="11.16904">
        <ele>207.39999389648</ele>
        <time>2019-06-14T11:45:58Z</time>
      </trkpt>
      <trkpt lat="60.30081" lon="11.16845">
        <ele>206.60000610352</ele>
        <time>2019-06-14T11:46:06Z</time>
      </trkpt>
      <trkpt lat="60.30139" lon="11.1679">
        <ele>204.39999389648</ele>
        <time>2019-06-14T11:46:10Z</time>
      </trkpt>
      <trkpt lat="60.3017" lon="11.16818">
        <ele>204.39999389648</ele>
        <time>2019-06-14T11:46:46Z</time>
      </trkpt>
      <trkpt lat="60.30224" lon="11.16908">
        <ele>209</ele>
        <time>2019-06-14T11:47:03Z</time>
      </trkpt>
      <trkpt lat="60.30247" lon="11.1695">
        <ele>209.39999389648</ele>
        <time>2019-06-14T11:47:09Z</time>
      </trkpt>
      <trkpt lat="60.30298" lon="11.17009">
        <ele>207.19999694824</ele>
        <time>2019-06-14T11:47:33Z</time>
      </trkpt>
      <trkpt lat="60.30345" lon="11.17022">
        <ele>205.80000305176</ele>
        <time>2019-06-14T11:47:42Z</time>
      </trkpt>
      <trkpt lat="60.30389" lon="11.1704">
        <ele>203</ele>
        <time>2019-06-14T11:47:53Z</time>
      </trkpt>
      <trkpt lat="60.30431" lon="11.17067">
        <ele>202.80000305176</ele>
        <time>2019-06-14T11:47:58Z</time>
      </trkpt>
      <trkpt lat="60.30567" lon="11.17153">
        <ele>208.80000305176</ele>
        <time>2019-06-14T11:48:03Z</time>
      </trkpt>
      <trkpt lat="60.30603" lon="11.17246">
        <ele>213.39999389648</ele>
        <time>2019-06-14T11:48:15Z</time>
      </trkpt>
      <trkpt lat="60.30739" lon="11.17463">
        <ele>213.39999389648</ele>
        <time>2019-06-14T11:48:27Z</time>
      </trkpt>
      <trkpt lat="60.30806" lon="11.17521">
        <ele>213</ele>
        <time>2019-06-14T11:48:39Z</time>
      </trkpt>
      <trkpt lat="60.30853" lon="11.17579">
        <ele>212.80000305176</ele>
        <time>2019-06-14T11:48:58Z</time>
      </trkpt>
      <trkpt lat="60.30876" lon="11.17622">
        <ele>213</ele>
        <time>2019-06-14T11:49:05Z</time>
      </trkpt>
      <trkpt lat="60.3096" lon="11.17784">
        <ele>213.39999389648</ele>
        <time>2019-06-14T11:49:17Z</time>
      </trkpt>
      <trkpt lat="60.31047" lon="11.17887">
        <ele>215.19999694824</ele>
        <time>2019-06-14T11:49:23Z</time>
      </trkpt>
      <trkpt lat="60.31095" lon="11.17929">
        <ele>216.39999389648</ele>
        <time>2019-06-14T11:49:28Z</time>
      </trkpt>
      <trkpt lat="60.31107" lon="11.17953">
        <ele>216.39999389648</ele>
        <time>2019-06-14T11:49:41Z</time>
      </trkpt>
      <trkpt lat="60.31147" lon="11.18008">
        <ele>218.19999694824</ele>
        <time>2019-06-14T11:49:54Z</time>
      </trkpt>
      <trkpt lat="60.31184" lon="11.18064">
        <ele>218.80000305176</ele>
        <time>2019-06-14T11:50:09Z</time>
      </trkpt>
      <trkpt lat="60.31213" lon="11.18112">
        <ele>219</ele>
        <time>2019-06-14T11:50:26Z</time>
      </trkpt>
      <trkpt lat="60.31235" lon="11.18147">
        <ele>219</ele>
        <time>2019-06-14T11:50:42Z</time>
      </trkpt>
      <trkpt lat="60.31305" lon="11.18244">
        <ele>217.39999389648</ele>
        <time>2019-06-14T11:50:56Z</time>
      </trkpt>
      <trkpt lat="60.31343" lon="11.18282">
        <ele>216.19999694824</ele>
        <time>2019-06-14T11:51:00Z</time>
      </trkpt>
      <trkpt lat="60.31405" lon="11.18315">
        <ele>213</ele>
        <time>2019-06-14T11:51:04Z</time>
      </trkpt>
      <trkpt lat="60.3144" lon="11.18337">
        <ele>212.39999389648</ele>
        <time>2019-06-14T11:51:10Z</time>
      </trkpt>
      <trkpt lat="60.31498" lon="11.18407">
        <ele>213.39999389648</ele>
        <time>2019-06-14T11:51:14Z</time>
      </trkpt>
      <trkpt lat="60.31561" lon="11.18491">
        <ele>213.60000610352</ele>
        <time>2019-06-14T11:51:16Z</time>
      </trkpt>
      <trkpt lat="60.31589" lon="11.18573">
        <ele>213.80000305176</ele>
        <time>2019-06-14T11:51:28Z</time>
      </trkpt>
      <trkpt lat="60.31631" lon="11.18715">
        <ele>213</ele>
        <time>2019-06-14T11:51:43Z</time>
      </trkpt>
      <trkpt lat="60.31708" lon="11.18974">
        <ele>210.19999694824</ele>
        <time>2019-06-14T11:51:58Z</time>
      </trkpt>
      <trkpt lat="60.31756" lon="11.19099">
        <ele>209.19999694824</ele>
        <time>2019-06-14T11:52:01Z</time>
      </trkpt>
      <trkpt lat="60.31822" lon="11.19209">
        <ele>208</ele>
        <time>2019-06-14T11:52:08Z</time>
      </trkpt>
      <trkpt lat="60.31891" lon="11.1931">
        <ele>205.80000305176</ele>
        <time>2019-06-14T11:52:31Z</time>
      </trkpt>
      <trkpt lat="60.31964" lon="11.19402">
        <ele>202</ele>
        <time>2019-06-14T11:52:43Z</time>
      </trkpt>
      <trkpt lat="60.32117" lon="11.19594">
        <ele>213.39999389648</ele>
        <time>2019-06-14T11:52:51Z</time>
      </trkpt>
      <trkpt lat="60.32151" lon="11.19621">
        <ele>214.39999389648</ele>
        <time>2019-06-14T11:53:05Z</time>
      </trkpt>
      <trkpt lat="60.32206" lon="11.19671">
        <ele>215.39999389648</ele>
        <time>2019-06-14T11:53:12Z</time>
      </trkpt>
      <trkpt lat="60.32251" lon="11.19708">
        <ele>215.80000305176</ele>
        <time>2019-06-14T11:53:22Z</time>
      </trkpt>
      <trkpt lat="60.32327" lon="11.19785">
        <ele>216</ele>
        <time>2019-06-14T11:53:30Z</time>
      </trkpt>
      <trkpt lat="60.32446" lon="11.19963">
        <ele>218.80000305176</ele>
        <time>2019-06-14T11:53:39Z</time>
      </trkpt>
      <trkpt lat="60.32449" lon="11.19967">
        <ele>218.60000610352</ele>
        <time>2019-06-14T11:53:49Z</time>
      </trkpt>
      <trkpt lat="60.32474" lon="11.20004">
        <ele>218.39999389648</ele>
        <time>2019-06-14T11:54:05Z</time>
      </trkpt>
      <trkpt lat="60.32612" lon="11.20215">
        <ele>216</ele>
        <time>2019-06-14T11:54:25Z</time>
      </trkpt>
      <trkpt lat="60.32648" lon="11.20268">
        <ele>215.60000610352</ele>
        <time>2019-06-14T11:54:40Z</time>
      </trkpt>
      <trkpt lat="60.32694" lon="11.20339">
        <ele>215.39999389648</ele>
        <time>2019-06-14T11:54:47Z</time>
      </trkpt>
      <trkpt lat="60.3273" lon="11.20396">
        <ele>215.60000610352</ele>
        <time>2019-06-14T11:55:02Z</time>
      </trkpt>
      <trkpt lat="60.32799" lon="11.20541">
        <ele>217.60000610352</ele>
        <time>2019-06-14T11:55:13Z</time>
      </trkpt>
      <trkpt lat="60.32851" lon="11.20675">
        <ele>218.39999389648</ele>
        <time>2019-06-14T11:56:08Z</time>
      </trkpt>
      <trkpt lat="60.32888" lon="11.20773">
        <ele>218.19999694824</ele>
        <time>2019-06-14T11:56:33Z</time>
      </trkpt>
      <trkpt lat="60.32944" lon="11.20923">
        <ele>217.60000610352</ele>
        <time>2019-06-14T11:56:38Z</time>
      </trkpt>
      <trkpt lat="60.33006" lon="11.21087">
        <ele>217.19999694824</ele>
        <time>2019-06-14T11:56:53Z</time>
      </trkpt>
      <trkpt lat="60.33015" lon="11.21138">
        <ele>217.39999389648</ele>
        <time>2019-06-14T11:57:06Z</time>
      </trkpt>
      <trkpt lat="60.33017" lon="11.21191">
        <ele>218.19999694824</ele>
        <time>2019-06-14T11:57:13Z</time>
      </trkpt>
      <trkpt lat="60.33015" lon="11.213">
        <ele>218.19999694824</ele>
        <time>2019-06-14T11:57:30Z</time>
      </trkpt>
      <trkpt lat="60.33019" lon="11.21311">
        <ele>218</ele>
        <time>2019-06-14T11:57:47Z</time>
      </trkpt>
      <trkpt lat="60.33028" lon="11.21287">
        <ele>218</ele>
        <time>2019-06-14T11:58:03Z</time>
      </trkpt>
      <trkpt lat="60.33031" lon="11.2122">
        <ele>218.39999389648</ele>
        <time>2019-06-14T11:58:17Z</time>
      </trkpt>
      <trkpt lat="60.33044" lon="11.21192">
        <ele>218.39999389648</ele>
        <time>2019-06-14T11:58:30Z</time>
      </trkpt>
      <trkpt lat="60.3307" lon="11.21224">
        <ele>218.60000610352</ele>
        <time>2019-06-14T11:58:47Z</time>
      </trkpt>
      <trkpt lat="60.33098" lon="11.21251">
        <ele>219.60000610352</ele>
        <time>2019-06-14T11:58:52Z</time>
      </trkpt>
      <trkpt lat="60.3312" lon="11.21309">
        <ele>219.19999694824</ele>
        <time>2019-06-14T11:59:08Z</time>
      </trkpt>
      <trkpt lat="60.33134" lon="11.21352">
        <ele>220.39999389648</ele>
        <time>2019-06-14T11:59:27Z</time>
      </trkpt>
      <trkpt lat="60.33155" lon="11.214">
        <ele>223.80000305176</ele>
        <time>2019-06-14T11:59:40Z</time>
      </trkpt>
      <trkpt lat="60.33238" lon="11.21453">
        <ele>226.19999694824</ele>
        <time>2019-06-14T11:59:52Z</time>
      </trkpt>
      <trkpt lat="60.33317" lon="11.21487">
        <ele>225.39999389648</ele>
        <time>2019-06-14T12:00:18Z</time>
      </trkpt>
      <trkpt lat="60.33356" lon="11.21491">
        <ele>224.80000305176</ele>
        <time>2019-06-14T12:00:36Z</time>
      </trkpt>
      <trkpt lat="60.33372" lon="11.21517">
        <ele>224.60000610352</ele>
        <time>2019-06-14T12:00:49Z</time>
      </trkpt>
      <trkpt lat="60.33462" lon="11.21556">
        <ele>222</ele>
        <time>2019-06-14T12:00:59Z</time>
      </trkpt>
      <trkpt lat="60.33593" lon="11.21579">
        <ele>220</ele>
        <time>2019-06-14T12:01:06Z</time>
      </trkpt>
      <trkpt lat="60.33674" lon="11.21585">
        <ele>221.19999694824</ele>
        <time>2019-06-14T12:01:24Z</time>
      </trkpt>
      <trkpt lat="60.33683" lon="11.21612">
        <ele>221.39999389648</ele>
        <time>2019-06-14T12:01:29Z</time>
      </trkpt>
      <trkpt lat="60.33682" lon="11.2162">
        <ele>220.39999389648</ele>
        <time>2019-06-14T12:01:34Z</time>
      </trkpt>
      <trkpt lat="60.33711" lon="11.21645">
        <ele>220.39999389648</ele>
        <time>2019-06-14T12:01:40Z</time>
      </trkpt>
      <trkpt lat="60.33721" lon="11.21647">
        <ele>219.80000305176</ele>
        <time>2019-06-14T12:01:48Z</time>
      </trkpt>
      <trkpt lat="60.33774" lon="11.21679">
        <ele>219.39999389648</ele>
        <time>2019-06-14T12:01:55Z</time>
      </trkpt>
      <trkpt lat="60.33843" lon="11.21734">
        <ele>219.39999389648</ele>
        <time>2019-06-14T12:02:07Z</time>
      </trkpt>
      <trkpt lat="60.33948" lon="11.21768">
        <ele>220</ele>
        <time>2019-06-14T12:02:15Z</time>
      </trkpt>
      <trkpt lat="60.34095" lon="11.21682">
        <ele>219.60000610352</ele>
        <time>2019-06-14T12:02:35Z</time>
      </trkpt>
      <trkpt lat="60.34162" lon="11.21656">
        <ele>219</ele>
        <time>2019-06-14T12:02:42Z</time>
      </trkpt>
      <trkpt lat="60.34211" lon="11.21662">
        <ele>219.60000610352</ele>
        <time>2019-06-14T12:02:55Z</time>
      </trkpt>
      <trkpt lat="60.34251" lon="11.21684">
        <ele>220.80000305176</ele>
        <time>2019-06-14T12:03:19Z</time>
      </trkpt>
      <trkpt lat="60.34315" lon="11.21734">
        <ele>221.60000610352</ele>
        <time>2019-06-14T12:03:25Z</time>
      </trkpt>
      <trkpt lat="60.34403" lon="11.21788">
        <ele>221.60000610352</ele>
        <time>2019-06-14T12:03:39Z</time>
      </trkpt>
      <trkpt lat="60.34475" lon="11.21784">
        <ele>221.19999694824</ele>
        <time>2019-06-14T12:03:44Z</time>
      </trkpt>
      <trkpt lat="60.34624" lon="11.21705">
        <ele>220.80000305176</ele>
        <time>2019-06-14T12:03:54Z</time>
      </trkpt>
      <trkpt lat="60.34697" lon="11.21624">
        <ele>220.80000305176</ele>
        <time>2019-06-14T12:04:08Z</time>
      </trkpt>
      <trkpt lat="60.34792" lon="11.21525">
        <ele>221</ele>
        <time>2019-06-14T12:04:18Z</time>
      </trkpt>
      <trkpt lat="60.34859" lon="11.21465">
        <ele>220.19999694824</ele>
        <time>2019-06-14T12:04:35Z</time>
      </trkpt>
      <trkpt lat="60.34932" lon="11.214">
        <ele>220</ele>
        <time>2019-06-14T12:04:43Z</time>
      </trkpt>
      <trkpt lat="60.35011" lon="11.21326">
        <ele>219.19999694824</ele>
        <time>2019-06-14T12:04:54Z</time>
      </trkpt>
      <trkpt lat="60.35082" lon="11.21275">
        <ele>220.19999694824</ele>
        <time>2019-06-14T12:05:13Z</time>
      </trkpt>
      <trkpt lat="60.35147" lon="11.21232">
        <ele>221.80000305176</ele>
        <time>2019-06-14T12:05:21Z</time>
      </trkpt>
      <trkpt lat="60.3517" lon="11.21217">
        <ele>221.80000305176</ele>
        <time>2019-06-14T12:05:52Z</time>
      </trkpt>
      <trkpt lat="60.35263" lon="11.21155">
        <ele>221.39999389648</ele>
        <time>2019-06-14T12:06:04Z</time>
      </trkpt>
      <trkpt lat="60.35329" lon="11.21109">
        <ele>221.19999694824</ele>
        <time>2019-06-14T12:06:55Z</time>
      </trkpt>
      <trkpt lat="60.35368" lon="11.21086">
        <ele>220.60000610352</ele>
        <time>2019-06-14T12:07:07Z</time>
      </trkpt>
      <trkpt lat="60.35374" lon="11.21097">
        <ele>219.80000305176</ele>
        <time>2019-06-14T12:07:17Z</time>
      </trkpt>
      <trkpt lat="60.35513" lon="11.21283">
        <ele>217.80000305176</ele>
        <time>2019-06-14T12:07:27Z</time>
      </trkpt>
      <trkpt lat="60.35545" lon="11.21302">
        <ele>217.80000305176</ele>
        <time>2019-06-14T12:07:42Z</time>
      </trkpt>
      <trkpt lat="60.35605" lon="11.21288">
        <ele>217.80000305176</ele>
        <time>2019-06-14T12:07:58Z</time>
      </trkpt>
      <trkpt lat="60.35705" lon="11.21238">
        <ele>216.19999694824</ele>
        <time>2019-06-14T12:08:15Z</time>
      </trkpt>
      <trkpt lat="60.35763" lon="11.21255">
        <ele>212.19999694824</ele>
        <time>2019-06-14T12:08:34Z</time>
      </trkpt>
      <trkpt lat="60.3581" lon="11.21319">
        <ele>210</ele>
        <time>2019-06-14T12:08:51Z</time>
      </trkpt>
      <trkpt lat="60.35824" lon="11.21353">
        <ele>208</ele>
        <time>2019-06-14T12:09:08Z</time>
      </trkpt>
      <trkpt lat="60.35878" lon="11.21444">
        <ele>206.19999694824</ele>
        <time>2019-06-14T12:09:13Z</time>
      </trkpt>
      <trkpt lat="60.35917" lon="11.2149">
        <ele>208.60000610352</ele>
        <time>2019-06-14T12:11:21Z</time>
      </trkpt>
      <trkpt lat="60.36019" lon="11.2156">
        <ele>216.19999694824</ele>
        <time>2019-06-14T12:11:30Z</time>
      </trkpt>
      <trkpt lat="60.36039" lon="11.21582">
        <ele>217.19999694824</ele>
        <time>2019-06-14T12:11:44Z</time>
      </trkpt>
      <trkpt lat="60.36077" lon="11.21623">
        <ele>217.60000610352</ele>
        <time>2019-06-14T12:11:51Z</time>
      </trkpt>
      <trkpt lat="60.36118" lon="11.21642">
        <ele>217.60000610352</ele>
        <time>2019-06-14T12:12:07Z</time>
      </trkpt>
      <trkpt lat="60.36177" lon="11.21585">
        <ele>217.60000610352</ele>
        <time>2019-06-14T12:12:19Z</time>
      </trkpt>
      <trkpt lat="60.36263" lon="11.21475">
        <ele>218</ele>
        <time>2019-06-14T12:12:33Z</time>
      </trkpt>
      <trkpt lat="60.3634" lon="11.2138">
        <ele>218</ele>
        <time>2019-06-14T12:12:49Z</time>
      </trkpt>
      <trkpt lat="60.36373" lon="11.21335">
        <ele>218.19999694824</ele>
        <time>2019-06-14T12:12:56Z</time>
      </trkpt>
      <trkpt lat="60.36485" lon="11.21195">
        <ele>218.19999694824</ele>
        <time>2019-06-14T12:13:12Z</time>
      </trkpt>
      <trkpt lat="60.36539" lon="11.21121">
        <ele>218.39999389648</ele>
        <time>2019-06-14T12:13:24Z</time>
      </trkpt>
      <trkpt lat="60.36592" lon="11.21016">
        <ele>218.80000305176</ele>
        <time>2019-06-14T12:13:45Z</time>
      </trkpt>
      <trkpt lat="60.36607" lon="11.20961">
        <ele>218.80000305176</ele>
        <time>2019-06-14T12:14:05Z</time>
      </trkpt>
      <trkpt lat="60.36634" lon="11.20944">
        <ele>218.60000610352</ele>
        <time>2019-06-14T12:14:21Z</time>
      </trkpt>
      <trkpt lat="60.36682" lon="11.20904">
        <ele>218.39999389648</ele>
        <time>2019-06-14T12:14:41Z</time>
      </trkpt>
      <trkpt lat="60.3672" lon="11.20856">
        <ele>218.60000610352</ele>
        <time>2019-06-14T12:14:58Z</time>
      </trkpt>
      <trkpt lat="60.36807" lon="11.20742">
        <ele>218.80000305176</ele>
        <time>2019-06-14T12:15:11Z</time>
      </trkpt>
      <trkpt lat="60.36833" lon="11.20706">
        <ele>219.19999694824</ele>
        <time>2019-06-14T12:15:24Z</time>
      </trkpt>
      <trkpt lat="60.36949" lon="11.2054">
        <ele>220.39999389648</ele>
        <time>2019-06-14T12:15:36Z</time>
      </trkpt>
      <trkpt lat="60.37007" lon="11.20462">
        <ele>223.39999389648</ele>
        <time>2019-06-14T12:15:45Z</time>
      </trkpt>
      <trkpt lat="60.37036" lon="11.20419">
        <ele>223.19999694824</ele>
        <time>2019-06-14T12:15:55Z</time>
      </trkpt>
      <trkpt lat="60.37121" lon="11.20311">
        <ele>221</ele>
        <time>2019-06-14T12:16:04Z</time>
      </trkpt>
      <trkpt lat="60.37151" lon="11.20289">
        <ele>220</ele>
        <time>2019-06-14T12:16:29Z</time>
      </trkpt>
      <trkpt lat="60.37191" lon="11.20266">
        <ele>217.60000610352</ele>
        <time>2019-06-14T12:16:44Z</time>
      </trkpt>
      <trkpt lat="60.37218" lon="11.20263">
        <ele>213.39999389648</ele>
        <time>2019-06-14T12:16:53Z</time>
      </trkpt>
      <trkpt lat="60.37258" lon="11.20263">
        <ele>211.60000610352</ele>
        <time>2019-06-14T12:17:19Z</time>
      </trkpt>
      <trkpt lat="60.37293" lon="11.20253">
        <ele>211</ele>
        <time>2019-06-14T12:17:37Z</time>
      </trkpt>
      <trkpt lat="60.37332" lon="11.20234">
        <ele>211.80000305176</ele>
        <time>2019-06-14T12:17:52Z</time>
      </trkpt>
      <trkpt lat="60.37475" lon="11.20198">
        <ele>220</ele>
        <time>2019-06-14T12:18:07Z</time>
      </trkpt>
      <trkpt lat="60.37532" lon="11.20182">
        <ele>220</ele>
        <time>2019-06-14T12:18:16Z</time>
      </trkpt>
      <trkpt lat="60.37565" lon="11.2017">
        <ele>220.39999389648</ele>
        <time>2019-06-14T12:18:41Z</time>
      </trkpt>
      <trkpt lat="60.37935" lon="11.19873">
        <ele>220.39999389648</ele>
        <time>2019-06-14T12:18:50Z</time>
      </trkpt>
      <trkpt lat="60.37998" lon="11.19802">
        <ele>220.60000610352</ele>
        <time>2019-06-14T12:19:00Z</time>
      </trkpt>
      <trkpt lat="60.381" lon="11.19668">
        <ele>218.60000610352</ele>
        <time>2019-06-14T12:19:22Z</time>
      </trkpt>
      <trkpt lat="60.38205" lon="11.19533">
        <ele>213.19999694824</ele>
        <time>2019-06-14T12:19:33Z</time>
      </trkpt>
      <trkpt lat="60.38319" lon="11.19492">
        <ele>220.39999389648</ele>
        <time>2019-06-14T12:19:51Z</time>
      </trkpt>
      <trkpt lat="60.38354" lon="11.19491">
        <ele>220.39999389648</ele>
        <time>2019-06-14T12:20:13Z</time>
      </trkpt>
      <trkpt lat="60.38442" lon="11.1953">
        <ele>219.39999389648</ele>
        <time>2019-06-14T12:20:32Z</time>
      </trkpt>
      <trkpt lat="60.38492" lon="11.1958">
        <ele>217.60000610352</ele>
        <time>2019-06-14T12:20:50Z</time>
      </trkpt>
      <trkpt lat="60.38547" lon="11.19651">
        <ele>217.60000610352</ele>
        <time>2019-06-14T12:20:59Z</time>
      </trkpt>
      <trkpt lat="60.38641" lon="11.19864">
        <ele>222.19999694824</ele>
        <time>2019-06-14T12:21:10Z</time>
      </trkpt>
      <trkpt lat="60.38696" lon="11.2002">
        <ele>222.80000305176</ele>
        <time>2019-06-14T12:21:37Z</time>
      </trkpt>
      <trkpt lat="60.38703" lon="11.20041">
        <ele>222.19999694824</ele>
        <time>2019-06-14T12:21:46Z</time>
      </trkpt>
      <trkpt lat="60.38747" lon="11.2016">
        <ele>222.19999694824</ele>
        <time>2019-06-14T12:22:00Z</time>
      </trkpt>
      <trkpt lat="60.38793" lon="11.2029">
        <ele>222</ele>
        <time>2019-06-14T12:22:11Z</time>
      </trkpt>
      <trkpt lat="60.3883" lon="11.20398">
        <ele>222.19999694824</ele>
        <time>2019-06-14T12:24:14Z</time>
      </trkpt>
      <trkpt lat="60.38896" lon="11.20586">
        <ele>223</ele>
        <time>2019-06-14T12:24:29Z</time>
      </trkpt>
      <trkpt lat="60.3892" lon="11.20657">
        <ele>223.39999389648</ele>
        <time>2019-06-14T12:24:45Z</time>
      </trkpt>
      <trkpt lat="60.38978" lon="11.20828">
        <ele>223.19999694824</ele>
        <time>2019-06-14T12:24:52Z</time>
      </trkpt>
      <trkpt lat="60.39025" lon="11.20962">
        <ele>223.19999694824</ele>
        <time>2019-06-14T12:25:01Z</time>
      </trkpt>
      <trkpt lat="60.39054" lon="11.21043">
        <ele>223</ele>
        <time>2019-06-14T12:25:09Z</time>
      </trkpt>
      <trkpt lat="60.39071" lon="11.2106">
        <ele>222.80000305176</ele>
        <time>2019-06-14T12:25:24Z</time>
      </trkpt>
      <trkpt lat="60.39142" lon="11.21245">
        <ele>222.80000305176</ele>
        <time>2019-06-14T12:25:31Z</time>
      </trkpt>
      <trkpt lat="60.39192" lon="11.21328">
        <ele>220.80000305176</ele>
        <time>2019-06-14T12:25:37Z</time>
      </trkpt>
      <trkpt lat="60.3919" lon="11.21401">
        <ele>219.60000610352</ele>
        <time>2019-06-14T12:25:48Z</time>
      </trkpt>
      <trkpt lat="60.39199" lon="11.21448">
        <ele>220.80000305176</ele>
        <time>2019-06-14T12:26:05Z</time>
      </trkpt>
      <trkpt lat="60.39218" lon="11.21503">
        <ele>221</ele>
        <time>2019-06-14T12:26:22Z</time>
      </trkpt>
      <trkpt lat="60.39288" lon="11.21707">
        <ele>219.19999694824</ele>
        <time>2019-06-14T12:26:46Z</time>
      </trkpt>
      <trkpt lat="60.39383" lon="11.21968">
        <ele>213.19999694824</ele>
        <time>2019-06-14T12:27:02Z</time>
      </trkpt>
      <trkpt lat="60.39395" lon="11.22016">
        <ele>212.60000610352</ele>
        <time>2019-06-14T12:27:19Z</time>
      </trkpt>
      <trkpt lat="60.39378" lon="11.22061">
        <ele>209.80000305176</ele>
        <time>2019-06-14T12:27:30Z</time>
      </trkpt>
      <trkpt lat="60.39362" lon="11.22117">
        <ele>209.60000610352</ele>
        <time>2019-06-14T12:27:57Z</time>
      </trkpt>
      <trkpt lat="60.39343" lon="11.22157">
        <ele>210.80000305176</ele>
        <time>2019-06-14T12:28:22Z</time>
      </trkpt>
      <trkpt lat="60.39325" lon="11.22191">
        <ele>211.19999694824</ele>
        <time>2019-06-14T12:28:40Z</time>
      </trkpt>
      <trkpt lat="60.39315" lon="11.22268">
        <ele>211</ele>
        <time>2019-06-14T12:28:54Z</time>
      </trkpt>
      <trkpt lat="60.39324" lon="11.22304">
        <ele>210.60000610352</ele>
        <time>2019-06-14T12:29:12Z</time>
      </trkpt>
      <trkpt lat="60.39428" lon="11.22393">
        <ele>207.39999389648</ele>
        <time>2019-06-14T12:29:23Z</time>
      </trkpt>
      <trkpt lat="60.39465" lon="11.22458">
        <ele>205</ele>
        <time>2019-06-14T12:29:38Z</time>
      </trkpt>
      <trkpt lat="60.3956" lon="11.22637">
        <ele>196.60000610352</ele>
        <time>2019-06-14T12:29:43Z</time>
      </trkpt>
      <trkpt lat="60.39621" lon="11.22787">
        <ele>191.60000610352</ele>
        <time>2019-06-14T12:29:56Z</time>
      </trkpt>
      <trkpt lat="60.39666" lon="11.22915">
        <ele>185.19999694824</ele>
        <time>2019-06-14T12:30:11Z</time>
      </trkpt>
      <trkpt lat="60.39761" lon="11.23164">
        <ele>178.39999389648</ele>
        <time>2019-06-14T12:30:16Z</time>
      </trkpt>
      <trkpt lat="60.39784" lon="11.23215">
        <ele>178</ele>
        <time>2019-06-14T12:30:24Z</time>
      </trkpt>
      <trkpt lat="60.39833" lon="11.23321">
        <ele>177.80000305176</ele>
        <time>2019-06-14T12:30:31Z</time>
      </trkpt>
      <trkpt lat="60.39835" lon="11.23324">
        <ele>177.39999389648</ele>
        <time>2019-06-14T12:30:45Z</time>
      </trkpt>
      <trkpt lat="60.39869" lon="11.23399">
        <ele>177.19999694824</ele>
        <time>2019-06-14T12:31:02Z</time>
      </trkpt>
      <trkpt lat="60.39923" lon="11.23519">
        <ele>177.60000610352</ele>
        <time>2019-06-14T12:31:08Z</time>
      </trkpt>
      <trkpt lat="60.39973" lon="11.2363">
        <ele>177.80000305176</ele>
        <time>2019-06-14T12:31:14Z</time>
      </trkpt>
      <trkpt lat="60.40051" lon="11.23801">
        <ele>177.60000610352</ele>
        <time>2019-06-14T12:31:29Z</time>
      </trkpt>
      <trkpt lat="60.40078" lon="11.23868">
        <ele>178.39999389648</ele>
        <time>2019-06-14T12:31:44Z</time>
      </trkpt>
      <trkpt lat="60.40087" lon="11.23896">
        <ele>179.80000305176</ele>
        <time>2019-06-14T12:31:59Z</time>
      </trkpt>
      <trkpt lat="60.40094" lon="11.23941">
        <ele>180</ele>
        <time>2019-06-14T12:32:31Z</time>
      </trkpt>
      <trkpt lat="60.40069" lon="11.23929">
        <ele>180.39999389648</ele>
        <time>2019-06-14T12:32:39Z</time>
      </trkpt>
      <trkpt lat="60.40041" lon="11.23861">
        <ele>178.60000610352</ele>
        <time>2019-06-14T12:32:47Z</time>
      </trkpt>
      <trkpt lat="60.40023" lon="11.23814">
        <ele>174</ele>
        <time>2019-06-14T12:32:59Z</time>
      </trkpt>
      <trkpt lat="60.40003" lon="11.23825">
        <ele>172.39999389648</ele>
        <time>2019-06-14T12:33:03Z</time>
      </trkpt>
      <trkpt lat="60.39937" lon="11.23919">
        <ele>170.39999389648</ele>
        <time>2019-06-14T12:33:13Z</time>
      </trkpt>
      <trkpt lat="60.39907" lon="11.2411">
        <ele>165.19999694824</ele>
        <time>2019-06-14T12:33:21Z</time>
      </trkpt>
      <trkpt lat="60.39894" lon="11.24259">
        <ele>163</ele>
        <time>2019-06-14T12:33:35Z</time>
      </trkpt>
      <trkpt lat="60.39841" lon="11.24359">
        <ele>162.80000305176</ele>
        <time>2019-06-14T12:56:42Z</time>
      </trkpt>
      <trkpt lat="60.3979" lon="11.24446">
        <ele>163.39999389648</ele>
        <time>2019-06-14T12:56:45Z</time>
      </trkpt>
      <trkpt lat="60.39752" lon="11.24513">
        <ele>164.19999694824</ele>
        <time>2019-06-14T12:57:02Z</time>
      </trkpt>
      <trkpt lat="60.3973" lon="11.24482">
        <ele>164.60000610352</ele>
        <time>2019-06-14T12:57:14Z</time>
      </trkpt>
      <trkpt lat="60.39697" lon="11.24466">
        <ele>161.60000610352</ele>
        <time>2019-06-14T12:57:19Z</time>
      </trkpt>
      <trkpt lat="60.39696" lon="11.2441">
        <ele>161.19999694824</ele>
        <time>2019-06-14T12:57:32Z</time>
      </trkpt>
      <trkpt lat="60.39737" lon="11.2452">
        <ele>134.80000305176</ele>
        <time>2019-06-14T12:57:47Z</time>
      </trkpt>
      <trkpt lat="60.39776" lon="11.24481">
        <ele>134.80000305176</ele>
        <time>2019-06-14T12:58:08Z</time>
      </trkpt>
      <trkpt lat="60.39827" lon="11.24396">
        <ele>134.60000610352</ele>
        <time>2019-06-14T12:58:21Z</time>
      </trkpt>
      <trkpt lat="60.39895" lon="11.24268">
        <ele>133.60000610352</ele>
        <time>2019-06-14T12:58:38Z</time>
      </trkpt>
      <trkpt lat="60.3991" lon="11.2422">
        <ele>133.39999389648</ele>
        <time>2019-06-14T12:58:53Z</time>
      </trkpt>
      <trkpt lat="60.39915" lon="11.24176">
        <ele>133.39999389648</ele>
        <time>2019-06-14T12:59:04Z</time>
      </trkpt>
      <trkpt lat="60.39914" lon="11.24092">
        <ele>133</ele>
        <time>2019-06-14T12:59:16Z</time>
      </trkpt>
      <trkpt lat="60.39916" lon="11.24055">
        <ele>133.80000305176</ele>
        <time>2019-06-14T12:59:28Z</time>
      </trkpt>
      <trkpt lat="60.39925" lon="11.23986">
        <ele>134.19999694824</ele>
        <time>2019-06-14T12:59:38Z</time>
      </trkpt>
      <trkpt lat="60.39931" lon="11.23964">
        <ele>135.39999389648</ele>
        <time>2019-06-14T12:59:52Z</time>
      </trkpt>
      <trkpt lat="60.39953" lon="11.23909">
        <ele>136.60000610352</ele>
        <time>2019-06-14T01:00:07Z</time>
      </trkpt>
      <trkpt lat="60.40008" lon="11.23841">
        <ele>141.80000305176</ele>
        <time>2019-06-14T01:00:21Z</time>
      </trkpt>
      <trkpt lat="60.40078" lon="11.23975">
        <ele>149.39999389648</ele>
        <time>2019-06-14T01:00:44Z</time>
      </trkpt>
      <trkpt lat="60.40114" lon="11.23962">
        <ele>152.19999694824</ele>
        <time>2019-06-14T01:01:03Z</time>
      </trkpt>
      <trkpt lat="60.4013" lon="11.2398">
        <ele>153.60000610352</ele>
        <time>2019-06-14T01:01:11Z</time>
      </trkpt>
      <trkpt lat="60.40197" lon="11.24093">
        <ele>158</ele>
        <time>2019-06-14T01:01:27Z</time>
      </trkpt>
      <trkpt lat="60.40209" lon="11.24139">
        <ele>158.39999389648</ele>
        <time>2019-06-14T01:01:42Z</time>
      </trkpt>
      <trkpt lat="60.40223" lon="11.24162">
        <ele>159</ele>
        <time>2019-06-14T01:02:03Z</time>
      </trkpt>
      <trkpt lat="60.40349" lon="11.24223">
        <ele>162.39999389648</ele>
        <time>2019-06-14T01:02:11Z</time>
      </trkpt>
      <trkpt lat="60.40402" lon="11.2424">
        <ele>164.60000610352</ele>
        <time>2019-06-14T01:02:15Z</time>
      </trkpt>
      <trkpt lat="60.40508" lon="11.24237">
        <ele>169.60000610352</ele>
        <time>2019-06-14T01:02:33Z</time>
      </trkpt>
      <trkpt lat="60.40561" lon="11.24216">
        <ele>173.19999694824</ele>
        <time>2019-06-14T01:02:38Z</time>
      </trkpt>
      <trkpt lat="60.40793" lon="11.24039">
        <ele>184.19999694824</ele>
        <time>2019-06-14T01:02:47Z</time>
      </trkpt>
      <trkpt lat="60.40868" lon="11.24039">
        <ele>186</ele>
        <time>2019-06-14T01:03:51Z</time>
      </trkpt>
      <trkpt lat="60.40964" lon="11.24096">
        <ele>187.19999694824</ele>
        <time>2019-06-14T01:04:05Z</time>
      </trkpt>
      <trkpt lat="60.40998" lon="11.24136">
        <ele>187.39999389648</ele>
        <time>2019-06-14T01:04:27Z</time>
      </trkpt>
      <trkpt lat="60.41009" lon="11.2415">
        <ele>187.60000610352</ele>
        <time>2019-06-14T01:04:36Z</time>
      </trkpt>
      <trkpt lat="60.4111" lon="11.24277">
        <ele>187.60000610352</ele>
        <time>2019-06-14T01:04:47Z</time>
      </trkpt>
      <trkpt lat="60.41171" lon="11.24328">
        <ele>186.80000305176</ele>
        <time>2019-06-14T01:05:03Z</time>
      </trkpt>
      <trkpt lat="60.41237" lon="11.24348">
        <ele>184.39999389648</ele>
        <time>2019-06-14T01:05:14Z</time>
      </trkpt>
      <trkpt lat="60.41272" lon="11.2435">
        <ele>179.19999694824</ele>
        <time>2019-06-14T01:05:30Z</time>
      </trkpt>
      <trkpt lat="60.41308" lon="11.24345">
        <ele>179.19999694824</ele>
        <time>2019-06-14T01:05:51Z</time>
      </trkpt>
      <trkpt lat="60.41391" lon="11.24296">
        <ele>178.39999389648</ele>
        <time>2019-06-14T01:06:05Z</time>
      </trkpt>
      <trkpt lat="60.4144" lon="11.24257">
        <ele>177.19999694824</ele>
        <time>2019-06-14T01:06:28Z</time>
      </trkpt>
      <trkpt lat="60.41532" lon="11.24213">
        <ele>173.60000610352</ele>
        <time>2019-06-14T01:06:35Z</time>
      </trkpt>
      <trkpt lat="60.41711" lon="11.24175">
        <ele>167</ele>
        <time>2019-06-14T01:06:48Z</time>
      </trkpt>
      <trkpt lat="60.41785" lon="11.24166">
        <ele>161</ele>
        <time>2019-06-14T01:07:14Z</time>
      </trkpt>
      <trkpt lat="60.41812" lon="11.24077">
        <ele>155</ele>
        <time>2019-06-14T01:07:25Z</time>
      </trkpt>
      <trkpt lat="60.41817" lon="11.24047">
        <ele>151</ele>
        <time>2019-06-14T01:07:52Z</time>
      </trkpt>
      <trkpt lat="60.41835" lon="11.2404">
        <ele>150.19999694824</ele>
        <time>2019-06-14T01:08:02Z</time>
      </trkpt>
      <trkpt lat="60.41949" lon="11.24021">
        <ele>149.80000305176</ele>
        <time>2019-06-14T01:08:25Z</time>
      </trkpt>
      <trkpt lat="60.42059" lon="11.24004">
        <ele>148.19999694824</ele>
        <time>2019-06-14T01:08:54Z</time>
      </trkpt>
      <trkpt lat="60.42079" lon="11.24">
        <ele>147.39999389648</ele>
        <time>2019-06-14T01:09:07Z</time>
      </trkpt>
      <trkpt lat="60.42082" lon="11.23928">
        <ele>144.39999389648</ele>
        <time>2019-06-14T01:09:20Z</time>
      </trkpt>
      <trkpt lat="60.42083" lon="11.23893">
        <ele>144.19999694824</ele>
        <time>2019-06-14T01:09:37Z</time>
      </trkpt>
      <trkpt lat="60.42099" lon="11.23861">
        <ele>143.60000610352</ele>
        <time>2019-06-14T01:09:48Z</time>
      </trkpt>
      <trkpt lat="60.42145" lon="11.23874">
        <ele>142.19999694824</ele>
        <time>2019-06-14T01:10:11Z</time>
      </trkpt>
      <trkpt lat="60.42174" lon="11.23807">
        <ele>138.80000305176</ele>
        <time>2019-06-14T01:10:19Z</time>
      </trkpt>
      <trkpt lat="60.42193" lon="11.23791">
        <ele>136</ele>
        <time>2019-06-14T01:10:27Z</time>
      </trkpt>
      <trkpt lat="60.42227" lon="11.23791">
        <ele>134.80000305176</ele>
        <time>2019-06-14T01:10:37Z</time>
      </trkpt>
      <trkpt lat="60.42295" lon="11.23795">
        <ele>134.39999389648</ele>
        <time>2019-06-14T01:10:50Z</time>
      </trkpt>
      <trkpt lat="60.42428" lon="11.23838">
        <ele>134.60000610352</ele>
        <time>2019-06-14T01:11:09Z</time>
      </trkpt>
      <trkpt lat="60.42523" lon="11.23875">
        <ele>134.60000610352</ele>
        <time>2019-06-14T01:11:26Z</time>
      </trkpt>
      <trkpt lat="60.42577" lon="11.2391">
        <ele>133</ele>
        <time>2019-06-14T01:11:43Z</time>
      </trkpt>
      <trkpt lat="60.42647" lon="11.23913">
        <ele>130.19999694824</ele>
        <time>2019-06-14T01:12:03Z</time>
      </trkpt>
      <trkpt lat="60.42692" lon="11.23912">
        <ele>129.60000610352</ele>
        <time>2019-06-14T01:12:17Z</time>
      </trkpt>
      <trkpt lat="60.42775" lon="11.23908">
        <ele>129.39999389648</ele>
        <time>2019-06-14T01:12:28Z</time>
      </trkpt>
      <trkpt lat="60.42837" lon="11.23915">
        <ele>130.19999694824</ele>
        <time>2019-06-14T01:12:55Z</time>
      </trkpt>
      <trkpt lat="60.42908" lon="11.23916">
        <ele>134.60000610352</ele>
        <time>2019-06-14T01:13:16Z</time>
      </trkpt>
      <trkpt lat="60.42985" lon="11.23916">
        <ele>134.80000305176</ele>
        <time>2019-06-14T01:13:30Z</time>
      </trkpt>
      <trkpt lat="60.43103" lon="11.23911">
        <ele>134.60000610352</ele>
        <time>2019-06-14T01:13:52Z</time>
      </trkpt>
      <trkpt lat="60.43174" lon="11.23907">
        <ele>134.80000305176</ele>
        <time>2019-06-14T01:14:01Z</time>
      </trkpt>
      <trkpt lat="60.43352" lon="11.23892">
        <ele>134.39999389648</ele>
        <time>2019-06-14T01:14:17Z</time>
      </trkpt>
      <trkpt lat="60.43481" lon="11.23773">
        <ele>133.60000610352</ele>
        <time>2019-06-14T01:14:25Z</time>
      </trkpt>
      <trkpt lat="60.43489" lon="11.23772">
        <ele>133.80000305176</ele>
        <time>2019-06-14T01:14:39Z</time>
      </trkpt>
      <trkpt lat="60.43515" lon="11.23762">
        <ele>133.19999694824</ele>
        <time>2019-06-14T01:14:47Z</time>
      </trkpt>
      <trkpt lat="60.43642" lon="11.23735">
        <ele>133.80000305176</ele>
        <time>2019-06-14T01:14:56Z</time>
      </trkpt>
      <trkpt lat="60.43662" lon="11.23746">
        <ele>133.80000305176</ele>
        <time>2019-06-14T01:15:15Z</time>
      </trkpt>
      <trkpt lat="60.43722" lon="11.23772">
        <ele>134</ele>
        <time>2019-06-14T01:15:35Z</time>
      </trkpt>
      <trkpt lat="60.43773" lon="11.23835">
        <ele>134</ele>
        <time>2019-06-14T01:15:45Z</time>
      </trkpt>
      <trkpt lat="60.43797" lon="11.23866">
        <ele>134.19999694824</ele>
        <time>2019-06-14T01:15:53Z</time>
      </trkpt>
      <trkpt lat="60.43895" lon="11.23992">
        <ele>134.60000610352</ele>
        <time>2019-06-14T01:16:01Z</time>
      </trkpt>
      <trkpt lat="60.43961" lon="11.24049">
        <ele>135</ele>
        <time>2019-06-14T01:16:08Z</time>
      </trkpt>
      <trkpt lat="60.44022" lon="11.24087">
        <ele>134.19999694824</ele>
        <time>2019-06-14T01:16:20Z</time>
      </trkpt>
      <trkpt lat="60.44128" lon="11.24103">
        <ele>134.19999694824</ele>
        <time>2019-06-14T01:16:32Z</time>
      </trkpt>
      <trkpt lat="60.442" lon="11.24102">
        <ele>134.60000610352</ele>
        <time>2019-06-14T01:16:47Z</time>
      </trkpt>
      <trkpt lat="60.44329" lon="11.24096">
        <ele>134.80000305176</ele>
        <time>2019-06-14T01:17:05Z</time>
      </trkpt>
      <trkpt lat="60.44493" lon="11.2409">
        <ele>134.80000305176</ele>
        <time>2019-06-14T01:17:15Z</time>
      </trkpt>
      <trkpt lat="60.44619" lon="11.24094">
        <ele>134.39999389648</ele>
        <time>2019-06-14T01:17:28Z</time>
      </trkpt>
      <trkpt lat="60.44913" lon="11.24161">
        <ele>134.39999389648</ele>
        <time>2019-06-14T01:17:36Z</time>
      </trkpt>
      <trkpt lat="60.44986" lon="11.24149">
        <ele>134</ele>
        <time>2019-06-14T01:17:50Z</time>
      </trkpt>
      <trkpt lat="60.45087" lon="11.24069">
        <ele>134</ele>
        <time>2019-06-14T01:18:00Z</time>
      </trkpt>
      <trkpt lat="60.45167" lon="11.23979">
        <ele>134.39999389648</ele>
        <time>2019-06-14T01:18:08Z</time>
      </trkpt>
      <trkpt lat="60.45318" lon="11.23902">
        <ele>134.80000305176</ele>
        <time>2019-06-14T01:18:17Z</time>
      </trkpt>
      <trkpt lat="60.4548" lon="11.23871">
        <ele>134.39999389648</ele>
        <time>2019-06-14T01:18:31Z</time>
      </trkpt>
      <trkpt lat="60.45662" lon="11.23837">
        <ele>134.80000305176</ele>
        <time>2019-06-14T01:18:38Z</time>
      </trkpt>
      <trkpt lat="60.45848" lon="11.23822">
        <ele>135.39999389648</ele>
        <time>2019-06-14T01:18:52Z</time>
      </trkpt>
      <trkpt lat="60.45927" lon="11.2386">
        <ele>134.60000610352</ele>
        <time>2019-06-14T01:19:00Z</time>
      </trkpt>
      <trkpt lat="60.46039" lon="11.23992">
        <ele>134.80000305176</ele>
        <time>2019-06-14T01:19:09Z</time>
      </trkpt>
      <trkpt lat="60.4612" lon="11.24089">
        <ele>135</ele>
        <time>2019-06-14T01:19:15Z</time>
      </trkpt>
      <trkpt lat="60.4621" lon="11.24147">
        <ele>135.19999694824</ele>
        <time>2019-06-14T01:19:23Z</time>
      </trkpt>
      <trkpt lat="60.46273" lon="11.24167">
        <ele>135</ele>
        <time>2019-06-14T01:19:36Z</time>
      </trkpt>
      <trkpt lat="60.46354" lon="11.24165">
        <ele>135.19999694824</ele>
        <time>2019-06-14T01:20:02Z</time>
      </trkpt>
      <trkpt lat="60.46456" lon="11.24116">
        <ele>134.80000305176</ele>
        <time>2019-06-14T01:20:13Z</time>
      </trkpt>
      <trkpt lat="60.46536" lon="11.24072">
        <ele>135</ele>
        <time>2019-06-14T01:22:14Z</time>
      </trkpt>
      <trkpt lat="60.46649" lon="11.2401">
        <ele>134.80000305176</ele>
        <time>2019-06-14T01:22:25Z</time>
      </trkpt>
      <trkpt lat="60.46724" lon="11.23975">
        <ele>135</ele>
        <time>2019-06-14T01:22:35Z</time>
      </trkpt>
      <trkpt lat="60.46806" lon="11.23955">
        <ele>135</ele>
        <time>2019-06-14T01:23:01Z</time>
      </trkpt>
      <trkpt lat="60.46937" lon="11.23954">
        <ele>134.39999389648</ele>
        <time>2019-06-14T01:23:17Z</time>
      </trkpt>
      <trkpt lat="60.47093" lon="11.23964">
        <ele>134.39999389648</ele>
        <time>2019-06-14T01:23:37Z</time>
      </trkpt>
      <trkpt lat="60.47179" lon="11.23967">
        <ele>134.19999694824</ele>
        <time>2019-06-14T01:23:58Z</time>
      </trkpt>
      <trkpt lat="60.47289" lon="11.23977">
        <ele>134.19999694824</ele>
        <time>2019-06-14T01:24:09Z</time>
      </trkpt>
      <trkpt lat="60.47369" lon="11.23982">
        <ele>134.80000305176</ele>
        <time>2019-06-14T01:24:33Z</time>
      </trkpt>
      <trkpt lat="60.47449" lon="11.23987">
        <ele>134.60000610352</ele>
        <time>2019-06-14T01:24:46Z</time>
      </trkpt>
      <trkpt lat="60.47582" lon="11.23973">
        <ele>134.60000610352</ele>
        <time>2019-06-14T01:25:01Z</time>
      </trkpt>
      <trkpt lat="60.47666" lon="11.23922">
        <ele>134.80000305176</ele>
        <time>2019-06-14T01:25:09Z</time>
      </trkpt>
      <trkpt lat="60.47765" lon="11.23843">
        <ele>134.80000305176</ele>
        <time>2019-06-14T01:25:22Z</time>
      </trkpt>
      <trkpt lat="60.47839" lon="11.23783">
        <ele>134.60000610352</ele>
        <time>2019-06-14T01:25:31Z</time>
      </trkpt>
      <trkpt lat="60.48122" lon="11.23628">
        <ele>134.60000610352</ele>
        <time>2019-06-14T01:25:38Z</time>
      </trkpt>
      <trkpt lat="60.48217" lon="11.23616">
        <ele>136.80000305176</ele>
        <time>2019-06-14T01:25:49Z</time>
      </trkpt>
      <trkpt lat="60.48337" lon="11.23714">
        <ele>146</ele>
        <time>2019-06-14T01:26:13Z</time>
      </trkpt>
      <trkpt lat="60.48371" lon="11.23716">
        <ele>147.60000610352</ele>
        <time>2019-06-14T01:26:21Z</time>
      </trkpt>
      <trkpt lat="60.48458" lon="11.23621">
        <ele>146.19999694824</ele>
        <time>2019-06-14T01:26:29Z</time>
      </trkpt>
      <trkpt lat="60.4858" lon="11.23509">
        <ele>140.19999694824</ele>
        <time>2019-06-14T01:26:45Z</time>
      </trkpt>
      <trkpt lat="60.48616" lon="11.23486">
        <ele>139.39999389648</ele>
        <time>2019-06-14T01:27:03Z</time>
      </trkpt>
      <trkpt lat="60.48682" lon="11.23452">
        <ele>139</ele>
        <time>2019-06-14T01:27:19Z</time>
      </trkpt>
      <trkpt lat="60.48739" lon="11.23422">
        <ele>137.39999389648</ele>
        <time>2019-06-14T01:27:23Z</time>
      </trkpt>
      <trkpt lat="60.48761" lon="11.2341">
        <ele>135.80000305176</ele>
        <time>2019-06-14T01:27:34Z</time>
      </trkpt>
      <trkpt lat="60.48839" lon="11.23363">
        <ele>134.80000305176</ele>
        <time>2019-06-14T01:27:47Z</time>
      </trkpt>
      <trkpt lat="60.48905" lon="11.23333">
        <ele>134.80000305176</ele>
        <time>2019-06-14T01:27:56Z</time>
      </trkpt>
      <trkpt lat="60.48996" lon="11.23305">
        <ele>135</ele>
        <time>2019-06-14T01:28:10Z</time>
      </trkpt>
      <trkpt lat="60.49214" lon="11.23271">
        <ele>135</ele>
        <time>2019-06-14T01:28:25Z</time>
      </trkpt>
      <trkpt lat="60.49318" lon="11.23224">
        <ele>134.60000610352</ele>
        <time>2019-06-14T01:28:31Z</time>
      </trkpt>
      <trkpt lat="60.49375" lon="11.23207">
        <ele>134.80000305176</ele>
        <time>2019-06-14T01:28:40Z</time>
      </trkpt>
      <trkpt lat="60.49469" lon="11.23198">
        <ele>134.80000305176</ele>
        <time>2019-06-14T01:28:44Z</time>
      </trkpt>
      <trkpt lat="60.49602" lon="11.23217">
        <ele>135.80000305176</ele>
        <time>2019-06-14T01:28:51Z</time>
      </trkpt>
      <trkpt lat="60.49692" lon="11.23252">
        <ele>135</ele>
        <time>2019-06-14T01:29:00Z</time>
      </trkpt>
      <trkpt lat="60.49772" lon="11.23294">
        <ele>135.19999694824</ele>
        <time>2019-06-14T01:29:05Z</time>
      </trkpt>
      <trkpt lat="60.49872" lon="11.23355">
        <ele>135</ele>
        <time>2019-06-14T01:29:12Z</time>
      </trkpt>
      <trkpt lat="60.49963" lon="11.23451">
        <ele>135</ele>
        <time>2019-06-14T01:29:24Z</time>
      </trkpt>
      <trkpt lat="60.50035" lon="11.23533">
        <ele>134.60000610352</ele>
        <time>2019-06-14T01:29:34Z</time>
      </trkpt>
      <trkpt lat="60.50037" lon="11.23535">
        <ele>134.19999694824</ele>
        <time>2019-06-14T01:29:51Z</time>
      </trkpt>
      <trkpt lat="60.50089" lon="11.23571">
        <ele>134.39999389648</ele>
        <time>2019-06-14T01:30:04Z</time>
      </trkpt>
      <trkpt lat="60.50168" lon="11.23564">
        <ele>133</ele>
        <time>2019-06-14T01:30:11Z</time>
      </trkpt>
      <trkpt lat="60.50188" lon="11.2352">
        <ele>131</ele>
        <time>2019-06-14T01:30:24Z</time>
      </trkpt>
      <trkpt lat="60.50197" lon="11.23527">
        <ele>130.19999694824</ele>
        <time>2019-06-14T01:30:33Z</time>
      </trkpt>
      <trkpt lat="60.50229" lon="11.23563">
        <ele>130</ele>
        <time>2019-06-14T01:30:42Z</time>
      </trkpt>
      <trkpt lat="60.50269" lon="11.23589">
        <ele>133.19999694824</ele>
        <time>2019-06-14T01:30:55Z</time>
      </trkpt>
      <trkpt lat="60.50327" lon="11.2362">
        <ele>134</ele>
        <time>2019-06-14T01:31:05Z</time>
      </trkpt>
      <trkpt lat="60.50419" lon="11.23734">
        <ele>134.39999389648</ele>
        <time>2019-06-14T01:31:20Z</time>
      </trkpt>
      <trkpt lat="60.50459" lon="11.23819">
        <ele>134.39999389648</ele>
        <time>2019-06-14T01:31:32Z</time>
      </trkpt>
      <trkpt lat="60.50463" lon="11.23825">
        <ele>134</ele>
        <time>2019-06-14T01:31:43Z</time>
      </trkpt>
      <trkpt lat="60.50518" lon="11.23891">
        <ele>133.19999694824</ele>
        <time>2019-06-14T01:32:00Z</time>
      </trkpt>
      <trkpt lat="60.5056" lon="11.2393">
        <ele>131.80000305176</ele>
        <time>2019-06-14T01:32:05Z</time>
      </trkpt>
      <trkpt lat="60.50676" lon="11.24022">
        <ele>132</ele>
        <time>2019-06-14T01:32:11Z</time>
      </trkpt>
      <trkpt lat="60.50755" lon="11.24073">
        <ele>132.80000305176</ele>
        <time>2019-06-14T01:32:19Z</time>
      </trkpt>
      <trkpt lat="60.50793" lon="11.24095">
        <ele>132.80000305176</ele>
        <time>2019-06-14T01:32:42Z</time>
      </trkpt>
      <trkpt lat="60.50799" lon="11.24099">
        <ele>132.60000610352</ele>
        <time>2019-06-14T01:38:40Z</time>
      </trkpt>
      <trkpt lat="60.50846" lon="11.24121">
        <ele>133</ele>
        <time>2019-06-14T01:38:47Z</time>
      </trkpt>
      <trkpt lat="60.50894" lon="11.24142">
        <ele>134</ele>
        <time>2019-06-14T01:39:03Z</time>
      </trkpt>
      <trkpt lat="60.50971" lon="11.24169">
        <ele>134.80000305176</ele>
        <time>2019-06-14T01:39:19Z</time>
      </trkpt>
      <trkpt lat="60.5105" lon="11.24198">
        <ele>134.80000305176</ele>
        <time>2019-06-14T01:39:28Z</time>
      </trkpt>
      <trkpt lat="60.51175" lon="11.24223">
        <ele>135.19999694824</ele>
        <time>2019-06-14T01:39:45Z</time>
      </trkpt>
      <trkpt lat="60.51253" lon="11.24232">
        <ele>135.19999694824</ele>
        <time>2019-06-14T01:39:55Z</time>
      </trkpt>
      <trkpt lat="60.51318" lon="11.24229">
        <ele>135</ele>
        <time>2019-06-14T01:40:07Z</time>
      </trkpt>
      <trkpt lat="60.5136" lon="11.24218">
        <ele>134.39999389648</ele>
        <time>2019-06-14T01:40:21Z</time>
      </trkpt>
      <trkpt lat="60.51416" lon="11.24227">
        <ele>131.19999694824</ele>
        <time>2019-06-14T01:40:27Z</time>
      </trkpt>
      <trkpt lat="60.51529" lon="11.24222">
        <ele>135</ele>
        <time>2019-06-14T01:40:31Z</time>
      </trkpt>
      <trkpt lat="60.51555" lon="11.24218">
        <ele>135</ele>
        <time>2019-06-14T01:40:41Z</time>
      </trkpt>
      <trkpt lat="60.51633" lon="11.24202">
        <ele>135.19999694824</ele>
        <time>2019-06-14T01:40:47Z</time>
      </trkpt>
      <trkpt lat="60.51707" lon="11.24175">
        <ele>135</ele>
        <time>2019-06-14T01:41:11Z</time>
      </trkpt>
      <trkpt lat="60.51772" lon="11.24141">
        <ele>135.60000610352</ele>
        <time>2019-06-14T01:41:26Z</time>
      </trkpt>
      <trkpt lat="60.51816" lon="11.24121">
        <ele>136.80000305176</ele>
        <time>2019-06-14T01:41:32Z</time>
      </trkpt>
      <trkpt lat="60.5191" lon="11.24077">
        <ele>144.39999389648</ele>
        <time>2019-06-14T01:41:38Z</time>
      </trkpt>
      <trkpt lat="60.51913" lon="11.2408">
        <ele>143.80000305176</ele>
        <time>2019-06-14T01:41:42Z</time>
      </trkpt>
      <trkpt lat="60.51912" lon="11.24114">
        <ele>143.80000305176</ele>
        <time>2019-06-14T01:41:53Z</time>
      </trkpt>
      <trkpt lat="60.51919" lon="11.24194">
        <ele>145.39999389648</ele>
        <time>2019-06-14T01:42:16Z</time>
      </trkpt>
      <trkpt lat="60.52006" lon="11.2417">
        <ele>143.60000610352</ele>
        <time>2019-06-14T01:42:21Z</time>
      </trkpt>
      <trkpt lat="60.5204" lon="11.24167">
        <ele>142.39999389648</ele>
        <time>2019-06-14T01:42:39Z</time>
      </trkpt>
      <trkpt lat="60.52233" lon="11.2415">
        <ele>139.60000610352</ele>
        <time>2019-06-14T01:42:56Z</time>
      </trkpt>
      <trkpt lat="60.52314" lon="11.24172">
        <ele>137.60000610352</ele>
        <time>2019-06-14T01:43:12Z</time>
      </trkpt>
      <trkpt lat="60.52424" lon="11.24193">
        <ele>143.60000610352</ele>
        <time>2019-06-14T01:43:36Z</time>
      </trkpt>
      <trkpt lat="60.52463" lon="11.24204">
        <ele>143.39999389648</ele>
        <time>2019-06-14T01:43:43Z</time>
      </trkpt>
      <trkpt lat="60.52596" lon="11.24229">
        <ele>142</ele>
        <time>2019-06-14T01:43:54Z</time>
      </trkpt>
      <trkpt lat="60.52674" lon="11.24234">
        <ele>142</ele>
        <time>2019-06-14T01:44:14Z</time>
      </trkpt>
      <trkpt lat="60.52791" lon="11.24252">
        <ele>141</ele>
        <time>2019-06-14T01:44:31Z</time>
      </trkpt>
      <trkpt lat="60.52866" lon="11.24268">
        <ele>141.39999389648</ele>
        <time>2019-06-14T01:44:49Z</time>
      </trkpt>
      <trkpt lat="60.52929" lon="11.24274">
        <ele>144.60000610352</ele>
        <time>2019-06-14T01:44:52Z</time>
      </trkpt>
      <trkpt lat="60.52973" lon="11.24281">
        <ele>144.60000610352</ele>
        <time>2019-06-14T01:44:59Z</time>
      </trkpt>
      <trkpt lat="60.53103" lon="11.24292">
        <ele>141.60000610352</ele>
        <time>2019-06-14T01:45:13Z</time>
      </trkpt>
      <trkpt lat="60.53224" lon="11.24295">
        <ele>136.60000610352</ele>
        <time>2019-06-14T01:45:26Z</time>
      </trkpt>
      <trkpt lat="60.533" lon="11.24291">
        <ele>138</ele>
        <time>2019-06-14T01:46:17Z</time>
      </trkpt>
      <trkpt lat="60.53373" lon="11.24291">
        <ele>138.39999389648</ele>
        <time>2019-06-14T01:46:30Z</time>
      </trkpt>
      <trkpt lat="60.53441" lon="11.24292">
        <ele>139.39999389648</ele>
        <time>2019-06-14T01:46:38Z</time>
      </trkpt>
      <trkpt lat="60.53511" lon="11.243">
        <ele>139.39999389648</ele>
        <time>2019-06-14T01:46:43Z</time>
      </trkpt>
      <trkpt lat="60.53587" lon="11.24318">
        <ele>137.80000305176</ele>
        <time>2019-06-14T01:46:47Z</time>
      </trkpt>
      <trkpt lat="60.53623" lon="11.2432">
        <ele>135.39999389648</ele>
        <time>2019-06-14T01:46:52Z</time>
      </trkpt>
      <trkpt lat="60.53659" lon="11.24322">
        <ele>134.60000610352</ele>
        <time>2019-06-14T01:47:17Z</time>
      </trkpt>
      <trkpt lat="60.53796" lon="11.24375">
        <ele>141.39999389648</ele>
        <time>2019-06-14T01:47:26Z</time>
      </trkpt>
      <trkpt lat="60.53904" lon="11.24435">
        <ele>142.60000610352</ele>
        <time>2019-06-14T01:47:40Z</time>
      </trkpt>
      <trkpt lat="60.53927" lon="11.24449">
        <ele>143.80000305176</ele>
        <time>2019-06-14T01:47:53Z</time>
      </trkpt>
      <trkpt lat="60.53997" lon="11.24502">
        <ele>145.19999694824</ele>
        <time>2019-06-14T01:48:09Z</time>
      </trkpt>
      <trkpt lat="60.54062" lon="11.24549">
        <ele>145.60000610352</ele>
        <time>2019-06-14T01:48:31Z</time>
      </trkpt>
      <trkpt lat="60.54174" lon="11.24575">
        <ele>143.80000305176</ele>
        <time>2019-06-14T01:48:43Z</time>
      </trkpt>
      <trkpt lat="60.54276" lon="11.24615">
        <ele>144.80000305176</ele>
        <time>2019-06-14T01:48:54Z</time>
      </trkpt>
      <trkpt lat="60.54341" lon="11.24642">
        <ele>144.60000610352</ele>
        <time>2019-06-14T01:49:00Z</time>
      </trkpt>
      <trkpt lat="60.54526" lon="11.24684">
        <ele>137</ele>
        <time>2019-06-14T01:49:05Z</time>
      </trkpt>
      <trkpt lat="60.54585" lon="11.24693">
        <ele>137.19999694824</ele>
        <time>2019-06-14T01:49:22Z</time>
      </trkpt>
      <trkpt lat="60.54638" lon="11.247">
        <ele>139.19999694824</ele>
        <time>2019-06-14T01:49:30Z</time>
      </trkpt>
      <trkpt lat="60.54773" lon="11.24688">
        <ele>146.19999694824</ele>
        <time>2019-06-14T01:49:38Z</time>
      </trkpt>
      <trkpt lat="60.54776" lon="11.2469">
        <ele>146</ele>
        <time>2019-06-14T01:49:57Z</time>
      </trkpt>
      <trkpt lat="60.54795" lon="11.24691">
        <ele>146</ele>
        <time>2019-06-14T01:50:05Z</time>
      </trkpt>
      <trkpt lat="60.54901" lon="11.24688">
        <ele>146.39999389648</ele>
        <time>2019-06-14T01:50:22Z</time>
      </trkpt>
      <trkpt lat="60.5499" lon="11.24699">
        <ele>145.60000610352</ele>
        <time>2019-06-14T01:50:43Z</time>
      </trkpt>
      <trkpt lat="60.55131" lon="11.2475">
        <ele>142.39999389648</ele>
        <time>2019-06-14T01:50:48Z</time>
      </trkpt>
      <trkpt lat="60.55163" lon="11.24768">
        <ele>142.19999694824</ele>
        <time>2019-06-14T01:50:57Z</time>
      </trkpt>
      <trkpt lat="60.55209" lon="11.24797">
        <ele>141.39999389648</ele>
        <time>2019-06-14T01:51:12Z</time>
      </trkpt>
      <trkpt lat="60.55289" lon="11.24861">
        <ele>139.39999389648</ele>
        <time>2019-06-14T01:51:29Z</time>
      </trkpt>
      <trkpt lat="60.55369" lon="11.24924">
        <ele>138.80000305176</ele>
        <time>2019-06-14T01:51:51Z</time>
      </trkpt>
      <trkpt lat="60.55445" lon="11.24992">
        <ele>141.80000305176</ele>
        <time>2019-06-14T01:52:03Z</time>
      </trkpt>
      <trkpt lat="60.55534" lon="11.25048">
        <ele>142.60000610352</ele>
        <time>2019-06-14T01:52:16Z</time>
      </trkpt>
      <trkpt lat="60.55602" lon="11.25061">
        <ele>144.80000305176</ele>
        <time>2019-06-14T01:52:36Z</time>
      </trkpt>
      <trkpt lat="60.55724" lon="11.25043">
        <ele>146.80000305176</ele>
        <time>2019-06-14T01:52:45Z</time>
      </trkpt>
      <trkpt lat="60.55781" lon="11.25055">
        <ele>147</ele>
        <time>2019-06-14T01:53:03Z</time>
      </trkpt>
      <trkpt lat="60.55853" lon="11.251">
        <ele>147</ele>
        <time>2019-06-14T01:53:14Z</time>
      </trkpt>
      <trkpt lat="60.56" lon="11.25182">
        <ele>149.80000305176</ele>
        <time>2019-06-14T01:53:32Z</time>
      </trkpt>
      <trkpt lat="60.56067" lon="11.25219">
        <ele>149.60000610352</ele>
        <time>2019-06-14T01:53:48Z</time>
      </trkpt>
      <trkpt lat="60.5612" lon="11.25248">
        <ele>149.80000305176</ele>
        <time>2019-06-14T01:53:59Z</time>
      </trkpt>
      <trkpt lat="60.56153" lon="11.25266">
        <ele>150.19999694824</ele>
        <time>2019-06-14T01:54:07Z</time>
      </trkpt>
      <trkpt lat="60.56245" lon="11.25328">
        <ele>150.80000305176</ele>
        <time>2019-06-14T01:54:21Z</time>
      </trkpt>
      <trkpt lat="60.56354" lon="11.2536">
        <ele>150.60000610352</ele>
        <time>2019-06-14T01:54:26Z</time>
      </trkpt>
      <trkpt lat="60.56428" lon="11.25407">
        <ele>150</ele>
        <time>2019-06-14T01:54:38Z</time>
      </trkpt>
      <trkpt lat="60.56515" lon="11.25493">
        <ele>147.80000305176</ele>
        <time>2019-06-14T01:54:42Z</time>
      </trkpt>
      <trkpt lat="60.56588" lon="11.25557">
        <ele>145.19999694824</ele>
        <time>2019-06-14T01:54:47Z</time>
      </trkpt>
      <trkpt lat="60.56638" lon="11.25614">
        <ele>144.80000305176</ele>
        <time>2019-06-14T01:55:02Z</time>
      </trkpt>
      <trkpt lat="60.56668" lon="11.25679">
        <ele>148.39999389648</ele>
        <time>2019-06-14T01:55:07Z</time>
      </trkpt>
      <trkpt lat="60.56666" lon="11.25733">
        <ele>152</ele>
        <time>2019-06-14T01:55:10Z</time>
      </trkpt>
      <trkpt lat="60.56677" lon="11.25747">
        <ele>152</ele>
        <time>2019-06-14T01:55:36Z</time>
      </trkpt>
      <trkpt lat="60.56729" lon="11.25801">
        <ele>151.60000610352</ele>
        <time>2019-06-14T01:55:44Z</time>
      </trkpt>
      <trkpt lat="60.5676" lon="11.25819">
        <ele>150.60000610352</ele>
        <time>2019-06-14T01:56:01Z</time>
      </trkpt>
      <trkpt lat="60.56852" lon="11.25817">
        <ele>146.39999389648</ele>
        <time>2019-06-14T01:56:09Z</time>
      </trkpt>
      <trkpt lat="60.56924" lon="11.25885">
        <ele>142</ele>
        <time>2019-06-14T01:56:25Z</time>
      </trkpt>
      <trkpt lat="60.57009" lon="11.25985">
        <ele>141.80000305176</ele>
        <time>2019-06-14T01:56:44Z</time>
      </trkpt>
      <trkpt lat="60.57066" lon="11.26045">
        <ele>141.60000610352</ele>
        <time>2019-06-14T01:56:51Z</time>
      </trkpt>
      <trkpt lat="60.57222" lon="11.2621">
        <ele>138.60000610352</ele>
        <time>2019-06-14T01:57:07Z</time>
      </trkpt>
      <trkpt lat="60.57305" lon="11.26296">
        <ele>138.39999389648</ele>
        <time>2019-06-14T01:57:32Z</time>
      </trkpt>
      <trkpt lat="60.57422" lon="11.2641">
        <ele>140.39999389648</ele>
        <time>2019-06-14T01:57:39Z</time>
      </trkpt>
      <trkpt lat="60.5746" lon="11.26458">
        <ele>140.80000305176</ele>
        <time>2019-06-14T01:58:01Z</time>
      </trkpt>
      <trkpt lat="60.5766" lon="11.26658">
        <ele>137.60000610352</ele>
        <time>2019-06-14T01:58:11Z</time>
      </trkpt>
      <trkpt lat="60.57799" lon="11.26803">
        <ele>138.39999389648</ele>
        <time>2019-06-14T01:58:20Z</time>
      </trkpt>
      <trkpt lat="60.57932" lon="11.26933">
        <ele>141</ele>
        <time>2019-06-14T01:58:41Z</time>
      </trkpt>
      <trkpt lat="60.58017" lon="11.27015">
        <ele>139.19999694824</ele>
        <time>2019-06-14T01:58:55Z</time>
      </trkpt>
      <trkpt lat="60.58123" lon="11.2711">
        <ele>139.39999389648</ele>
        <time>2019-06-14T01:59:18Z</time>
      </trkpt>
      <trkpt lat="60.58166" lon="11.2716">
        <ele>139.80000305176</ele>
        <time>2019-06-14T01:59:25Z</time>
      </trkpt>
      <trkpt lat="60.58229" lon="11.27237">
        <ele>139.80000305176</ele>
        <time>2019-06-14T01:59:35Z</time>
      </trkpt>
      <trkpt lat="60.58253" lon="11.27286">
        <ele>141.39999389648</ele>
        <time>2019-06-14T02:00:05Z</time>
      </trkpt>
      <trkpt lat="60.58296" lon="11.274">
        <ele>142.19999694824</ele>
        <time>2019-06-14T02:00:26Z</time>
      </trkpt>
      <trkpt lat="60.58336" lon="11.27482">
        <ele>142.60000610352</ele>
        <time>2019-06-14T02:00:44Z</time>
      </trkpt>
      <trkpt lat="60.58421" lon="11.27647">
        <ele>142.60000610352</ele>
        <time>2019-06-14T02:00:59Z</time>
      </trkpt>
      <trkpt lat="60.58495" lon="11.27732">
        <ele>141.60000610352</ele>
        <time>2019-06-14T02:01:10Z</time>
      </trkpt>
      <trkpt lat="60.5859" lon="11.27835">
        <ele>143</ele>
        <time>2019-06-14T02:01:16Z</time>
      </trkpt>
      <trkpt lat="60.58647" lon="11.27931">
        <ele>142.80000305176</ele>
        <time>2019-06-14T02:01:23Z</time>
      </trkpt>
      <trkpt lat="60.58692" lon="11.27996">
        <ele>142.80000305176</ele>
        <time>2019-06-14T02:01:27Z</time>
      </trkpt>
      <trkpt lat="60.58835" lon="11.28171">
        <ele>145.39999389648</ele>
        <time>2019-06-14T02:01:43Z</time>
      </trkpt>
      <trkpt lat="60.58914" lon="11.28246">
        <ele>145</ele>
        <time>2019-06-14T02:01:57Z</time>
      </trkpt>
      <trkpt lat="60.59021" lon="11.28429">
        <ele>148.80000305176</ele>
        <time>2019-06-14T02:02:05Z</time>
      </trkpt>
      <trkpt lat="60.59073" lon="11.28522">
        <ele>151.39999389648</ele>
        <time>2019-06-14T02:02:18Z</time>
      </trkpt>
      <trkpt lat="60.59225" lon="11.28696">
        <ele>156.80000305176</ele>
        <time>2019-06-14T02:02:32Z</time>
      </trkpt>
      <trkpt lat="60.59286" lon="11.28794">
        <ele>158.60000610352</ele>
        <time>2019-06-14T02:02:47Z</time>
      </trkpt>
      <trkpt lat="60.59328" lon="11.28869">
        <ele>159.60000610352</ele>
        <time>2019-06-14T02:03:04Z</time>
      </trkpt>
      <trkpt lat="60.5935" lon="11.28905">
        <ele>159.80000305176</ele>
        <time>2019-06-14T02:03:22Z</time>
      </trkpt>
      <trkpt lat="60.59417" lon="11.29017">
        <ele>161.60000610352</ele>
        <time>2019-06-14T02:03:39Z</time>
      </trkpt>
      <trkpt lat="60.59483" lon="11.29124">
        <ele>160.80000305176</ele>
        <time>2019-06-14T02:03:52Z</time>
      </trkpt>
      <trkpt lat="60.5953" lon="11.29154">
        <ele>160</ele>
        <time>2019-06-14T02:04:00Z</time>
      </trkpt>
      <trkpt lat="60.59768" lon="11.29253">
        <ele>170.60000610352</ele>
        <time>2019-06-14T02:04:20Z</time>
      </trkpt>
      <trkpt lat="60.59787" lon="11.29272">
        <ele>171.19999694824</ele>
        <time>2019-06-14T02:04:31Z</time>
      </trkpt>
      <trkpt lat="60.59829" lon="11.29312">
        <ele>171.39999389648</ele>
        <time>2019-06-14T02:04:44Z</time>
      </trkpt>
      <trkpt lat="60.59914" lon="11.29333">
        <ele>170.19999694824</ele>
        <time>2019-06-14T02:04:51Z</time>
      </trkpt>
      <trkpt lat="60.6003" lon="11.2942">
        <ele>169.19999694824</ele>
        <time>2019-06-14T02:05:04Z</time>
      </trkpt>
      <trkpt lat="60.60063" lon="11.29464">
        <ele>168.60000610352</ele>
        <time>2019-06-14T02:05:26Z</time>
      </trkpt>
      <trkpt lat="60.60131" lon="11.29527">
        <ele>166.39999389648</ele>
        <time>2019-06-14T02:05:43Z</time>
      </trkpt>
      <trkpt lat="60.60232" lon="11.29502">
        <ele>162.19999694824</ele>
        <time>2019-06-14T02:05:58Z</time>
      </trkpt>
      <trkpt lat="60.60307" lon="11.294">
        <ele>157.39999389648</ele>
        <time>2019-06-14T02:06:13Z</time>
      </trkpt>
      <trkpt lat="60.60329" lon="11.29351">
        <ele>156.19999694824</ele>
        <time>2019-06-14T02:06:18Z</time>
      </trkpt>
      <trkpt lat="60.60352" lon="11.29278">
        <ele>156</ele>
        <time>2019-06-14T02:06:26Z</time>
      </trkpt>
      <trkpt lat="60.60399" lon="11.29048">
        <ele>161.39999389648</ele>
        <time>2019-06-14T02:06:30Z</time>
      </trkpt>
      <trkpt lat="60.60454" lon="11.28797">
        <ele>166.80000305176</ele>
        <time>2019-06-14T02:06:33Z</time>
      </trkpt>
      <trkpt lat="60.60476" lon="11.28725">
        <ele>168</ele>
        <time>2019-06-14T02:06:40Z</time>
      </trkpt>
      <trkpt lat="60.6056" lon="11.28543">
        <ele>166.39999389648</ele>
        <time>2019-06-14T02:06:43Z</time>
      </trkpt>
      <trkpt lat="60.60682" lon="11.28433">
        <ele>168</ele>
        <time>2019-06-14T02:06:49Z</time>
      </trkpt>
      <trkpt lat="60.60756" lon="11.28406">
        <ele>168.39999389648</ele>
        <time>2019-06-14T02:07:04Z</time>
      </trkpt>
      <trkpt lat="60.60846" lon="11.28372">
        <ele>168.60000610352</ele>
        <time>2019-06-14T02:07:11Z</time>
      </trkpt>
      <trkpt lat="60.60931" lon="11.2835">
        <ele>169</ele>
        <time>2019-06-14T02:07:36Z</time>
      </trkpt>
      <trkpt lat="60.6102" lon="11.28333">
        <ele>168.39999389648</ele>
        <time>2019-06-14T02:07:49Z</time>
      </trkpt>
      <trkpt lat="60.61074" lon="11.2832">
        <ele>167.39999389648</ele>
        <time>2019-06-14T02:07:59Z</time>
      </trkpt>
      <trkpt lat="60.61104" lon="11.28301">
        <ele>166.19999694824</ele>
        <time>2019-06-14T02:08:18Z</time>
      </trkpt>
      <trkpt lat="60.61135" lon="11.28256">
        <ele>166</ele>
        <time>2019-06-14T02:08:31Z</time>
      </trkpt>
      <trkpt lat="60.6117" lon="11.2813">
        <ele>166.80000305176</ele>
        <time>2019-06-14T02:09:58Z</time>
      </trkpt>
      <trkpt lat="60.6127" lon="11.27625">
        <ele>175.80000305176</ele>
        <time>2019-06-14T02:10:14Z</time>
      </trkpt>
      <trkpt lat="60.61331" lon="11.27506">
        <ele>175</ele>
        <time>2019-06-14T02:10:28Z</time>
      </trkpt>
      <trkpt lat="60.61386" lon="11.2743">
        <ele>174.80000305176</ele>
        <time>2019-06-14T02:10:42Z</time>
      </trkpt>
      <trkpt lat="60.61512" lon="11.27275">
        <ele>173.80000305176</ele>
        <time>2019-06-14T02:10:58Z</time>
      </trkpt>
      <trkpt lat="60.61574" lon="11.27229">
        <ele>175</ele>
        <time>2019-06-14T02:11:12Z</time>
      </trkpt>
      <trkpt lat="60.61614" lon="11.27213">
        <ele>177</ele>
        <time>2019-06-14T02:11:28Z</time>
      </trkpt>
      <trkpt lat="60.61622" lon="11.27193">
        <ele>176.80000305176</ele>
        <time>2019-06-14T02:11:38Z</time>
      </trkpt>
      <trkpt lat="60.61633" lon="11.27185">
        <ele>177</ele>
        <time>2019-06-14T02:16:57Z</time>
      </trkpt>
      <trkpt lat="60.61656" lon="11.27232">
        <ele>177.39999389648</ele>
        <time>2019-06-14T02:17:04Z</time>
      </trkpt>
      <trkpt lat="60.61741" lon="11.27288">
        <ele>177.80000305176</ele>
        <time>2019-06-14T02:17:13Z</time>
      </trkpt>
      <trkpt lat="60.61823" lon="11.27293">
        <ele>177</ele>
        <time>2019-06-14T02:17:41Z</time>
      </trkpt>
      <trkpt lat="60.61884" lon="11.27367">
        <ele>176.60000610352</ele>
        <time>2019-06-14T02:17:56Z</time>
      </trkpt>
      <trkpt lat="60.61914" lon="11.27504">
        <ele>176</ele>
        <time>2019-06-14T02:18:05Z</time>
      </trkpt>
      <trkpt lat="60.61913" lon="11.27578">
        <ele>176.39999389648</ele>
        <time>2019-06-14T02:18:22Z</time>
      </trkpt>
      <trkpt lat="60.61893" lon="11.27812">
        <ele>182.39999389648</ele>
        <time>2019-06-14T02:18:27Z</time>
      </trkpt>
      <trkpt lat="60.61888" lon="11.2786">
        <ele>182.39999389648</ele>
        <time>2019-06-14T02:18:33Z</time>
      </trkpt>
      <trkpt lat="60.61874" lon="11.28083">
        <ele>181</ele>
        <time>2019-06-14T02:18:37Z</time>
      </trkpt>
      <trkpt lat="60.61881" lon="11.28167">
        <ele>179.80000305176</ele>
        <time>2019-06-14T02:18:41Z</time>
      </trkpt>
      <trkpt lat="60.61911" lon="11.28295">
        <ele>177.39999389648</ele>
        <time>2019-06-14T02:18:48Z</time>
      </trkpt>
      <trkpt lat="60.61983" lon="11.28506">
        <ele>171.60000610352</ele>
        <time>2019-06-14T02:18:53Z</time>
      </trkpt>
      <trkpt lat="60.62018" lon="11.28613">
        <ele>170.60000610352</ele>
        <time>2019-06-14T02:19:03Z</time>
      </trkpt>
      <trkpt lat="60.62064" lon="11.28806">
        <ele>169.60000610352</ele>
        <time>2019-06-14T02:19:21Z</time>
      </trkpt>
      <trkpt lat="60.62087" lon="11.28892">
        <ele>168.80000305176</ele>
        <time>2019-06-14T02:19:33Z</time>
      </trkpt>
      <trkpt lat="60.6211" lon="11.28976">
        <ele>168.60000610352</ele>
        <time>2019-06-14T02:19:50Z</time>
      </trkpt>
      <trkpt lat="60.62162" lon="11.29102">
        <ele>170</ele>
        <time>2019-06-14T02:19:57Z</time>
      </trkpt>
      <trkpt lat="60.62209" lon="11.29219">
        <ele>173</ele>
        <time>2019-06-14T02:19:59Z</time>
      </trkpt>
      <trkpt lat="60.62234" lon="11.29285">
        <ele>173.80000305176</ele>
        <time>2019-06-14T02:20:13Z</time>
      </trkpt>
      <trkpt lat="60.62365" lon="11.29371">
        <ele>177</ele>
        <time>2019-06-14T02:20:22Z</time>
      </trkpt>
      <trkpt lat="60.62477" lon="11.29432">
        <ele>180.39999389648</ele>
        <time>2019-06-14T02:20:35Z</time>
      </trkpt>
      <trkpt lat="60.62589" lon="11.29476">
        <ele>183.39999389648</ele>
        <time>2019-06-14T02:20:55Z</time>
      </trkpt>
      <trkpt lat="60.62669" lon="11.29502">
        <ele>187.19999694824</ele>
        <time>2019-06-14T02:21:11Z</time>
      </trkpt>
      <trkpt lat="60.62796" lon="11.29489">
        <ele>194.19999694824</ele>
        <time>2019-06-14T02:21:27Z</time>
      </trkpt>
      <trkpt lat="60.62839" lon="11.29476">
        <ele>195.19999694824</ele>
        <time>2019-06-14T02:21:43Z</time>
      </trkpt>
      <trkpt lat="60.62955" lon="11.29453">
        <ele>196.39999389648</ele>
        <time>2019-06-14T02:21:59Z</time>
      </trkpt>
      <trkpt lat="60.63062" lon="11.29491">
        <ele>197.39999389648</ele>
        <time>2019-06-14T02:22:15Z</time>
      </trkpt>
      <trkpt lat="60.63157" lon="11.29598">
        <ele>198.60000610352</ele>
        <time>2019-06-14T02:22:27Z</time>
      </trkpt>
      <trkpt lat="60.63207" lon="11.29659">
        <ele>199</ele>
        <time>2019-06-14T02:22:44Z</time>
      </trkpt>
      <trkpt lat="60.63263" lon="11.29755">
        <ele>199.39999389648</ele>
        <time>2019-06-14T02:23:09Z</time>
      </trkpt>
      <trkpt lat="60.63286" lon="11.29841">
        <ele>199.80000305176</ele>
        <time>2019-06-14T02:23:23Z</time>
      </trkpt>
      <trkpt lat="60.63311" lon="11.29888">
        <ele>200.39999389648</ele>
        <time>2019-06-14T02:23:50Z</time>
      </trkpt>
      <trkpt lat="60.63339" lon="11.30121">
        <ele>200.39999389648</ele>
        <time>2019-06-14T02:24:01Z</time>
      </trkpt>
      <trkpt lat="60.63378" lon="11.30184">
        <ele>199.80000305176</ele>
        <time>2019-06-14T02:24:15Z</time>
      </trkpt>
      <trkpt lat="60.63388" lon="11.30203">
        <ele>199.80000305176</ele>
        <time>2019-06-14T02:24:28Z</time>
      </trkpt>
      <trkpt lat="60.63379" lon="11.30247">
        <ele>198.60000610352</ele>
        <time>2019-06-14T02:24:42Z</time>
      </trkpt>
      <trkpt lat="60.6336" lon="11.30282">
        <ele>198.39999389648</ele>
        <time>2019-06-14T02:24:57Z</time>
      </trkpt>
      <trkpt lat="60.63315" lon="11.30307">
        <ele>198.39999389648</ele>
        <time>2019-06-14T02:25:18Z</time>
      </trkpt>
      <trkpt lat="60.63298" lon="11.30226">
        <ele>198.19999694824</ele>
        <time>2019-06-14T02:25:33Z</time>
      </trkpt>
      <trkpt lat="60.63249" lon="11.30173">
        <ele>198.19999694824</ele>
        <time>2019-06-14T02:25:47Z</time>
      </trkpt>
      <trkpt lat="60.63226" lon="11.30181">
        <ele>198.39999389648</ele>
        <time>2019-06-14T02:25:53Z</time>
      </trkpt>
      <trkpt lat="60.63231" lon="11.30173">
        <ele>200.39999389648</ele>
        <time>2019-06-14T02:26:09Z</time>
      </trkpt>
      <trkpt lat="60.6329" lon="11.30207">
        <ele>199.60000610352</ele>
        <time>2019-06-14T02:26:24Z</time>
      </trkpt>
      <trkpt lat="60.63304" lon="11.30298">
        <ele>199.60000610352</ele>
        <time>2019-06-14T02:26:33Z</time>
      </trkpt>
      <trkpt lat="60.63365" lon="11.30274">
        <ele>199.60000610352</ele>
        <time>2019-06-14T02:26:49Z</time>
      </trkpt>
      <trkpt lat="60.63398" lon="11.30203">
        <ele>200</ele>
        <time>2019-06-14T02:27:03Z</time>
      </trkpt>
      <trkpt lat="60.63538" lon="11.30284">
        <ele>196.39999389648</ele>
        <time>2019-06-14T02:27:14Z</time>
      </trkpt>
      <trkpt lat="60.6365" lon="11.30337">
        <ele>191.60000610352</ele>
        <time>2019-06-14T02:27:34Z</time>
      </trkpt>
      <trkpt lat="60.63845" lon="11.30434">
        <ele>193.60000610352</ele>
        <time>2019-06-14T02:27:46Z</time>
      </trkpt>
      <trkpt lat="60.63867" lon="11.3044">
        <ele>194</ele>
        <time>2019-06-14T02:28:00Z</time>
      </trkpt>
      <trkpt lat="60.63914" lon="11.30441">
        <ele>194.19999694824</ele>
        <time>2019-06-14T02:28:09Z</time>
      </trkpt>
      <trkpt lat="60.63967" lon="11.30469">
        <ele>194</ele>
        <time>2019-06-14T02:29:15Z</time>
      </trkpt>
      <trkpt lat="60.64015" lon="11.30523">
        <ele>194.19999694824</ele>
        <time>2019-06-14T02:29:31Z</time>
      </trkpt>
      <trkpt lat="60.64079" lon="11.30536">
        <ele>194.39999389648</ele>
        <time>2019-06-14T02:29:38Z</time>
      </trkpt>
      <trkpt lat="60.6415" lon="11.30532">
        <ele>193</ele>
        <time>2019-06-14T02:29:50Z</time>
      </trkpt>
      <trkpt lat="60.64239" lon="11.30524">
        <ele>193.19999694824</ele>
        <time>2019-06-14T02:30:08Z</time>
      </trkpt>
      <trkpt lat="60.64334" lon="11.30519">
        <ele>193.80000305176</ele>
        <time>2019-06-14T02:30:27Z</time>
      </trkpt>
      <trkpt lat="60.64395" lon="11.30515">
        <ele>193</ele>
        <time>2019-06-14T02:30:40Z</time>
      </trkpt>
      <trkpt lat="60.64547" lon="11.30453">
        <ele>187.80000305176</ele>
        <time>2019-06-14T02:30:47Z</time>
      </trkpt>
      <trkpt lat="60.64622" lon="11.3042">
        <ele>186.39999389648</ele>
        <time>2019-06-14T02:30:51Z</time>
      </trkpt>
      <trkpt lat="60.6477" lon="11.30343">
        <ele>190.80000305176</ele>
        <time>2019-06-14T02:30:58Z</time>
      </trkpt>
      <trkpt lat="60.64827" lon="11.30326">
        <ele>190.60000610352</ele>
        <time>2019-06-14T02:31:05Z</time>
      </trkpt>
      <trkpt lat="60.65015" lon="11.30373">
        <ele>185</ele>
        <time>2019-06-14T02:31:10Z</time>
      </trkpt>
      <trkpt lat="60.6509" lon="11.30441">
        <ele>186.19999694824</ele>
        <time>2019-06-14T02:31:30Z</time>
      </trkpt>
      <trkpt lat="60.65127" lon="11.30461">
        <ele>188.39999389648</ele>
        <time>2019-06-14T02:31:46Z</time>
      </trkpt>
      <trkpt lat="60.65188" lon="11.30483">
        <ele>189.19999694824</ele>
        <time>2019-06-14T02:31:49Z</time>
      </trkpt>
      <trkpt lat="60.65299" lon="11.30502">
        <ele>187.60000610352</ele>
        <time>2019-06-14T02:32:01Z</time>
      </trkpt>
      <trkpt lat="60.65402" lon="11.30519">
        <ele>185.39999389648</ele>
        <time>2019-06-14T02:32:12Z</time>
      </trkpt>
      <trkpt lat="60.65507" lon="11.305">
        <ele>184</ele>
        <time>2019-06-14T02:32:26Z</time>
      </trkpt>
      <trkpt lat="60.6555" lon="11.30465">
        <ele>184.39999389648</ele>
        <time>2019-06-14T02:32:41Z</time>
      </trkpt>
      <trkpt lat="60.65591" lon="11.30441">
        <ele>186.39999389648</ele>
        <time>2019-06-14T02:32:49Z</time>
      </trkpt>
      <trkpt lat="60.65644" lon="11.30423">
        <ele>187.19999694824</ele>
        <time>2019-06-14T02:33:12Z</time>
      </trkpt>
      <trkpt lat="60.65695" lon="11.30407">
        <ele>188.39999389648</ele>
        <time>2019-06-14T02:33:21Z</time>
      </trkpt>
      <trkpt lat="60.65723" lon="11.30397">
        <ele>189.80000305176</ele>
        <time>2019-06-14T02:33:31Z</time>
      </trkpt>
      <trkpt lat="60.65772" lon="11.30384">
        <ele>190.60000610352</ele>
        <time>2019-06-14T02:33:45Z</time>
      </trkpt>
      <trkpt lat="60.65835" lon="11.30352">
        <ele>190.19999694824</ele>
        <time>2019-06-14T02:33:57Z</time>
      </trkpt>
      <trkpt lat="60.65857" lon="11.30331">
        <ele>190.19999694824</ele>
        <time>2019-06-14T02:34:19Z</time>
      </trkpt>
      <trkpt lat="60.65893" lon="11.30301">
        <ele>190.80000305176</ele>
        <time>2019-06-14T02:34:27Z</time>
      </trkpt>
      <trkpt lat="60.66001" lon="11.30308">
        <ele>188.80000305176</ele>
        <time>2019-06-14T02:34:35Z</time>
      </trkpt>
      <trkpt lat="60.66033" lon="11.30316">
        <ele>187.60000610352</ele>
        <time>2019-06-14T02:34:41Z</time>
      </trkpt>
      <trkpt lat="60.66078" lon="11.30336">
        <ele>187.39999389648</ele>
        <time>2019-06-14T02:34:45Z</time>
      </trkpt>
      <trkpt lat="60.66141" lon="11.30372">
        <ele>189</ele>
        <time>2019-06-14T02:34:51Z</time>
      </trkpt>
      <trkpt lat="60.66252" lon="11.30433">
        <ele>189.60000610352</ele>
        <time>2019-06-14T02:35:06Z</time>
      </trkpt>
      <trkpt lat="60.66322" lon="11.3044">
        <ele>189.60000610352</ele>
        <time>2019-06-14T02:35:14Z</time>
      </trkpt>
      <trkpt lat="60.6639" lon="11.30432">
        <ele>189.39999389648</ele>
        <time>2019-06-14T02:35:27Z</time>
      </trkpt>
      <trkpt lat="60.66501" lon="11.30381">
        <ele>191.19999694824</ele>
        <time>2019-06-14T02:35:39Z</time>
      </trkpt>
      <trkpt lat="60.66623" lon="11.30332">
        <ele>190.60000610352</ele>
        <time>2019-06-14T02:35:46Z</time>
      </trkpt>
      <trkpt lat="60.66755" lon="11.30277">
        <ele>188.60000610352</ele>
        <time>2019-06-14T02:35:55Z</time>
      </trkpt>
      <trkpt lat="60.66797" lon="11.30221">
        <ele>188.39999389648</ele>
        <time>2019-06-14T02:36:07Z</time>
      </trkpt>
      <trkpt lat="60.66862" lon="11.30121">
        <ele>187.19999694824</ele>
        <time>2019-06-14T02:36:18Z</time>
      </trkpt>
      <trkpt lat="60.66968" lon="11.29969">
        <ele>187.80000305176</ele>
        <time>2019-06-14T02:36:35Z</time>
      </trkpt>
      <trkpt lat="60.67018" lon="11.29904">
        <ele>188.80000305176</ele>
        <time>2019-06-14T02:36:45Z</time>
      </trkpt>
      <trkpt lat="60.67054" lon="11.29868">
        <ele>190</ele>
        <time>2019-06-14T02:37:01Z</time>
      </trkpt>
      <trkpt lat="60.67094" lon="11.29848">
        <ele>190.39999389648</ele>
        <time>2019-06-14T02:37:06Z</time>
      </trkpt>
      <trkpt lat="60.67177" lon="11.29873">
        <ele>189</ele>
        <time>2019-06-14T02:37:15Z</time>
      </trkpt>
      <trkpt lat="60.67241" lon="11.29854">
        <ele>187</ele>
        <time>2019-06-14T02:37:19Z</time>
      </trkpt>
      <trkpt lat="60.67338" lon="11.29775">
        <ele>185.60000610352</ele>
        <time>2019-06-14T02:37:22Z</time>
      </trkpt>
      <trkpt lat="60.6742" lon="11.29706">
        <ele>185.80000305176</ele>
        <time>2019-06-14T02:37:31Z</time>
      </trkpt>
      <trkpt lat="60.67512" lon="11.29627">
        <ele>186.60000610352</ele>
        <time>2019-06-14T02:37:38Z</time>
      </trkpt>
      <trkpt lat="60.67593" lon="11.29591">
        <ele>186</ele>
        <time>2019-06-14T02:37:44Z</time>
      </trkpt>
      <trkpt lat="60.67666" lon="11.29573">
        <ele>186.19999694824</ele>
        <time>2019-06-14T02:37:53Z</time>
      </trkpt>
      <trkpt lat="60.67787" lon="11.29453">
        <ele>187.39999389648</ele>
        <time>2019-06-14T02:38:07Z</time>
      </trkpt>
      <trkpt lat="60.67843" lon="11.29404">
        <ele>186.60000610352</ele>
        <time>2019-06-14T02:38:20Z</time>
      </trkpt>
      <trkpt lat="60.67879" lon="11.29392">
        <ele>185.80000305176</ele>
        <time>2019-06-14T02:38:27Z</time>
      </trkpt>
      <trkpt lat="60.67941" lon="11.29407">
        <ele>186.19999694824</ele>
        <time>2019-06-14T02:38:33Z</time>
      </trkpt>
      <trkpt lat="60.68095" lon="11.29435">
        <ele>187.80000305176</ele>
        <time>2019-06-14T02:38:39Z</time>
      </trkpt>
      <trkpt lat="60.68243" lon="11.29402">
        <ele>185.39999389648</ele>
        <time>2019-06-14T02:38:42Z</time>
      </trkpt>
      <trkpt lat="60.68389" lon="11.29363">
        <ele>184.80000305176</ele>
        <time>2019-06-14T02:38:45Z</time>
      </trkpt>
      <trkpt lat="60.68533" lon="11.29323">
        <ele>182.19999694824</ele>
        <time>2019-06-14T02:38:56Z</time>
      </trkpt>
      <trkpt lat="60.68594" lon="11.29306">
        <ele>183.60000610352</ele>
        <time>2019-06-14T02:39:04Z</time>
      </trkpt>
      <trkpt lat="60.68726" lon="11.29296">
        <ele>190.19999694824</ele>
        <time>2019-06-14T02:39:13Z</time>
      </trkpt>
      <trkpt lat="60.68812" lon="11.29273">
        <ele>191.19999694824</ele>
        <time>2019-06-14T02:39:25Z</time>
      </trkpt>
      <trkpt lat="60.68876" lon="11.29243">
        <ele>191</ele>
        <time>2019-06-14T02:39:31Z</time>
      </trkpt>
      <trkpt lat="60.68987" lon="11.29163">
        <ele>190.39999389648</ele>
        <time>2019-06-14T02:39:43Z</time>
      </trkpt>
      <trkpt lat="60.69069" lon="11.29117">
        <ele>190.19999694824</ele>
        <time>2019-06-14T02:39:51Z</time>
      </trkpt>
      <trkpt lat="60.69142" lon="11.29082">
        <ele>189.19999694824</ele>
        <time>2019-06-14T02:39:58Z</time>
      </trkpt>
      <trkpt lat="60.69225" lon="11.29041">
        <ele>188.80000305176</ele>
        <time>2019-06-14T02:40:22Z</time>
      </trkpt>
      <trkpt lat="60.69331" lon="11.29017">
        <ele>188.19999694824</ele>
        <time>2019-06-14T02:40:30Z</time>
      </trkpt>
      <trkpt lat="60.69398" lon="11.29037">
        <ele>189</ele>
        <time>2019-06-14T02:40:43Z</time>
      </trkpt>
      <trkpt lat="60.69605" lon="11.29058">
        <ele>187.19999694824</ele>
        <time>2019-06-14T02:40:57Z</time>
      </trkpt>
      <trkpt lat="60.69707" lon="11.29086">
        <ele>184.19999694824</ele>
        <time>2019-06-14T02:41:10Z</time>
      </trkpt>
      <trkpt lat="60.6973" lon="11.29095">
        <ele>184</ele>
        <time>2019-06-14T02:41:20Z</time>
      </trkpt>
      <trkpt lat="60.69839" lon="11.292">
        <ele>183.39999389648</ele>
        <time>2019-06-14T02:41:30Z</time>
      </trkpt>
      <trkpt lat="60.69851" lon="11.29212">
        <ele>183.39999389648</ele>
        <time>2019-06-14T02:41:42Z</time>
      </trkpt>
      <trkpt lat="60.69902" lon="11.29241">
        <ele>183</ele>
        <time>2019-06-14T02:41:58Z</time>
      </trkpt>
      <trkpt lat="60.69945" lon="11.2924">
        <ele>181.80000305176</ele>
        <time>2019-06-14T02:42:07Z</time>
      </trkpt>
      <trkpt lat="60.6998" lon="11.29229">
        <ele>181.39999389648</ele>
        <time>2019-06-14T02:42:15Z</time>
      </trkpt>
      <trkpt lat="60.70038" lon="11.29203">
        <ele>181.39999389648</ele>
        <time>2019-06-14T02:42:25Z</time>
      </trkpt>
      <trkpt lat="60.70107" lon="11.29181">
        <ele>181.60000610352</ele>
        <time>2019-06-14T02:42:31Z</time>
      </trkpt>
      <trkpt lat="60.70171" lon="11.29196">
        <ele>181</ele>
        <time>2019-06-14T02:42:46Z</time>
      </trkpt>
      <trkpt lat="60.70206" lon="11.29215">
        <ele>179.19999694824</ele>
        <time>2019-06-14T02:42:51Z</time>
      </trkpt>
      <trkpt lat="60.70277" lon="11.29242">
        <ele>179.19999694824</ele>
        <time>2019-06-14T02:44:38Z</time>
      </trkpt>
      <trkpt lat="60.70348" lon="11.29263">
        <ele>179.39999389648</ele>
        <time>2019-06-14T02:44:53Z</time>
      </trkpt>
      <trkpt lat="60.70431" lon="11.29287">
        <ele>180.60000610352</ele>
        <time>2019-06-14T02:45:07Z</time>
      </trkpt>
      <trkpt lat="60.70483" lon="11.29297">
        <ele>181.80000305176</ele>
        <time>2019-06-14T02:45:18Z</time>
      </trkpt>
      <trkpt lat="60.7052" lon="11.29287">
        <ele>181.80000305176</ele>
        <time>2019-06-14T02:45:24Z</time>
      </trkpt>
      <trkpt lat="60.70622" lon="11.29195">
        <ele>183.80000305176</ele>
        <time>2019-06-14T02:45:32Z</time>
      </trkpt>
      <trkpt lat="60.70651" lon="11.2917">
        <ele>185.19999694824</ele>
        <time>2019-06-14T02:45:45Z</time>
      </trkpt>
      <trkpt lat="60.70693" lon="11.29137">
        <ele>184</ele>
        <time>2019-06-14T02:45:58Z</time>
      </trkpt>
      <trkpt lat="60.70727" lon="11.29111">
        <ele>183.80000305176</ele>
        <time>2019-06-14T02:46:05Z</time>
      </trkpt>
      <trkpt lat="60.70758" lon="11.29097">
        <ele>183</ele>
        <time>2019-06-14T02:46:18Z</time>
      </trkpt>
      <trkpt lat="60.70775" lon="11.29095">
        <ele>181.80000305176</ele>
        <time>2019-06-14T02:46:33Z</time>
      </trkpt>
      <trkpt lat="60.70836" lon="11.29095">
        <ele>180.19999694824</ele>
        <time>2019-06-14T02:46:49Z</time>
      </trkpt>
      <trkpt lat="60.70852" lon="11.29092">
        <ele>180.19999694824</ele>
        <time>2019-06-14T02:46:58Z</time>
      </trkpt>
      <trkpt lat="60.70914" lon="11.29077">
        <ele>180.39999389648</ele>
        <time>2019-06-14T02:47:04Z</time>
      </trkpt>
      <trkpt lat="60.71055" lon="11.2904">
        <ele>181.80000305176</ele>
        <time>2019-06-14T02:47:26Z</time>
      </trkpt>
      <trkpt lat="60.71141" lon="11.29113">
        <ele>184.39999389648</ele>
        <time>2019-06-14T02:47:43Z</time>
      </trkpt>
      <trkpt lat="60.71178" lon="11.29019">
        <ele>184.80000305176</ele>
        <time>2019-06-14T02:47:49Z</time>
      </trkpt>
      <trkpt lat="60.71196" lon="11.28967">
        <ele>185.39999389648</ele>
        <time>2019-06-14T02:48:01Z</time>
      </trkpt>
      <trkpt lat="60.71239" lon="11.28839">
        <ele>185.60000610352</ele>
        <time>2019-06-14T02:48:12Z</time>
      </trkpt>
      <trkpt lat="60.71287" lon="11.28681">
        <ele>184.60000610352</ele>
        <time>2019-06-14T02:48:27Z</time>
      </trkpt>
      <trkpt lat="60.71315" lon="11.28601">
        <ele>184.39999389648</ele>
        <time>2019-06-14T02:48:39Z</time>
      </trkpt>
      <trkpt lat="60.7134" lon="11.28519">
        <ele>184.60000610352</ele>
        <time>2019-06-14T02:48:51Z</time>
      </trkpt>
      <trkpt lat="60.71378" lon="11.28341">
        <ele>184.39999389648</ele>
        <time>2019-06-14T02:49:03Z</time>
      </trkpt>
      <trkpt lat="60.71394" lon="11.28264">
        <ele>183.60000610352</ele>
        <time>2019-06-14T02:49:12Z</time>
      </trkpt>
      <trkpt lat="60.71424" lon="11.28161">
        <ele>183.19999694824</ele>
        <time>2019-06-14T02:49:25Z</time>
      </trkpt>
      <trkpt lat="60.7146" lon="11.28056">
        <ele>182.60000610352</ele>
        <time>2019-06-14T02:49:36Z</time>
      </trkpt>
      <trkpt lat="60.71519" lon="11.27939">
        <ele>182.60000610352</ele>
        <time>2019-06-14T02:49:50Z</time>
      </trkpt>
      <trkpt lat="60.71593" lon="11.27811">
        <ele>184.60000610352</ele>
        <time>2019-06-14T02:50:11Z</time>
      </trkpt>
      <trkpt lat="60.71628" lon="11.27747">
        <ele>184.80000305176</ele>
        <time>2019-06-14T02:50:29Z</time>
      </trkpt>
      <trkpt lat="60.71659" lon="11.2769">
        <ele>184.39999389648</ele>
        <time>2019-06-14T02:50:39Z</time>
      </trkpt>
      <trkpt lat="60.71712" lon="11.27613">
        <ele>182.60000610352</ele>
        <time>2019-06-14T02:50:46Z</time>
      </trkpt>
      <trkpt lat="60.71748" lon="11.27577">
        <ele>182</ele>
        <time>2019-06-14T02:50:51Z</time>
      </trkpt>
      <trkpt lat="60.7185" lon="11.27485">
        <ele>182.39999389648</ele>
        <time>2019-06-14T02:50:58Z</time>
      </trkpt>
      <trkpt lat="60.71901" lon="11.27393">
        <ele>182.19999694824</ele>
        <time>2019-06-14T02:51:05Z</time>
      </trkpt>
      <trkpt lat="60.71928" lon="11.27325">
        <ele>181.60000610352</ele>
        <time>2019-06-14T03:02:43Z</time>
      </trkpt>
      <trkpt lat="60.72012" lon="11.27132">
        <ele>182</ele>
        <time>2019-06-14T03:02:53Z</time>
      </trkpt>
      <trkpt lat="60.72048" lon="11.27087">
        <ele>182.80000305176</ele>
        <time>2019-06-14T03:02:59Z</time>
      </trkpt>
      <trkpt lat="60.72091" lon="11.2702">
        <ele>183</ele>
        <time>2019-06-14T03:03:08Z</time>
      </trkpt>
      <trkpt lat="60.72111" lon="11.26951">
        <ele>182.80000305176</ele>
        <time>2019-06-14T03:03:16Z</time>
      </trkpt>
      <trkpt lat="60.72141" lon="11.26875">
        <ele>182.19999694824</ele>
        <time>2019-06-14T03:03:19Z</time>
      </trkpt>
      <trkpt lat="60.72229" lon="11.26666">
        <ele>183.80000305176</ele>
        <time>2019-06-14T03:03:22Z</time>
      </trkpt>
      <trkpt lat="60.72241" lon="11.26652">
        <ele>183.80000305176</ele>
        <time>2019-06-14T03:03:42Z</time>
      </trkpt>
      <trkpt lat="60.72301" lon="11.26493">
        <ele>184.80000305176</ele>
        <time>2019-06-14T03:03:59Z</time>
      </trkpt>
      <trkpt lat="60.72314" lon="11.26424">
        <ele>186.19999694824</ele>
        <time>2019-06-14T03:04:08Z</time>
      </trkpt>
      <trkpt lat="60.72345" lon="11.26192">
        <ele>188</ele>
        <time>2019-06-14T03:04:18Z</time>
      </trkpt>
      <trkpt lat="60.72358" lon="11.26103">
        <ele>189</ele>
        <time>2019-06-14T03:04:36Z</time>
      </trkpt>
      <trkpt lat="60.72389" lon="11.25867">
        <ele>189.19999694824</ele>
        <time>2019-06-14T03:04:59Z</time>
      </trkpt>
      <trkpt lat="60.724" lon="11.25757">
        <ele>189.39999389648</ele>
        <time>2019-06-14T03:05:13Z</time>
      </trkpt>
      <trkpt lat="60.72401" lon="11.25732">
        <ele>189.60000610352</ele>
        <time>2019-06-14T03:05:15Z</time>
      </trkpt>
      <trkpt lat="60.72402" lon="11.25465">
        <ele>189.60000610352</ele>
        <time>2019-06-14T03:05:27Z</time>
      </trkpt>
      <trkpt lat="60.72403" lon="11.25223">
        <ele>193.19999694824</ele>
        <time>2019-06-14T03:05:34Z</time>
      </trkpt>
      <trkpt lat="60.72404" lon="11.2504">
        <ele>195.19999694824</ele>
        <time>2019-06-14T03:05:58Z</time>
      </trkpt>
      <trkpt lat="60.72411" lon="11.24843">
        <ele>198.39999389648</ele>
        <time>2019-06-14T03:06:13Z</time>
      </trkpt>
      <trkpt lat="60.72414" lon="11.24792">
        <ele>198.39999389648</ele>
        <time>2019-06-14T03:06:30Z</time>
      </trkpt>
      <trkpt lat="60.72423" lon="11.24662">
        <ele>199.39999389648</ele>
        <time>2019-06-14T03:06:44Z</time>
      </trkpt>
      <trkpt lat="60.72437" lon="11.24409">
        <ele>199.39999389648</ele>
        <time>2019-06-14T03:06:50Z</time>
      </trkpt>
      <trkpt lat="60.72442" lon="11.24328">
        <ele>200.19999694824</ele>
        <time>2019-06-14T03:07:03Z</time>
      </trkpt>
      <trkpt lat="60.72445" lon="11.24196">
        <ele>202.80000305176</ele>
        <time>2019-06-14T03:07:21Z</time>
      </trkpt>
      <trkpt lat="60.72415" lon="11.23836">
        <ele>202.39999389648</ele>
        <time>2019-06-14T03:07:27Z</time>
      </trkpt>
      <trkpt lat="60.72403" lon="11.23675">
        <ele>202.39999389648</ele>
        <time>2019-06-14T03:07:49Z</time>
      </trkpt>
      <trkpt lat="60.72397" lon="11.2358">
        <ele>204</ele>
        <time>2019-06-14T03:08:03Z</time>
      </trkpt>
      <trkpt lat="60.72401" lon="11.23549">
        <ele>205</ele>
        <time>2019-06-14T03:08:10Z</time>
      </trkpt>
      <trkpt lat="60.72413" lon="11.23537">
        <ele>206</ele>
        <time>2019-06-14T03:08:27Z</time>
      </trkpt>
      <trkpt lat="60.72465" lon="11.23502">
        <ele>206.60000610352</ele>
        <time>2019-06-14T03:08:37Z</time>
      </trkpt>
      <trkpt lat="60.72518" lon="11.23526">
        <ele>207</ele>
        <time>2019-06-14T03:08:50Z</time>
      </trkpt>
      <trkpt lat="60.72627" lon="11.23655">
        <ele>207.60000610352</ele>
        <time>2019-06-14T03:08:58Z</time>
      </trkpt>
      <trkpt lat="60.72644" lon="11.23674">
        <ele>208</ele>
        <time>2019-06-14T03:09:11Z</time>
      </trkpt>
      <trkpt lat="60.72692" lon="11.23732">
        <ele>207.60000610352</ele>
        <time>2019-06-14T03:09:31Z</time>
      </trkpt>
      <trkpt lat="60.72744" lon="11.23794">
        <ele>207.39999389648</ele>
        <time>2019-06-14T03:09:45Z</time>
      </trkpt>
      <trkpt lat="60.7284" lon="11.23904">
        <ele>207.19999694824</ele>
        <time>2019-06-14T03:09:57Z</time>
      </trkpt>
      <trkpt lat="60.72882" lon="11.23967">
        <ele>205.60000610352</ele>
        <time>2019-06-14T03:10:17Z</time>
      </trkpt>
      <trkpt lat="60.72886" lon="11.23979">
        <ele>204.60000610352</ele>
        <time>2019-06-14T03:10:25Z</time>
      </trkpt>
      <trkpt lat="60.72897" lon="11.24024">
        <ele>204.60000610352</ele>
        <time>2019-06-14T03:10:37Z</time>
      </trkpt>
      <trkpt lat="60.72918" lon="11.24106">
        <ele>203.39999389648</ele>
        <time>2019-06-14T03:10:44Z</time>
      </trkpt>
      <trkpt lat="60.72961" lon="11.24282">
        <ele>199.80000305176</ele>
        <time>2019-06-14T03:11:01Z</time>
      </trkpt>
      <trkpt lat="60.73009" lon="11.24469">
        <ele>199</ele>
        <time>2019-06-14T03:11:18Z</time>
      </trkpt>
      <trkpt lat="60.73047" lon="11.24614">
        <ele>198.80000305176</ele>
        <time>2019-06-14T03:11:34Z</time>
      </trkpt>
      <trkpt lat="60.7308" lon="11.24723">
        <ele>199</ele>
        <time>2019-06-14T03:11:51Z</time>
      </trkpt>
      <trkpt lat="60.73136" lon="11.24892">
        <ele>197</ele>
        <time>2019-06-14T03:12:14Z</time>
      </trkpt>
      <trkpt lat="60.73243" lon="11.25218">
        <ele>195.19999694824</ele>
        <time>2019-06-14T03:12:25Z</time>
      </trkpt>
      <trkpt lat="60.73329" lon="11.25529">
        <ele>190.19999694824</ele>
        <time>2019-06-14T03:12:31Z</time>
      </trkpt>
      <trkpt lat="60.73354" lon="11.25656">
        <ele>186.39999389648</ele>
        <time>2019-06-14T03:12:36Z</time>
      </trkpt>
      <trkpt lat="60.73359" lon="11.25709">
        <ele>183.80000305176</ele>
        <time>2019-06-14T03:12:42Z</time>
      </trkpt>
      <trkpt lat="60.73346" lon="11.25851">
        <ele>180.60000610352</ele>
        <time>2019-06-14T03:12:58Z</time>
      </trkpt>
      <trkpt lat="60.73342" lon="11.25919">
        <ele>180.39999389648</ele>
        <time>2019-06-14T03:13:08Z</time>
      </trkpt>
      <trkpt lat="60.73353" lon="11.26091">
        <ele>177.80000305176</ele>
        <time>2019-06-14T03:13:19Z</time>
      </trkpt>
      <trkpt lat="60.73335" lon="11.26143">
        <ele>175.60000610352</ele>
        <time>2019-06-14T03:13:35Z</time>
      </trkpt>
      <trkpt lat="60.73303" lon="11.26157">
        <ele>176.60000610352</ele>
        <time>2019-06-14T03:13:51Z</time>
      </trkpt>
      <trkpt lat="60.73262" lon="11.26203">
        <ele>176.60000610352</ele>
        <time>2019-06-14T03:14:10Z</time>
      </trkpt>
      <trkpt lat="60.73272" lon="11.26181">
        <ele>178.39999389648</ele>
        <time>2019-06-14T03:14:15Z</time>
      </trkpt>
      <trkpt lat="60.7336" lon="11.2614">
        <ele>178.39999389648</ele>
        <time>2019-06-14T03:14:21Z</time>
      </trkpt>
      <trkpt lat="60.73371" lon="11.26252">
        <ele>177.19999694824</ele>
        <time>2019-06-14T03:14:28Z</time>
      </trkpt>
      <trkpt lat="60.73378" lon="11.2631">
        <ele>175.60000610352</ele>
        <time>2019-06-14T03:14:44Z</time>
      </trkpt>
      <trkpt lat="60.73385" lon="11.26376">
        <ele>174.80000305176</ele>
        <time>2019-06-14T03:14:59Z</time>
      </trkpt>
      <trkpt lat="60.73399" lon="11.26495">
        <ele>175</ele>
        <time>2019-06-14T03:15:22Z</time>
      </trkpt>
      <trkpt lat="60.73412" lon="11.26569">
        <ele>175</ele>
        <time>2019-06-14T03:15:31Z</time>
      </trkpt>
      <trkpt lat="60.7343" lon="11.26639">
        <ele>174.80000305176</ele>
        <time>2019-06-14T03:15:46Z</time>
      </trkpt>
      <trkpt lat="60.73461" lon="11.26797">
        <ele>172.80000305176</ele>
        <time>2019-06-14T03:15:55Z</time>
      </trkpt>
      <trkpt lat="60.73467" lon="11.26988">
        <ele>169.39999389648</ele>
        <time>2019-06-14T03:15:59Z</time>
      </trkpt>
      <trkpt lat="60.73468" lon="11.27169">
        <ele>168.39999389648</ele>
        <time>2019-06-14T03:16:11Z</time>
      </trkpt>
      <trkpt lat="60.73471" lon="11.27364">
        <ele>168.19999694824</ele>
        <time>2019-06-14T03:16:26Z</time>
      </trkpt>
      <trkpt lat="60.7348" lon="11.27521">
        <ele>168</ele>
        <time>2019-06-14T03:16:41Z</time>
      </trkpt>
      <trkpt lat="60.73516" lon="11.27802">
        <ele>167.39999389648</ele>
        <time>2019-06-14T03:16:50Z</time>
      </trkpt>
      <trkpt lat="60.73524" lon="11.27882">
        <ele>168.60000610352</ele>
        <time>2019-06-14T03:16:57Z</time>
      </trkpt>
      <trkpt lat="60.7356" lon="11.28089">
        <ele>175</ele>
        <time>2019-06-14T03:17:03Z</time>
      </trkpt>
      <trkpt lat="60.73579" lon="11.28244">
        <ele>174.39999389648</ele>
        <time>2019-06-14T03:17:11Z</time>
      </trkpt>
      <trkpt lat="60.73592" lon="11.28365">
        <ele>174.19999694824</ele>
        <time>2019-06-14T03:17:27Z</time>
      </trkpt>
      <trkpt lat="60.73601" lon="11.28447">
        <ele>174.19999694824</ele>
        <time>2019-06-14T03:17:39Z</time>
      </trkpt>
      <trkpt lat="60.73653" lon="11.28821">
        <ele>183.60000610352</ele>
        <time>2019-06-14T03:18:25Z</time>
      </trkpt>
      <trkpt lat="60.73697" lon="11.29079">
        <ele>192.19999694824</ele>
        <time>2019-06-14T03:18:38Z</time>
      </trkpt>
      <trkpt lat="60.73702" lon="11.29113">
        <ele>192.19999694824</ele>
        <time>2019-06-14T03:18:58Z</time>
      </trkpt>
      <trkpt lat="60.73703" lon="11.29138">
        <ele>193.39999389648</ele>
        <time>2019-06-14T03:19:11Z</time>
      </trkpt>
      <trkpt lat="60.73772" lon="11.29131">
        <ele>195.19999694824</ele>
        <time>2019-06-14T03:19:23Z</time>
      </trkpt>
      <trkpt lat="60.73779" lon="11.29156">
        <ele>195.39999389648</ele>
        <time>2019-06-14T03:19:39Z</time>
      </trkpt>
      <trkpt lat="60.73797" lon="11.29158">
        <ele>195.39999389648</ele>
        <time>2019-06-14T03:19:57Z</time>
      </trkpt>
      <trkpt lat="60.73847" lon="11.29163">
        <ele>195.60000610352</ele>
        <time>2019-06-14T03:20:19Z</time>
      </trkpt>
      <trkpt lat="60.73935" lon="11.29164">
        <ele>193.60000610352</ele>
        <time>2019-06-14T03:20:27Z</time>
      </trkpt>
      <trkpt lat="60.74056" lon="11.29158">
        <ele>188.19999694824</ele>
        <time>2019-06-14T03:20:39Z</time>
      </trkpt>
      <trkpt lat="60.74104" lon="11.29134">
        <ele>185.60000610352</ele>
        <time>2019-06-14T03:20:53Z</time>
      </trkpt>
      <trkpt lat="60.7414" lon="11.29074">
        <ele>184.39999389648</ele>
        <time>2019-06-14T03:21:02Z</time>
      </trkpt>
      <trkpt lat="60.74192" lon="11.28959">
        <ele>184.60000610352</ele>
        <time>2019-06-14T03:21:22Z</time>
      </trkpt>
      <trkpt lat="60.74241" lon="11.28874">
        <ele>183.39999389648</ele>
        <time>2019-06-14T03:21:40Z</time>
      </trkpt>
      <trkpt lat="60.74281" lon="11.28816">
        <ele>181.19999694824</ele>
        <time>2019-06-14T03:21:48Z</time>
      </trkpt>
      <trkpt lat="60.74332" lon="11.28738">
        <ele>179.39999389648</ele>
        <time>2019-06-14T03:21:59Z</time>
      </trkpt>
      <trkpt lat="60.74388" lon="11.28654">
        <ele>181</ele>
        <time>2019-06-14T03:22:06Z</time>
      </trkpt>
      <trkpt lat="60.74433" lon="11.28648">
        <ele>181.80000305176</ele>
        <time>2019-06-14T03:22:20Z</time>
      </trkpt>
      <trkpt lat="60.74452" lon="11.28622">
        <ele>180.60000610352</ele>
        <time>2019-06-14T03:22:24Z</time>
      </trkpt>
      <trkpt lat="60.74435" lon="11.28565">
        <ele>179.19999694824</ele>
        <time>2019-06-14T03:22:28Z</time>
      </trkpt>
      <trkpt lat="60.74456" lon="11.28498">
        <ele>179</ele>
        <time>2019-06-14T03:24:29Z</time>
      </trkpt>
      <trkpt lat="60.74476" lon="11.28392">
        <ele>177.80000305176</ele>
        <time>2019-06-14T03:24:35Z</time>
      </trkpt>
      <trkpt lat="60.74474" lon="11.28008">
        <ele>171.80000305176</ele>
        <time>2019-06-14T03:24:42Z</time>
      </trkpt>
      <trkpt lat="60.74482" lon="11.27915">
        <ele>171.19999694824</ele>
        <time>2019-06-14T03:24:50Z</time>
      </trkpt>
      <trkpt lat="60.74534" lon="11.27705">
        <ele>170.60000610352</ele>
        <time>2019-06-14T03:24:55Z</time>
      </trkpt>
      <trkpt lat="60.74598" lon="11.27635">
        <ele>170.39999389648</ele>
        <time>2019-06-14T03:25:06Z</time>
      </trkpt>
      <trkpt lat="60.7471" lon="11.27538">
        <ele>170.80000305176</ele>
        <time>2019-06-14T03:25:15Z</time>
      </trkpt>
      <trkpt lat="60.74793" lon="11.27436">
        <ele>173.19999694824</ele>
        <time>2019-06-14T03:25:22Z</time>
      </trkpt>
      <trkpt lat="60.74872" lon="11.27237">
        <ele>171.39999389648</ele>
        <time>2019-06-14T03:25:35Z</time>
      </trkpt>
      <trkpt lat="60.74897" lon="11.27154">
        <ele>170.39999389648</ele>
        <time>2019-06-14T03:25:48Z</time>
      </trkpt>
      <trkpt lat="60.7492" lon="11.27038">
        <ele>171.19999694824</ele>
        <time>2019-06-14T03:25:58Z</time>
      </trkpt>
      <trkpt lat="60.74932" lon="11.26884">
        <ele>173.39999389648</ele>
        <time>2019-06-14T03:26:02Z</time>
      </trkpt>
      <trkpt lat="60.74965" lon="11.26768">
        <ele>172.60000610352</ele>
        <time>2019-06-14T03:26:08Z</time>
      </trkpt>
      <trkpt lat="60.75053" lon="11.26685">
        <ele>172.80000305176</ele>
        <time>2019-06-14T03:26:14Z</time>
      </trkpt>
      <trkpt lat="60.75121" lon="11.26636">
        <ele>172.80000305176</ele>
        <time>2019-06-14T03:26:26Z</time>
      </trkpt>
      <trkpt lat="60.75189" lon="11.26592">
        <ele>172</ele>
        <time>2019-06-14T03:26:39Z</time>
      </trkpt>
      <trkpt lat="60.75312" lon="11.26513">
        <ele>172.39999389648</ele>
        <time>2019-06-14T03:26:52Z</time>
      </trkpt>
      <trkpt lat="60.75394" lon="11.26494">
        <ele>173.39999389648</ele>
        <time>2019-06-14T03:27:08Z</time>
      </trkpt>
      <trkpt lat="60.75467" lon="11.26494">
        <ele>173.80000305176</ele>
        <time>2019-06-14T03:27:14Z</time>
      </trkpt>
      <trkpt lat="60.75523" lon="11.26526">
        <ele>174.80000305176</ele>
        <time>2019-06-14T03:27:24Z</time>
      </trkpt>
      <trkpt lat="60.75582" lon="11.26554">
        <ele>177.60000610352</ele>
        <time>2019-06-14T03:27:31Z</time>
      </trkpt>
      <trkpt lat="60.75605" lon="11.26547">
        <ele>178.19999694824</ele>
        <time>2019-06-14T03:27:39Z</time>
      </trkpt>
      <trkpt lat="60.75654" lon="11.26495">
        <ele>179.19999694824</ele>
        <time>2019-06-14T03:28:46Z</time>
      </trkpt>
      <trkpt lat="60.75669" lon="11.26459">
        <ele>179.19999694824</ele>
        <time>2019-06-14T03:28:58Z</time>
      </trkpt>
      <trkpt lat="60.75703" lon="11.26344">
        <ele>179</ele>
        <time>2019-06-14T03:29:21Z</time>
      </trkpt>
      <trkpt lat="60.75757" lon="11.26189">
        <ele>178.60000610352</ele>
        <time>2019-06-14T03:29:37Z</time>
      </trkpt>
      <trkpt lat="60.75823" lon="11.26143">
        <ele>178.19999694824</ele>
        <time>2019-06-14T03:29:54Z</time>
      </trkpt>
      <trkpt lat="60.75905" lon="11.26135">
        <ele>177.39999389648</ele>
        <time>2019-06-14T03:30:09Z</time>
      </trkpt>
      <trkpt lat="60.75977" lon="11.2618">
        <ele>175.80000305176</ele>
        <time>2019-06-14T03:30:16Z</time>
      </trkpt>
      <trkpt lat="60.76032" lon="11.26229">
        <ele>173.39999389648</ele>
        <time>2019-06-14T03:30:42Z</time>
      </trkpt>
      <trkpt lat="60.76106" lon="11.26293">
        <ele>173</ele>
        <time>2019-06-14T03:30:59Z</time>
      </trkpt>
      <trkpt lat="60.76176" lon="11.26353">
        <ele>174.39999389648</ele>
        <time>2019-06-14T03:31:09Z</time>
      </trkpt>
      <trkpt lat="60.76203" lon="11.26377">
        <ele>175.60000610352</ele>
        <time>2019-06-14T03:31:24Z</time>
      </trkpt>
      <trkpt lat="60.76254" lon="11.26405">
        <ele>180</ele>
        <time>2019-06-14T03:31:31Z</time>
      </trkpt>
      <trkpt lat="60.76319" lon="11.26406">
        <ele>181.80000305176</ele>
        <time>2019-06-14T03:33:24Z</time>
      </trkpt>
      <trkpt lat="60.7639" lon="11.26407">
        <ele>182.60000610352</ele>
        <time>2019-06-14T03:33:29Z</time>
      </trkpt>
      <trkpt lat="60.76493" lon="11.26425">
        <ele>182.39999389648</ele>
        <time>2019-06-14T03:33:44Z</time>
      </trkpt>
      <trkpt lat="60.7656" lon="11.26455">
        <ele>182.80000305176</ele>
        <time>2019-06-14T03:33:56Z</time>
      </trkpt>
      <trkpt lat="60.76634" lon="11.26496">
        <ele>183.60000610352</ele>
        <time>2019-06-14T03:34:06Z</time>
      </trkpt>
      <trkpt lat="60.76723" lon="11.26531">
        <ele>185</ele>
        <time>2019-06-14T03:34:13Z</time>
      </trkpt>
      <trkpt lat="60.76846" lon="11.26584">
        <ele>185.80000305176</ele>
        <time>2019-06-14T03:34:27Z</time>
      </trkpt>
      <trkpt lat="60.76938" lon="11.26608">
        <ele>186.19999694824</ele>
        <time>2019-06-14T03:34:32Z</time>
      </trkpt>
      <trkpt lat="60.76997" lon="11.26613">
        <ele>186.19999694824</ele>
        <time>2019-06-14T03:34:40Z</time>
      </trkpt>
      <trkpt lat="60.77022" lon="11.2661">
        <ele>186</ele>
        <time>2019-06-14T03:34:50Z</time>
      </trkpt>
      <trkpt lat="60.77156" lon="11.26625">
        <ele>185.80000305176</ele>
        <time>2019-06-14T03:35:07Z</time>
      </trkpt>
      <trkpt lat="60.77255" lon="11.26629">
        <ele>185.60000610352</ele>
        <time>2019-06-14T03:35:29Z</time>
      </trkpt>
      <trkpt lat="60.77343" lon="11.26638">
        <ele>185.80000305176</ele>
        <time>2019-06-14T03:35:43Z</time>
      </trkpt>
      <trkpt lat="60.77432" lon="11.26649">
        <ele>184.19999694824</ele>
        <time>2019-06-14T03:36:02Z</time>
      </trkpt>
      <trkpt lat="60.77498" lon="11.26694">
        <ele>183.80000305176</ele>
        <time>2019-06-14T03:36:21Z</time>
      </trkpt>
      <trkpt lat="60.77538" lon="11.26762">
        <ele>183.19999694824</ele>
        <time>2019-06-14T03:36:30Z</time>
      </trkpt>
      <trkpt lat="60.77578" lon="11.26831">
        <ele>183</ele>
        <time>2019-06-14T03:36:46Z</time>
      </trkpt>
      <trkpt lat="60.77644" lon="11.26915">
        <ele>183.60000610352</ele>
        <time>2019-06-14T03:36:55Z</time>
      </trkpt>
      <trkpt lat="60.77741" lon="11.26981">
        <ele>182.19999694824</ele>
        <time>2019-06-14T03:37:02Z</time>
      </trkpt>
      <trkpt lat="60.77848" lon="11.26991">
        <ele>180</ele>
        <time>2019-06-14T03:37:09Z</time>
      </trkpt>
      <trkpt lat="60.77903" lon="11.27025">
        <ele>178.80000305176</ele>
        <time>2019-06-14T03:37:12Z</time>
      </trkpt>
      <trkpt lat="60.77986" lon="11.27146">
        <ele>178.60000610352</ele>
        <time>2019-06-14T03:37:17Z</time>
      </trkpt>
      <trkpt lat="60.78066" lon="11.27276">
        <ele>178.80000305176</ele>
        <time>2019-06-14T03:37:27Z</time>
      </trkpt>
      <trkpt lat="60.7817" lon="11.27348">
        <ele>178.80000305176</ele>
        <time>2019-06-14T03:37:35Z</time>
      </trkpt>
      <trkpt lat="60.78243" lon="11.27342">
        <ele>179.60000610352</ele>
        <time>2019-06-14T03:37:49Z</time>
      </trkpt>
      <trkpt lat="60.78355" lon="11.27319">
        <ele>184.80000305176</ele>
        <time>2019-06-14T03:37:57Z</time>
      </trkpt>
      <trkpt lat="60.78421" lon="11.27307">
        <ele>185.60000610352</ele>
        <time>2019-06-14T03:38:06Z</time>
      </trkpt>
      <trkpt lat="60.78495" lon="11.27292">
        <ele>185.39999389648</ele>
        <time>2019-06-14T03:38:24Z</time>
      </trkpt>
      <trkpt lat="60.78574" lon="11.27278">
        <ele>184</ele>
        <time>2019-06-14T03:38:33Z</time>
      </trkpt>
      <trkpt lat="60.78653" lon="11.27262">
        <ele>184.19999694824</ele>
        <time>2019-06-14T03:38:43Z</time>
      </trkpt>
      <trkpt lat="60.78794" lon="11.27238">
        <ele>185</ele>
        <time>2019-06-14T03:38:58Z</time>
      </trkpt>
      <trkpt lat="60.78892" lon="11.27244">
        <ele>188.19999694824</ele>
        <time>2019-06-14T03:43:26Z</time>
      </trkpt>
      <trkpt lat="60.78945" lon="11.27269">
        <ele>189.39999389648</ele>
        <time>2019-06-14T03:43:47Z</time>
      </trkpt>
      <trkpt lat="60.79035" lon="11.27319">
        <ele>190</ele>
        <time>2019-06-14T03:43:59Z</time>
      </trkpt>
      <trkpt lat="60.79125" lon="11.27376">
        <ele>191</ele>
        <time>2019-06-14T03:44:18Z</time>
      </trkpt>
      <trkpt lat="60.79264" lon="11.27473">
        <ele>193.19999694824</ele>
        <time>2019-06-14T03:44:37Z</time>
      </trkpt>
      <trkpt lat="60.79359" lon="11.2754">
        <ele>197.39999389648</ele>
        <time>2019-06-14T03:44:44Z</time>
      </trkpt>
      <trkpt lat="60.79393" lon="11.27568">
        <ele>198.39999389648</ele>
        <time>2019-06-14T03:45:02Z</time>
      </trkpt>
      <trkpt lat="60.79428" lon="11.276">
        <ele>198.80000305176</ele>
        <time>2019-06-14T03:45:34Z</time>
      </trkpt>
      <trkpt lat="60.79485" lon="11.27667">
        <ele>198.60000610352</ele>
        <time>2019-06-14T03:45:44Z</time>
      </trkpt>
      <trkpt lat="60.79529" lon="11.27731">
        <ele>198.60000610352</ele>
        <time>2019-06-14T03:46:09Z</time>
      </trkpt>
      <trkpt lat="60.79558" lon="11.27715">
        <ele>199</ele>
        <time>2019-06-14T03:46:12Z</time>
      </trkpt>
      <trkpt lat="60.79567" lon="11.27726">
        <ele>199.39999389648</ele>
        <time>2019-06-14T03:46:19Z</time>
      </trkpt>
      <trkpt lat="60.79573" lon="11.27757">
        <ele>199.60000610352</ele>
        <time>2019-06-14T03:46:28Z</time>
      </trkpt>
      <trkpt lat="60.79582" lon="11.278">
        <ele>199.60000610352</ele>
        <time>2019-06-14T03:46:41Z</time>
      </trkpt>
      <trkpt lat="60.79598" lon="11.27855">
        <ele>199.80000305176</ele>
        <time>2019-06-14T03:46:52Z</time>
      </trkpt>
      <trkpt lat="60.79659" lon="11.27986">
        <ele>201.80000305176</ele>
        <time>2019-06-14T03:47:09Z</time>
      </trkpt>
      <trkpt lat="60.79686" lon="11.28041">
        <ele>203</ele>
        <time>2019-06-14T03:47:17Z</time>
      </trkpt>
      <trkpt lat="60.79733" lon="11.28146">
        <ele>204.19999694824</ele>
        <time>2019-06-14T03:47:37Z</time>
      </trkpt>
      <trkpt lat="60.79761" lon="11.28203">
        <ele>204.19999694824</ele>
        <time>2019-06-14T03:47:51Z</time>
      </trkpt>
      <trkpt lat="60.79818" lon="11.28323">
        <ele>204.80000305176</ele>
        <time>2019-06-14T03:48:10Z</time>
      </trkpt>
      <trkpt lat="60.79906" lon="11.28511">
        <ele>205.19999694824</ele>
        <time>2019-06-14T03:48:35Z</time>
      </trkpt>
      <trkpt lat="60.79996" lon="11.28703">
        <ele>205.80000305176</ele>
        <time>2019-06-14T03:48:47Z</time>
      </trkpt>
      <trkpt lat="60.80056" lon="11.2889">
        <ele>206.39999389648</ele>
        <time>2019-06-14T03:50:45Z</time>
      </trkpt>
      <trkpt lat="60.80064" lon="11.29033">
        <ele>207</ele>
        <time>2019-06-14T03:51:01Z</time>
      </trkpt>
      <trkpt lat="60.80053" lon="11.29121">
        <ele>207.60000610352</ele>
        <time>2019-06-14T03:51:05Z</time>
      </trkpt>
      <trkpt lat="60.80062" lon="11.29166">
        <ele>208.19999694824</ele>
        <time>2019-06-14T03:51:11Z</time>
      </trkpt>
      <trkpt lat="60.8009" lon="11.29171">
        <ele>208</ele>
        <time>2019-06-14T03:51:19Z</time>
      </trkpt>
      <trkpt lat="60.80185" lon="11.29206">
        <ele>208</ele>
        <time>2019-06-14T03:51:24Z</time>
      </trkpt>
      <trkpt lat="60.80247" lon="11.2923">
        <ele>210</ele>
        <time>2019-06-14T03:51:33Z</time>
      </trkpt>
      <trkpt lat="60.80333" lon="11.29297">
        <ele>210.39999389648</ele>
        <time>2019-06-14T03:51:39Z</time>
      </trkpt>
      <trkpt lat="60.80451" lon="11.29414">
        <ele>210.80000305176</ele>
        <time>2019-06-14T03:51:44Z</time>
      </trkpt>
      <trkpt lat="60.80519" lon="11.29512">
        <ele>212</ele>
        <time>2019-06-14T03:51:53Z</time>
      </trkpt>
      <trkpt lat="60.80554" lon="11.29567">
        <ele>212.39999389648</ele>
        <time>2019-06-14T03:52:05Z</time>
      </trkpt>
      <trkpt lat="60.80626" lon="11.29703">
        <ele>213.19999694824</ele>
        <time>2019-06-14T03:52:13Z</time>
      </trkpt>
      <trkpt lat="60.80671" lon="11.29803">
        <ele>213.60000610352</ele>
        <time>2019-06-14T03:52:18Z</time>
      </trkpt>
      <trkpt lat="60.80717" lon="11.29913">
        <ele>214.19999694824</ele>
        <time>2019-06-14T03:52:29Z</time>
      </trkpt>
      <trkpt lat="60.80769" lon="11.30042">
        <ele>215.39999389648</ele>
        <time>2019-06-14T03:52:45Z</time>
      </trkpt>
      <trkpt lat="60.80841" lon="11.30213">
        <ele>219.60000610352</ele>
        <time>2019-06-14T03:52:53Z</time>
      </trkpt>
      <trkpt lat="60.80874" lon="11.30297">
        <ele>222.19999694824</ele>
        <time>2019-06-14T03:53:17Z</time>
      </trkpt>
      <trkpt lat="60.80926" lon="11.30415">
        <ele>223.19999694824</ele>
        <time>2019-06-14T03:53:26Z</time>
      </trkpt>
      <trkpt lat="60.81" lon="11.30527">
        <ele>223.39999389648</ele>
        <time>2019-06-14T03:53:32Z</time>
      </trkpt>
      <trkpt lat="60.81035" lon="11.30554">
        <ele>223.39999389648</ele>
        <time>2019-06-14T03:53:39Z</time>
      </trkpt>
      <trkpt lat="60.8109" lon="11.30598">
        <ele>224</ele>
        <time>2019-06-14T03:53:45Z</time>
      </trkpt>
      <trkpt lat="60.81188" lon="11.30683">
        <ele>227.19999694824</ele>
        <time>2019-06-14T03:53:50Z</time>
      </trkpt>
      <trkpt lat="60.8126" lon="11.30748">
        <ele>227</ele>
        <time>2019-06-14T03:54:03Z</time>
      </trkpt>
      <trkpt lat="60.81337" lon="11.3084">
        <ele>225.19999694824</ele>
        <time>2019-06-14T03:54:16Z</time>
      </trkpt>
      <trkpt lat="60.81386" lon="11.30934">
        <ele>225.19999694824</ele>
        <time>2019-06-14T03:54:39Z</time>
      </trkpt>
      <trkpt lat="60.81428" lon="11.31043">
        <ele>228</ele>
        <time>2019-06-14T03:54:47Z</time>
      </trkpt>
      <trkpt lat="60.81489" lon="11.31271">
        <ele>234.80000305176</ele>
        <time>2019-06-14T03:55:06Z</time>
      </trkpt>
      <trkpt lat="60.8157" lon="11.31569">
        <ele>239.19999694824</ele>
        <time>2019-06-14T03:55:11Z</time>
      </trkpt>
      <trkpt lat="60.81596" lon="11.3166">
        <ele>239.60000610352</ele>
        <time>2019-06-14T03:55:20Z</time>
      </trkpt>
      <trkpt lat="60.81628" lon="11.31778">
        <ele>241.19999694824</ele>
        <time>2019-06-14T03:55:25Z</time>
      </trkpt>
      <trkpt lat="60.81696" lon="11.31991">
        <ele>244.80000305176</ele>
        <time>2019-06-14T03:55:38Z</time>
      </trkpt>
      <trkpt lat="60.81729" lon="11.32075">
        <ele>244.80000305176</ele>
        <time>2019-06-14T03:55:54Z</time>
      </trkpt>
      <trkpt lat="60.81822" lon="11.32317">
        <ele>241</ele>
        <time>2019-06-14T03:56:15Z</time>
      </trkpt>
      <trkpt lat="60.81859" lon="11.324">
        <ele>240.60000610352</ele>
        <time>2019-06-14T03:56:30Z</time>
      </trkpt>
      <trkpt lat="60.8189" lon="11.32485">
        <ele>241.80000305176</ele>
        <time>2019-06-14T03:56:45Z</time>
      </trkpt>
      <trkpt lat="60.81959" lon="11.3267">
        <ele>243.60000610352</ele>
        <time>2019-06-14T03:56:58Z</time>
      </trkpt>
      <trkpt lat="60.81989" lon="11.32745">
        <ele>244.80000305176</ele>
        <time>2019-06-14T03:57:11Z</time>
      </trkpt>
      <trkpt lat="60.82052" lon="11.32912">
        <ele>248</ele>
        <time>2019-06-14T03:57:23Z</time>
      </trkpt>
      <trkpt lat="60.82058" lon="11.32923">
        <ele>249.39999389648</ele>
        <time>2019-06-14T03:57:32Z</time>
      </trkpt>
      <trkpt lat="60.82075" lon="11.32964">
        <ele>249.60000610352</ele>
        <time>2019-06-14T03:57:46Z</time>
      </trkpt>
      <trkpt lat="60.82096" lon="11.3302">
        <ele>250.60000610352</ele>
        <time>2019-06-14T03:58:04Z</time>
      </trkpt>
      <trkpt lat="60.82163" lon="11.3326">
        <ele>249.60000610352</ele>
        <time>2019-06-14T03:58:18Z</time>
      </trkpt>
      <trkpt lat="60.8218" lon="11.33325">
        <ele>249.19999694824</ele>
        <time>2019-06-14T03:58:35Z</time>
      </trkpt>
      <trkpt lat="60.82243" lon="11.33569">
        <ele>247.19999694824</ele>
        <time>2019-06-14T03:58:52Z</time>
      </trkpt>
      <trkpt lat="60.82234" lon="11.33605">
        <ele>247</ele>
        <time>2019-06-14T03:59:09Z</time>
      </trkpt>
      <trkpt lat="60.82193" lon="11.3369">
        <ele>246</ele>
        <time>2019-06-14T03:59:31Z</time>
      </trkpt>
      <trkpt lat="60.82178" lon="11.33725">
        <ele>245</ele>
        <time>2019-06-14T03:59:47Z</time>
      </trkpt>
      <trkpt lat="60.82155" lon="11.3377">
        <ele>244.80000305176</ele>
        <time>2019-06-14T04:00:04Z</time>
      </trkpt>
      <trkpt lat="60.82135" lon="11.3381">
        <ele>245.39999389648</ele>
        <time>2019-06-14T04:00:22Z</time>
      </trkpt>
      <trkpt lat="60.82096" lon="11.33897">
        <ele>245.80000305176</ele>
        <time>2019-06-14T04:00:39Z</time>
      </trkpt>
      <trkpt lat="60.82082" lon="11.33927">
        <ele>245.60000610352</ele>
        <time>2019-06-14T04:00:47Z</time>
      </trkpt>
      <trkpt lat="60.82088" lon="11.33979">
        <ele>245.60000610352</ele>
        <time>2019-06-14T04:00:58Z</time>
      </trkpt>
      <trkpt lat="60.82069" lon="11.33964">
        <ele>244.80000305176</ele>
        <time>2019-06-14T04:01:04Z</time>
      </trkpt>
      <trkpt lat="60.82126" lon="11.33959">
        <ele>245.60000610352</ele>
        <time>2019-06-14T04:01:24Z</time>
      </trkpt>
      <trkpt lat="60.82129" lon="11.34003">
        <ele>246.39999389648</ele>
        <time>2019-06-14T04:01:39Z</time>
      </trkpt>
      <trkpt lat="60.82127" lon="11.33977">
        <ele>246.60000610352</ele>
        <time>2019-06-14T04:01:51Z</time>
      </trkpt>
      <trkpt lat="60.82107" lon="11.33981">
        <ele>247</ele>
        <time>2019-06-14T04:02:45Z</time>
      </trkpt>
      <trkpt lat="60.82087" lon="11.33971">
        <ele>251</ele>
        <time>2019-06-14T04:02:55Z</time>
      </trkpt>
      <trkpt lat="60.8209" lon="11.33952">
        <ele>251</ele>
        <time>2019-06-14T04:03:03Z</time>
      </trkpt>
      <trkpt lat="60.82103" lon="11.33923">
        <ele>250.80000305176</ele>
        <time>2019-06-14T04:03:20Z</time>
      </trkpt>
      <trkpt lat="60.82146" lon="11.33826">
        <ele>251</ele>
        <time>2019-06-14T04:03:27Z</time>
      </trkpt>
      <trkpt lat="60.82177" lon="11.33753">
        <ele>250.60000610352</ele>
        <time>2019-06-14T04:03:39Z</time>
      </trkpt>
      <trkpt lat="60.82198" lon="11.33698">
        <ele>250</ele>
        <time>2019-06-14T04:03:53Z</time>
      </trkpt>
      <trkpt lat="60.82243" lon="11.33612">
        <ele>250.80000305176</ele>
        <time>2019-06-14T04:03:59Z</time>
      </trkpt>
      <trkpt lat="60.82255" lon="11.3361">
        <ele>251.19999694824</ele>
        <time>2019-06-14T04:04:07Z</time>
      </trkpt>
      <trkpt lat="60.82282" lon="11.33678">
        <ele>252.39999389648</ele>
        <time>2019-06-14T04:04:13Z</time>
      </trkpt>
      <trkpt lat="60.82324" lon="11.3379">
        <ele>252.60000610352</ele>
        <time>2019-06-14T04:04:16Z</time>
      </trkpt>
      <trkpt lat="60.82423" lon="11.34047">
        <ele>254.60000610352</ele>
        <time>2019-06-14T04:04:19Z</time>
      </trkpt>
      <trkpt lat="60.82497" lon="11.34259">
        <ele>255.80000305176</ele>
        <time>2019-06-14T04:04:22Z</time>
      </trkpt>
      <trkpt lat="60.82517" lon="11.34339">
        <ele>257.20001220703</ele>
        <time>2019-06-14T04:04:32Z</time>
      </trkpt>
      <trkpt lat="60.82532" lon="11.34399">
        <ele>258.79998779297</ele>
        <time>2019-06-14T04:04:39Z</time>
      </trkpt>
      <trkpt lat="60.82565" lon="11.34521">
        <ele>260.60000610352</ele>
        <time>2019-06-14T04:04:47Z</time>
      </trkpt>
      <trkpt lat="60.8259" lon="11.34594">
        <ele>260.79998779297</ele>
        <time>2019-06-14T04:04:59Z</time>
      </trkpt>
      <trkpt lat="60.82703" lon="11.34754">
        <ele>261.60000610352</ele>
        <time>2019-06-14T04:05:05Z</time>
      </trkpt>
      <trkpt lat="60.82774" lon="11.34796">
        <ele>262.39999389648</ele>
        <time>2019-06-14T04:05:11Z</time>
      </trkpt>
      <trkpt lat="60.82893" lon="11.34852">
        <ele>266</ele>
        <time>2019-06-14T04:05:24Z</time>
      </trkpt>
      <trkpt lat="60.83013" lon="11.34945">
        <ele>270</ele>
        <time>2019-06-14T04:05:32Z</time>
      </trkpt>
      <trkpt lat="60.83066" lon="11.34989">
        <ele>271</ele>
        <time>2019-06-14T04:05:41Z</time>
      </trkpt>
      <trkpt lat="60.83169" lon="11.35072">
        <ele>271.39999389648</ele>
        <time>2019-06-14T04:05:54Z</time>
      </trkpt>
      <trkpt lat="60.83181" lon="11.35083">
        <ele>271.39999389648</ele>
        <time>2019-06-14T04:06:07Z</time>
      </trkpt>
      <trkpt lat="60.83266" lon="11.35151">
        <ele>270.79998779297</ele>
        <time>2019-06-14T04:06:27Z</time>
      </trkpt>
      <trkpt lat="60.83318" lon="11.352">
        <ele>269.60000610352</ele>
        <time>2019-06-14T04:06:40Z</time>
      </trkpt>
      <trkpt lat="60.83383" lon="11.35286">
        <ele>268.60000610352</ele>
        <time>2019-06-14T04:06:54Z</time>
      </trkpt>
      <trkpt lat="60.83459" lon="11.35459">
        <ele>266.39999389648</ele>
        <time>2019-06-14T04:07:17Z</time>
      </trkpt>
      <trkpt lat="60.83479" lon="11.35504">
        <ele>266.39999389648</ele>
        <time>2019-06-14T04:07:27Z</time>
      </trkpt>
      <trkpt lat="60.83516" lon="11.35591">
        <ele>267.79998779297</ele>
        <time>2019-06-14T04:07:44Z</time>
      </trkpt>
      <trkpt lat="60.83616" lon="11.35833">
        <ele>275.60000610352</ele>
        <time>2019-06-14T04:07:57Z</time>
      </trkpt>
      <trkpt lat="60.83637" lon="11.35904">
        <ele>277.20001220703</ele>
        <time>2019-06-14T04:08:12Z</time>
      </trkpt>
      <trkpt lat="60.83722" lon="11.36178">
        <ele>281.20001220703</ele>
        <time>2019-06-14T04:08:32Z</time>
      </trkpt>
      <trkpt lat="60.83821" lon="11.36315">
        <ele>281.60000610352</ele>
        <time>2019-06-14T04:08:40Z</time>
      </trkpt>
      <trkpt lat="60.83935" lon="11.36394">
        <ele>281.39999389648</ele>
        <time>2019-06-14T04:08:46Z</time>
      </trkpt>
      <trkpt lat="60.84016" lon="11.36445">
        <ele>281.60000610352</ele>
        <time>2019-06-14T04:08:58Z</time>
      </trkpt>
      <trkpt lat="60.84094" lon="11.36489">
        <ele>282.39999389648</ele>
        <time>2019-06-14T04:09:08Z</time>
      </trkpt>
      <trkpt lat="60.84279" lon="11.36504">
        <ele>284.60000610352</ele>
        <time>2019-06-14T04:09:33Z</time>
      </trkpt>
      <trkpt lat="60.84525" lon="11.36502">
        <ele>288.79998779297</ele>
        <time>2019-06-14T04:09:42Z</time>
      </trkpt>
      <trkpt lat="60.84649" lon="11.36499">
        <ele>289.79998779297</ele>
        <time>2019-06-14T04:10:00Z</time>
      </trkpt>
      <trkpt lat="60.84722" lon="11.36498">
        <ele>290.20001220703</ele>
        <time>2019-06-14T04:10:16Z</time>
      </trkpt>
      <trkpt lat="60.8479" lon="11.36515">
        <ele>291.39999389648</ele>
        <time>2019-06-14T04:10:23Z</time>
      </trkpt>
      <trkpt lat="60.84813" lon="11.3658">
        <ele>292.20001220703</ele>
        <time>2019-06-14T04:10:36Z</time>
      </trkpt>
      <trkpt lat="60.84851" lon="11.36715">
        <ele>295</ele>
        <time>2019-06-14T04:10:44Z</time>
      </trkpt>
      <trkpt lat="60.84862" lon="11.36743">
        <ele>295.20001220703</ele>
        <time>2019-06-14T04:10:57Z</time>
      </trkpt>
      <trkpt lat="60.84947" lon="11.37017">
        <ele>296</ele>
        <time>2019-06-14T04:11:14Z</time>
      </trkpt>
      <trkpt lat="60.85018" lon="11.37246">
        <ele>295.79998779297</ele>
        <time>2019-06-14T04:11:18Z</time>
      </trkpt>
      <trkpt lat="60.85073" lon="11.37414">
        <ele>294.60000610352</ele>
        <time>2019-06-14T04:11:24Z</time>
      </trkpt>
      <trkpt lat="60.85126" lon="11.37575">
        <ele>295</ele>
        <time>2019-06-14T04:11:29Z</time>
      </trkpt>
      <trkpt lat="60.85166" lon="11.37707">
        <ele>296.60000610352</ele>
        <time>2019-06-14T04:11:34Z</time>
      </trkpt>
      <trkpt lat="60.85201" lon="11.37826">
        <ele>297.60000610352</ele>
        <time>2019-06-14T04:11:44Z</time>
      </trkpt>
      <trkpt lat="60.85272" lon="11.38053">
        <ele>299</ele>
        <time>2019-06-14T04:11:52Z</time>
      </trkpt>
      <trkpt lat="60.85324" lon="11.38219">
        <ele>299.79998779297</ele>
        <time>2019-06-14T04:12:05Z</time>
      </trkpt>
      <trkpt lat="60.85362" lon="11.38342">
        <ele>301</ele>
        <time>2019-06-14T04:12:14Z</time>
      </trkpt>
      <trkpt lat="60.85379" lon="11.38395">
        <ele>302</ele>
        <time>2019-06-14T04:12:24Z</time>
      </trkpt>
      <trkpt lat="60.85402" lon="11.38465">
        <ele>302.39999389648</ele>
        <time>2019-06-14T04:12:31Z</time>
      </trkpt>
      <trkpt lat="60.85469" lon="11.38658">
        <ele>301.20001220703</ele>
        <time>2019-06-14T04:12:41Z</time>
      </trkpt>
      <trkpt lat="60.85505" lon="11.38762">
        <ele>300.79998779297</ele>
        <time>2019-06-14T04:12:45Z</time>
      </trkpt>
      <trkpt lat="60.85601" lon="11.39037">
        <ele>300.20001220703</ele>
        <time>2019-06-14T04:13:04Z</time>
      </trkpt>
      <trkpt lat="60.85641" lon="11.39151">
        <ele>300</ele>
        <time>2019-06-14T04:13:21Z</time>
      </trkpt>
      <trkpt lat="60.857" lon="11.3932">
        <ele>300.20001220703</ele>
        <time>2019-06-14T04:13:30Z</time>
      </trkpt>
      <trkpt lat="60.85727" lon="11.39402">
        <ele>300.39999389648</ele>
        <time>2019-06-14T04:13:55Z</time>
      </trkpt>
      <trkpt lat="60.8575" lon="11.39469">
        <ele>300.39999389648</ele>
        <time>2019-06-14T04:14:08Z</time>
      </trkpt>
      <trkpt lat="60.8581" lon="11.39648">
        <ele>301.60000610352</ele>
        <time>2019-06-14T04:14:29Z</time>
      </trkpt>
      <trkpt lat="60.8583" lon="11.39715">
        <ele>302.20001220703</ele>
        <time>2019-06-14T04:14:56Z</time>
      </trkpt>
      <trkpt lat="60.85845" lon="11.39834">
        <ele>302.20001220703</ele>
        <time>2019-06-14T04:15:11Z</time>
      </trkpt>
      <trkpt lat="60.85812" lon="11.39884">
        <ele>301.60000610352</ele>
        <time>2019-06-14T04:15:27Z</time>
      </trkpt>
      <trkpt lat="60.85804" lon="11.39912">
        <ele>301</ele>
        <time>2019-06-14T04:15:30Z</time>
      </trkpt>
      <trkpt lat="60.85806" lon="11.39931">
        <ele>299.60000610352</ele>
        <time>2019-06-14T04:15:35Z</time>
      </trkpt>
      <trkpt lat="60.85824" lon="11.3999">
        <ele>299.79998779297</ele>
        <time>2019-06-14T04:15:44Z</time>
      </trkpt>
      <trkpt lat="60.85843" lon="11.40061">
        <ele>299.60000610352</ele>
        <time>2019-06-14T04:15:56Z</time>
      </trkpt>
      <trkpt lat="60.8587" lon="11.40135">
        <ele>299.20001220703</ele>
        <time>2019-06-14T04:16:01Z</time>
      </trkpt>
      <trkpt lat="60.8592" lon="11.40099">
        <ele>299.20001220703</ele>
        <time>2019-06-14T04:16:15Z</time>
      </trkpt>
      <trkpt lat="60.85949" lon="11.40101">
        <ele>300.60000610352</ele>
        <time>2019-06-14T04:16:24Z</time>
      </trkpt>
      <trkpt lat="60.8596" lon="11.40131">
        <ele>300.79998779297</ele>
        <time>2019-06-14T04:16:36Z</time>
      </trkpt>
      <trkpt lat="60.86032" lon="11.40363">
        <ele>300.79998779297</ele>
        <time>2019-06-14T04:16:48Z</time>
      </trkpt>
      <trkpt lat="60.86111" lon="11.40638">
        <ele>298.39999389648</ele>
        <time>2019-06-14T04:16:56Z</time>
      </trkpt>
      <trkpt lat="60.86137" lon="11.40807">
        <ele>298.79998779297</ele>
        <time>2019-06-14T04:17:07Z</time>
      </trkpt>
      <trkpt lat="60.86155" lon="11.40998">
        <ele>301.39999389648</ele>
        <time>2019-06-14T04:17:23Z</time>
      </trkpt>
      <trkpt lat="60.86175" lon="11.41167">
        <ele>302</ele>
        <time>2019-06-14T04:17:33Z</time>
      </trkpt>
      <trkpt lat="60.86202" lon="11.41367">
        <ele>300.79998779297</ele>
        <time>2019-06-14T04:17:48Z</time>
      </trkpt>
      <trkpt lat="60.86229" lon="11.41534">
        <ele>299</ele>
        <time>2019-06-14T04:17:59Z</time>
      </trkpt>
      <trkpt lat="60.86253" lon="11.41628">
        <ele>298.20001220703</ele>
        <time>2019-06-14T04:18:25Z</time>
      </trkpt>
      <trkpt lat="60.86268" lon="11.41681">
        <ele>297.20001220703</ele>
        <time>2019-06-14T04:18:30Z</time>
      </trkpt>
      <trkpt lat="60.86313" lon="11.4177">
        <ele>296.79998779297</ele>
        <time>2019-06-14T04:19:35Z</time>
      </trkpt>
      <trkpt lat="60.86382" lon="11.41886">
        <ele>295.39999389648</ele>
        <time>2019-06-14T04:19:55Z</time>
      </trkpt>
      <trkpt lat="60.86405" lon="11.41927">
        <ele>294.20001220703</ele>
        <time>2019-06-14T04:20:13Z</time>
      </trkpt>
      <trkpt lat="60.86433" lon="11.41977">
        <ele>293.60000610352</ele>
        <time>2019-06-14T04:20:29Z</time>
      </trkpt>
      <trkpt lat="60.86491" lon="11.42088">
        <ele>293.20001220703</ele>
        <time>2019-06-14T04:20:57Z</time>
      </trkpt>
      <trkpt lat="60.86517" lon="11.42149">
        <ele>293.60000610352</ele>
        <time>2019-06-14T04:21:07Z</time>
      </trkpt>
      <trkpt lat="60.86521" lon="11.42157">
        <ele>293.39999389648</ele>
        <time>2019-06-14T04:21:32Z</time>
      </trkpt>
      <trkpt lat="60.86595" lon="11.4235">
        <ele>294.20001220703</ele>
        <time>2019-06-14T04:21:50Z</time>
      </trkpt>
      <trkpt lat="60.86682" lon="11.42601">
        <ele>293.60000610352</ele>
        <time>2019-06-14T04:22:01Z</time>
      </trkpt>
      <trkpt lat="60.8674" lon="11.42695">
        <ele>292.39999389648</ele>
        <time>2019-06-14T04:22:06Z</time>
      </trkpt>
      <trkpt lat="60.86775" lon="11.42745">
        <ele>290.79998779297</ele>
        <time>2019-06-14T04:22:22Z</time>
      </trkpt>
      <trkpt lat="60.86862" lon="11.42855">
        <ele>289.20001220703</ele>
        <time>2019-06-14T04:22:38Z</time>
      </trkpt>
      <trkpt lat="60.8693" lon="11.42931">
        <ele>289.79998779297</ele>
        <time>2019-06-14T04:22:44Z</time>
      </trkpt>
      <trkpt lat="60.87001" lon="11.43055">
        <ele>288.60000610352</ele>
        <time>2019-06-14T04:22:49Z</time>
      </trkpt>
      <trkpt lat="60.87046" lon="11.43194">
        <ele>287</ele>
        <time>2019-06-14T04:22:59Z</time>
      </trkpt>
      <trkpt lat="60.87075" lon="11.43293">
        <ele>287</ele>
        <time>2019-06-14T04:23:08Z</time>
      </trkpt>
      <trkpt lat="60.87106" lon="11.43399">
        <ele>286.79998779297</ele>
        <time>2019-06-14T04:23:20Z</time>
      </trkpt>
      <trkpt lat="60.87177" lon="11.43644">
        <ele>288</ele>
        <time>2019-06-14T04:27:35Z</time>
      </trkpt>
      <trkpt lat="60.87199" lon="11.43725">
        <ele>288.79998779297</ele>
        <time>2019-06-14T04:27:43Z</time>
      </trkpt>
      <trkpt lat="60.87274" lon="11.43993">
        <ele>288.60000610352</ele>
        <time>2019-06-14T04:27:59Z</time>
      </trkpt>
      <trkpt lat="60.87313" lon="11.44135">
        <ele>286.39999389648</ele>
        <time>2019-06-14T04:28:05Z</time>
      </trkpt>
      <trkpt lat="60.87362" lon="11.44267">
        <ele>285.60000610352</ele>
        <time>2019-06-14T04:28:10Z</time>
      </trkpt>
      <trkpt lat="60.87445" lon="11.44369">
        <ele>286.39999389648</ele>
        <time>2019-06-14T04:28:18Z</time>
      </trkpt>
      <trkpt lat="60.87511" lon="11.44472">
        <ele>286</ele>
        <time>2019-06-14T04:28:21Z</time>
      </trkpt>
      <trkpt lat="60.87536" lon="11.44618">
        <ele>284.39999389648</ele>
        <time>2019-06-14T04:28:25Z</time>
      </trkpt>
      <trkpt lat="60.87532" lon="11.447">
        <ele>283.20001220703</ele>
        <time>2019-06-14T04:28:31Z</time>
      </trkpt>
      <trkpt lat="60.8752" lon="11.44876">
        <ele>282</ele>
        <time>2019-06-14T04:28:36Z</time>
      </trkpt>
      <trkpt lat="60.87609" lon="11.4526">
        <ele>282</ele>
        <time>2019-06-14T04:28:46Z</time>
      </trkpt>
      <trkpt lat="60.87653" lon="11.45564">
        <ele>282.20001220703</ele>
        <time>2019-06-14T04:28:54Z</time>
      </trkpt>
      <trkpt lat="60.87652" lon="11.45665">
        <ele>281.20001220703</ele>
        <time>2019-06-14T04:29:00Z</time>
      </trkpt>
      <trkpt lat="60.87648" lon="11.45756">
        <ele>280.60000610352</ele>
        <time>2019-06-14T04:29:09Z</time>
      </trkpt>
      <trkpt lat="60.87619" lon="11.46125">
        <ele>276.60000610352</ele>
        <time>2019-06-14T04:29:13Z</time>
      </trkpt>
      <trkpt lat="60.87612" lon="11.46343">
        <ele>275.79998779297</ele>
        <time>2019-06-14T04:29:18Z</time>
      </trkpt>
      <trkpt lat="60.87624" lon="11.46515">
        <ele>276</ele>
        <time>2019-06-14T04:29:24Z</time>
      </trkpt>
      <trkpt lat="60.8764" lon="11.46644">
        <ele>274.39999389648</ele>
        <time>2019-06-14T04:29:28Z</time>
      </trkpt>
      <trkpt lat="60.8766" lon="11.46798">
        <ele>272</ele>
        <time>2019-06-14T04:29:33Z</time>
      </trkpt>
      <trkpt lat="60.8768" lon="11.4696">
        <ele>269</ele>
        <time>2019-06-14T04:29:36Z</time>
      </trkpt>
      <trkpt lat="60.87707" lon="11.47156">
        <ele>269.39999389648</ele>
        <time>2019-06-14T04:29:40Z</time>
      </trkpt>
      <trkpt lat="60.87736" lon="11.47315">
        <ele>271.20001220703</ele>
        <time>2019-06-14T04:29:47Z</time>
      </trkpt>
      <trkpt lat="60.87755" lon="11.47402">
        <ele>271.79998779297</ele>
        <time>2019-06-14T04:29:53Z</time>
      </trkpt>
      <trkpt lat="60.87766" lon="11.47457">
        <ele>271.79998779297</ele>
        <time>2019-06-14T04:29:57Z</time>
      </trkpt>
      <trkpt lat="60.87798" lon="11.47599">
        <ele>272</ele>
        <time>2019-06-14T04:30:01Z</time>
      </trkpt>
      <trkpt lat="60.87825" lon="11.47716">
        <ele>272</ele>
        <time>2019-06-14T04:30:06Z</time>
      </trkpt>
      <trkpt lat="60.87889" lon="11.48005">
        <ele>271.39999389648</ele>
        <time>2019-06-14T04:30:11Z</time>
      </trkpt>
      <trkpt lat="60.87921" lon="11.48169">
        <ele>271</ele>
        <time>2019-06-14T04:30:16Z</time>
      </trkpt>
      <trkpt lat="60.87937" lon="11.48285">
        <ele>270.60000610352</ele>
        <time>2019-06-14T04:30:20Z</time>
      </trkpt>
      <trkpt lat="60.87956" lon="11.48462">
        <ele>267.79998779297</ele>
        <time>2019-06-14T04:30:27Z</time>
      </trkpt>
      <trkpt lat="60.87967" lon="11.48649">
        <ele>264.20001220703</ele>
        <time>2019-06-14T04:30:37Z</time>
      </trkpt>
      <trkpt lat="60.87971" lon="11.48802">
        <ele>260.79998779297</ele>
        <time>2019-06-14T04:30:45Z</time>
      </trkpt>
      <trkpt lat="60.87971" lon="11.48972">
        <ele>256.20001220703</ele>
        <time>2019-06-14T04:31:05Z</time>
      </trkpt>
      <trkpt lat="60.87969" lon="11.49038">
        <ele>255</ele>
        <time>2019-06-14T04:31:56Z</time>
      </trkpt>
      <trkpt lat="60.87964" lon="11.49235">
        <ele>253</ele>
        <time>2019-06-14T04:32:11Z</time>
      </trkpt>
      <trkpt lat="60.8796" lon="11.49359">
        <ele>252.60000610352</ele>
        <time>2019-06-14T04:32:28Z</time>
      </trkpt>
      <trkpt lat="60.87957" lon="11.49555">
        <ele>251.80000305176</ele>
        <time>2019-06-14T04:32:44Z</time>
      </trkpt>
      <trkpt lat="60.87961" lon="11.49736">
        <ele>252.39999389648</ele>
        <time>2019-06-14T04:33:10Z</time>
      </trkpt>
      <trkpt lat="60.87972" lon="11.49815">
        <ele>252.60000610352</ele>
        <time>2019-06-14T04:33:24Z</time>
      </trkpt>
      <trkpt lat="60.88016" lon="11.50046">
        <ele>251</ele>
        <time>2019-06-14T04:33:31Z</time>
      </trkpt>
      <trkpt lat="60.88042" lon="11.50158">
        <ele>248.39999389648</ele>
        <time>2019-06-14T04:33:54Z</time>
      </trkpt>
      <trkpt lat="60.88069" lon="11.50273">
        <ele>246.39999389648</ele>
        <time>2019-06-14T04:34:04Z</time>
      </trkpt>
      <trkpt lat="60.88141" lon="11.50561">
        <ele>245.39999389648</ele>
        <time>2019-06-14T04:34:12Z</time>
      </trkpt>
      <trkpt lat="60.88182" lon="11.50685">
        <ele>245.19999694824</ele>
        <time>2019-06-14T04:34:17Z</time>
      </trkpt>
      <trkpt lat="60.88323" lon="11.51051">
        <ele>238.80000305176</ele>
        <time>2019-06-14T04:34:20Z</time>
      </trkpt>
      <trkpt lat="60.88367" lon="11.51214">
        <ele>235.60000610352</ele>
        <time>2019-06-14T04:34:27Z</time>
      </trkpt>
      <trkpt lat="60.88377" lon="11.51291">
        <ele>234.60000610352</ele>
        <time>2019-06-14T04:34:31Z</time>
      </trkpt>
      <trkpt lat="60.8839" lon="11.51445">
        <ele>233.60000610352</ele>
        <time>2019-06-14T04:34:37Z</time>
      </trkpt>
      <trkpt lat="60.88405" lon="11.5159">
        <ele>231</ele>
        <time>2019-06-14T04:34:46Z</time>
      </trkpt>
      <trkpt lat="60.88417" lon="11.51682">
        <ele>230.19999694824</ele>
        <time>2019-06-14T04:34:51Z</time>
      </trkpt>
      <trkpt lat="60.88419" lon="11.51707">
        <ele>229.60000610352</ele>
        <time>2019-06-14T04:34:55Z</time>
      </trkpt>
      <trkpt lat="60.88422" lon="11.51712">
        <ele>228.19999694824</ele>
        <time>2019-06-14T04:34:59Z</time>
      </trkpt>
      <trkpt lat="60.8844" lon="11.51802">
        <ele>228</ele>
        <time>2019-06-14T04:35:03Z</time>
      </trkpt>
      <trkpt lat="60.88448" lon="11.52041">
        <ele>226.39999389648</ele>
        <time>2019-06-14T04:35:10Z</time>
      </trkpt>
      <trkpt lat="60.88448" lon="11.5212">
        <ele>226</ele>
        <time>2019-06-14T04:35:14Z</time>
      </trkpt>
      <trkpt lat="60.88446" lon="11.52262">
        <ele>225.80000305176</ele>
        <time>2019-06-14T04:35:29Z</time>
      </trkpt>
      <trkpt lat="60.88427" lon="11.52487">
        <ele>224.60000610352</ele>
        <time>2019-06-14T04:35:45Z</time>
      </trkpt>
      <trkpt lat="60.88418" lon="11.52586">
        <ele>224.19999694824</ele>
        <time>2019-06-14T04:36:00Z</time>
      </trkpt>
      <trkpt lat="60.8841" lon="11.52661">
        <ele>223.39999389648</ele>
        <time>2019-06-14T04:36:15Z</time>
      </trkpt>
      <trkpt lat="60.88396" lon="11.52805">
        <ele>223.60000610352</ele>
        <time>2019-06-14T04:36:21Z</time>
      </trkpt>
      <trkpt lat="60.88373" lon="11.52921">
        <ele>223.19999694824</ele>
        <time>2019-06-14T04:39:42Z</time>
      </trkpt>
      <trkpt lat="60.88344" lon="11.531">
        <ele>221.39999389648</ele>
        <time>2019-06-14T04:39:58Z</time>
      </trkpt>
      <trkpt lat="60.88323" lon="11.53262">
        <ele>221</ele>
        <time>2019-06-14T04:40:10Z</time>
      </trkpt>
      <trkpt lat="60.883" lon="11.53406">
        <ele>221.19999694824</ele>
        <time>2019-06-14T04:40:24Z</time>
      </trkpt>
      <trkpt lat="60.88268" lon="11.536">
        <ele>220.80000305176</ele>
        <time>2019-06-14T04:40:37Z</time>
      </trkpt>
      <trkpt lat="60.88261" lon="11.5365">
        <ele>220.60000610352</ele>
        <time>2019-06-14T04:40:42Z</time>
      </trkpt>
      <trkpt lat="60.88252" lon="11.53701">
        <ele>220.60000610352</ele>
        <time>2019-06-14T04:41:12Z</time>
      </trkpt>
      <trkpt lat="60.88239" lon="11.53771">
        <ele>220.39999389648</ele>
        <time>2019-06-14T04:41:20Z</time>
      </trkpt>
      <trkpt lat="60.88218" lon="11.53868">
        <ele>220.80000305176</ele>
        <time>2019-06-15T07:43:40Z</time>
      </trkpt>
      <trkpt lat="60.88183" lon="11.53911">
        <ele>221</ele>
        <time>2019-06-15T07:43:57Z</time>
      </trkpt>
      <trkpt lat="60.88186" lon="11.53979">
        <ele>221</ele>
        <time>2019-06-15T07:44:13Z</time>
      </trkpt>
      <trkpt lat="60.88193" lon="11.54058">
        <ele>220.80000305176</ele>
        <time>2019-06-15T07:44:34Z</time>
      </trkpt>
      <trkpt lat="60.88167" lon="11.54216">
        <ele>220.80000305176</ele>
        <time>2019-06-15T07:44:40Z</time>
      </trkpt>
      <trkpt lat="60.88149" lon="11.54327">
        <ele>220.60000610352</ele>
        <time>2019-06-15T07:44:45Z</time>
      </trkpt>
      <trkpt lat="60.881" lon="11.5462">
        <ele>220.19999694824</ele>
        <time>2019-06-15T07:44:56Z</time>
      </trkpt>
      <trkpt lat="60.88104" lon="11.54655">
        <ele>219.80000305176</ele>
        <time>2019-06-15T07:45:02Z</time>
      </trkpt>
      <trkpt lat="60.88124" lon="11.54668">
        <ele>219.19999694824</ele>
        <time>2019-06-15T07:45:13Z</time>
      </trkpt>
      <trkpt lat="60.88141" lon="11.54652">
        <ele>219</ele>
        <time>2019-06-15T07:45:41Z</time>
      </trkpt>
      <trkpt lat="60.88165" lon="11.54582">
        <ele>219.60000610352</ele>
        <time>2019-06-15T07:45:44Z</time>
      </trkpt>
      <trkpt lat="60.8815" lon="11.54548">
        <ele>221</ele>
        <time>2019-06-15T07:45:58Z</time>
      </trkpt>
      <trkpt lat="60.88131" lon="11.54629">
        <ele>222.60000610352</ele>
        <time>2019-06-15T07:46:05Z</time>
      </trkpt>
      <trkpt lat="60.8812" lon="11.54707">
        <ele>223.39999389648</ele>
        <time>2019-06-15T07:46:11Z</time>
      </trkpt>
      <trkpt lat="60.88098" lon="11.54849">
        <ele>223.19999694824</ele>
        <time>2019-06-15T07:46:23Z</time>
      </trkpt>
      <trkpt lat="60.88082" lon="11.54987">
        <ele>221.60000610352</ele>
        <time>2019-06-15T07:46:28Z</time>
      </trkpt>
      <trkpt lat="60.8809" lon="11.55032">
        <ele>219.19999694824</ele>
        <time>2019-06-15T07:46:33Z</time>
      </trkpt>
      <trkpt lat="60.88095" lon="11.55062">
        <ele>218.80000305176</ele>
        <time>2019-06-15T07:46:45Z</time>
      </trkpt>
      <trkpt lat="60.88117" lon="11.55135">
        <ele>218.80000305176</ele>
        <time>2019-06-15T07:46:51Z</time>
      </trkpt>
      <trkpt lat="60.88174" lon="11.55288">
        <ele>217.60000610352</ele>
        <time>2019-06-15T07:47:05Z</time>
      </trkpt>
      <trkpt lat="60.88196" lon="11.55343">
        <ele>217.60000610352</ele>
        <time>2019-06-15T07:47:11Z</time>
      </trkpt>
      <trkpt lat="60.88204" lon="11.55411">
        <ele>217</ele>
        <time>2019-06-15T07:47:18Z</time>
      </trkpt>
      <trkpt lat="60.88226" lon="11.55461">
        <ele>216.80000305176</ele>
        <time>2019-06-15T07:47:29Z</time>
      </trkpt>
      <trkpt lat="60.88276" lon="11.55612">
        <ele>216.80000305176</ele>
        <time>2019-06-15T07:47:38Z</time>
      </trkpt>
      <trkpt lat="60.88302" lon="11.55694">
        <ele>217.19999694824</ele>
        <time>2019-06-15T07:47:47Z</time>
      </trkpt>
      <trkpt lat="60.88341" lon="11.55821">
        <ele>217.19999694824</ele>
        <time>2019-06-15T07:47:57Z</time>
      </trkpt>
      <trkpt lat="60.88364" lon="11.55896">
        <ele>216.80000305176</ele>
        <time>2019-06-15T07:48:07Z</time>
      </trkpt>
      <trkpt lat="60.88402" lon="11.56001">
        <ele>216.80000305176</ele>
        <time>2019-06-15T07:48:17Z</time>
      </trkpt>
      <trkpt lat="60.88412" lon="11.56043">
        <ele>217.39999389648</ele>
        <time>2019-06-15T07:48:27Z</time>
      </trkpt>
      <trkpt lat="60.88424" lon="11.56087">
        <ele>217.60000610352</ele>
        <time>2019-06-15T07:48:38Z</time>
      </trkpt>
      <trkpt lat="60.88433" lon="11.56157">
        <ele>218.80000305176</ele>
        <time>2019-06-15T07:48:46Z</time>
      </trkpt>
      <trkpt lat="60.88449" lon="11.56226">
        <ele>218.80000305176</ele>
        <time>2019-06-15T07:48:52Z</time>
      </trkpt>
      <trkpt lat="60.88475" lon="11.56318">
        <ele>219.19999694824</ele>
        <time>2019-06-15T07:49:10Z</time>
      </trkpt>
      <trkpt lat="60.88493" lon="11.56379">
        <ele>219</ele>
        <time>2019-06-15T07:49:21Z</time>
      </trkpt>
      <trkpt lat="60.8852" lon="11.56468">
        <ele>219.19999694824</ele>
        <time>2019-06-15T07:49:25Z</time>
      </trkpt>
      <trkpt lat="60.88557" lon="11.56547">
        <ele>219.19999694824</ele>
        <time>2019-06-15T07:49:42Z</time>
      </trkpt>
      <trkpt lat="60.88564" lon="11.56525">
        <ele>219.39999389648</ele>
        <time>2019-06-15T07:49:54Z</time>
      </trkpt>
      <trkpt lat="60.88592" lon="11.56446">
        <ele>219.60000610352</ele>
        <time>2019-06-15T07:50:05Z</time>
      </trkpt>
      <trkpt lat="60.88617" lon="11.56386">
        <ele>219.19999694824</ele>
        <time>2019-06-15T07:50:17Z</time>
      </trkpt>
      <trkpt lat="60.8865" lon="11.56305">
        <ele>219</ele>
        <time>2019-06-15T07:50:26Z</time>
      </trkpt>
      <trkpt lat="60.88688" lon="11.56206">
        <ele>219</ele>
        <time>2019-06-15T07:50:42Z</time>
      </trkpt>
      <trkpt lat="60.88693" lon="11.56187">
        <ele>218.60000610352</ele>
        <time>2019-06-15T07:50:50Z</time>
      </trkpt>
      <trkpt lat="60.88745" lon="11.5609">
        <ele>218.60000610352</ele>
        <time>2019-06-15T07:50:58Z</time>
      </trkpt>
      <trkpt lat="60.88787" lon="11.56096">
        <ele>218.60000610352</ele>
        <time>2019-06-15T07:51:07Z</time>
      </trkpt>
      <trkpt lat="60.88788" lon="11.56077">
        <ele>218.60000610352</ele>
        <time>2019-06-15T07:51:15Z</time>
      </trkpt>
      <trkpt lat="60.88811" lon="11.56045">
        <ele>218.39999389648</ele>
        <time>2019-06-15T07:51:32Z</time>
      </trkpt>
      <trkpt lat="60.88842" lon="11.56021">
        <ele>217</ele>
        <time>2019-06-15T07:51:48Z</time>
      </trkpt>
      <trkpt lat="60.88933" lon="11.56021">
        <ele>221</ele>
        <time>2019-06-15T07:51:56Z</time>
      </trkpt>
      <trkpt lat="60.8897" lon="11.56018">
        <ele>221.60000610352</ele>
        <time>2019-06-15T07:52:12Z</time>
      </trkpt>
      <trkpt lat="60.89043" lon="11.56017">
        <ele>221.80000305176</ele>
        <time>2019-06-15T07:52:21Z</time>
      </trkpt>
      <trkpt lat="60.89084" lon="11.56015">
        <ele>222</ele>
        <time>2019-06-15T07:52:29Z</time>
      </trkpt>
      <trkpt lat="60.89184" lon="11.56009">
        <ele>222</ele>
        <time>2019-06-15T07:52:47Z</time>
      </trkpt>
      <trkpt lat="60.89205" lon="11.56009">
        <ele>222.19999694824</ele>
        <time>2019-06-15T07:53:00Z</time>
      </trkpt>
      <trkpt lat="60.89245" lon="11.56007">
        <ele>222.19999694824</ele>
        <time>2019-06-15T07:53:18Z</time>
      </trkpt>
      <trkpt lat="60.89332" lon="11.56002">
        <ele>222</ele>
        <time>2019-06-15T07:53:28Z</time>
      </trkpt>
      <trkpt lat="60.89388" lon="11.55999">
        <ele>221.39999389648</ele>
        <time>2019-06-15T07:53:44Z</time>
      </trkpt>
      <trkpt lat="60.89455" lon="11.5599">
        <ele>221.19999694824</ele>
        <time>2019-06-15T07:54:02Z</time>
      </trkpt>
      <trkpt lat="60.89568" lon="11.55993">
        <ele>221.19999694824</ele>
        <time>2019-06-15T07:54:17Z</time>
      </trkpt>
      <trkpt lat="60.8966" lon="11.55995">
        <ele>221.39999389648</ele>
        <time>2019-06-15T07:55:51Z</time>
      </trkpt>
      <trkpt lat="60.89705" lon="11.55995">
        <ele>221.60000610352</ele>
        <time>2019-06-15T07:56:04Z</time>
      </trkpt>
      <trkpt lat="60.89755" lon="11.55993">
        <ele>221.39999389648</ele>
        <time>2019-06-15T07:56:20Z</time>
      </trkpt>
      <trkpt lat="60.89839" lon="11.55989">
        <ele>221.19999694824</ele>
        <time>2019-06-15T07:56:32Z</time>
      </trkpt>
      <trkpt lat="60.89881" lon="11.5599">
        <ele>221.19999694824</ele>
        <time>2019-06-15T07:56:41Z</time>
      </trkpt>
      <trkpt lat="60.89983" lon="11.56026">
        <ele>222</ele>
        <time>2019-06-15T07:56:44Z</time>
      </trkpt>
      <trkpt lat="60.90039" lon="11.56029">
        <ele>222.80000305176</ele>
        <time>2019-06-15T07:56:48Z</time>
      </trkpt>
      <trkpt lat="60.9008" lon="11.56024">
        <ele>223</ele>
        <time>2019-06-15T07:56:52Z</time>
      </trkpt>
      <trkpt lat="60.90116" lon="11.56015">
        <ele>223.39999389648</ele>
        <time>2019-06-15T07:57:05Z</time>
      </trkpt>
      <trkpt lat="60.90118" lon="11.56035">
        <ele>223.19999694824</ele>
        <time>2019-06-15T07:57:24Z</time>
      </trkpt>
      <trkpt lat="60.9012" lon="11.56042">
        <ele>223.60000610352</ele>
        <time>2019-06-15T07:57:31Z</time>
      </trkpt>
      <trkpt lat="60.90139" lon="11.56012">
        <ele>223.60000610352</ele>
        <time>2019-06-15T07:57:35Z</time>
      </trkpt>
      <trkpt lat="60.902" lon="11.55957">
        <ele>223.39999389648</ele>
        <time>2019-06-15T07:57:42Z</time>
      </trkpt>
      <trkpt lat="60.90248" lon="11.55904">
        <ele>223.60000610352</ele>
        <time>2019-06-15T07:57:47Z</time>
      </trkpt>
      <trkpt lat="60.90383" lon="11.55728">
        <ele>223.60000610352</ele>
        <time>2019-06-15T07:57:57Z</time>
      </trkpt>
      <trkpt lat="60.90423" lon="11.55638">
        <ele>224.19999694824</ele>
        <time>2019-06-15T07:58:00Z</time>
      </trkpt>
      <trkpt lat="60.90484" lon="11.55488">
        <ele>224.60000610352</ele>
        <time>2019-06-15T07:58:04Z</time>
      </trkpt>
      <trkpt lat="60.90501" lon="11.55449">
        <ele>224.60000610352</ele>
        <time>2019-06-15T07:58:08Z</time>
      </trkpt>
      <trkpt lat="60.90534" lon="11.5537">
        <ele>224.39999389648</ele>
        <time>2019-06-15T07:58:11Z</time>
      </trkpt>
      <trkpt lat="60.90569" lon="11.55279">
        <ele>224.39999389648</ele>
        <time>2019-06-15T07:58:15Z</time>
      </trkpt>
      <trkpt lat="60.90633" lon="11.55101">
        <ele>224.80000305176</ele>
        <time>2019-06-15T07:58:17Z</time>
      </trkpt>
      <trkpt lat="60.90662" lon="11.5501">
        <ele>224.80000305176</ele>
        <time>2019-06-15T07:58:20Z</time>
      </trkpt>
      <trkpt lat="60.90729" lon="11.54794">
        <ele>225.19999694824</ele>
        <time>2019-06-15T07:58:25Z</time>
      </trkpt>
      <trkpt lat="60.90743" lon="11.54757">
        <ele>225.60000610352</ele>
        <time>2019-06-15T07:58:35Z</time>
      </trkpt>
      <trkpt lat="60.90796" lon="11.54663">
        <ele>227.80000305176</ele>
        <time>2019-06-15T07:58:48Z</time>
      </trkpt>
      <trkpt lat="60.90886" lon="11.54577">
        <ele>232</ele>
        <time>2019-06-15T07:59:05Z</time>
      </trkpt>
      <trkpt lat="60.90935" lon="11.54529">
        <ele>232</ele>
        <time>2019-06-15T07:59:09Z</time>
      </trkpt>
      <trkpt lat="60.91141" lon="11.54315">
        <ele>230.39999389648</ele>
        <time>2019-06-15T07:59:14Z</time>
      </trkpt>
      <trkpt lat="60.91188" lon="11.54261">
        <ele>230.60000610352</ele>
        <time>2019-06-15T07:59:19Z</time>
      </trkpt>
      <trkpt lat="60.91249" lon="11.54198">
        <ele>230.60000610352</ele>
        <time>2019-06-15T07:59:23Z</time>
      </trkpt>
      <trkpt lat="60.91331" lon="11.54106">
        <ele>230.19999694824</ele>
        <time>2019-06-15T07:59:28Z</time>
      </trkpt>
      <trkpt lat="60.91388" lon="11.54045">
        <ele>229.80000305176</ele>
        <time>2019-06-15T07:59:32Z</time>
      </trkpt>
      <trkpt lat="60.9147" lon="11.53934">
        <ele>230</ele>
        <time>2019-06-15T07:59:35Z</time>
      </trkpt>
      <trkpt lat="60.91541" lon="11.53802">
        <ele>230</ele>
        <time>2019-06-15T07:59:39Z</time>
      </trkpt>
      <trkpt lat="60.91648" lon="11.53636">
        <ele>229.19999694824</ele>
        <time>2019-06-15T07:59:41Z</time>
      </trkpt>
      <trkpt lat="60.91703" lon="11.53584">
        <ele>229</ele>
        <time>2019-06-15T07:59:45Z</time>
      </trkpt>
      <trkpt lat="60.91798" lon="11.53509">
        <ele>230</ele>
        <time>2019-06-15T07:59:52Z</time>
      </trkpt>
      <trkpt lat="60.91856" lon="11.53461">
        <ele>230.19999694824</ele>
        <time>2019-06-15T08:00:09Z</time>
      </trkpt>
      <trkpt lat="60.91909" lon="11.53407">
        <ele>230</ele>
        <time>2019-06-15T08:00:38Z</time>
      </trkpt>
      <trkpt lat="60.91958" lon="11.53361">
        <ele>230</ele>
        <time>2019-06-15T08:00:53Z</time>
      </trkpt>
      <trkpt lat="60.92009" lon="11.53329">
        <ele>229.80000305176</ele>
        <time>2019-06-15T08:00:58Z</time>
      </trkpt>
      <trkpt lat="60.92079" lon="11.53294">
        <ele>229.80000305176</ele>
        <time>2019-06-15T08:01:06Z</time>
      </trkpt>
      <trkpt lat="60.92136" lon="11.53276">
        <ele>230.19999694824</ele>
        <time>2019-06-15T08:01:09Z</time>
      </trkpt>
      <trkpt lat="60.92205" lon="11.53246">
        <ele>230</ele>
        <time>2019-06-15T08:01:16Z</time>
      </trkpt>
      <trkpt lat="60.92229" lon="11.53238">
        <ele>230.60000610352</ele>
        <time>2019-06-15T08:01:24Z</time>
      </trkpt>
      <trkpt lat="60.9228" lon="11.53218">
        <ele>230.80000305176</ele>
        <time>2019-06-15T08:01:41Z</time>
      </trkpt>
      <trkpt lat="60.92332" lon="11.53203">
        <ele>231.39999389648</ele>
        <time>2019-06-15T08:02:01Z</time>
      </trkpt>
      <trkpt lat="60.92465" lon="11.53143">
        <ele>231.80000305176</ele>
        <time>2019-06-15T08:02:09Z</time>
      </trkpt>
      <trkpt lat="60.92601" lon="11.53124">
        <ele>232.19999694824</ele>
        <time>2019-06-15T08:02:16Z</time>
      </trkpt>
      <trkpt lat="60.92682" lon="11.53084">
        <ele>231.80000305176</ele>
        <time>2019-06-15T08:02:26Z</time>
      </trkpt>
      <trkpt lat="60.92733" lon="11.53031">
        <ele>231.80000305176</ele>
        <time>2019-06-15T08:02:44Z</time>
      </trkpt>
      <trkpt lat="60.92783" lon="11.52984">
        <ele>231.19999694824</ele>
        <time>2019-06-15T08:03:11Z</time>
      </trkpt>
      <trkpt lat="60.92861" lon="11.52903">
        <ele>230.80000305176</ele>
        <time>2019-06-15T08:03:27Z</time>
      </trkpt>
      <trkpt lat="60.92925" lon="11.52837">
        <ele>231</ele>
        <time>2019-06-15T08:03:44Z</time>
      </trkpt>
      <trkpt lat="60.93084" lon="11.52701">
        <ele>230.60000610352</ele>
        <time>2019-06-15T08:04:05Z</time>
      </trkpt>
      <trkpt lat="60.93194" lon="11.52669">
        <ele>230.60000610352</ele>
        <time>2019-06-15T08:04:15Z</time>
      </trkpt>
      <trkpt lat="60.93261" lon="11.52641">
        <ele>231.19999694824</ele>
        <time>2019-06-15T08:04:31Z</time>
      </trkpt>
      <trkpt lat="60.93298" lon="11.52616">
        <ele>231.80000305176</ele>
        <time>2019-06-15T08:04:44Z</time>
      </trkpt>
      <trkpt lat="60.93391" lon="11.52549">
        <ele>231.80000305176</ele>
        <time>2019-06-15T08:05:14Z</time>
      </trkpt>
      <trkpt lat="60.93488" lon="11.52505">
        <ele>232.19999694824</ele>
        <time>2019-06-15T08:05:54Z</time>
      </trkpt>
      <trkpt lat="60.93622" lon="11.52471">
        <ele>233.80000305176</ele>
        <time>2019-06-15T08:06:29Z</time>
      </trkpt>
      <trkpt lat="60.93731" lon="11.52427">
        <ele>235.80000305176</ele>
        <time>2019-06-15T08:06:36Z</time>
      </trkpt>
      <trkpt lat="60.93752" lon="11.52408">
        <ele>236</ele>
        <time>2019-06-15T08:06:58Z</time>
      </trkpt>
      <trkpt lat="60.93808" lon="11.52329">
        <ele>236.19999694824</ele>
        <time>2019-06-15T08:07:24Z</time>
      </trkpt>
      <trkpt lat="60.9386" lon="11.52264">
        <ele>236</ele>
        <time>2019-06-15T08:07:38Z</time>
      </trkpt>
      <trkpt lat="60.93916" lon="11.52208">
        <ele>236.19999694824</ele>
        <time>2019-06-15T08:07:44Z</time>
      </trkpt>
      <trkpt lat="60.93993" lon="11.52133">
        <ele>234.39999389648</ele>
        <time>2019-06-15T08:07:46Z</time>
      </trkpt>
      <trkpt lat="60.94134" lon="11.52025">
        <ele>233.39999389648</ele>
        <time>2019-06-15T08:08:08Z</time>
      </trkpt>
      <trkpt lat="60.942" lon="11.51964">
        <ele>234.39999389648</ele>
        <time>2019-06-15T08:08:25Z</time>
      </trkpt>
      <trkpt lat="60.94269" lon="11.51895">
        <ele>234.80000305176</ele>
        <time>2019-06-15T08:08:39Z</time>
      </trkpt>
      <trkpt lat="60.94356" lon="11.51782">
        <ele>235</ele>
        <time>2019-06-15T08:09:02Z</time>
      </trkpt>
      <trkpt lat="60.94436" lon="11.51626">
        <ele>233.39999389648</ele>
        <time>2019-06-15T08:09:18Z</time>
      </trkpt>
      <trkpt lat="60.94482" lon="11.51561">
        <ele>233</ele>
        <time>2019-06-15T08:09:45Z</time>
      </trkpt>
      <trkpt lat="60.94643" lon="11.51379">
        <ele>233</ele>
        <time>2019-06-15T08:10:04Z</time>
      </trkpt>
      <trkpt lat="60.94695" lon="11.51262">
        <ele>231.80000305176</ele>
        <time>2019-06-15T08:10:20Z</time>
      </trkpt>
      <trkpt lat="60.94722" lon="11.51176">
        <ele>231.60000610352</ele>
        <time>2019-06-15T08:10:46Z</time>
      </trkpt>
      <trkpt lat="60.94767" lon="11.51024">
        <ele>231.39999389648</ele>
        <time>2019-06-15T08:11:04Z</time>
      </trkpt>
      <trkpt lat="60.94778" lon="11.50995">
        <ele>231.39999389648</ele>
        <time>2019-06-15T08:11:24Z</time>
      </trkpt>
      <trkpt lat="60.94817" lon="11.5091">
        <ele>231.19999694824</ele>
        <time>2019-06-15T08:11:47Z</time>
      </trkpt>
      <trkpt lat="60.94901" lon="11.50789">
        <ele>231.39999389648</ele>
        <time>2019-06-15T08:12:02Z</time>
      </trkpt>
      <trkpt lat="60.94968" lon="11.50714">
        <ele>231.60000610352</ele>
        <time>2019-06-15T08:12:18Z</time>
      </trkpt>
      <trkpt lat="60.95085" lon="11.50641">
        <ele>231.80000305176</ele>
        <time>2019-06-15T08:12:24Z</time>
      </trkpt>
      <trkpt lat="60.95154" lon="11.5062">
        <ele>232</ele>
        <time>2019-06-15T08:12:44Z</time>
      </trkpt>
      <trkpt lat="60.95168" lon="11.50614">
        <ele>232.19999694824</ele>
        <time>2019-06-15T08:13:15Z</time>
      </trkpt>
      <trkpt lat="60.9531" lon="11.50498">
        <ele>232.19999694824</ele>
        <time>2019-06-15T08:13:33Z</time>
      </trkpt>
      <trkpt lat="60.9536" lon="11.5047">
        <ele>232.39999389648</ele>
        <time>2019-06-15T08:13:47Z</time>
      </trkpt>
      <trkpt lat="60.95446" lon="11.50446">
        <ele>232.39999389648</ele>
        <time>2019-06-15T08:14:04Z</time>
      </trkpt>
      <trkpt lat="60.95565" lon="11.50466">
        <ele>232.80000305176</ele>
        <time>2019-06-15T08:14:23Z</time>
      </trkpt>
      <trkpt lat="60.95645" lon="11.50476">
        <ele>232.60000610352</ele>
        <time>2019-06-15T08:14:47Z</time>
      </trkpt>
      <trkpt lat="60.95714" lon="11.5046">
        <ele>232.80000305176</ele>
        <time>2019-06-15T08:15:01Z</time>
      </trkpt>
      <trkpt lat="60.95819" lon="11.50373">
        <ele>232.80000305176</ele>
        <time>2019-06-15T08:15:17Z</time>
      </trkpt>
      <trkpt lat="60.95878" lon="11.503">
        <ele>232.39999389648</ele>
        <time>2019-06-15T08:15:43Z</time>
      </trkpt>
      <trkpt lat="60.95932" lon="11.5024">
        <ele>232.60000610352</ele>
        <time>2019-06-15T08:16:02Z</time>
      </trkpt>
      <trkpt lat="60.96021" lon="11.50216">
        <ele>233.19999694824</ele>
        <time>2019-06-15T08:16:21Z</time>
      </trkpt>
      <trkpt lat="60.96107" lon="11.50213">
        <ele>233.60000610352</ele>
        <time>2019-06-15T08:16:34Z</time>
      </trkpt>
      <trkpt lat="60.9616" lon="11.50183">
        <ele>235</ele>
        <time>2019-06-15T08:16:51Z</time>
      </trkpt>
      <trkpt lat="60.96247" lon="11.50123">
        <ele>235.19999694824</ele>
        <time>2019-06-15T08:17:14Z</time>
      </trkpt>
      <trkpt lat="60.96396" lon="11.50065">
        <ele>234.19999694824</ele>
        <time>2019-06-15T08:17:31Z</time>
      </trkpt>
      <trkpt lat="60.96433" lon="11.50052">
        <ele>234.19999694824</ele>
        <time>2019-06-15T08:17:33Z</time>
      </trkpt>
      <trkpt lat="60.96471" lon="11.50049">
        <ele>235.39999389648</ele>
        <time>2019-06-15T08:17:55Z</time>
      </trkpt>
      <trkpt lat="60.96608" lon="11.49978">
        <ele>237.80000305176</ele>
        <time>2019-06-15T08:18:11Z</time>
      </trkpt>
      <trkpt lat="60.96752" lon="11.49881">
        <ele>236.19999694824</ele>
        <time>2019-06-15T08:18:30Z</time>
      </trkpt>
      <trkpt lat="60.96816" lon="11.49835">
        <ele>236</ele>
        <time>2019-06-15T08:18:58Z</time>
      </trkpt>
      <trkpt lat="60.96924" lon="11.49751">
        <ele>235</ele>
        <time>2019-06-15T08:19:18Z</time>
      </trkpt>
      <trkpt lat="60.96903" lon="11.4973">
        <ele>234.19999694824</ele>
        <time>2019-06-15T08:19:34Z</time>
      </trkpt>
      <trkpt lat="60.96893" lon="11.49728">
        <ele>234.60000610352</ele>
        <time>2019-06-15T08:19:53Z</time>
      </trkpt>
      <trkpt lat="60.9688" lon="11.49687">
        <ele>234.39999389648</ele>
        <time>2019-06-15T08:20:09Z</time>
      </trkpt>
      <trkpt lat="60.96961" lon="11.49744">
        <ele>314.60000610352</ele>
        <time>2019-06-15T08:20:19Z</time>
      </trkpt>
      <trkpt lat="60.9697" lon="11.49737">
        <ele>314.39999389648</ele>
        <time>2019-06-15T08:20:36Z</time>
      </trkpt>
      <trkpt lat="60.97031" lon="11.49698">
        <ele>314.39999389648</ele>
        <time>2019-06-15T08:20:53Z</time>
      </trkpt>
      <trkpt lat="60.97101" lon="11.49648">
        <ele>314.20001220703</ele>
        <time>2019-06-15T08:21:23Z</time>
      </trkpt>
      <trkpt lat="60.97476" lon="11.49332">
        <ele>314.20001220703</ele>
        <time>2019-06-15T08:21:42Z</time>
      </trkpt>
      <trkpt lat="60.97493" lon="11.49308">
        <ele>314.39999389648</ele>
        <time>2019-06-15T08:22:05Z</time>
      </trkpt>
      <trkpt lat="60.97508" lon="11.49292">
        <ele>314.20001220703</ele>
        <time>2019-06-15T08:22:23Z</time>
      </trkpt>
      <trkpt lat="60.97596" lon="11.49207">
        <ele>315.20001220703</ele>
        <time>2019-06-15T08:22:34Z</time>
      </trkpt>
      <trkpt lat="60.97713" lon="11.49135">
        <ele>318.20001220703</ele>
        <time>2019-06-15T08:23:07Z</time>
      </trkpt>
      <trkpt lat="60.97715" lon="11.49135">
        <ele>319</ele>
        <time>2019-06-15T08:23:25Z</time>
      </trkpt>
      <trkpt lat="60.97848" lon="11.49049">
        <ele>321.60000610352</ele>
        <time>2019-06-15T08:23:48Z</time>
      </trkpt>
      <trkpt lat="60.97916" lon="11.4898">
        <ele>321.60000610352</ele>
        <time>2019-06-15T08:23:54Z</time>
      </trkpt>
      <trkpt lat="60.9801" lon="11.48808">
        <ele>319.79998779297</ele>
        <time>2019-06-15T08:23:59Z</time>
      </trkpt>
      <trkpt lat="60.98059" lon="11.48677">
        <ele>317.60000610352</ele>
        <time>2019-06-15T08:24:12Z</time>
      </trkpt>
      <trkpt lat="60.98117" lon="11.48518">
        <ele>317</ele>
        <time>2019-06-15T08:24:20Z</time>
      </trkpt>
      <trkpt lat="60.98151" lon="11.4843">
        <ele>318.20001220703</ele>
        <time>2019-06-15T08:24:29Z</time>
      </trkpt>
      <trkpt lat="60.98177" lon="11.48361">
        <ele>319.60000610352</ele>
        <time>2019-06-15T08:24:39Z</time>
      </trkpt>
      <trkpt lat="60.9822" lon="11.48237">
        <ele>323</ele>
        <time>2019-06-15T08:24:47Z</time>
      </trkpt>
      <trkpt lat="60.98237" lon="11.48188">
        <ele>323.79998779297</ele>
        <time>2019-06-15T08:24:56Z</time>
      </trkpt>
      <trkpt lat="60.98311" lon="11.47985">
        <ele>323.39999389648</ele>
        <time>2019-06-15T08:25:06Z</time>
      </trkpt>
      <trkpt lat="60.984" lon="11.47736">
        <ele>322</ele>
        <time>2019-06-15T08:25:13Z</time>
      </trkpt>
      <trkpt lat="60.98442" lon="11.47619">
        <ele>323.20001220703</ele>
        <time>2019-06-15T08:25:30Z</time>
      </trkpt>
      <trkpt lat="60.98463" lon="11.47558">
        <ele>324.60000610352</ele>
        <time>2019-06-15T08:25:37Z</time>
      </trkpt>
      <trkpt lat="60.98505" lon="11.47426">
        <ele>326.20001220703</ele>
        <time>2019-06-15T08:25:40Z</time>
      </trkpt>
      <trkpt lat="60.98554" lon="11.4727">
        <ele>325.79998779297</ele>
        <time>2019-06-15T08:25:47Z</time>
      </trkpt>
      <trkpt lat="60.98581" lon="11.47189">
        <ele>325</ele>
        <time>2019-06-15T08:25:53Z</time>
      </trkpt>
      <trkpt lat="60.98633" lon="11.47033">
        <ele>325.20001220703</ele>
        <time>2019-06-15T08:26:03Z</time>
      </trkpt>
      <trkpt lat="60.98674" lon="11.46923">
        <ele>326.79998779297</ele>
        <time>2019-06-15T08:26:11Z</time>
      </trkpt>
      <trkpt lat="60.98704" lon="11.46855">
        <ele>328.20001220703</ele>
        <time>2019-06-15T08:26:15Z</time>
      </trkpt>
      <trkpt lat="60.98789" lon="11.46702">
        <ele>332.60000610352</ele>
        <time>2019-06-15T08:26:32Z</time>
      </trkpt>
      <trkpt lat="60.98855" lon="11.46621">
        <ele>334</ele>
        <time>2019-06-15T08:26:48Z</time>
      </trkpt>
      <trkpt lat="60.9892" lon="11.46547">
        <ele>335.79998779297</ele>
        <time>2019-06-15T08:27:08Z</time>
      </trkpt>
      <trkpt lat="60.98944" lon="11.46518">
        <ele>335.79998779297</ele>
        <time>2019-06-15T08:27:39Z</time>
      </trkpt>
      <trkpt lat="60.98987" lon="11.46467">
        <ele>336.60000610352</ele>
        <time>2019-06-15T08:27:57Z</time>
      </trkpt>
      <trkpt lat="60.99006" lon="11.46436">
        <ele>336.60000610352</ele>
        <time>2019-06-15T08:28:21Z</time>
      </trkpt>
      <trkpt lat="60.9904" lon="11.46365">
        <ele>336.79998779297</ele>
        <time>2019-06-15T08:28:34Z</time>
      </trkpt>
      <trkpt lat="60.99093" lon="11.46212">
        <ele>336.39999389648</ele>
        <time>2019-06-15T08:28:55Z</time>
      </trkpt>
      <trkpt lat="60.99131" lon="11.45986">
        <ele>335</ele>
        <time>2019-06-15T08:29:27Z</time>
      </trkpt>
      <trkpt lat="60.99144" lon="11.45887">
        <ele>333.79998779297</ele>
        <time>2019-06-15T08:29:49Z</time>
      </trkpt>
      <trkpt lat="60.99172" lon="11.45666">
        <ele>331.79998779297</ele>
        <time>2019-06-15T08:30:09Z</time>
      </trkpt>
      <trkpt lat="60.99153" lon="11.45678">
        <ele>331.39999389648</ele>
        <time>2019-06-15T08:30:34Z</time>
      </trkpt>
      <trkpt lat="60.99147" lon="11.45667">
        <ele>332</ele>
        <time>2019-06-15T08:30:58Z</time>
      </trkpt>
      <trkpt lat="60.99173" lon="11.45646">
        <ele>331.39999389648</ele>
        <time>2019-06-15T08:31:19Z</time>
      </trkpt>
      <trkpt lat="60.99186" lon="11.45587">
        <ele>331</ele>
        <time>2019-06-15T08:32:21Z</time>
      </trkpt>
      <trkpt lat="60.99222" lon="11.4541">
        <ele>330.79998779297</ele>
        <time>2019-06-15T08:32:37Z</time>
      </trkpt>
      <trkpt lat="60.99251" lon="11.45276">
        <ele>331.79998779297</ele>
        <time>2019-06-15T08:32:54Z</time>
      </trkpt>
      <trkpt lat="60.99291" lon="11.45117">
        <ele>331.20001220703</ele>
        <time>2019-06-15T08:32:58Z</time>
      </trkpt>
      <trkpt lat="60.99318" lon="11.45015">
        <ele>330.39999389648</ele>
        <time>2019-06-15T08:33:01Z</time>
      </trkpt>
      <trkpt lat="60.99375" lon="11.44802">
        <ele>327</ele>
        <time>2019-06-15T08:33:05Z</time>
      </trkpt>
      <trkpt lat="60.99425" lon="11.44655">
        <ele>326.39999389648</ele>
        <time>2019-06-15T08:33:18Z</time>
      </trkpt>
      <trkpt lat="60.99489" lon="11.44484">
        <ele>329.79998779297</ele>
        <time>2019-06-15T08:33:32Z</time>
      </trkpt>
      <trkpt lat="60.99537" lon="11.44388">
        <ele>331</ele>
        <time>2019-06-15T08:34:38Z</time>
      </trkpt>
      <trkpt lat="60.99558" lon="11.44351">
        <ele>331.20001220703</ele>
        <time>2019-06-15T08:34:42Z</time>
      </trkpt>
      <trkpt lat="60.99619" lon="11.44253">
        <ele>331.39999389648</ele>
        <time>2019-06-15T08:35:00Z</time>
      </trkpt>
      <trkpt lat="60.99679" lon="11.44148">
        <ele>331.39999389648</ele>
        <time>2019-06-15T08:35:15Z</time>
      </trkpt>
      <trkpt lat="60.99726" lon="11.44056">
        <ele>331.20001220703</ele>
        <time>2019-06-15T08:35:29Z</time>
      </trkpt>
      <trkpt lat="60.99784" lon="11.43886">
        <ele>331.20001220703</ele>
        <time>2019-06-15T08:35:44Z</time>
      </trkpt>
      <trkpt lat="60.99837" lon="11.43697">
        <ele>330.20001220703</ele>
        <time>2019-06-15T08:35:49Z</time>
      </trkpt>
      <trkpt lat="60.99857" lon="11.43617">
        <ele>329.39999389648</ele>
        <time>2019-06-15T08:36:40Z</time>
      </trkpt>
      <trkpt lat="60.99901" lon="11.43481">
        <ele>328.60000610352</ele>
        <time>2019-06-15T08:36:49Z</time>
      </trkpt>
      <trkpt lat="60.99982" lon="11.43319">
        <ele>329</ele>
        <time>2019-06-15T08:36:59Z</time>
      </trkpt>
      <trkpt lat="61.00124" lon="11.43112">
        <ele>331</ele>
        <time>2019-06-15T08:37:28Z</time>
      </trkpt>
      <trkpt lat="61.00189" lon="11.43009">
        <ele>331.20001220703</ele>
        <time>2019-06-15T08:37:49Z</time>
      </trkpt>
      <trkpt lat="61.00298" lon="11.42793">
        <ele>329.79998779297</ele>
        <time>2019-06-15T08:38:07Z</time>
      </trkpt>
      <trkpt lat="61.00338" lon="11.42712">
        <ele>329</ele>
        <time>2019-06-15T08:38:39Z</time>
      </trkpt>
      <trkpt lat="61.00361" lon="11.42667">
        <ele>329</ele>
        <time>2019-06-15T08:38:54Z</time>
      </trkpt>
      <trkpt lat="61.00445" lon="11.4251">
        <ele>328.20001220703</ele>
        <time>2019-06-15T08:39:07Z</time>
      </trkpt>
      <trkpt lat="61.00514" lon="11.42407">
        <ele>328</ele>
        <time>2019-06-15T08:39:26Z</time>
      </trkpt>
      <trkpt lat="61.00554" lon="11.42354">
        <ele>328</ele>
        <time>2019-06-15T08:39:45Z</time>
      </trkpt>
      <trkpt lat="61.00587" lon="11.42304">
        <ele>327.79998779297</ele>
        <time>2019-06-15T08:40:17Z</time>
      </trkpt>
      <trkpt lat="61.00613" lon="11.42264">
        <ele>327.79998779297</ele>
        <time>2019-06-15T08:40:36Z</time>
      </trkpt>
      <trkpt lat="61.00714" lon="11.42116">
        <ele>326.60000610352</ele>
        <time>2019-06-15T08:40:52Z</time>
      </trkpt>
      <trkpt lat="61.00779" lon="11.42017">
        <ele>326.39999389648</ele>
        <time>2019-06-15T08:41:00Z</time>
      </trkpt>
      <trkpt lat="61.009" lon="11.41843">
        <ele>325</ele>
        <time>2019-06-15T08:41:03Z</time>
      </trkpt>
      <trkpt lat="61.00945" lon="11.41785">
        <ele>324.79998779297</ele>
        <time>2019-06-15T08:41:18Z</time>
      </trkpt>
      <trkpt lat="61.01018" lon="11.41697">
        <ele>324.60000610352</ele>
        <time>2019-06-15T08:41:31Z</time>
      </trkpt>
      <trkpt lat="61.01076" lon="11.41632">
        <ele>324.79998779297</ele>
        <time>2019-06-15T08:41:41Z</time>
      </trkpt>
      <trkpt lat="61.01148" lon="11.41563">
        <ele>325.60000610352</ele>
        <time>2019-06-15T08:41:55Z</time>
      </trkpt>
      <trkpt lat="61.01209" lon="11.41513">
        <ele>326</ele>
        <time>2019-06-15T08:42:07Z</time>
      </trkpt>
      <trkpt lat="61.01353" lon="11.41405">
        <ele>328</ele>
        <time>2019-06-15T08:42:32Z</time>
      </trkpt>
      <trkpt lat="61.01478" lon="11.41318">
        <ele>329</ele>
        <time>2019-06-15T08:42:53Z</time>
      </trkpt>
      <trkpt lat="61.01771" lon="11.41175">
        <ele>332.39999389648</ele>
        <time>2019-06-15T08:43:13Z</time>
      </trkpt>
      <trkpt lat="61.01826" lon="11.4115">
        <ele>332.39999389648</ele>
        <time>2019-06-15T08:43:31Z</time>
      </trkpt>
      <trkpt lat="61.01831" lon="11.41146">
        <ele>332.60000610352</ele>
        <time>2019-06-15T08:43:40Z</time>
      </trkpt>
      <trkpt lat="61.01874" lon="11.41128">
        <ele>332.79998779297</ele>
        <time>2019-06-15T08:43:45Z</time>
      </trkpt>
      <trkpt lat="61.01928" lon="11.41105">
        <ele>332.20001220703</ele>
        <time>2019-06-15T08:43:58Z</time>
      </trkpt>
      <trkpt lat="61.02024" lon="11.41091">
        <ele>332.79998779297</ele>
        <time>2019-06-15T08:44:05Z</time>
      </trkpt>
      <trkpt lat="61.02098" lon="11.41089">
        <ele>335.39999389648</ele>
        <time>2019-06-15T08:44:19Z</time>
      </trkpt>
      <trkpt lat="61.02294" lon="11.41084">
        <ele>346</ele>
        <time>2019-06-15T08:45:17Z</time>
      </trkpt>
      <trkpt lat="61.02385" lon="11.41063">
        <ele>349.60000610352</ele>
        <time>2019-06-15T08:45:25Z</time>
      </trkpt>
      <trkpt lat="61.02522" lon="11.41009">
        <ele>353.20001220703</ele>
        <time>2019-06-15T08:45:35Z</time>
      </trkpt>
      <trkpt lat="61.02661" lon="11.40944">
        <ele>354.60000610352</ele>
        <time>2019-06-15T08:45:41Z</time>
      </trkpt>
      <trkpt lat="61.02824" lon="11.40916">
        <ele>355</ele>
        <time>2019-06-15T08:45:47Z</time>
      </trkpt>
      <trkpt lat="61.0293" lon="11.40915">
        <ele>354.79998779297</ele>
        <time>2019-06-15T08:46:03Z</time>
      </trkpt>
      <trkpt lat="61.03003" lon="11.40884">
        <ele>355.60000610352</ele>
        <time>2019-06-15T08:46:10Z</time>
      </trkpt>
      <trkpt lat="61.03155" lon="11.40783">
        <ele>356.79998779297</ele>
        <time>2019-06-15T08:46:23Z</time>
      </trkpt>
      <trkpt lat="61.03229" lon="11.40729">
        <ele>357.60000610352</ele>
        <time>2019-06-15T08:46:39Z</time>
      </trkpt>
      <trkpt lat="61.03344" lon="11.40645">
        <ele>358</ele>
        <time>2019-06-15T08:46:49Z</time>
      </trkpt>
      <trkpt lat="61.03426" lon="11.40583">
        <ele>358.20001220703</ele>
        <time>2019-06-15T08:46:58Z</time>
      </trkpt>
      <trkpt lat="61.03483" lon="11.40539">
        <ele>358.20001220703</ele>
        <time>2019-06-15T08:47:09Z</time>
      </trkpt>
      <trkpt lat="61.03575" lon="11.40444">
        <ele>358</ele>
        <time>2019-06-15T08:47:22Z</time>
      </trkpt>
      <trkpt lat="61.03643" lon="11.40358">
        <ele>356.79998779297</ele>
        <time>2019-06-15T08:47:31Z</time>
      </trkpt>
      <trkpt lat="61.0373" lon="11.40232">
        <ele>355.60000610352</ele>
        <time>2019-06-15T08:47:40Z</time>
      </trkpt>
      <trkpt lat="61.03806" lon="11.40112">
        <ele>356</ele>
        <time>2019-06-15T08:47:55Z</time>
      </trkpt>
      <trkpt lat="61.03861" lon="11.40006">
        <ele>356</ele>
        <time>2019-06-15T08:48:08Z</time>
      </trkpt>
      <trkpt lat="61.03908" lon="11.39926">
        <ele>355.20001220703</ele>
        <time>2019-06-15T08:48:24Z</time>
      </trkpt>
      <trkpt lat="61.0394" lon="11.39888">
        <ele>355</ele>
        <time>2019-06-15T08:48:39Z</time>
      </trkpt>
      <trkpt lat="61.04076" lon="11.39783">
        <ele>353.39999389648</ele>
        <time>2019-06-15T08:48:58Z</time>
      </trkpt>
      <trkpt lat="61.04139" lon="11.39702">
        <ele>353.20001220703</ele>
        <time>2019-06-15T08:49:18Z</time>
      </trkpt>
      <trkpt lat="61.0422" lon="11.39493">
        <ele>352.39999389648</ele>
        <time>2019-06-15T08:49:26Z</time>
      </trkpt>
      <trkpt lat="61.04274" lon="11.39303">
        <ele>349.79998779297</ele>
        <time>2019-06-15T08:49:47Z</time>
      </trkpt>
      <trkpt lat="61.0437" lon="11.38972">
        <ele>342.79998779297</ele>
        <time>2019-06-15T08:50:03Z</time>
      </trkpt>
      <trkpt lat="61.04399" lon="11.3887">
        <ele>341.20001220703</ele>
        <time>2019-06-15T08:50:07Z</time>
      </trkpt>
      <trkpt lat="61.04485" lon="11.386">
        <ele>335</ele>
        <time>2019-06-15T08:50:11Z</time>
      </trkpt>
      <trkpt lat="61.0458" lon="11.38439">
        <ele>329.60000610352</ele>
        <time>2019-06-15T08:50:31Z</time>
      </trkpt>
      <trkpt lat="61.04628" lon="11.38376">
        <ele>329.20001220703</ele>
        <time>2019-06-15T08:50:46Z</time>
      </trkpt>
      <trkpt lat="61.04694" lon="11.38288">
        <ele>330.39999389648</ele>
        <time>2019-06-15T08:51:03Z</time>
      </trkpt>
      <trkpt lat="61.04758" lon="11.38196">
        <ele>331</ele>
        <time>2019-06-15T08:51:19Z</time>
      </trkpt>
      <trkpt lat="61.04913" lon="11.38022">
        <ele>333.60000610352</ele>
        <time>2019-06-15T08:51:26Z</time>
      </trkpt>
      <trkpt lat="61.04985" lon="11.37963">
        <ele>334</ele>
        <time>2019-06-15T08:51:34Z</time>
      </trkpt>
      <trkpt lat="61.05063" lon="11.37921">
        <ele>334.60000610352</ele>
        <time>2019-06-15T08:51:40Z</time>
      </trkpt>
      <trkpt lat="61.0527" lon="11.37849">
        <ele>335.79998779297</ele>
        <time>2019-06-15T08:51:48Z</time>
      </trkpt>
      <trkpt lat="61.05484" lon="11.37784">
        <ele>335.79998779297</ele>
        <time>2019-06-15T08:52:09Z</time>
      </trkpt>
      <trkpt lat="61.0561" lon="11.37739">
        <ele>335.39999389648</ele>
        <time>2019-06-15T08:52:29Z</time>
      </trkpt>
      <trkpt lat="61.05666" lon="11.37684">
        <ele>335.39999389648</ele>
        <time>2019-06-15T08:52:48Z</time>
      </trkpt>
      <trkpt lat="61.05716" lon="11.37619">
        <ele>335.60000610352</ele>
        <time>2019-06-15T08:53:07Z</time>
      </trkpt>
      <trkpt lat="61.05835" lon="11.37448">
        <ele>335</ele>
        <time>2019-06-15T08:53:23Z</time>
      </trkpt>
      <trkpt lat="61.05886" lon="11.37379">
        <ele>334.39999389648</ele>
        <time>2019-06-15T08:53:31Z</time>
      </trkpt>
      <trkpt lat="61.05904" lon="11.37357">
        <ele>334</ele>
        <time>2019-06-15T08:53:43Z</time>
      </trkpt>
      <trkpt lat="61.0599" lon="11.37297">
        <ele>333.20001220703</ele>
        <time>2019-06-15T08:54:03Z</time>
      </trkpt>
      <trkpt lat="61.06061" lon="11.3727">
        <ele>333.20001220703</ele>
        <time>2019-06-15T08:54:19Z</time>
      </trkpt>
      <trkpt lat="61.0614" lon="11.37216">
        <ele>332.79998779297</ele>
        <time>2019-06-15T08:54:27Z</time>
      </trkpt>
      <trkpt lat="61.06211" lon="11.37126">
        <ele>331.60000610352</ele>
        <time>2019-06-15T08:54:44Z</time>
      </trkpt>
      <trkpt lat="61.06345" lon="11.36943">
        <ele>329.79998779297</ele>
        <time>2019-06-15T08:54:54Z</time>
      </trkpt>
      <trkpt lat="61.06387" lon="11.36896">
        <ele>329.20001220703</ele>
        <time>2019-06-15T08:55:11Z</time>
      </trkpt>
      <trkpt lat="61.06412" lon="11.36874">
        <ele>328.60000610352</ele>
        <time>2019-06-15T08:55:29Z</time>
      </trkpt>
      <trkpt lat="61.06461" lon="11.36842">
        <ele>328</ele>
        <time>2019-06-15T08:55:39Z</time>
      </trkpt>
      <trkpt lat="61.0659" lon="11.36816">
        <ele>326.79998779297</ele>
        <time>2019-06-15T08:56:08Z</time>
      </trkpt>
      <trkpt lat="61.0665" lon="11.36832">
        <ele>326.79998779297</ele>
        <time>2019-06-15T08:56:28Z</time>
      </trkpt>
      <trkpt lat="61.06763" lon="11.36892">
        <ele>328.20001220703</ele>
        <time>2019-06-15T08:56:36Z</time>
      </trkpt>
      <trkpt lat="61.06864" lon="11.36956">
        <ele>330.60000610352</ele>
        <time>2019-06-15T08:57:00Z</time>
      </trkpt>
      <trkpt lat="61.06939" lon="11.36994">
        <ele>331.79998779297</ele>
        <time>2019-06-15T08:57:18Z</time>
      </trkpt>
      <trkpt lat="61.07064" lon="11.37001">
        <ele>332.39999389648</ele>
        <time>2019-06-15T08:57:27Z</time>
      </trkpt>
      <trkpt lat="61.07088" lon="11.37">
        <ele>331.39999389648</ele>
        <time>2019-06-15T08:57:53Z</time>
      </trkpt>
      <trkpt lat="61.07144" lon="11.37001">
        <ele>331.39999389648</ele>
        <time>2019-06-15T08:58:08Z</time>
      </trkpt>
      <trkpt lat="61.07333" lon="11.37068">
        <ele>330</ele>
        <time>2019-06-15T08:58:20Z</time>
      </trkpt>
      <trkpt lat="61.07402" lon="11.37083">
        <ele>331.20001220703</ele>
        <time>2019-06-15T08:58:30Z</time>
      </trkpt>
      <trkpt lat="61.07491" lon="11.37081">
        <ele>334.20001220703</ele>
        <time>2019-06-15T08:58:32Z</time>
      </trkpt>
      <trkpt lat="61.07621" lon="11.37068">
        <ele>335.39999389648</ele>
        <time>2019-06-15T08:58:38Z</time>
      </trkpt>
      <trkpt lat="61.07709" lon="11.37059">
        <ele>335.39999389648</ele>
        <time>2019-06-15T08:58:41Z</time>
      </trkpt>
      <trkpt lat="61.0792" lon="11.37037">
        <ele>336</ele>
        <time>2019-06-15T08:58:56Z</time>
      </trkpt>
      <trkpt lat="61.08004" lon="11.37045">
        <ele>335.20001220703</ele>
        <time>2019-06-15T08:59:11Z</time>
      </trkpt>
      <trkpt lat="61.08231" lon="11.37018">
        <ele>330.39999389648</ele>
        <time>2019-06-15T08:59:17Z</time>
      </trkpt>
      <trkpt lat="61.08335" lon="11.36999">
        <ele>329.39999389648</ele>
        <time>2019-06-15T08:59:23Z</time>
      </trkpt>
      <trkpt lat="61.08569" lon="11.36962">
        <ele>330</ele>
        <time>2019-06-15T08:59:34Z</time>
      </trkpt>
      <trkpt lat="61.08628" lon="11.36954">
        <ele>330.39999389648</ele>
        <time>2019-06-15T08:59:47Z</time>
      </trkpt>
      <trkpt lat="61.08693" lon="11.36944">
        <ele>330.39999389648</ele>
        <time>2019-06-15T08:59:58Z</time>
      </trkpt>
      <trkpt lat="61.0886" lon="11.36907">
        <ele>329.39999389648</ele>
        <time>2019-06-15T09:02:08Z</time>
      </trkpt>
      <trkpt lat="61.08887" lon="11.36888">
        <ele>328.79998779297</ele>
        <time>2019-06-15T09:02:16Z</time>
      </trkpt>
      <trkpt lat="61.08942" lon="11.36842">
        <ele>328.39999389648</ele>
        <time>2019-06-15T09:02:35Z</time>
      </trkpt>
      <trkpt lat="61.09025" lon="11.36771">
        <ele>328.39999389648</ele>
        <time>2019-06-15T09:02:49Z</time>
      </trkpt>
      <trkpt lat="61.09105" lon="11.36739">
        <ele>328.79998779297</ele>
        <time>2019-06-15T09:03:08Z</time>
      </trkpt>
      <trkpt lat="61.09166" lon="11.36764">
        <ele>328.60000610352</ele>
        <time>2019-06-15T09:03:16Z</time>
      </trkpt>
      <trkpt lat="61.09214" lon="11.36801">
        <ele>328.60000610352</ele>
        <time>2019-06-15T09:03:24Z</time>
      </trkpt>
      <trkpt lat="61.09342" lon="11.3695">
        <ele>328.79998779297</ele>
        <time>2019-06-15T09:03:38Z</time>
      </trkpt>
      <trkpt lat="61.09434" lon="11.37058">
        <ele>329</ele>
        <time>2019-06-15T09:03:47Z</time>
      </trkpt>
      <trkpt lat="61.09468" lon="11.37088">
        <ele>329</ele>
        <time>2019-06-15T09:03:58Z</time>
      </trkpt>
      <trkpt lat="61.0947" lon="11.37092">
        <ele>328.79998779297</ele>
        <time>2019-06-15T09:04:08Z</time>
      </trkpt>
      <trkpt lat="61.09515" lon="11.37154">
        <ele>328.79998779297</ele>
        <time>2019-06-15T09:04:15Z</time>
      </trkpt>
      <trkpt lat="61.09611" lon="11.37266">
        <ele>329.20001220703</ele>
        <time>2019-06-15T09:04:35Z</time>
      </trkpt>
      <trkpt lat="61.09663" lon="11.37322">
        <ele>329.20001220703</ele>
        <time>2019-06-15T09:04:48Z</time>
      </trkpt>
      <trkpt lat="61.09749" lon="11.37393">
        <ele>329</ele>
        <time>2019-06-15T09:04:56Z</time>
      </trkpt>
      <trkpt lat="61.09904" lon="11.37528">
        <ele>330.39999389648</ele>
        <time>2019-06-15T09:05:19Z</time>
      </trkpt>
      <trkpt lat="61.09945" lon="11.37565">
        <ele>330.60000610352</ele>
        <time>2019-06-15T09:05:29Z</time>
      </trkpt>
      <trkpt lat="61.10017" lon="11.37651">
        <ele>330.20001220703</ele>
        <time>2019-06-15T09:05:37Z</time>
      </trkpt>
      <trkpt lat="61.10076" lon="11.37701">
        <ele>329.79998779297</ele>
        <time>2019-06-15T09:05:51Z</time>
      </trkpt>
      <trkpt lat="61.10095" lon="11.37713">
        <ele>329.79998779297</ele>
        <time>2019-06-15T09:06:08Z</time>
      </trkpt>
      <trkpt lat="61.10184" lon="11.37769">
        <ele>329.20001220703</ele>
        <time>2019-06-15T09:06:21Z</time>
      </trkpt>
      <trkpt lat="61.10385" lon="11.37892">
        <ele>329.20001220703</ele>
        <time>2019-06-15T09:06:37Z</time>
      </trkpt>
      <trkpt lat="61.10501" lon="11.37956">
        <ele>329.79998779297</ele>
        <time>2019-06-15T09:06:52Z</time>
      </trkpt>
      <trkpt lat="61.10576" lon="11.37967">
        <ele>330.39999389648</ele>
        <time>2019-06-15T09:07:03Z</time>
      </trkpt>
      <trkpt lat="61.10633" lon="11.37964">
        <ele>331.60000610352</ele>
        <time>2019-06-15T09:07:12Z</time>
      </trkpt>
      <trkpt lat="61.10741" lon="11.37947">
        <ele>332.60000610352</ele>
        <time>2019-06-15T09:07:26Z</time>
      </trkpt>
      <trkpt lat="61.10829" lon="11.37921">
        <ele>331.39999389648</ele>
        <time>2019-06-15T09:07:38Z</time>
      </trkpt>
      <trkpt lat="61.10918" lon="11.37909">
        <ele>331</ele>
        <time>2019-06-15T09:07:46Z</time>
      </trkpt>
      <trkpt lat="61.10976" lon="11.37918">
        <ele>330.60000610352</ele>
        <time>2019-06-15T09:08:06Z</time>
      </trkpt>
      <trkpt lat="61.11073" lon="11.37917">
        <ele>330.20001220703</ele>
        <time>2019-06-15T09:08:28Z</time>
      </trkpt>
      <trkpt lat="61.11118" lon="11.37903">
        <ele>329.79998779297</ele>
        <time>2019-06-15T09:08:42Z</time>
      </trkpt>
      <trkpt lat="61.11217" lon="11.37868">
        <ele>330.39999389648</ele>
        <time>2019-06-15T09:08:58Z</time>
      </trkpt>
      <trkpt lat="61.11309" lon="11.37834">
        <ele>330.79998779297</ele>
        <time>2019-06-15T09:09:04Z</time>
      </trkpt>
      <trkpt lat="61.11434" lon="11.37736">
        <ele>331</ele>
        <time>2019-06-15T09:09:11Z</time>
      </trkpt>
      <trkpt lat="61.11516" lon="11.37664">
        <ele>331.20001220703</ele>
        <time>2019-06-15T09:09:26Z</time>
      </trkpt>
      <trkpt lat="61.11603" lon="11.37627">
        <ele>331.39999389648</ele>
        <time>2019-06-15T09:09:35Z</time>
      </trkpt>
      <trkpt lat="61.11745" lon="11.37576">
        <ele>331.60000610352</ele>
        <time>2019-06-15T09:09:43Z</time>
      </trkpt>
      <trkpt lat="61.11786" lon="11.37561">
        <ele>331.39999389648</ele>
        <time>2019-06-15T09:09:50Z</time>
      </trkpt>
      <trkpt lat="61.11867" lon="11.3754">
        <ele>331.60000610352</ele>
        <time>2019-06-15T09:09:54Z</time>
      </trkpt>
      <trkpt lat="61.11964" lon="11.37554">
        <ele>330.79998779297</ele>
        <time>2019-06-15T09:10:31Z</time>
      </trkpt>
      <trkpt lat="61.12069" lon="11.37597">
        <ele>330.79998779297</ele>
        <time>2019-06-15T09:10:35Z</time>
      </trkpt>
      <trkpt lat="61.12165" lon="11.37665">
        <ele>332.60000610352</ele>
        <time>2019-06-15T09:10:45Z</time>
      </trkpt>
      <trkpt lat="61.12309" lon="11.3776">
        <ele>339.39999389648</ele>
        <time>2019-06-15T09:10:49Z</time>
      </trkpt>
      <trkpt lat="61.1233" lon="11.37787">
        <ele>340.20001220703</ele>
        <time>2019-06-15T09:10:52Z</time>
      </trkpt>
      <trkpt lat="61.12385" lon="11.37879">
        <ele>341.20001220703</ele>
        <time>2019-06-15T09:10:55Z</time>
      </trkpt>
      <trkpt lat="61.12414" lon="11.37923">
        <ele>342.20001220703</ele>
        <time>2019-06-15T09:10:59Z</time>
      </trkpt>
      <trkpt lat="61.12587" lon="11.38034">
        <ele>348.79998779297</ele>
        <time>2019-06-15T09:11:02Z</time>
      </trkpt>
      <trkpt lat="61.12623" lon="11.38049">
        <ele>349.60000610352</ele>
        <time>2019-06-15T09:11:05Z</time>
      </trkpt>
      <trkpt lat="61.1278" lon="11.3815">
        <ele>352.20001220703</ele>
        <time>2019-06-15T09:11:08Z</time>
      </trkpt>
      <trkpt lat="61.1284" lon="11.38187">
        <ele>353.60000610352</ele>
        <time>2019-06-15T09:11:22Z</time>
      </trkpt>
      <trkpt lat="61.12932" lon="11.38257">
        <ele>355</ele>
        <time>2019-06-15T09:11:31Z</time>
      </trkpt>
      <trkpt lat="61.12965" lon="11.38298">
        <ele>356.39999389648</ele>
        <time>2019-06-15T09:11:45Z</time>
      </trkpt>
      <trkpt lat="61.12991" lon="11.3833">
        <ele>356.39999389648</ele>
        <time>2019-06-15T09:11:54Z</time>
      </trkpt>
      <trkpt lat="61.13066" lon="11.38419">
        <ele>354.79998779297</ele>
        <time>2019-06-15T09:12:08Z</time>
      </trkpt>
      <trkpt lat="61.13205" lon="11.38506">
        <ele>350.20001220703</ele>
        <time>2019-06-15T09:12:16Z</time>
      </trkpt>
      <trkpt lat="61.13337" lon="11.38497">
        <ele>345.79998779297</ele>
        <time>2019-06-15T09:12:33Z</time>
      </trkpt>
      <trkpt lat="61.13385" lon="11.38553">
        <ele>343.79998779297</ele>
        <time>2019-06-15T09:12:42Z</time>
      </trkpt>
      <trkpt lat="61.13408" lon="11.38563">
        <ele>337.20001220703</ele>
        <time>2019-06-15T09:13:00Z</time>
      </trkpt>
      <trkpt lat="61.13399" lon="11.38545">
        <ele>337.39999389648</ele>
        <time>2019-06-15T09:13:11Z</time>
      </trkpt>
      <trkpt lat="61.13344" lon="11.38458">
        <ele>337.60000610352</ele>
        <time>2019-06-15T09:13:18Z</time>
      </trkpt>
      <trkpt lat="61.13319" lon="11.38397">
        <ele>337.60000610352</ele>
        <time>2019-06-15T09:13:43Z</time>
      </trkpt>
      <trkpt lat="61.13298" lon="11.38296">
        <ele>337.20001220703</ele>
        <time>2019-06-15T09:13:53Z</time>
      </trkpt>
      <trkpt lat="61.1329" lon="11.38215">
        <ele>336.39999389648</ele>
        <time>2019-06-15T09:13:57Z</time>
      </trkpt>
      <trkpt lat="61.13291" lon="11.38207">
        <ele>334.79998779297</ele>
        <time>2019-06-15T09:14:10Z</time>
      </trkpt>
      <trkpt lat="61.13288" lon="11.38009">
        <ele>334</ele>
        <time>2019-06-15T09:14:23Z</time>
      </trkpt>
      <trkpt lat="61.13264" lon="11.37839">
        <ele>332.39999389648</ele>
        <time>2019-06-15T09:14:43Z</time>
      </trkpt>
      <trkpt lat="61.13212" lon="11.37748">
        <ele>329.79998779297</ele>
        <time>2019-06-15T09:14:51Z</time>
      </trkpt>
      <trkpt lat="61.13216" lon="11.37723">
        <ele>328</ele>
        <time>2019-06-15T09:15:05Z</time>
      </trkpt>
      <trkpt lat="61.1325" lon="11.37674">
        <ele>327.60000610352</ele>
        <time>2019-06-15T09:15:13Z</time>
      </trkpt>
      <trkpt lat="61.13263" lon="11.37615">
        <ele>328.79998779297</ele>
        <time>2019-06-15T09:15:26Z</time>
      </trkpt>
      <trkpt lat="61.13267" lon="11.37539">
        <ele>329.20001220703</ele>
        <time>2019-06-15T09:15:37Z</time>
      </trkpt>
      <trkpt lat="61.1327" lon="11.37491">
        <ele>329.79998779297</ele>
        <time>2019-06-15T09:15:55Z</time>
      </trkpt>
      <trkpt lat="61.13272" lon="11.37456">
        <ele>334.20001220703</ele>
        <time>2019-06-15T09:16:10Z</time>
      </trkpt>
      <trkpt lat="61.13318" lon="11.37444">
        <ele>334.39999389648</ele>
        <time>2019-06-15T09:16:31Z</time>
      </trkpt>
      <trkpt lat="61.13325" lon="11.37357">
        <ele>335</ele>
        <time>2019-06-15T09:16:44Z</time>
      </trkpt>
      <trkpt lat="61.13328" lon="11.37281">
        <ele>337.39999389648</ele>
        <time>2019-06-15T09:16:55Z</time>
      </trkpt>
      <trkpt lat="61.13326" lon="11.37244">
        <ele>337.39999389648</ele>
        <time>2019-06-15T09:17:08Z</time>
      </trkpt>
      <trkpt lat="61.13339" lon="11.37207">
        <ele>337.79998779297</ele>
        <time>2019-06-15T09:17:20Z</time>
      </trkpt>
      <trkpt lat="61.13341" lon="11.37206">
        <ele>338.79998779297</ele>
        <time>2019-06-15T09:17:30Z</time>
      </trkpt>
      <trkpt lat="61.13335" lon="11.37181">
        <ele>338.60000610352</ele>
        <time>2019-06-15T09:17:47Z</time>
      </trkpt>
      <trkpt lat="61.13316" lon="11.3718">
        <ele>338.60000610352</ele>
        <time>2019-06-15T09:17:55Z</time>
      </trkpt>
      <trkpt lat="61.13292" lon="11.37184">
        <ele>338.79998779297</ele>
        <time>2019-06-15T09:18:04Z</time>
      </trkpt>
      <trkpt lat="61.13192" lon="11.37145">
        <ele>338.79998779297</ele>
        <time>2019-06-15T09:18:11Z</time>
      </trkpt>
      <trkpt lat="61.13155" lon="11.37119">
        <ele>339.20001220703</ele>
        <time>2019-06-15T09:18:16Z</time>
      </trkpt>
      <trkpt lat="61.13141" lon="11.37102">
        <ele>339.20001220703</ele>
        <time>2019-06-15T09:18:29Z</time>
      </trkpt>
      <trkpt lat="61.13196" lon="11.37159">
        <ele>339.20001220703</ele>
        <time>2019-06-15T09:18:33Z</time>
      </trkpt>
      <trkpt lat="61.13291" lon="11.37206">
        <ele>339.20001220703</ele>
        <time>2019-06-15T09:18:43Z</time>
      </trkpt>
      <trkpt lat="61.13381" lon="11.37204">
        <ele>339.20001220703</ele>
        <time>2019-06-15T09:18:56Z</time>
      </trkpt>
      <trkpt lat="61.13471" lon="11.37202">
        <ele>338.39999389648</ele>
        <time>2019-06-15T09:19:01Z</time>
      </trkpt>
      <trkpt lat="61.13472" lon="11.37187">
        <ele>338</ele>
        <time>2019-06-15T09:19:14Z</time>
      </trkpt>
      <trkpt lat="61.1346" lon="11.37167">
        <ele>338</ele>
        <time>2019-06-15T09:19:22Z</time>
      </trkpt>
      <trkpt lat="61.13457" lon="11.3718">
        <ele>338.39999389648</ele>
        <time>2019-06-15T09:19:31Z</time>
      </trkpt>
      <trkpt lat="61.13431" lon="11.37183">
        <ele>338.39999389648</ele>
        <time>2019-06-15T09:19:40Z</time>
      </trkpt>
      <trkpt lat="61.13362" lon="11.3718">
        <ele>339</ele>
        <time>2019-06-15T09:19:53Z</time>
      </trkpt>
      <trkpt lat="61.13335" lon="11.37198">
        <ele>339</ele>
        <time>2019-06-15T09:20:00Z</time>
      </trkpt>
      <trkpt lat="61.13323" lon="11.37281">
        <ele>338.60000610352</ele>
        <time>2019-06-15T09:20:21Z</time>
      </trkpt>
      <trkpt lat="61.13321" lon="11.37391">
        <ele>338.60000610352</ele>
        <time>2019-06-15T09:20:37Z</time>
      </trkpt>
      <trkpt lat="61.13314" lon="11.37436">
        <ele>337.39999389648</ele>
        <time>2019-06-15T09:20:49Z</time>
      </trkpt>
      <trkpt lat="61.13283" lon="11.37443">
        <ele>335.79998779297</ele>
        <time>2019-06-15T09:21:03Z</time>
      </trkpt>
      <trkpt lat="61.13265" lon="11.37544">
        <ele>335.79998779297</ele>
        <time>2019-06-15T09:21:13Z</time>
      </trkpt>
      <trkpt lat="61.13262" lon="11.37606">
        <ele>334.39999389648</ele>
        <time>2019-06-15T09:21:27Z</time>
      </trkpt>
      <trkpt lat="61.13246" lon="11.37676">
        <ele>330.60000610352</ele>
        <time>2019-06-15T09:21:35Z</time>
      </trkpt>
      <trkpt lat="61.13237" lon="11.37689">
        <ele>330.39999389648</ele>
        <time>2019-06-15T09:21:44Z</time>
      </trkpt>
      <trkpt lat="61.13224" lon="11.37708">
        <ele>330.39999389648</ele>
        <time>2019-06-15T09:21:51Z</time>
      </trkpt>
      <trkpt lat="61.13241" lon="11.37789">
        <ele>328.60000610352</ele>
        <time>2019-06-15T09:22:01Z</time>
      </trkpt>
      <trkpt lat="61.13285" lon="11.37942">
        <ele>332.20001220703</ele>
        <time>2019-06-15T09:22:14Z</time>
      </trkpt>
      <trkpt lat="61.13291" lon="11.38044">
        <ele>333.79998779297</ele>
        <time>2019-06-15T09:22:21Z</time>
      </trkpt>
      <trkpt lat="61.13291" lon="11.38101">
        <ele>334.20001220703</ele>
        <time>2019-06-15T09:22:35Z</time>
      </trkpt>
      <trkpt lat="61.13296" lon="11.38281">
        <ele>336.20001220703</ele>
        <time>2019-06-15T09:22:53Z</time>
      </trkpt>
      <trkpt lat="61.13312" lon="11.38369">
        <ele>337</ele>
        <time>2019-06-15T09:22:57Z</time>
      </trkpt>
      <trkpt lat="61.13346" lon="11.38463">
        <ele>338.20001220703</ele>
        <time>2019-06-15T09:23:09Z</time>
      </trkpt>
      <trkpt lat="61.13369" lon="11.38496">
        <ele>338.39999389648</ele>
        <time>2019-06-15T09:23:21Z</time>
      </trkpt>
      <trkpt lat="61.13413" lon="11.3857">
        <ele>338.60000610352</ele>
        <time>2019-06-15T09:23:27Z</time>
      </trkpt>
      <trkpt lat="61.13422" lon="11.38578">
        <ele>338.20001220703</ele>
        <time>2019-06-15T09:23:35Z</time>
      </trkpt>
      <trkpt lat="61.13464" lon="11.38647">
        <ele>337.79998779297</ele>
        <time>2019-06-15T09:23:37Z</time>
      </trkpt>
      <trkpt lat="61.13568" lon="11.38862">
        <ele>335.79998779297</ele>
        <time>2019-06-15T09:23:39Z</time>
      </trkpt>
      <trkpt lat="61.13622" lon="11.38813">
        <ele>333.79998779297</ele>
        <time>2019-06-15T09:23:45Z</time>
      </trkpt>
      <trkpt lat="61.13676" lon="11.38731">
        <ele>333.79998779297</ele>
        <time>2019-06-15T09:23:49Z</time>
      </trkpt>
      <trkpt lat="61.13714" lon="11.38668">
        <ele>333</ele>
        <time>2019-06-15T09:23:55Z</time>
      </trkpt>
      <trkpt lat="61.13742" lon="11.3861">
        <ele>332.60000610352</ele>
        <time>2019-06-15T09:24:00Z</time>
      </trkpt>
      <trkpt lat="61.13815" lon="11.3853">
        <ele>333.60000610352</ele>
        <time>2019-06-15T09:24:05Z</time>
      </trkpt>
      <trkpt lat="61.13838" lon="11.38519">
        <ele>334</ele>
        <time>2019-06-15T09:24:17Z</time>
      </trkpt>
      <trkpt lat="61.13895" lon="11.38527">
        <ele>334.39999389648</ele>
        <time>2019-06-15T09:24:32Z</time>
      </trkpt>
      <trkpt lat="61.13987" lon="11.38556">
        <ele>334.79998779297</ele>
        <time>2019-06-15T09:24:37Z</time>
      </trkpt>
      <trkpt lat="61.14038" lon="11.38559">
        <ele>335.20001220703</ele>
        <time>2019-06-15T09:24:52Z</time>
      </trkpt>
      <trkpt lat="61.14107" lon="11.3854">
        <ele>336</ele>
        <time>2019-06-15T09:25:01Z</time>
      </trkpt>
      <trkpt lat="61.14135" lon="11.38538">
        <ele>336.60000610352</ele>
        <time>2019-06-15T09:25:13Z</time>
      </trkpt>
      <trkpt lat="61.14189" lon="11.38531">
        <ele>337</ele>
        <time>2019-06-15T09:25:21Z</time>
      </trkpt>
      <trkpt lat="61.1423" lon="11.3851">
        <ele>337</ele>
        <time>2019-06-15T09:25:29Z</time>
      </trkpt>
      <trkpt lat="61.14266" lon="11.38494">
        <ele>336.79998779297</ele>
        <time>2019-06-15T09:25:41Z</time>
      </trkpt>
      <trkpt lat="61.14405" lon="11.38436">
        <ele>336.79998779297</ele>
        <time>2019-06-15T09:25:51Z</time>
      </trkpt>
      <trkpt lat="61.1444" lon="11.38418">
        <ele>336.60000610352</ele>
        <time>2019-06-15T09:26:04Z</time>
      </trkpt>
      <trkpt lat="61.14423" lon="11.38427">
        <ele>336.60000610352</ele>
        <time>2019-06-15T09:26:24Z</time>
      </trkpt>
      <trkpt lat="61.14433" lon="11.38426">
        <ele>336.39999389648</ele>
        <time>2019-06-15T09:26:30Z</time>
      </trkpt>
      <trkpt lat="61.14477" lon="11.38404">
        <ele>336.39999389648</ele>
        <time>2019-06-15T09:26:48Z</time>
      </trkpt>
      <trkpt lat="61.14662" lon="11.38304">
        <ele>342.20001220703</ele>
        <time>2019-06-15T09:26:57Z</time>
      </trkpt>
      <trkpt lat="61.14795" lon="11.38184">
        <ele>344.39999389648</ele>
        <time>2019-06-15T09:27:11Z</time>
      </trkpt>
      <trkpt lat="61.14865" lon="11.38123">
        <ele>346.39999389648</ele>
        <time>2019-06-15T09:27:28Z</time>
      </trkpt>
      <trkpt lat="61.14922" lon="11.38084">
        <ele>346.39999389648</ele>
        <time>2019-06-15T09:27:44Z</time>
      </trkpt>
      <trkpt lat="61.15042" lon="11.3812">
        <ele>346.39999389648</ele>
        <time>2019-06-15T09:27:59Z</time>
      </trkpt>
      <trkpt lat="61.15099" lon="11.38116">
        <ele>346.79998779297</ele>
        <time>2019-06-15T09:28:07Z</time>
      </trkpt>
      <trkpt lat="61.1515" lon="11.38114">
        <ele>346.60000610352</ele>
        <time>2019-06-15T09:28:12Z</time>
      </trkpt>
      <trkpt lat="61.15225" lon="11.38091">
        <ele>347</ele>
        <time>2019-06-15T09:28:19Z</time>
      </trkpt>
      <trkpt lat="61.15323" lon="11.38035">
        <ele>347</ele>
        <time>2019-06-15T09:28:35Z</time>
      </trkpt>
      <trkpt lat="61.15378" lon="11.38008">
        <ele>346.79998779297</ele>
        <time>2019-06-15T09:28:44Z</time>
      </trkpt>
      <trkpt lat="61.15513" lon="11.37946">
        <ele>346.79998779297</ele>
        <time>2019-06-15T09:28:54Z</time>
      </trkpt>
      <trkpt lat="61.1555" lon="11.37902">
        <ele>347</ele>
        <time>2019-06-15T09:29:03Z</time>
      </trkpt>
      <trkpt lat="61.15638" lon="11.37812">
        <ele>346.79998779297</ele>
        <time>2019-06-15T09:29:14Z</time>
      </trkpt>
      <trkpt lat="61.15769" lon="11.37698">
        <ele>347.20001220703</ele>
        <time>2019-06-15T09:29:26Z</time>
      </trkpt>
      <trkpt lat="61.15883" lon="11.37649">
        <ele>347.20001220703</ele>
        <time>2019-06-15T09:29:41Z</time>
      </trkpt>
      <trkpt lat="61.15963" lon="11.37602">
        <ele>347.79998779297</ele>
        <time>2019-06-15T09:30:04Z</time>
      </trkpt>
      <trkpt lat="61.16064" lon="11.37485">
        <ele>347.79998779297</ele>
        <time>2019-06-15T09:30:23Z</time>
      </trkpt>
      <trkpt lat="61.16119" lon="11.37405">
        <ele>348</ele>
        <time>2019-06-15T09:30:35Z</time>
      </trkpt>
      <trkpt lat="61.16174" lon="11.37285">
        <ele>348.20001220703</ele>
        <time>2019-06-15T09:30:54Z</time>
      </trkpt>
      <trkpt lat="61.16251" lon="11.3713">
        <ele>348.20001220703</ele>
        <time>2019-06-15T09:31:08Z</time>
      </trkpt>
      <trkpt lat="61.16392" lon="11.37026">
        <ele>348.20001220703</ele>
        <time>2019-06-15T09:31:19Z</time>
      </trkpt>
      <trkpt lat="61.1651" lon="11.36919">
        <ele>348.60000610352</ele>
        <time>2019-06-15T09:31:35Z</time>
      </trkpt>
      <trkpt lat="61.16594" lon="11.36855">
        <ele>348.20001220703</ele>
        <time>2019-06-15T09:31:43Z</time>
      </trkpt>
      <trkpt lat="61.16689" lon="11.36801">
        <ele>348</ele>
        <time>2019-06-15T09:36:47Z</time>
      </trkpt>
      <trkpt lat="61.16718" lon="11.36789">
        <ele>348</ele>
        <time>2019-06-15T09:36:57Z</time>
      </trkpt>
      <trkpt lat="61.16804" lon="11.36762">
        <ele>348.20001220703</ele>
        <time>2019-06-15T09:37:08Z</time>
      </trkpt>
      <trkpt lat="61.16947" lon="11.36727">
        <ele>348.20001220703</ele>
        <time>2019-06-15T09:37:27Z</time>
      </trkpt>
      <trkpt lat="61.17023" lon="11.36708">
        <ele>348.39999389648</ele>
        <time>2019-06-15T09:37:40Z</time>
      </trkpt>
      <trkpt lat="61.17168" lon="11.36649">
        <ele>349</ele>
        <time>2019-06-15T09:37:59Z</time>
      </trkpt>
      <trkpt lat="61.1727" lon="11.36598">
        <ele>348.79998779297</ele>
        <time>2019-06-15T09:38:06Z</time>
      </trkpt>
      <trkpt lat="61.17453" lon="11.36484">
        <ele>349.79998779297</ele>
        <time>2019-06-15T09:38:11Z</time>
      </trkpt>
      <trkpt lat="61.17526" lon="11.36408">
        <ele>349.79998779297</ele>
        <time>2019-06-15T09:38:19Z</time>
      </trkpt>
      <trkpt lat="61.17595" lon="11.36297">
        <ele>348.79998779297</ele>
        <time>2019-06-15T09:38:25Z</time>
      </trkpt>
      <trkpt lat="61.17686" lon="11.36059">
        <ele>347</ele>
        <time>2019-06-15T09:38:35Z</time>
      </trkpt>
      <trkpt lat="61.1784" lon="11.35809">
        <ele>343.20001220703</ele>
        <time>2019-06-15T09:38:51Z</time>
      </trkpt>
      <trkpt lat="61.17886" lon="11.35674">
        <ele>342</ele>
        <time>2019-06-15T09:39:03Z</time>
      </trkpt>
      <trkpt lat="61.17912" lon="11.35528">
        <ele>341</ele>
        <time>2019-06-15T09:39:10Z</time>
      </trkpt>
      <trkpt lat="61.17936" lon="11.35403">
        <ele>338.39999389648</ele>
        <time>2019-06-15T09:39:48Z</time>
      </trkpt>
      <trkpt lat="61.17983" lon="11.35298">
        <ele>338.60000610352</ele>
        <time>2019-06-15T09:39:56Z</time>
      </trkpt>
      <trkpt lat="61.18056" lon="11.35241">
        <ele>340.20001220703</ele>
        <time>2019-06-15T09:40:17Z</time>
      </trkpt>
      <trkpt lat="61.18248" lon="11.35205">
        <ele>340.20001220703</ele>
        <time>2019-06-15T09:40:23Z</time>
      </trkpt>
      <trkpt lat="61.18313" lon="11.35195">
        <ele>340.39999389648</ele>
        <time>2019-06-15T09:40:32Z</time>
      </trkpt>
      <trkpt lat="61.18384" lon="11.35187">
        <ele>341.39999389648</ele>
        <time>2019-06-15T09:40:38Z</time>
      </trkpt>
      <trkpt lat="61.18472" lon="11.35179">
        <ele>341.39999389648</ele>
        <time>2019-06-15T09:40:41Z</time>
      </trkpt>
      <trkpt lat="61.18546" lon="11.35177">
        <ele>340.79998779297</ele>
        <time>2019-06-15T09:40:47Z</time>
      </trkpt>
      <trkpt lat="61.18658" lon="11.35192">
        <ele>340.39999389648</ele>
        <time>2019-06-15T09:40:56Z</time>
      </trkpt>
      <trkpt lat="61.18823" lon="11.35214">
        <ele>340</ele>
        <time>2019-06-15T09:41:03Z</time>
      </trkpt>
      <trkpt lat="61.18966" lon="11.35217">
        <ele>341.39999389648</ele>
        <time>2019-06-15T09:41:14Z</time>
      </trkpt>
      <trkpt lat="61.19081" lon="11.35226">
        <ele>343</ele>
        <time>2019-06-15T09:41:23Z</time>
      </trkpt>
      <trkpt lat="61.19312" lon="11.35252">
        <ele>345.20001220703</ele>
        <time>2019-06-15T09:41:32Z</time>
      </trkpt>
      <trkpt lat="61.19366" lon="11.35253">
        <ele>345.39999389648</ele>
        <time>2019-06-15T09:41:52Z</time>
      </trkpt>
      <trkpt lat="61.19467" lon="11.35307">
        <ele>346.20001220703</ele>
        <time>2019-06-15T09:42:00Z</time>
      </trkpt>
      <trkpt lat="61.19511" lon="11.35321">
        <ele>347.20001220703</ele>
        <time>2019-06-15T09:42:13Z</time>
      </trkpt>
      <trkpt lat="61.19575" lon="11.35336">
        <ele>347.79998779297</ele>
        <time>2019-06-15T09:42:25Z</time>
      </trkpt>
      <trkpt lat="61.19635" lon="11.35346">
        <ele>348.20001220703</ele>
        <time>2019-06-15T09:42:32Z</time>
      </trkpt>
      <trkpt lat="61.19677" lon="11.35345">
        <ele>348.20001220703</ele>
        <time>2019-06-15T09:42:46Z</time>
      </trkpt>
      <trkpt lat="61.19765" lon="11.35324">
        <ele>349.20001220703</ele>
        <time>2019-06-15T09:42:54Z</time>
      </trkpt>
      <trkpt lat="61.19863" lon="11.35341">
        <ele>350.20001220703</ele>
        <time>2019-06-15T09:43:07Z</time>
      </trkpt>
      <trkpt lat="61.19931" lon="11.35362">
        <ele>350.39999389648</ele>
        <time>2019-06-15T09:43:20Z</time>
      </trkpt>
      <trkpt lat="61.1999" lon="11.35351">
        <ele>350</ele>
        <time>2019-06-15T09:43:31Z</time>
      </trkpt>
      <trkpt lat="61.20077" lon="11.35278">
        <ele>349.39999389648</ele>
        <time>2019-06-15T09:43:46Z</time>
      </trkpt>
      <trkpt lat="61.2012" lon="11.35235">
        <ele>350.39999389648</ele>
        <time>2019-06-15T09:43:57Z</time>
      </trkpt>
      <trkpt lat="61.20256" lon="11.3511">
        <ele>356.79998779297</ele>
        <time>2019-06-15T09:44:10Z</time>
      </trkpt>
      <trkpt lat="61.20387" lon="11.35032">
        <ele>358.60000610352</ele>
        <time>2019-06-15T09:44:22Z</time>
      </trkpt>
      <trkpt lat="61.20489" lon="11.34941">
        <ele>361.60000610352</ele>
        <time>2019-06-15T09:44:37Z</time>
      </trkpt>
      <trkpt lat="61.2057" lon="11.34916">
        <ele>364.20001220703</ele>
        <time>2019-06-15T09:44:50Z</time>
      </trkpt>
      <trkpt lat="61.20734" lon="11.34964">
        <ele>365</ele>
        <time>2019-06-15T09:44:59Z</time>
      </trkpt>
      <trkpt lat="61.20808" lon="11.3494">
        <ele>365.39999389648</ele>
        <time>2019-06-15T09:45:06Z</time>
      </trkpt>
      <trkpt lat="61.20833" lon="11.34922">
        <ele>365.39999389648</ele>
        <time>2019-06-15T09:45:14Z</time>
      </trkpt>
      <trkpt lat="61.20917" lon="11.34851">
        <ele>366.20001220703</ele>
        <time>2019-06-15T09:45:22Z</time>
      </trkpt>
      <trkpt lat="61.20966" lon="11.34825">
        <ele>366.79998779297</ele>
        <time>2019-06-15T09:45:35Z</time>
      </trkpt>
      <trkpt lat="61.21077" lon="11.34808">
        <ele>365.39999389648</ele>
        <time>2019-06-15T09:45:47Z</time>
      </trkpt>
      <trkpt lat="61.21193" lon="11.34756">
        <ele>362.60000610352</ele>
        <time>2019-06-15T09:45:53Z</time>
      </trkpt>
      <trkpt lat="61.21355" lon="11.3466">
        <ele>354.79998779297</ele>
        <time>2019-06-15T09:46:14Z</time>
      </trkpt>
      <trkpt lat="61.21389" lon="11.34607">
        <ele>352.60000610352</ele>
        <time>2019-06-15T09:46:27Z</time>
      </trkpt>
      <trkpt lat="61.21429" lon="11.34543">
        <ele>351.20001220703</ele>
        <time>2019-06-15T09:46:36Z</time>
      </trkpt>
      <trkpt lat="61.21452" lon="11.34518">
        <ele>351</ele>
        <time>2019-06-15T09:46:59Z</time>
      </trkpt>
      <trkpt lat="61.21574" lon="11.3446">
        <ele>353.39999389648</ele>
        <time>2019-06-15T09:47:08Z</time>
      </trkpt>
      <trkpt lat="61.21687" lon="11.34469">
        <ele>352.20001220703</ele>
        <time>2019-06-15T09:47:23Z</time>
      </trkpt>
      <trkpt lat="61.218" lon="11.34527">
        <ele>351.60000610352</ele>
        <time>2019-06-15T09:47:38Z</time>
      </trkpt>
      <trkpt lat="61.2185" lon="11.34578">
        <ele>351.79998779297</ele>
        <time>2019-06-15T09:47:53Z</time>
      </trkpt>
      <trkpt lat="61.21896" lon="11.3461">
        <ele>351.79998779297</ele>
        <time>2019-06-15T09:48:11Z</time>
      </trkpt>
      <trkpt lat="61.21954" lon="11.34617">
        <ele>352</ele>
        <time>2019-06-15T09:48:25Z</time>
      </trkpt>
      <trkpt lat="61.22066" lon="11.34595">
        <ele>353</ele>
        <time>2019-06-15T09:48:36Z</time>
      </trkpt>
      <trkpt lat="61.22247" lon="11.34562">
        <ele>355.79998779297</ele>
        <time>2019-06-15T09:48:54Z</time>
      </trkpt>
      <trkpt lat="61.22327" lon="11.34548">
        <ele>356.39999389648</ele>
        <time>2019-06-15T09:49:07Z</time>
      </trkpt>
      <trkpt lat="61.22428" lon="11.34528">
        <ele>356.60000610352</ele>
        <time>2019-06-15T09:49:18Z</time>
      </trkpt>
      <trkpt lat="61.22518" lon="11.34511">
        <ele>356.60000610352</ele>
        <time>2019-06-15T09:49:32Z</time>
      </trkpt>
      <trkpt lat="61.2261" lon="11.3448">
        <ele>358</ele>
        <time>2019-06-15T09:49:35Z</time>
      </trkpt>
      <trkpt lat="61.2265" lon="11.34446">
        <ele>358</ele>
        <time>2019-06-15T09:49:42Z</time>
      </trkpt>
      <trkpt lat="61.22751" lon="11.34354">
        <ele>356</ele>
        <time>2019-06-15T09:49:50Z</time>
      </trkpt>
      <trkpt lat="61.22849" lon="11.34303">
        <ele>352.79998779297</ele>
        <time>2019-06-15T09:50:03Z</time>
      </trkpt>
      <trkpt lat="61.22937" lon="11.34289">
        <ele>351.20001220703</ele>
        <time>2019-06-15T09:50:19Z</time>
      </trkpt>
      <trkpt lat="61.23137" lon="11.34267">
        <ele>352.20001220703</ele>
        <time>2019-06-15T09:50:24Z</time>
      </trkpt>
      <trkpt lat="61.23241" lon="11.34285">
        <ele>352.60000610352</ele>
        <time>2019-06-15T09:50:36Z</time>
      </trkpt>
      <trkpt lat="61.23315" lon="11.34304">
        <ele>352</ele>
        <time>2019-06-15T09:50:46Z</time>
      </trkpt>
      <trkpt lat="61.23423" lon="11.34339">
        <ele>352.39999389648</ele>
        <time>2019-06-15T10:07:05Z</time>
      </trkpt>
      <trkpt lat="61.23598" lon="11.34385">
        <ele>353.60000610352</ele>
        <time>2019-06-15T10:07:10Z</time>
      </trkpt>
      <trkpt lat="61.23712" lon="11.34416">
        <ele>354.79998779297</ele>
        <time>2019-06-15T10:07:23Z</time>
      </trkpt>
      <trkpt lat="61.23817" lon="11.34453">
        <ele>355</ele>
        <time>2019-06-15T10:07:27Z</time>
      </trkpt>
      <trkpt lat="61.23904" lon="11.34477">
        <ele>354.39999389648</ele>
        <time>2019-06-15T10:07:44Z</time>
      </trkpt>
      <trkpt lat="61.24098" lon="11.34471">
        <ele>354.39999389648</ele>
        <time>2019-06-15T10:07:56Z</time>
      </trkpt>
      <trkpt lat="61.24245" lon="11.34423">
        <ele>353.60000610352</ele>
        <time>2019-06-15T10:08:02Z</time>
      </trkpt>
      <trkpt lat="61.24272" lon="11.34409">
        <ele>352.79998779297</ele>
        <time>2019-06-15T10:08:17Z</time>
      </trkpt>
      <trkpt lat="61.24297" lon="11.34397">
        <ele>352.79998779297</ele>
        <time>2019-06-15T10:08:21Z</time>
      </trkpt>
      <trkpt lat="61.24338" lon="11.34372">
        <ele>353</ele>
        <time>2019-06-15T10:08:34Z</time>
      </trkpt>
      <trkpt lat="61.24426" lon="11.34324">
        <ele>354</ele>
        <time>2019-06-15T10:08:43Z</time>
      </trkpt>
      <trkpt lat="61.24522" lon="11.34269">
        <ele>354.39999389648</ele>
        <time>2019-06-15T10:08:49Z</time>
      </trkpt>
      <trkpt lat="61.24678" lon="11.34178">
        <ele>357.60000610352</ele>
        <time>2019-06-15T10:08:56Z</time>
      </trkpt>
      <trkpt lat="61.24751" lon="11.34054">
        <ele>356.60000610352</ele>
        <time>2019-06-15T10:09:00Z</time>
      </trkpt>
      <trkpt lat="61.24904" lon="11.33885">
        <ele>351.60000610352</ele>
        <time>2019-06-15T10:09:05Z</time>
      </trkpt>
      <trkpt lat="61.24978" lon="11.33816">
        <ele>351.79998779297</ele>
        <time>2019-06-15T10:09:26Z</time>
      </trkpt>
      <trkpt lat="61.25038" lon="11.33754">
        <ele>351.79998779297</ele>
        <time>2019-06-15T10:09:34Z</time>
      </trkpt>
      <trkpt lat="61.251" lon="11.33689">
        <ele>352</ele>
        <time>2019-06-15T10:09:54Z</time>
      </trkpt>
      <trkpt lat="61.25131" lon="11.33648">
        <ele>351.79998779297</ele>
        <time>2019-06-15T10:10:01Z</time>
      </trkpt>
      <trkpt lat="61.25155" lon="11.33622">
        <ele>351.39999389648</ele>
        <time>2019-06-15T10:10:13Z</time>
      </trkpt>
      <trkpt lat="61.25218" lon="11.33555">
        <ele>351.20001220703</ele>
        <time>2019-06-15T10:10:26Z</time>
      </trkpt>
      <trkpt lat="61.25298" lon="11.3347">
        <ele>351.39999389648</ele>
        <time>2019-06-15T10:10:40Z</time>
      </trkpt>
      <trkpt lat="61.25346" lon="11.33416">
        <ele>351.20001220703</ele>
        <time>2019-06-15T10:10:53Z</time>
      </trkpt>
      <trkpt lat="61.25447" lon="11.33304">
        <ele>351.20001220703</ele>
        <time>2019-06-15T10:11:06Z</time>
      </trkpt>
      <trkpt lat="61.25523" lon="11.33229">
        <ele>351.79998779297</ele>
        <time>2019-06-15T10:11:25Z</time>
      </trkpt>
      <trkpt lat="61.25629" lon="11.33122">
        <ele>351.39999389648</ele>
        <time>2019-06-15T10:11:47Z</time>
      </trkpt>
      <trkpt lat="61.25714" lon="11.3304">
        <ele>351</ele>
        <time>2019-06-15T10:11:56Z</time>
      </trkpt>
      <trkpt lat="61.25751" lon="11.33003">
        <ele>351.39999389648</ele>
        <time>2019-06-15T10:12:00Z</time>
      </trkpt>
      <trkpt lat="61.25819" lon="11.3293">
        <ele>351.39999389648</ele>
        <time>2019-06-15T10:12:09Z</time>
      </trkpt>
      <trkpt lat="61.25893" lon="11.32851">
        <ele>351.20001220703</ele>
        <time>2019-06-15T10:12:15Z</time>
      </trkpt>
      <trkpt lat="61.25963" lon="11.32752">
        <ele>351.39999389648</ele>
        <time>2019-06-15T10:12:28Z</time>
      </trkpt>
      <trkpt lat="61.26039" lon="11.32606">
        <ele>351.79998779297</ele>
        <time>2019-06-15T10:12:44Z</time>
      </trkpt>
      <trkpt lat="61.26063" lon="11.32565">
        <ele>352.39999389648</ele>
        <time>2019-06-15T10:12:52Z</time>
      </trkpt>
      <trkpt lat="61.26086" lon="11.32519">
        <ele>352.60000610352</ele>
        <time>2019-06-15T10:13:07Z</time>
      </trkpt>
      <trkpt lat="61.26134" lon="11.32415">
        <ele>354</ele>
        <time>2019-06-15T10:13:20Z</time>
      </trkpt>
      <trkpt lat="61.26167" lon="11.32389">
        <ele>353.39999389648</ele>
        <time>2019-06-15T10:13:28Z</time>
      </trkpt>
      <trkpt lat="61.26211" lon="11.32285">
        <ele>353.60000610352</ele>
        <time>2019-06-15T10:13:43Z</time>
      </trkpt>
      <trkpt lat="61.26246" lon="11.32217">
        <ele>354</ele>
        <time>2019-06-15T10:13:49Z</time>
      </trkpt>
      <trkpt lat="61.26327" lon="11.32068">
        <ele>354.39999389648</ele>
        <time>2019-06-15T10:14:10Z</time>
      </trkpt>
      <trkpt lat="61.26358" lon="11.32016">
        <ele>354.39999389648</ele>
        <time>2019-06-15T10:14:17Z</time>
      </trkpt>
      <trkpt lat="61.26402" lon="11.31935">
        <ele>353.79998779297</ele>
        <time>2019-06-15T10:14:23Z</time>
      </trkpt>
      <trkpt lat="61.26421" lon="11.31895">
        <ele>353.79998779297</ele>
        <time>2019-06-15T10:14:40Z</time>
      </trkpt>
      <trkpt lat="61.26459" lon="11.31816">
        <ele>353.60000610352</ele>
        <time>2019-06-15T10:14:56Z</time>
      </trkpt>
      <trkpt lat="61.26521" lon="11.31713">
        <ele>353.20001220703</ele>
        <time>2019-06-15T10:15:07Z</time>
      </trkpt>
      <trkpt lat="61.26551" lon="11.31653">
        <ele>353.39999389648</ele>
        <time>2019-06-15T10:15:16Z</time>
      </trkpt>
      <trkpt lat="61.26585" lon="11.31614">
        <ele>353.39999389648</ele>
        <time>2019-06-15T10:15:27Z</time>
      </trkpt>
      <trkpt lat="61.26639" lon="11.31527">
        <ele>353.60000610352</ele>
        <time>2019-06-15T10:15:41Z</time>
      </trkpt>
      <trkpt lat="61.26675" lon="11.31459">
        <ele>354.20001220703</ele>
        <time>2019-06-15T10:15:47Z</time>
      </trkpt>
      <trkpt lat="61.26716" lon="11.31427">
        <ele>355</ele>
        <time>2019-06-15T10:16:00Z</time>
      </trkpt>
      <trkpt lat="61.26825" lon="11.31358">
        <ele>355.39999389648</ele>
        <time>2019-06-15T10:16:13Z</time>
      </trkpt>
      <trkpt lat="61.26892" lon="11.31318">
        <ele>355.20001220703</ele>
        <time>2019-06-15T10:16:27Z</time>
      </trkpt>
      <trkpt lat="61.27012" lon="11.31247">
        <ele>357</ele>
        <time>2019-06-15T10:16:43Z</time>
      </trkpt>
      <trkpt lat="61.27092" lon="11.31199">
        <ele>355.79998779297</ele>
        <time>2019-06-15T10:16:55Z</time>
      </trkpt>
      <trkpt lat="61.27148" lon="11.31154">
        <ele>355.79998779297</ele>
        <time>2019-06-15T10:17:10Z</time>
      </trkpt>
      <trkpt lat="61.27223" lon="11.31092">
        <ele>357.20001220703</ele>
        <time>2019-06-15T10:17:25Z</time>
      </trkpt>
      <trkpt lat="61.27363" lon="11.30965">
        <ele>359</ele>
        <time>2019-06-15T10:17:32Z</time>
      </trkpt>
      <trkpt lat="61.2744" lon="11.30899">
        <ele>359.39999389648</ele>
        <time>2019-06-15T10:17:45Z</time>
      </trkpt>
      <trkpt lat="61.27488" lon="11.30856">
        <ele>359.20001220703</ele>
        <time>2019-06-15T10:18:06Z</time>
      </trkpt>
      <trkpt lat="61.27582" lon="11.30776">
        <ele>359.20001220703</ele>
        <time>2019-06-15T10:18:13Z</time>
      </trkpt>
      <trkpt lat="61.27634" lon="11.30727">
        <ele>359.79998779297</ele>
        <time>2019-06-15T10:18:27Z</time>
      </trkpt>
      <trkpt lat="61.2772" lon="11.30643">
        <ele>359.79998779297</ele>
        <time>2019-06-15T10:18:48Z</time>
      </trkpt>
      <trkpt lat="61.27764" lon="11.30595">
        <ele>360.20001220703</ele>
        <time>2019-06-15T10:18:56Z</time>
      </trkpt>
      <trkpt lat="61.27779" lon="11.30581">
        <ele>360.20001220703</ele>
        <time>2019-06-15T10:19:20Z</time>
      </trkpt>
      <trkpt lat="61.27836" lon="11.30513">
        <ele>361.39999389648</ele>
        <time>2019-06-15T10:19:39Z</time>
      </trkpt>
      <trkpt lat="61.27866" lon="11.30481">
        <ele>362.39999389648</ele>
        <time>2019-06-15T10:19:55Z</time>
      </trkpt>
      <trkpt lat="61.27998" lon="11.30349">
        <ele>364.79998779297</ele>
        <time>2019-06-15T10:20:12Z</time>
      </trkpt>
      <trkpt lat="61.28054" lon="11.3029">
        <ele>364.39999389648</ele>
        <time>2019-06-15T10:20:25Z</time>
      </trkpt>
      <trkpt lat="61.28117" lon="11.30221">
        <ele>364.60000610352</ele>
        <time>2019-06-15T10:20:51Z</time>
      </trkpt>
      <trkpt lat="61.28262" lon="11.29993">
        <ele>367.60000610352</ele>
        <time>2019-06-15T10:21:05Z</time>
      </trkpt>
      <trkpt lat="61.28293" lon="11.29957">
        <ele>367.79998779297</ele>
        <time>2019-06-15T10:21:16Z</time>
      </trkpt>
      <trkpt lat="61.28363" lon="11.29882">
        <ele>366.79998779297</ele>
        <time>2019-06-15T10:21:26Z</time>
      </trkpt>
      <trkpt lat="61.28492" lon="11.29743">
        <ele>368</ele>
        <time>2019-06-15T10:21:35Z</time>
      </trkpt>
      <trkpt lat="61.28551" lon="11.29682">
        <ele>367.39999389648</ele>
        <time>2019-06-15T10:21:43Z</time>
      </trkpt>
      <trkpt lat="61.28614" lon="11.29609">
        <ele>367</ele>
        <time>2019-06-15T10:22:04Z</time>
      </trkpt>
      <trkpt lat="61.28678" lon="11.29506">
        <ele>368.79998779297</ele>
        <time>2019-06-15T10:22:12Z</time>
      </trkpt>
      <trkpt lat="61.28759" lon="11.29359">
        <ele>370.60000610352</ele>
        <time>2019-06-15T10:22:27Z</time>
      </trkpt>
      <trkpt lat="61.28828" lon="11.29273">
        <ele>368.79998779297</ele>
        <time>2019-06-15T10:22:37Z</time>
      </trkpt>
      <trkpt lat="61.28906" lon="11.29156">
        <ele>368.20001220703</ele>
        <time>2019-06-15T10:22:47Z</time>
      </trkpt>
      <trkpt lat="61.29002" lon="11.28982">
        <ele>368.39999389648</ele>
        <time>2019-06-15T10:23:02Z</time>
      </trkpt>
      <trkpt lat="61.29071" lon="11.2889">
        <ele>368</ele>
        <time>2019-06-15T10:23:13Z</time>
      </trkpt>
      <trkpt lat="61.29226" lon="11.28748">
        <ele>367.39999389648</ele>
        <time>2019-06-15T10:23:15Z</time>
      </trkpt>
      <trkpt lat="61.29295" lon="11.28714">
        <ele>367</ele>
        <time>2019-06-15T10:23:32Z</time>
      </trkpt>
      <trkpt lat="61.29365" lon="11.2869">
        <ele>365.60000610352</ele>
        <time>2019-06-15T10:23:51Z</time>
      </trkpt>
      <trkpt lat="61.29435" lon="11.2866">
        <ele>365.39999389648</ele>
        <time>2019-06-15T10:24:16Z</time>
      </trkpt>
      <trkpt lat="61.29465" lon="11.2864">
        <ele>365.39999389648</ele>
        <time>2019-06-15T10:24:34Z</time>
      </trkpt>
      <trkpt lat="61.29568" lon="11.28536">
        <ele>366</ele>
        <time>2019-06-15T10:24:51Z</time>
      </trkpt>
      <trkpt lat="61.29635" lon="11.28453">
        <ele>366</ele>
        <time>2019-06-15T10:25:17Z</time>
      </trkpt>
      <trkpt lat="61.29735" lon="11.28333">
        <ele>366.20001220703</ele>
        <time>2019-06-15T10:25:25Z</time>
      </trkpt>
      <trkpt lat="61.29858" lon="11.2817">
        <ele>365.79998779297</ele>
        <time>2019-06-15T10:25:39Z</time>
      </trkpt>
      <trkpt lat="61.29923" lon="11.28094">
        <ele>367</ele>
        <time>2019-06-15T10:25:48Z</time>
      </trkpt>
      <trkpt lat="61.29947" lon="11.28059">
        <ele>368.39999389648</ele>
        <time>2019-06-15T10:26:03Z</time>
      </trkpt>
      <trkpt lat="61.30041" lon="11.27949">
        <ele>371.39999389648</ele>
        <time>2019-06-15T10:26:33Z</time>
      </trkpt>
      <trkpt lat="61.30117" lon="11.27881">
        <ele>371.39999389648</ele>
        <time>2019-06-15T10:26:41Z</time>
      </trkpt>
      <trkpt lat="61.30136" lon="11.27864">
        <ele>371.60000610352</ele>
        <time>2019-06-15T10:27:01Z</time>
      </trkpt>
      <trkpt lat="61.30188" lon="11.27817">
        <ele>371.39999389648</ele>
        <time>2019-06-15T10:27:15Z</time>
      </trkpt>
      <trkpt lat="61.30305" lon="11.27712">
        <ele>369.39999389648</ele>
        <time>2019-06-15T10:27:29Z</time>
      </trkpt>
      <trkpt lat="61.30357" lon="11.27668">
        <ele>368.20001220703</ele>
        <time>2019-06-15T10:27:47Z</time>
      </trkpt>
      <trkpt lat="61.30516" lon="11.27529">
        <ele>371.39999389648</ele>
        <time>2019-06-15T10:28:05Z</time>
      </trkpt>
      <trkpt lat="61.3058" lon="11.27478">
        <ele>371.39999389648</ele>
        <time>2019-06-15T10:28:13Z</time>
      </trkpt>
      <trkpt lat="61.30712" lon="11.27368">
        <ele>369</ele>
        <time>2019-06-15T10:28:33Z</time>
      </trkpt>
      <trkpt lat="61.30764" lon="11.27324">
        <ele>369.20001220703</ele>
        <time>2019-06-15T10:28:48Z</time>
      </trkpt>
      <trkpt lat="61.30863" lon="11.27248">
        <ele>368.60000610352</ele>
        <time>2019-06-15T10:28:56Z</time>
      </trkpt>
      <trkpt lat="61.30932" lon="11.27198">
        <ele>367.39999389648</ele>
        <time>2019-06-15T10:29:08Z</time>
      </trkpt>
      <trkpt lat="61.30977" lon="11.27167">
        <ele>367.39999389648</ele>
        <time>2019-06-15T10:29:17Z</time>
      </trkpt>
      <trkpt lat="61.31012" lon="11.2714">
        <ele>368.39999389648</ele>
        <time>2019-06-15T10:29:24Z</time>
      </trkpt>
      <trkpt lat="61.31174" lon="11.27078">
        <ele>370.20001220703</ele>
        <time>2019-06-15T10:29:50Z</time>
      </trkpt>
      <trkpt lat="61.31247" lon="11.27059">
        <ele>370</ele>
        <time>2019-06-15T10:30:07Z</time>
      </trkpt>
      <trkpt lat="61.31316" lon="11.27039">
        <ele>369.39999389648</ele>
        <time>2019-06-15T10:30:31Z</time>
      </trkpt>
      <trkpt lat="61.31478" lon="11.26996">
        <ele>364.60000610352</ele>
        <time>2019-06-15T10:30:49Z</time>
      </trkpt>
      <trkpt lat="61.31609" lon="11.26961">
        <ele>365.20001220703</ele>
        <time>2019-06-15T10:31:03Z</time>
      </trkpt>
      <trkpt lat="61.31776" lon="11.26921">
        <ele>364</ele>
        <time>2019-06-15T10:31:21Z</time>
      </trkpt>
      <trkpt lat="61.31888" lon="11.26896">
        <ele>364</ele>
        <time>2019-06-15T10:31:36Z</time>
      </trkpt>
      <trkpt lat="61.31941" lon="11.2688">
        <ele>364.20001220703</ele>
        <time>2019-06-15T10:31:44Z</time>
      </trkpt>
      <trkpt lat="61.32025" lon="11.26857">
        <ele>364.39999389648</ele>
        <time>2019-06-15T10:31:59Z</time>
      </trkpt>
      <trkpt lat="61.32109" lon="11.26837">
        <ele>365.20001220703</ele>
        <time>2019-06-15T10:32:17Z</time>
      </trkpt>
      <trkpt lat="61.32173" lon="11.26813">
        <ele>366.39999389648</ele>
        <time>2019-06-15T10:32:32Z</time>
      </trkpt>
      <trkpt lat="61.32221" lon="11.26794">
        <ele>366.79998779297</ele>
        <time>2019-06-15T10:32:41Z</time>
      </trkpt>
      <trkpt lat="61.3231" lon="11.26756">
        <ele>367.20001220703</ele>
        <time>2019-06-15T10:32:51Z</time>
      </trkpt>
      <trkpt lat="61.32366" lon="11.26723">
        <ele>367.20001220703</ele>
        <time>2019-06-15T10:32:59Z</time>
      </trkpt>
      <trkpt lat="61.32432" lon="11.26689">
        <ele>367.60000610352</ele>
        <time>2019-06-15T10:33:04Z</time>
      </trkpt>
      <trkpt lat="61.32551" lon="11.26632">
        <ele>368.60000610352</ele>
        <time>2019-06-15T10:33:30Z</time>
      </trkpt>
      <trkpt lat="61.32654" lon="11.26572">
        <ele>369.79998779297</ele>
        <time>2019-06-15T10:33:33Z</time>
      </trkpt>
      <trkpt lat="61.32755" lon="11.26507">
        <ele>373.39999389648</ele>
        <time>2019-06-15T10:33:43Z</time>
      </trkpt>
      <trkpt lat="61.32802" lon="11.26479">
        <ele>373.39999389648</ele>
        <time>2019-06-15T10:33:51Z</time>
      </trkpt>
      <trkpt lat="61.329" lon="11.26436">
        <ele>372.79998779297</ele>
        <time>2019-06-15T10:33:58Z</time>
      </trkpt>
      <trkpt lat="61.32948" lon="11.26419">
        <ele>373.20001220703</ele>
        <time>2019-06-15T10:34:12Z</time>
      </trkpt>
      <trkpt lat="61.33045" lon="11.26383">
        <ele>376.79998779297</ele>
        <time>2019-06-15T10:34:29Z</time>
      </trkpt>
      <trkpt lat="61.3313" lon="11.26345">
        <ele>382.60000610352</ele>
        <time>2019-06-15T10:34:40Z</time>
      </trkpt>
      <trkpt lat="61.3325" lon="11.26291">
        <ele>388.60000610352</ele>
        <time>2019-06-15T10:34:47Z</time>
      </trkpt>
      <trkpt lat="61.33422" lon="11.26184">
        <ele>400.60000610352</ele>
        <time>2019-06-15T10:35:03Z</time>
      </trkpt>
      <trkpt lat="61.33605" lon="11.26106">
        <ele>408.20001220703</ele>
        <time>2019-06-15T10:35:20Z</time>
      </trkpt>
      <trkpt lat="61.33656" lon="11.26092">
        <ele>409.39999389648</ele>
        <time>2019-06-15T10:35:40Z</time>
      </trkpt>
      <trkpt lat="61.33686" lon="11.26076">
        <ele>409.39999389648</ele>
        <time>2019-06-15T10:35:52Z</time>
      </trkpt>
      <trkpt lat="61.33786" lon="11.26004">
        <ele>408</ele>
        <time>2019-06-15T10:36:01Z</time>
      </trkpt>
      <trkpt lat="61.33824" lon="11.25977">
        <ele>409.20001220703</ele>
        <time>2019-06-15T10:36:20Z</time>
      </trkpt>
      <trkpt lat="61.33857" lon="11.2595">
        <ele>412</ele>
        <time>2019-06-15T10:36:32Z</time>
      </trkpt>
      <trkpt lat="61.33904" lon="11.25903">
        <ele>414.39999389648</ele>
        <time>2019-06-15T10:36:41Z</time>
      </trkpt>
      <trkpt lat="61.33958" lon="11.25858">
        <ele>414.39999389648</ele>
        <time>2019-06-15T10:36:54Z</time>
      </trkpt>
      <trkpt lat="61.34153" lon="11.25642">
        <ele>411</ele>
        <time>2019-06-15T10:37:03Z</time>
      </trkpt>
      <trkpt lat="61.34243" lon="11.25515">
        <ele>407.39999389648</ele>
        <time>2019-06-15T10:37:09Z</time>
      </trkpt>
      <trkpt lat="61.34271" lon="11.25475">
        <ele>405.39999389648</ele>
        <time>2019-06-15T10:37:12Z</time>
      </trkpt>
      <trkpt lat="61.3435" lon="11.25367">
        <ele>405.20001220703</ele>
        <time>2019-06-15T10:37:19Z</time>
      </trkpt>
      <trkpt lat="61.34391" lon="11.25306">
        <ele>404.20001220703</ele>
        <time>2019-06-15T10:37:24Z</time>
      </trkpt>
      <trkpt lat="61.34474" lon="11.25179">
        <ele>400.60000610352</ele>
        <time>2019-06-15T10:37:28Z</time>
      </trkpt>
      <trkpt lat="61.34525" lon="11.25093">
        <ele>401.60000610352</ele>
        <time>2019-06-15T10:37:43Z</time>
      </trkpt>
      <trkpt lat="61.34595" lon="11.24979">
        <ele>404.39999389648</ele>
        <time>2019-06-15T10:38:01Z</time>
      </trkpt>
      <trkpt lat="61.34629" lon="11.24922">
        <ele>404.60000610352</ele>
        <time>2019-06-15T10:38:18Z</time>
      </trkpt>
      <trkpt lat="61.34679" lon="11.24841">
        <ele>403.79998779297</ele>
        <time>2019-06-15T10:38:31Z</time>
      </trkpt>
      <trkpt lat="61.34714" lon="11.24784">
        <ele>402.79998779297</ele>
        <time>2019-06-15T10:38:41Z</time>
      </trkpt>
      <trkpt lat="61.34764" lon="11.24702">
        <ele>400.79998779297</ele>
        <time>2019-06-15T10:38:45Z</time>
      </trkpt>
      <trkpt lat="61.34841" lon="11.24551">
        <ele>396.20001220703</ele>
        <time>2019-06-15T10:41:03Z</time>
      </trkpt>
      <trkpt lat="61.34985" lon="11.2426">
        <ele>384</ele>
        <time>2019-06-15T10:41:07Z</time>
      </trkpt>
      <trkpt lat="61.35062" lon="11.24087">
        <ele>377.60000610352</ele>
        <time>2019-06-15T10:41:22Z</time>
      </trkpt>
      <trkpt lat="61.35133" lon="11.2393">
        <ele>373</ele>
        <time>2019-06-15T10:41:30Z</time>
      </trkpt>
      <trkpt lat="61.35189" lon="11.23832">
        <ele>372.20001220703</ele>
        <time>2019-06-15T10:41:47Z</time>
      </trkpt>
      <trkpt lat="61.35378" lon="11.23568">
        <ele>371.39999389648</ele>
        <time>2019-06-15T10:42:08Z</time>
      </trkpt>
      <trkpt lat="61.35457" lon="11.2346">
        <ele>372.20001220703</ele>
        <time>2019-06-15T10:42:20Z</time>
      </trkpt>
      <trkpt lat="61.35524" lon="11.23369">
        <ele>376.39999389648</ele>
        <time>2019-06-15T10:42:31Z</time>
      </trkpt>
      <trkpt lat="61.35568" lon="11.23307">
        <ele>376.79998779297</ele>
        <time>2019-06-15T10:42:52Z</time>
      </trkpt>
      <trkpt lat="61.35611" lon="11.23249">
        <ele>377</ele>
        <time>2019-06-15T10:43:01Z</time>
      </trkpt>
      <trkpt lat="61.35655" lon="11.23196">
        <ele>377.79998779297</ele>
        <time>2019-06-15T10:43:14Z</time>
      </trkpt>
      <trkpt lat="61.35695" lon="11.23158">
        <ele>379</ele>
        <time>2019-06-15T10:43:29Z</time>
      </trkpt>
      <trkpt lat="61.3576" lon="11.23103">
        <ele>379.60000610352</ele>
        <time>2019-06-15T10:43:48Z</time>
      </trkpt>
      <trkpt lat="61.35778" lon="11.23085">
        <ele>379.60000610352</ele>
        <time>2019-06-15T10:44:11Z</time>
      </trkpt>
      <trkpt lat="61.35829" lon="11.23036">
        <ele>380</ele>
        <time>2019-06-15T10:44:22Z</time>
      </trkpt>
      <trkpt lat="61.35878" lon="11.22981">
        <ele>381.79998779297</ele>
        <time>2019-06-15T10:44:30Z</time>
      </trkpt>
      <trkpt lat="61.35911" lon="11.22934">
        <ele>382.20001220703</ele>
        <time>2019-06-15T10:44:42Z</time>
      </trkpt>
      <trkpt lat="61.36012" lon="11.2281">
        <ele>379.79998779297</ele>
        <time>2019-06-15T10:44:50Z</time>
      </trkpt>
      <trkpt lat="61.36037" lon="11.22774">
        <ele>378.60000610352</ele>
        <time>2019-06-15T10:45:14Z</time>
      </trkpt>
      <trkpt lat="61.36054" lon="11.22741">
        <ele>378.39999389648</ele>
        <time>2019-06-15T10:45:29Z</time>
      </trkpt>
      <trkpt lat="61.3609" lon="11.22658">
        <ele>378.60000610352</ele>
        <time>2019-06-15T10:45:38Z</time>
      </trkpt>
      <trkpt lat="61.36136" lon="11.22539">
        <ele>382.39999389648</ele>
        <time>2019-06-15T10:46:07Z</time>
      </trkpt>
      <trkpt lat="61.36184" lon="11.22445">
        <ele>382.79998779297</ele>
        <time>2019-06-15T10:46:17Z</time>
      </trkpt>
      <trkpt lat="61.36246" lon="11.22373">
        <ele>382.39999389648</ele>
        <time>2019-06-15T10:46:31Z</time>
      </trkpt>
      <trkpt lat="61.36346" lon="11.22296">
        <ele>381</ele>
        <time>2019-06-15T10:46:40Z</time>
      </trkpt>
      <trkpt lat="61.36546" lon="11.22133">
        <ele>377.20001220703</ele>
        <time>2019-06-15T10:46:52Z</time>
      </trkpt>
      <trkpt lat="61.36612" lon="11.22071">
        <ele>376.39999389648</ele>
        <time>2019-06-15T10:47:15Z</time>
      </trkpt>
      <trkpt lat="61.36684" lon="11.21996">
        <ele>376</ele>
        <time>2019-06-15T10:47:31Z</time>
      </trkpt>
      <trkpt lat="61.3682" lon="11.2183">
        <ele>377.20001220703</ele>
        <time>2019-06-15T10:47:35Z</time>
      </trkpt>
      <trkpt lat="61.36875" lon="11.21762">
        <ele>376.60000610352</ele>
        <time>2019-06-15T10:48:01Z</time>
      </trkpt>
      <trkpt lat="61.36896" lon="11.21736">
        <ele>376.60000610352</ele>
        <time>2019-06-15T10:48:11Z</time>
      </trkpt>
      <trkpt lat="61.36979" lon="11.21632">
        <ele>378.39999389648</ele>
        <time>2019-06-15T10:48:30Z</time>
      </trkpt>
      <trkpt lat="61.3712" lon="11.21453">
        <ele>382.20001220703</ele>
        <time>2019-06-15T10:48:43Z</time>
      </trkpt>
      <trkpt lat="61.37137" lon="11.21434">
        <ele>382.20001220703</ele>
        <time>2019-06-15T10:48:55Z</time>
      </trkpt>
      <trkpt lat="61.37158" lon="11.21394">
        <ele>382.60000610352</ele>
        <time>2019-06-15T10:49:24Z</time>
      </trkpt>
      <trkpt lat="61.37165" lon="11.2139">
        <ele>382.39999389648</ele>
        <time>2019-06-15T10:49:41Z</time>
      </trkpt>
      <trkpt lat="61.37179" lon="11.21375">
        <ele>382.39999389648</ele>
        <time>2019-06-15T10:49:47Z</time>
      </trkpt>
      <trkpt lat="61.37266" lon="11.21269">
        <ele>382.60000610352</ele>
        <time>2019-06-15T10:50:00Z</time>
      </trkpt>
      <trkpt lat="61.37311" lon="11.21213">
        <ele>382.39999389648</ele>
        <time>2019-06-15T10:50:21Z</time>
      </trkpt>
      <trkpt lat="61.3733" lon="11.21188">
        <ele>382.39999389648</ele>
        <time>2019-06-15T10:50:39Z</time>
      </trkpt>
      <trkpt lat="61.37396" lon="11.21043">
        <ele>381.60000610352</ele>
        <time>2019-06-15T10:50:48Z</time>
      </trkpt>
      <trkpt lat="61.37419" lon="11.20963">
        <ele>380.60000610352</ele>
        <time>2019-06-15T10:50:59Z</time>
      </trkpt>
      <trkpt lat="61.37485" lon="11.20707">
        <ele>376</ele>
        <time>2019-06-15T10:51:18Z</time>
      </trkpt>
      <trkpt lat="61.37527" lon="11.20556">
        <ele>375.20001220703</ele>
        <time>2019-06-15T10:51:29Z</time>
      </trkpt>
      <trkpt lat="61.37559" lon="11.20435">
        <ele>375</ele>
        <time>2019-06-15T10:51:37Z</time>
      </trkpt>
      <trkpt lat="61.37583" lon="11.20358">
        <ele>374.20001220703</ele>
        <time>2019-06-15T10:52:01Z</time>
      </trkpt>
      <trkpt lat="61.37636" lon="11.20211">
        <ele>373.20001220703</ele>
        <time>2019-06-15T10:52:09Z</time>
      </trkpt>
      <trkpt lat="61.37661" lon="11.20154">
        <ele>373</ele>
        <time>2019-06-15T10:52:32Z</time>
      </trkpt>
      <trkpt lat="61.37722" lon="11.20035">
        <ele>372.79998779297</ele>
        <time>2019-06-15T10:52:52Z</time>
      </trkpt>
      <trkpt lat="61.37763" lon="11.19952">
        <ele>372.79998779297</ele>
        <time>2019-06-15T10:53:10Z</time>
      </trkpt>
      <trkpt lat="61.37854" lon="11.19719">
        <ele>373.39999389648</ele>
        <time>2019-06-15T10:53:23Z</time>
      </trkpt>
      <trkpt lat="61.37869" lon="11.19665">
        <ele>373.39999389648</ele>
        <time>2019-06-15T10:53:34Z</time>
      </trkpt>
      <trkpt lat="61.37928" lon="11.19438">
        <ele>375.60000610352</ele>
        <time>2019-06-15T10:53:44Z</time>
      </trkpt>
      <trkpt lat="61.37973" lon="11.19266">
        <ele>377.79998779297</ele>
        <time>2019-06-15T10:54:10Z</time>
      </trkpt>
      <trkpt lat="61.38009" lon="11.19126">
        <ele>379</ele>
        <time>2019-06-15T10:54:30Z</time>
      </trkpt>
      <trkpt lat="61.38049" lon="11.18968">
        <ele>379.79998779297</ele>
        <time>2019-06-15T10:54:51Z</time>
      </trkpt>
      <trkpt lat="61.38083" lon="11.18837">
        <ele>379.39999389648</ele>
        <time>2019-06-15T10:55:09Z</time>
      </trkpt>
      <trkpt lat="61.38116" lon="11.18714">
        <ele>379.39999389648</ele>
        <time>2019-06-15T10:55:18Z</time>
      </trkpt>
      <trkpt lat="61.38158" lon="11.18555">
        <ele>379.79998779297</ele>
        <time>2019-06-15T10:56:21Z</time>
      </trkpt>
      <trkpt lat="61.38187" lon="11.18447">
        <ele>380.39999389648</ele>
        <time>2019-06-15T10:56:32Z</time>
      </trkpt>
      <trkpt lat="61.38223" lon="11.18313">
        <ele>382.20001220703</ele>
        <time>2019-06-15T10:56:42Z</time>
      </trkpt>
      <trkpt lat="61.38284" lon="11.18117">
        <ele>381</ele>
        <time>2019-06-15T11:00:13Z</time>
      </trkpt>
      <trkpt lat="61.38309" lon="11.18036">
        <ele>381</ele>
        <time>2019-06-15T11:00:29Z</time>
      </trkpt>
      <trkpt lat="61.38325" lon="11.17996">
        <ele>381.39999389648</ele>
        <time>2019-06-15T11:00:52Z</time>
      </trkpt>
      <trkpt lat="61.38373" lon="11.17847">
        <ele>381.60000610352</ele>
        <time>2019-06-15T11:01:03Z</time>
      </trkpt>
      <trkpt lat="61.38396" lon="11.1777">
        <ele>381.79998779297</ele>
        <time>2019-06-15T11:01:08Z</time>
      </trkpt>
      <trkpt lat="61.38433" lon="11.17653">
        <ele>381.60000610352</ele>
        <time>2019-06-15T11:01:22Z</time>
      </trkpt>
      <trkpt lat="61.38472" lon="11.17533">
        <ele>381.60000610352</ele>
        <time>2019-06-15T11:01:36Z</time>
      </trkpt>
      <trkpt lat="61.38507" lon="11.17426">
        <ele>382.20001220703</ele>
        <time>2019-06-15T11:02:02Z</time>
      </trkpt>
      <trkpt lat="61.3855" lon="11.17293">
        <ele>382.60000610352</ele>
        <time>2019-06-15T11:02:10Z</time>
      </trkpt>
      <trkpt lat="61.38584" lon="11.17184">
        <ele>382.79998779297</ele>
        <time>2019-06-15T11:02:14Z</time>
      </trkpt>
      <trkpt lat="61.38621" lon="11.17061">
        <ele>383.60000610352</ele>
        <time>2019-06-15T11:04:21Z</time>
      </trkpt>
      <trkpt lat="61.38637" lon="11.17001">
        <ele>383.79998779297</ele>
        <time>2019-06-15T11:04:28Z</time>
      </trkpt>
      <trkpt lat="61.38652" lon="11.16961">
        <ele>384.39999389648</ele>
        <time>2019-06-15T11:04:35Z</time>
      </trkpt>
      <trkpt lat="61.38682" lon="11.16865">
        <ele>384.60000610352</ele>
        <time>2019-06-15T11:04:43Z</time>
      </trkpt>
      <trkpt lat="61.3871" lon="11.16774">
        <ele>385</ele>
        <time>2019-06-15T11:04:49Z</time>
      </trkpt>
      <trkpt lat="61.38745" lon="11.16665">
        <ele>386.39999389648</ele>
        <time>2019-06-15T11:05:07Z</time>
      </trkpt>
      <trkpt lat="61.38813" lon="11.16475">
        <ele>388</ele>
        <time>2019-06-15T11:05:23Z</time>
      </trkpt>
      <trkpt lat="61.38845" lon="11.16391">
        <ele>388.20001220703</ele>
        <time>2019-06-15T11:05:38Z</time>
      </trkpt>
      <trkpt lat="61.38887" lon="11.1629">
        <ele>389</ele>
        <time>2019-06-15T11:05:54Z</time>
      </trkpt>
      <trkpt lat="61.38955" lon="11.16155">
        <ele>390.60000610352</ele>
        <time>2019-06-15T11:06:11Z</time>
      </trkpt>
      <trkpt lat="61.39017" lon="11.16007">
        <ele>394.60000610352</ele>
        <time>2019-06-15T11:06:28Z</time>
      </trkpt>
      <trkpt lat="61.39148" lon="11.1583">
        <ele>403.60000610352</ele>
        <time>2019-06-15T11:06:39Z</time>
      </trkpt>
      <trkpt lat="61.3919" lon="11.15713">
        <ele>403.60000610352</ele>
        <time>2019-06-15T11:06:48Z</time>
      </trkpt>
      <trkpt lat="61.39206" lon="11.15642">
        <ele>402.79998779297</ele>
        <time>2019-06-15T11:06:55Z</time>
      </trkpt>
      <trkpt lat="61.39283" lon="11.15445">
        <ele>397</ele>
        <time>2019-06-15T11:06:58Z</time>
      </trkpt>
      <trkpt lat="61.39412" lon="11.15245">
        <ele>391.60000610352</ele>
        <time>2019-06-15T11:07:00Z</time>
      </trkpt>
      <trkpt lat="61.39479" lon="11.15114">
        <ele>386.79998779297</ele>
        <time>2019-06-15T11:07:15Z</time>
      </trkpt>
      <trkpt lat="61.39496" lon="11.15069">
        <ele>385.79998779297</ele>
        <time>2019-06-15T11:07:23Z</time>
      </trkpt>
      <trkpt lat="61.39587" lon="11.14761">
        <ele>381.20001220703</ele>
        <time>2019-06-15T11:07:35Z</time>
      </trkpt>
      <trkpt lat="61.3962" lon="11.14654">
        <ele>378.60000610352</ele>
        <time>2019-06-15T11:07:47Z</time>
      </trkpt>
      <trkpt lat="61.39716" lon="11.14598">
        <ele>375.39999389648</ele>
        <time>2019-06-15T11:07:53Z</time>
      </trkpt>
      <trkpt lat="61.39781" lon="11.14567">
        <ele>375</ele>
        <time>2019-06-15T11:07:58Z</time>
      </trkpt>
      <trkpt lat="61.3986" lon="11.14519">
        <ele>375.20001220703</ele>
        <time>2019-06-15T11:08:04Z</time>
      </trkpt>
      <trkpt lat="61.39945" lon="11.14468">
        <ele>375.60000610352</ele>
        <time>2019-06-15T11:08:19Z</time>
      </trkpt>
      <trkpt lat="61.40021" lon="11.14431">
        <ele>375</ele>
        <time>2019-06-15T11:08:34Z</time>
      </trkpt>
      <trkpt lat="61.40114" lon="11.14381">
        <ele>373.79998779297</ele>
        <time>2019-06-15T11:08:43Z</time>
      </trkpt>
      <trkpt lat="61.40151" lon="11.14351">
        <ele>373.79998779297</ele>
        <time>2019-06-15T11:08:54Z</time>
      </trkpt>
      <trkpt lat="61.40195" lon="11.14285">
        <ele>374</ele>
        <time>2019-06-15T11:09:02Z</time>
      </trkpt>
      <trkpt lat="61.40287" lon="11.14088">
        <ele>373.60000610352</ele>
        <time>2019-06-15T11:35:03Z</time>
      </trkpt>
      <trkpt lat="61.40328" lon="11.13966">
        <ele>373.79998779297</ele>
        <time>2019-06-15T11:35:16Z</time>
      </trkpt>
      <trkpt lat="61.40359" lon="11.13821">
        <ele>373.39999389648</ele>
        <time>2019-06-15T11:35:30Z</time>
      </trkpt>
      <trkpt lat="61.40366" lon="11.13771">
        <ele>373.20001220703</ele>
        <time>2019-06-15T11:35:34Z</time>
      </trkpt>
      <trkpt lat="61.40367" lon="11.13763">
        <ele>373.39999389648</ele>
        <time>2019-06-15T11:35:45Z</time>
      </trkpt>
      <trkpt lat="61.40376" lon="11.13731">
        <ele>373.39999389648</ele>
        <time>2019-06-15T11:35:50Z</time>
      </trkpt>
      <trkpt lat="61.40401" lon="11.13619">
        <ele>373.60000610352</ele>
        <time>2019-06-15T11:35:57Z</time>
      </trkpt>
      <trkpt lat="61.40457" lon="11.13425">
        <ele>374.39999389648</ele>
        <time>2019-06-15T11:36:17Z</time>
      </trkpt>
      <trkpt lat="61.40524" lon="11.1327">
        <ele>374.39999389648</ele>
        <time>2019-06-15T11:36:28Z</time>
      </trkpt>
      <trkpt lat="61.40537" lon="11.13245">
        <ele>374.20001220703</ele>
        <time>2019-06-15T11:36:36Z</time>
      </trkpt>
      <trkpt lat="61.4055" lon="11.13254">
        <ele>374.39999389648</ele>
        <time>2019-06-15T11:36:42Z</time>
      </trkpt>
      <trkpt lat="61.40572" lon="11.1331">
        <ele>374.20001220703</ele>
        <time>2019-06-15T11:36:48Z</time>
      </trkpt>
      <trkpt lat="61.40572" lon="11.13307">
        <ele>374.39999389648</ele>
        <time>2019-06-15T11:36:54Z</time>
      </trkpt>
      <trkpt lat="61.40544" lon="11.13224">
        <ele>374.60000610352</ele>
        <time>2019-06-15T11:37:01Z</time>
      </trkpt>
      <trkpt lat="61.40578" lon="11.13152">
        <ele>375</ele>
        <time>2019-06-15T11:37:16Z</time>
      </trkpt>
      <trkpt lat="61.40633" lon="11.13035">
        <ele>375.20001220703</ele>
        <time>2019-06-15T11:37:34Z</time>
      </trkpt>
      <trkpt lat="61.40733" lon="11.12814">
        <ele>375.39999389648</ele>
        <time>2019-06-15T11:37:50Z</time>
      </trkpt>
      <trkpt lat="61.40782" lon="11.12696">
        <ele>375.79998779297</ele>
        <time>2019-06-15T11:38:08Z</time>
      </trkpt>
      <trkpt lat="61.40833" lon="11.12573">
        <ele>376</ele>
        <time>2019-06-15T11:38:21Z</time>
      </trkpt>
      <trkpt lat="61.40903" lon="11.12399">
        <ele>375.79998779297</ele>
        <time>2019-06-15T11:38:35Z</time>
      </trkpt>
      <trkpt lat="61.41094" lon="11.12065">
        <ele>375.79998779297</ele>
        <time>2019-06-15T11:38:44Z</time>
      </trkpt>
      <trkpt lat="61.41172" lon="11.1184">
        <ele>375.39999389648</ele>
        <time>2019-06-15T11:38:50Z</time>
      </trkpt>
      <trkpt lat="61.41222" lon="11.11672">
        <ele>376.20001220703</ele>
        <time>2019-06-15T11:39:04Z</time>
      </trkpt>
      <trkpt lat="61.41279" lon="11.11452">
        <ele>376.20001220703</ele>
        <time>2019-06-15T11:39:11Z</time>
      </trkpt>
      <trkpt lat="61.41301" lon="11.11337">
        <ele>376</ele>
        <time>2019-06-15T11:39:18Z</time>
      </trkpt>
      <trkpt lat="61.41336" lon="11.11193">
        <ele>376.20001220703</ele>
        <time>2019-06-15T11:39:40Z</time>
      </trkpt>
      <trkpt lat="61.41367" lon="11.11075">
        <ele>376.20001220703</ele>
        <time>2019-06-15T11:39:58Z</time>
      </trkpt>
      <trkpt lat="61.41388" lon="11.10983">
        <ele>376.39999389648</ele>
        <time>2019-06-15T11:40:13Z</time>
      </trkpt>
      <trkpt lat="61.41409" lon="11.10819">
        <ele>376</ele>
        <time>2019-06-15T11:40:30Z</time>
      </trkpt>
      <trkpt lat="61.41432" lon="11.10613">
        <ele>375.39999389648</ele>
        <time>2019-06-15T11:40:40Z</time>
      </trkpt>
      <trkpt lat="61.4145" lon="11.10492">
        <ele>375.20001220703</ele>
        <time>2019-06-15T11:40:59Z</time>
      </trkpt>
      <trkpt lat="61.41502" lon="11.10165">
        <ele>375.60000610352</ele>
        <time>2019-06-15T11:41:09Z</time>
      </trkpt>
      <trkpt lat="61.4154" lon="11.09991">
        <ele>375.60000610352</ele>
        <time>2019-06-15T11:41:19Z</time>
      </trkpt>
      <trkpt lat="61.41601" lon="11.09763">
        <ele>375.39999389648</ele>
        <time>2019-06-15T11:41:26Z</time>
      </trkpt>
      <trkpt lat="61.41654" lon="11.09587">
        <ele>375.60000610352</ele>
        <time>2019-06-15T11:41:36Z</time>
      </trkpt>
      <trkpt lat="61.41772" lon="11.09231">
        <ele>375.60000610352</ele>
        <time>2019-06-15T11:41:47Z</time>
      </trkpt>
      <trkpt lat="61.41807" lon="11.09174">
        <ele>375.60000610352</ele>
        <time>2019-06-15T11:41:58Z</time>
      </trkpt>
      <trkpt lat="61.41836" lon="11.09173">
        <ele>375.60000610352</ele>
        <time>2019-06-15T11:42:08Z</time>
      </trkpt>
      <trkpt lat="61.41849" lon="11.09183">
        <ele>375.39999389648</ele>
        <time>2019-06-15T11:42:21Z</time>
      </trkpt>
      <trkpt lat="61.41905" lon="11.09254">
        <ele>375.60000610352</ele>
        <time>2019-06-15T11:42:24Z</time>
      </trkpt>
      <trkpt lat="61.4194" lon="11.09299">
        <ele>376.39999389648</ele>
        <time>2019-06-15T11:42:34Z</time>
      </trkpt>
      <trkpt lat="61.4204" lon="11.09433">
        <ele>376</ele>
        <time>2019-06-15T11:42:54Z</time>
      </trkpt>
      <trkpt lat="61.42108" lon="11.09525">
        <ele>376</ele>
        <time>2019-06-15T11:43:14Z</time>
      </trkpt>
      <trkpt lat="61.42173" lon="11.09612">
        <ele>375.79998779297</ele>
        <time>2019-06-15T11:43:23Z</time>
      </trkpt>
      <trkpt lat="61.42287" lon="11.0972">
        <ele>377</ele>
        <time>2019-06-15T11:44:07Z</time>
      </trkpt>
      <trkpt lat="61.42323" lon="11.09725">
        <ele>377</ele>
        <time>2019-06-15T11:44:12Z</time>
      </trkpt>
      <trkpt lat="61.4238" lon="11.09732">
        <ele>377.39999389648</ele>
        <time>2019-06-15T11:44:23Z</time>
      </trkpt>
      <trkpt lat="61.42421" lon="11.09738">
        <ele>378.20001220703</ele>
        <time>2019-06-15T11:44:35Z</time>
      </trkpt>
      <trkpt lat="61.42452" lon="11.09698">
        <ele>378.39999389648</ele>
        <time>2019-06-15T11:44:42Z</time>
      </trkpt>
      <trkpt lat="61.42479" lon="11.09659">
        <ele>379</ele>
        <time>2019-06-15T11:44:51Z</time>
      </trkpt>
      <trkpt lat="61.42634" lon="11.09403">
        <ele>389.79998779297</ele>
        <time>2019-06-15T11:44:58Z</time>
      </trkpt>
      <trkpt lat="61.42661" lon="11.09354">
        <ele>391</ele>
        <time>2019-06-15T11:45:13Z</time>
      </trkpt>
      <trkpt lat="61.42693" lon="11.09304">
        <ele>391.60000610352</ele>
        <time>2019-06-15T11:45:29Z</time>
      </trkpt>
      <trkpt lat="61.42807" lon="11.09126">
        <ele>389</ele>
        <time>2019-06-15T11:45:37Z</time>
      </trkpt>
      <trkpt lat="61.42829" lon="11.09061">
        <ele>388</ele>
        <time>2019-06-15T11:45:47Z</time>
      </trkpt>
      <trkpt lat="61.42877" lon="11.08902">
        <ele>384.39999389648</ele>
        <time>2019-06-15T11:45:52Z</time>
      </trkpt>
      <trkpt lat="61.42894" lon="11.08844">
        <ele>382.60000610352</ele>
        <time>2019-06-15T11:45:55Z</time>
      </trkpt>
      <trkpt lat="61.42935" lon="11.08713">
        <ele>381.79998779297</ele>
        <time>2019-06-15T11:46:05Z</time>
      </trkpt>
      <trkpt lat="61.42989" lon="11.08533">
        <ele>381.79998779297</ele>
        <time>2019-06-15T11:46:22Z</time>
      </trkpt>
      <trkpt lat="61.43024" lon="11.08437">
        <ele>383.79998779297</ele>
        <time>2019-06-15T11:46:32Z</time>
      </trkpt>
      <trkpt lat="61.43104" lon="11.08256">
        <ele>389</ele>
        <time>2019-06-15T11:46:39Z</time>
      </trkpt>
      <trkpt lat="61.43136" lon="11.08187">
        <ele>390.20001220703</ele>
        <time>2019-06-15T11:46:51Z</time>
      </trkpt>
      <trkpt lat="61.43161" lon="11.08125">
        <ele>390.79998779297</ele>
        <time>2019-06-15T11:47:13Z</time>
      </trkpt>
      <trkpt lat="61.4319" lon="11.0807">
        <ele>390.39999389648</ele>
        <time>2019-06-15T11:47:29Z</time>
      </trkpt>
      <trkpt lat="61.43242" lon="11.07969">
        <ele>390.39999389648</ele>
        <time>2019-06-15T11:47:37Z</time>
      </trkpt>
      <trkpt lat="61.43301" lon="11.07881">
        <ele>390.20001220703</ele>
        <time>2019-06-15T11:47:46Z</time>
      </trkpt>
      <trkpt lat="61.43356" lon="11.07839">
        <ele>389.60000610352</ele>
        <time>2019-06-15T11:47:54Z</time>
      </trkpt>
      <trkpt lat="61.43466" lon="11.07761">
        <ele>385.60000610352</ele>
        <time>2019-06-15T11:48:04Z</time>
      </trkpt>
      <trkpt lat="61.43504" lon="11.07738">
        <ele>385</ele>
        <time>2019-06-15T11:48:11Z</time>
      </trkpt>
      <trkpt lat="61.43685" lon="11.07522">
        <ele>385</ele>
        <time>2019-06-15T11:48:19Z</time>
      </trkpt>
      <trkpt lat="61.43704" lon="11.07491">
        <ele>385.20001220703</ele>
        <time>2019-06-15T11:48:28Z</time>
      </trkpt>
      <trkpt lat="61.43778" lon="11.07423">
        <ele>387.39999389648</ele>
        <time>2019-06-15T11:48:34Z</time>
      </trkpt>
      <trkpt lat="61.43935" lon="11.07321">
        <ele>390.79998779297</ele>
        <time>2019-06-15T11:48:43Z</time>
      </trkpt>
      <trkpt lat="61.4405" lon="11.07256">
        <ele>390.60000610352</ele>
        <time>2019-06-15T11:49:06Z</time>
      </trkpt>
      <trkpt lat="61.44146" lon="11.07202">
        <ele>388.60000610352</ele>
        <time>2019-06-15T11:49:21Z</time>
      </trkpt>
      <trkpt lat="61.44209" lon="11.07158">
        <ele>391.60000610352</ele>
        <time>2019-06-15T11:49:47Z</time>
      </trkpt>
      <trkpt lat="61.44269" lon="11.07119">
        <ele>395.79998779297</ele>
        <time>2019-06-15T11:50:05Z</time>
      </trkpt>
      <trkpt lat="61.44423" lon="11.07063">
        <ele>397.60000610352</ele>
        <time>2019-06-15T11:50:12Z</time>
      </trkpt>
      <trkpt lat="61.44471" lon="11.07012">
        <ele>399</ele>
        <time>2019-06-15T11:50:36Z</time>
      </trkpt>
      <trkpt lat="61.44551" lon="11.06846">
        <ele>405.60000610352</ele>
        <time>2019-06-15T11:50:45Z</time>
      </trkpt>
      <trkpt lat="61.44566" lon="11.06813">
        <ele>406</ele>
        <time>2019-06-15T11:51:01Z</time>
      </trkpt>
      <trkpt lat="61.44593" lon="11.06759">
        <ele>405.60000610352</ele>
        <time>2019-06-15T11:51:21Z</time>
      </trkpt>
      <trkpt lat="61.44616" lon="11.06682">
        <ele>406.39999389648</ele>
        <time>2019-06-15T11:51:36Z</time>
      </trkpt>
      <trkpt lat="61.44637" lon="11.06589">
        <ele>408.39999389648</ele>
        <time>2019-06-15T11:52:02Z</time>
      </trkpt>
      <trkpt lat="61.44644" lon="11.06555">
        <ele>410.39999389648</ele>
        <time>2019-06-15T11:52:19Z</time>
      </trkpt>
      <trkpt lat="61.4467" lon="11.06445">
        <ele>410.79998779297</ele>
        <time>2019-06-15T11:52:37Z</time>
      </trkpt>
      <trkpt lat="61.44696" lon="11.06354">
        <ele>410.39999389648</ele>
        <time>2019-06-15T11:52:58Z</time>
      </trkpt>
      <trkpt lat="61.4472" lon="11.06272">
        <ele>410.60000610352</ele>
        <time>2019-06-15T11:53:13Z</time>
      </trkpt>
      <trkpt lat="61.44757" lon="11.06177">
        <ele>414</ele>
        <time>2019-06-15T11:53:33Z</time>
      </trkpt>
      <trkpt lat="61.44802" lon="11.06096">
        <ele>419.79998779297</ele>
        <time>2019-06-15T11:53:50Z</time>
      </trkpt>
      <trkpt lat="61.44903" lon="11.0604">
        <ele>422.39999389648</ele>
        <time>2019-06-15T11:54:06Z</time>
      </trkpt>
      <trkpt lat="61.44931" lon="11.0603">
        <ele>422.39999389648</ele>
        <time>2019-06-15T11:54:17Z</time>
      </trkpt>
      <trkpt lat="61.44971" lon="11.06">
        <ele>422.20001220703</ele>
        <time>2019-06-15T11:54:26Z</time>
      </trkpt>
      <trkpt lat="61.45024" lon="11.0594">
        <ele>422.60000610352</ele>
        <time>2019-06-15T11:54:34Z</time>
      </trkpt>
      <trkpt lat="61.45179" lon="11.05766">
        <ele>431.60000610352</ele>
        <time>2019-06-15T11:54:53Z</time>
      </trkpt>
      <trkpt lat="61.45219" lon="11.05727">
        <ele>435.60000610352</ele>
        <time>2019-06-15T11:55:01Z</time>
      </trkpt>
      <trkpt lat="61.45234" lon="11.05705">
        <ele>435.79998779297</ele>
        <time>2019-06-15T11:55:19Z</time>
      </trkpt>
      <trkpt lat="61.45353" lon="11.05565">
        <ele>434.79998779297</ele>
        <time>2019-06-15T11:55:43Z</time>
      </trkpt>
      <trkpt lat="61.45496" lon="11.05457">
        <ele>433</ele>
        <time>2019-06-15T11:55:57Z</time>
      </trkpt>
      <trkpt lat="61.45559" lon="11.05419">
        <ele>432.60000610352</ele>
        <time>2019-06-15T11:56:13Z</time>
      </trkpt>
      <trkpt lat="61.45671" lon="11.05351">
        <ele>430.79998779297</ele>
        <time>2019-06-15T11:56:19Z</time>
      </trkpt>
      <trkpt lat="61.45766" lon="11.05295">
        <ele>427.79998779297</ele>
        <time>2019-06-15T11:56:26Z</time>
      </trkpt>
      <trkpt lat="61.45902" lon="11.05217">
        <ele>426.79998779297</ele>
        <time>2019-06-15T11:56:36Z</time>
      </trkpt>
      <trkpt lat="61.45964" lon="11.05175">
        <ele>427.39999389648</ele>
        <time>2019-06-15T11:56:53Z</time>
      </trkpt>
      <trkpt lat="61.4607" lon="11.05116">
        <ele>427.39999389648</ele>
        <time>2019-06-15T11:57:13Z</time>
      </trkpt>
      <trkpt lat="61.46136" lon="11.05058">
        <ele>427.20001220703</ele>
        <time>2019-06-15T11:57:24Z</time>
      </trkpt>
      <trkpt lat="61.46237" lon="11.04962">
        <ele>431</ele>
        <time>2019-06-15T11:57:31Z</time>
      </trkpt>
      <trkpt lat="61.46253" lon="11.04947">
        <ele>432.39999389648</ele>
        <time>2019-06-15T11:57:41Z</time>
      </trkpt>
      <trkpt lat="61.46336" lon="11.04869">
        <ele>432.39999389648</ele>
        <time>2019-06-15T11:57:43Z</time>
      </trkpt>
      <trkpt lat="61.46406" lon="11.04802">
        <ele>431</ele>
        <time>2019-06-15T11:57:50Z</time>
      </trkpt>
      <trkpt lat="61.46601" lon="11.04616">
        <ele>423.20001220703</ele>
        <time>2019-06-15T11:58:16Z</time>
      </trkpt>
      <trkpt lat="61.46632" lon="11.04564">
        <ele>423.60000610352</ele>
        <time>2019-06-15T11:58:24Z</time>
      </trkpt>
      <trkpt lat="61.46706" lon="11.04495">
        <ele>427.79998779297</ele>
        <time>2019-06-15T11:58:38Z</time>
      </trkpt>
      <trkpt lat="61.46776" lon="11.04448">
        <ele>429</ele>
        <time>2019-06-15T11:59:06Z</time>
      </trkpt>
      <trkpt lat="61.46828" lon="11.04429">
        <ele>429</ele>
        <time>2019-06-15T11:59:24Z</time>
      </trkpt>
      <trkpt lat="61.4689" lon="11.04402">
        <ele>429.60000610352</ele>
        <time>2019-06-15T11:59:43Z</time>
      </trkpt>
      <trkpt lat="61.46935" lon="11.04384">
        <ele>431.20001220703</ele>
        <time>2019-06-15T11:59:52Z</time>
      </trkpt>
      <trkpt lat="61.46977" lon="11.04357">
        <ele>432</ele>
        <time>2019-06-15T12:00:07Z</time>
      </trkpt>
      <trkpt lat="61.47127" lon="11.04248">
        <ele>431</ele>
        <time>2019-06-15T12:00:23Z</time>
      </trkpt>
      <trkpt lat="61.4716" lon="11.04226">
        <ele>430.60000610352</ele>
        <time>2019-06-15T12:00:37Z</time>
      </trkpt>
      <trkpt lat="61.47189" lon="11.04214">
        <ele>430.60000610352</ele>
        <time>2019-06-15T12:00:57Z</time>
      </trkpt>
      <trkpt lat="61.47252" lon="11.04175">
        <ele>430.79998779297</ele>
        <time>2019-06-15T12:01:10Z</time>
      </trkpt>
      <trkpt lat="61.47355" lon="11.04121">
        <ele>433.60000610352</ele>
        <time>2019-06-15T12:01:16Z</time>
      </trkpt>
      <trkpt lat="61.47401" lon="11.04111">
        <ele>433.79998779297</ele>
        <time>2019-06-15T12:01:42Z</time>
      </trkpt>
      <trkpt lat="61.47574" lon="11.04101">
        <ele>430.60000610352</ele>
        <time>2019-06-15T12:02:01Z</time>
      </trkpt>
      <trkpt lat="61.47647" lon="11.04112">
        <ele>431.20001220703</ele>
        <time>2019-06-15T12:02:19Z</time>
      </trkpt>
      <trkpt lat="61.47675" lon="11.04109">
        <ele>432</ele>
        <time>2019-06-15T12:02:37Z</time>
      </trkpt>
      <trkpt lat="61.47725" lon="11.04129">
        <ele>432.20001220703</ele>
        <time>2019-06-15T12:02:50Z</time>
      </trkpt>
      <trkpt lat="61.47761" lon="11.04171">
        <ele>432</ele>
        <time>2019-06-15T12:03:00Z</time>
      </trkpt>
      <trkpt lat="61.47834" lon="11.04318">
        <ele>429.60000610352</ele>
        <time>2019-06-15T12:03:11Z</time>
      </trkpt>
      <trkpt lat="61.47926" lon="11.04493">
        <ele>427.20001220703</ele>
        <time>2019-06-15T12:03:27Z</time>
      </trkpt>
      <trkpt lat="61.47991" lon="11.04566">
        <ele>427.60000610352</ele>
        <time>2019-06-15T12:03:44Z</time>
      </trkpt>
      <trkpt lat="61.48026" lon="11.04583">
        <ele>428</ele>
        <time>2019-06-15T12:03:52Z</time>
      </trkpt>
      <trkpt lat="61.48048" lon="11.04584">
        <ele>428</ele>
        <time>2019-06-15T12:04:00Z</time>
      </trkpt>
      <trkpt lat="61.48129" lon="11.04615">
        <ele>426.20001220703</ele>
        <time>2019-06-15T12:04:09Z</time>
      </trkpt>
      <trkpt lat="61.48205" lon="11.04671">
        <ele>423.20001220703</ele>
        <time>2019-06-15T12:04:28Z</time>
      </trkpt>
      <trkpt lat="61.48254" lon="11.04705">
        <ele>419.79998779297</ele>
        <time>2019-06-15T12:04:47Z</time>
      </trkpt>
      <trkpt lat="61.48275" lon="11.04732">
        <ele>419</ele>
        <time>2019-06-15T12:04:57Z</time>
      </trkpt>
      <trkpt lat="61.48295" lon="11.0477">
        <ele>414.39999389648</ele>
        <time>2019-06-15T12:05:10Z</time>
      </trkpt>
      <trkpt lat="61.48301" lon="11.04811">
        <ele>413.39999389648</ele>
        <time>2019-06-15T12:05:27Z</time>
      </trkpt>
      <trkpt lat="61.48317" lon="11.049">
        <ele>412.79998779297</ele>
        <time>2019-06-15T12:05:38Z</time>
      </trkpt>
      <trkpt lat="61.4833" lon="11.04985">
        <ele>411.39999389648</ele>
        <time>2019-06-15T12:05:45Z</time>
      </trkpt>
      <trkpt lat="61.48355" lon="11.05173">
        <ele>405.60000610352</ele>
        <time>2019-06-15T12:05:55Z</time>
      </trkpt>
      <trkpt lat="61.48372" lon="11.05267">
        <ele>403.79998779297</ele>
        <time>2019-06-15T12:06:02Z</time>
      </trkpt>
      <trkpt lat="61.48399" lon="11.05388">
        <ele>402.39999389648</ele>
        <time>2019-06-15T12:06:23Z</time>
      </trkpt>
      <trkpt lat="61.48445" lon="11.05581">
        <ele>397.60000610352</ele>
        <time>2019-06-15T12:06:39Z</time>
      </trkpt>
      <trkpt lat="61.48508" lon="11.05704">
        <ele>392.20001220703</ele>
        <time>2019-06-15T12:06:56Z</time>
      </trkpt>
      <trkpt lat="61.48568" lon="11.05735">
        <ele>388.39999389648</ele>
        <time>2019-06-15T12:07:15Z</time>
      </trkpt>
      <trkpt lat="61.48673" lon="11.05742">
        <ele>386.39999389648</ele>
        <time>2019-06-15T12:07:33Z</time>
      </trkpt>
      <trkpt lat="61.48736" lon="11.05761">
        <ele>385.79998779297</ele>
        <time>2019-06-15T12:07:48Z</time>
      </trkpt>
      <trkpt lat="61.48963" lon="11.05832">
        <ele>385.39999389648</ele>
        <time>2019-06-15T12:08:00Z</time>
      </trkpt>
      <trkpt lat="61.49208" lon="11.05905">
        <ele>385.39999389648</ele>
        <time>2019-06-15T12:08:09Z</time>
      </trkpt>
      <trkpt lat="61.49292" lon="11.05924">
        <ele>385.60000610352</ele>
        <time>2019-06-15T12:08:19Z</time>
      </trkpt>
      <trkpt lat="61.49399" lon="11.05938">
        <ele>386.20001220703</ele>
        <time>2019-06-15T12:08:31Z</time>
      </trkpt>
      <trkpt lat="61.49439" lon="11.05937">
        <ele>387.39999389648</ele>
        <time>2019-06-15T12:08:37Z</time>
      </trkpt>
      <trkpt lat="61.4948" lon="11.05951">
        <ele>387.39999389648</ele>
        <time>2019-06-15T12:08:59Z</time>
      </trkpt>
      <trkpt lat="61.49502" lon="11.0591">
        <ele>387.79998779297</ele>
        <time>2019-06-15T12:09:08Z</time>
      </trkpt>
      <trkpt lat="61.4951" lon="11.05886">
        <ele>387.79998779297</ele>
        <time>2019-06-15T12:09:21Z</time>
      </trkpt>
      <trkpt lat="61.49525" lon="11.0589">
        <ele>387.79998779297</ele>
        <time>2019-06-15T12:09:36Z</time>
      </trkpt>
      <trkpt lat="61.49575" lon="11.05956">
        <ele>386.79998779297</ele>
        <time>2019-06-15T12:09:44Z</time>
      </trkpt>
      <trkpt lat="61.49615" lon="11.06009">
        <ele>386.39999389648</ele>
        <time>2019-06-15T12:09:59Z</time>
      </trkpt>
      <trkpt lat="61.49702" lon="11.06111">
        <ele>386.20001220703</ele>
        <time>2019-06-15T12:10:09Z</time>
      </trkpt>
      <trkpt lat="61.49824" lon="11.06144">
        <ele>386.20001220703</ele>
        <time>2019-06-15T12:10:18Z</time>
      </trkpt>
      <trkpt lat="61.49916" lon="11.06124">
        <ele>386.20001220703</ele>
        <time>2019-06-15T12:10:29Z</time>
      </trkpt>
      <trkpt lat="61.49975" lon="11.06121">
        <ele>386</ele>
        <time>2019-06-15T12:10:41Z</time>
      </trkpt>
      <trkpt lat="61.49993" lon="11.06112">
        <ele>386</ele>
        <time>2019-06-15T12:10:51Z</time>
      </trkpt>
      <trkpt lat="61.50032" lon="11.06112">
        <ele>386.60000610352</ele>
        <time>2019-06-15T12:11:08Z</time>
      </trkpt>
      <trkpt lat="61.50083" lon="11.06186">
        <ele>386.60000610352</ele>
        <time>2019-06-15T12:11:21Z</time>
      </trkpt>
      <trkpt lat="61.50145" lon="11.06287">
        <ele>386.39999389648</ele>
        <time>2019-06-15T12:11:37Z</time>
      </trkpt>
      <trkpt lat="61.50238" lon="11.06367">
        <ele>387.20001220703</ele>
        <time>2019-06-15T12:11:42Z</time>
      </trkpt>
      <trkpt lat="61.50367" lon="11.06418">
        <ele>388.39999389648</ele>
        <time>2019-06-15T12:11:49Z</time>
      </trkpt>
      <trkpt lat="61.50444" lon="11.06462">
        <ele>389.79998779297</ele>
        <time>2019-06-15T12:13:06Z</time>
      </trkpt>
      <trkpt lat="61.50592" lon="11.06544">
        <ele>397.20001220703</ele>
        <time>2019-06-15T12:13:16Z</time>
      </trkpt>
      <trkpt lat="61.50607" lon="11.06557">
        <ele>397</ele>
        <time>2019-06-15T12:13:30Z</time>
      </trkpt>
      <trkpt lat="61.50627" lon="11.06569">
        <ele>397</ele>
        <time>2019-06-15T12:13:41Z</time>
      </trkpt>
      <trkpt lat="61.50707" lon="11.06594">
        <ele>395.60000610352</ele>
        <time>2019-06-15T12:13:52Z</time>
      </trkpt>
      <trkpt lat="61.50782" lon="11.06578">
        <ele>392.39999389648</ele>
        <time>2019-06-15T12:14:11Z</time>
      </trkpt>
      <trkpt lat="61.50841" lon="11.06593">
        <ele>390.20001220703</ele>
        <time>2019-06-15T12:14:21Z</time>
      </trkpt>
      <trkpt lat="61.50937" lon="11.06619">
        <ele>389.39999389648</ele>
        <time>2019-06-15T12:14:41Z</time>
      </trkpt>
      <trkpt lat="61.51003" lon="11.0664">
        <ele>389.79998779297</ele>
        <time>2019-06-15T12:15:12Z</time>
      </trkpt>
      <trkpt lat="61.51074" lon="11.06695">
        <ele>389.79998779297</ele>
        <time>2019-06-15T12:15:23Z</time>
      </trkpt>
      <trkpt lat="61.51137" lon="11.06746">
        <ele>391.79998779297</ele>
        <time>2019-06-15T12:15:43Z</time>
      </trkpt>
      <trkpt lat="61.51182" lon="11.06772">
        <ele>394.79998779297</ele>
        <time>2019-06-15T12:15:59Z</time>
      </trkpt>
      <trkpt lat="61.51244" lon="11.06783">
        <ele>396.20001220703</ele>
        <time>2019-06-15T12:16:09Z</time>
      </trkpt>
      <trkpt lat="61.51317" lon="11.06793">
        <ele>395.60000610352</ele>
        <time>2019-06-15T12:16:20Z</time>
      </trkpt>
      <trkpt lat="61.51394" lon="11.06794">
        <ele>394.60000610352</ele>
        <time>2019-06-15T12:16:26Z</time>
      </trkpt>
      <trkpt lat="61.51447" lon="11.06756">
        <ele>393.60000610352</ele>
        <time>2019-06-15T12:16:39Z</time>
      </trkpt>
      <trkpt lat="61.51517" lon="11.06669">
        <ele>391.79998779297</ele>
        <time>2019-06-15T12:16:51Z</time>
      </trkpt>
      <trkpt lat="61.51623" lon="11.06576">
        <ele>388.60000610352</ele>
        <time>2019-06-15T12:16:58Z</time>
      </trkpt>
      <trkpt lat="61.51709" lon="11.06563">
        <ele>386.79998779297</ele>
        <time>2019-06-15T12:17:21Z</time>
      </trkpt>
      <trkpt lat="61.51831" lon="11.0658">
        <ele>386.39999389648</ele>
        <time>2019-06-15T12:17:31Z</time>
      </trkpt>
      <trkpt lat="61.51901" lon="11.06587">
        <ele>387.60000610352</ele>
        <time>2019-06-15T12:17:37Z</time>
      </trkpt>
      <trkpt lat="61.51982" lon="11.0655">
        <ele>387.79998779297</ele>
        <time>2019-06-15T12:17:59Z</time>
      </trkpt>
      <trkpt lat="61.51998" lon="11.06542">
        <ele>387.79998779297</ele>
        <time>2019-06-15T12:18:14Z</time>
      </trkpt>
      <trkpt lat="61.52036" lon="11.06518">
        <ele>387.20001220703</ele>
        <time>2019-06-15T12:18:29Z</time>
      </trkpt>
      <trkpt lat="61.52103" lon="11.06495">
        <ele>387.39999389648</ele>
        <time>2019-06-15T12:18:48Z</time>
      </trkpt>
      <trkpt lat="61.52162" lon="11.06504">
        <ele>388.60000610352</ele>
        <time>2019-06-15T12:18:58Z</time>
      </trkpt>
      <trkpt lat="61.52213" lon="11.06535">
        <ele>390.60000610352</ele>
        <time>2019-06-15T12:19:20Z</time>
      </trkpt>
      <trkpt lat="61.52265" lon="11.06537">
        <ele>390.79998779297</ele>
        <time>2019-06-15T12:19:35Z</time>
      </trkpt>
      <trkpt lat="61.52289" lon="11.06544">
        <ele>390.79998779297</ele>
        <time>2019-06-15T12:19:51Z</time>
      </trkpt>
      <trkpt lat="61.52403" lon="11.06556">
        <ele>388</ele>
        <time>2019-06-15T12:20:12Z</time>
      </trkpt>
      <trkpt lat="61.52476" lon="11.06556">
        <ele>387.79998779297</ele>
        <time>2019-06-15T12:20:21Z</time>
      </trkpt>
      <trkpt lat="61.52522" lon="11.06528">
        <ele>387.79998779297</ele>
        <time>2019-06-15T12:20:29Z</time>
      </trkpt>
      <trkpt lat="61.52569" lon="11.0651">
        <ele>388.20001220703</ele>
        <time>2019-06-15T12:20:44Z</time>
      </trkpt>
      <trkpt lat="61.52619" lon="11.06555">
        <ele>389</ele>
        <time>2019-06-15T12:20:52Z</time>
      </trkpt>
      <trkpt lat="61.5271" lon="11.06601">
        <ele>389.60000610352</ele>
        <time>2019-06-15T12:21:04Z</time>
      </trkpt>
      <trkpt lat="61.52786" lon="11.06595">
        <ele>389.79998779297</ele>
        <time>2019-06-15T12:21:20Z</time>
      </trkpt>
      <trkpt lat="61.52858" lon="11.06558">
        <ele>390</ele>
        <time>2019-06-15T12:21:30Z</time>
      </trkpt>
      <trkpt lat="61.52984" lon="11.0645">
        <ele>389</ele>
        <time>2019-06-15T12:21:56Z</time>
      </trkpt>
      <trkpt lat="61.53087" lon="11.06494">
        <ele>388</ele>
        <time>2019-06-15T12:22:08Z</time>
      </trkpt>
      <trkpt lat="61.53155" lon="11.06529">
        <ele>388.39999389648</ele>
        <time>2019-06-15T12:22:24Z</time>
      </trkpt>
      <trkpt lat="61.5322" lon="11.06557">
        <ele>388.20001220703</ele>
        <time>2019-06-15T12:22:44Z</time>
      </trkpt>
      <trkpt lat="61.53363" lon="11.06575">
        <ele>388.20001220703</ele>
        <time>2019-06-15T12:22:56Z</time>
      </trkpt>
      <trkpt lat="61.53447" lon="11.0656">
        <ele>388</ele>
        <time>2019-06-15T12:23:18Z</time>
      </trkpt>
      <trkpt lat="61.53467" lon="11.06556">
        <ele>388</ele>
        <time>2019-06-15T12:23:29Z</time>
      </trkpt>
      <trkpt lat="61.53512" lon="11.06543">
        <ele>388.60000610352</ele>
        <time>2019-06-15T12:23:37Z</time>
      </trkpt>
      <trkpt lat="61.53564" lon="11.06543">
        <ele>388.60000610352</ele>
        <time>2019-06-15T12:23:54Z</time>
      </trkpt>
      <trkpt lat="61.53605" lon="11.06537">
        <ele>388.79998779297</ele>
        <time>2019-06-15T12:24:04Z</time>
      </trkpt>
      <trkpt lat="61.53735" lon="11.06518">
        <ele>388.79998779297</ele>
        <time>2019-06-15T12:24:18Z</time>
      </trkpt>
      <trkpt lat="61.53816" lon="11.06502">
        <ele>388.39999389648</ele>
        <time>2019-06-15T12:24:25Z</time>
      </trkpt>
      <trkpt lat="61.53901" lon="11.06524">
        <ele>389</ele>
        <time>2019-06-15T12:24:32Z</time>
      </trkpt>
      <trkpt lat="61.53994" lon="11.06487">
        <ele>389.60000610352</ele>
        <time>2019-06-15T12:24:43Z</time>
      </trkpt>
      <trkpt lat="61.5404" lon="11.0646">
        <ele>390.60000610352</ele>
        <time>2019-06-15T12:24:58Z</time>
      </trkpt>
      <trkpt lat="61.54128" lon="11.0643">
        <ele>393.39999389648</ele>
        <time>2019-06-15T12:25:07Z</time>
      </trkpt>
      <trkpt lat="61.5424" lon="11.06403">
        <ele>394.20001220703</ele>
        <time>2019-06-15T12:25:22Z</time>
      </trkpt>
      <trkpt lat="61.54274" lon="11.06377">
        <ele>394.79998779297</ele>
        <time>2019-06-15T12:25:36Z</time>
      </trkpt>
      <trkpt lat="61.54321" lon="11.06297">
        <ele>394.60000610352</ele>
        <time>2019-06-15T12:25:50Z</time>
      </trkpt>
      <trkpt lat="61.54373" lon="11.06219">
        <ele>394.20001220703</ele>
        <time>2019-06-15T12:26:01Z</time>
      </trkpt>
      <trkpt lat="61.54401" lon="11.06191">
        <ele>393.79998779297</ele>
        <time>2019-06-15T12:26:16Z</time>
      </trkpt>
      <trkpt lat="61.54476" lon="11.06133">
        <ele>393.79998779297</ele>
        <time>2019-06-15T12:26:35Z</time>
      </trkpt>
      <trkpt lat="61.54511" lon="11.06109">
        <ele>394</ele>
        <time>2019-06-15T12:26:44Z</time>
      </trkpt>
      <trkpt lat="61.54552" lon="11.06089">
        <ele>395</ele>
        <time>2019-06-15T12:26:55Z</time>
      </trkpt>
      <trkpt lat="61.54621" lon="11.06078">
        <ele>397.20001220703</ele>
        <time>2019-06-15T12:27:02Z</time>
      </trkpt>
      <trkpt lat="61.54647" lon="11.06049">
        <ele>398.39999389648</ele>
        <time>2019-06-15T12:27:09Z</time>
      </trkpt>
      <trkpt lat="61.54734" lon="11.05933">
        <ele>398.79998779297</ele>
        <time>2019-06-15T12:28:30Z</time>
      </trkpt>
      <trkpt lat="61.54779" lon="11.05834">
        <ele>399.20001220703</ele>
        <time>2019-06-15T12:28:42Z</time>
      </trkpt>
      <trkpt lat="61.54895" lon="11.0545">
        <ele>399.20001220703</ele>
        <time>2019-06-15T12:28:50Z</time>
      </trkpt>
      <trkpt lat="61.5497" lon="11.05302">
        <ele>397.39999389648</ele>
        <time>2019-06-15T12:29:05Z</time>
      </trkpt>
      <trkpt lat="61.55013" lon="11.05256">
        <ele>397.60000610352</ele>
        <time>2019-06-15T12:29:18Z</time>
      </trkpt>
      <trkpt lat="61.55139" lon="11.04994">
        <ele>407</ele>
        <time>2019-06-15T12:29:33Z</time>
      </trkpt>
      <trkpt lat="61.55159" lon="11.04848">
        <ele>411.20001220703</ele>
        <time>2019-06-15T12:30:02Z</time>
      </trkpt>
      <trkpt lat="61.55172" lon="11.04771">
        <ele>412.39999389648</ele>
        <time>2019-06-15T12:30:15Z</time>
      </trkpt>
      <trkpt lat="61.55206" lon="11.04725">
        <ele>413.79998779297</ele>
        <time>2019-06-15T12:30:26Z</time>
      </trkpt>
      <trkpt lat="61.55317" lon="11.04748">
        <ele>419.39999389648</ele>
        <time>2019-06-15T12:30:36Z</time>
      </trkpt>
      <trkpt lat="61.55384" lon="11.0463">
        <ele>424.60000610352</ele>
        <time>2019-06-15T12:30:44Z</time>
      </trkpt>
      <trkpt lat="61.55433" lon="11.04647">
        <ele>427.39999389648</ele>
        <time>2019-06-15T12:30:57Z</time>
      </trkpt>
      <trkpt lat="61.55468" lon="11.04711">
        <ele>427</ele>
        <time>2019-06-15T12:31:06Z</time>
      </trkpt>
      <trkpt lat="61.55502" lon="11.04718">
        <ele>427.39999389648</ele>
        <time>2019-06-15T12:31:15Z</time>
      </trkpt>
      <trkpt lat="61.55543" lon="11.04633">
        <ele>430.39999389648</ele>
        <time>2019-06-15T12:31:42Z</time>
      </trkpt>
      <trkpt lat="61.55596" lon="11.04579">
        <ele>433.79998779297</ele>
        <time>2019-06-15T12:31:49Z</time>
      </trkpt>
      <trkpt lat="61.55594" lon="11.04503">
        <ele>435.20001220703</ele>
        <time>2019-06-15T12:32:05Z</time>
      </trkpt>
      <trkpt lat="61.55592" lon="11.04409">
        <ele>438.20001220703</ele>
        <time>2019-06-15T12:32:18Z</time>
      </trkpt>
      <trkpt lat="61.55591" lon="11.04398">
        <ele>439.20001220703</ele>
        <time>2019-06-15T12:32:23Z</time>
      </trkpt>
      <trkpt lat="61.55594" lon="11.04438">
        <ele>439.20001220703</ele>
        <time>2019-06-15T12:32:37Z</time>
      </trkpt>
      <trkpt lat="61.55595" lon="11.04549">
        <ele>438.39999389648</ele>
        <time>2019-06-15T12:32:43Z</time>
      </trkpt>
      <trkpt lat="61.556" lon="11.04589">
        <ele>435.20001220703</ele>
        <time>2019-06-15T12:32:57Z</time>
      </trkpt>
      <trkpt lat="61.55624" lon="11.04584">
        <ele>434.39999389648</ele>
        <time>2019-06-15T12:33:56Z</time>
      </trkpt>
      <trkpt lat="61.55679" lon="11.0457">
        <ele>435.79998779297</ele>
        <time>2019-06-15T12:34:04Z</time>
      </trkpt>
      <trkpt lat="61.55742" lon="11.04559">
        <ele>436.60000610352</ele>
        <time>2019-06-15T12:34:24Z</time>
      </trkpt>
      <trkpt lat="61.55915" lon="11.04528">
        <ele>437.79998779297</ele>
        <time>2019-06-15T12:34:32Z</time>
      </trkpt>
      <trkpt lat="61.56027" lon="11.04507">
        <ele>439.39999389648</ele>
        <time>2019-06-15T12:34:36Z</time>
      </trkpt>
      <trkpt lat="61.56099" lon="11.04502">
        <ele>443.20001220703</ele>
        <time>2019-06-15T12:34:42Z</time>
      </trkpt>
      <trkpt lat="61.56143" lon="11.04518">
        <ele>447.60000610352</ele>
        <time>2019-06-15T12:34:47Z</time>
      </trkpt>
      <trkpt lat="61.56199" lon="11.04559">
        <ele>450.79998779297</ele>
        <time>2019-06-15T12:34:51Z</time>
      </trkpt>
      <trkpt lat="61.5626" lon="11.04583">
        <ele>457.60000610352</ele>
        <time>2019-06-15T12:39:29Z</time>
      </trkpt>
      <trkpt lat="61.56262" lon="11.04554">
        <ele>457.60000610352</ele>
        <time>2019-06-15T12:39:34Z</time>
      </trkpt>
      <trkpt lat="61.56257" lon="11.04474">
        <ele>457.79998779297</ele>
        <time>2019-06-15T12:43:01Z</time>
      </trkpt>
      <trkpt lat="61.56263" lon="11.04301">
        <ele>459</ele>
        <time>2019-06-15T12:54:03Z</time>
      </trkpt>
      <trkpt lat="61.56268" lon="11.04171">
        <ele>458.79998779297</ele>
        <time>2019-06-15T12:56:58Z</time>
      </trkpt>
      <trkpt lat="61.5632" lon="11.03591">
        <ele>452.79998779297</ele>
        <time>2019-06-15T12:58:36Z</time>
      </trkpt>
      <trkpt lat="61.56376" lon="11.03264">
        <ele>450.20001220703</ele>
        <time>2019-06-15T01:06:23Z</time>
      </trkpt>
      <trkpt lat="61.56452" lon="11.03004">
        <ele>447.20001220703</ele>
        <time>2019-06-15T01:33:46Z</time>
      </trkpt>
      <trkpt lat="61.56573" lon="11.02737">
        <ele>439.39999389648</ele>
        <time>2019-06-15T01:33:51Z</time>
      </trkpt>
      <trkpt lat="61.56687" lon="11.0257">
        <ele>432.39999389648</ele>
        <time>2019-06-15T01:33:59Z</time>
      </trkpt>
      <trkpt lat="61.56722" lon="11.02533">
        <ele>424.79998779297</ele>
        <time>2019-06-15T01:34:22Z</time>
      </trkpt>
      <trkpt lat="61.56754" lon="11.02501">
        <ele>423</ele>
        <time>2019-06-15T01:34:35Z</time>
      </trkpt>
      <trkpt lat="61.56826" lon="11.02441">
        <ele>421.60000610352</ele>
        <time>2019-06-15T01:34:46Z</time>
      </trkpt>
      <trkpt lat="61.56899" lon="11.02345">
        <ele>418.20001220703</ele>
        <time>2019-06-15T01:35:08Z</time>
      </trkpt>
      <trkpt lat="61.56939" lon="11.02242">
        <ele>415.60000610352</ele>
        <time>2019-06-15T01:35:13Z</time>
      </trkpt>
      <trkpt lat="61.57001" lon="11.02057">
        <ele>409.39999389648</ele>
        <time>2019-06-15T01:35:28Z</time>
      </trkpt>
      <trkpt lat="61.57038" lon="11.01948">
        <ele>407</ele>
        <time>2019-06-15T01:35:46Z</time>
      </trkpt>
      <trkpt lat="61.5709" lon="11.01796">
        <ele>402.60000610352</ele>
        <time>2019-06-15T01:36:06Z</time>
      </trkpt>
      <trkpt lat="61.5712" lon="11.01726">
        <ele>402</ele>
        <time>2019-06-15T01:36:25Z</time>
      </trkpt>
      <trkpt lat="61.57127" lon="11.01728">
        <ele>401.79998779297</ele>
        <time>2019-06-15T01:36:43Z</time>
      </trkpt>
      <trkpt lat="61.57179" lon="11.01726">
        <ele>402.20001220703</ele>
        <time>2019-06-15T01:36:57Z</time>
      </trkpt>
      <trkpt lat="61.57192" lon="11.01711">
        <ele>403.39999389648</ele>
        <time>2019-06-15T01:37:09Z</time>
      </trkpt>
      <trkpt lat="61.57212" lon="11.01725">
        <ele>317.60000610352</ele>
        <time>2019-06-15T01:37:18Z</time>
      </trkpt>
      <trkpt lat="61.57171" lon="11.01735">
        <ele>316.20001220703</ele>
        <time>2019-06-15T01:37:37Z</time>
      </trkpt>
      <trkpt lat="61.57143" lon="11.01735">
        <ele>317</ele>
        <time>2019-06-15T01:37:49Z</time>
      </trkpt>
      <trkpt lat="61.57102" lon="11.01762">
        <ele>315.39999389648</ele>
        <time>2019-06-15T01:38:06Z</time>
      </trkpt>
      <trkpt lat="61.57064" lon="11.01865">
        <ele>315</ele>
        <time>2019-06-15T01:38:25Z</time>
      </trkpt>
      <trkpt lat="61.57033" lon="11.01953">
        <ele>314.79998779297</ele>
        <time>2019-06-15T01:38:46Z</time>
      </trkpt>
      <trkpt lat="61.56936" lon="11.02244">
        <ele>322.39999389648</ele>
        <time>2019-06-15T01:38:54Z</time>
      </trkpt>
      <trkpt lat="61.56909" lon="11.02317">
        <ele>323.60000610352</ele>
        <time>2019-06-15T01:39:11Z</time>
      </trkpt>
      <trkpt lat="61.56861" lon="11.024">
        <ele>327.60000610352</ele>
        <time>2019-06-15T01:39:24Z</time>
      </trkpt>
      <trkpt lat="61.56762" lon="11.02489">
        <ele>334.60000610352</ele>
        <time>2019-06-15T01:39:42Z</time>
      </trkpt>
      <trkpt lat="61.56598" lon="11.02701">
        <ele>345.60000610352</ele>
        <time>2019-06-15T01:39:53Z</time>
      </trkpt>
      <trkpt lat="61.56487" lon="11.02906">
        <ele>352.79998779297</ele>
        <time>2019-06-15T01:40:04Z</time>
      </trkpt>
      <trkpt lat="61.5642" lon="11.03092">
        <ele>359.39999389648</ele>
        <time>2019-06-15T01:40:22Z</time>
      </trkpt>
      <trkpt lat="61.56389" lon="11.03186">
        <ele>362</ele>
        <time>2019-06-15T01:40:40Z</time>
      </trkpt>
      <trkpt lat="61.56344" lon="11.03428">
        <ele>366.20001220703</ele>
        <time>2019-06-15T01:40:54Z</time>
      </trkpt>
      <trkpt lat="61.5633" lon="11.03505">
        <ele>366.39999389648</ele>
        <time>2019-06-15T01:41:00Z</time>
      </trkpt>
      <trkpt lat="61.56323" lon="11.03573">
        <ele>367.20001220703</ele>
        <time>2019-06-15T01:41:10Z</time>
      </trkpt>
      <trkpt lat="61.56304" lon="11.03715">
        <ele>368</ele>
        <time>2019-06-15T01:41:29Z</time>
      </trkpt>
      <trkpt lat="61.56287" lon="11.03978">
        <ele>370.20001220703</ele>
        <time>2019-06-15T01:41:38Z</time>
      </trkpt>
      <trkpt lat="61.56278" lon="11.04091">
        <ele>371.39999389648</ele>
        <time>2019-06-15T01:41:50Z</time>
      </trkpt>
      <trkpt lat="61.56267" lon="11.04298">
        <ele>374.20001220703</ele>
        <time>2019-06-15T01:42:00Z</time>
      </trkpt>
      <trkpt lat="61.56261" lon="11.04443">
        <ele>374.39999389648</ele>
        <time>2019-06-15T01:42:08Z</time>
      </trkpt>
      <trkpt lat="61.5627" lon="11.04569">
        <ele>373.39999389648</ele>
        <time>2019-06-15T01:42:15Z</time>
      </trkpt>
      <trkpt lat="61.56297" lon="11.0463">
        <ele>373.39999389648</ele>
        <time>2019-06-15T01:42:33Z</time>
      </trkpt>
      <trkpt lat="61.56408" lon="11.04706">
        <ele>381.60000610352</ele>
        <time>2019-06-15T01:42:42Z</time>
      </trkpt>
      <trkpt lat="61.5651" lon="11.04748">
        <ele>387.20001220703</ele>
        <time>2019-06-15T01:42:59Z</time>
      </trkpt>
      <trkpt lat="61.56578" lon="11.0478">
        <ele>388.60000610352</ele>
        <time>2019-06-15T01:43:07Z</time>
      </trkpt>
      <trkpt lat="61.56618" lon="11.048">
        <ele>389</ele>
        <time>2019-06-15T01:43:15Z</time>
      </trkpt>
      <trkpt lat="61.567" lon="11.04832">
        <ele>393</ele>
        <time>2019-06-15T01:43:35Z</time>
      </trkpt>
      <trkpt lat="61.56747" lon="11.04866">
        <ele>394.79998779297</ele>
        <time>2019-06-15T01:43:51Z</time>
      </trkpt>
      <trkpt lat="61.56823" lon="11.04946">
        <ele>394.20001220703</ele>
        <time>2019-06-15T01:44:00Z</time>
      </trkpt>
      <trkpt lat="61.56858" lon="11.04999">
        <ele>393.20001220703</ele>
        <time>2019-06-15T01:44:19Z</time>
      </trkpt>
      <trkpt lat="61.56888" lon="11.05051">
        <ele>391.60000610352</ele>
        <time>2019-06-15T01:44:34Z</time>
      </trkpt>
      <trkpt lat="61.56941" lon="11.05084">
        <ele>389</ele>
        <time>2019-06-15T01:44:47Z</time>
      </trkpt>
      <trkpt lat="61.56993" lon="11.0508">
        <ele>389.79998779297</ele>
        <time>2019-06-15T01:45:04Z</time>
      </trkpt>
      <trkpt lat="61.57036" lon="11.05118">
        <ele>390.60000610352</ele>
        <time>2019-06-15T01:45:20Z</time>
      </trkpt>
      <trkpt lat="61.57037" lon="11.0511">
        <ele>392.20001220703</ele>
        <time>2019-06-15T01:45:47Z</time>
      </trkpt>
      <trkpt lat="61.57073" lon="11.0508">
        <ele>392.79998779297</ele>
        <time>2019-06-15T01:46:07Z</time>
      </trkpt>
      <trkpt lat="61.5705" lon="11.05103">
        <ele>393.39999389648</ele>
        <time>2019-06-15T01:46:27Z</time>
      </trkpt>
      <trkpt lat="61.57042" lon="11.05132">
        <ele>393.20001220703</ele>
        <time>2019-06-15T01:46:43Z</time>
      </trkpt>
      <trkpt lat="61.5702" lon="11.05063">
        <ele>392.39999389648</ele>
        <time>2019-06-15T01:46:51Z</time>
      </trkpt>
      <trkpt lat="61.5699" lon="11.05069">
        <ele>391.39999389648</ele>
        <time>2019-06-15T01:47:13Z</time>
      </trkpt>
      <trkpt lat="61.56941" lon="11.05075">
        <ele>391</ele>
        <time>2019-06-15T01:47:30Z</time>
      </trkpt>
      <trkpt lat="61.56898" lon="11.05055">
        <ele>390.39999389648</ele>
        <time>2019-06-15T01:47:44Z</time>
      </trkpt>
      <trkpt lat="61.56885" lon="11.05015">
        <ele>390</ele>
        <time>2019-06-15T01:48:02Z</time>
      </trkpt>
      <trkpt lat="61.56889" lon="11.04988">
        <ele>390</ele>
        <time>2019-06-15T01:48:16Z</time>
      </trkpt>
      <trkpt lat="61.56924" lon="11.04856">
        <ele>391.39999389648</ele>
        <time>2019-06-15T01:48:40Z</time>
      </trkpt>
      <trkpt lat="61.56927" lon="11.04718">
        <ele>392</ele>
        <time>2019-06-15T01:48:55Z</time>
      </trkpt>
      <trkpt lat="61.56954" lon="11.04526">
        <ele>394.20001220703</ele>
        <time>2019-06-15T01:49:13Z</time>
      </trkpt>
      <trkpt lat="61.56985" lon="11.04449">
        <ele>394.60000610352</ele>
        <time>2019-06-15T01:49:33Z</time>
      </trkpt>
      <trkpt lat="61.57042" lon="11.04368">
        <ele>394.60000610352</ele>
        <time>2019-06-15T01:49:44Z</time>
      </trkpt>
      <trkpt lat="61.57115" lon="11.04274">
        <ele>393.39999389648</ele>
        <time>2019-06-15T01:49:54Z</time>
      </trkpt>
      <trkpt lat="61.57097" lon="11.04176">
        <ele>392.79998779297</ele>
        <time>2019-06-15T01:50:05Z</time>
      </trkpt>
      <trkpt lat="61.57024" lon="11.03852">
        <ele>394.20001220703</ele>
        <time>2019-06-15T01:50:11Z</time>
      </trkpt>
      <trkpt lat="61.56999" lon="11.03716">
        <ele>394.20001220703</ele>
        <time>2019-06-15T01:50:50Z</time>
      </trkpt>
      <trkpt lat="61.57" lon="11.03612">
        <ele>393.79998779297</ele>
        <time>2019-06-15T01:51:10Z</time>
      </trkpt>
      <trkpt lat="61.57003" lon="11.03521">
        <ele>393.60000610352</ele>
        <time>2019-06-15T01:51:29Z</time>
      </trkpt>
      <trkpt lat="61.57014" lon="11.03342">
        <ele>393</ele>
        <time>2019-06-15T01:51:58Z</time>
      </trkpt>
      <trkpt lat="61.57033" lon="11.03271">
        <ele>391.60000610352</ele>
        <time>2019-06-15T01:52:19Z</time>
      </trkpt>
      <trkpt lat="61.57056" lon="11.0322">
        <ele>389.39999389648</ele>
        <time>2019-06-15T01:52:42Z</time>
      </trkpt>
      <trkpt lat="61.57083" lon="11.03183">
        <ele>388.60000610352</ele>
        <time>2019-06-15T01:53:01Z</time>
      </trkpt>
      <trkpt lat="61.5712" lon="11.03144">
        <ele>388</ele>
        <time>2019-06-15T01:53:18Z</time>
      </trkpt>
      <trkpt lat="61.57171" lon="11.03067">
        <ele>386.20001220703</ele>
        <time>2019-06-15T01:53:37Z</time>
      </trkpt>
      <trkpt lat="61.57194" lon="11.03021">
        <ele>386.20001220703</ele>
        <time>2019-06-15T01:53:49Z</time>
      </trkpt>
      <trkpt lat="61.57239" lon="11.02934">
        <ele>385.20001220703</ele>
        <time>2019-06-15T01:54:12Z</time>
      </trkpt>
      <trkpt lat="61.57386" lon="11.02813">
        <ele>380.20001220703</ele>
        <time>2019-06-15T01:54:32Z</time>
      </trkpt>
      <trkpt lat="61.57421" lon="11.02802">
        <ele>379.79998779297</ele>
        <time>2019-06-15T01:54:41Z</time>
      </trkpt>
      <trkpt lat="61.57483" lon="11.02773">
        <ele>377.60000610352</ele>
        <time>2019-06-15T01:54:52Z</time>
      </trkpt>
      <trkpt lat="61.57551" lon="11.02718">
        <ele>373.39999389648</ele>
        <time>2019-06-15T01:55:15Z</time>
      </trkpt>
      <trkpt lat="61.57588" lon="11.02716">
        <ele>371</ele>
        <time>2019-06-15T01:55:28Z</time>
      </trkpt>
      <trkpt lat="61.57677" lon="11.02747">
        <ele>367</ele>
        <time>2019-06-15T01:55:52Z</time>
      </trkpt>
      <trkpt lat="61.5779" lon="11.02588">
        <ele>360</ele>
        <time>2019-06-15T01:56:05Z</time>
      </trkpt>
      <trkpt lat="61.57842" lon="11.02574">
        <ele>355.60000610352</ele>
        <time>2019-06-15T01:56:20Z</time>
      </trkpt>
      <trkpt lat="61.57878" lon="11.0258">
        <ele>354.39999389648</ele>
        <time>2019-06-15T01:56:42Z</time>
      </trkpt>
      <trkpt lat="61.57966" lon="11.02577">
        <ele>348</ele>
        <time>2019-06-15T01:56:53Z</time>
      </trkpt>
      <trkpt lat="61.5817" lon="11.02519">
        <ele>331.79998779297</ele>
        <time>2019-06-15T01:57:02Z</time>
      </trkpt>
      <trkpt lat="61.58305" lon="11.02419">
        <ele>323.79998779297</ele>
        <time>2019-06-15T01:57:26Z</time>
      </trkpt>
      <trkpt lat="61.58384" lon="11.02287">
        <ele>319</ele>
        <time>2019-06-15T01:57:35Z</time>
      </trkpt>
      <trkpt lat="61.58431" lon="11.0216">
        <ele>319.20001220703</ele>
        <time>2019-06-15T01:57:52Z</time>
      </trkpt>
      <trkpt lat="61.58473" lon="11.02034">
        <ele>319.20001220703</ele>
        <time>2019-06-15T01:58:04Z</time>
      </trkpt>
      <trkpt lat="61.58526" lon="11.01874">
        <ele>319.79998779297</ele>
        <time>2019-06-15T01:58:09Z</time>
      </trkpt>
      <trkpt lat="61.58573" lon="11.01741">
        <ele>320.20001220703</ele>
        <time>2019-06-15T01:58:14Z</time>
      </trkpt>
      <trkpt lat="61.58591" lon="11.01693">
        <ele>320.79998779297</ele>
        <time>2019-06-15T02:02:45Z</time>
      </trkpt>
      <trkpt lat="61.58688" lon="11.01519">
        <ele>321.39999389648</ele>
        <time>2019-06-15T02:02:57Z</time>
      </trkpt>
      <trkpt lat="61.58731" lon="11.01464">
        <ele>321.79998779297</ele>
        <time>2019-06-15T02:03:10Z</time>
      </trkpt>
      <trkpt lat="61.58787" lon="11.01399">
        <ele>322.60000610352</ele>
        <time>2019-06-15T02:03:23Z</time>
      </trkpt>
      <trkpt lat="61.58808" lon="11.01382">
        <ele>323.39999389648</ele>
        <time>2019-06-15T02:03:42Z</time>
      </trkpt>
      <trkpt lat="61.5887" lon="11.01342">
        <ele>324.20001220703</ele>
        <time>2019-06-15T02:03:54Z</time>
      </trkpt>
      <trkpt lat="61.58928" lon="11.01324">
        <ele>324.60000610352</ele>
        <time>2019-06-15T02:03:59Z</time>
      </trkpt>
      <trkpt lat="61.59048" lon="11.01364">
        <ele>321</ele>
        <time>2019-06-15T02:04:28Z</time>
      </trkpt>
      <trkpt lat="61.59125" lon="11.01366">
        <ele>321.60000610352</ele>
        <time>2019-06-15T02:04:44Z</time>
      </trkpt>
      <trkpt lat="61.59259" lon="11.01335">
        <ele>321.60000610352</ele>
        <time>2019-06-15T02:04:58Z</time>
      </trkpt>
      <trkpt lat="61.59316" lon="11.01319">
        <ele>322.60000610352</ele>
        <time>2019-06-15T02:05:17Z</time>
      </trkpt>
      <trkpt lat="61.59374" lon="11.01306">
        <ele>322.39999389648</ele>
        <time>2019-06-15T02:05:30Z</time>
      </trkpt>
      <trkpt lat="61.59444" lon="11.01291">
        <ele>321.79998779297</ele>
        <time>2019-06-15T02:05:41Z</time>
      </trkpt>
      <trkpt lat="61.59519" lon="11.01267">
        <ele>322.39999389648</ele>
        <time>2019-06-15T02:05:59Z</time>
      </trkpt>
      <trkpt lat="61.59568" lon="11.01223">
        <ele>323.39999389648</ele>
        <time>2019-06-15T02:06:16Z</time>
      </trkpt>
      <trkpt lat="61.59614" lon="11.01115">
        <ele>327.20001220703</ele>
        <time>2019-06-15T02:06:29Z</time>
      </trkpt>
      <trkpt lat="61.5963" lon="11.01043">
        <ele>327.20001220703</ele>
        <time>2019-06-15T02:06:37Z</time>
      </trkpt>
      <trkpt lat="61.59614" lon="11.00837">
        <ele>325.39999389648</ele>
        <time>2019-06-15T02:06:42Z</time>
      </trkpt>
      <trkpt lat="61.59588" lon="11.00781">
        <ele>324</ele>
        <time>2019-06-15T02:06:47Z</time>
      </trkpt>
      <trkpt lat="61.59575" lon="11.00751">
        <ele>322.39999389648</ele>
        <time>2019-06-15T02:06:54Z</time>
      </trkpt>
      <trkpt lat="61.5957" lon="11.0065">
        <ele>322.39999389648</ele>
        <time>2019-06-15T02:07:08Z</time>
      </trkpt>
      <trkpt lat="61.59566" lon="11.00494">
        <ele>322.79998779297</ele>
        <time>2019-06-15T02:07:13Z</time>
      </trkpt>
      <trkpt lat="61.59541" lon="11.00224">
        <ele>323.20001220703</ele>
        <time>2019-06-15T02:07:20Z</time>
      </trkpt>
      <trkpt lat="61.59528" lon="11.00066">
        <ele>323.60000610352</ele>
        <time>2019-06-15T02:07:38Z</time>
      </trkpt>
      <trkpt lat="61.59529" lon="11.00011">
        <ele>324.39999389648</ele>
        <time>2019-06-15T02:07:51Z</time>
      </trkpt>
      <trkpt lat="61.59532" lon="10.9989">
        <ele>325.20001220703</ele>
        <time>2019-06-15T02:08:33Z</time>
      </trkpt>
      <trkpt lat="61.59529" lon="10.99814">
        <ele>328.20001220703</ele>
        <time>2019-06-15T02:08:50Z</time>
      </trkpt>
      <trkpt lat="61.59546" lon="10.99725">
        <ele>333.60000610352</ele>
        <time>2019-06-15T02:09:02Z</time>
      </trkpt>
      <trkpt lat="61.59643" lon="10.99658">
        <ele>345.20001220703</ele>
        <time>2019-06-15T02:09:31Z</time>
      </trkpt>
      <trkpt lat="61.59688" lon="10.99607">
        <ele>348.60000610352</ele>
        <time>2019-06-15T02:09:41Z</time>
      </trkpt>
      <trkpt lat="61.59716" lon="10.99577">
        <ele>348.79998779297</ele>
        <time>2019-06-15T02:09:47Z</time>
      </trkpt>
      <trkpt lat="61.59859" lon="10.99417">
        <ele>351</ele>
        <time>2019-06-15T02:10:05Z</time>
      </trkpt>
      <trkpt lat="61.59889" lon="10.99381">
        <ele>351.20001220703</ele>
        <time>2019-06-15T02:10:20Z</time>
      </trkpt>
      <trkpt lat="61.59991" lon="10.99268">
        <ele>351.39999389648</ele>
        <time>2019-06-15T02:10:35Z</time>
      </trkpt>
      <trkpt lat="61.60041" lon="10.99209">
        <ele>351</ele>
        <time>2019-06-15T02:10:42Z</time>
      </trkpt>
      <trkpt lat="61.6009" lon="10.99059">
        <ele>351.39999389648</ele>
        <time>2019-06-15T02:10:49Z</time>
      </trkpt>
      <trkpt lat="61.60122" lon="10.98948">
        <ele>351.20001220703</ele>
        <time>2019-06-15T02:11:02Z</time>
      </trkpt>
      <trkpt lat="61.60147" lon="10.98853">
        <ele>352.60000610352</ele>
        <time>2019-06-15T02:12:42Z</time>
      </trkpt>
      <trkpt lat="61.60211" lon="10.98687">
        <ele>352.20001220703</ele>
        <time>2019-06-15T02:12:57Z</time>
      </trkpt>
      <trkpt lat="61.60287" lon="10.98501">
        <ele>350.79998779297</ele>
        <time>2019-06-15T02:13:25Z</time>
      </trkpt>
      <trkpt lat="61.60338" lon="10.9837">
        <ele>351.60000610352</ele>
        <time>2019-06-15T02:13:35Z</time>
      </trkpt>
      <trkpt lat="61.60376" lon="10.98301">
        <ele>352.79998779297</ele>
        <time>2019-06-15T02:14:01Z</time>
      </trkpt>
      <trkpt lat="61.60414" lon="10.98243">
        <ele>353.39999389648</ele>
        <time>2019-06-15T02:14:06Z</time>
      </trkpt>
      <trkpt lat="61.60463" lon="10.98173">
        <ele>353.39999389648</ele>
        <time>2019-06-15T02:14:12Z</time>
      </trkpt>
      <trkpt lat="61.60482" lon="10.98145">
        <ele>353.79998779297</ele>
        <time>2019-06-15T02:14:26Z</time>
      </trkpt>
      <trkpt lat="61.6056" lon="10.97998">
        <ele>361.39999389648</ele>
        <time>2019-06-15T02:14:44Z</time>
      </trkpt>
      <trkpt lat="61.60585" lon="10.97928">
        <ele>363</ele>
        <time>2019-06-15T02:14:58Z</time>
      </trkpt>
      <trkpt lat="61.60626" lon="10.97829">
        <ele>366.79998779297</ele>
        <time>2019-06-15T02:15:10Z</time>
      </trkpt>
      <trkpt lat="61.60674" lon="10.97771">
        <ele>368.60000610352</ele>
        <time>2019-06-15T02:15:16Z</time>
      </trkpt>
      <trkpt lat="61.60699" lon="10.97731">
        <ele>369</ele>
        <time>2019-06-15T02:15:24Z</time>
      </trkpt>
      <trkpt lat="61.60714" lon="10.97669">
        <ele>370</ele>
        <time>2019-06-15T02:15:30Z</time>
      </trkpt>
      <trkpt lat="61.60729" lon="10.97557">
        <ele>370.79998779297</ele>
        <time>2019-06-15T02:15:38Z</time>
      </trkpt>
      <trkpt lat="61.60744" lon="10.97481">
        <ele>370.79998779297</ele>
        <time>2019-06-15T02:15:55Z</time>
      </trkpt>
      <trkpt lat="61.60771" lon="10.97396">
        <ele>370.60000610352</ele>
        <time>2019-06-15T02:16:06Z</time>
      </trkpt>
      <trkpt lat="61.60802" lon="10.97239">
        <ele>368.60000610352</ele>
        <time>2019-06-15T02:16:34Z</time>
      </trkpt>
      <trkpt lat="61.608" lon="10.97178">
        <ele>368.60000610352</ele>
        <time>2019-06-15T02:16:42Z</time>
      </trkpt>
      <trkpt lat="61.60799" lon="10.97115">
        <ele>370.60000610352</ele>
        <time>2019-06-15T02:16:49Z</time>
      </trkpt>
      <trkpt lat="61.60803" lon="10.97074">
        <ele>371.20001220703</ele>
        <time>2019-06-15T02:17:03Z</time>
      </trkpt>
      <trkpt lat="61.60839" lon="10.9689">
        <ele>370</ele>
        <time>2019-06-15T02:17:10Z</time>
      </trkpt>
      <trkpt lat="61.60872" lon="10.96808">
        <ele>369</ele>
        <time>2019-06-15T02:17:19Z</time>
      </trkpt>
      <trkpt lat="61.60901" lon="10.96655">
        <ele>368.39999389648</ele>
        <time>2019-06-15T02:17:41Z</time>
      </trkpt>
      <trkpt lat="61.60911" lon="10.96582">
        <ele>370</ele>
        <time>2019-06-15T02:17:58Z</time>
      </trkpt>
      <trkpt lat="61.60924" lon="10.96503">
        <ele>372.79998779297</ele>
        <time>2019-06-15T02:18:08Z</time>
      </trkpt>
      <trkpt lat="61.60933" lon="10.96379">
        <ele>373.79998779297</ele>
        <time>2019-06-15T02:18:12Z</time>
      </trkpt>
      <trkpt lat="61.60892" lon="10.96343">
        <ele>374.79998779297</ele>
        <time>2019-06-15T02:18:18Z</time>
      </trkpt>
      <trkpt lat="61.60828" lon="10.96366">
        <ele>377.79998779297</ele>
        <time>2019-06-15T02:18:25Z</time>
      </trkpt>
      <trkpt lat="61.60806" lon="10.96359">
        <ele>377.79998779297</ele>
        <time>2019-06-15T02:18:31Z</time>
      </trkpt>
      <trkpt lat="61.60776" lon="10.96274">
        <ele>377.60000610352</ele>
        <time>2019-06-15T02:18:51Z</time>
      </trkpt>
      <trkpt lat="61.60777" lon="10.96169">
        <ele>376.60000610352</ele>
        <time>2019-06-15T02:19:11Z</time>
      </trkpt>
      <trkpt lat="61.60781" lon="10.95947">
        <ele>373.79998779297</ele>
        <time>2019-06-15T02:19:22Z</time>
      </trkpt>
      <trkpt lat="61.60771" lon="10.95849">
        <ele>373.79998779297</ele>
        <time>2019-06-15T02:19:29Z</time>
      </trkpt>
      <trkpt lat="61.6074" lon="10.95563">
        <ele>372</ele>
        <time>2019-06-15T02:19:45Z</time>
      </trkpt>
      <trkpt lat="61.60732" lon="10.95522">
        <ele>370.79998779297</ele>
        <time>2019-06-15T02:19:57Z</time>
      </trkpt>
      <trkpt lat="61.60714" lon="10.95439">
        <ele>369.79998779297</ele>
        <time>2019-06-15T02:20:26Z</time>
      </trkpt>
      <trkpt lat="61.60669" lon="10.95199">
        <ele>366</ele>
        <time>2019-06-15T02:20:42Z</time>
      </trkpt>
      <trkpt lat="61.60665" lon="10.95131">
        <ele>364.60000610352</ele>
        <time>2019-06-15T02:20:51Z</time>
      </trkpt>
      <trkpt lat="61.6066" lon="10.9501">
        <ele>361.39999389648</ele>
        <time>2019-06-15T02:21:01Z</time>
      </trkpt>
      <trkpt lat="61.60659" lon="10.9496">
        <ele>359.20001220703</ele>
        <time>2019-06-15T02:21:04Z</time>
      </trkpt>
      <trkpt lat="61.6065" lon="10.94622">
        <ele>350.39999389648</ele>
        <time>2019-06-15T02:21:10Z</time>
      </trkpt>
      <trkpt lat="61.60646" lon="10.94553">
        <ele>350</ele>
        <time>2019-06-15T02:21:14Z</time>
      </trkpt>
      <trkpt lat="61.60647" lon="10.94362">
        <ele>350.20001220703</ele>
        <time>2019-06-15T02:21:17Z</time>
      </trkpt>
      <trkpt lat="61.60672" lon="10.94208">
        <ele>351</ele>
        <time>2019-06-15T02:21:22Z</time>
      </trkpt>
      <trkpt lat="61.60683" lon="10.94151">
        <ele>351.20001220703</ele>
        <time>2019-06-15T02:21:26Z</time>
      </trkpt>
      <trkpt lat="61.60705" lon="10.94052">
        <ele>351.79998779297</ele>
        <time>2019-06-15T02:21:30Z</time>
      </trkpt>
      <trkpt lat="61.60712" lon="10.94017">
        <ele>351.79998779297</ele>
        <time>2019-06-15T02:21:43Z</time>
      </trkpt>
      <trkpt lat="61.60725" lon="10.93957">
        <ele>352</ele>
        <time>2019-06-15T02:21:52Z</time>
      </trkpt>
      <trkpt lat="61.60793" lon="10.93687">
        <ele>352</ele>
        <time>2019-06-15T02:22:07Z</time>
      </trkpt>
      <trkpt lat="61.60828" lon="10.93579">
        <ele>351.79998779297</ele>
        <time>2019-06-15T02:22:23Z</time>
      </trkpt>
      <trkpt lat="61.60853" lon="10.93514">
        <ele>350.60000610352</ele>
        <time>2019-06-15T02:22:30Z</time>
      </trkpt>
      <trkpt lat="61.6091" lon="10.93295">
        <ele>349.60000610352</ele>
        <time>2019-06-15T02:22:46Z</time>
      </trkpt>
      <trkpt lat="61.60915" lon="10.93266">
        <ele>349.20001220703</ele>
        <time>2019-06-15T02:22:53Z</time>
      </trkpt>
      <trkpt lat="61.6092" lon="10.93117">
        <ele>348</ele>
        <time>2019-06-15T02:23:01Z</time>
      </trkpt>
      <trkpt lat="61.6092" lon="10.93003">
        <ele>347.39999389648</ele>
        <time>2019-06-15T02:23:24Z</time>
      </trkpt>
      <trkpt lat="61.60933" lon="10.92877">
        <ele>347</ele>
        <time>2019-06-15T02:23:34Z</time>
      </trkpt>
      <trkpt lat="61.60943" lon="10.92789">
        <ele>346.20001220703</ele>
        <time>2019-06-15T02:23:44Z</time>
      </trkpt>
      <trkpt lat="61.60953" lon="10.92707">
        <ele>346.20001220703</ele>
        <time>2019-06-15T02:23:54Z</time>
      </trkpt>
      <trkpt lat="61.60966" lon="10.92598">
        <ele>346.60000610352</ele>
        <time>2019-06-15T02:24:03Z</time>
      </trkpt>
      <trkpt lat="61.60992" lon="10.92343">
        <ele>346.60000610352</ele>
        <time>2019-06-15T02:24:14Z</time>
      </trkpt>
      <trkpt lat="61.60993" lon="10.92351">
        <ele>346.20001220703</ele>
        <time>2019-06-15T02:24:21Z</time>
      </trkpt>
      <trkpt lat="61.61004" lon="10.92278">
        <ele>346.39999389648</ele>
        <time>2019-06-15T02:24:34Z</time>
      </trkpt>
      <trkpt lat="61.61021" lon="10.92193">
        <ele>347</ele>
        <time>2019-06-15T02:24:42Z</time>
      </trkpt>
      <trkpt lat="61.61044" lon="10.9213">
        <ele>347.79998779297</ele>
        <time>2019-06-15T02:24:50Z</time>
      </trkpt>
      <trkpt lat="61.6105" lon="10.92109">
        <ele>347.79998779297</ele>
        <time>2019-06-15T02:24:58Z</time>
      </trkpt>
      <trkpt lat="61.61052" lon="10.92103">
        <ele>347.60000610352</ele>
        <time>2019-06-15T02:25:03Z</time>
      </trkpt>
      <trkpt lat="61.61076" lon="10.92044">
        <ele>347.79998779297</ele>
        <time>2019-06-15T02:25:20Z</time>
      </trkpt>
      <trkpt lat="61.61107" lon="10.91972">
        <ele>348.39999389648</ele>
        <time>2019-06-15T02:25:36Z</time>
      </trkpt>
      <trkpt lat="61.61177" lon="10.91881">
        <ele>348</ele>
        <time>2019-06-15T02:25:45Z</time>
      </trkpt>
      <trkpt lat="61.61234" lon="10.91823">
        <ele>348.20001220703</ele>
        <time>2019-06-15T02:25:58Z</time>
      </trkpt>
      <trkpt lat="61.61306" lon="10.91738">
        <ele>350.20001220703</ele>
        <time>2019-06-15T02:26:06Z</time>
      </trkpt>
      <trkpt lat="61.61343" lon="10.91688">
        <ele>350.60000610352</ele>
        <time>2019-06-15T02:26:23Z</time>
      </trkpt>
      <trkpt lat="61.61386" lon="10.91628">
        <ele>351.79998779297</ele>
        <time>2019-06-15T02:26:49Z</time>
      </trkpt>
      <trkpt lat="61.61503" lon="10.91488">
        <ele>355.20001220703</ele>
        <time>2019-06-15T02:26:58Z</time>
      </trkpt>
      <trkpt lat="61.61556" lon="10.91446">
        <ele>357.60000610352</ele>
        <time>2019-06-15T02:27:05Z</time>
      </trkpt>
      <trkpt lat="61.61652" lon="10.91401">
        <ele>367.60000610352</ele>
        <time>2019-06-15T02:27:25Z</time>
      </trkpt>
      <trkpt lat="61.61755" lon="10.91159">
        <ele>379.20001220703</ele>
        <time>2019-06-15T02:27:39Z</time>
      </trkpt>
      <trkpt lat="61.61769" lon="10.91131">
        <ele>379.60000610352</ele>
        <time>2019-06-15T02:27:55Z</time>
      </trkpt>
      <trkpt lat="61.61873" lon="10.9103">
        <ele>384</ele>
        <time>2019-06-15T02:28:11Z</time>
      </trkpt>
      <trkpt lat="61.61896" lon="10.91013">
        <ele>384</ele>
        <time>2019-06-15T02:28:27Z</time>
      </trkpt>
      <trkpt lat="61.61919" lon="10.90997">
        <ele>384.39999389648</ele>
        <time>2019-06-15T02:28:49Z</time>
      </trkpt>
      <trkpt lat="61.61988" lon="10.90944">
        <ele>384.79998779297</ele>
        <time>2019-06-15T02:28:56Z</time>
      </trkpt>
      <trkpt lat="61.62042" lon="10.90896">
        <ele>388.79998779297</ele>
        <time>2019-06-15T02:29:06Z</time>
      </trkpt>
      <trkpt lat="61.62098" lon="10.9081">
        <ele>391.79998779297</ele>
        <time>2019-06-15T02:32:56Z</time>
      </trkpt>
      <trkpt lat="61.62126" lon="10.90759">
        <ele>392.79998779297</ele>
        <time>2019-06-15T02:33:11Z</time>
      </trkpt>
      <trkpt lat="61.62166" lon="10.90682">
        <ele>393.39999389648</ele>
        <time>2019-06-15T02:33:25Z</time>
      </trkpt>
      <trkpt lat="61.62197" lon="10.90623">
        <ele>393.60000610352</ele>
        <time>2019-06-15T02:33:35Z</time>
      </trkpt>
      <trkpt lat="61.62251" lon="10.90518">
        <ele>395.20001220703</ele>
        <time>2019-06-15T02:33:46Z</time>
      </trkpt>
      <trkpt lat="61.62293" lon="10.90451">
        <ele>399.60000610352</ele>
        <time>2019-06-15T02:34:07Z</time>
      </trkpt>
      <trkpt lat="61.62342" lon="10.90447">
        <ele>403.20001220703</ele>
        <time>2019-06-15T02:34:22Z</time>
      </trkpt>
      <trkpt lat="61.62361" lon="10.90453">
        <ele>403.39999389648</ele>
        <time>2019-06-15T02:34:42Z</time>
      </trkpt>
      <trkpt lat="61.62379" lon="10.90459">
        <ele>403.20001220703</ele>
        <time>2019-06-15T02:34:59Z</time>
      </trkpt>
      <trkpt lat="61.62416" lon="10.90423">
        <ele>403.20001220703</ele>
        <time>2019-06-15T02:35:03Z</time>
      </trkpt>
      <trkpt lat="61.62459" lon="10.90378">
        <ele>402.79998779297</ele>
        <time>2019-06-15T02:35:08Z</time>
      </trkpt>
      <trkpt lat="61.62524" lon="10.9032">
        <ele>405.79998779297</ele>
        <time>2019-06-15T02:35:13Z</time>
      </trkpt>
      <trkpt lat="61.62588" lon="10.90282">
        <ele>406</ele>
        <time>2019-06-15T02:35:26Z</time>
      </trkpt>
      <trkpt lat="61.62641" lon="10.90257">
        <ele>404.60000610352</ele>
        <time>2019-06-15T02:35:35Z</time>
      </trkpt>
      <trkpt lat="61.62773" lon="10.90228">
        <ele>404.39999389648</ele>
        <time>2019-06-15T02:35:40Z</time>
      </trkpt>
      <trkpt lat="61.62882" lon="10.90228">
        <ele>403.60000610352</ele>
        <time>2019-06-15T02:35:52Z</time>
      </trkpt>
      <trkpt lat="61.63016" lon="10.90236">
        <ele>405.20001220703</ele>
        <time>2019-06-15T02:36:04Z</time>
      </trkpt>
      <trkpt lat="61.63053" lon="10.90231">
        <ele>404.79998779297</ele>
        <time>2019-06-15T02:36:22Z</time>
      </trkpt>
      <trkpt lat="61.63194" lon="10.9019">
        <ele>406.39999389648</ele>
        <time>2019-06-15T02:36:35Z</time>
      </trkpt>
      <trkpt lat="61.63289" lon="10.90166">
        <ele>405.20001220703</ele>
        <time>2019-06-15T02:36:39Z</time>
      </trkpt>
      <trkpt lat="61.6336" lon="10.90153">
        <ele>405.20001220703</ele>
        <time>2019-06-15T02:36:43Z</time>
      </trkpt>
      <trkpt lat="61.63443" lon="10.90122">
        <ele>405.60000610352</ele>
        <time>2019-06-15T02:37:03Z</time>
      </trkpt>
      <trkpt lat="61.63499" lon="10.90109">
        <ele>406.39999389648</ele>
        <time>2019-06-15T02:37:15Z</time>
      </trkpt>
      <trkpt lat="61.63571" lon="10.90086">
        <ele>408</ele>
        <time>2019-06-15T02:37:25Z</time>
      </trkpt>
      <trkpt lat="61.63634" lon="10.90066">
        <ele>408.60000610352</ele>
        <time>2019-06-15T02:37:39Z</time>
      </trkpt>
      <trkpt lat="61.63768" lon="10.90041">
        <ele>414</ele>
        <time>2019-06-15T02:37:51Z</time>
      </trkpt>
      <trkpt lat="61.63923" lon="10.90019">
        <ele>417.60000610352</ele>
        <time>2019-06-15T02:38:02Z</time>
      </trkpt>
      <trkpt lat="61.63994" lon="10.89994">
        <ele>420.39999389648</ele>
        <time>2019-06-15T02:38:15Z</time>
      </trkpt>
      <trkpt lat="61.64094" lon="10.89959">
        <ele>422.60000610352</ele>
        <time>2019-06-15T02:38:28Z</time>
      </trkpt>
      <trkpt lat="61.64141" lon="10.89948">
        <ele>422.60000610352</ele>
        <time>2019-06-15T02:38:49Z</time>
      </trkpt>
      <trkpt lat="61.64247" lon="10.89904">
        <ele>420.79998779297</ele>
        <time>2019-06-15T02:39:06Z</time>
      </trkpt>
      <trkpt lat="61.64279" lon="10.89897">
        <ele>421</ele>
        <time>2019-06-15T02:39:28Z</time>
      </trkpt>
      <trkpt lat="61.6428" lon="10.89891">
        <ele>421.39999389648</ele>
        <time>2019-06-15T02:39:42Z</time>
      </trkpt>
      <trkpt lat="61.64328" lon="10.89883">
        <ele>421</ele>
        <time>2019-06-15T02:40:00Z</time>
      </trkpt>
      <trkpt lat="61.64393" lon="10.89872">
        <ele>419.20001220703</ele>
        <time>2019-06-15T02:40:10Z</time>
      </trkpt>
      <trkpt lat="61.64444" lon="10.89848">
        <ele>416.79998779297</ele>
        <time>2019-06-15T02:40:24Z</time>
      </trkpt>
      <trkpt lat="61.64489" lon="10.89833">
        <ele>415.79998779297</ele>
        <time>2019-06-15T02:40:29Z</time>
      </trkpt>
      <trkpt lat="61.64552" lon="10.89825">
        <ele>414.79998779297</ele>
        <time>2019-06-15T02:46:17Z</time>
      </trkpt>
      <trkpt lat="61.64641" lon="10.89827">
        <ele>414</ele>
        <time>2019-06-15T02:46:31Z</time>
      </trkpt>
      <trkpt lat="61.64698" lon="10.89825">
        <ele>415</ele>
        <time>2019-06-15T02:46:49Z</time>
      </trkpt>
      <trkpt lat="61.64757" lon="10.89828">
        <ele>415</ele>
        <time>2019-06-15T02:47:01Z</time>
      </trkpt>
      <trkpt lat="61.64912" lon="10.89816">
        <ele>412</ele>
        <time>2019-06-15T02:47:18Z</time>
      </trkpt>
      <trkpt lat="61.64995" lon="10.89802">
        <ele>408</ele>
        <time>2019-06-15T02:47:28Z</time>
      </trkpt>
      <trkpt lat="61.65041" lon="10.89797">
        <ele>407</ele>
        <time>2019-06-15T02:47:34Z</time>
      </trkpt>
      <trkpt lat="61.65131" lon="10.89811">
        <ele>406.20001220703</ele>
        <time>2019-06-15T02:47:37Z</time>
      </trkpt>
      <trkpt lat="61.65174" lon="10.89816">
        <ele>404.39999389648</ele>
        <time>2019-06-15T02:47:43Z</time>
      </trkpt>
      <trkpt lat="61.65233" lon="10.89821">
        <ele>404.20001220703</ele>
        <time>2019-06-15T02:47:48Z</time>
      </trkpt>
      <trkpt lat="61.65427" lon="10.89921">
        <ele>406.60000610352</ele>
        <time>2019-06-15T02:48:04Z</time>
      </trkpt>
      <trkpt lat="61.65481" lon="10.89957">
        <ele>408.20001220703</ele>
        <time>2019-06-15T02:48:17Z</time>
      </trkpt>
      <trkpt lat="61.65519" lon="10.89969">
        <ele>408.39999389648</ele>
        <time>2019-06-15T02:48:32Z</time>
      </trkpt>
      <trkpt lat="61.65551" lon="10.8998">
        <ele>409.20001220703</ele>
        <time>2019-06-15T02:48:53Z</time>
      </trkpt>
      <trkpt lat="61.65618" lon="10.90009">
        <ele>409.60000610352</ele>
        <time>2019-06-15T02:49:04Z</time>
      </trkpt>
      <trkpt lat="61.65733" lon="10.90073">
        <ele>408.60000610352</ele>
        <time>2019-06-15T02:49:08Z</time>
      </trkpt>
      <trkpt lat="61.65826" lon="10.90121">
        <ele>408.79998779297</ele>
        <time>2019-06-15T02:49:27Z</time>
      </trkpt>
      <trkpt lat="61.65899" lon="10.90168">
        <ele>408.20001220703</ele>
        <time>2019-06-15T02:49:36Z</time>
      </trkpt>
      <trkpt lat="61.65975" lon="10.90212">
        <ele>406</ele>
        <time>2019-06-15T02:49:45Z</time>
      </trkpt>
      <trkpt lat="61.66047" lon="10.90244">
        <ele>405.60000610352</ele>
        <time>2019-06-15T02:49:47Z</time>
      </trkpt>
      <trkpt lat="61.66196" lon="10.90327">
        <ele>406.60000610352</ele>
        <time>2019-06-15T02:49:53Z</time>
      </trkpt>
      <trkpt lat="61.6626" lon="10.90375">
        <ele>405</ele>
        <time>2019-06-15T02:50:05Z</time>
      </trkpt>
      <trkpt lat="61.66316" lon="10.90416">
        <ele>404.20001220703</ele>
        <time>2019-06-15T02:50:15Z</time>
      </trkpt>
      <trkpt lat="61.66448" lon="10.90485">
        <ele>404.79998779297</ele>
        <time>2019-06-15T02:50:24Z</time>
      </trkpt>
      <trkpt lat="61.66505" lon="10.90504">
        <ele>407</ele>
        <time>2019-06-15T02:50:39Z</time>
      </trkpt>
      <trkpt lat="61.66601" lon="10.90547">
        <ele>408.60000610352</ele>
        <time>2019-06-15T02:50:52Z</time>
      </trkpt>
      <trkpt lat="61.66712" lon="10.90586">
        <ele>411.60000610352</ele>
        <time>2019-06-15T02:51:16Z</time>
      </trkpt>
      <trkpt lat="61.66783" lon="10.90626">
        <ele>413</ele>
        <time>2019-06-15T02:51:29Z</time>
      </trkpt>
      <trkpt lat="61.66882" lon="10.90702">
        <ele>411.39999389648</ele>
        <time>2019-06-15T02:51:38Z</time>
      </trkpt>
      <trkpt lat="61.66941" lon="10.90751">
        <ele>411.20001220703</ele>
        <time>2019-06-15T02:52:00Z</time>
      </trkpt>
      <trkpt lat="61.67028" lon="10.90822">
        <ele>409</ele>
        <time>2019-06-15T02:52:08Z</time>
      </trkpt>
      <trkpt lat="61.6706" lon="10.90844">
        <ele>409</ele>
        <time>2019-06-15T02:52:21Z</time>
      </trkpt>
      <trkpt lat="61.67115" lon="10.90888">
        <ele>410.20001220703</ele>
        <time>2019-06-15T02:52:46Z</time>
      </trkpt>
      <trkpt lat="61.67365" lon="10.91096">
        <ele>420.79998779297</ele>
        <time>2019-06-15T02:53:00Z</time>
      </trkpt>
      <trkpt lat="61.67415" lon="10.91137">
        <ele>421.20001220703</ele>
        <time>2019-06-15T02:53:17Z</time>
      </trkpt>
      <trkpt lat="61.67471" lon="10.91186">
        <ele>422.60000610352</ele>
        <time>2019-06-15T02:53:26Z</time>
      </trkpt>
      <trkpt lat="61.67555" lon="10.91309">
        <ele>428.20001220703</ele>
        <time>2019-06-15T02:53:44Z</time>
      </trkpt>
      <trkpt lat="61.67589" lon="10.9138">
        <ele>430.39999389648</ele>
        <time>2019-06-15T02:54:07Z</time>
      </trkpt>
      <trkpt lat="61.67624" lon="10.91439">
        <ele>430.20001220703</ele>
        <time>2019-06-15T02:54:20Z</time>
      </trkpt>
      <trkpt lat="61.67656" lon="10.91462">
        <ele>431.39999389648</ele>
        <time>2019-06-15T02:54:35Z</time>
      </trkpt>
      <trkpt lat="61.6767" lon="10.91475">
        <ele>433.39999389648</ele>
        <time>2019-06-15T02:54:56Z</time>
      </trkpt>
      <trkpt lat="61.67698" lon="10.91484">
        <ele>433.79998779297</ele>
        <time>2019-06-15T02:55:07Z</time>
      </trkpt>
      <trkpt lat="61.6775" lon="10.91473">
        <ele>433.39999389648</ele>
        <time>2019-06-15T02:55:35Z</time>
      </trkpt>
      <trkpt lat="61.67835" lon="10.91456">
        <ele>431.39999389648</ele>
        <time>2019-06-15T02:55:51Z</time>
      </trkpt>
      <trkpt lat="61.67912" lon="10.9146">
        <ele>427.20001220703</ele>
        <time>2019-06-15T02:56:05Z</time>
      </trkpt>
      <trkpt lat="61.68116" lon="10.91504">
        <ele>419.20001220703</ele>
        <time>2019-06-15T02:56:20Z</time>
      </trkpt>
      <trkpt lat="61.6832" lon="10.9153">
        <ele>413.79998779297</ele>
        <time>2019-06-15T02:56:27Z</time>
      </trkpt>
      <trkpt lat="61.68402" lon="10.91507">
        <ele>413.39999389648</ele>
        <time>2019-06-15T03:09:07Z</time>
      </trkpt>
      <trkpt lat="61.68524" lon="10.91472">
        <ele>411.79998779297</ele>
        <time>2019-06-15T03:09:13Z</time>
      </trkpt>
      <trkpt lat="61.68598" lon="10.91458">
        <ele>412</ele>
        <time>2019-06-15T03:09:19Z</time>
      </trkpt>
      <trkpt lat="61.68697" lon="10.91436">
        <ele>410.60000610352</ele>
        <time>2019-06-15T03:09:39Z</time>
      </trkpt>
      <trkpt lat="61.68724" lon="10.91428">
        <ele>412.39999389648</ele>
        <time>2019-06-15T03:09:53Z</time>
      </trkpt>
      <trkpt lat="61.68769" lon="10.9141">
        <ele>412.60000610352</ele>
        <time>2019-06-15T03:10:11Z</time>
      </trkpt>
      <trkpt lat="61.68832" lon="10.91366">
        <ele>412.60000610352</ele>
        <time>2019-06-15T03:10:35Z</time>
      </trkpt>
      <trkpt lat="61.68876" lon="10.91329">
        <ele>412</ele>
        <time>2019-06-15T03:10:50Z</time>
      </trkpt>
      <trkpt lat="61.68905" lon="10.91295">
        <ele>412</ele>
        <time>2019-06-15T03:11:13Z</time>
      </trkpt>
      <trkpt lat="61.68947" lon="10.91222">
        <ele>413.20001220703</ele>
        <time>2019-06-15T03:11:20Z</time>
      </trkpt>
      <trkpt lat="61.68996" lon="10.91113">
        <ele>413</ele>
        <time>2019-06-15T03:11:33Z</time>
      </trkpt>
      <trkpt lat="61.69011" lon="10.91086">
        <ele>413.60000610352</ele>
        <time>2019-06-15T03:11:49Z</time>
      </trkpt>
      <trkpt lat="61.69047" lon="10.9102">
        <ele>413.79998779297</ele>
        <time>2019-06-15T03:12:04Z</time>
      </trkpt>
      <trkpt lat="61.69128" lon="10.90922">
        <ele>413.60000610352</ele>
        <time>2019-06-15T03:12:19Z</time>
      </trkpt>
      <trkpt lat="61.6917" lon="10.90875">
        <ele>412.60000610352</ele>
        <time>2019-06-15T03:12:33Z</time>
      </trkpt>
      <trkpt lat="61.69222" lon="10.90819">
        <ele>414</ele>
        <time>2019-06-15T03:12:48Z</time>
      </trkpt>
      <trkpt lat="61.69273" lon="10.90775">
        <ele>414.39999389648</ele>
        <time>2019-06-15T03:13:06Z</time>
      </trkpt>
      <trkpt lat="61.69327" lon="10.90736">
        <ele>414</ele>
        <time>2019-06-15T03:13:15Z</time>
      </trkpt>
      <trkpt lat="61.69392" lon="10.90684">
        <ele>414.39999389648</ele>
        <time>2019-06-15T03:13:27Z</time>
      </trkpt>
      <trkpt lat="61.69465" lon="10.90633">
        <ele>414.39999389648</ele>
        <time>2019-06-15T03:13:43Z</time>
      </trkpt>
      <trkpt lat="61.69534" lon="10.90583">
        <ele>413.79998779297</ele>
        <time>2019-06-15T03:13:51Z</time>
      </trkpt>
      <trkpt lat="61.69614" lon="10.90558">
        <ele>414</ele>
        <time>2019-06-15T03:13:57Z</time>
      </trkpt>
      <trkpt lat="61.69688" lon="10.9054">
        <ele>413.39999389648</ele>
        <time>2019-06-15T03:14:11Z</time>
      </trkpt>
      <trkpt lat="61.69756" lon="10.90524">
        <ele>413.60000610352</ele>
        <time>2019-06-15T03:14:27Z</time>
      </trkpt>
      <trkpt lat="61.69806" lon="10.9051">
        <ele>416.20001220703</ele>
        <time>2019-06-15T03:14:44Z</time>
      </trkpt>
      <trkpt lat="61.69848" lon="10.90471">
        <ele>417.60000610352</ele>
        <time>2019-06-15T03:15:00Z</time>
      </trkpt>
      <trkpt lat="61.69865" lon="10.90453">
        <ele>417.39999389648</ele>
        <time>2019-06-15T03:15:16Z</time>
      </trkpt>
      <trkpt lat="61.69864" lon="10.90451">
        <ele>417.60000610352</ele>
        <time>2019-06-15T03:15:43Z</time>
      </trkpt>
      <trkpt lat="61.6987" lon="10.90448">
        <ele>417.39999389648</ele>
        <time>2019-06-15T03:15:58Z</time>
      </trkpt>
      <trkpt lat="61.69919" lon="10.90435">
        <ele>417.39999389648</ele>
        <time>2019-06-15T03:16:16Z</time>
      </trkpt>
      <trkpt lat="61.69957" lon="10.90392">
        <ele>416.20001220703</ele>
        <time>2019-06-15T03:16:41Z</time>
      </trkpt>
      <trkpt lat="61.70043" lon="10.90317">
        <ele>415</ele>
        <time>2019-06-15T03:16:58Z</time>
      </trkpt>
      <trkpt lat="61.70087" lon="10.90297">
        <ele>413.20001220703</ele>
        <time>2019-06-15T03:17:25Z</time>
      </trkpt>
      <trkpt lat="61.70114" lon="10.90266">
        <ele>412.79998779297</ele>
        <time>2019-06-15T03:17:41Z</time>
      </trkpt>
      <trkpt lat="61.70142" lon="10.90176">
        <ele>410.79998779297</ele>
        <time>2019-06-15T03:17:50Z</time>
      </trkpt>
      <trkpt lat="61.70158" lon="10.90133">
        <ele>412.60000610352</ele>
        <time>2019-06-15T03:18:07Z</time>
      </trkpt>
      <trkpt lat="61.70176" lon="10.90089">
        <ele>412.79998779297</ele>
        <time>2019-06-15T03:18:23Z</time>
      </trkpt>
      <trkpt lat="61.70234" lon="10.89961">
        <ele>411.60000610352</ele>
        <time>2019-06-15T03:18:38Z</time>
      </trkpt>
      <trkpt lat="61.70248" lon="10.89937">
        <ele>410.60000610352</ele>
        <time>2019-06-15T03:19:04Z</time>
      </trkpt>
      <trkpt lat="61.70294" lon="10.89876">
        <ele>410.60000610352</ele>
        <time>2019-06-15T03:19:20Z</time>
      </trkpt>
      <trkpt lat="61.70364" lon="10.89818">
        <ele>412.60000610352</ele>
        <time>2019-06-15T03:19:38Z</time>
      </trkpt>
      <trkpt lat="61.70459" lon="10.89736">
        <ele>411.60000610352</ele>
        <time>2019-06-15T03:19:52Z</time>
      </trkpt>
      <trkpt lat="61.70476" lon="10.89713">
        <ele>411.60000610352</ele>
        <time>2019-06-15T03:20:06Z</time>
      </trkpt>
      <trkpt lat="61.70507" lon="10.89667">
        <ele>412.20001220703</ele>
        <time>2019-06-15T03:20:26Z</time>
      </trkpt>
      <trkpt lat="61.7056" lon="10.89546">
        <ele>412</ele>
        <time>2019-06-15T03:20:41Z</time>
      </trkpt>
      <trkpt lat="61.706" lon="10.89426">
        <ele>410.60000610352</ele>
        <time>2019-06-15T03:21:00Z</time>
      </trkpt>
      <trkpt lat="61.70691" lon="10.89239">
        <ele>410.79998779297</ele>
        <time>2019-06-15T03:21:06Z</time>
      </trkpt>
      <trkpt lat="61.70775" lon="10.89078">
        <ele>408.79998779297</ele>
        <time>2019-06-15T03:21:19Z</time>
      </trkpt>
      <trkpt lat="61.70822" lon="10.89029">
        <ele>411.20001220703</ele>
        <time>2019-06-15T03:21:32Z</time>
      </trkpt>
      <trkpt lat="61.70884" lon="10.88989">
        <ele>413</ele>
        <time>2019-06-15T03:21:49Z</time>
      </trkpt>
      <trkpt lat="61.70935" lon="10.88952">
        <ele>417.60000610352</ele>
        <time>2019-06-15T03:22:07Z</time>
      </trkpt>
      <trkpt lat="61.70973" lon="10.88912">
        <ele>417.20001220703</ele>
        <time>2019-06-15T03:22:27Z</time>
      </trkpt>
      <trkpt lat="61.71012" lon="10.88797">
        <ele>415.20001220703</ele>
        <time>2019-06-15T03:22:42Z</time>
      </trkpt>
      <trkpt lat="61.7106" lon="10.8866">
        <ele>415.39999389648</ele>
        <time>2019-06-15T03:23:01Z</time>
      </trkpt>
      <trkpt lat="61.7109" lon="10.88596">
        <ele>416.20001220703</ele>
        <time>2019-06-15T03:23:15Z</time>
      </trkpt>
      <trkpt lat="61.71117" lon="10.88552">
        <ele>417.60000610352</ele>
        <time>2019-06-15T03:23:28Z</time>
      </trkpt>
      <trkpt lat="61.71162" lon="10.88467">
        <ele>417.60000610352</ele>
        <time>2019-06-15T03:23:49Z</time>
      </trkpt>
      <trkpt lat="61.71207" lon="10.88378">
        <ele>415</ele>
        <time>2019-06-15T03:24:03Z</time>
      </trkpt>
      <trkpt lat="61.71258" lon="10.88278">
        <ele>414</ele>
        <time>2019-06-15T03:24:05Z</time>
      </trkpt>
      <trkpt lat="61.71303" lon="10.88194">
        <ele>412</ele>
        <time>2019-06-15T03:24:24Z</time>
      </trkpt>
      <trkpt lat="61.71329" lon="10.88142">
        <ele>411.79998779297</ele>
        <time>2019-06-15T03:24:42Z</time>
      </trkpt>
      <trkpt lat="61.71357" lon="10.88093">
        <ele>411.79998779297</ele>
        <time>2019-06-15T03:25:08Z</time>
      </trkpt>
      <trkpt lat="61.71387" lon="10.88053">
        <ele>412.20001220703</ele>
        <time>2019-06-15T03:25:24Z</time>
      </trkpt>
      <trkpt lat="61.71421" lon="10.88001">
        <ele>412.20001220703</ele>
        <time>2019-06-15T03:25:33Z</time>
      </trkpt>
      <trkpt lat="61.71473" lon="10.87836">
        <ele>410.39999389648</ele>
        <time>2019-06-15T03:25:56Z</time>
      </trkpt>
      <trkpt lat="61.7148" lon="10.87766">
        <ele>409</ele>
        <time>2019-06-15T03:26:10Z</time>
      </trkpt>
      <trkpt lat="61.71487" lon="10.87613">
        <ele>409.39999389648</ele>
        <time>2019-06-15T03:26:22Z</time>
      </trkpt>
      <trkpt lat="61.71487" lon="10.87531">
        <ele>410.39999389648</ele>
        <time>2019-06-15T03:26:48Z</time>
      </trkpt>
      <trkpt lat="61.7148" lon="10.87303">
        <ele>408.79998779297</ele>
        <time>2019-06-15T03:26:56Z</time>
      </trkpt>
      <trkpt lat="61.71473" lon="10.87256">
        <ele>407.39999389648</ele>
        <time>2019-06-15T03:27:13Z</time>
      </trkpt>
      <trkpt lat="61.7146" lon="10.87209">
        <ele>407</ele>
        <time>2019-06-15T03:27:26Z</time>
      </trkpt>
      <trkpt lat="61.7144" lon="10.87127">
        <ele>405.39999389648</ele>
        <time>2019-06-15T03:27:32Z</time>
      </trkpt>
      <trkpt lat="61.71438" lon="10.87095">
        <ele>405.20001220703</ele>
        <time>2019-06-15T03:27:48Z</time>
      </trkpt>
      <trkpt lat="61.71472" lon="10.86956">
        <ele>406.60000610352</ele>
        <time>2019-06-15T03:28:02Z</time>
      </trkpt>
      <trkpt lat="61.71505" lon="10.86872">
        <ele>408</ele>
        <time>2019-06-15T03:28:17Z</time>
      </trkpt>
      <trkpt lat="61.7153" lon="10.8678">
        <ele>407.60000610352</ele>
        <time>2019-06-15T03:28:35Z</time>
      </trkpt>
      <trkpt lat="61.7158" lon="10.86605">
        <ele>405.60000610352</ele>
        <time>2019-06-15T03:28:45Z</time>
      </trkpt>
      <trkpt lat="61.71645" lon="10.86417">
        <ele>404.39999389648</ele>
        <time>2019-06-15T03:29:08Z</time>
      </trkpt>
      <trkpt lat="61.71713" lon="10.86261">
        <ele>404.79998779297</ele>
        <time>2019-06-15T03:29:26Z</time>
      </trkpt>
      <trkpt lat="61.71783" lon="10.86109">
        <ele>400.79998779297</ele>
        <time>2019-06-15T03:29:44Z</time>
      </trkpt>
      <trkpt lat="61.71839" lon="10.85989">
        <ele>398.39999389648</ele>
        <time>2019-06-15T03:30:09Z</time>
      </trkpt>
      <trkpt lat="61.71875" lon="10.85932">
        <ele>399.60000610352</ele>
        <time>2019-06-15T03:30:24Z</time>
      </trkpt>
      <trkpt lat="61.71923" lon="10.85852">
        <ele>399.79998779297</ele>
        <time>2019-06-15T03:30:31Z</time>
      </trkpt>
      <trkpt lat="61.72003" lon="10.85711">
        <ele>401</ele>
        <time>2019-06-15T03:30:44Z</time>
      </trkpt>
      <trkpt lat="61.7205" lon="10.85628">
        <ele>401.20001220703</ele>
        <time>2019-06-15T03:30:57Z</time>
      </trkpt>
      <trkpt lat="61.72097" lon="10.85542">
        <ele>401.60000610352</ele>
        <time>2019-06-15T03:31:23Z</time>
      </trkpt>
      <trkpt lat="61.72166" lon="10.85418">
        <ele>402.79998779297</ele>
        <time>2019-06-15T03:31:40Z</time>
      </trkpt>
      <trkpt lat="61.72211" lon="10.85335">
        <ele>402.60000610352</ele>
        <time>2019-06-15T03:31:52Z</time>
      </trkpt>
      <trkpt lat="61.72259" lon="10.85243">
        <ele>401.60000610352</ele>
        <time>2019-06-15T03:32:12Z</time>
      </trkpt>
      <trkpt lat="61.7229" lon="10.85204">
        <ele>401.79998779297</ele>
        <time>2019-06-15T03:32:16Z</time>
      </trkpt>
      <trkpt lat="61.72328" lon="10.85127">
        <ele>401.79998779297</ele>
        <time>2019-06-15T03:32:29Z</time>
      </trkpt>
      <trkpt lat="61.72411" lon="10.84991">
        <ele>402</ele>
        <time>2019-06-15T03:32:52Z</time>
      </trkpt>
      <trkpt lat="61.72468" lon="10.84892">
        <ele>400.60000610352</ele>
        <time>2019-06-15T03:33:09Z</time>
      </trkpt>
      <trkpt lat="61.72498" lon="10.84827">
        <ele>400.20001220703</ele>
        <time>2019-06-15T03:33:37Z</time>
      </trkpt>
      <trkpt lat="61.72524" lon="10.84773">
        <ele>400.20001220703</ele>
        <time>2019-06-15T03:33:52Z</time>
      </trkpt>
      <trkpt lat="61.7257" lon="10.8467">
        <ele>401</ele>
        <time>2019-06-15T03:33:59Z</time>
      </trkpt>
      <trkpt lat="61.72613" lon="10.84601">
        <ele>401.20001220703</ele>
        <time>2019-06-15T03:34:34Z</time>
      </trkpt>
      <trkpt lat="61.72639" lon="10.84568">
        <ele>401.39999389648</ele>
        <time>2019-06-15T03:34:48Z</time>
      </trkpt>
      <trkpt lat="61.72688" lon="10.84496">
        <ele>401.60000610352</ele>
        <time>2019-06-15T03:35:10Z</time>
      </trkpt>
      <trkpt lat="61.72727" lon="10.84416">
        <ele>402</ele>
        <time>2019-06-15T03:35:22Z</time>
      </trkpt>
      <trkpt lat="61.72799" lon="10.84304">
        <ele>402</ele>
        <time>2019-06-15T03:35:42Z</time>
      </trkpt>
      <trkpt lat="61.72812" lon="10.84285">
        <ele>401.60000610352</ele>
        <time>2019-06-15T03:36:09Z</time>
      </trkpt>
      <trkpt lat="61.72861" lon="10.84198">
        <ele>401.60000610352</ele>
        <time>2019-06-15T03:36:27Z</time>
      </trkpt>
      <trkpt lat="61.72896" lon="10.84138">
        <ele>401.39999389648</ele>
        <time>2019-06-15T03:36:43Z</time>
      </trkpt>
      <trkpt lat="61.72918" lon="10.84091">
        <ele>401.60000610352</ele>
        <time>2019-06-15T03:37:09Z</time>
      </trkpt>
      <trkpt lat="61.72976" lon="10.83996">
        <ele>402.39999389648</ele>
        <time>2019-06-15T03:37:24Z</time>
      </trkpt>
      <trkpt lat="61.73037" lon="10.83945">
        <ele>402.60000610352</ele>
        <time>2019-06-15T03:37:39Z</time>
      </trkpt>
      <trkpt lat="61.73074" lon="10.83908">
        <ele>403</ele>
        <time>2019-06-15T03:37:44Z</time>
      </trkpt>
      <trkpt lat="61.73096" lon="10.8393">
        <ele>403.20001220703</ele>
        <time>2019-06-15T03:37:59Z</time>
      </trkpt>
      <trkpt lat="61.73124" lon="10.84009">
        <ele>403.20001220703</ele>
        <time>2019-06-15T03:38:20Z</time>
      </trkpt>
      <trkpt lat="61.73154" lon="10.84007">
        <ele>403.60000610352</ele>
        <time>2019-06-15T03:38:26Z</time>
      </trkpt>
      <trkpt lat="61.73173" lon="10.83971">
        <ele>404</ele>
        <time>2019-06-15T03:38:36Z</time>
      </trkpt>
      <trkpt lat="61.73198" lon="10.83908">
        <ele>404.20001220703</ele>
        <time>2019-06-15T03:38:55Z</time>
      </trkpt>
      <trkpt lat="61.7333" lon="10.83676">
        <ele>408.60000610352</ele>
        <time>2019-06-15T03:39:11Z</time>
      </trkpt>
      <trkpt lat="61.73365" lon="10.8363">
        <ele>408.79998779297</ele>
        <time>2019-06-15T03:39:27Z</time>
      </trkpt>
      <trkpt lat="61.7344" lon="10.83543">
        <ele>408.60000610352</ele>
        <time>2019-06-15T03:39:38Z</time>
      </trkpt>
      <trkpt lat="61.73489" lon="10.83491">
        <ele>409</ele>
        <time>2019-06-15T03:39:50Z</time>
      </trkpt>
      <trkpt lat="61.73521" lon="10.83456">
        <ele>409.79998779297</ele>
        <time>2019-06-15T03:40:03Z</time>
      </trkpt>
      <trkpt lat="61.73602" lon="10.8337">
        <ele>410.39999389648</ele>
        <time>2019-06-15T03:40:10Z</time>
      </trkpt>
      <trkpt lat="61.73635" lon="10.83332">
        <ele>410.79998779297</ele>
        <time>2019-06-15T03:40:20Z</time>
      </trkpt>
      <trkpt lat="61.73697" lon="10.83261">
        <ele>410.79998779297</ele>
        <time>2019-06-15T03:40:36Z</time>
      </trkpt>
      <trkpt lat="61.73836" lon="10.83115">
        <ele>416.39999389648</ele>
        <time>2019-06-15T03:40:53Z</time>
      </trkpt>
      <trkpt lat="61.73888" lon="10.83075">
        <ele>416</ele>
        <time>2019-06-15T03:41:13Z</time>
      </trkpt>
      <trkpt lat="61.73971" lon="10.83018">
        <ele>415.79998779297</ele>
        <time>2019-06-15T03:41:30Z</time>
      </trkpt>
      <trkpt lat="61.74044" lon="10.82969">
        <ele>419.20001220703</ele>
        <time>2019-06-15T03:41:46Z</time>
      </trkpt>
      <trkpt lat="61.74059" lon="10.82959">
        <ele>421.39999389648</ele>
        <time>2019-06-15T03:41:59Z</time>
      </trkpt>
      <trkpt lat="61.74103" lon="10.82932">
        <ele>421.39999389648</ele>
        <time>2019-06-15T03:42:02Z</time>
      </trkpt>
      <trkpt lat="61.74183" lon="10.82899">
        <ele>420.60000610352</ele>
        <time>2019-06-15T03:42:07Z</time>
      </trkpt>
      <trkpt lat="61.74245" lon="10.82882">
        <ele>420.79998779297</ele>
        <time>2019-06-15T03:42:29Z</time>
      </trkpt>
      <trkpt lat="61.74301" lon="10.82875">
        <ele>419.79998779297</ele>
        <time>2019-06-15T03:51:21Z</time>
      </trkpt>
      <trkpt lat="61.74417" lon="10.82862">
        <ele>419.79998779297</ele>
        <time>2019-06-15T03:51:38Z</time>
      </trkpt>
      <trkpt lat="61.74475" lon="10.82852">
        <ele>419.60000610352</ele>
        <time>2019-06-16T07:11:00Z</time>
      </trkpt>
      <trkpt lat="61.74488" lon="10.8283">
        <ele>419.39999389648</ele>
        <time>2019-06-16T07:11:02Z</time>
      </trkpt>
      <trkpt lat="61.74516" lon="10.82812">
        <ele>418.39999389648</ele>
        <time>2019-06-16T07:11:05Z</time>
      </trkpt>
      <trkpt lat="61.74561" lon="10.82826">
        <ele>418.39999389648</ele>
        <time>2019-06-16T07:11:08Z</time>
      </trkpt>
      <trkpt lat="61.74636" lon="10.82831">
        <ele>420.79998779297</ele>
        <time>2019-06-16T07:11:23Z</time>
      </trkpt>
      <trkpt lat="61.74705" lon="10.82823">
        <ele>422.20001220703</ele>
        <time>2019-06-16T07:11:43Z</time>
      </trkpt>
      <trkpt lat="61.74998" lon="10.82779">
        <ele>425.60000610352</ele>
        <time>2019-06-16T07:12:00Z</time>
      </trkpt>
      <trkpt lat="61.75136" lon="10.82758">
        <ele>426.79998779297</ele>
        <time>2019-06-16T07:12:30Z</time>
      </trkpt>
      <trkpt lat="61.75246" lon="10.82741">
        <ele>426.60000610352</ele>
        <time>2019-06-16T07:12:48Z</time>
      </trkpt>
      <trkpt lat="61.75479" lon="10.82703">
        <ele>422.79998779297</ele>
        <time>2019-06-16T07:13:00Z</time>
      </trkpt>
      <trkpt lat="61.75549" lon="10.82682">
        <ele>422</ele>
        <time>2019-06-16T07:13:23Z</time>
      </trkpt>
      <trkpt lat="61.7564" lon="10.82647">
        <ele>422</ele>
        <time>2019-06-16T07:13:28Z</time>
      </trkpt>
      <trkpt lat="61.75718" lon="10.82619">
        <ele>422.60000610352</ele>
        <time>2019-06-16T07:13:32Z</time>
      </trkpt>
      <trkpt lat="61.75816" lon="10.82611">
        <ele>423.60000610352</ele>
        <time>2019-06-16T07:13:56Z</time>
      </trkpt>
      <trkpt lat="61.75907" lon="10.82643">
        <ele>424</ele>
        <time>2019-06-16T07:14:09Z</time>
      </trkpt>
      <trkpt lat="61.76051" lon="10.8275">
        <ele>426.20001220703</ele>
        <time>2019-06-16T07:14:27Z</time>
      </trkpt>
      <trkpt lat="61.76199" lon="10.82863">
        <ele>427.79998779297</ele>
        <time>2019-06-16T07:14:34Z</time>
      </trkpt>
      <trkpt lat="61.76279" lon="10.82924">
        <ele>428.39999389648</ele>
        <time>2019-06-16T07:14:54Z</time>
      </trkpt>
      <trkpt lat="61.76318" lon="10.82956">
        <ele>429</ele>
        <time>2019-06-16T07:15:05Z</time>
      </trkpt>
      <trkpt lat="61.76472" lon="10.83074">
        <ele>428.79998779297</ele>
        <time>2019-06-16T07:15:23Z</time>
      </trkpt>
      <trkpt lat="61.7651" lon="10.83102">
        <ele>428.79998779297</ele>
        <time>2019-06-16T07:15:45Z</time>
      </trkpt>
      <trkpt lat="61.76583" lon="10.83158">
        <ele>427.79998779297</ele>
        <time>2019-06-16T07:15:57Z</time>
      </trkpt>
      <trkpt lat="61.76667" lon="10.83223">
        <ele>426.20001220703</ele>
        <time>2019-06-16T07:16:16Z</time>
      </trkpt>
      <trkpt lat="61.76784" lon="10.83314">
        <ele>427.39999389648</ele>
        <time>2019-06-16T07:16:34Z</time>
      </trkpt>
      <trkpt lat="61.76856" lon="10.8337">
        <ele>429.20001220703</ele>
        <time>2019-06-16T07:16:41Z</time>
      </trkpt>
      <trkpt lat="61.76952" lon="10.83441">
        <ele>429.79998779297</ele>
        <time>2019-06-16T07:16:45Z</time>
      </trkpt>
      <trkpt lat="61.77035" lon="10.83504">
        <ele>428.79998779297</ele>
        <time>2019-06-16T07:16:57Z</time>
      </trkpt>
      <trkpt lat="61.77242" lon="10.83691">
        <ele>425.39999389648</ele>
        <time>2019-06-16T07:16:59Z</time>
      </trkpt>
      <trkpt lat="61.77326" lon="10.83779">
        <ele>426</ele>
        <time>2019-06-16T07:17:21Z</time>
      </trkpt>
      <trkpt lat="61.77482" lon="10.83944">
        <ele>430</ele>
        <time>2019-06-16T07:17:36Z</time>
      </trkpt>
      <trkpt lat="61.77517" lon="10.83982">
        <ele>431.39999389648</ele>
        <time>2019-06-16T07:17:48Z</time>
      </trkpt>
      <trkpt lat="61.7756" lon="10.84024">
        <ele>432</ele>
        <time>2019-06-16T07:18:02Z</time>
      </trkpt>
      <trkpt lat="61.77618" lon="10.84078">
        <ele>432</ele>
        <time>2019-06-16T07:18:12Z</time>
      </trkpt>
      <trkpt lat="61.77698" lon="10.84138">
        <ele>430.79998779297</ele>
        <time>2019-06-16T07:18:21Z</time>
      </trkpt>
      <trkpt lat="61.77767" lon="10.84178">
        <ele>429.39999389648</ele>
        <time>2019-06-16T07:18:49Z</time>
      </trkpt>
      <trkpt lat="61.77882" lon="10.84235">
        <ele>428</ele>
        <time>2019-06-16T07:19:00Z</time>
      </trkpt>
      <trkpt lat="61.77978" lon="10.84286">
        <ele>428.20001220703</ele>
        <time>2019-06-16T07:19:23Z</time>
      </trkpt>
      <trkpt lat="61.78095" lon="10.84361">
        <ele>430</ele>
        <time>2019-06-16T07:19:42Z</time>
      </trkpt>
      <trkpt lat="61.78115" lon="10.84378">
        <ele>430</ele>
        <time>2019-06-16T07:19:53Z</time>
      </trkpt>
      <trkpt lat="61.78166" lon="10.84422">
        <ele>430.60000610352</ele>
        <time>2019-06-16T07:20:14Z</time>
      </trkpt>
      <trkpt lat="61.7823" lon="10.8448">
        <ele>429.79998779297</ele>
        <time>2019-06-16T07:20:33Z</time>
      </trkpt>
      <trkpt lat="61.78285" lon="10.8453">
        <ele>429.79998779297</ele>
        <time>2019-06-16T07:20:44Z</time>
      </trkpt>
      <trkpt lat="61.78385" lon="10.84623">
        <ele>431</ele>
        <time>2019-06-16T07:21:05Z</time>
      </trkpt>
      <trkpt lat="61.78399" lon="10.84637">
        <ele>431.39999389648</ele>
        <time>2019-06-16T07:21:24Z</time>
      </trkpt>
      <trkpt lat="61.78712" lon="10.84926">
        <ele>435.20001220703</ele>
        <time>2019-06-16T07:21:37Z</time>
      </trkpt>
      <trkpt lat="61.78798" lon="10.84991">
        <ele>436</ele>
        <time>2019-06-16T07:21:45Z</time>
      </trkpt>
      <trkpt lat="61.78848" lon="10.85022">
        <ele>437</ele>
        <time>2019-06-16T07:21:57Z</time>
      </trkpt>
      <trkpt lat="61.78981" lon="10.85075">
        <ele>438.20001220703</ele>
        <time>2019-06-16T07:22:14Z</time>
      </trkpt>
      <trkpt lat="61.79101" lon="10.8509">
        <ele>438</ele>
        <time>2019-06-16T07:22:24Z</time>
      </trkpt>
      <trkpt lat="61.7921" lon="10.85088">
        <ele>437.60000610352</ele>
        <time>2019-06-16T07:22:37Z</time>
      </trkpt>
      <trkpt lat="61.79268" lon="10.85087">
        <ele>437.60000610352</ele>
        <time>2019-06-16T07:22:59Z</time>
      </trkpt>
      <trkpt lat="61.79493" lon="10.85086">
        <ele>435.60000610352</ele>
        <time>2019-06-16T07:23:08Z</time>
      </trkpt>
      <trkpt lat="61.7962" lon="10.85084">
        <ele>435.39999389648</ele>
        <time>2019-06-16T07:23:27Z</time>
      </trkpt>
      <trkpt lat="61.7965" lon="10.85083">
        <ele>435</ele>
        <time>2019-06-16T07:23:36Z</time>
      </trkpt>
      <trkpt lat="61.79748" lon="10.85083">
        <ele>434.79998779297</ele>
        <time>2019-06-16T07:23:49Z</time>
      </trkpt>
      <trkpt lat="61.79858" lon="10.85079">
        <ele>435</ele>
        <time>2019-06-16T07:24:10Z</time>
      </trkpt>
      <trkpt lat="61.80054" lon="10.85032">
        <ele>436.20001220703</ele>
        <time>2019-06-16T07:24:24Z</time>
      </trkpt>
      <trkpt lat="61.80195" lon="10.84992">
        <ele>437.39999389648</ele>
        <time>2019-06-16T07:24:35Z</time>
      </trkpt>
      <trkpt lat="61.80352" lon="10.85">
        <ele>437.39999389648</ele>
        <time>2019-06-16T07:24:45Z</time>
      </trkpt>
      <trkpt lat="61.80419" lon="10.85016">
        <ele>436.79998779297</ele>
        <time>2019-06-16T07:24:57Z</time>
      </trkpt>
      <trkpt lat="61.805" lon="10.85032">
        <ele>436.39999389648</ele>
        <time>2019-06-16T07:25:09Z</time>
      </trkpt>
      <trkpt lat="61.80555" lon="10.85038">
        <ele>436.60000610352</ele>
        <time>2019-06-16T07:25:13Z</time>
      </trkpt>
      <trkpt lat="61.80635" lon="10.85033">
        <ele>437.39999389648</ele>
        <time>2019-06-16T07:25:19Z</time>
      </trkpt>
      <trkpt lat="61.80694" lon="10.8501">
        <ele>439.39999389648</ele>
        <time>2019-06-16T07:31:47Z</time>
      </trkpt>
      <trkpt lat="61.8098" lon="10.84964">
        <ele>446.20001220703</ele>
        <time>2019-06-16T07:31:53Z</time>
      </trkpt>
      <trkpt lat="61.81168" lon="10.84962">
        <ele>449.39999389648</ele>
        <time>2019-06-16T07:33:33Z</time>
      </trkpt>
      <trkpt lat="61.8151" lon="10.84964">
        <ele>454.20001220703</ele>
        <time>2019-06-16T07:33:40Z</time>
      </trkpt>
      <trkpt lat="61.81633" lon="10.84982">
        <ele>456.20001220703</ele>
        <time>2019-06-16T07:33:49Z</time>
      </trkpt>
      <trkpt lat="61.81679" lon="10.85005">
        <ele>456.60000610352</ele>
        <time>2019-06-16T07:34:13Z</time>
      </trkpt>
      <trkpt lat="61.81715" lon="10.8503">
        <ele>457.39999389648</ele>
        <time>2019-06-16T07:34:32Z</time>
      </trkpt>
      <trkpt lat="61.81779" lon="10.85099">
        <ele>457.60000610352</ele>
        <time>2019-06-16T07:34:50Z</time>
      </trkpt>
      <trkpt lat="61.81863" lon="10.85219">
        <ele>457</ele>
        <time>2019-06-16T07:34:59Z</time>
      </trkpt>
      <trkpt lat="61.81896" lon="10.85268">
        <ele>456.20001220703</ele>
        <time>2019-06-16T07:35:02Z</time>
      </trkpt>
      <trkpt lat="61.81969" lon="10.85375">
        <ele>455.20001220703</ele>
        <time>2019-06-16T07:35:08Z</time>
      </trkpt>
      <trkpt lat="61.82021" lon="10.85438">
        <ele>455.39999389648</ele>
        <time>2019-06-16T07:35:13Z</time>
      </trkpt>
      <trkpt lat="61.82074" lon="10.85482">
        <ele>456.60000610352</ele>
        <time>2019-06-16T07:35:20Z</time>
      </trkpt>
      <trkpt lat="61.82134" lon="10.85526">
        <ele>459</ele>
        <time>2019-06-16T07:35:39Z</time>
      </trkpt>
      <trkpt lat="61.82275" lon="10.85639">
        <ele>463</ele>
        <time>2019-06-16T07:35:55Z</time>
      </trkpt>
      <trkpt lat="61.82358" lon="10.85742">
        <ele>462.39999389648</ele>
        <time>2019-06-16T07:36:10Z</time>
      </trkpt>
      <trkpt lat="61.82418" lon="10.85824">
        <ele>460</ele>
        <time>2019-06-16T07:36:27Z</time>
      </trkpt>
      <trkpt lat="61.82425" lon="10.85824">
        <ele>458.60000610352</ele>
        <time>2019-06-16T07:36:34Z</time>
      </trkpt>
      <trkpt lat="61.82448" lon="10.8581">
        <ele>458.60000610352</ele>
        <time>2019-06-16T07:36:52Z</time>
      </trkpt>
      <trkpt lat="61.8246" lon="10.85812">
        <ele>455.60000610352</ele>
        <time>2019-06-16T07:37:09Z</time>
      </trkpt>
      <trkpt lat="61.82484" lon="10.85819">
        <ele>455.39999389648</ele>
        <time>2019-06-16T07:37:25Z</time>
      </trkpt>
      <trkpt lat="61.82571" lon="10.8585">
        <ele>450.79998779297</ele>
        <time>2019-06-16T07:37:38Z</time>
      </trkpt>
      <trkpt lat="61.82608" lon="10.85881">
        <ele>450</ele>
        <time>2019-06-16T07:37:43Z</time>
      </trkpt>
      <trkpt lat="61.82649" lon="10.85862">
        <ele>449</ele>
        <time>2019-06-16T07:37:47Z</time>
      </trkpt>
      <trkpt lat="61.8269" lon="10.8578">
        <ele>449</ele>
        <time>2019-06-16T07:38:09Z</time>
      </trkpt>
      <trkpt lat="61.8272" lon="10.85738">
        <ele>449.79998779297</ele>
        <time>2019-06-16T07:38:19Z</time>
      </trkpt>
      <trkpt lat="61.82757" lon="10.85726">
        <ele>450.79998779297</ele>
        <time>2019-06-16T07:38:31Z</time>
      </trkpt>
      <trkpt lat="61.82787" lon="10.85769">
        <ele>450</ele>
        <time>2019-06-16T07:38:35Z</time>
      </trkpt>
      <trkpt lat="61.82832" lon="10.85863">
        <ele>449.39999389648</ele>
        <time>2019-06-16T07:38:48Z</time>
      </trkpt>
      <trkpt lat="61.82864" lon="10.85911">
        <ele>448.60000610352</ele>
        <time>2019-06-16T07:39:02Z</time>
      </trkpt>
      <trkpt lat="61.82932" lon="10.85992">
        <ele>444.79998779297</ele>
        <time>2019-06-16T07:39:19Z</time>
      </trkpt>
      <trkpt lat="61.82983" lon="10.86006">
        <ele>442.20001220703</ele>
        <time>2019-06-16T07:39:33Z</time>
      </trkpt>
      <trkpt lat="61.83052" lon="10.86031">
        <ele>441</ele>
        <time>2019-06-16T07:39:43Z</time>
      </trkpt>
      <trkpt lat="61.83106" lon="10.86098">
        <ele>441.39999389648</ele>
        <time>2019-06-16T07:40:01Z</time>
      </trkpt>
      <trkpt lat="61.83195" lon="10.86213">
        <ele>441</ele>
        <time>2019-06-16T07:40:26Z</time>
      </trkpt>
      <trkpt lat="61.8327" lon="10.86296">
        <ele>439.39999389648</ele>
        <time>2019-06-16T07:40:34Z</time>
      </trkpt>
      <trkpt lat="61.83329" lon="10.86407">
        <ele>436</ele>
        <time>2019-06-16T07:40:46Z</time>
      </trkpt>
      <trkpt lat="61.83383" lon="10.86529">
        <ele>433.79998779297</ele>
        <time>2019-06-16T07:40:53Z</time>
      </trkpt>
      <trkpt lat="61.83425" lon="10.86614">
        <ele>430.39999389648</ele>
        <time>2019-06-16T07:41:09Z</time>
      </trkpt>
      <trkpt lat="61.83482" lon="10.86734">
        <ele>429.39999389648</ele>
        <time>2019-06-16T07:41:16Z</time>
      </trkpt>
      <trkpt lat="61.83527" lon="10.86875">
        <ele>428.79998779297</ele>
        <time>2019-06-16T07:41:33Z</time>
      </trkpt>
      <trkpt lat="61.83554" lon="10.86971">
        <ele>428</ele>
        <time>2019-06-16T07:41:45Z</time>
      </trkpt>
      <trkpt lat="61.8357" lon="10.87026">
        <ele>427.79998779297</ele>
        <time>2019-06-16T07:41:54Z</time>
      </trkpt>
      <trkpt lat="61.83594" lon="10.87104">
        <ele>428.39999389648</ele>
        <time>2019-06-16T07:42:00Z</time>
      </trkpt>
      <trkpt lat="61.83597" lon="10.87103">
        <ele>429.39999389648</ele>
        <time>2019-06-16T07:42:11Z</time>
      </trkpt>
      <trkpt lat="61.83615" lon="10.87083">
        <ele>429.60000610352</ele>
        <time>2019-06-16T07:42:27Z</time>
      </trkpt>
      <trkpt lat="61.83652" lon="10.87035">
        <ele>429.60000610352</ele>
        <time>2019-06-16T07:42:43Z</time>
      </trkpt>
      <trkpt lat="61.83689" lon="10.8694">
        <ele>430</ele>
        <time>2019-06-16T07:42:52Z</time>
      </trkpt>
      <trkpt lat="61.8369" lon="10.86934">
        <ele>430.20001220703</ele>
        <time>2019-06-16T07:43:13Z</time>
      </trkpt>
      <trkpt lat="61.8363" lon="10.87069">
        <ele>430.20001220703</ele>
        <time>2019-06-16T07:43:23Z</time>
      </trkpt>
      <trkpt lat="61.83634" lon="10.87059">
        <ele>433</ele>
        <time>2019-06-16T07:43:40Z</time>
      </trkpt>
      <trkpt lat="61.83646" lon="10.87046">
        <ele>433</ele>
        <time>2019-06-16T07:43:54Z</time>
      </trkpt>
      <trkpt lat="61.83683" lon="10.86963">
        <ele>433.60000610352</ele>
        <time>2019-06-16T07:44:02Z</time>
      </trkpt>
      <trkpt lat="61.83695" lon="10.86919">
        <ele>433.60000610352</ele>
        <time>2019-06-16T07:44:14Z</time>
      </trkpt>
      <trkpt lat="61.83712" lon="10.86867">
        <ele>433.79998779297</ele>
        <time>2019-06-16T07:44:29Z</time>
      </trkpt>
      <trkpt lat="61.83736" lon="10.86789">
        <ele>433.79998779297</ele>
        <time>2019-06-16T07:44:41Z</time>
      </trkpt>
      <trkpt lat="61.83769" lon="10.8668">
        <ele>434</ele>
        <time>2019-06-16T07:44:57Z</time>
      </trkpt>
      <trkpt lat="61.83783" lon="10.86668">
        <ele>434</ele>
        <time>2019-06-16T07:45:05Z</time>
      </trkpt>
      <trkpt lat="61.83809" lon="10.86734">
        <ele>434.79998779297</ele>
        <time>2019-06-16T07:45:28Z</time>
      </trkpt>
      <trkpt lat="61.83829" lon="10.86786">
        <ele>436.79998779297</ele>
        <time>2019-06-16T07:45:37Z</time>
      </trkpt>
      <trkpt lat="61.83855" lon="10.86837">
        <ele>437.39999389648</ele>
        <time>2019-06-16T07:45:52Z</time>
      </trkpt>
      <trkpt lat="61.8388" lon="10.86876">
        <ele>437.20001220703</ele>
        <time>2019-06-16T07:46:08Z</time>
      </trkpt>
      <trkpt lat="61.83894" lon="10.86907">
        <ele>436.60000610352</ele>
        <time>2019-06-16T07:46:23Z</time>
      </trkpt>
      <trkpt lat="61.83929" lon="10.87014">
        <ele>433.60000610352</ele>
        <time>2019-06-16T07:46:44Z</time>
      </trkpt>
      <trkpt lat="61.8394" lon="10.87054">
        <ele>433.60000610352</ele>
        <time>2019-06-16T07:46:58Z</time>
      </trkpt>
      <trkpt lat="61.83957" lon="10.87158">
        <ele>433.39999389648</ele>
        <time>2019-06-16T07:47:08Z</time>
      </trkpt>
      <trkpt lat="61.83968" lon="10.87283">
        <ele>432.60000610352</ele>
        <time>2019-06-16T07:47:22Z</time>
      </trkpt>
      <trkpt lat="61.83971" lon="10.8731">
        <ele>432.60000610352</ele>
        <time>2019-06-16T07:51:02Z</time>
      </trkpt>
      <trkpt lat="61.83987" lon="10.87522">
        <ele>433</ele>
        <time>2019-06-16T07:51:16Z</time>
      </trkpt>
      <trkpt lat="61.83987" lon="10.87522">
        <ele>432.60000610352</ele>
        <time>2019-06-16T07:51:32Z</time>
      </trkpt>
      <trkpt lat="61.83999" lon="10.87657">
        <ele>432.60000610352</ele>
        <time>2019-06-16T07:51:47Z</time>
      </trkpt>
      <trkpt lat="61.84022" lon="10.87828">
        <ele>433.39999389648</ele>
        <time>2019-06-16T07:52:12Z</time>
      </trkpt>
      <trkpt lat="61.84042" lon="10.87886">
        <ele>433.39999389648</ele>
        <time>2019-06-16T07:52:25Z</time>
      </trkpt>
      <trkpt lat="61.84074" lon="10.88009">
        <ele>433.79998779297</ele>
        <time>2019-06-16T07:52:35Z</time>
      </trkpt>
      <trkpt lat="61.84091" lon="10.881">
        <ele>434</ele>
        <time>2019-06-16T07:52:49Z</time>
      </trkpt>
      <trkpt lat="61.84106" lon="10.88192">
        <ele>434</ele>
        <time>2019-06-16T07:52:59Z</time>
      </trkpt>
      <trkpt lat="61.84145" lon="10.88409">
        <ele>433.60000610352</ele>
        <time>2019-06-16T07:53:06Z</time>
      </trkpt>
      <trkpt lat="61.84183" lon="10.88594">
        <ele>434.20001220703</ele>
        <time>2019-06-16T07:53:17Z</time>
      </trkpt>
      <trkpt lat="61.84198" lon="10.88665">
        <ele>434.20001220703</ele>
        <time>2019-06-16T07:53:28Z</time>
      </trkpt>
      <trkpt lat="61.84205" lon="10.88706">
        <ele>434.39999389648</ele>
        <time>2019-06-16T07:53:40Z</time>
      </trkpt>
      <trkpt lat="61.84232" lon="10.88827">
        <ele>434.60000610352</ele>
        <time>2019-06-16T07:53:52Z</time>
      </trkpt>
      <trkpt lat="61.8426" lon="10.88968">
        <ele>434.39999389648</ele>
        <time>2019-06-16T07:54:00Z</time>
      </trkpt>
      <trkpt lat="61.84297" lon="10.89135">
        <ele>435.79998779297</ele>
        <time>2019-06-16T07:54:14Z</time>
      </trkpt>
      <trkpt lat="61.84306" lon="10.89163">
        <ele>436.20001220703</ele>
        <time>2019-06-16T07:54:20Z</time>
      </trkpt>
      <trkpt lat="61.84335" lon="10.89229">
        <ele>441.79998779297</ele>
        <time>2019-06-16T07:54:32Z</time>
      </trkpt>
      <trkpt lat="61.84377" lon="10.89271">
        <ele>444.20001220703</ele>
        <time>2019-06-16T07:54:44Z</time>
      </trkpt>
      <trkpt lat="61.84469" lon="10.89301">
        <ele>444.60000610352</ele>
        <time>2019-06-16T07:54:51Z</time>
      </trkpt>
      <trkpt lat="61.84526" lon="10.89331">
        <ele>445.60000610352</ele>
        <time>2019-06-16T07:55:05Z</time>
      </trkpt>
      <trkpt lat="61.84625" lon="10.89452">
        <ele>447.39999389648</ele>
        <time>2019-06-16T07:55:18Z</time>
      </trkpt>
      <trkpt lat="61.84695" lon="10.89529">
        <ele>451</ele>
        <time>2019-06-16T07:55:33Z</time>
      </trkpt>
      <trkpt lat="61.84699" lon="10.89532">
        <ele>450.79998779297</ele>
        <time>2019-06-16T07:55:54Z</time>
      </trkpt>
      <trkpt lat="61.84734" lon="10.89561">
        <ele>450.60000610352</ele>
        <time>2019-06-16T07:56:12Z</time>
      </trkpt>
      <trkpt lat="61.84787" lon="10.89619">
        <ele>450.79998779297</ele>
        <time>2019-06-16T07:56:31Z</time>
      </trkpt>
      <trkpt lat="61.8484" lon="10.89676">
        <ele>450</ele>
        <time>2019-06-16T07:56:55Z</time>
      </trkpt>
      <trkpt lat="61.84887" lon="10.89726">
        <ele>447.60000610352</ele>
        <time>2019-06-16T07:57:13Z</time>
      </trkpt>
      <trkpt lat="61.84989" lon="10.89838">
        <ele>444</ele>
        <time>2019-06-16T07:57:41Z</time>
      </trkpt>
      <trkpt lat="61.85043" lon="10.89899">
        <ele>443.60000610352</ele>
        <time>2019-06-16T07:57:49Z</time>
      </trkpt>
      <trkpt lat="61.85091" lon="10.89938">
        <ele>445</ele>
        <time>2019-06-16T07:58:08Z</time>
      </trkpt>
      <trkpt lat="61.85132" lon="10.89964">
        <ele>445.39999389648</ele>
        <time>2019-06-16T07:58:34Z</time>
      </trkpt>
      <trkpt lat="61.85183" lon="10.89995">
        <ele>446.60000610352</ele>
        <time>2019-06-16T07:58:53Z</time>
      </trkpt>
      <trkpt lat="61.85252" lon="10.90029">
        <ele>448.60000610352</ele>
        <time>2019-06-16T07:59:08Z</time>
      </trkpt>
      <trkpt lat="61.85321" lon="10.90031">
        <ele>449.39999389648</ele>
        <time>2019-06-16T07:59:31Z</time>
      </trkpt>
      <trkpt lat="61.85394" lon="10.90046">
        <ele>448.20001220703</ele>
        <time>2019-06-16T07:59:46Z</time>
      </trkpt>
      <trkpt lat="61.85421" lon="10.90074">
        <ele>447</ele>
        <time>2019-06-16T08:00:06Z</time>
      </trkpt>
      <trkpt lat="61.85461" lon="10.90128">
        <ele>446.79998779297</ele>
        <time>2019-06-16T08:00:25Z</time>
      </trkpt>
      <trkpt lat="61.85523" lon="10.90178">
        <ele>445</ele>
        <time>2019-06-16T08:00:41Z</time>
      </trkpt>
      <trkpt lat="61.85625" lon="10.90228">
        <ele>443.20001220703</ele>
        <time>2019-06-16T08:00:52Z</time>
      </trkpt>
      <trkpt lat="61.85733" lon="10.90291">
        <ele>444</ele>
        <time>2019-06-16T08:00:59Z</time>
      </trkpt>
      <trkpt lat="61.85859" lon="10.90367">
        <ele>444.39999389648</ele>
        <time>2019-06-16T08:01:20Z</time>
      </trkpt>
      <trkpt lat="61.85867" lon="10.90385">
        <ele>444.39999389648</ele>
        <time>2019-06-16T08:01:28Z</time>
      </trkpt>
      <trkpt lat="61.85982" lon="10.90446">
        <ele>444.39999389648</ele>
        <time>2019-06-16T08:01:42Z</time>
      </trkpt>
      <trkpt lat="61.86066" lon="10.90436">
        <ele>444.20001220703</ele>
        <time>2019-06-16T08:02:05Z</time>
      </trkpt>
      <trkpt lat="61.86091" lon="10.90418">
        <ele>444.20001220703</ele>
        <time>2019-06-16T08:02:14Z</time>
      </trkpt>
      <trkpt lat="61.86138" lon="10.90385">
        <ele>444</ele>
        <time>2019-06-16T08:02:21Z</time>
      </trkpt>
      <trkpt lat="61.86176" lon="10.90338">
        <ele>444.20001220703</ele>
        <time>2019-06-16T08:02:29Z</time>
      </trkpt>
      <trkpt lat="61.86247" lon="10.90239">
        <ele>444.79998779297</ele>
        <time>2019-06-16T08:02:37Z</time>
      </trkpt>
      <trkpt lat="61.86335" lon="10.90175">
        <ele>444.79998779297</ele>
        <time>2019-06-16T08:02:45Z</time>
      </trkpt>
      <trkpt lat="61.86476" lon="10.90017">
        <ele>443.39999389648</ele>
        <time>2019-06-16T08:02:52Z</time>
      </trkpt>
      <trkpt lat="61.86623" lon="10.89948">
        <ele>443.39999389648</ele>
        <time>2019-06-16T08:02:57Z</time>
      </trkpt>
      <trkpt lat="61.86699" lon="10.89903">
        <ele>443.60000610352</ele>
        <time>2019-06-16T08:03:04Z</time>
      </trkpt>
      <trkpt lat="61.86725" lon="10.89884">
        <ele>443.79998779297</ele>
        <time>2019-06-16T08:03:11Z</time>
      </trkpt>
      <trkpt lat="61.86732" lon="10.8988">
        <ele>443.60000610352</ele>
        <time>2019-06-16T08:03:17Z</time>
      </trkpt>
      <trkpt lat="61.86853" lon="10.89796">
        <ele>444.20001220703</ele>
        <time>2019-06-16T08:03:24Z</time>
      </trkpt>
      <trkpt lat="61.86897" lon="10.89766">
        <ele>444</ele>
        <time>2019-06-16T08:03:27Z</time>
      </trkpt>
      <trkpt lat="61.87182" lon="10.89633">
        <ele>446.39999389648</ele>
        <time>2019-06-16T08:03:38Z</time>
      </trkpt>
      <trkpt lat="61.87222" lon="10.89621">
        <ele>446.39999389648</ele>
        <time>2019-06-16T08:03:53Z</time>
      </trkpt>
      <trkpt lat="61.87276" lon="10.89626">
        <ele>447</ele>
        <time>2019-06-16T08:04:11Z</time>
      </trkpt>
      <trkpt lat="61.87305" lon="10.89635">
        <ele>447</ele>
        <time>2019-06-16T08:04:32Z</time>
      </trkpt>
      <trkpt lat="61.87342" lon="10.89647">
        <ele>447.20001220703</ele>
        <time>2019-06-16T08:04:39Z</time>
      </trkpt>
      <trkpt lat="61.8742" lon="10.8966">
        <ele>447.79998779297</ele>
        <time>2019-06-16T08:04:54Z</time>
      </trkpt>
      <trkpt lat="61.8747" lon="10.89672">
        <ele>447.79998779297</ele>
        <time>2019-06-16T08:05:12Z</time>
      </trkpt>
      <trkpt lat="61.875" lon="10.89682">
        <ele>448.39999389648</ele>
        <time>2019-06-16T08:05:30Z</time>
      </trkpt>
      <trkpt lat="61.87532" lon="10.8969">
        <ele>448.60000610352</ele>
        <time>2019-06-16T08:05:48Z</time>
      </trkpt>
      <trkpt lat="61.87579" lon="10.89672">
        <ele>448.79998779297</ele>
        <time>2019-06-16T08:06:03Z</time>
      </trkpt>
      <trkpt lat="61.87644" lon="10.89593">
        <ele>449.79998779297</ele>
        <time>2019-06-16T08:06:20Z</time>
      </trkpt>
      <trkpt lat="61.87687" lon="10.8954">
        <ele>449.60000610352</ele>
        <time>2019-06-16T08:06:43Z</time>
      </trkpt>
      <trkpt lat="61.87737" lon="10.89467">
        <ele>450</ele>
        <time>2019-06-16T08:06:50Z</time>
      </trkpt>
      <trkpt lat="61.8776" lon="10.8941">
        <ele>450.60000610352</ele>
        <time>2019-06-16T08:07:05Z</time>
      </trkpt>
      <trkpt lat="61.87812" lon="10.89291">
        <ele>450</ele>
        <time>2019-06-16T08:07:19Z</time>
      </trkpt>
      <trkpt lat="61.87847" lon="10.89212">
        <ele>450</ele>
        <time>2019-06-16T08:07:34Z</time>
      </trkpt>
      <trkpt lat="61.87876" lon="10.89132">
        <ele>449.60000610352</ele>
        <time>2019-06-16T08:08:29Z</time>
      </trkpt>
      <trkpt lat="61.87907" lon="10.88955">
        <ele>449.60000610352</ele>
        <time>2019-06-16T08:08:37Z</time>
      </trkpt>
      <trkpt lat="61.87908" lon="10.88895">
        <ele>450.20001220703</ele>
        <time>2019-06-16T08:08:50Z</time>
      </trkpt>
      <trkpt lat="61.87912" lon="10.88838">
        <ele>451.20001220703</ele>
        <time>2019-06-16T08:09:16Z</time>
      </trkpt>
      <trkpt lat="61.87915" lon="10.88848">
        <ele>452.39999389648</ele>
        <time>2019-06-16T08:09:27Z</time>
      </trkpt>
      <trkpt lat="61.8791" lon="10.88895">
        <ele>452</ele>
        <time>2019-06-16T08:09:31Z</time>
      </trkpt>
      <trkpt lat="61.87918" lon="10.88905">
        <ele>451.60000610352</ele>
        <time>2019-06-16T08:09:50Z</time>
      </trkpt>
      <trkpt lat="61.87928" lon="10.8889">
        <ele>451.60000610352</ele>
        <time>2019-06-16T08:10:04Z</time>
      </trkpt>
      <trkpt lat="61.87952" lon="10.88861">
        <ele>452</ele>
        <time>2019-06-16T08:10:21Z</time>
      </trkpt>
      <trkpt lat="61.88007" lon="10.88829">
        <ele>457</ele>
        <time>2019-06-16T08:10:26Z</time>
      </trkpt>
      <trkpt lat="61.88029" lon="10.88821">
        <ele>457</ele>
        <time>2019-06-16T08:10:36Z</time>
      </trkpt>
      <trkpt lat="61.88052" lon="10.88811">
        <ele>457.60000610352</ele>
        <time>2019-06-16T08:10:51Z</time>
      </trkpt>
      <trkpt lat="61.881" lon="10.88787">
        <ele>459.60000610352</ele>
        <time>2019-06-16T08:11:03Z</time>
      </trkpt>
      <trkpt lat="61.88146" lon="10.88761">
        <ele>460.20001220703</ele>
        <time>2019-06-16T08:11:11Z</time>
      </trkpt>
      <trkpt lat="61.88236" lon="10.88691">
        <ele>460</ele>
        <time>2019-06-16T08:11:16Z</time>
      </trkpt>
      <trkpt lat="61.88318" lon="10.88581">
        <ele>461.20001220703</ele>
        <time>2019-06-16T08:11:26Z</time>
      </trkpt>
      <trkpt lat="61.88365" lon="10.88499">
        <ele>461.39999389648</ele>
        <time>2019-06-16T08:11:41Z</time>
      </trkpt>
      <trkpt lat="61.88408" lon="10.8843">
        <ele>461.39999389648</ele>
        <time>2019-06-16T08:11:48Z</time>
      </trkpt>
      <trkpt lat="61.88457" lon="10.88305">
        <ele>461.60000610352</ele>
        <time>2019-06-16T08:11:59Z</time>
      </trkpt>
      <trkpt lat="61.88482" lon="10.88219">
        <ele>461.39999389648</ele>
        <time>2019-06-16T08:12:26Z</time>
      </trkpt>
      <trkpt lat="61.88499" lon="10.88163">
        <ele>462</ele>
        <time>2019-06-16T08:12:37Z</time>
      </trkpt>
      <trkpt lat="61.88511" lon="10.88028">
        <ele>464</ele>
        <time>2019-06-16T08:12:51Z</time>
      </trkpt>
      <trkpt lat="61.88491" lon="10.87831">
        <ele>464.39999389648</ele>
        <time>2019-06-16T08:13:04Z</time>
      </trkpt>
      <trkpt lat="61.8848" lon="10.87726">
        <ele>464.39999389648</ele>
        <time>2019-06-16T08:13:10Z</time>
      </trkpt>
      <trkpt lat="61.88484" lon="10.87641">
        <ele>464</ele>
        <time>2019-06-16T08:13:38Z</time>
      </trkpt>
      <trkpt lat="61.88492" lon="10.8762">
        <ele>464</ele>
        <time>2019-06-16T08:13:43Z</time>
      </trkpt>
      <trkpt lat="61.88508" lon="10.87575">
        <ele>463.79998779297</ele>
        <time>2019-06-16T08:14:28Z</time>
      </trkpt>
      <trkpt lat="61.88553" lon="10.87455">
        <ele>464.39999389648</ele>
        <time>2019-06-16T08:14:43Z</time>
      </trkpt>
      <trkpt lat="61.88568" lon="10.87425">
        <ele>465</ele>
        <time>2019-06-16T08:14:50Z</time>
      </trkpt>
      <trkpt lat="61.88635" lon="10.8731">
        <ele>466</ele>
        <time>2019-06-16T08:15:03Z</time>
      </trkpt>
      <trkpt lat="61.88693" lon="10.87222">
        <ele>464.60000610352</ele>
        <time>2019-06-16T08:15:22Z</time>
      </trkpt>
      <trkpt lat="61.88804" lon="10.87102">
        <ele>463.39999389648</ele>
        <time>2019-06-16T08:15:39Z</time>
      </trkpt>
      <trkpt lat="61.8885" lon="10.87025">
        <ele>464.20001220703</ele>
        <time>2019-06-16T08:15:52Z</time>
      </trkpt>
      <trkpt lat="61.88884" lon="10.86961">
        <ele>464.20001220703</ele>
        <time>2019-06-16T08:16:01Z</time>
      </trkpt>
      <trkpt lat="61.88915" lon="10.86893">
        <ele>465</ele>
        <time>2019-06-16T08:16:22Z</time>
      </trkpt>
      <trkpt lat="61.88952" lon="10.8682">
        <ele>466.79998779297</ele>
        <time>2019-06-16T08:16:31Z</time>
      </trkpt>
      <trkpt lat="61.88975" lon="10.86777">
        <ele>467.20001220703</ele>
        <time>2019-06-16T08:16:50Z</time>
      </trkpt>
      <trkpt lat="61.89027" lon="10.86672">
        <ele>467</ele>
        <time>2019-06-16T08:17:19Z</time>
      </trkpt>
      <trkpt lat="61.89118" lon="10.86495">
        <ele>464.39999389648</ele>
        <time>2019-06-16T08:17:33Z</time>
      </trkpt>
      <trkpt lat="61.89163" lon="10.86419">
        <ele>464.20001220703</ele>
        <time>2019-06-16T08:17:50Z</time>
      </trkpt>
      <trkpt lat="61.89285" lon="10.86289">
        <ele>464.20001220703</ele>
        <time>2019-06-16T08:18:07Z</time>
      </trkpt>
      <trkpt lat="61.89318" lon="10.86258">
        <ele>465.79998779297</ele>
        <time>2019-06-16T08:18:18Z</time>
      </trkpt>
      <trkpt lat="61.89367" lon="10.86212">
        <ele>465.79998779297</ele>
        <time>2019-06-16T08:18:28Z</time>
      </trkpt>
      <trkpt lat="61.8947" lon="10.8612">
        <ele>465.39999389648</ele>
        <time>2019-06-16T08:18:48Z</time>
      </trkpt>
      <trkpt lat="61.89516" lon="10.86101">
        <ele>465.20001220703</ele>
        <time>2019-06-16T08:19:01Z</time>
      </trkpt>
      <trkpt lat="61.89553" lon="10.86105">
        <ele>467.60000610352</ele>
        <time>2019-06-16T08:19:33Z</time>
      </trkpt>
      <trkpt lat="61.8959" lon="10.86083">
        <ele>469.39999389648</ele>
        <time>2019-06-16T08:19:45Z</time>
      </trkpt>
      <trkpt lat="61.89613" lon="10.86049">
        <ele>470.20001220703</ele>
        <time>2019-06-16T08:19:57Z</time>
      </trkpt>
      <trkpt lat="61.89655" lon="10.85923">
        <ele>472</ele>
        <time>2019-06-16T08:20:17Z</time>
      </trkpt>
      <trkpt lat="61.89684" lon="10.85875">
        <ele>473.20001220703</ele>
        <time>2019-06-16T08:20:27Z</time>
      </trkpt>
      <trkpt lat="61.89724" lon="10.85813">
        <ele>477.79998779297</ele>
        <time>2019-06-16T08:20:33Z</time>
      </trkpt>
      <trkpt lat="61.89758" lon="10.85765">
        <ele>478.79998779297</ele>
        <time>2019-06-16T08:20:47Z</time>
      </trkpt>
      <trkpt lat="61.89789" lon="10.85732">
        <ele>479</ele>
        <time>2019-06-16T08:21:06Z</time>
      </trkpt>
      <trkpt lat="61.89817" lon="10.85711">
        <ele>479</ele>
        <time>2019-06-16T08:21:26Z</time>
      </trkpt>
      <trkpt lat="61.89845" lon="10.85695">
        <ele>480</ele>
        <time>2019-06-16T08:21:38Z</time>
      </trkpt>
      <trkpt lat="61.89938" lon="10.85664">
        <ele>484.20001220703</ele>
        <time>2019-06-16T08:21:47Z</time>
      </trkpt>
      <trkpt lat="61.90015" lon="10.85691">
        <ele>489.79998779297</ele>
        <time>2019-06-16T08:22:17Z</time>
      </trkpt>
      <trkpt lat="61.90037" lon="10.85691">
        <ele>490</ele>
        <time>2019-06-16T08:22:40Z</time>
      </trkpt>
      <trkpt lat="61.90105" lon="10.85693">
        <ele>488.79998779297</ele>
        <time>2019-06-16T08:22:44Z</time>
      </trkpt>
      <trkpt lat="61.90197" lon="10.85699">
        <ele>485.60000610352</ele>
        <time>2019-06-16T08:22:52Z</time>
      </trkpt>
      <trkpt lat="61.9024" lon="10.85697">
        <ele>485.20001220703</ele>
        <time>2019-06-16T08:23:15Z</time>
      </trkpt>
      <trkpt lat="61.9026" lon="10.85699">
        <ele>485.20001220703</ele>
        <time>2019-06-16T08:23:30Z</time>
      </trkpt>
      <trkpt lat="61.90282" lon="10.85717">
        <ele>485</ele>
        <time>2019-06-16T08:23:54Z</time>
      </trkpt>
      <trkpt lat="61.90302" lon="10.8576">
        <ele>483.60000610352</ele>
        <time>2019-06-16T08:24:07Z</time>
      </trkpt>
      <trkpt lat="61.90327" lon="10.8585">
        <ele>487.39999389648</ele>
        <time>2019-06-16T08:24:27Z</time>
      </trkpt>
      <trkpt lat="61.90362" lon="10.85879">
        <ele>489.20001220703</ele>
        <time>2019-06-16T08:24:42Z</time>
      </trkpt>
      <trkpt lat="61.90379" lon="10.85883">
        <ele>489.60000610352</ele>
        <time>2019-06-16T08:25:06Z</time>
      </trkpt>
      <trkpt lat="61.90416" lon="10.85892">
        <ele>489.39999389648</ele>
        <time>2019-06-16T08:25:16Z</time>
      </trkpt>
      <trkpt lat="61.90519" lon="10.85922">
        <ele>494.20001220703</ele>
        <time>2019-06-16T08:25:34Z</time>
      </trkpt>
      <trkpt lat="61.9058" lon="10.85931">
        <ele>494</ele>
        <time>2019-06-16T08:25:47Z</time>
      </trkpt>
      <trkpt lat="61.90616" lon="10.8596">
        <ele>493</ele>
        <time>2019-06-16T08:25:51Z</time>
      </trkpt>
      <trkpt lat="61.90653" lon="10.85996">
        <ele>490.60000610352</ele>
        <time>2019-06-16T08:26:09Z</time>
      </trkpt>
      <trkpt lat="61.9068" lon="10.85998">
        <ele>491.20001220703</ele>
        <time>2019-06-16T08:26:42Z</time>
      </trkpt>
      <trkpt lat="61.90736" lon="10.85959">
        <ele>495</ele>
        <time>2019-06-16T08:26:52Z</time>
      </trkpt>
      <trkpt lat="61.90792" lon="10.85951">
        <ele>499.79998779297</ele>
        <time>2019-06-16T08:27:20Z</time>
      </trkpt>
      <trkpt lat="61.90859" lon="10.85932">
        <ele>499.20001220703</ele>
        <time>2019-06-16T08:27:36Z</time>
      </trkpt>
      <trkpt lat="61.90887" lon="10.85919">
        <ele>497.60000610352</ele>
        <time>2019-06-16T08:27:50Z</time>
      </trkpt>
      <trkpt lat="61.90918" lon="10.85905">
        <ele>497.60000610352</ele>
        <time>2019-06-16T08:28:14Z</time>
      </trkpt>
      <trkpt lat="61.90949" lon="10.85907">
        <ele>499.60000610352</ele>
        <time>2019-06-16T08:28:32Z</time>
      </trkpt>
      <trkpt lat="61.91057" lon="10.85999">
        <ele>507.20001220703</ele>
        <time>2019-06-16T08:28:49Z</time>
      </trkpt>
      <trkpt lat="61.91114" lon="10.86014">
        <ele>507.60000610352</ele>
        <time>2019-06-16T08:29:02Z</time>
      </trkpt>
      <trkpt lat="61.91147" lon="10.8601">
        <ele>508.39999389648</ele>
        <time>2019-06-16T08:29:21Z</time>
      </trkpt>
      <trkpt lat="61.91181" lon="10.8601">
        <ele>508</ele>
        <time>2019-06-16T08:29:30Z</time>
      </trkpt>
      <trkpt lat="61.91286" lon="10.86023">
        <ele>512.40002441406</ele>
        <time>2019-06-16T08:29:51Z</time>
      </trkpt>
      <trkpt lat="61.91326" lon="10.86052">
        <ele>515.79998779297</ele>
        <time>2019-06-16T08:30:11Z</time>
      </trkpt>
      <trkpt lat="61.91441" lon="10.86196">
        <ele>523.40002441406</ele>
        <time>2019-06-16T08:30:41Z</time>
      </trkpt>
      <trkpt lat="61.91454" lon="10.86209">
        <ele>525.40002441406</ele>
        <time>2019-06-16T08:31:00Z</time>
      </trkpt>
      <trkpt lat="61.91473" lon="10.86231">
        <ele>525.59997558594</ele>
        <time>2019-06-16T08:31:19Z</time>
      </trkpt>
      <trkpt lat="61.91568" lon="10.86209">
        <ele>523.59997558594</ele>
        <time>2019-06-16T08:31:50Z</time>
      </trkpt>
      <trkpt lat="61.91656" lon="10.86229">
        <ele>529.20001220703</ele>
        <time>2019-06-16T08:31:58Z</time>
      </trkpt>
      <trkpt lat="61.91726" lon="10.86259">
        <ele>532.40002441406</ele>
        <time>2019-06-16T08:32:16Z</time>
      </trkpt>
      <trkpt lat="61.91829" lon="10.86335">
        <ele>534.59997558594</ele>
        <time>2019-06-16T08:32:36Z</time>
      </trkpt>
      <trkpt lat="61.91855" lon="10.86355">
        <ele>534.79998779297</ele>
        <time>2019-06-16T08:32:57Z</time>
      </trkpt>
      <trkpt lat="61.91941" lon="10.8642">
        <ele>535</ele>
        <time>2019-06-16T08:33:25Z</time>
      </trkpt>
      <trkpt lat="61.92056" lon="10.86506">
        <ele>533.79998779297</ele>
        <time>2019-06-16T08:33:35Z</time>
      </trkpt>
      <trkpt lat="61.92101" lon="10.86541">
        <ele>533.59997558594</ele>
        <time>2019-06-16T08:33:41Z</time>
      </trkpt>
      <trkpt lat="61.92135" lon="10.8657">
        <ele>534.59997558594</ele>
        <time>2019-06-16T08:33:58Z</time>
      </trkpt>
      <trkpt lat="61.92248" lon="10.86675">
        <ele>535.40002441406</ele>
        <time>2019-06-16T08:34:04Z</time>
      </trkpt>
      <trkpt lat="61.92311" lon="10.86763">
        <ele>535</ele>
        <time>2019-06-16T08:34:16Z</time>
      </trkpt>
      <trkpt lat="61.92345" lon="10.86843">
        <ele>533.79998779297</ele>
        <time>2019-06-16T08:34:23Z</time>
      </trkpt>
      <trkpt lat="61.92418" lon="10.86984">
        <ele>529.79998779297</ele>
        <time>2019-06-16T08:34:31Z</time>
      </trkpt>
      <trkpt lat="61.92435" lon="10.87008">
        <ele>528.20001220703</ele>
        <time>2019-06-16T08:34:50Z</time>
      </trkpt>
      <trkpt lat="61.92491" lon="10.87086">
        <ele>526.40002441406</ele>
        <time>2019-06-16T08:34:59Z</time>
      </trkpt>
      <trkpt lat="61.92516" lon="10.87125">
        <ele>524.20001220703</ele>
        <time>2019-06-16T08:35:09Z</time>
      </trkpt>
      <trkpt lat="61.92554" lon="10.87185">
        <ele>523.79998779297</ele>
        <time>2019-06-16T08:35:23Z</time>
      </trkpt>
      <trkpt lat="61.92615" lon="10.87275">
        <ele>522.59997558594</ele>
        <time>2019-06-16T08:35:36Z</time>
      </trkpt>
      <trkpt lat="61.92655" lon="10.87351">
        <ele>519.79998779297</ele>
        <time>2019-06-16T08:35:52Z</time>
      </trkpt>
      <trkpt lat="61.9274" lon="10.87494">
        <ele>516.20001220703</ele>
        <time>2019-06-16T08:36:01Z</time>
      </trkpt>
      <trkpt lat="61.92795" lon="10.87563">
        <ele>513</ele>
        <time>2019-06-16T08:36:14Z</time>
      </trkpt>
      <trkpt lat="61.92908" lon="10.87685">
        <ele>511</ele>
        <time>2019-06-16T08:36:30Z</time>
      </trkpt>
      <trkpt lat="61.92946" lon="10.87703">
        <ele>511</ele>
        <time>2019-06-16T08:36:45Z</time>
      </trkpt>
      <trkpt lat="61.9298" lon="10.87721">
        <ele>510.79998779297</ele>
        <time>2019-06-16T08:37:01Z</time>
      </trkpt>
      <trkpt lat="61.93031" lon="10.87762">
        <ele>510.79998779297</ele>
        <time>2019-06-16T08:37:17Z</time>
      </trkpt>
      <trkpt lat="61.93086" lon="10.8782">
        <ele>509.60000610352</ele>
        <time>2019-06-16T08:37:27Z</time>
      </trkpt>
      <trkpt lat="61.93138" lon="10.87901">
        <ele>509.20001220703</ele>
        <time>2019-06-16T08:37:41Z</time>
      </trkpt>
      <trkpt lat="61.93143" lon="10.87923">
        <ele>509.39999389648</ele>
        <time>2019-06-16T08:37:55Z</time>
      </trkpt>
      <trkpt lat="61.93181" lon="10.88019">
        <ele>509.20001220703</ele>
        <time>2019-06-16T08:38:04Z</time>
      </trkpt>
      <trkpt lat="61.93214" lon="10.881">
        <ele>509.39999389648</ele>
        <time>2019-06-16T08:38:21Z</time>
      </trkpt>
      <trkpt lat="61.93231" lon="10.88151">
        <ele>510.60000610352</ele>
        <time>2019-06-16T08:38:27Z</time>
      </trkpt>
      <trkpt lat="61.93258" lon="10.88226">
        <ele>513.59997558594</ele>
        <time>2019-06-16T08:38:37Z</time>
      </trkpt>
      <trkpt lat="61.93286" lon="10.88327">
        <ele>515.59997558594</ele>
        <time>2019-06-16T08:38:43Z</time>
      </trkpt>
      <trkpt lat="61.933" lon="10.88377">
        <ele>516.20001220703</ele>
        <time>2019-06-16T08:38:50Z</time>
      </trkpt>
      <trkpt lat="61.93343" lon="10.88528">
        <ele>516</ele>
        <time>2019-06-16T08:38:57Z</time>
      </trkpt>
      <trkpt lat="61.9338" lon="10.88625">
        <ele>515.59997558594</ele>
        <time>2019-06-16T08:39:02Z</time>
      </trkpt>
      <trkpt lat="61.93415" lon="10.88689">
        <ele>515.59997558594</ele>
        <time>2019-06-16T08:39:05Z</time>
      </trkpt>
      <trkpt lat="61.93535" lon="10.88798">
        <ele>515</ele>
        <time>2019-06-16T08:39:09Z</time>
      </trkpt>
      <trkpt lat="61.93622" lon="10.88874">
        <ele>515.59997558594</ele>
        <time>2019-06-16T08:39:11Z</time>
      </trkpt>
      <trkpt lat="61.93662" lon="10.88928">
        <ele>514.59997558594</ele>
        <time>2019-06-16T08:39:16Z</time>
      </trkpt>
      <trkpt lat="61.93745" lon="10.88987">
        <ele>512</ele>
        <time>2019-06-16T08:39:41Z</time>
      </trkpt>
      <trkpt lat="61.93833" lon="10.8895">
        <ele>509</ele>
        <time>2019-06-16T08:39:46Z</time>
      </trkpt>
      <trkpt lat="61.93857" lon="10.8892">
        <ele>508.60000610352</ele>
        <time>2019-06-16T08:40:04Z</time>
      </trkpt>
      <trkpt lat="61.93903" lon="10.88851">
        <ele>508.20001220703</ele>
        <time>2019-06-16T08:40:13Z</time>
      </trkpt>
      <trkpt lat="61.93958" lon="10.88776">
        <ele>508.39999389648</ele>
        <time>2019-06-16T08:40:25Z</time>
      </trkpt>
      <trkpt lat="61.94017" lon="10.88744">
        <ele>507.39999389648</ele>
        <time>2019-06-16T08:40:36Z</time>
      </trkpt>
      <trkpt lat="61.94065" lon="10.88747">
        <ele>507.79998779297</ele>
        <time>2019-06-16T08:42:07Z</time>
      </trkpt>
      <trkpt lat="61.94165" lon="10.88776">
        <ele>505.20001220703</ele>
        <time>2019-06-16T08:42:32Z</time>
      </trkpt>
      <trkpt lat="61.94268" lon="10.88805">
        <ele>503.39999389648</ele>
        <time>2019-06-16T08:42:43Z</time>
      </trkpt>
      <trkpt lat="61.9434" lon="10.88785">
        <ele>502</ele>
        <time>2019-06-16T08:42:48Z</time>
      </trkpt>
      <trkpt lat="61.94393" lon="10.88765">
        <ele>502.39999389648</ele>
        <time>2019-06-16T08:43:00Z</time>
      </trkpt>
      <trkpt lat="61.94446" lon="10.88742">
        <ele>503.60000610352</ele>
        <time>2019-06-16T08:43:03Z</time>
      </trkpt>
      <trkpt lat="61.94481" lon="10.88729">
        <ele>503.60000610352</ele>
        <time>2019-06-16T08:43:05Z</time>
      </trkpt>
      <trkpt lat="61.9457" lon="10.88695">
        <ele>503.39999389648</ele>
        <time>2019-06-16T08:43:17Z</time>
      </trkpt>
      <trkpt lat="61.94605" lon="10.88682">
        <ele>503.60000610352</ele>
        <time>2019-06-16T08:43:27Z</time>
      </trkpt>
      <trkpt lat="61.94641" lon="10.8866">
        <ele>504.39999389648</ele>
        <time>2019-06-16T08:43:44Z</time>
      </trkpt>
      <trkpt lat="61.9473" lon="10.88595">
        <ele>504.20001220703</ele>
        <time>2019-06-16T08:43:54Z</time>
      </trkpt>
      <trkpt lat="61.94773" lon="10.8856">
        <ele>505</ele>
        <time>2019-06-16T08:44:02Z</time>
      </trkpt>
      <trkpt lat="61.94824" lon="10.88519">
        <ele>505</ele>
        <time>2019-06-16T08:44:40Z</time>
      </trkpt>
      <trkpt lat="61.94918" lon="10.8844">
        <ele>505.60000610352</ele>
        <time>2019-06-16T08:44:46Z</time>
      </trkpt>
      <trkpt lat="61.94953" lon="10.88408">
        <ele>505.60000610352</ele>
        <time>2019-06-16T08:44:59Z</time>
      </trkpt>
      <trkpt lat="61.95038" lon="10.88342">
        <ele>506.60000610352</ele>
        <time>2019-06-16T08:45:13Z</time>
      </trkpt>
      <trkpt lat="61.95125" lon="10.88297">
        <ele>508</ele>
        <time>2019-06-16T08:45:20Z</time>
      </trkpt>
      <trkpt lat="61.95161" lon="10.8828">
        <ele>508</ele>
        <time>2019-06-16T08:45:30Z</time>
      </trkpt>
      <trkpt lat="61.95187" lon="10.88265">
        <ele>508.39999389648</ele>
        <time>2019-06-16T08:46:57Z</time>
      </trkpt>
      <trkpt lat="61.95224" lon="10.88247">
        <ele>508.60000610352</ele>
        <time>2019-06-16T08:47:04Z</time>
      </trkpt>
      <trkpt lat="61.953" lon="10.88218">
        <ele>511.39999389648</ele>
        <time>2019-06-16T08:47:14Z</time>
      </trkpt>
      <trkpt lat="61.95376" lon="10.88178">
        <ele>510</ele>
        <time>2019-06-16T08:47:18Z</time>
      </trkpt>
      <trkpt lat="61.95389" lon="10.8817">
        <ele>509.20001220703</ele>
        <time>2019-06-16T08:49:56Z</time>
      </trkpt>
      <trkpt lat="61.95431" lon="10.88152">
        <ele>509.20001220703</ele>
        <time>2019-06-16T08:50:07Z</time>
      </trkpt>
      <trkpt lat="61.95509" lon="10.88128">
        <ele>509.60000610352</ele>
        <time>2019-06-16T08:50:09Z</time>
      </trkpt>
      <trkpt lat="61.95546" lon="10.88127">
        <ele>510.20001220703</ele>
        <time>2019-06-16T08:50:15Z</time>
      </trkpt>
      <trkpt lat="61.95625" lon="10.8812">
        <ele>509.39999389648</ele>
        <time>2019-06-16T08:50:23Z</time>
      </trkpt>
      <trkpt lat="61.9568" lon="10.88112">
        <ele>508</ele>
        <time>2019-06-16T08:50:36Z</time>
      </trkpt>
      <trkpt lat="61.9577" lon="10.88129">
        <ele>512.40002441406</ele>
        <time>2019-06-16T08:50:55Z</time>
      </trkpt>
      <trkpt lat="61.95816" lon="10.88128">
        <ele>511.79998779297</ele>
        <time>2019-06-16T08:51:11Z</time>
      </trkpt>
      <trkpt lat="61.95901" lon="10.88127">
        <ele>507</ele>
        <time>2019-06-16T08:51:25Z</time>
      </trkpt>
      <trkpt lat="61.95938" lon="10.88125">
        <ele>506.79998779297</ele>
        <time>2019-06-16T08:51:41Z</time>
      </trkpt>
      <trkpt lat="61.96041" lon="10.88132">
        <ele>507</ele>
        <time>2019-06-16T08:51:51Z</time>
      </trkpt>
      <trkpt lat="61.96119" lon="10.88149">
        <ele>506</ele>
        <time>2019-06-16T08:52:00Z</time>
      </trkpt>
      <trkpt lat="61.96193" lon="10.88177">
        <ele>505.39999389648</ele>
        <time>2019-06-16T08:52:10Z</time>
      </trkpt>
      <trkpt lat="61.96222" lon="10.88187">
        <ele>504.39999389648</ele>
        <time>2019-06-16T08:52:23Z</time>
      </trkpt>
      <trkpt lat="61.96299" lon="10.88224">
        <ele>503</ele>
        <time>2019-06-16T08:52:39Z</time>
      </trkpt>
      <trkpt lat="61.96368" lon="10.88315">
        <ele>502.79998779297</ele>
        <time>2019-06-16T08:52:44Z</time>
      </trkpt>
      <trkpt lat="61.96395" lon="10.88355">
        <ele>502.20001220703</ele>
        <time>2019-06-16T08:52:56Z</time>
      </trkpt>
      <trkpt lat="61.96441" lon="10.88414">
        <ele>499.79998779297</ele>
        <time>2019-06-16T08:53:12Z</time>
      </trkpt>
      <trkpt lat="61.96479" lon="10.88435">
        <ele>502.60000610352</ele>
        <time>2019-06-16T08:53:27Z</time>
      </trkpt>
      <trkpt lat="61.96554" lon="10.88459">
        <ele>505.39999389648</ele>
        <time>2019-06-16T08:53:49Z</time>
      </trkpt>
      <trkpt lat="61.96639" lon="10.88478">
        <ele>507.60000610352</ele>
        <time>2019-06-16T08:54:05Z</time>
      </trkpt>
      <trkpt lat="61.96669" lon="10.88503">
        <ele>508</ele>
        <time>2019-06-16T08:54:21Z</time>
      </trkpt>
      <trkpt lat="61.96714" lon="10.88554">
        <ele>510.39999389648</ele>
        <time>2019-06-16T08:54:35Z</time>
      </trkpt>
      <trkpt lat="61.96748" lon="10.88598">
        <ele>511.39999389648</ele>
        <time>2019-06-16T08:54:44Z</time>
      </trkpt>
      <trkpt lat="61.96788" lon="10.88653">
        <ele>511.39999389648</ele>
        <time>2019-06-16T08:54:50Z</time>
      </trkpt>
      <trkpt lat="61.96803" lon="10.88675">
        <ele>512.20001220703</ele>
        <time>2019-06-16T08:54:52Z</time>
      </trkpt>
      <trkpt lat="61.96876" lon="10.88784">
        <ele>513.79998779297</ele>
        <time>2019-06-16T08:54:57Z</time>
      </trkpt>
      <trkpt lat="61.96906" lon="10.88821">
        <ele>514.59997558594</ele>
        <time>2019-06-16T09:06:27Z</time>
      </trkpt>
      <trkpt lat="61.96939" lon="10.88863">
        <ele>516.59997558594</ele>
        <time>2019-06-16T09:06:40Z</time>
      </trkpt>
      <trkpt lat="61.96965" lon="10.88896">
        <ele>517.20001220703</ele>
        <time>2019-06-16T09:06:48Z</time>
      </trkpt>
      <trkpt lat="61.97017" lon="10.8894">
        <ele>516</ele>
        <time>2019-06-16T09:07:21Z</time>
      </trkpt>
      <trkpt lat="61.9708" lon="10.88959">
        <ele>513</ele>
        <time>2019-06-16T09:07:35Z</time>
      </trkpt>
      <trkpt lat="61.97148" lon="10.88927">
        <ele>513.59997558594</ele>
        <time>2019-06-16T09:07:47Z</time>
      </trkpt>
      <trkpt lat="61.97199" lon="10.88908">
        <ele>513.79998779297</ele>
        <time>2019-06-16T09:08:07Z</time>
      </trkpt>
      <trkpt lat="61.97303" lon="10.88869">
        <ele>515</ele>
        <time>2019-06-16T09:08:10Z</time>
      </trkpt>
      <trkpt lat="61.97317" lon="10.88867">
        <ele>514.59997558594</ele>
        <time>2019-06-16T09:08:25Z</time>
      </trkpt>
      <trkpt lat="61.97338" lon="10.88864">
        <ele>515</ele>
        <time>2019-06-16T09:08:40Z</time>
      </trkpt>
      <trkpt lat="61.97424" lon="10.88849">
        <ele>515.59997558594</ele>
        <time>2019-06-16T09:08:49Z</time>
      </trkpt>
      <trkpt lat="61.97463" lon="10.88846">
        <ele>515.59997558594</ele>
        <time>2019-06-16T09:08:58Z</time>
      </trkpt>
      <trkpt lat="61.97498" lon="10.88836">
        <ele>515.20001220703</ele>
        <time>2019-06-16T09:09:03Z</time>
      </trkpt>
      <trkpt lat="61.97523" lon="10.88825">
        <ele>515.20001220703</ele>
        <time>2019-06-16T09:09:12Z</time>
      </trkpt>
      <trkpt lat="61.97597" lon="10.88776">
        <ele>515</ele>
        <time>2019-06-16T09:09:17Z</time>
      </trkpt>
      <trkpt lat="61.97631" lon="10.88742">
        <ele>514.79998779297</ele>
        <time>2019-06-16T09:09:19Z</time>
      </trkpt>
      <trkpt lat="61.9769" lon="10.8869">
        <ele>514.79998779297</ele>
        <time>2019-06-16T09:09:25Z</time>
      </trkpt>
      <trkpt lat="61.97759" lon="10.88615">
        <ele>515</ele>
        <time>2019-06-16T09:09:27Z</time>
      </trkpt>
      <trkpt lat="61.97804" lon="10.88559">
        <ele>514.79998779297</ele>
        <time>2019-06-16T09:09:30Z</time>
      </trkpt>
      <trkpt lat="61.97903" lon="10.88494">
        <ele>515.40002441406</ele>
        <time>2019-06-16T09:09:37Z</time>
      </trkpt>
      <trkpt lat="61.9797" lon="10.8847">
        <ele>516</ele>
        <time>2019-06-16T09:09:45Z</time>
      </trkpt>
      <trkpt lat="61.98045" lon="10.88439">
        <ele>515.59997558594</ele>
        <time>2019-06-16T09:09:58Z</time>
      </trkpt>
      <trkpt lat="61.98103" lon="10.8842">
        <ele>516.20001220703</ele>
        <time>2019-06-16T09:10:06Z</time>
      </trkpt>
      <trkpt lat="61.98198" lon="10.88351">
        <ele>516.20001220703</ele>
        <time>2019-06-16T09:10:13Z</time>
      </trkpt>
      <trkpt lat="61.98342" lon="10.88263">
        <ele>517.40002441406</ele>
        <time>2019-06-16T09:10:29Z</time>
      </trkpt>
      <trkpt lat="61.98458" lon="10.88239">
        <ele>518.40002441406</ele>
        <time>2019-06-16T09:10:38Z</time>
      </trkpt>
      <trkpt lat="61.98503" lon="10.88214">
        <ele>519.59997558594</ele>
        <time>2019-06-16T09:10:54Z</time>
      </trkpt>
      <trkpt lat="61.98554" lon="10.8817">
        <ele>520</ele>
        <time>2019-06-16T09:11:05Z</time>
      </trkpt>
      <trkpt lat="61.98657" lon="10.88064">
        <ele>520</ele>
        <time>2019-06-16T09:11:19Z</time>
      </trkpt>
      <trkpt lat="61.98707" lon="10.88012">
        <ele>519.79998779297</ele>
        <time>2019-06-16T09:11:37Z</time>
      </trkpt>
      <trkpt lat="61.98824" lon="10.8789">
        <ele>519.79998779297</ele>
        <time>2019-06-16T09:11:45Z</time>
      </trkpt>
      <trkpt lat="61.98884" lon="10.87826">
        <ele>519.59997558594</ele>
        <time>2019-06-16T09:12:02Z</time>
      </trkpt>
      <trkpt lat="61.98905" lon="10.87792">
        <ele>519.40002441406</ele>
        <time>2019-06-16T09:13:42Z</time>
      </trkpt>
      <trkpt lat="61.98937" lon="10.8772">
        <ele>519.79998779297</ele>
        <time>2019-06-16T09:13:57Z</time>
      </trkpt>
      <trkpt lat="61.98959" lon="10.87625">
        <ele>519.79998779297</ele>
        <time>2019-06-16T09:14:12Z</time>
      </trkpt>
      <trkpt lat="61.98965" lon="10.87579">
        <ele>519.40002441406</ele>
        <time>2019-06-16T09:14:24Z</time>
      </trkpt>
      <trkpt lat="61.98967" lon="10.87567">
        <ele>519.59997558594</ele>
        <time>2019-06-16T09:14:30Z</time>
      </trkpt>
      <trkpt lat="61.98968" lon="10.87502">
        <ele>519.59997558594</ele>
        <time>2019-06-16T09:14:37Z</time>
      </trkpt>
      <trkpt lat="61.98966" lon="10.87377">
        <ele>520.79998779297</ele>
        <time>2019-06-16T09:14:46Z</time>
      </trkpt>
      <trkpt lat="61.9897" lon="10.87272">
        <ele>520.79998779297</ele>
        <time>2019-06-16T09:15:53Z</time>
      </trkpt>
      <trkpt lat="61.98982" lon="10.87181">
        <ele>521.79998779297</ele>
        <time>2019-06-16T09:16:05Z</time>
      </trkpt>
      <trkpt lat="61.99006" lon="10.87098">
        <ele>523.59997558594</ele>
        <time>2019-06-16T09:16:15Z</time>
      </trkpt>
      <trkpt lat="61.99027" lon="10.87044">
        <ele>524.40002441406</ele>
        <time>2019-06-16T09:16:25Z</time>
      </trkpt>
      <trkpt lat="61.99043" lon="10.87015">
        <ele>524.40002441406</ele>
        <time>2019-06-16T09:16:28Z</time>
      </trkpt>
      <trkpt lat="61.99153" lon="10.86867">
        <ele>528.20001220703</ele>
        <time>2019-06-16T09:16:37Z</time>
      </trkpt>
      <trkpt lat="61.99191" lon="10.86804">
        <ele>532.59997558594</ele>
        <time>2019-06-16T09:16:59Z</time>
      </trkpt>
      <trkpt lat="61.99194" lon="10.868">
        <ele>532.40002441406</ele>
        <time>2019-06-16T09:17:06Z</time>
      </trkpt>
      <trkpt lat="61.99213" lon="10.86754">
        <ele>532.20001220703</ele>
        <time>2019-06-16T09:17:21Z</time>
      </trkpt>
      <trkpt lat="61.9923" lon="10.86703">
        <ele>531.79998779297</ele>
        <time>2019-06-16T09:17:43Z</time>
      </trkpt>
      <trkpt lat="61.99251" lon="10.86635">
        <ele>532</ele>
        <time>2019-06-16T09:17:55Z</time>
      </trkpt>
      <trkpt lat="61.99273" lon="10.86526">
        <ele>532.20001220703</ele>
        <time>2019-06-16T09:18:14Z</time>
      </trkpt>
      <trkpt lat="61.99287" lon="10.86428">
        <ele>532</ele>
        <time>2019-06-16T09:18:24Z</time>
      </trkpt>
      <trkpt lat="61.99298" lon="10.86253">
        <ele>536.20001220703</ele>
        <time>2019-06-16T09:18:30Z</time>
      </trkpt>
      <trkpt lat="61.99299" lon="10.86177">
        <ele>539.79998779297</ele>
        <time>2019-06-16T09:18:45Z</time>
      </trkpt>
      <trkpt lat="61.99303" lon="10.86084">
        <ele>541.40002441406</ele>
        <time>2019-06-16T09:18:56Z</time>
      </trkpt>
      <trkpt lat="61.99306" lon="10.86049">
        <ele>541.40002441406</ele>
        <time>2019-06-16T09:19:05Z</time>
      </trkpt>
      <trkpt lat="61.99313" lon="10.85945">
        <ele>541</ele>
        <time>2019-06-16T09:19:22Z</time>
      </trkpt>
      <trkpt lat="61.99359" lon="10.85771">
        <ele>539.20001220703</ele>
        <time>2019-06-16T09:19:36Z</time>
      </trkpt>
      <trkpt lat="61.99404" lon="10.8567">
        <ele>538</ele>
        <time>2019-06-16T09:19:47Z</time>
      </trkpt>
      <trkpt lat="61.99438" lon="10.85589">
        <ele>536.40002441406</ele>
        <time>2019-06-16T09:19:52Z</time>
      </trkpt>
      <trkpt lat="61.99488" lon="10.85484">
        <ele>535.20001220703</ele>
        <time>2019-06-16T09:19:56Z</time>
      </trkpt>
      <trkpt lat="61.99566" lon="10.85314">
        <ele>529.59997558594</ele>
        <time>2019-06-16T09:21:17Z</time>
      </trkpt>
      <trkpt lat="61.99617" lon="10.85191">
        <ele>526.79998779297</ele>
        <time>2019-06-16T09:21:29Z</time>
      </trkpt>
      <trkpt lat="61.99644" lon="10.85114">
        <ele>526</ele>
        <time>2019-06-16T09:21:43Z</time>
      </trkpt>
      <trkpt lat="61.99681" lon="10.84925">
        <ele>530</ele>
        <time>2019-06-16T09:21:58Z</time>
      </trkpt>
      <trkpt lat="61.99694" lon="10.84828">
        <ele>530.40002441406</ele>
        <time>2019-06-16T09:22:05Z</time>
      </trkpt>
      <trkpt lat="61.99708" lon="10.84736">
        <ele>532.79998779297</ele>
        <time>2019-06-16T09:22:18Z</time>
      </trkpt>
      <trkpt lat="61.99728" lon="10.84591">
        <ele>534.59997558594</ele>
        <time>2019-06-16T09:22:25Z</time>
      </trkpt>
      <trkpt lat="61.99744" lon="10.84492">
        <ele>536.40002441406</ele>
        <time>2019-06-16T09:22:31Z</time>
      </trkpt>
      <trkpt lat="61.99755" lon="10.84437">
        <ele>536.59997558594</ele>
        <time>2019-06-16T09:22:43Z</time>
      </trkpt>
      <trkpt lat="61.99776" lon="10.8434">
        <ele>539</ele>
        <time>2019-06-16T09:22:53Z</time>
      </trkpt>
      <trkpt lat="61.99794" lon="10.8425">
        <ele>539.79998779297</ele>
        <time>2019-06-16T09:23:00Z</time>
      </trkpt>
      <trkpt lat="61.99825" lon="10.84107">
        <ele>540</ele>
        <time>2019-06-16T09:23:14Z</time>
      </trkpt>
      <trkpt lat="61.99842" lon="10.8405">
        <ele>541</ele>
        <time>2019-06-16T09:23:25Z</time>
      </trkpt>
      <trkpt lat="61.99895" lon="10.83923">
        <ele>544.40002441406</ele>
        <time>2019-06-16T09:23:37Z</time>
      </trkpt>
      <trkpt lat="61.99937" lon="10.83852">
        <ele>545.59997558594</ele>
        <time>2019-06-16T09:23:45Z</time>
      </trkpt>
      <trkpt lat="61.99972" lon="10.83801">
        <ele>545</ele>
        <time>2019-06-16T09:24:01Z</time>
      </trkpt>
      <trkpt lat="62.00049" lon="10.83714">
        <ele>542.40002441406</ele>
        <time>2019-06-16T09:24:15Z</time>
      </trkpt>
      <trkpt lat="62.00117" lon="10.83677">
        <ele>543.40002441406</ele>
        <time>2019-06-16T09:24:29Z</time>
      </trkpt>
      <trkpt lat="62.00154" lon="10.83661">
        <ele>543.40002441406</ele>
        <time>2019-06-16T09:24:42Z</time>
      </trkpt>
      <trkpt lat="62.00197" lon="10.83668">
        <ele>541.79998779297</ele>
        <time>2019-06-16T09:24:54Z</time>
      </trkpt>
      <trkpt lat="62.00287" lon="10.83707">
        <ele>540.40002441406</ele>
        <time>2019-06-16T09:25:11Z</time>
      </trkpt>
      <trkpt lat="62.0037" lon="10.83747">
        <ele>541.20001220703</ele>
        <time>2019-06-16T09:25:33Z</time>
      </trkpt>
      <trkpt lat="62.00439" lon="10.83768">
        <ele>540.20001220703</ele>
        <time>2019-06-16T09:25:45Z</time>
      </trkpt>
      <trkpt lat="62.00457" lon="10.83772">
        <ele>538.59997558594</ele>
        <time>2019-06-16T09:25:55Z</time>
      </trkpt>
      <trkpt lat="62.00557" lon="10.83808">
        <ele>535.40002441406</ele>
        <time>2019-06-16T09:26:15Z</time>
      </trkpt>
      <trkpt lat="62.00632" lon="10.83802">
        <ele>534.40002441406</ele>
        <time>2019-06-16T09:26:26Z</time>
      </trkpt>
      <trkpt lat="62.0067" lon="10.8379">
        <ele>534.40002441406</ele>
        <time>2019-06-16T09:26:49Z</time>
      </trkpt>
      <trkpt lat="62.00698" lon="10.83784">
        <ele>535</ele>
        <time>2019-06-16T09:27:07Z</time>
      </trkpt>
      <trkpt lat="62.00755" lon="10.83773">
        <ele>534</ele>
        <time>2019-06-16T09:27:23Z</time>
      </trkpt>
      <trkpt lat="62.00845" lon="10.83735">
        <ele>534</ele>
        <time>2019-06-16T09:27:48Z</time>
      </trkpt>
      <trkpt lat="62.00963" lon="10.8375">
        <ele>530.79998779297</ele>
        <time>2019-06-16T09:28:06Z</time>
      </trkpt>
      <trkpt lat="62.00976" lon="10.83755">
        <ele>531.20001220703</ele>
        <time>2019-06-16T09:28:21Z</time>
      </trkpt>
      <trkpt lat="62.01029" lon="10.8373">
        <ele>530.79998779297</ele>
        <time>2019-06-16T09:28:32Z</time>
      </trkpt>
      <trkpt lat="62.0111" lon="10.8364">
        <ele>528.79998779297</ele>
        <time>2019-06-16T09:28:46Z</time>
      </trkpt>
      <trkpt lat="62.01179" lon="10.83557">
        <ele>531.79998779297</ele>
        <time>2019-06-16T09:29:04Z</time>
      </trkpt>
      <trkpt lat="62.01299" lon="10.83422">
        <ele>531.79998779297</ele>
        <time>2019-06-16T09:29:10Z</time>
      </trkpt>
      <trkpt lat="62.01344" lon="10.83377">
        <ele>531.59997558594</ele>
        <time>2019-06-16T09:29:15Z</time>
      </trkpt>
      <trkpt lat="62.01405" lon="10.83328">
        <ele>530.59997558594</ele>
        <time>2019-06-16T09:29:30Z</time>
      </trkpt>
      <trkpt lat="62.01447" lon="10.83284">
        <ele>531.40002441406</ele>
        <time>2019-06-16T09:29:46Z</time>
      </trkpt>
      <trkpt lat="62.01499" lon="10.832">
        <ele>530.79998779297</ele>
        <time>2019-06-16T09:30:04Z</time>
      </trkpt>
      <trkpt lat="62.0156" lon="10.83111">
        <ele>531.20001220703</ele>
        <time>2019-06-16T09:30:33Z</time>
      </trkpt>
      <trkpt lat="62.01607" lon="10.83055">
        <ele>532.59997558594</ele>
        <time>2019-06-16T09:30:52Z</time>
      </trkpt>
      <trkpt lat="62.0164" lon="10.83018">
        <ele>534.79998779297</ele>
        <time>2019-06-16T09:31:14Z</time>
      </trkpt>
      <trkpt lat="62.01686" lon="10.82968">
        <ele>534.79998779297</ele>
        <time>2019-06-16T09:31:20Z</time>
      </trkpt>
      <trkpt lat="62.01788" lon="10.82781">
        <ele>529.59997558594</ele>
        <time>2019-06-16T09:31:37Z</time>
      </trkpt>
      <trkpt lat="62.018" lon="10.82713">
        <ele>529.59997558594</ele>
        <time>2019-06-16T09:31:57Z</time>
      </trkpt>
      <trkpt lat="62.01833" lon="10.82529">
        <ele>530</ele>
        <time>2019-06-16T09:32:08Z</time>
      </trkpt>
      <trkpt lat="62.01862" lon="10.82396">
        <ele>530.40002441406</ele>
        <time>2019-06-16T09:32:23Z</time>
      </trkpt>
      <trkpt lat="62.01887" lon="10.82258">
        <ele>531.79998779297</ele>
        <time>2019-06-16T09:32:44Z</time>
      </trkpt>
      <trkpt lat="62.01931" lon="10.82078">
        <ele>532.20001220703</ele>
        <time>2019-06-16T09:32:55Z</time>
      </trkpt>
      <trkpt lat="62.01934" lon="10.82074">
        <ele>531.79998779297</ele>
        <time>2019-06-16T09:33:18Z</time>
      </trkpt>
      <trkpt lat="62.0193" lon="10.8204">
        <ele>531.59997558594</ele>
        <time>2019-06-16T09:33:26Z</time>
      </trkpt>
      <trkpt lat="62.01943" lon="10.81944">
        <ele>532.20001220703</ele>
        <time>2019-06-16T09:33:43Z</time>
      </trkpt>
      <trkpt lat="62.01952" lon="10.81871">
        <ele>532.20001220703</ele>
        <time>2019-06-16T09:34:02Z</time>
      </trkpt>
      <trkpt lat="62.01972" lon="10.81652">
        <ele>531.40002441406</ele>
        <time>2019-06-16T09:34:17Z</time>
      </trkpt>
      <trkpt lat="62.01981" lon="10.81525">
        <ele>531.79998779297</ele>
        <time>2019-06-16T09:34:33Z</time>
      </trkpt>
      <trkpt lat="62.02006" lon="10.81369">
        <ele>534.79998779297</ele>
        <time>2019-06-16T09:34:48Z</time>
      </trkpt>
      <trkpt lat="62.02016" lon="10.81309">
        <ele>535</ele>
        <time>2019-06-16T09:35:00Z</time>
      </trkpt>
      <trkpt lat="62.02034" lon="10.812">
        <ele>536</ele>
        <time>2019-06-16T09:35:14Z</time>
      </trkpt>
      <trkpt lat="62.0205" lon="10.81124">
        <ele>536.40002441406</ele>
        <time>2019-06-16T09:35:22Z</time>
      </trkpt>
      <trkpt lat="62.0206" lon="10.81074">
        <ele>536</ele>
        <time>2019-06-16T09:35:30Z</time>
      </trkpt>
      <trkpt lat="62.02114" lon="10.80808">
        <ele>532.40002441406</ele>
        <time>2019-06-16T09:35:43Z</time>
      </trkpt>
      <trkpt lat="62.02156" lon="10.8068">
        <ele>531.20001220703</ele>
        <time>2019-06-16T09:35:54Z</time>
      </trkpt>
      <trkpt lat="62.0221" lon="10.80543">
        <ele>531</ele>
        <time>2019-06-16T09:35:59Z</time>
      </trkpt>
      <trkpt lat="62.02234" lon="10.80419">
        <ele>531.20001220703</ele>
        <time>2019-06-16T09:36:04Z</time>
      </trkpt>
      <trkpt lat="62.02246" lon="10.80353">
        <ele>531.20001220703</ele>
        <time>2019-06-16T09:36:18Z</time>
      </trkpt>
      <trkpt lat="62.0228" lon="10.80234">
        <ele>531</ele>
        <time>2019-06-16T09:36:34Z</time>
      </trkpt>
      <trkpt lat="62.02308" lon="10.80179">
        <ele>531.20001220703</ele>
        <time>2019-06-16T09:36:49Z</time>
      </trkpt>
      <trkpt lat="62.02337" lon="10.80129">
        <ele>530.79998779297</ele>
        <time>2019-06-16T09:36:58Z</time>
      </trkpt>
      <trkpt lat="62.02373" lon="10.80071">
        <ele>530.59997558594</ele>
        <time>2019-06-16T09:37:13Z</time>
      </trkpt>
      <trkpt lat="62.02374" lon="10.80069">
        <ele>530.79998779297</ele>
        <time>2019-06-16T09:37:27Z</time>
      </trkpt>
      <trkpt lat="62.02407" lon="10.80002">
        <ele>530.59997558594</ele>
        <time>2019-06-16T09:37:42Z</time>
      </trkpt>
      <trkpt lat="62.02452" lon="10.79919">
        <ele>531</ele>
        <time>2019-06-16T09:37:59Z</time>
      </trkpt>
      <trkpt lat="62.02489" lon="10.79844">
        <ele>531</ele>
        <time>2019-06-16T09:38:14Z</time>
      </trkpt>
      <trkpt lat="62.02526" lon="10.7973">
        <ele>531.20001220703</ele>
        <time>2019-06-16T09:38:37Z</time>
      </trkpt>
      <trkpt lat="62.02536" lon="10.79658">
        <ele>531.20001220703</ele>
        <time>2019-06-16T09:38:52Z</time>
      </trkpt>
      <trkpt lat="62.02544" lon="10.79561">
        <ele>531.59997558594</ele>
        <time>2019-06-16T09:39:11Z</time>
      </trkpt>
      <trkpt lat="62.02531" lon="10.7938">
        <ele>531.59997558594</ele>
        <time>2019-06-16T09:39:32Z</time>
      </trkpt>
      <trkpt lat="62.02514" lon="10.79246">
        <ele>532</ele>
        <time>2019-06-16T09:39:47Z</time>
      </trkpt>
      <trkpt lat="62.02497" lon="10.79114">
        <ele>534.40002441406</ele>
        <time>2019-06-16T09:39:59Z</time>
      </trkpt>
      <trkpt lat="62.02493" lon="10.79084">
        <ele>534.59997558594</ele>
        <time>2019-06-16T09:40:10Z</time>
      </trkpt>
      <trkpt lat="62.02488" lon="10.79037">
        <ele>534.20001220703</ele>
        <time>2019-06-16T09:40:17Z</time>
      </trkpt>
      <trkpt lat="62.02485" lon="10.79008">
        <ele>533</ele>
        <time>2019-06-16T09:40:32Z</time>
      </trkpt>
      <trkpt lat="62.02486" lon="10.7898">
        <ele>532.79998779297</ele>
        <time>2019-06-16T09:40:46Z</time>
      </trkpt>
      <trkpt lat="62.02488" lon="10.78931">
        <ele>532.79998779297</ele>
        <time>2019-06-16T09:40:56Z</time>
      </trkpt>
      <trkpt lat="62.02531" lon="10.78693">
        <ele>537.79998779297</ele>
        <time>2019-06-16T09:41:14Z</time>
      </trkpt>
      <trkpt lat="62.02547" lon="10.78615">
        <ele>538.59997558594</ele>
        <time>2019-06-16T09:41:26Z</time>
      </trkpt>
      <trkpt lat="62.02605" lon="10.78396">
        <ele>539.20001220703</ele>
        <time>2019-06-16T09:41:41Z</time>
      </trkpt>
      <trkpt lat="62.02639" lon="10.78273">
        <ele>538</ele>
        <time>2019-06-16T09:41:48Z</time>
      </trkpt>
      <trkpt lat="62.0264" lon="10.78236">
        <ele>537.79998779297</ele>
        <time>2019-06-16T09:41:59Z</time>
      </trkpt>
      <trkpt lat="62.02624" lon="10.78092">
        <ele>537.40002441406</ele>
        <time>2019-06-16T09:42:14Z</time>
      </trkpt>
      <trkpt lat="62.02613" lon="10.78012">
        <ele>536.79998779297</ele>
        <time>2019-06-16T09:42:29Z</time>
      </trkpt>
      <trkpt lat="62.02616" lon="10.77899">
        <ele>534.79998779297</ele>
        <time>2019-06-16T09:42:39Z</time>
      </trkpt>
      <trkpt lat="62.02636" lon="10.77795">
        <ele>534.79998779297</ele>
        <time>2019-06-16T09:43:01Z</time>
      </trkpt>
      <trkpt lat="62.02648" lon="10.77755">
        <ele>535.40002441406</ele>
        <time>2019-06-16T09:43:07Z</time>
      </trkpt>
      <trkpt lat="62.02678" lon="10.77639">
        <ele>535.59997558594</ele>
        <time>2019-06-16T09:43:23Z</time>
      </trkpt>
      <trkpt lat="62.02716" lon="10.77502">
        <ele>535.59997558594</ele>
        <time>2019-06-16T09:43:38Z</time>
      </trkpt>
      <trkpt lat="62.02747" lon="10.77339">
        <ele>535.40002441406</ele>
        <time>2019-06-16T09:43:53Z</time>
      </trkpt>
      <trkpt lat="62.02748" lon="10.77216">
        <ele>534.79998779297</ele>
        <time>2019-06-16T09:44:16Z</time>
      </trkpt>
      <trkpt lat="62.02742" lon="10.77077">
        <ele>535.20001220703</ele>
        <time>2019-06-16T09:44:31Z</time>
      </trkpt>
      <trkpt lat="62.02748" lon="10.76974">
        <ele>536.79998779297</ele>
        <time>2019-06-16T09:44:38Z</time>
      </trkpt>
      <trkpt lat="62.02764" lon="10.76869">
        <ele>537.40002441406</ele>
        <time>2019-06-16T09:44:59Z</time>
      </trkpt>
      <trkpt lat="62.02799" lon="10.767">
        <ele>537.20001220703</ele>
        <time>2019-06-16T09:45:08Z</time>
      </trkpt>
      <trkpt lat="62.02826" lon="10.76595">
        <ele>537.40002441406</ele>
        <time>2019-06-16T09:45:20Z</time>
      </trkpt>
      <trkpt lat="62.0286" lon="10.76513">
        <ele>537.79998779297</ele>
        <time>2019-06-16T09:45:33Z</time>
      </trkpt>
      <trkpt lat="62.02867" lon="10.76512">
        <ele>536.79998779297</ele>
        <time>2019-06-16T09:45:45Z</time>
      </trkpt>
      <trkpt lat="62.02911" lon="10.76531">
        <ele>537.79998779297</ele>
        <time>2019-06-16T09:46:03Z</time>
      </trkpt>
      <trkpt lat="62.02925" lon="10.76577">
        <ele>537.59997558594</ele>
        <time>2019-06-16T09:46:10Z</time>
      </trkpt>
      <trkpt lat="62.0292" lon="10.76536">
        <ele>538</ele>
        <time>2019-06-16T09:46:24Z</time>
      </trkpt>
      <trkpt lat="62.02915" lon="10.76461">
        <ele>538</ele>
        <time>2019-06-16T09:46:40Z</time>
      </trkpt>
      <trkpt lat="62.02921" lon="10.76526">
        <ele>486.79998779297</ele>
        <time>2019-06-16T09:46:50Z</time>
      </trkpt>
      <trkpt lat="62.02906" lon="10.76458">
        <ele>486.60000610352</ele>
        <time>2019-06-16T09:47:03Z</time>
      </trkpt>
      <trkpt lat="62.0292" lon="10.7637">
        <ele>487.60000610352</ele>
        <time>2019-06-16T09:47:09Z</time>
      </trkpt>
      <trkpt lat="62.02938" lon="10.76333">
        <ele>488.39999389648</ele>
        <time>2019-06-16T09:47:24Z</time>
      </trkpt>
      <trkpt lat="62.02995" lon="10.76234">
        <ele>494.60000610352</ele>
        <time>2019-06-16T09:47:50Z</time>
      </trkpt>
      <trkpt lat="62.03042" lon="10.76214">
        <ele>496.20001220703</ele>
        <time>2019-06-16T09:48:07Z</time>
      </trkpt>
      <trkpt lat="62.03103" lon="10.76217">
        <ele>495.79998779297</ele>
        <time>2019-06-16T09:48:13Z</time>
      </trkpt>
      <trkpt lat="62.03146" lon="10.76184">
        <ele>495.20001220703</ele>
        <time>2019-06-16T09:48:36Z</time>
      </trkpt>
      <trkpt lat="62.03182" lon="10.76112">
        <ele>494.39999389648</ele>
        <time>2019-06-16T09:48:47Z</time>
      </trkpt>
      <trkpt lat="62.03223" lon="10.75963">
        <ele>491.79998779297</ele>
        <time>2019-06-16T09:49:00Z</time>
      </trkpt>
      <trkpt lat="62.03258" lon="10.75811">
        <ele>490.20001220703</ele>
        <time>2019-06-16T09:49:10Z</time>
      </trkpt>
      <trkpt lat="62.03283" lon="10.75732">
        <ele>489.60000610352</ele>
        <time>2019-06-16T09:49:17Z</time>
      </trkpt>
      <trkpt lat="62.03313" lon="10.75653">
        <ele>488.60000610352</ele>
        <time>2019-06-16T09:49:29Z</time>
      </trkpt>
      <trkpt lat="62.03337" lon="10.75578">
        <ele>489.20001220703</ele>
        <time>2019-06-16T09:49:33Z</time>
      </trkpt>
      <trkpt lat="62.0335" lon="10.75517">
        <ele>491.39999389648</ele>
        <time>2019-06-16T09:49:40Z</time>
      </trkpt>
      <trkpt lat="62.03355" lon="10.75492">
        <ele>491.39999389648</ele>
        <time>2019-06-16T09:49:45Z</time>
      </trkpt>
      <trkpt lat="62.03368" lon="10.75413">
        <ele>491.60000610352</ele>
        <time>2019-06-16T09:49:48Z</time>
      </trkpt>
      <trkpt lat="62.03382" lon="10.75351">
        <ele>491.39999389648</ele>
        <time>2019-06-16T09:49:54Z</time>
      </trkpt>
      <trkpt lat="62.03421" lon="10.75205">
        <ele>490</ele>
        <time>2019-06-16T09:50:03Z</time>
      </trkpt>
      <trkpt lat="62.03444" lon="10.75092">
        <ele>488</ele>
        <time>2019-06-16T09:50:09Z</time>
      </trkpt>
      <trkpt lat="62.03449" lon="10.7504">
        <ele>486.60000610352</ele>
        <time>2019-06-16T09:50:31Z</time>
      </trkpt>
      <trkpt lat="62.03449" lon="10.74864">
        <ele>486.79998779297</ele>
        <time>2019-06-16T09:50:41Z</time>
      </trkpt>
      <trkpt lat="62.03452" lon="10.74739">
        <ele>488.20001220703</ele>
        <time>2019-06-16T09:51:03Z</time>
      </trkpt>
      <trkpt lat="62.03458" lon="10.74671">
        <ele>488.20001220703</ele>
        <time>2019-06-16T09:51:17Z</time>
      </trkpt>
      <trkpt lat="62.03481" lon="10.74507">
        <ele>487</ele>
        <time>2019-06-16T09:51:26Z</time>
      </trkpt>
      <trkpt lat="62.03504" lon="10.74449">
        <ele>486.39999389648</ele>
        <time>2019-06-16T09:51:38Z</time>
      </trkpt>
      <trkpt lat="62.03524" lon="10.74409">
        <ele>485.39999389648</ele>
        <time>2019-06-16T09:51:51Z</time>
      </trkpt>
      <trkpt lat="62.03559" lon="10.74333">
        <ele>484.60000610352</ele>
        <time>2019-06-16T09:52:06Z</time>
      </trkpt>
      <trkpt lat="62.03632" lon="10.74168">
        <ele>487.20001220703</ele>
        <time>2019-06-16T09:52:34Z</time>
      </trkpt>
      <trkpt lat="62.03672" lon="10.7409">
        <ele>486.79998779297</ele>
        <time>2019-06-16T09:52:49Z</time>
      </trkpt>
      <trkpt lat="62.03692" lon="10.74051">
        <ele>486.79998779297</ele>
        <time>2019-06-16T09:53:09Z</time>
      </trkpt>
      <trkpt lat="62.03749" lon="10.73932">
        <ele>488.79998779297</ele>
        <time>2019-06-16T09:53:19Z</time>
      </trkpt>
      <trkpt lat="62.038" lon="10.73805">
        <ele>492</ele>
        <time>2019-06-16T09:53:37Z</time>
      </trkpt>
      <trkpt lat="62.03837" lon="10.73698">
        <ele>493.79998779297</ele>
        <time>2019-06-16T09:54:00Z</time>
      </trkpt>
      <trkpt lat="62.03856" lon="10.73642">
        <ele>496.20001220703</ele>
        <time>2019-06-16T09:54:21Z</time>
      </trkpt>
      <trkpt lat="62.03853" lon="10.73293">
        <ele>503.39999389648</ele>
        <time>2019-06-16T09:54:34Z</time>
      </trkpt>
      <trkpt lat="62.03893" lon="10.73208">
        <ele>503.60000610352</ele>
        <time>2019-06-16T09:54:45Z</time>
      </trkpt>
      <trkpt lat="62.0392" lon="10.73173">
        <ele>503.39999389648</ele>
        <time>2019-06-16T09:54:58Z</time>
      </trkpt>
      <trkpt lat="62.03968" lon="10.73133">
        <ele>502.60000610352</ele>
        <time>2019-06-16T09:55:12Z</time>
      </trkpt>
      <trkpt lat="62.04032" lon="10.73117">
        <ele>500.39999389648</ele>
        <time>2019-06-16T09:55:19Z</time>
      </trkpt>
      <trkpt lat="62.04105" lon="10.73109">
        <ele>499.60000610352</ele>
        <time>2019-06-16T09:55:26Z</time>
      </trkpt>
      <trkpt lat="62.04144" lon="10.73084">
        <ele>498.60000610352</ele>
        <time>2019-06-16T09:55:34Z</time>
      </trkpt>
      <trkpt lat="62.0422" lon="10.72975">
        <ele>495.20001220703</ele>
        <time>2019-06-16T09:55:41Z</time>
      </trkpt>
      <trkpt lat="62.04238" lon="10.7292">
        <ele>494.60000610352</ele>
        <time>2019-06-16T09:55:49Z</time>
      </trkpt>
      <trkpt lat="62.04246" lon="10.72891">
        <ele>493.39999389648</ele>
        <time>2019-06-16T09:56:18Z</time>
      </trkpt>
      <trkpt lat="62.04264" lon="10.72805">
        <ele>492</ele>
        <time>2019-06-16T09:56:35Z</time>
      </trkpt>
      <trkpt lat="62.04284" lon="10.72705">
        <ele>491.20001220703</ele>
        <time>2019-06-16T09:56:58Z</time>
      </trkpt>
      <trkpt lat="62.0431" lon="10.72573">
        <ele>491</ele>
        <time>2019-06-16T09:57:13Z</time>
      </trkpt>
      <trkpt lat="62.04335" lon="10.72486">
        <ele>491.60000610352</ele>
        <time>2019-06-16T09:57:36Z</time>
      </trkpt>
      <trkpt lat="62.04378" lon="10.72398">
        <ele>491.60000610352</ele>
        <time>2019-06-16T09:57:56Z</time>
      </trkpt>
      <trkpt lat="62.04446" lon="10.7232">
        <ele>492.20001220703</ele>
        <time>2019-06-16T09:58:10Z</time>
      </trkpt>
      <trkpt lat="62.04491" lon="10.72302">
        <ele>492</ele>
        <time>2019-06-16T09:58:21Z</time>
      </trkpt>
      <trkpt lat="62.0452" lon="10.72302">
        <ele>491.60000610352</ele>
        <time>2019-06-16T09:58:36Z</time>
      </trkpt>
      <trkpt lat="62.04617" lon="10.72247">
        <ele>491</ele>
        <time>2019-06-16T09:58:49Z</time>
      </trkpt>
      <trkpt lat="62.04678" lon="10.72172">
        <ele>492.39999389648</ele>
        <time>2019-06-16T09:59:10Z</time>
      </trkpt>
      <trkpt lat="62.04831" lon="10.72034">
        <ele>493.39999389648</ele>
        <time>2019-06-16T09:59:26Z</time>
      </trkpt>
      <trkpt lat="62.0489" lon="10.71956">
        <ele>493.39999389648</ele>
        <time>2019-06-16T09:59:43Z</time>
      </trkpt>
      <trkpt lat="62.04951" lon="10.71841">
        <ele>492.60000610352</ele>
        <time>2019-06-16T10:00:05Z</time>
      </trkpt>
      <trkpt lat="62.05024" lon="10.71738">
        <ele>492</ele>
        <time>2019-06-16T10:00:13Z</time>
      </trkpt>
      <trkpt lat="62.05051" lon="10.71702">
        <ele>491.20001220703</ele>
        <time>2019-06-16T10:00:35Z</time>
      </trkpt>
      <trkpt lat="62.05114" lon="10.71623">
        <ele>492.20001220703</ele>
        <time>2019-06-16T10:00:42Z</time>
      </trkpt>
      <trkpt lat="62.05146" lon="10.71567">
        <ele>492.39999389648</ele>
        <time>2019-06-16T10:00:49Z</time>
      </trkpt>
      <trkpt lat="62.05182" lon="10.71486">
        <ele>492.60000610352</ele>
        <time>2019-06-16T10:01:00Z</time>
      </trkpt>
      <trkpt lat="62.05242" lon="10.71378">
        <ele>492.39999389648</ele>
        <time>2019-06-16T10:01:11Z</time>
      </trkpt>
      <trkpt lat="62.05304" lon="10.71314">
        <ele>492</ele>
        <time>2019-06-16T10:01:23Z</time>
      </trkpt>
      <trkpt lat="62.05388" lon="10.71233">
        <ele>493.39999389648</ele>
        <time>2019-06-16T10:01:45Z</time>
      </trkpt>
      <trkpt lat="62.05438" lon="10.7117">
        <ele>493.20001220703</ele>
        <time>2019-06-16T10:01:52Z</time>
      </trkpt>
      <trkpt lat="62.05498" lon="10.71085">
        <ele>493.20001220703</ele>
        <time>2019-06-16T10:02:11Z</time>
      </trkpt>
      <trkpt lat="62.05561" lon="10.70967">
        <ele>493.60000610352</ele>
        <time>2019-06-16T10:02:17Z</time>
      </trkpt>
      <trkpt lat="62.0559" lon="10.70933">
        <ele>493</ele>
        <time>2019-06-16T10:02:31Z</time>
      </trkpt>
      <trkpt lat="62.05661" lon="10.70844">
        <ele>493.39999389648</ele>
        <time>2019-06-16T10:02:43Z</time>
      </trkpt>
      <trkpt lat="62.05728" lon="10.70751">
        <ele>493</ele>
        <time>2019-06-16T10:02:54Z</time>
      </trkpt>
      <trkpt lat="62.05763" lon="10.70694">
        <ele>492</ele>
        <time>2019-06-16T10:03:02Z</time>
      </trkpt>
      <trkpt lat="62.05812" lon="10.70599">
        <ele>491.60000610352</ele>
        <time>2019-06-16T10:03:08Z</time>
      </trkpt>
      <trkpt lat="62.05843" lon="10.7053">
        <ele>491.79998779297</ele>
        <time>2019-06-16T10:03:13Z</time>
      </trkpt>
      <trkpt lat="62.05905" lon="10.70396">
        <ele>494.20001220703</ele>
        <time>2019-06-16T10:03:24Z</time>
      </trkpt>
      <trkpt lat="62.05935" lon="10.70353">
        <ele>494.20001220703</ele>
        <time>2019-06-16T10:03:40Z</time>
      </trkpt>
      <trkpt lat="62.06016" lon="10.70255">
        <ele>493.39999389648</ele>
        <time>2019-06-16T10:03:55Z</time>
      </trkpt>
      <trkpt lat="62.06071" lon="10.70194">
        <ele>494</ele>
        <time>2019-06-16T10:04:10Z</time>
      </trkpt>
      <trkpt lat="62.06168" lon="10.70125">
        <ele>495.60000610352</ele>
        <time>2019-06-16T10:04:20Z</time>
      </trkpt>
      <trkpt lat="62.06184" lon="10.70111">
        <ele>496.39999389648</ele>
        <time>2019-06-16T10:04:26Z</time>
      </trkpt>
      <trkpt lat="62.06272" lon="10.70047">
        <ele>495</ele>
        <time>2019-06-16T10:04:40Z</time>
      </trkpt>
      <trkpt lat="62.06314" lon="10.70021">
        <ele>493</ele>
        <time>2019-06-16T10:04:57Z</time>
      </trkpt>
      <trkpt lat="62.06358" lon="10.7001">
        <ele>493</ele>
        <time>2019-06-16T10:05:08Z</time>
      </trkpt>
      <trkpt lat="62.06395" lon="10.70038">
        <ele>492.60000610352</ele>
        <time>2019-06-16T10:05:20Z</time>
      </trkpt>
      <trkpt lat="62.06417" lon="10.70074">
        <ele>491.79998779297</ele>
        <time>2019-06-16T10:05:32Z</time>
      </trkpt>
      <trkpt lat="62.06465" lon="10.70099">
        <ele>492</ele>
        <time>2019-06-16T10:05:50Z</time>
      </trkpt>
      <trkpt lat="62.06521" lon="10.70091">
        <ele>492.60000610352</ele>
        <time>2019-06-16T10:05:58Z</time>
      </trkpt>
      <trkpt lat="62.06562" lon="10.70053">
        <ele>493.20001220703</ele>
        <time>2019-06-16T10:06:09Z</time>
      </trkpt>
      <trkpt lat="62.06643" lon="10.69945">
        <ele>500.79998779297</ele>
        <time>2019-06-16T10:06:28Z</time>
      </trkpt>
      <trkpt lat="62.06717" lon="10.6986">
        <ele>504</ele>
        <time>2019-06-16T10:06:38Z</time>
      </trkpt>
      <trkpt lat="62.06811" lon="10.69826">
        <ele>507.39999389648</ele>
        <time>2019-06-16T10:06:53Z</time>
      </trkpt>
      <trkpt lat="62.06874" lon="10.69805">
        <ele>508</ele>
        <time>2019-06-16T10:07:11Z</time>
      </trkpt>
      <trkpt lat="62.06954" lon="10.69773">
        <ele>507.79998779297</ele>
        <time>2019-06-16T10:07:29Z</time>
      </trkpt>
      <trkpt lat="62.0706" lon="10.6973">
        <ele>506.20001220703</ele>
        <time>2019-06-16T10:07:52Z</time>
      </trkpt>
      <trkpt lat="62.07143" lon="10.69725">
        <ele>508</ele>
        <time>2019-06-16T10:07:59Z</time>
      </trkpt>
      <trkpt lat="62.07206" lon="10.69728">
        <ele>508.79998779297</ele>
        <time>2019-06-16T10:08:07Z</time>
      </trkpt>
      <trkpt lat="62.07317" lon="10.69727">
        <ele>509.20001220703</ele>
        <time>2019-06-16T10:08:23Z</time>
      </trkpt>
      <trkpt lat="62.07402" lon="10.69712">
        <ele>508</ele>
        <time>2019-06-16T10:08:32Z</time>
      </trkpt>
      <trkpt lat="62.07441" lon="10.69698">
        <ele>506.39999389648</ele>
        <time>2019-06-16T10:13:02Z</time>
      </trkpt>
      <trkpt lat="62.07555" lon="10.69636">
        <ele>503.20001220703</ele>
        <time>2019-06-16T10:13:20Z</time>
      </trkpt>
      <trkpt lat="62.07652" lon="10.69531">
        <ele>499.79998779297</ele>
        <time>2019-06-16T10:13:30Z</time>
      </trkpt>
      <trkpt lat="62.07691" lon="10.69455">
        <ele>499</ele>
        <time>2019-06-16T10:13:40Z</time>
      </trkpt>
      <trkpt lat="62.07729" lon="10.69364">
        <ele>497.39999389648</ele>
        <time>2019-06-16T10:13:53Z</time>
      </trkpt>
      <trkpt lat="62.07769" lon="10.69259">
        <ele>496.60000610352</ele>
        <time>2019-06-16T10:14:01Z</time>
      </trkpt>
      <trkpt lat="62.07788" lon="10.69185">
        <ele>496.79998779297</ele>
        <time>2019-06-16T10:14:13Z</time>
      </trkpt>
      <trkpt lat="62.07817" lon="10.69052">
        <ele>496.79998779297</ele>
        <time>2019-06-16T10:14:19Z</time>
      </trkpt>
      <trkpt lat="62.07842" lon="10.68921">
        <ele>496.60000610352</ele>
        <time>2019-06-16T10:14:31Z</time>
      </trkpt>
      <trkpt lat="62.07875" lon="10.68756">
        <ele>497</ele>
        <time>2019-06-16T10:14:40Z</time>
      </trkpt>
      <trkpt lat="62.07903" lon="10.68538">
        <ele>496.79998779297</ele>
        <time>2019-06-16T10:14:48Z</time>
      </trkpt>
      <trkpt lat="62.07911" lon="10.68422">
        <ele>496.79998779297</ele>
        <time>2019-06-16T10:14:57Z</time>
      </trkpt>
      <trkpt lat="62.07916" lon="10.68272">
        <ele>497.39999389648</ele>
        <time>2019-06-16T10:15:03Z</time>
      </trkpt>
      <trkpt lat="62.07925" lon="10.68081">
        <ele>498</ele>
        <time>2019-06-16T10:15:20Z</time>
      </trkpt>
      <trkpt lat="62.07927" lon="10.67842">
        <ele>500.39999389648</ele>
        <time>2019-06-16T10:15:32Z</time>
      </trkpt>
      <trkpt lat="62.07921" lon="10.67763">
        <ele>500.39999389648</ele>
        <time>2019-06-16T10:15:39Z</time>
      </trkpt>
      <trkpt lat="62.07908" lon="10.6764">
        <ele>499.79998779297</ele>
        <time>2019-06-16T10:16:04Z</time>
      </trkpt>
      <trkpt lat="62.0791" lon="10.6762">
        <ele>498.20001220703</ele>
        <time>2019-06-16T10:16:19Z</time>
      </trkpt>
      <trkpt lat="62.07953" lon="10.67574">
        <ele>497.60000610352</ele>
        <time>2019-06-16T10:16:29Z</time>
      </trkpt>
      <trkpt lat="62.07966" lon="10.67509">
        <ele>497.39999389648</ele>
        <time>2019-06-16T10:16:49Z</time>
      </trkpt>
      <trkpt lat="62.07969" lon="10.67329">
        <ele>497</ele>
        <time>2019-06-16T10:17:03Z</time>
      </trkpt>
      <trkpt lat="62.07973" lon="10.67214">
        <ele>496.60000610352</ele>
        <time>2019-06-16T10:17:17Z</time>
      </trkpt>
      <trkpt lat="62.07988" lon="10.67091">
        <ele>496.60000610352</ele>
        <time>2019-06-16T10:17:29Z</time>
      </trkpt>
      <trkpt lat="62.08029" lon="10.668">
        <ele>494.60000610352</ele>
        <time>2019-06-16T10:17:37Z</time>
      </trkpt>
      <trkpt lat="62.08045" lon="10.66683">
        <ele>493.60000610352</ele>
        <time>2019-06-16T10:17:53Z</time>
      </trkpt>
      <trkpt lat="62.08059" lon="10.66518">
        <ele>493.60000610352</ele>
        <time>2019-06-16T10:18:08Z</time>
      </trkpt>
      <trkpt lat="62.0806" lon="10.66451">
        <ele>493.39999389648</ele>
        <time>2019-06-16T10:18:16Z</time>
      </trkpt>
      <trkpt lat="62.08096" lon="10.66394">
        <ele>492.79998779297</ele>
        <time>2019-06-16T10:18:35Z</time>
      </trkpt>
      <trkpt lat="62.08114" lon="10.66377">
        <ele>491.39999389648</ele>
        <time>2019-06-16T10:18:47Z</time>
      </trkpt>
      <trkpt lat="62.08185" lon="10.66295">
        <ele>491.20001220703</ele>
        <time>2019-06-16T10:19:01Z</time>
      </trkpt>
      <trkpt lat="62.08251" lon="10.66221">
        <ele>491.39999389648</ele>
        <time>2019-06-16T10:19:10Z</time>
      </trkpt>
      <trkpt lat="62.08388" lon="10.66068">
        <ele>492.20001220703</ele>
        <time>2019-06-16T10:19:24Z</time>
      </trkpt>
      <trkpt lat="62.08482" lon="10.65924">
        <ele>492.79998779297</ele>
        <time>2019-06-16T10:19:45Z</time>
      </trkpt>
      <trkpt lat="62.08557" lon="10.65791">
        <ele>492.79998779297</ele>
        <time>2019-06-16T10:19:57Z</time>
      </trkpt>
      <trkpt lat="62.086" lon="10.65714">
        <ele>493.60000610352</ele>
        <time>2019-06-16T10:20:02Z</time>
      </trkpt>
      <trkpt lat="62.08679" lon="10.65576">
        <ele>493.60000610352</ele>
        <time>2019-06-16T10:20:17Z</time>
      </trkpt>
      <trkpt lat="62.08724" lon="10.655">
        <ele>493.79998779297</ele>
        <time>2019-06-16T10:20:25Z</time>
      </trkpt>
      <trkpt lat="62.08784" lon="10.65391">
        <ele>494.20001220703</ele>
        <time>2019-06-16T10:20:46Z</time>
      </trkpt>
      <trkpt lat="62.08798" lon="10.65337">
        <ele>494.60000610352</ele>
        <time>2019-06-16T10:21:00Z</time>
      </trkpt>
      <trkpt lat="62.08822" lon="10.65225">
        <ele>494.20001220703</ele>
        <time>2019-06-16T10:21:14Z</time>
      </trkpt>
      <trkpt lat="62.08852" lon="10.65109">
        <ele>494.39999389648</ele>
        <time>2019-06-16T10:21:29Z</time>
      </trkpt>
      <trkpt lat="62.08884" lon="10.65058">
        <ele>494.20001220703</ele>
        <time>2019-06-16T10:21:41Z</time>
      </trkpt>
      <trkpt lat="62.08978" lon="10.64929">
        <ele>493.20001220703</ele>
        <time>2019-06-16T10:21:49Z</time>
      </trkpt>
      <trkpt lat="62.08995" lon="10.64914">
        <ele>493.39999389648</ele>
        <time>2019-06-16T10:22:01Z</time>
      </trkpt>
      <trkpt lat="62.09017" lon="10.64934">
        <ele>493</ele>
        <time>2019-06-16T10:22:13Z</time>
      </trkpt>
      <trkpt lat="62.0911" lon="10.64931">
        <ele>491.79998779297</ele>
        <time>2019-06-16T10:22:20Z</time>
      </trkpt>
      <trkpt lat="62.09146" lon="10.64884">
        <ele>492.39999389648</ele>
        <time>2019-06-16T10:22:33Z</time>
      </trkpt>
      <trkpt lat="62.09205" lon="10.64756">
        <ele>492.79998779297</ele>
        <time>2019-06-16T10:22:46Z</time>
      </trkpt>
      <trkpt lat="62.09259" lon="10.647">
        <ele>492.60000610352</ele>
        <time>2019-06-16T10:23:07Z</time>
      </trkpt>
      <trkpt lat="62.09333" lon="10.64677">
        <ele>492.20001220703</ele>
        <time>2019-06-16T10:23:21Z</time>
      </trkpt>
      <trkpt lat="62.09387" lon="10.64657">
        <ele>492.20001220703</ele>
        <time>2019-06-16T10:23:38Z</time>
      </trkpt>
      <trkpt lat="62.09437" lon="10.64624">
        <ele>492.79998779297</ele>
        <time>2019-06-16T10:23:57Z</time>
      </trkpt>
      <trkpt lat="62.09515" lon="10.64546">
        <ele>493.60000610352</ele>
        <time>2019-06-16T10:24:11Z</time>
      </trkpt>
      <trkpt lat="62.09534" lon="10.64514">
        <ele>493.60000610352</ele>
        <time>2019-06-16T10:24:28Z</time>
      </trkpt>
      <trkpt lat="62.09569" lon="10.64442">
        <ele>494</ele>
        <time>2019-06-16T10:24:42Z</time>
      </trkpt>
      <trkpt lat="62.09603" lon="10.64344">
        <ele>494.79998779297</ele>
        <time>2019-06-16T10:24:59Z</time>
      </trkpt>
      <trkpt lat="62.09616" lon="10.64346">
        <ele>497</ele>
        <time>2019-06-16T10:25:27Z</time>
      </trkpt>
      <trkpt lat="62.09633" lon="10.64393">
        <ele>497.20001220703</ele>
        <time>2019-06-16T10:25:43Z</time>
      </trkpt>
      <trkpt lat="62.09654" lon="10.64452">
        <ele>498</ele>
        <time>2019-06-16T10:26:06Z</time>
      </trkpt>
      <trkpt lat="62.09667" lon="10.64486">
        <ele>499</ele>
        <time>2019-06-16T10:26:19Z</time>
      </trkpt>
      <trkpt lat="62.09699" lon="10.64568">
        <ele>499.39999389648</ele>
        <time>2019-06-16T10:26:34Z</time>
      </trkpt>
      <trkpt lat="62.09735" lon="10.64581">
        <ele>500.79998779297</ele>
        <time>2019-06-16T10:26:47Z</time>
      </trkpt>
      <trkpt lat="62.09844" lon="10.64503">
        <ele>507.39999389648</ele>
        <time>2019-06-16T10:27:00Z</time>
      </trkpt>
      <trkpt lat="62.09862" lon="10.64467">
        <ele>508</ele>
        <time>2019-06-16T10:27:06Z</time>
      </trkpt>
      <trkpt lat="62.0988" lon="10.6442">
        <ele>509.60000610352</ele>
        <time>2019-06-16T10:27:29Z</time>
      </trkpt>
      <trkpt lat="62.09925" lon="10.64314">
        <ele>510</ele>
        <time>2019-06-16T10:27:46Z</time>
      </trkpt>
      <trkpt lat="62.09963" lon="10.64338">
        <ele>509.20001220703</ele>
        <time>2019-06-16T10:28:10Z</time>
      </trkpt>
      <trkpt lat="62.09999" lon="10.64402">
        <ele>506.60000610352</ele>
        <time>2019-06-16T10:28:26Z</time>
      </trkpt>
      <trkpt lat="62.10027" lon="10.64401">
        <ele>507.60000610352</ele>
        <time>2019-06-16T10:28:41Z</time>
      </trkpt>
      <trkpt lat="62.10064" lon="10.6432">
        <ele>511.20001220703</ele>
        <time>2019-06-16T10:28:59Z</time>
      </trkpt>
      <trkpt lat="62.10099" lon="10.64267">
        <ele>512.20001220703</ele>
        <time>2019-06-16T10:29:07Z</time>
      </trkpt>
      <trkpt lat="62.10156" lon="10.64222">
        <ele>511.60000610352</ele>
        <time>2019-06-16T10:29:13Z</time>
      </trkpt>
      <trkpt lat="62.10205" lon="10.64192">
        <ele>511.39999389648</ele>
        <time>2019-06-16T10:29:27Z</time>
      </trkpt>
      <trkpt lat="62.10273" lon="10.64162">
        <ele>512.59997558594</ele>
        <time>2019-06-16T10:29:38Z</time>
      </trkpt>
      <trkpt lat="62.10275" lon="10.64161">
        <ele>513.40002441406</ele>
        <time>2019-06-16T10:29:58Z</time>
      </trkpt>
      <trkpt lat="62.10291" lon="10.64158">
        <ele>513</ele>
        <time>2019-06-16T10:30:04Z</time>
      </trkpt>
      <trkpt lat="62.10296" lon="10.6413">
        <ele>513</ele>
        <time>2019-06-16T10:30:16Z</time>
      </trkpt>
      <trkpt lat="62.10285" lon="10.64106">
        <ele>513.59997558594</ele>
        <time>2019-06-16T10:30:30Z</time>
      </trkpt>
      <trkpt lat="62.103" lon="10.64004">
        <ele>514.20001220703</ele>
        <time>2019-06-16T10:30:39Z</time>
      </trkpt>
      <trkpt lat="62.10298" lon="10.63955">
        <ele>516.20001220703</ele>
        <time>2019-06-16T10:30:49Z</time>
      </trkpt>
      <trkpt lat="62.10314" lon="10.63915">
        <ele>517</ele>
        <time>2019-06-16T10:31:08Z</time>
      </trkpt>
      <trkpt lat="62.1034" lon="10.63863">
        <ele>519.79998779297</ele>
        <time>2019-06-16T10:31:14Z</time>
      </trkpt>
      <trkpt lat="62.10364" lon="10.63792">
        <ele>521</ele>
        <time>2019-06-16T10:31:30Z</time>
      </trkpt>
      <trkpt lat="62.10387" lon="10.63764">
        <ele>521.40002441406</ele>
        <time>2019-06-16T10:31:45Z</time>
      </trkpt>
      <trkpt lat="62.10428" lon="10.63744">
        <ele>521.59997558594</ele>
        <time>2019-06-16T10:31:54Z</time>
      </trkpt>
      <trkpt lat="62.10469" lon="10.63716">
        <ele>521.20001220703</ele>
        <time>2019-06-16T10:32:07Z</time>
      </trkpt>
      <trkpt lat="62.10495" lon="10.63703">
        <ele>520.59997558594</ele>
        <time>2019-06-16T10:32:17Z</time>
      </trkpt>
      <trkpt lat="62.10535" lon="10.63747">
        <ele>516.79998779297</ele>
        <time>2019-06-16T10:32:30Z</time>
      </trkpt>
      <trkpt lat="62.10522" lon="10.63805">
        <ele>518.40002441406</ele>
        <time>2019-06-16T10:32:51Z</time>
      </trkpt>
      <trkpt lat="62.10529" lon="10.63811">
        <ele>519.79998779297</ele>
        <time>2019-06-16T10:32:57Z</time>
      </trkpt>
      <trkpt lat="62.10619" lon="10.63669">
        <ele>520.20001220703</ele>
        <time>2019-06-16T10:33:05Z</time>
      </trkpt>
      <trkpt lat="62.10727" lon="10.63574">
        <ele>523.20001220703</ele>
        <time>2019-06-16T10:33:16Z</time>
      </trkpt>
      <trkpt lat="62.10751" lon="10.63553">
        <ele>523.20001220703</ele>
        <time>2019-06-16T10:33:25Z</time>
      </trkpt>
      <trkpt lat="62.10819" lon="10.63463">
        <ele>522.40002441406</ele>
        <time>2019-06-16T10:33:41Z</time>
      </trkpt>
      <trkpt lat="62.10853" lon="10.63419">
        <ele>522.40002441406</ele>
        <time>2019-06-16T10:33:54Z</time>
      </trkpt>
      <trkpt lat="62.1085" lon="10.63328">
        <ele>522.79998779297</ele>
        <time>2019-06-16T10:34:03Z</time>
      </trkpt>
      <trkpt lat="62.10836" lon="10.63278">
        <ele>521.79998779297</ele>
        <time>2019-06-16T10:34:18Z</time>
      </trkpt>
      <trkpt lat="62.1084" lon="10.63261">
        <ele>521.79998779297</ele>
        <time>2019-06-16T10:34:30Z</time>
      </trkpt>
      <trkpt lat="62.10838" lon="10.63243">
        <ele>521.59997558594</ele>
        <time>2019-06-16T10:34:40Z</time>
      </trkpt>
      <trkpt lat="62.10829" lon="10.63214">
        <ele>523.20001220703</ele>
        <time>2019-06-16T10:34:47Z</time>
      </trkpt>
      <trkpt lat="62.10839" lon="10.63233">
        <ele>523</ele>
        <time>2019-06-16T10:34:53Z</time>
      </trkpt>
      <trkpt lat="62.10859" lon="10.63208">
        <ele>521.20001220703</ele>
        <time>2019-06-16T10:35:18Z</time>
      </trkpt>
      <trkpt lat="62.10845" lon="10.63226">
        <ele>522</ele>
        <time>2019-06-16T10:35:35Z</time>
      </trkpt>
      <trkpt lat="62.10841" lon="10.6321">
        <ele>521.79998779297</ele>
        <time>2019-06-16T10:35:51Z</time>
      </trkpt>
      <trkpt lat="62.10851" lon="10.63198">
        <ele>522</ele>
        <time>2019-06-16T10:36:13Z</time>
      </trkpt>
      <trkpt lat="62.10859" lon="10.63213">
        <ele>521.40002441406</ele>
        <time>2019-06-16T10:36:26Z</time>
      </trkpt>
      <trkpt lat="62.10839" lon="10.63224">
        <ele>521.59997558594</ele>
        <time>2019-06-16T10:36:44Z</time>
      </trkpt>
      <trkpt lat="62.10824" lon="10.63244">
        <ele>520.79998779297</ele>
        <time>2019-06-16T10:36:56Z</time>
      </trkpt>
      <trkpt lat="62.10843" lon="10.63261">
        <ele>519.20001220703</ele>
        <time>2019-06-16T10:37:01Z</time>
      </trkpt>
      <trkpt lat="62.10838" lon="10.63295">
        <ele>519</ele>
        <time>2019-06-16T10:37:15Z</time>
      </trkpt>
      <trkpt lat="62.10855" lon="10.6337">
        <ele>519.20001220703</ele>
        <time>2019-06-16T10:37:25Z</time>
      </trkpt>
      <trkpt lat="62.10868" lon="10.63398">
        <ele>519.40002441406</ele>
        <time>2019-06-16T10:37:45Z</time>
      </trkpt>
      <trkpt lat="62.1091" lon="10.63339">
        <ele>522</ele>
        <time>2019-06-16T10:37:58Z</time>
      </trkpt>
      <trkpt lat="62.10963" lon="10.63257">
        <ele>523.59997558594</ele>
        <time>2019-06-16T10:38:15Z</time>
      </trkpt>
      <trkpt lat="62.10984" lon="10.63222">
        <ele>523.79998779297</ele>
        <time>2019-06-16T10:38:31Z</time>
      </trkpt>
      <trkpt lat="62.11012" lon="10.63189">
        <ele>524.40002441406</ele>
        <time>2019-06-16T10:38:46Z</time>
      </trkpt>
      <trkpt lat="62.11057" lon="10.63167">
        <ele>524.59997558594</ele>
        <time>2019-06-16T10:38:53Z</time>
      </trkpt>
      <trkpt lat="62.11108" lon="10.63143">
        <ele>525.20001220703</ele>
        <time>2019-06-16T10:39:11Z</time>
      </trkpt>
      <trkpt lat="62.11169" lon="10.631">
        <ele>525.40002441406</ele>
        <time>2019-06-16T10:39:20Z</time>
      </trkpt>
      <trkpt lat="62.11192" lon="10.63081">
        <ele>526.20001220703</ele>
        <time>2019-06-16T10:39:38Z</time>
      </trkpt>
      <trkpt lat="62.11291" lon="10.62986">
        <ele>525</ele>
        <time>2019-06-16T10:39:48Z</time>
      </trkpt>
      <trkpt lat="62.11334" lon="10.62987">
        <ele>523.20001220703</ele>
        <time>2019-06-16T10:40:03Z</time>
      </trkpt>
      <trkpt lat="62.11372" lon="10.6303">
        <ele>523.79998779297</ele>
        <time>2019-06-16T10:40:26Z</time>
      </trkpt>
      <trkpt lat="62.1139" lon="10.63045">
        <ele>527.59997558594</ele>
        <time>2019-06-16T10:40:38Z</time>
      </trkpt>
      <trkpt lat="62.11425" lon="10.63071">
        <ele>527.79998779297</ele>
        <time>2019-06-16T10:40:52Z</time>
      </trkpt>
      <trkpt lat="62.11446" lon="10.63089">
        <ele>529</ele>
        <time>2019-06-16T10:41:08Z</time>
      </trkpt>
      <trkpt lat="62.11577" lon="10.63231">
        <ele>533.20001220703</ele>
        <time>2019-06-16T10:41:15Z</time>
      </trkpt>
      <trkpt lat="62.11632" lon="10.63298">
        <ele>536.59997558594</ele>
        <time>2019-06-16T10:41:28Z</time>
      </trkpt>
      <trkpt lat="62.11673" lon="10.63354">
        <ele>538.20001220703</ele>
        <time>2019-06-16T10:41:35Z</time>
      </trkpt>
      <trkpt lat="62.11719" lon="10.63421">
        <ele>538.40002441406</ele>
        <time>2019-06-16T10:41:43Z</time>
      </trkpt>
      <trkpt lat="62.11786" lon="10.63518">
        <ele>538.20001220703</ele>
        <time>2019-06-16T10:41:56Z</time>
      </trkpt>
      <trkpt lat="62.11871" lon="10.63598">
        <ele>535.40002441406</ele>
        <time>2019-06-16T10:42:02Z</time>
      </trkpt>
      <trkpt lat="62.11905" lon="10.63606">
        <ele>534</ele>
        <time>2019-06-16T10:42:10Z</time>
      </trkpt>
      <trkpt lat="62.12013" lon="10.6355">
        <ele>535.20001220703</ele>
        <time>2019-06-16T10:42:19Z</time>
      </trkpt>
      <trkpt lat="62.12124" lon="10.63458">
        <ele>537.79998779297</ele>
        <time>2019-06-16T10:42:28Z</time>
      </trkpt>
      <trkpt lat="62.12139" lon="10.63445">
        <ele>538.59997558594</ele>
        <time>2019-06-16T10:42:44Z</time>
      </trkpt>
      <trkpt lat="62.12186" lon="10.63404">
        <ele>538.79998779297</ele>
        <time>2019-06-16T10:42:52Z</time>
      </trkpt>
      <trkpt lat="62.12265" lon="10.63336">
        <ele>536.20001220703</ele>
        <time>2019-06-16T10:42:59Z</time>
      </trkpt>
      <trkpt lat="62.12381" lon="10.63237">
        <ele>529.79998779297</ele>
        <time>2019-06-16T10:43:08Z</time>
      </trkpt>
      <trkpt lat="62.12486" lon="10.63135">
        <ele>528</ele>
        <time>2019-06-16T10:43:16Z</time>
      </trkpt>
      <trkpt lat="62.12542" lon="10.63063">
        <ele>528.20001220703</ele>
        <time>2019-06-16T10:43:25Z</time>
      </trkpt>
      <trkpt lat="62.12657" lon="10.62919">
        <ele>528.40002441406</ele>
        <time>2019-06-16T10:43:34Z</time>
      </trkpt>
      <trkpt lat="62.12756" lon="10.62837">
        <ele>525</ele>
        <time>2019-06-16T10:43:42Z</time>
      </trkpt>
      <trkpt lat="62.12897" lon="10.62723">
        <ele>517.20001220703</ele>
        <time>2019-06-16T10:43:53Z</time>
      </trkpt>
      <trkpt lat="62.12972" lon="10.62683">
        <ele>514.40002441406</ele>
        <time>2019-06-16T10:44:02Z</time>
      </trkpt>
      <trkpt lat="62.13012" lon="10.62671">
        <ele>513.40002441406</ele>
        <time>2019-06-16T10:44:08Z</time>
      </trkpt>
      <trkpt lat="62.13112" lon="10.6265">
        <ele>512.59997558594</ele>
        <time>2019-06-16T10:44:20Z</time>
      </trkpt>
      <trkpt lat="62.1323" lon="10.62628">
        <ele>512.40002441406</ele>
        <time>2019-06-16T10:44:39Z</time>
      </trkpt>
      <trkpt lat="62.13291" lon="10.62617">
        <ele>512.79998779297</ele>
        <time>2019-06-16T10:44:48Z</time>
      </trkpt>
      <trkpt lat="62.13544" lon="10.62599">
        <ele>512.79998779297</ele>
        <time>2019-06-16T10:45:00Z</time>
      </trkpt>
      <trkpt lat="62.13663" lon="10.62618">
        <ele>513.79998779297</ele>
        <time>2019-06-16T10:45:12Z</time>
      </trkpt>
      <trkpt lat="62.13705" lon="10.62625">
        <ele>514.40002441406</ele>
        <time>2019-06-16T10:45:23Z</time>
      </trkpt>
      <trkpt lat="62.13828" lon="10.62646">
        <ele>515</ele>
        <time>2019-06-16T10:45:33Z</time>
      </trkpt>
      <trkpt lat="62.13853" lon="10.62651">
        <ele>515</ele>
        <time>2019-06-16T10:45:42Z</time>
      </trkpt>
      <trkpt lat="62.14021" lon="10.6265">
        <ele>524.59997558594</ele>
        <time>2019-06-16T10:49:24Z</time>
      </trkpt>
      <trkpt lat="62.14151" lon="10.62599">
        <ele>527.79998779297</ele>
        <time>2019-06-16T10:49:37Z</time>
      </trkpt>
      <trkpt lat="62.14192" lon="10.62576">
        <ele>528.20001220703</ele>
        <time>2019-06-16T10:49:53Z</time>
      </trkpt>
      <trkpt lat="62.14268" lon="10.62527">
        <ele>528.40002441406</ele>
        <time>2019-06-16T10:50:08Z</time>
      </trkpt>
      <trkpt lat="62.14302" lon="10.62496">
        <ele>528.79998779297</ele>
        <time>2019-06-16T10:50:21Z</time>
      </trkpt>
      <trkpt lat="62.14344" lon="10.62467">
        <ele>529.79998779297</ele>
        <time>2019-06-16T10:50:29Z</time>
      </trkpt>
      <trkpt lat="62.14398" lon="10.62449">
        <ele>529.59997558594</ele>
        <time>2019-06-16T10:50:37Z</time>
      </trkpt>
      <trkpt lat="62.14545" lon="10.62419">
        <ele>527.40002441406</ele>
        <time>2019-06-16T10:50:43Z</time>
      </trkpt>
      <trkpt lat="62.14626" lon="10.62393">
        <ele>528.59997558594</ele>
        <time>2019-06-16T10:50:58Z</time>
      </trkpt>
      <trkpt lat="62.14694" lon="10.62368">
        <ele>529</ele>
        <time>2019-06-16T10:51:13Z</time>
      </trkpt>
      <trkpt lat="62.14761" lon="10.62347">
        <ele>530</ele>
        <time>2019-06-16T10:51:35Z</time>
      </trkpt>
      <trkpt lat="62.14829" lon="10.62345">
        <ele>530.20001220703</ele>
        <time>2019-06-16T10:51:44Z</time>
      </trkpt>
      <trkpt lat="62.15006" lon="10.62375">
        <ele>532</ele>
        <time>2019-06-16T10:51:51Z</time>
      </trkpt>
      <trkpt lat="62.15118" lon="10.62402">
        <ele>532.40002441406</ele>
        <time>2019-06-16T10:51:59Z</time>
      </trkpt>
      <trkpt lat="62.15203" lon="10.62423">
        <ele>530.20001220703</ele>
        <time>2019-06-16T10:52:04Z</time>
      </trkpt>
      <trkpt lat="62.153" lon="10.62425">
        <ele>530.40002441406</ele>
        <time>2019-06-16T10:52:09Z</time>
      </trkpt>
      <trkpt lat="62.15351" lon="10.62414">
        <ele>531.20001220703</ele>
        <time>2019-06-16T10:52:27Z</time>
      </trkpt>
      <trkpt lat="62.15391" lon="10.62407">
        <ele>532.59997558594</ele>
        <time>2019-06-16T10:52:34Z</time>
      </trkpt>
      <trkpt lat="62.15496" lon="10.62399">
        <ele>533.40002441406</ele>
        <time>2019-06-16T10:52:43Z</time>
      </trkpt>
      <trkpt lat="62.15629" lon="10.62382">
        <ele>537.40002441406</ele>
        <time>2019-06-16T10:52:49Z</time>
      </trkpt>
      <trkpt lat="62.15719" lon="10.62363">
        <ele>541.40002441406</ele>
        <time>2019-06-16T10:53:05Z</time>
      </trkpt>
      <trkpt lat="62.15834" lon="10.62335">
        <ele>543.79998779297</ele>
        <time>2019-06-16T10:53:19Z</time>
      </trkpt>
      <trkpt lat="62.15945" lon="10.62309">
        <ele>543.79998779297</ele>
        <time>2019-06-16T10:53:32Z</time>
      </trkpt>
      <trkpt lat="62.16066" lon="10.62279">
        <ele>543.40002441406</ele>
        <time>2019-06-16T10:53:47Z</time>
      </trkpt>
      <trkpt lat="62.16136" lon="10.62275">
        <ele>543.79998779297</ele>
        <time>2019-06-16T10:54:01Z</time>
      </trkpt>
      <trkpt lat="62.16218" lon="10.62306">
        <ele>544.59997558594</ele>
        <time>2019-06-16T10:54:07Z</time>
      </trkpt>
      <trkpt lat="62.16267" lon="10.62332">
        <ele>545.79998779297</ele>
        <time>2019-06-16T10:54:14Z</time>
      </trkpt>
      <trkpt lat="62.16311" lon="10.62359">
        <ele>546.40002441406</ele>
        <time>2019-06-16T10:54:17Z</time>
      </trkpt>
      <trkpt lat="62.16419" lon="10.62384">
        <ele>545.20001220703</ele>
        <time>2019-06-16T10:54:20Z</time>
      </trkpt>
      <trkpt lat="62.16496" lon="10.62393">
        <ele>545.59997558594</ele>
        <time>2019-06-16T10:54:24Z</time>
      </trkpt>
      <trkpt lat="62.16568" lon="10.62453">
        <ele>545.59997558594</ele>
        <time>2019-06-16T10:54:28Z</time>
      </trkpt>
      <trkpt lat="62.16776" lon="10.6256">
        <ele>544.79998779297</ele>
        <time>2019-06-16T10:54:32Z</time>
      </trkpt>
      <trkpt lat="62.16971" lon="10.62628">
        <ele>541.59997558594</ele>
        <time>2019-06-16T10:54:37Z</time>
      </trkpt>
      <trkpt lat="62.17089" lon="10.6267">
        <ele>540.79998779297</ele>
        <time>2019-06-16T10:54:41Z</time>
      </trkpt>
      <trkpt lat="62.17156" lon="10.62702">
        <ele>540.59997558594</ele>
        <time>2019-06-16T10:54:47Z</time>
      </trkpt>
      <trkpt lat="62.17223" lon="10.62739">
        <ele>539</ele>
        <time>2019-06-16T10:54:51Z</time>
      </trkpt>
      <trkpt lat="62.17357" lon="10.62852">
        <ele>536.79998779297</ele>
        <time>2019-06-16T10:54:56Z</time>
      </trkpt>
      <trkpt lat="62.17464" lon="10.62915">
        <ele>536.59997558594</ele>
        <time>2019-06-16T10:55:02Z</time>
      </trkpt>
      <trkpt lat="62.17556" lon="10.62997">
        <ele>536.59997558594</ele>
        <time>2019-06-16T10:55:13Z</time>
      </trkpt>
      <trkpt lat="62.1763" lon="10.6309">
        <ele>537.40002441406</ele>
        <time>2019-06-16T10:55:23Z</time>
      </trkpt>
      <trkpt lat="62.17719" lon="10.63167">
        <ele>538.59997558594</ele>
        <time>2019-06-16T10:55:47Z</time>
      </trkpt>
      <trkpt lat="62.17775" lon="10.6323">
        <ele>538.59997558594</ele>
        <time>2019-06-16T10:55:56Z</time>
      </trkpt>
      <trkpt lat="62.17842" lon="10.63289">
        <ele>539</ele>
        <time>2019-06-16T10:56:18Z</time>
      </trkpt>
      <trkpt lat="62.17972" lon="10.63351">
        <ele>537.79998779297</ele>
        <time>2019-06-16T10:56:25Z</time>
      </trkpt>
      <trkpt lat="62.1806" lon="10.63392">
        <ele>533</ele>
        <time>2019-06-16T10:56:30Z</time>
      </trkpt>
      <trkpt lat="62.18124" lon="10.63427">
        <ele>532.79998779297</ele>
        <time>2019-06-16T10:56:41Z</time>
      </trkpt>
      <trkpt lat="62.18227" lon="10.6348">
        <ele>532.20001220703</ele>
        <time>2019-06-16T10:56:56Z</time>
      </trkpt>
      <trkpt lat="62.18365" lon="10.63575">
        <ele>528.20001220703</ele>
        <time>2019-06-16T10:57:10Z</time>
      </trkpt>
      <trkpt lat="62.18418" lon="10.6362">
        <ele>527.40002441406</ele>
        <time>2019-06-16T10:57:25Z</time>
      </trkpt>
      <trkpt lat="62.18506" lon="10.6369">
        <ele>526.59997558594</ele>
        <time>2019-06-16T10:57:39Z</time>
      </trkpt>
      <trkpt lat="62.18582" lon="10.63778">
        <ele>527</ele>
        <time>2019-06-16T10:57:58Z</time>
      </trkpt>
      <trkpt lat="62.18665" lon="10.63946">
        <ele>529</ele>
        <time>2019-06-16T10:58:04Z</time>
      </trkpt>
      <trkpt lat="62.18731" lon="10.64034">
        <ele>529.40002441406</ele>
        <time>2019-06-16T10:58:19Z</time>
      </trkpt>
      <trkpt lat="62.18782" lon="10.64086">
        <ele>530.20001220703</ele>
        <time>2019-06-16T10:58:33Z</time>
      </trkpt>
      <trkpt lat="62.18807" lon="10.64117">
        <ele>531</ele>
        <time>2019-06-16T10:58:39Z</time>
      </trkpt>
      <trkpt lat="62.18919" lon="10.64254">
        <ele>531</ele>
        <time>2019-06-16T10:59:00Z</time>
      </trkpt>
      <trkpt lat="62.18978" lon="10.64309">
        <ele>529.79998779297</ele>
        <time>2019-06-16T10:59:12Z</time>
      </trkpt>
      <trkpt lat="62.19023" lon="10.64342">
        <ele>529.40002441406</ele>
        <time>2019-06-16T10:59:16Z</time>
      </trkpt>
      <trkpt lat="62.1916" lon="10.6445">
        <ele>530.79998779297</ele>
        <time>2019-06-16T10:59:24Z</time>
      </trkpt>
      <trkpt lat="62.19231" lon="10.64543">
        <ele>532.40002441406</ele>
        <time>2019-06-16T10:59:29Z</time>
      </trkpt>
      <trkpt lat="62.19304" lon="10.64653">
        <ele>532.79998779297</ele>
        <time>2019-06-16T10:59:34Z</time>
      </trkpt>
      <trkpt lat="62.19354" lon="10.64713">
        <ele>532.79998779297</ele>
        <time>2019-06-16T10:59:49Z</time>
      </trkpt>
      <trkpt lat="62.19436" lon="10.64769">
        <ele>531.59997558594</ele>
        <time>2019-06-16T11:00:02Z</time>
      </trkpt>
      <trkpt lat="62.19537" lon="10.64769">
        <ele>529.40002441406</ele>
        <time>2019-06-16T11:00:11Z</time>
      </trkpt>
      <trkpt lat="62.19733" lon="10.64596">
        <ele>522.20001220703</ele>
        <time>2019-06-16T11:00:27Z</time>
      </trkpt>
      <trkpt lat="62.19796" lon="10.64583">
        <ele>520</ele>
        <time>2019-06-16T11:00:42Z</time>
      </trkpt>
      <trkpt lat="62.1999" lon="10.64699">
        <ele>509.20001220703</ele>
        <time>2019-06-16T11:01:04Z</time>
      </trkpt>
      <trkpt lat="62.20112" lon="10.64812">
        <ele>505.79998779297</ele>
        <time>2019-06-16T11:01:16Z</time>
      </trkpt>
      <trkpt lat="62.20184" lon="10.64888">
        <ele>505</ele>
        <time>2019-06-16T11:01:24Z</time>
      </trkpt>
      <trkpt lat="62.20233" lon="10.64941">
        <ele>505.20001220703</ele>
        <time>2019-06-16T11:01:41Z</time>
      </trkpt>
      <trkpt lat="62.20357" lon="10.65084">
        <ele>506.79998779297</ele>
        <time>2019-06-16T11:01:47Z</time>
      </trkpt>
      <trkpt lat="62.20397" lon="10.65129">
        <ele>507</ele>
        <time>2019-06-16T11:02:02Z</time>
      </trkpt>
      <trkpt lat="62.20605" lon="10.65365">
        <ele>507</ele>
        <time>2019-06-16T11:02:17Z</time>
      </trkpt>
      <trkpt lat="62.20667" lon="10.65442">
        <ele>507.20001220703</ele>
        <time>2019-06-16T11:02:33Z</time>
      </trkpt>
      <trkpt lat="62.20761" lon="10.65558">
        <ele>507.79998779297</ele>
        <time>2019-06-16T11:02:54Z</time>
      </trkpt>
      <trkpt lat="62.208" lon="10.6561">
        <ele>507.79998779297</ele>
        <time>2019-06-16T11:03:08Z</time>
      </trkpt>
      <trkpt lat="62.20874" lon="10.65708">
        <ele>507.60000610352</ele>
        <time>2019-06-16T11:03:13Z</time>
      </trkpt>
      <trkpt lat="62.20963" lon="10.65799">
        <ele>506.39999389648</ele>
        <time>2019-06-16T11:03:32Z</time>
      </trkpt>
      <trkpt lat="62.21112" lon="10.65897">
        <ele>503.79998779297</ele>
        <time>2019-06-16T11:03:40Z</time>
      </trkpt>
      <trkpt lat="62.21248" lon="10.65953">
        <ele>503.20001220703</ele>
        <time>2019-06-16T11:03:52Z</time>
      </trkpt>
      <trkpt lat="62.21346" lon="10.65992">
        <ele>503.60000610352</ele>
        <time>2019-06-16T11:03:59Z</time>
      </trkpt>
      <trkpt lat="62.21398" lon="10.66015">
        <ele>504</ele>
        <time>2019-06-16T11:04:08Z</time>
      </trkpt>
      <trkpt lat="62.21511" lon="10.66059">
        <ele>507.20001220703</ele>
        <time>2019-06-16T11:04:29Z</time>
      </trkpt>
      <trkpt lat="62.21589" lon="10.66089">
        <ele>508.20001220703</ele>
        <time>2019-06-16T11:04:37Z</time>
      </trkpt>
      <trkpt lat="62.21703" lon="10.66107">
        <ele>509</ele>
        <time>2019-06-16T11:04:50Z</time>
      </trkpt>
      <trkpt lat="62.2173" lon="10.6611">
        <ele>508.39999389648</ele>
        <time>2019-06-16T11:35:44Z</time>
      </trkpt>
      <trkpt lat="62.21748" lon="10.66108">
        <ele>508.39999389648</ele>
        <time>2019-06-16T11:35:50Z</time>
      </trkpt>
      <trkpt lat="62.21832" lon="10.66108">
        <ele>508.79998779297</ele>
        <time>2019-06-16T11:36:16Z</time>
      </trkpt>
      <trkpt lat="62.21894" lon="10.66119">
        <ele>508.60000610352</ele>
        <time>2019-06-16T11:36:28Z</time>
      </trkpt>
      <trkpt lat="62.22113" lon="10.66141">
        <ele>507.39999389648</ele>
        <time>2019-06-16T11:36:33Z</time>
      </trkpt>
      <trkpt lat="62.2218" lon="10.66121">
        <ele>507.20001220703</ele>
        <time>2019-06-16T11:36:52Z</time>
      </trkpt>
      <trkpt lat="62.22262" lon="10.66111">
        <ele>505.79998779297</ele>
        <time>2019-06-16T11:36:59Z</time>
      </trkpt>
      <trkpt lat="62.22319" lon="10.66134">
        <ele>503.60000610352</ele>
        <time>2019-06-16T11:37:05Z</time>
      </trkpt>
      <trkpt lat="62.22368" lon="10.6617">
        <ele>502.60000610352</ele>
        <time>2019-06-16T11:37:13Z</time>
      </trkpt>
      <trkpt lat="62.22496" lon="10.6627">
        <ele>502</ele>
        <time>2019-06-16T11:37:19Z</time>
      </trkpt>
      <trkpt lat="62.22572" lon="10.66329">
        <ele>503</ele>
        <time>2019-06-16T11:37:35Z</time>
      </trkpt>
      <trkpt lat="62.22663" lon="10.66393">
        <ele>502.79998779297</ele>
        <time>2019-06-16T11:37:49Z</time>
      </trkpt>
      <trkpt lat="62.22816" lon="10.66406">
        <ele>502.20001220703</ele>
        <time>2019-06-16T11:37:58Z</time>
      </trkpt>
      <trkpt lat="62.22955" lon="10.6638">
        <ele>503.79998779297</ele>
        <time>2019-06-16T11:38:14Z</time>
      </trkpt>
      <trkpt lat="62.23002" lon="10.6639">
        <ele>505</ele>
        <time>2019-06-16T11:38:21Z</time>
      </trkpt>
      <trkpt lat="62.2307" lon="10.66424">
        <ele>505.39999389648</ele>
        <time>2019-06-16T11:38:37Z</time>
      </trkpt>
      <trkpt lat="62.23183" lon="10.66518">
        <ele>503.60000610352</ele>
        <time>2019-06-16T11:38:50Z</time>
      </trkpt>
      <trkpt lat="62.23276" lon="10.66583">
        <ele>503.20001220703</ele>
        <time>2019-06-16T11:39:01Z</time>
      </trkpt>
      <trkpt lat="62.23344" lon="10.66611">
        <ele>503.79998779297</ele>
        <time>2019-06-16T11:39:11Z</time>
      </trkpt>
      <trkpt lat="62.2342" lon="10.66642">
        <ele>504.79998779297</ele>
        <time>2019-06-16T11:39:22Z</time>
      </trkpt>
      <trkpt lat="62.23511" lon="10.66682">
        <ele>505.39999389648</ele>
        <time>2019-06-16T11:39:29Z</time>
      </trkpt>
      <trkpt lat="62.23581" lon="10.66718">
        <ele>505.60000610352</ele>
        <time>2019-06-16T11:39:48Z</time>
      </trkpt>
      <trkpt lat="62.23695" lon="10.66804">
        <ele>506.20001220703</ele>
        <time>2019-06-16T11:40:01Z</time>
      </trkpt>
      <trkpt lat="62.23839" lon="10.66892">
        <ele>503.39999389648</ele>
        <time>2019-06-16T11:40:26Z</time>
      </trkpt>
      <trkpt lat="62.23933" lon="10.6693">
        <ele>502.79998779297</ele>
        <time>2019-06-16T11:40:40Z</time>
      </trkpt>
      <trkpt lat="62.23986" lon="10.66947">
        <ele>504.79998779297</ele>
        <time>2019-06-16T11:40:47Z</time>
      </trkpt>
      <trkpt lat="62.24079" lon="10.66956">
        <ele>505.79998779297</ele>
        <time>2019-06-16T11:41:08Z</time>
      </trkpt>
      <trkpt lat="62.24118" lon="10.66954">
        <ele>506</ele>
        <time>2019-06-16T11:41:23Z</time>
      </trkpt>
      <trkpt lat="62.24183" lon="10.66946">
        <ele>506.79998779297</ele>
        <time>2019-06-16T11:41:37Z</time>
      </trkpt>
      <trkpt lat="62.24272" lon="10.66942">
        <ele>507.39999389648</ele>
        <time>2019-06-16T11:41:56Z</time>
      </trkpt>
      <trkpt lat="62.24322" lon="10.66945">
        <ele>508</ele>
        <time>2019-06-16T11:42:09Z</time>
      </trkpt>
      <trkpt lat="62.24419" lon="10.6696">
        <ele>508.20001220703</ele>
        <time>2019-06-16T11:42:22Z</time>
      </trkpt>
      <trkpt lat="62.24487" lon="10.66974">
        <ele>508.20001220703</ele>
        <time>2019-06-16T11:42:30Z</time>
      </trkpt>
      <trkpt lat="62.24581" lon="10.67006">
        <ele>507.79998779297</ele>
        <time>2019-06-16T11:42:46Z</time>
      </trkpt>
      <trkpt lat="62.24695" lon="10.67063">
        <ele>507.79998779297</ele>
        <time>2019-06-16T11:42:56Z</time>
      </trkpt>
      <trkpt lat="62.24767" lon="10.67108">
        <ele>508.39999389648</ele>
        <time>2019-06-16T11:43:07Z</time>
      </trkpt>
      <trkpt lat="62.24803" lon="10.67135">
        <ele>509</ele>
        <time>2019-06-16T11:43:13Z</time>
      </trkpt>
      <trkpt lat="62.24913" lon="10.67231">
        <ele>508.39999389648</ele>
        <time>2019-06-16T11:43:33Z</time>
      </trkpt>
      <trkpt lat="62.25018" lon="10.67341">
        <ele>507.60000610352</ele>
        <time>2019-06-16T11:43:43Z</time>
      </trkpt>
      <trkpt lat="62.25082" lon="10.67413">
        <ele>507.60000610352</ele>
        <time>2019-06-16T11:43:59Z</time>
      </trkpt>
      <trkpt lat="62.25155" lon="10.67505">
        <ele>508.20001220703</ele>
        <time>2019-06-16T11:44:15Z</time>
      </trkpt>
      <trkpt lat="62.25254" lon="10.67647">
        <ele>509.79998779297</ele>
        <time>2019-06-16T11:44:30Z</time>
      </trkpt>
      <trkpt lat="62.2531" lon="10.6774">
        <ele>509.60000610352</ele>
        <time>2019-06-16T11:44:48Z</time>
      </trkpt>
      <trkpt lat="62.25387" lon="10.67885">
        <ele>508.79998779297</ele>
        <time>2019-06-16T11:45:02Z</time>
      </trkpt>
      <trkpt lat="62.25426" lon="10.67955">
        <ele>508.60000610352</ele>
        <time>2019-06-16T11:45:09Z</time>
      </trkpt>
      <trkpt lat="62.2551" lon="10.68116">
        <ele>509.20001220703</ele>
        <time>2019-06-16T11:45:18Z</time>
      </trkpt>
      <trkpt lat="62.25543" lon="10.68165">
        <ele>509.79998779297</ele>
        <time>2019-06-16T11:45:26Z</time>
      </trkpt>
      <trkpt lat="62.2561" lon="10.68255">
        <ele>510</ele>
        <time>2019-06-16T11:45:32Z</time>
      </trkpt>
      <trkpt lat="62.25713" lon="10.68379">
        <ele>510</ele>
        <time>2019-06-16T11:45:45Z</time>
      </trkpt>
      <trkpt lat="62.25782" lon="10.68475">
        <ele>510.39999389648</ele>
        <time>2019-06-16T11:45:57Z</time>
      </trkpt>
      <trkpt lat="62.25882" lon="10.68651">
        <ele>508.60000610352</ele>
        <time>2019-06-16T11:46:12Z</time>
      </trkpt>
      <trkpt lat="62.25913" lon="10.6872">
        <ele>508.79998779297</ele>
        <time>2019-06-16T11:46:26Z</time>
      </trkpt>
      <trkpt lat="62.25952" lon="10.68851">
        <ele>511.60000610352</ele>
        <time>2019-06-16T11:46:31Z</time>
      </trkpt>
      <trkpt lat="62.25981" lon="10.6902">
        <ele>511</ele>
        <time>2019-06-16T11:46:50Z</time>
      </trkpt>
      <trkpt lat="62.25996" lon="10.69106">
        <ele>509.60000610352</ele>
        <time>2019-06-16T11:47:05Z</time>
      </trkpt>
      <trkpt lat="62.26045" lon="10.69267">
        <ele>508.60000610352</ele>
        <time>2019-06-16T11:47:21Z</time>
      </trkpt>
      <trkpt lat="62.26093" lon="10.69366">
        <ele>510.60000610352</ele>
        <time>2019-06-16T11:47:31Z</time>
      </trkpt>
      <trkpt lat="62.26143" lon="10.69462">
        <ele>512</ele>
        <time>2019-06-16T11:47:46Z</time>
      </trkpt>
      <trkpt lat="62.26204" lon="10.69594">
        <ele>510.79998779297</ele>
        <time>2019-06-16T11:48:00Z</time>
      </trkpt>
      <trkpt lat="62.26256" lon="10.69691">
        <ele>510.79998779297</ele>
        <time>2019-06-16T11:48:09Z</time>
      </trkpt>
      <trkpt lat="62.26345" lon="10.69869">
        <ele>510.60000610352</ele>
        <time>2019-06-16T11:48:18Z</time>
      </trkpt>
      <trkpt lat="62.26413" lon="10.7002">
        <ele>510.20001220703</ele>
        <time>2019-06-16T11:48:28Z</time>
      </trkpt>
      <trkpt lat="62.26458" lon="10.7013">
        <ele>510.60000610352</ele>
        <time>2019-06-16T11:48:39Z</time>
      </trkpt>
      <trkpt lat="62.26533" lon="10.70418">
        <ele>509.39999389648</ele>
        <time>2019-06-16T11:48:51Z</time>
      </trkpt>
      <trkpt lat="62.26563" lon="10.70533">
        <ele>509.20001220703</ele>
        <time>2019-06-16T11:48:57Z</time>
      </trkpt>
      <trkpt lat="62.26604" lon="10.70692">
        <ele>508.20001220703</ele>
        <time>2019-06-16T11:49:09Z</time>
      </trkpt>
      <trkpt lat="62.2663" lon="10.70785">
        <ele>507.79998779297</ele>
        <time>2019-06-16T11:49:19Z</time>
      </trkpt>
      <trkpt lat="62.26715" lon="10.71024">
        <ele>507.39999389648</ele>
        <time>2019-06-16T11:49:30Z</time>
      </trkpt>
      <trkpt lat="62.2676" lon="10.7112">
        <ele>507.79998779297</ele>
        <time>2019-06-16T11:49:36Z</time>
      </trkpt>
      <trkpt lat="62.26804" lon="10.71209">
        <ele>508.60000610352</ele>
        <time>2019-06-16T11:49:41Z</time>
      </trkpt>
      <trkpt lat="62.26824" lon="10.7128">
        <ele>508.79998779297</ele>
        <time>2019-06-16T11:49:45Z</time>
      </trkpt>
      <trkpt lat="62.26849" lon="10.71428">
        <ele>509.60000610352</ele>
        <time>2019-06-16T11:49:50Z</time>
      </trkpt>
      <trkpt lat="62.2685" lon="10.71574">
        <ele>510.79998779297</ele>
        <time>2019-06-16T11:49:55Z</time>
      </trkpt>
      <trkpt lat="62.26847" lon="10.71667">
        <ele>511.79998779297</ele>
        <time>2019-06-16T11:49:58Z</time>
      </trkpt>
      <trkpt lat="62.26845" lon="10.71685">
        <ele>511.79998779297</ele>
        <time>2019-06-16T11:50:06Z</time>
      </trkpt>
      <trkpt lat="62.26836" lon="10.71778">
        <ele>512.20001220703</ele>
        <time>2019-06-16T11:50:11Z</time>
      </trkpt>
      <trkpt lat="62.26828" lon="10.71932">
        <ele>512.40002441406</ele>
        <time>2019-06-16T11:50:17Z</time>
      </trkpt>
      <trkpt lat="62.26816" lon="10.72149">
        <ele>510.79998779297</ele>
        <time>2019-06-16T11:50:20Z</time>
      </trkpt>
      <trkpt lat="62.26806" lon="10.72342">
        <ele>510</ele>
        <time>2019-06-16T11:50:23Z</time>
      </trkpt>
      <trkpt lat="62.26804" lon="10.72533">
        <ele>509.79998779297</ele>
        <time>2019-06-16T11:50:34Z</time>
      </trkpt>
      <trkpt lat="62.26801" lon="10.728">
        <ele>510.79998779297</ele>
        <time>2019-06-16T11:50:38Z</time>
      </trkpt>
      <trkpt lat="62.26797" lon="10.73">
        <ele>510.39999389648</ele>
        <time>2019-06-16T11:50:43Z</time>
      </trkpt>
      <trkpt lat="62.26793" lon="10.73187">
        <ele>508.60000610352</ele>
        <time>2019-06-16T11:50:50Z</time>
      </trkpt>
      <trkpt lat="62.26789" lon="10.73388">
        <ele>509</ele>
        <time>2019-06-16T11:50:53Z</time>
      </trkpt>
      <trkpt lat="62.26791" lon="10.73613">
        <ele>510</ele>
        <time>2019-06-16T11:50:58Z</time>
      </trkpt>
      <trkpt lat="62.26791" lon="10.73911">
        <ele>509.60000610352</ele>
        <time>2019-06-16T11:51:04Z</time>
      </trkpt>
      <trkpt lat="62.26801" lon="10.74148">
        <ele>508.39999389648</ele>
        <time>2019-06-16T11:51:09Z</time>
      </trkpt>
      <trkpt lat="62.26817" lon="10.74335">
        <ele>508.39999389648</ele>
        <time>2019-06-16T11:51:16Z</time>
      </trkpt>
      <trkpt lat="62.26841" lon="10.74508">
        <ele>509.39999389648</ele>
        <time>2019-06-16T11:51:33Z</time>
      </trkpt>
      <trkpt lat="62.26838" lon="10.74734">
        <ele>509.39999389648</ele>
        <time>2019-06-16T11:51:42Z</time>
      </trkpt>
      <trkpt lat="62.26842" lon="10.7485">
        <ele>509</ele>
        <time>2019-06-16T11:51:53Z</time>
      </trkpt>
      <trkpt lat="62.26857" lon="10.75015">
        <ele>509.60000610352</ele>
        <time>2019-06-16T11:52:09Z</time>
      </trkpt>
      <trkpt lat="62.26854" lon="10.75051">
        <ele>509.60000610352</ele>
        <time>2019-06-16T11:52:27Z</time>
      </trkpt>
      <trkpt lat="62.2684" lon="10.75135">
        <ele>509</ele>
        <time>2019-06-16T11:52:35Z</time>
      </trkpt>
      <trkpt lat="62.26827" lon="10.75272">
        <ele>507.20001220703</ele>
        <time>2019-06-16T11:52:46Z</time>
      </trkpt>
      <trkpt lat="62.26827" lon="10.75339">
        <ele>506</ele>
        <time>2019-06-16T11:52:59Z</time>
      </trkpt>
      <trkpt lat="62.26848" lon="10.75486">
        <ele>506.39999389648</ele>
        <time>2019-06-16T11:53:11Z</time>
      </trkpt>
      <trkpt lat="62.26887" lon="10.75627">
        <ele>510.79998779297</ele>
        <time>2019-06-16T11:53:26Z</time>
      </trkpt>
      <trkpt lat="62.26928" lon="10.75739">
        <ele>512.40002441406</ele>
        <time>2019-06-16T11:53:41Z</time>
      </trkpt>
      <trkpt lat="62.26957" lon="10.75894">
        <ele>512.40002441406</ele>
        <time>2019-06-16T11:53:47Z</time>
      </trkpt>
      <trkpt lat="62.26973" lon="10.76021">
        <ele>512.59997558594</ele>
        <time>2019-06-16T11:54:41Z</time>
      </trkpt>
      <trkpt lat="62.27005" lon="10.76198">
        <ele>513.59997558594</ele>
        <time>2019-06-16T11:54:49Z</time>
      </trkpt>
      <trkpt lat="62.27031" lon="10.76418">
        <ele>516.20001220703</ele>
        <time>2019-06-16T11:55:05Z</time>
      </trkpt>
      <trkpt lat="62.2704" lon="10.76523">
        <ele>516.79998779297</ele>
        <time>2019-06-16T11:55:30Z</time>
      </trkpt>
      <trkpt lat="62.27068" lon="10.76682">
        <ele>517.20001220703</ele>
        <time>2019-06-16T11:55:48Z</time>
      </trkpt>
      <trkpt lat="62.27107" lon="10.76806">
        <ele>516.40002441406</ele>
        <time>2019-06-16T11:55:58Z</time>
      </trkpt>
      <trkpt lat="62.27141" lon="10.76891">
        <ele>516</ele>
        <time>2019-06-16T11:56:26Z</time>
      </trkpt>
      <trkpt lat="62.27182" lon="10.76999">
        <ele>515.79998779297</ele>
        <time>2019-06-16T11:56:32Z</time>
      </trkpt>
      <trkpt lat="62.27237" lon="10.77123">
        <ele>514.79998779297</ele>
        <time>2019-06-16T11:56:47Z</time>
      </trkpt>
      <trkpt lat="62.27271" lon="10.77205">
        <ele>514.59997558594</ele>
        <time>2019-06-16T12:02:29Z</time>
      </trkpt>
      <trkpt lat="62.27292" lon="10.77268">
        <ele>514.59997558594</ele>
        <time>2019-06-16T12:02:37Z</time>
      </trkpt>
      <trkpt lat="62.27303" lon="10.77288">
        <ele>514.79998779297</ele>
        <time>2019-06-16T12:02:53Z</time>
      </trkpt>
      <trkpt lat="62.2735" lon="10.77398">
        <ele>515</ele>
        <time>2019-06-16T12:03:05Z</time>
      </trkpt>
      <trkpt lat="62.27427" lon="10.77619">
        <ele>515</ele>
        <time>2019-06-16T12:03:21Z</time>
      </trkpt>
      <trkpt lat="62.27423" lon="10.77658">
        <ele>514.59997558594</ele>
        <time>2019-06-16T12:03:49Z</time>
      </trkpt>
      <trkpt lat="62.27437" lon="10.77676">
        <ele>514.79998779297</ele>
        <time>2019-06-16T12:04:04Z</time>
      </trkpt>
      <trkpt lat="62.27437" lon="10.77691">
        <ele>514.40002441406</ele>
        <time>2019-06-16T12:04:20Z</time>
      </trkpt>
      <trkpt lat="62.27499" lon="10.77734">
        <ele>513.20001220703</ele>
        <time>2019-06-16T12:04:41Z</time>
      </trkpt>
      <trkpt lat="62.27573" lon="10.77676">
        <ele>512.20001220703</ele>
        <time>2019-06-16T12:04:52Z</time>
      </trkpt>
      <trkpt lat="62.27641" lon="10.77628">
        <ele>510.60000610352</ele>
        <time>2019-06-16T12:05:20Z</time>
      </trkpt>
      <trkpt lat="62.27693" lon="10.77582">
        <ele>508.39999389648</ele>
        <time>2019-06-16T12:05:32Z</time>
      </trkpt>
      <trkpt lat="62.27763" lon="10.77526">
        <ele>507</ele>
        <time>2019-06-16T12:05:58Z</time>
      </trkpt>
      <trkpt lat="62.27805" lon="10.77519">
        <ele>504.79998779297</ele>
        <time>2019-06-16T12:06:18Z</time>
      </trkpt>
      <trkpt lat="62.27813" lon="10.77561">
        <ele>504.20001220703</ele>
        <time>2019-06-16T12:06:31Z</time>
      </trkpt>
      <trkpt lat="62.27821" lon="10.77567">
        <ele>503.39999389648</ele>
        <time>2019-06-16T12:06:43Z</time>
      </trkpt>
      <trkpt lat="62.27823" lon="10.77538">
        <ele>503.39999389648</ele>
        <time>2019-06-16T12:06:56Z</time>
      </trkpt>
      <trkpt lat="62.27826" lon="10.77503">
        <ele>504.60000610352</ele>
        <time>2019-06-16T12:07:13Z</time>
      </trkpt>
      <trkpt lat="62.27905" lon="10.77383">
        <ele>504.20001220703</ele>
        <time>2019-06-16T12:07:27Z</time>
      </trkpt>
      <trkpt lat="62.27946" lon="10.773">
        <ele>504</ele>
        <time>2019-06-16T12:07:37Z</time>
      </trkpt>
      <trkpt lat="62.27977" lon="10.77262">
        <ele>504</ele>
        <time>2019-06-16T12:07:54Z</time>
      </trkpt>
      <trkpt lat="62.28029" lon="10.77204">
        <ele>505.20001220703</ele>
        <time>2019-06-16T12:08:14Z</time>
      </trkpt>
      <trkpt lat="62.28181" lon="10.77001">
        <ele>505.20001220703</ele>
        <time>2019-06-16T12:08:26Z</time>
      </trkpt>
      <trkpt lat="62.28222" lon="10.76947">
        <ele>504.39999389648</ele>
        <time>2019-06-16T12:08:43Z</time>
      </trkpt>
      <trkpt lat="62.28257" lon="10.76895">
        <ele>504.20001220703</ele>
        <time>2019-06-16T12:08:59Z</time>
      </trkpt>
      <trkpt lat="62.28266" lon="10.76864">
        <ele>504.20001220703</ele>
        <time>2019-06-16T12:09:17Z</time>
      </trkpt>
      <trkpt lat="62.28299" lon="10.76781">
        <ele>505</ele>
        <time>2019-06-16T12:09:41Z</time>
      </trkpt>
      <trkpt lat="62.28309" lon="10.76731">
        <ele>505</ele>
        <time>2019-06-16T12:10:00Z</time>
      </trkpt>
      <trkpt lat="62.2832" lon="10.76601">
        <ele>505.60000610352</ele>
        <time>2019-06-16T12:10:26Z</time>
      </trkpt>
      <trkpt lat="62.28333" lon="10.76408">
        <ele>505.79998779297</ele>
        <time>2019-06-16T12:10:41Z</time>
      </trkpt>
      <trkpt lat="62.28332" lon="10.764">
        <ele>506.20001220703</ele>
        <time>2019-06-16T12:10:46Z</time>
      </trkpt>
      <trkpt lat="62.28333" lon="10.7637">
        <ele>506</ele>
        <time>2019-06-16T12:10:50Z</time>
      </trkpt>
      <trkpt lat="62.28334" lon="10.76364">
        <ele>506.20001220703</ele>
        <time>2019-06-16T12:10:56Z</time>
      </trkpt>
      <trkpt lat="62.28345" lon="10.76204">
        <ele>505.39999389648</ele>
        <time>2019-06-16T12:10:59Z</time>
      </trkpt>
      <trkpt lat="62.28353" lon="10.75962">
        <ele>505.39999389648</ele>
        <time>2019-06-16T12:11:16Z</time>
      </trkpt>
      <trkpt lat="62.28337" lon="10.75879">
        <ele>505.79998779297</ele>
        <time>2019-06-16T12:11:29Z</time>
      </trkpt>
      <trkpt lat="62.28281" lon="10.75655">
        <ele>505.79998779297</ele>
        <time>2019-06-16T12:11:54Z</time>
      </trkpt>
      <trkpt lat="62.28286" lon="10.75585">
        <ele>506.20001220703</ele>
        <time>2019-06-16T12:12:11Z</time>
      </trkpt>
      <trkpt lat="62.283" lon="10.75523">
        <ele>506.39999389648</ele>
        <time>2019-06-16T12:12:27Z</time>
      </trkpt>
      <trkpt lat="62.28343" lon="10.75418">
        <ele>507.39999389648</ele>
        <time>2019-06-16T12:12:55Z</time>
      </trkpt>
      <trkpt lat="62.28373" lon="10.75352">
        <ele>507.39999389648</ele>
        <time>2019-06-16T12:13:04Z</time>
      </trkpt>
      <trkpt lat="62.28404" lon="10.75277">
        <ele>507.79998779297</ele>
        <time>2019-06-16T12:13:17Z</time>
      </trkpt>
      <trkpt lat="62.28422" lon="10.75192">
        <ele>507.79998779297</ele>
        <time>2019-06-16T12:13:28Z</time>
      </trkpt>
      <trkpt lat="62.28456" lon="10.75051">
        <ele>508</ele>
        <time>2019-06-16T12:13:40Z</time>
      </trkpt>
      <trkpt lat="62.28482" lon="10.74989">
        <ele>507.60000610352</ele>
        <time>2019-06-16T12:13:52Z</time>
      </trkpt>
      <trkpt lat="62.28576" lon="10.74845">
        <ele>505.39999389648</ele>
        <time>2019-06-16T12:14:00Z</time>
      </trkpt>
      <trkpt lat="62.28656" lon="10.74743">
        <ele>505</ele>
        <time>2019-06-16T12:14:09Z</time>
      </trkpt>
      <trkpt lat="62.28727" lon="10.74654">
        <ele>505.20001220703</ele>
        <time>2019-06-16T12:14:26Z</time>
      </trkpt>
      <trkpt lat="62.28859" lon="10.74456">
        <ele>505.20001220703</ele>
        <time>2019-06-16T12:14:34Z</time>
      </trkpt>
      <trkpt lat="62.28883" lon="10.74284">
        <ele>505.60000610352</ele>
        <time>2019-06-16T12:14:44Z</time>
      </trkpt>
      <trkpt lat="62.28878" lon="10.74137">
        <ele>506</ele>
        <time>2019-06-16T12:14:55Z</time>
      </trkpt>
      <trkpt lat="62.28866" lon="10.73931">
        <ele>506.20001220703</ele>
        <time>2019-06-16T12:15:05Z</time>
      </trkpt>
      <trkpt lat="62.28853" lon="10.73858">
        <ele>506.20001220703</ele>
        <time>2019-06-16T12:15:19Z</time>
      </trkpt>
      <trkpt lat="62.28844" lon="10.73744">
        <ele>504.60000610352</ele>
        <time>2019-06-16T12:15:35Z</time>
      </trkpt>
      <trkpt lat="62.28848" lon="10.73739">
        <ele>507</ele>
        <time>2019-06-16T12:15:41Z</time>
      </trkpt>
      <trkpt lat="62.2885" lon="10.73654">
        <ele>507.79998779297</ele>
        <time>2019-06-16T12:15:56Z</time>
      </trkpt>
      <trkpt lat="62.28862" lon="10.73619">
        <ele>507.79998779297</ele>
        <time>2019-06-16T12:16:00Z</time>
      </trkpt>
      <trkpt lat="62.28944" lon="10.73525">
        <ele>519</ele>
        <time>2019-06-16T12:16:03Z</time>
      </trkpt>
      <trkpt lat="62.28994" lon="10.73354">
        <ele>527.59997558594</ele>
        <time>2019-06-16T12:16:09Z</time>
      </trkpt>
      <trkpt lat="62.29014" lon="10.7331">
        <ele>531.20001220703</ele>
        <time>2019-06-16T12:16:13Z</time>
      </trkpt>
      <trkpt lat="62.29043" lon="10.73263">
        <ele>532.79998779297</ele>
        <time>2019-06-16T12:16:24Z</time>
      </trkpt>
      <trkpt lat="62.29085" lon="10.73228">
        <ele>532.79998779297</ele>
        <time>2019-06-16T12:16:30Z</time>
      </trkpt>
      <trkpt lat="62.29218" lon="10.73119">
        <ele>533.79998779297</ele>
        <time>2019-06-16T12:16:44Z</time>
      </trkpt>
      <trkpt lat="62.29266" lon="10.73053">
        <ele>536.59997558594</ele>
        <time>2019-06-16T12:16:58Z</time>
      </trkpt>
      <trkpt lat="62.29296" lon="10.73008">
        <ele>536.59997558594</ele>
        <time>2019-06-16T12:17:05Z</time>
      </trkpt>
      <trkpt lat="62.29356" lon="10.72938">
        <ele>537</ele>
        <time>2019-06-16T12:17:17Z</time>
      </trkpt>
      <trkpt lat="62.29418" lon="10.72863">
        <ele>536.20001220703</ele>
        <time>2019-06-16T12:17:24Z</time>
      </trkpt>
      <trkpt lat="62.29489" lon="10.72777">
        <ele>532.79998779297</ele>
        <time>2019-06-16T12:17:32Z</time>
      </trkpt>
      <trkpt lat="62.29537" lon="10.72716">
        <ele>531.79998779297</ele>
        <time>2019-06-16T12:17:49Z</time>
      </trkpt>
      <trkpt lat="62.29567" lon="10.7268">
        <ele>530.40002441406</ele>
        <time>2019-06-16T12:18:03Z</time>
      </trkpt>
      <trkpt lat="62.29695" lon="10.72519">
        <ele>531.20001220703</ele>
        <time>2019-06-16T12:18:08Z</time>
      </trkpt>
      <trkpt lat="62.29746" lon="10.72455">
        <ele>531.20001220703</ele>
        <time>2019-06-16T12:19:37Z</time>
      </trkpt>
      <trkpt lat="62.29839" lon="10.72335">
        <ele>532.40002441406</ele>
        <time>2019-06-16T12:19:55Z</time>
      </trkpt>
      <trkpt lat="62.29897" lon="10.72258">
        <ele>532.40002441406</ele>
        <time>2019-06-16T12:20:09Z</time>
      </trkpt>
      <trkpt lat="62.29991" lon="10.72089">
        <ele>532.59997558594</ele>
        <time>2019-06-16T12:20:18Z</time>
      </trkpt>
      <trkpt lat="62.30013" lon="10.72061">
        <ele>533.40002441406</ele>
        <time>2019-06-16T12:20:23Z</time>
      </trkpt>
      <trkpt lat="62.30066" lon="10.72014">
        <ele>533.79998779297</ele>
        <time>2019-06-16T12:20:33Z</time>
      </trkpt>
      <trkpt lat="62.30087" lon="10.71996">
        <ele>533.79998779297</ele>
        <time>2019-06-16T12:20:39Z</time>
      </trkpt>
      <trkpt lat="62.30134" lon="10.71976">
        <ele>533.20001220703</ele>
        <time>2019-06-16T12:20:44Z</time>
      </trkpt>
      <trkpt lat="62.30196" lon="10.71965">
        <ele>532</ele>
        <time>2019-06-16T12:21:02Z</time>
      </trkpt>
      <trkpt lat="62.30262" lon="10.71955">
        <ele>531.59997558594</ele>
        <time>2019-06-16T12:21:15Z</time>
      </trkpt>
      <trkpt lat="62.30301" lon="10.71945">
        <ele>531.59997558594</ele>
        <time>2019-06-16T12:21:21Z</time>
      </trkpt>
      <trkpt lat="62.30396" lon="10.71949">
        <ele>533.59997558594</ele>
        <time>2019-06-16T12:21:30Z</time>
      </trkpt>
      <trkpt lat="62.30457" lon="10.71994">
        <ele>534</ele>
        <time>2019-06-16T12:21:40Z</time>
      </trkpt>
      <trkpt lat="62.30464" lon="10.72002">
        <ele>533.59997558594</ele>
        <time>2019-06-16T12:21:53Z</time>
      </trkpt>
      <trkpt lat="62.30476" lon="10.72013">
        <ele>534</ele>
        <time>2019-06-16T12:22:04Z</time>
      </trkpt>
      <trkpt lat="62.3051" lon="10.72056">
        <ele>534.20001220703</ele>
        <time>2019-06-16T12:22:09Z</time>
      </trkpt>
      <trkpt lat="62.30542" lon="10.72091">
        <ele>535</ele>
        <time>2019-06-16T12:22:16Z</time>
      </trkpt>
      <trkpt lat="62.30595" lon="10.72139">
        <ele>534.40002441406</ele>
        <time>2019-06-16T12:22:18Z</time>
      </trkpt>
      <trkpt lat="62.3063" lon="10.72162">
        <ele>533.40002441406</ele>
        <time>2019-06-16T12:22:40Z</time>
      </trkpt>
      <trkpt lat="62.30681" lon="10.72181">
        <ele>531</ele>
        <time>2019-06-16T12:22:47Z</time>
      </trkpt>
      <trkpt lat="62.30686" lon="10.72181">
        <ele>531.40002441406</ele>
        <time>2019-06-16T12:22:58Z</time>
      </trkpt>
      <trkpt lat="62.30738" lon="10.72179">
        <ele>531.20001220703</ele>
        <time>2019-06-16T12:23:12Z</time>
      </trkpt>
      <trkpt lat="62.30763" lon="10.72162">
        <ele>531.40002441406</ele>
        <time>2019-06-16T12:23:19Z</time>
      </trkpt>
      <trkpt lat="62.30793" lon="10.72112">
        <ele>532.20001220703</ele>
        <time>2019-06-16T12:23:24Z</time>
      </trkpt>
      <trkpt lat="62.30817" lon="10.72053">
        <ele>534</ele>
        <time>2019-06-16T12:23:35Z</time>
      </trkpt>
      <trkpt lat="62.30838" lon="10.71996">
        <ele>534.20001220703</ele>
        <time>2019-06-16T12:23:41Z</time>
      </trkpt>
      <trkpt lat="62.30867" lon="10.71938">
        <ele>534.79998779297</ele>
        <time>2019-06-16T12:23:54Z</time>
      </trkpt>
      <trkpt lat="62.30845" lon="10.71975">
        <ele>534.79998779297</ele>
        <time>2019-06-16T12:24:03Z</time>
      </trkpt>
      <trkpt lat="62.30802" lon="10.72086">
        <ele>534.59997558594</ele>
        <time>2019-06-16T12:24:17Z</time>
      </trkpt>
      <trkpt lat="62.30762" lon="10.72159">
        <ele>534.20001220703</ele>
        <time>2019-06-16T12:24:35Z</time>
      </trkpt>
      <trkpt lat="62.3073" lon="10.72183">
        <ele>533</ele>
        <time>2019-06-16T12:24:42Z</time>
      </trkpt>
      <trkpt lat="62.30648" lon="10.72172">
        <ele>531.79998779297</ele>
        <time>2019-06-16T12:24:49Z</time>
      </trkpt>
      <trkpt lat="62.30578" lon="10.72129">
        <ele>532.40002441406</ele>
        <time>2019-06-16T12:25:02Z</time>
      </trkpt>
      <trkpt lat="62.30541" lon="10.72093">
        <ele>534.59997558594</ele>
        <time>2019-06-16T12:25:08Z</time>
      </trkpt>
      <trkpt lat="62.30521" lon="10.72066">
        <ele>535.20001220703</ele>
        <time>2019-06-16T12:25:18Z</time>
      </trkpt>
      <trkpt lat="62.30454" lon="10.71993">
        <ele>534.59997558594</ele>
        <time>2019-06-16T12:25:26Z</time>
      </trkpt>
      <trkpt lat="62.30409" lon="10.71947">
        <ele>534.40002441406</ele>
        <time>2019-06-16T12:25:38Z</time>
      </trkpt>
      <trkpt lat="62.30414" lon="10.71928">
        <ele>534.40002441406</ele>
        <time>2019-06-16T12:25:53Z</time>
      </trkpt>
      <trkpt lat="62.30451" lon="10.71909">
        <ele>535</ele>
        <time>2019-06-16T12:26:01Z</time>
      </trkpt>
      <trkpt lat="62.30531" lon="10.71832">
        <ele>538</ele>
        <time>2019-06-16T12:26:09Z</time>
      </trkpt>
      <trkpt lat="62.30577" lon="10.71784">
        <ele>538.79998779297</ele>
        <time>2019-06-16T12:26:16Z</time>
      </trkpt>
      <trkpt lat="62.30643" lon="10.71691">
        <ele>541.59997558594</ele>
        <time>2019-06-16T12:26:56Z</time>
      </trkpt>
      <trkpt lat="62.3068" lon="10.71618">
        <ele>548</ele>
        <time>2019-06-16T12:27:17Z</time>
      </trkpt>
      <trkpt lat="62.30724" lon="10.71479">
        <ele>551</ele>
        <time>2019-06-16T12:27:30Z</time>
      </trkpt>
      <trkpt lat="62.30785" lon="10.71379">
        <ele>559</ele>
        <time>2019-06-16T12:27:45Z</time>
      </trkpt>
      <trkpt lat="62.30817" lon="10.71327">
        <ele>561.59997558594</ele>
        <time>2019-06-16T12:28:00Z</time>
      </trkpt>
      <trkpt lat="62.3082" lon="10.71318">
        <ele>563.20001220703</ele>
        <time>2019-06-16T12:28:08Z</time>
      </trkpt>
      <trkpt lat="62.30834" lon="10.71275">
        <ele>563.20001220703</ele>
        <time>2019-06-16T12:28:15Z</time>
      </trkpt>
      <trkpt lat="62.30849" lon="10.71236">
        <ele>564.20001220703</ele>
        <time>2019-06-16T12:28:21Z</time>
      </trkpt>
      <trkpt lat="62.30885" lon="10.71142">
        <ele>569.40002441406</ele>
        <time>2019-06-16T12:28:28Z</time>
      </trkpt>
      <trkpt lat="62.30934" lon="10.71051">
        <ele>573.40002441406</ele>
        <time>2019-06-16T12:28:36Z</time>
      </trkpt>
      <trkpt lat="62.30954" lon="10.71027">
        <ele>576.59997558594</ele>
        <time>2019-06-16T12:28:46Z</time>
      </trkpt>
      <trkpt lat="62.30993" lon="10.71004">
        <ele>577.79998779297</ele>
        <time>2019-06-16T12:28:53Z</time>
      </trkpt>
      <trkpt lat="62.31108" lon="10.70925">
        <ele>585</ele>
        <time>2019-06-16T12:29:05Z</time>
      </trkpt>
      <trkpt lat="62.31201" lon="10.70805">
        <ele>590.40002441406</ele>
        <time>2019-06-16T12:29:15Z</time>
      </trkpt>
      <trkpt lat="62.31242" lon="10.70735">
        <ele>594.79998779297</ele>
        <time>2019-06-16T12:31:10Z</time>
      </trkpt>
      <trkpt lat="62.31357" lon="10.70477">
        <ele>612.79998779297</ele>
        <time>2019-06-16T12:31:22Z</time>
      </trkpt>
      <trkpt lat="62.31427" lon="10.70405">
        <ele>624.59997558594</ele>
        <time>2019-06-16T12:31:38Z</time>
      </trkpt>
      <trkpt lat="62.315" lon="10.70342">
        <ele>630.79998779297</ele>
        <time>2019-06-16T12:31:50Z</time>
      </trkpt>
      <trkpt lat="62.31554" lon="10.7027">
        <ele>632.20001220703</ele>
        <time>2019-06-16T12:31:58Z</time>
      </trkpt>
      <trkpt lat="62.31594" lon="10.7021">
        <ele>635</ele>
        <time>2019-06-16T12:32:10Z</time>
      </trkpt>
      <trkpt lat="62.31646" lon="10.7014">
        <ele>637</ele>
        <time>2019-06-16T12:32:21Z</time>
      </trkpt>
      <trkpt lat="62.31689" lon="10.70079">
        <ele>636.59997558594</ele>
        <time>2019-06-16T12:32:29Z</time>
      </trkpt>
      <trkpt lat="62.31711" lon="10.70031">
        <ele>636</ele>
        <time>2019-06-16T12:32:36Z</time>
      </trkpt>
      <trkpt lat="62.31743" lon="10.69963">
        <ele>637.79998779297</ele>
        <time>2019-06-16T12:32:41Z</time>
      </trkpt>
      <trkpt lat="62.31768" lon="10.69912">
        <ele>642.20001220703</ele>
        <time>2019-06-16T12:32:48Z</time>
      </trkpt>
      <trkpt lat="62.31822" lon="10.6978">
        <ele>649.20001220703</ele>
        <time>2019-06-16T12:33:36Z</time>
      </trkpt>
      <trkpt lat="62.31832" lon="10.69755">
        <ele>650</ele>
        <time>2019-06-16T12:33:45Z</time>
      </trkpt>
      <trkpt lat="62.31849" lon="10.69698">
        <ele>650.59997558594</ele>
        <time>2019-06-16T12:33:57Z</time>
      </trkpt>
      <trkpt lat="62.31871" lon="10.69599">
        <ele>654.40002441406</ele>
        <time>2019-06-16T12:34:19Z</time>
      </trkpt>
      <trkpt lat="62.31877" lon="10.6957">
        <ele>655</ele>
        <time>2019-06-16T12:34:27Z</time>
      </trkpt>
      <trkpt lat="62.31888" lon="10.69523">
        <ele>655.40002441406</ele>
        <time>2019-06-16T12:34:45Z</time>
      </trkpt>
      <trkpt lat="62.31909" lon="10.69407">
        <ele>659.59997558594</ele>
        <time>2019-06-16T12:34:56Z</time>
      </trkpt>
      <trkpt lat="62.31922" lon="10.69352">
        <ele>660.59997558594</ele>
        <time>2019-06-16T12:35:02Z</time>
      </trkpt>
      <trkpt lat="62.31944" lon="10.69275">
        <ele>663.59997558594</ele>
        <time>2019-06-16T12:35:13Z</time>
      </trkpt>
      <trkpt lat="62.31953" lon="10.69219">
        <ele>668.79998779297</ele>
        <time>2019-06-16T12:35:19Z</time>
      </trkpt>
      <trkpt lat="62.31966" lon="10.69153">
        <ele>671.20001220703</ele>
        <time>2019-06-16T12:35:26Z</time>
      </trkpt>
      <trkpt lat="62.31972" lon="10.69134">
        <ele>670</ele>
        <time>2019-06-16T12:35:47Z</time>
      </trkpt>
      <trkpt lat="62.31982" lon="10.69097">
        <ele>670.79998779297</ele>
        <time>2019-06-16T12:35:59Z</time>
      </trkpt>
      <trkpt lat="62.31998" lon="10.69034">
        <ele>671.40002441406</ele>
        <time>2019-06-16T12:36:15Z</time>
      </trkpt>
      <trkpt lat="62.32043" lon="10.68921">
        <ele>671.59997558594</ele>
        <time>2019-06-16T12:36:28Z</time>
      </trkpt>
      <trkpt lat="62.32064" lon="10.68877">
        <ele>672</ele>
        <time>2019-06-16T12:36:33Z</time>
      </trkpt>
      <trkpt lat="62.32111" lon="10.68801">
        <ele>671.59997558594</ele>
        <time>2019-06-16T12:36:41Z</time>
      </trkpt>
      <trkpt lat="62.32154" lon="10.68726">
        <ele>670.79998779297</ele>
        <time>2019-06-16T12:36:45Z</time>
      </trkpt>
      <trkpt lat="62.32178" lon="10.68669">
        <ele>671.79998779297</ele>
        <time>2019-06-16T12:36:53Z</time>
      </trkpt>
      <trkpt lat="62.32182" lon="10.68659">
        <ele>673</ele>
        <time>2019-06-16T12:36:59Z</time>
      </trkpt>
      <trkpt lat="62.32199" lon="10.68623">
        <ele>674</ele>
        <time>2019-06-16T12:40:44Z</time>
      </trkpt>
      <trkpt lat="62.32257" lon="10.68533">
        <ele>675</ele>
        <time>2019-06-16T12:40:57Z</time>
      </trkpt>
      <trkpt lat="62.32309" lon="10.68435">
        <ele>680.20001220703</ele>
        <time>2019-06-16T12:41:08Z</time>
      </trkpt>
      <trkpt lat="62.32331" lon="10.68395">
        <ele>684.79998779297</ele>
        <time>2019-06-16T12:41:18Z</time>
      </trkpt>
      <trkpt lat="62.32356" lon="10.68363">
        <ele>685.40002441406</ele>
        <time>2019-06-16T12:41:25Z</time>
      </trkpt>
      <trkpt lat="62.32378" lon="10.68335">
        <ele>687.40002441406</ele>
        <time>2019-06-16T12:41:29Z</time>
      </trkpt>
      <trkpt lat="62.32415" lon="10.68285">
        <ele>688.79998779297</ele>
        <time>2019-06-16T12:41:39Z</time>
      </trkpt>
      <trkpt lat="62.32425" lon="10.68283">
        <ele>690.79998779297</ele>
        <time>2019-06-16T12:41:44Z</time>
      </trkpt>
      <trkpt lat="62.32432" lon="10.68277">
        <ele>690.59997558594</ele>
        <time>2019-06-16T12:41:55Z</time>
      </trkpt>
      <trkpt lat="62.32454" lon="10.68248">
        <ele>690.59997558594</ele>
        <time>2019-06-16T12:42:07Z</time>
      </trkpt>
      <trkpt lat="62.32494" lon="10.68196">
        <ele>692</ele>
        <time>2019-06-16T12:42:13Z</time>
      </trkpt>
      <trkpt lat="62.32529" lon="10.68151">
        <ele>695</ele>
        <time>2019-06-16T12:42:19Z</time>
      </trkpt>
      <trkpt lat="62.3255" lon="10.68124">
        <ele>695.40002441406</ele>
        <time>2019-06-16T12:42:38Z</time>
      </trkpt>
      <trkpt lat="62.32575" lon="10.6808">
        <ele>696.79998779297</ele>
        <time>2019-06-16T12:42:51Z</time>
      </trkpt>
      <trkpt lat="62.32612" lon="10.68009">
        <ele>700.59997558594</ele>
        <time>2019-06-16T12:43:08Z</time>
      </trkpt>
      <trkpt lat="62.32653" lon="10.67969">
        <ele>704.40002441406</ele>
        <time>2019-06-16T12:43:15Z</time>
      </trkpt>
      <trkpt lat="62.32723" lon="10.67908">
        <ele>707.40002441406</ele>
        <time>2019-06-16T12:43:21Z</time>
      </trkpt>
      <trkpt lat="62.32789" lon="10.67819">
        <ele>708.79998779297</ele>
        <time>2019-06-16T12:43:33Z</time>
      </trkpt>
      <trkpt lat="62.32899" lon="10.67681">
        <ele>718.59997558594</ele>
        <time>2019-06-16T12:43:47Z</time>
      </trkpt>
      <trkpt lat="62.32911" lon="10.67662">
        <ele>718.59997558594</ele>
        <time>2019-06-16T12:44:04Z</time>
      </trkpt>
      <trkpt lat="62.32931" lon="10.67635">
        <ele>720</ele>
        <time>2019-06-16T12:44:11Z</time>
      </trkpt>
      <trkpt lat="62.33076" lon="10.67422">
        <ele>735.20001220703</ele>
        <time>2019-06-16T12:44:17Z</time>
      </trkpt>
      <trkpt lat="62.33176" lon="10.67293">
        <ele>741</ele>
        <time>2019-06-16T12:44:31Z</time>
      </trkpt>
      <trkpt lat="62.33238" lon="10.67248">
        <ele>744.79998779297</ele>
        <time>2019-06-16T12:44:43Z</time>
      </trkpt>
      <trkpt lat="62.33281" lon="10.67177">
        <ele>747.40002441406</ele>
        <time>2019-06-16T12:44:49Z</time>
      </trkpt>
      <trkpt lat="62.33306" lon="10.67142">
        <ele>750.40002441406</ele>
        <time>2019-06-16T12:45:00Z</time>
      </trkpt>
      <trkpt lat="62.33317" lon="10.67125">
        <ele>750.20001220703</ele>
        <time>2019-06-16T12:45:14Z</time>
      </trkpt>
      <trkpt lat="62.33511" lon="10.66885">
        <ele>757.40002441406</ele>
        <time>2019-06-16T12:45:26Z</time>
      </trkpt>
      <trkpt lat="62.3355" lon="10.66815">
        <ele>758</ele>
        <time>2019-06-16T12:45:37Z</time>
      </trkpt>
      <trkpt lat="62.33577" lon="10.66752">
        <ele>757.59997558594</ele>
        <time>2019-06-16T12:45:44Z</time>
      </trkpt>
      <trkpt lat="62.33602" lon="10.66701">
        <ele>757.59997558594</ele>
        <time>2019-06-16T12:45:57Z</time>
      </trkpt>
      <trkpt lat="62.33647" lon="10.66599">
        <ele>759.40002441406</ele>
        <time>2019-06-16T12:46:03Z</time>
      </trkpt>
      <trkpt lat="62.33668" lon="10.66537">
        <ele>762.59997558594</ele>
        <time>2019-06-16T12:46:12Z</time>
      </trkpt>
      <trkpt lat="62.33706" lon="10.66443">
        <ele>762</ele>
        <time>2019-06-16T12:46:18Z</time>
      </trkpt>
      <trkpt lat="62.33763" lon="10.66314">
        <ele>759.59997558594</ele>
        <time>2019-06-16T12:46:25Z</time>
      </trkpt>
      <trkpt lat="62.33782" lon="10.66272">
        <ele>758.40002441406</ele>
        <time>2019-06-16T12:46:31Z</time>
      </trkpt>
      <trkpt lat="62.33855" lon="10.66124">
        <ele>756.20001220703</ele>
        <time>2019-06-16T12:46:40Z</time>
      </trkpt>
      <trkpt lat="62.33918" lon="10.66032">
        <ele>752.59997558594</ele>
        <time>2019-06-16T12:46:49Z</time>
      </trkpt>
      <trkpt lat="62.33952" lon="10.65992">
        <ele>752</ele>
        <time>2019-06-16T12:47:03Z</time>
      </trkpt>
      <trkpt lat="62.34006" lon="10.65941">
        <ele>748.20001220703</ele>
        <time>2019-06-16T12:47:14Z</time>
      </trkpt>
      <trkpt lat="62.34035" lon="10.65912">
        <ele>743.59997558594</ele>
        <time>2019-06-16T12:47:19Z</time>
      </trkpt>
      <trkpt lat="62.34093" lon="10.65868">
        <ele>742.20001220703</ele>
        <time>2019-06-16T12:47:29Z</time>
      </trkpt>
      <trkpt lat="62.34124" lon="10.65829">
        <ele>744.20001220703</ele>
        <time>2019-06-16T12:47:33Z</time>
      </trkpt>
      <trkpt lat="62.34162" lon="10.65743">
        <ele>743.79998779297</ele>
        <time>2019-06-16T12:47:36Z</time>
      </trkpt>
      <trkpt lat="62.34203" lon="10.65649">
        <ele>743.20001220703</ele>
        <time>2019-06-16T12:47:41Z</time>
      </trkpt>
      <trkpt lat="62.3423" lon="10.65583">
        <ele>743.79998779297</ele>
        <time>2019-06-16T12:47:44Z</time>
      </trkpt>
      <trkpt lat="62.34241" lon="10.65559">
        <ele>745</ele>
        <time>2019-06-16T12:47:50Z</time>
      </trkpt>
      <trkpt lat="62.34258" lon="10.65522">
        <ele>744.20001220703</ele>
        <time>2019-06-16T12:47:52Z</time>
      </trkpt>
      <trkpt lat="62.34266" lon="10.65507">
        <ele>744.20001220703</ele>
        <time>2019-06-16T12:48:18Z</time>
      </trkpt>
      <trkpt lat="62.34297" lon="10.65461">
        <ele>743.40002441406</ele>
        <time>2019-06-16T12:50:15Z</time>
      </trkpt>
      <trkpt lat="62.34333" lon="10.65371">
        <ele>740</ele>
        <time>2019-06-16T12:50:21Z</time>
      </trkpt>
      <trkpt lat="62.34356" lon="10.6526">
        <ele>734.40002441406</ele>
        <time>2019-06-16T12:50:25Z</time>
      </trkpt>
      <trkpt lat="62.34373" lon="10.65246">
        <ele>732.20001220703</ele>
        <time>2019-06-16T12:50:31Z</time>
      </trkpt>
      <trkpt lat="62.34391" lon="10.65249">
        <ele>732.40002441406</ele>
        <time>2019-06-16T12:50:34Z</time>
      </trkpt>
      <trkpt lat="62.34462" lon="10.6526">
        <ele>739.79998779297</ele>
        <time>2019-06-16T12:50:39Z</time>
      </trkpt>
      <trkpt lat="62.34519" lon="10.65269">
        <ele>740.79998779297</ele>
        <time>2019-06-16T12:50:45Z</time>
      </trkpt>
      <trkpt lat="62.34546" lon="10.65266">
        <ele>740.79998779297</ele>
        <time>2019-06-16T12:50:50Z</time>
      </trkpt>
      <trkpt lat="62.34621" lon="10.6524">
        <ele>748</ele>
        <time>2019-06-16T12:50:54Z</time>
      </trkpt>
      <trkpt lat="62.34695" lon="10.65225">
        <ele>753</ele>
        <time>2019-06-16T12:50:56Z</time>
      </trkpt>
      <trkpt lat="62.34739" lon="10.65212">
        <ele>754.20001220703</ele>
        <time>2019-06-16T12:51:01Z</time>
      </trkpt>
      <trkpt lat="62.34777" lon="10.65175">
        <ele>753.40002441406</ele>
        <time>2019-06-16T12:51:03Z</time>
      </trkpt>
      <trkpt lat="62.34809" lon="10.65144">
        <ele>751.79998779297</ele>
        <time>2019-06-16T12:51:07Z</time>
      </trkpt>
      <trkpt lat="62.34957" lon="10.65171">
        <ele>742.59997558594</ele>
        <time>2019-06-16T12:51:20Z</time>
      </trkpt>
      <trkpt lat="62.35024" lon="10.65119">
        <ele>740.59997558594</ele>
        <time>2019-06-16T12:51:29Z</time>
      </trkpt>
      <trkpt lat="62.35047" lon="10.65092">
        <ele>740.20001220703</ele>
        <time>2019-06-16T12:51:47Z</time>
      </trkpt>
      <trkpt lat="62.35076" lon="10.65057">
        <ele>740.20001220703</ele>
        <time>2019-06-16T12:52:08Z</time>
      </trkpt>
      <trkpt lat="62.35119" lon="10.6497">
        <ele>738.20001220703</ele>
        <time>2019-06-16T12:52:19Z</time>
      </trkpt>
      <trkpt lat="62.35134" lon="10.64924">
        <ele>739.20001220703</ele>
        <time>2019-06-16T12:52:35Z</time>
      </trkpt>
      <trkpt lat="62.35157" lon="10.64871">
        <ele>743</ele>
        <time>2019-06-16T12:52:52Z</time>
      </trkpt>
      <trkpt lat="62.35164" lon="10.6484">
        <ele>743.59997558594</ele>
        <time>2019-06-16T12:53:07Z</time>
      </trkpt>
      <trkpt lat="62.35168" lon="10.64824">
        <ele>743.20001220703</ele>
        <time>2019-06-16T12:53:28Z</time>
      </trkpt>
      <trkpt lat="62.3519" lon="10.64778">
        <ele>742.79998779297</ele>
        <time>2019-06-16T12:53:34Z</time>
      </trkpt>
      <trkpt lat="62.3523" lon="10.64745">
        <ele>743</ele>
        <time>2019-06-16T12:53:41Z</time>
      </trkpt>
      <trkpt lat="62.35272" lon="10.64713">
        <ele>743</ele>
        <time>2019-06-16T12:54:11Z</time>
      </trkpt>
      <trkpt lat="62.35301" lon="10.64682">
        <ele>742.79998779297</ele>
        <time>2019-06-16T12:54:22Z</time>
      </trkpt>
      <trkpt lat="62.35355" lon="10.64603">
        <ele>741.79998779297</ele>
        <time>2019-06-16T12:54:34Z</time>
      </trkpt>
      <trkpt lat="62.35373" lon="10.64576">
        <ele>741.20001220703</ele>
        <time>2019-06-16T12:54:39Z</time>
      </trkpt>
      <trkpt lat="62.35428" lon="10.64478">
        <ele>740.40002441406</ele>
        <time>2019-06-16T12:54:43Z</time>
      </trkpt>
      <trkpt lat="62.35454" lon="10.64415">
        <ele>739.59997558594</ele>
        <time>2019-06-16T12:54:55Z</time>
      </trkpt>
      <trkpt lat="62.35471" lon="10.64351">
        <ele>739.59997558594</ele>
        <time>2019-06-16T12:55:04Z</time>
      </trkpt>
      <trkpt lat="62.35502" lon="10.64267">
        <ele>740.59997558594</ele>
        <time>2019-06-16T12:55:22Z</time>
      </trkpt>
      <trkpt lat="62.35601" lon="10.64103">
        <ele>738.20001220703</ele>
        <time>2019-06-16T12:55:46Z</time>
      </trkpt>
      <trkpt lat="62.35645" lon="10.63996">
        <ele>737.40002441406</ele>
        <time>2019-06-16T12:56:04Z</time>
      </trkpt>
      <trkpt lat="62.35667" lon="10.6393">
        <ele>735.79998779297</ele>
        <time>2019-06-16T12:56:16Z</time>
      </trkpt>
      <trkpt lat="62.35675" lon="10.63906">
        <ele>734.20001220703</ele>
        <time>2019-06-16T12:56:21Z</time>
      </trkpt>
      <trkpt lat="62.35704" lon="10.63829">
        <ele>732.40002441406</ele>
        <time>2019-06-16T12:56:30Z</time>
      </trkpt>
      <trkpt lat="62.35768" lon="10.63705">
        <ele>733.59997558594</ele>
        <time>2019-06-16T12:56:35Z</time>
      </trkpt>
      <trkpt lat="62.35796" lon="10.63665">
        <ele>734.59997558594</ele>
        <time>2019-06-16T12:56:40Z</time>
      </trkpt>
      <trkpt lat="62.35835" lon="10.63455">
        <ele>740</ele>
        <time>2019-06-16T12:56:55Z</time>
      </trkpt>
      <trkpt lat="62.35851" lon="10.63328">
        <ele>744</ele>
        <time>2019-06-16T12:57:18Z</time>
      </trkpt>
      <trkpt lat="62.35854" lon="10.63294">
        <ele>744.20001220703</ele>
        <time>2019-06-16T12:57:34Z</time>
      </trkpt>
      <trkpt lat="62.35855" lon="10.63245">
        <ele>744.20001220703</ele>
        <time>2019-06-16T12:57:49Z</time>
      </trkpt>
      <trkpt lat="62.35853" lon="10.63121">
        <ele>741.20001220703</ele>
        <time>2019-06-16T12:57:59Z</time>
      </trkpt>
      <trkpt lat="62.35849" lon="10.63068">
        <ele>740.79998779297</ele>
        <time>2019-06-16T12:58:11Z</time>
      </trkpt>
      <trkpt lat="62.35851" lon="10.62953">
        <ele>740.40002441406</ele>
        <time>2019-06-16T12:58:18Z</time>
      </trkpt>
      <trkpt lat="62.35867" lon="10.6292">
        <ele>740.40002441406</ele>
        <time>2019-06-16T12:58:26Z</time>
      </trkpt>
      <trkpt lat="62.35896" lon="10.62873">
        <ele>740.20001220703</ele>
        <time>2019-06-16T12:58:33Z</time>
      </trkpt>
      <trkpt lat="62.35939" lon="10.62762">
        <ele>740.40002441406</ele>
        <time>2019-06-16T12:58:47Z</time>
      </trkpt>
      <trkpt lat="62.35955" lon="10.62656">
        <ele>740.20001220703</ele>
        <time>2019-06-16T12:58:56Z</time>
      </trkpt>
      <trkpt lat="62.35965" lon="10.62617">
        <ele>739.79998779297</ele>
        <time>2019-06-16T12:59:24Z</time>
      </trkpt>
      <trkpt lat="62.35994" lon="10.62502">
        <ele>740.59997558594</ele>
        <time>2019-06-16T12:59:45Z</time>
      </trkpt>
      <trkpt lat="62.36" lon="10.62476">
        <ele>741.40002441406</ele>
        <time>2019-06-16T12:59:52Z</time>
      </trkpt>
      <trkpt lat="62.36022" lon="10.623">
        <ele>742.40002441406</ele>
        <time>2019-06-16T01:00:05Z</time>
      </trkpt>
      <trkpt lat="62.36024" lon="10.62279">
        <ele>742</ele>
        <time>2019-06-16T01:00:07Z</time>
      </trkpt>
      <trkpt lat="62.36046" lon="10.62128">
        <ele>745.20001220703</ele>
        <time>2019-06-16T01:00:14Z</time>
      </trkpt>
      <trkpt lat="62.36077" lon="10.61987">
        <ele>744</ele>
        <time>2019-06-16T01:00:17Z</time>
      </trkpt>
      <trkpt lat="62.36083" lon="10.61942">
        <ele>743.40002441406</ele>
        <time>2019-06-16T01:00:21Z</time>
      </trkpt>
      <trkpt lat="62.3612" lon="10.61628">
        <ele>741.40002441406</ele>
        <time>2019-06-16T01:00:39Z</time>
      </trkpt>
      <trkpt lat="62.36137" lon="10.61557">
        <ele>740.59997558594</ele>
        <time>2019-06-16T01:00:52Z</time>
      </trkpt>
      <trkpt lat="62.36156" lon="10.61469">
        <ele>739.40002441406</ele>
        <time>2019-06-16T01:01:06Z</time>
      </trkpt>
      <trkpt lat="62.36166" lon="10.61357">
        <ele>737.20001220703</ele>
        <time>2019-06-16T01:01:24Z</time>
      </trkpt>
      <trkpt lat="62.36169" lon="10.61319">
        <ele>736</ele>
        <time>2019-06-16T01:01:31Z</time>
      </trkpt>
      <trkpt lat="62.36173" lon="10.61241">
        <ele>735.20001220703</ele>
        <time>2019-06-16T01:01:39Z</time>
      </trkpt>
      <trkpt lat="62.36155" lon="10.61125">
        <ele>735</ele>
        <time>2019-06-16T01:01:47Z</time>
      </trkpt>
      <trkpt lat="62.36144" lon="10.61056">
        <ele>734.59997558594</ele>
        <time>2019-06-16T01:02:05Z</time>
      </trkpt>
      <trkpt lat="62.36131" lon="10.60977">
        <ele>736.20001220703</ele>
        <time>2019-06-16T01:02:25Z</time>
      </trkpt>
      <trkpt lat="62.36103" lon="10.60855">
        <ele>742</ele>
        <time>2019-06-16T01:02:39Z</time>
      </trkpt>
      <trkpt lat="62.36088" lon="10.608">
        <ele>743</ele>
        <time>2019-06-16T01:02:47Z</time>
      </trkpt>
      <trkpt lat="62.36071" lon="10.60765">
        <ele>742.79998779297</ele>
        <time>2019-06-16T01:02:57Z</time>
      </trkpt>
      <trkpt lat="62.36057" lon="10.6069">
        <ele>741</ele>
        <time>2019-06-16T01:03:01Z</time>
      </trkpt>
      <trkpt lat="62.36066" lon="10.60639">
        <ele>741.79998779297</ele>
        <time>2019-06-16T01:03:12Z</time>
      </trkpt>
      <trkpt lat="62.36081" lon="10.60536">
        <ele>741</ele>
        <time>2019-06-16T01:03:19Z</time>
      </trkpt>
      <trkpt lat="62.36087" lon="10.60468">
        <ele>741.79998779297</ele>
        <time>2019-06-16T01:03:25Z</time>
      </trkpt>
      <trkpt lat="62.36093" lon="10.60351">
        <ele>742.40002441406</ele>
        <time>2019-06-16T01:03:48Z</time>
      </trkpt>
      <trkpt lat="62.36093" lon="10.60304">
        <ele>743.40002441406</ele>
        <time>2019-06-16T01:03:55Z</time>
      </trkpt>
      <trkpt lat="62.36099" lon="10.60214">
        <ele>743</ele>
        <time>2019-06-16T01:04:03Z</time>
      </trkpt>
      <trkpt lat="62.36105" lon="10.60166">
        <ele>742</ele>
        <time>2019-06-16T01:04:21Z</time>
      </trkpt>
      <trkpt lat="62.36125" lon="10.60006">
        <ele>740.79998779297</ele>
        <time>2019-06-16T01:04:25Z</time>
      </trkpt>
      <trkpt lat="62.36134" lon="10.59926">
        <ele>740.79998779297</ele>
        <time>2019-06-16T01:04:38Z</time>
      </trkpt>
      <trkpt lat="62.36137" lon="10.59888">
        <ele>739.59997558594</ele>
        <time>2019-06-16T01:07:26Z</time>
      </trkpt>
      <trkpt lat="62.36147" lon="10.59808">
        <ele>739.40002441406</ele>
        <time>2019-06-16T01:07:43Z</time>
      </trkpt>
      <trkpt lat="62.36148" lon="10.598">
        <ele>739.20001220703</ele>
        <time>2019-06-16T01:08:00Z</time>
      </trkpt>
      <trkpt lat="62.36155" lon="10.59733">
        <ele>738.79998779297</ele>
        <time>2019-06-16T01:08:10Z</time>
      </trkpt>
      <trkpt lat="62.36175" lon="10.59625">
        <ele>737.40002441406</ele>
        <time>2019-06-16T01:08:15Z</time>
      </trkpt>
      <trkpt lat="62.36202" lon="10.59542">
        <ele>734.59997558594</ele>
        <time>2019-06-16T01:08:26Z</time>
      </trkpt>
      <trkpt lat="62.36231" lon="10.5944">
        <ele>734</ele>
        <time>2019-06-16T01:08:30Z</time>
      </trkpt>
      <trkpt lat="62.36245" lon="10.59389">
        <ele>733.20001220703</ele>
        <time>2019-06-16T01:08:40Z</time>
      </trkpt>
      <trkpt lat="62.36297" lon="10.59332">
        <ele>728.59997558594</ele>
        <time>2019-06-16T01:08:44Z</time>
      </trkpt>
      <trkpt lat="62.36405" lon="10.59282">
        <ele>719.20001220703</ele>
        <time>2019-06-16T01:08:50Z</time>
      </trkpt>
      <trkpt lat="62.36456" lon="10.59275">
        <ele>711.79998779297</ele>
        <time>2019-06-16T01:09:03Z</time>
      </trkpt>
      <trkpt lat="62.36521" lon="10.59292">
        <ele>706.79998779297</ele>
        <time>2019-06-16T01:09:15Z</time>
      </trkpt>
      <trkpt lat="62.36544" lon="10.59259">
        <ele>702.20001220703</ele>
        <time>2019-06-16T01:09:28Z</time>
      </trkpt>
      <trkpt lat="62.36565" lon="10.59206">
        <ele>701.79998779297</ele>
        <time>2019-06-16T01:09:47Z</time>
      </trkpt>
      <trkpt lat="62.36589" lon="10.59132">
        <ele>696.59997558594</ele>
        <time>2019-06-16T01:10:01Z</time>
      </trkpt>
      <trkpt lat="62.36597" lon="10.59141">
        <ele>692.40002441406</ele>
        <time>2019-06-16T01:10:14Z</time>
      </trkpt>
      <trkpt lat="62.36584" lon="10.59225">
        <ele>692.20001220703</ele>
        <time>2019-06-16T01:10:29Z</time>
      </trkpt>
      <trkpt lat="62.36579" lon="10.59273">
        <ele>691.59997558594</ele>
        <time>2019-06-16T01:10:44Z</time>
      </trkpt>
      <trkpt lat="62.36584" lon="10.5939">
        <ele>691</ele>
        <time>2019-06-16T01:11:04Z</time>
      </trkpt>
      <trkpt lat="62.36588" lon="10.5942">
        <ele>691.59997558594</ele>
        <time>2019-06-16T01:11:10Z</time>
      </trkpt>
      <trkpt lat="62.36589" lon="10.59429">
        <ele>691.40002441406</ele>
        <time>2019-06-16T01:11:16Z</time>
      </trkpt>
      <trkpt lat="62.36592" lon="10.59476">
        <ele>691.20001220703</ele>
        <time>2019-06-16T01:11:31Z</time>
      </trkpt>
      <trkpt lat="62.36596" lon="10.59524">
        <ele>691.59997558594</ele>
        <time>2019-06-16T01:11:45Z</time>
      </trkpt>
      <trkpt lat="62.36601" lon="10.59607">
        <ele>691.59997558594</ele>
        <time>2019-06-16T01:12:04Z</time>
      </trkpt>
      <trkpt lat="62.36611" lon="10.59662">
        <ele>691.20001220703</ele>
        <time>2019-06-16T01:12:19Z</time>
      </trkpt>
      <trkpt lat="62.36642" lon="10.59743">
        <ele>689.20001220703</ele>
        <time>2019-06-16T01:12:36Z</time>
      </trkpt>
      <trkpt lat="62.36659" lon="10.59762">
        <ele>689.20001220703</ele>
        <time>2019-06-16T01:12:54Z</time>
      </trkpt>
      <trkpt lat="62.36689" lon="10.59677">
        <ele>691</ele>
        <time>2019-06-16T01:12:59Z</time>
      </trkpt>
      <trkpt lat="62.36704" lon="10.59627">
        <ele>692.79998779297</ele>
        <time>2019-06-16T01:13:10Z</time>
      </trkpt>
      <trkpt lat="62.36722" lon="10.59553">
        <ele>694.20001220703</ele>
        <time>2019-06-16T01:13:23Z</time>
      </trkpt>
      <trkpt lat="62.36758" lon="10.59391">
        <ele>699.40002441406</ele>
        <time>2019-06-16T01:13:34Z</time>
      </trkpt>
      <trkpt lat="62.36759" lon="10.59387">
        <ele>700.40002441406</ele>
        <time>2019-06-16T01:13:59Z</time>
      </trkpt>
      <trkpt lat="62.36778" lon="10.59291">
        <ele>701.40002441406</ele>
        <time>2019-06-16T01:14:16Z</time>
      </trkpt>
      <trkpt lat="62.36795" lon="10.59212">
        <ele>704</ele>
        <time>2019-06-16T01:14:35Z</time>
      </trkpt>
      <trkpt lat="62.36841" lon="10.5899">
        <ele>709.20001220703</ele>
        <time>2019-06-16T01:14:57Z</time>
      </trkpt>
      <trkpt lat="62.36849" lon="10.58977">
        <ele>710.20001220703</ele>
        <time>2019-06-16T01:15:09Z</time>
      </trkpt>
      <trkpt lat="62.36849" lon="10.58953">
        <ele>710.20001220703</ele>
        <time>2019-06-16T01:15:18Z</time>
      </trkpt>
      <trkpt lat="62.36858" lon="10.58902">
        <ele>710.59997558594</ele>
        <time>2019-06-16T01:15:34Z</time>
      </trkpt>
      <trkpt lat="62.36866" lon="10.58853">
        <ele>711.79998779297</ele>
        <time>2019-06-16T01:15:48Z</time>
      </trkpt>
      <trkpt lat="62.36883" lon="10.58707">
        <ele>713.59997558594</ele>
        <time>2019-06-16T01:16:06Z</time>
      </trkpt>
      <trkpt lat="62.36892" lon="10.585">
        <ele>719</ele>
        <time>2019-06-16T01:16:15Z</time>
      </trkpt>
      <trkpt lat="62.36886" lon="10.58333">
        <ele>722.59997558594</ele>
        <time>2019-06-16T01:16:29Z</time>
      </trkpt>
      <trkpt lat="62.36876" lon="10.58234">
        <ele>725.59997558594</ele>
        <time>2019-06-16T01:16:44Z</time>
      </trkpt>
      <trkpt lat="62.36866" lon="10.58155">
        <ele>726.59997558594</ele>
        <time>2019-06-16T01:16:51Z</time>
      </trkpt>
      <trkpt lat="62.36858" lon="10.58096">
        <ele>728</ele>
        <time>2019-06-16T01:17:10Z</time>
      </trkpt>
      <trkpt lat="62.36853" lon="10.58064">
        <ele>729.40002441406</ele>
        <time>2019-06-16T01:17:19Z</time>
      </trkpt>
      <trkpt lat="62.36779" lon="10.57778">
        <ele>735.59997558594</ele>
        <time>2019-06-16T01:17:31Z</time>
      </trkpt>
      <trkpt lat="62.36683" lon="10.57554">
        <ele>739.40002441406</ele>
        <time>2019-06-16T01:17:41Z</time>
      </trkpt>
      <trkpt lat="62.3666" lon="10.57494">
        <ele>739.79998779297</ele>
        <time>2019-06-16T01:17:51Z</time>
      </trkpt>
      <trkpt lat="62.36629" lon="10.57393">
        <ele>742.20001220703</ele>
        <time>2019-06-16T01:17:59Z</time>
      </trkpt>
      <trkpt lat="62.36582" lon="10.57148">
        <ele>745</ele>
        <time>2019-06-16T01:18:14Z</time>
      </trkpt>
      <trkpt lat="62.36569" lon="10.56907">
        <ele>747</ele>
        <time>2019-06-16T01:18:27Z</time>
      </trkpt>
      <trkpt lat="62.36578" lon="10.56695">
        <ele>749.59997558594</ele>
        <time>2019-06-16T01:18:44Z</time>
      </trkpt>
      <trkpt lat="62.36598" lon="10.56439">
        <ele>755.20001220703</ele>
        <time>2019-06-16T01:18:49Z</time>
      </trkpt>
      <trkpt lat="62.36602" lon="10.56273">
        <ele>760</ele>
        <time>2019-06-16T01:18:52Z</time>
      </trkpt>
      <trkpt lat="62.36598" lon="10.56201">
        <ele>761.40002441406</ele>
        <time>2019-06-16T01:19:14Z</time>
      </trkpt>
      <trkpt lat="62.36593" lon="10.56139">
        <ele>761.59997558594</ele>
        <time>2019-06-16T01:19:25Z</time>
      </trkpt>
      <trkpt lat="62.36585" lon="10.56059">
        <ele>761.40002441406</ele>
        <time>2019-06-16T01:19:35Z</time>
      </trkpt>
      <trkpt lat="62.36563" lon="10.5587">
        <ele>761.40002441406</ele>
        <time>2019-06-16T01:19:50Z</time>
      </trkpt>
      <trkpt lat="62.36544" lon="10.55531">
        <ele>756.40002441406</ele>
        <time>2019-06-16T01:19:53Z</time>
      </trkpt>
      <trkpt lat="62.36562" lon="10.55258">
        <ele>750.40002441406</ele>
        <time>2019-06-16T01:20:06Z</time>
      </trkpt>
      <trkpt lat="62.36585" lon="10.5511">
        <ele>745.40002441406</ele>
        <time>2019-06-16T01:20:17Z</time>
      </trkpt>
      <trkpt lat="62.36608" lon="10.54982">
        <ele>742</ele>
        <time>2019-06-16T01:20:25Z</time>
      </trkpt>
      <trkpt lat="62.36748" lon="10.54361">
        <ele>728.79998779297</ele>
        <time>2019-06-16T01:20:39Z</time>
      </trkpt>
      <trkpt lat="62.36784" lon="10.54239">
        <ele>727.79998779297</ele>
        <time>2019-06-16T01:20:48Z</time>
      </trkpt>
      <trkpt lat="62.36901" lon="10.53924">
        <ele>727.20001220703</ele>
        <time>2019-06-16T01:20:57Z</time>
      </trkpt>
      <trkpt lat="62.36931" lon="10.53849">
        <ele>727.40002441406</ele>
        <time>2019-06-16T01:21:08Z</time>
      </trkpt>
      <trkpt lat="62.36999" lon="10.53681">
        <ele>727.59997558594</ele>
        <time>2019-06-16T01:21:16Z</time>
      </trkpt>
      <trkpt lat="62.37044" lon="10.53565">
        <ele>728.20001220703</ele>
        <time>2019-06-16T01:21:30Z</time>
      </trkpt>
      <trkpt lat="62.37083" lon="10.53467">
        <ele>729</ele>
        <time>2019-06-16T01:21:39Z</time>
      </trkpt>
      <trkpt lat="62.37153" lon="10.53285">
        <ele>731.59997558594</ele>
        <time>2019-06-16T01:21:47Z</time>
      </trkpt>
      <trkpt lat="62.37204" lon="10.53137">
        <ele>734.59997558594</ele>
        <time>2019-06-16T01:22:03Z</time>
      </trkpt>
      <trkpt lat="62.37222" lon="10.53058">
        <ele>735</ele>
        <time>2019-06-16T01:22:09Z</time>
      </trkpt>
      <trkpt lat="62.37241" lon="10.52988">
        <ele>736</ele>
        <time>2019-06-16T01:22:17Z</time>
      </trkpt>
      <trkpt lat="62.37266" lon="10.52898">
        <ele>736.79998779297</ele>
        <time>2019-06-16T01:22:31Z</time>
      </trkpt>
      <trkpt lat="62.37291" lon="10.52804">
        <ele>738</ele>
        <time>2019-06-16T01:22:40Z</time>
      </trkpt>
      <trkpt lat="62.37356" lon="10.52563">
        <ele>742.40002441406</ele>
        <time>2019-06-16T01:22:54Z</time>
      </trkpt>
      <trkpt lat="62.37381" lon="10.52473">
        <ele>742.79998779297</ele>
        <time>2019-06-16T01:23:03Z</time>
      </trkpt>
      <trkpt lat="62.37433" lon="10.52276">
        <ele>742.59997558594</ele>
        <time>2019-06-16T01:23:14Z</time>
      </trkpt>
      <trkpt lat="62.3747" lon="10.52125">
        <ele>743</ele>
        <time>2019-06-16T01:23:22Z</time>
      </trkpt>
      <trkpt lat="62.37506" lon="10.5197">
        <ele>744.59997558594</ele>
        <time>2019-06-16T01:23:31Z</time>
      </trkpt>
      <trkpt lat="62.37525" lon="10.51889">
        <ele>746</ele>
        <time>2019-06-16T01:23:44Z</time>
      </trkpt>
      <trkpt lat="62.37536" lon="10.51847">
        <ele>748</ele>
        <time>2019-06-16T01:23:50Z</time>
      </trkpt>
      <trkpt lat="62.37539" lon="10.5183">
        <ele>748</ele>
        <time>2019-06-16T01:24:01Z</time>
      </trkpt>
      <trkpt lat="62.37559" lon="10.5174">
        <ele>749</ele>
        <time>2019-06-16T01:25:40Z</time>
      </trkpt>
      <trkpt lat="62.37576" lon="10.51664">
        <ele>750.59997558594</ele>
        <time>2019-06-16T01:25:55Z</time>
      </trkpt>
      <trkpt lat="62.37649" lon="10.51341">
        <ele>753.79998779297</ele>
        <time>2019-06-16T01:26:07Z</time>
      </trkpt>
      <trkpt lat="62.37683" lon="10.51192">
        <ele>754.59997558594</ele>
        <time>2019-06-16T01:26:23Z</time>
      </trkpt>
      <trkpt lat="62.37747" lon="10.5091">
        <ele>755.79998779297</ele>
        <time>2019-06-16T01:26:30Z</time>
      </trkpt>
      <trkpt lat="62.37773" lon="10.50792">
        <ele>756.40002441406</ele>
        <time>2019-06-16T01:26:40Z</time>
      </trkpt>
      <trkpt lat="62.37823" lon="10.50571">
        <ele>756.40002441406</ele>
        <time>2019-06-16T01:26:44Z</time>
      </trkpt>
      <trkpt lat="62.37864" lon="10.50394">
        <ele>756.59997558594</ele>
        <time>2019-06-16T01:26:51Z</time>
      </trkpt>
      <trkpt lat="62.37879" lon="10.50323">
        <ele>756.20001220703</ele>
        <time>2019-06-16T01:26:56Z</time>
      </trkpt>
      <trkpt lat="62.37933" lon="10.50091">
        <ele>755.40002441406</ele>
        <time>2019-06-16T01:27:03Z</time>
      </trkpt>
      <trkpt lat="62.37998" lon="10.49841">
        <ele>755</ele>
        <time>2019-06-16T01:27:14Z</time>
      </trkpt>
      <trkpt lat="62.38061" lon="10.49651">
        <ele>754.40002441406</ele>
        <time>2019-06-16T01:27:25Z</time>
      </trkpt>
      <trkpt lat="62.38102" lon="10.49545">
        <ele>754.40002441406</ele>
        <time>2019-06-16T01:27:36Z</time>
      </trkpt>
      <trkpt lat="62.3822" lon="10.49246">
        <ele>756.20001220703</ele>
        <time>2019-06-16T01:37:46Z</time>
      </trkpt>
      <trkpt lat="62.38245" lon="10.49174">
        <ele>756.40002441406</ele>
        <time>2019-06-16T01:37:54Z</time>
      </trkpt>
      <trkpt lat="62.38295" lon="10.48994">
        <ele>757.20001220703</ele>
        <time>2019-06-16T01:38:06Z</time>
      </trkpt>
      <trkpt lat="62.3832" lon="10.48873">
        <ele>757.59997558594</ele>
        <time>2019-06-16T01:38:12Z</time>
      </trkpt>
      <trkpt lat="62.3835" lon="10.48677">
        <ele>758</ele>
        <time>2019-06-16T01:38:15Z</time>
      </trkpt>
      <trkpt lat="62.38385" lon="10.48412">
        <ele>755.79998779297</ele>
        <time>2019-06-16T01:38:25Z</time>
      </trkpt>
      <trkpt lat="62.38417" lon="10.48182">
        <ele>752.59997558594</ele>
        <time>2019-06-16T01:38:47Z</time>
      </trkpt>
      <trkpt lat="62.38457" lon="10.47944">
        <ele>748.79998779297</ele>
        <time>2019-06-16T01:39:07Z</time>
      </trkpt>
      <trkpt lat="62.38581" lon="10.47409">
        <ele>739.40002441406</ele>
        <time>2019-06-16T01:39:28Z</time>
      </trkpt>
      <trkpt lat="62.38693" lon="10.47052">
        <ele>731.79998779297</ele>
        <time>2019-06-16T01:39:48Z</time>
      </trkpt>
      <trkpt lat="62.38773" lon="10.46843">
        <ele>726.20001220703</ele>
        <time>2019-06-16T01:40:00Z</time>
      </trkpt>
      <trkpt lat="62.38872" lon="10.4662">
        <ele>719.20001220703</ele>
        <time>2019-06-16T01:40:24Z</time>
      </trkpt>
      <trkpt lat="62.39002" lon="10.46364">
        <ele>714.79998779297</ele>
        <time>2019-06-16T01:40:36Z</time>
      </trkpt>
      <trkpt lat="62.39142" lon="10.46075">
        <ele>712.20001220703</ele>
        <time>2019-06-16T01:40:48Z</time>
      </trkpt>
      <trkpt lat="62.39189" lon="10.45951">
        <ele>713.40002441406</ele>
        <time>2019-06-16T01:40:56Z</time>
      </trkpt>
      <trkpt lat="62.39284" lon="10.45622">
        <ele>719.40002441406</ele>
        <time>2019-06-16T01:41:06Z</time>
      </trkpt>
      <trkpt lat="62.39315" lon="10.45484">
        <ele>720.79998779297</ele>
        <time>2019-06-16T01:41:17Z</time>
      </trkpt>
      <trkpt lat="62.39343" lon="10.45333">
        <ele>721.79998779297</ele>
        <time>2019-06-16T01:41:24Z</time>
      </trkpt>
      <trkpt lat="62.3936" lon="10.45237">
        <ele>722.20001220703</ele>
        <time>2019-06-16T01:41:32Z</time>
      </trkpt>
      <trkpt lat="62.39364" lon="10.45215">
        <ele>722.40002441406</ele>
        <time>2019-06-16T01:41:50Z</time>
      </trkpt>
      <trkpt lat="62.39364" lon="10.45201">
        <ele>723.20001220703</ele>
        <time>2019-06-16T01:41:59Z</time>
      </trkpt>
      <trkpt lat="62.39377" lon="10.45079">
        <ele>723.40002441406</ele>
        <time>2019-06-16T01:42:06Z</time>
      </trkpt>
      <trkpt lat="62.39391" lon="10.44923">
        <ele>724.20001220703</ele>
        <time>2019-06-16T01:42:15Z</time>
      </trkpt>
      <trkpt lat="62.394" lon="10.44765">
        <ele>724.59997558594</ele>
        <time>2019-06-16T01:42:22Z</time>
      </trkpt>
      <trkpt lat="62.39415" lon="10.44557">
        <ele>723.79998779297</ele>
        <time>2019-06-16T01:42:28Z</time>
      </trkpt>
      <trkpt lat="62.39423" lon="10.44426">
        <ele>722.79998779297</ele>
        <time>2019-06-16T01:46:30Z</time>
      </trkpt>
      <trkpt lat="62.39446" lon="10.44199">
        <ele>720.59997558594</ele>
        <time>2019-06-16T01:46:36Z</time>
      </trkpt>
      <trkpt lat="62.39484" lon="10.44006">
        <ele>718.40002441406</ele>
        <time>2019-06-16T01:46:47Z</time>
      </trkpt>
      <trkpt lat="62.39518" lon="10.4389">
        <ele>717.40002441406</ele>
        <time>2019-06-16T01:46:59Z</time>
      </trkpt>
      <trkpt lat="62.39563" lon="10.43771">
        <ele>715.59997558594</ele>
        <time>2019-06-16T01:47:09Z</time>
      </trkpt>
      <trkpt lat="62.39596" lon="10.43694">
        <ele>715.20001220703</ele>
        <time>2019-06-16T01:47:21Z</time>
      </trkpt>
      <trkpt lat="62.39677" lon="10.4352">
        <ele>714.59997558594</ele>
        <time>2019-06-16T01:47:33Z</time>
      </trkpt>
      <trkpt lat="62.39728" lon="10.43405">
        <ele>714.40002441406</ele>
        <time>2019-06-16T01:47:50Z</time>
      </trkpt>
      <trkpt lat="62.39794" lon="10.4323">
        <ele>714.40002441406</ele>
        <time>2019-06-16T01:48:05Z</time>
      </trkpt>
      <trkpt lat="62.39839" lon="10.43017">
        <ele>713.79998779297</ele>
        <time>2019-06-16T01:48:12Z</time>
      </trkpt>
      <trkpt lat="62.39876" lon="10.42791">
        <ele>714.79998779297</ele>
        <time>2019-06-16T01:48:26Z</time>
      </trkpt>
      <trkpt lat="62.39893" lon="10.42711">
        <ele>716.59997558594</ele>
        <time>2019-06-16T01:48:33Z</time>
      </trkpt>
      <trkpt lat="62.39925" lon="10.42603">
        <ele>718.20001220703</ele>
        <time>2019-06-16T01:48:52Z</time>
      </trkpt>
      <trkpt lat="62.39945" lon="10.42551">
        <ele>719.40002441406</ele>
        <time>2019-06-16T01:48:58Z</time>
      </trkpt>
      <trkpt lat="62.40041" lon="10.42388">
        <ele>721.59997558594</ele>
        <time>2019-06-16T01:49:02Z</time>
      </trkpt>
      <trkpt lat="62.40122" lon="10.42322">
        <ele>720.59997558594</ele>
        <time>2019-06-16T01:49:10Z</time>
      </trkpt>
      <trkpt lat="62.40344" lon="10.42231">
        <ele>714.79998779297</ele>
        <time>2019-06-16T01:49:14Z</time>
      </trkpt>
      <trkpt lat="62.4046" lon="10.42169">
        <ele>714.79998779297</ele>
        <time>2019-06-16T01:49:17Z</time>
      </trkpt>
      <trkpt lat="62.40524" lon="10.42111">
        <ele>715.40002441406</ele>
        <time>2019-06-16T01:49:23Z</time>
      </trkpt>
      <trkpt lat="62.40633" lon="10.41973">
        <ele>717.59997558594</ele>
        <time>2019-06-16T01:49:26Z</time>
      </trkpt>
      <trkpt lat="62.4068" lon="10.41893">
        <ele>718.20001220703</ele>
        <time>2019-06-16T01:49:31Z</time>
      </trkpt>
      <trkpt lat="62.40778" lon="10.41723">
        <ele>720.59997558594</ele>
        <time>2019-06-16T01:49:35Z</time>
      </trkpt>
      <trkpt lat="62.40808" lon="10.41672">
        <ele>720.79998779297</ele>
        <time>2019-06-16T01:49:42Z</time>
      </trkpt>
      <trkpt lat="62.40916" lon="10.4153">
        <ele>720.79998779297</ele>
        <time>2019-06-16T01:49:51Z</time>
      </trkpt>
      <trkpt lat="62.41009" lon="10.41456">
        <ele>720.59997558594</ele>
        <time>2019-06-16T01:49:55Z</time>
      </trkpt>
      <trkpt lat="62.41108" lon="10.41418">
        <ele>720.59997558594</ele>
        <time>2019-06-16T01:50:00Z</time>
      </trkpt>
      <trkpt lat="62.41221" lon="10.41414">
        <ele>722</ele>
        <time>2019-06-16T01:50:06Z</time>
      </trkpt>
      <trkpt lat="62.4125" lon="10.41447">
        <ele>723</ele>
        <time>2019-06-16T01:50:10Z</time>
      </trkpt>
      <trkpt lat="62.41249" lon="10.41438">
        <ele>722.59997558594</ele>
        <time>2019-06-16T01:50:16Z</time>
      </trkpt>
      <trkpt lat="62.41257" lon="10.41422">
        <ele>722.79998779297</ele>
        <time>2019-06-16T01:50:22Z</time>
      </trkpt>
      <trkpt lat="62.41304" lon="10.41414">
        <ele>722.79998779297</ele>
        <time>2019-06-16T01:50:26Z</time>
      </trkpt>
      <trkpt lat="62.4137" lon="10.41394">
        <ele>722</ele>
        <time>2019-06-16T01:50:31Z</time>
      </trkpt>
      <trkpt lat="62.41499" lon="10.41292">
        <ele>719.59997558594</ele>
        <time>2019-06-16T01:50:40Z</time>
      </trkpt>
      <trkpt lat="62.41558" lon="10.41219">
        <ele>719.20001220703</ele>
        <time>2019-06-16T01:50:44Z</time>
      </trkpt>
      <trkpt lat="62.41649" lon="10.41103">
        <ele>718.79998779297</ele>
        <time>2019-06-16T01:51:07Z</time>
      </trkpt>
      <trkpt lat="62.41719" lon="10.41049">
        <ele>718.40002441406</ele>
        <time>2019-06-16T01:51:13Z</time>
      </trkpt>
      <trkpt lat="62.41827" lon="10.41018">
        <ele>718.79998779297</ele>
        <time>2019-06-17T07:19:56Z</time>
      </trkpt>
      <trkpt lat="62.41956" lon="10.40956">
        <ele>719.20001220703</ele>
        <time>2019-06-17T07:20:02Z</time>
      </trkpt>
      <trkpt lat="62.42019" lon="10.40899">
        <ele>719.20001220703</ele>
        <time>2019-06-17T07:20:04Z</time>
      </trkpt>
      <trkpt lat="62.42118" lon="10.40759">
        <ele>720.40002441406</ele>
        <time>2019-06-17T07:20:11Z</time>
      </trkpt>
      <trkpt lat="62.42193" lon="10.4062">
        <ele>720.40002441406</ele>
        <time>2019-06-17T07:20:13Z</time>
      </trkpt>
      <trkpt lat="62.42256" lon="10.40527">
        <ele>721.79998779297</ele>
        <time>2019-06-17T07:20:17Z</time>
      </trkpt>
      <trkpt lat="62.4238" lon="10.40425">
        <ele>725</ele>
        <time>2019-06-17T07:20:30Z</time>
      </trkpt>
      <trkpt lat="62.42521" lon="10.4039">
        <ele>728.59997558594</ele>
        <time>2019-06-17T07:20:46Z</time>
      </trkpt>
      <trkpt lat="62.42723" lon="10.40395">
        <ele>734.59997558594</ele>
        <time>2019-06-17T07:21:02Z</time>
      </trkpt>
      <trkpt lat="62.42837" lon="10.40367">
        <ele>738</ele>
        <time>2019-06-17T07:21:15Z</time>
      </trkpt>
      <trkpt lat="62.42879" lon="10.40347">
        <ele>738.40002441406</ele>
        <time>2019-06-17T07:21:26Z</time>
      </trkpt>
      <trkpt lat="62.42986" lon="10.40288">
        <ele>739</ele>
        <time>2019-06-17T07:21:48Z</time>
      </trkpt>
      <trkpt lat="62.43053" lon="10.40272">
        <ele>739</ele>
        <time>2019-06-17T07:21:57Z</time>
      </trkpt>
      <trkpt lat="62.43061" lon="10.40267">
        <ele>738.79998779297</ele>
        <time>2019-06-17T07:22:08Z</time>
      </trkpt>
      <trkpt lat="62.43353" lon="10.4018">
        <ele>740</ele>
        <time>2019-06-17T07:22:27Z</time>
      </trkpt>
      <trkpt lat="62.43502" lon="10.40139">
        <ele>739.79998779297</ele>
        <time>2019-06-17T07:22:35Z</time>
      </trkpt>
      <trkpt lat="62.43609" lon="10.40115">
        <ele>739.79998779297</ele>
        <time>2019-06-17T07:22:50Z</time>
      </trkpt>
      <trkpt lat="62.43766" lon="10.40101">
        <ele>737.79998779297</ele>
        <time>2019-06-17T07:22:58Z</time>
      </trkpt>
      <trkpt lat="62.43851" lon="10.40105">
        <ele>738</ele>
        <time>2019-06-17T07:23:00Z</time>
      </trkpt>
      <trkpt lat="62.43946" lon="10.40111">
        <ele>740</ele>
        <time>2019-06-17T07:23:12Z</time>
      </trkpt>
      <trkpt lat="62.44035" lon="10.40118">
        <ele>740.59997558594</ele>
        <time>2019-06-17T07:23:20Z</time>
      </trkpt>
      <trkpt lat="62.44216" lon="10.40085">
        <ele>739</ele>
        <time>2019-06-17T07:23:37Z</time>
      </trkpt>
      <trkpt lat="62.44301" lon="10.40051">
        <ele>739</ele>
        <time>2019-06-17T07:23:51Z</time>
      </trkpt>
      <trkpt lat="62.44439" lon="10.39996">
        <ele>738.20001220703</ele>
        <time>2019-06-17T07:23:59Z</time>
      </trkpt>
      <trkpt lat="62.44505" lon="10.3997">
        <ele>737.59997558594</ele>
        <time>2019-06-17T07:24:17Z</time>
      </trkpt>
      <trkpt lat="62.44623" lon="10.39925">
        <ele>737.40002441406</ele>
        <time>2019-06-17T07:24:28Z</time>
      </trkpt>
      <trkpt lat="62.44686" lon="10.39913">
        <ele>736.79998779297</ele>
        <time>2019-06-17T07:24:39Z</time>
      </trkpt>
      <trkpt lat="62.44779" lon="10.39899">
        <ele>736.59997558594</ele>
        <time>2019-06-17T07:24:53Z</time>
      </trkpt>
      <trkpt lat="62.44829" lon="10.39891">
        <ele>736.20001220703</ele>
        <time>2019-06-17T07:25:04Z</time>
      </trkpt>
      <trkpt lat="62.44889" lon="10.39882">
        <ele>736.20001220703</ele>
        <time>2019-06-17T07:25:18Z</time>
      </trkpt>
      <trkpt lat="62.45011" lon="10.3986">
        <ele>736.59997558594</ele>
        <time>2019-06-17T07:25:27Z</time>
      </trkpt>
      <trkpt lat="62.45081" lon="10.39844">
        <ele>736.40002441406</ele>
        <time>2019-06-17T07:25:39Z</time>
      </trkpt>
      <trkpt lat="62.45253" lon="10.39781">
        <ele>733.20001220703</ele>
        <time>2019-06-17T07:25:56Z</time>
      </trkpt>
      <trkpt lat="62.45502" lon="10.39739">
        <ele>725.40002441406</ele>
        <time>2019-06-17T07:26:04Z</time>
      </trkpt>
      <trkpt lat="62.45569" lon="10.39747">
        <ele>724.20001220703</ele>
        <time>2019-06-17T07:26:10Z</time>
      </trkpt>
      <trkpt lat="62.45631" lon="10.3976">
        <ele>723.79998779297</ele>
        <time>2019-06-17T07:26:22Z</time>
      </trkpt>
      <trkpt lat="62.45691" lon="10.39778">
        <ele>724.59997558594</ele>
        <time>2019-06-17T07:26:31Z</time>
      </trkpt>
      <trkpt lat="62.458" lon="10.39809">
        <ele>725</ele>
        <time>2019-06-17T07:26:41Z</time>
      </trkpt>
      <trkpt lat="62.45873" lon="10.39831">
        <ele>725.79998779297</ele>
        <time>2019-06-17T07:26:50Z</time>
      </trkpt>
      <trkpt lat="62.45938" lon="10.3985">
        <ele>726.59997558594</ele>
        <time>2019-06-17T07:26:58Z</time>
      </trkpt>
      <trkpt lat="62.46055" lon="10.39885">
        <ele>729</ele>
        <time>2019-06-17T07:27:12Z</time>
      </trkpt>
      <trkpt lat="62.46137" lon="10.39908">
        <ele>728.79998779297</ele>
        <time>2019-06-17T07:27:19Z</time>
      </trkpt>
      <trkpt lat="62.46194" lon="10.39927">
        <ele>728.20001220703</ele>
        <time>2019-06-17T07:27:26Z</time>
      </trkpt>
      <trkpt lat="62.46288" lon="10.39955">
        <ele>728.20001220703</ele>
        <time>2019-06-17T07:27:42Z</time>
      </trkpt>
      <trkpt lat="62.46368" lon="10.3996">
        <ele>729.79998779297</ele>
        <time>2019-06-17T07:27:51Z</time>
      </trkpt>
      <trkpt lat="62.46453" lon="10.39934">
        <ele>733</ele>
        <time>2019-06-17T07:28:08Z</time>
      </trkpt>
      <trkpt lat="62.46528" lon="10.39882">
        <ele>733.40002441406</ele>
        <time>2019-06-17T07:28:19Z</time>
      </trkpt>
      <trkpt lat="62.46626" lon="10.39801">
        <ele>732.59997558594</ele>
        <time>2019-06-17T07:28:36Z</time>
      </trkpt>
      <trkpt lat="62.46693" lon="10.39746">
        <ele>731.59997558594</ele>
        <time>2019-06-17T07:28:45Z</time>
      </trkpt>
      <trkpt lat="62.46736" lon="10.39712">
        <ele>731.59997558594</ele>
        <time>2019-06-17T07:29:01Z</time>
      </trkpt>
      <trkpt lat="62.46915" lon="10.39576">
        <ele>733.40002441406</ele>
        <time>2019-06-17T07:29:16Z</time>
      </trkpt>
      <trkpt lat="62.47071" lon="10.39455">
        <ele>731.79998779297</ele>
        <time>2019-06-17T07:29:31Z</time>
      </trkpt>
      <trkpt lat="62.47153" lon="10.39408">
        <ele>731.59997558594</ele>
        <time>2019-06-17T07:29:46Z</time>
      </trkpt>
      <trkpt lat="62.47224" lon="10.39379">
        <ele>731.59997558594</ele>
        <time>2019-06-17T07:30:12Z</time>
      </trkpt>
      <trkpt lat="62.47354" lon="10.39333">
        <ele>731</ele>
        <time>2019-06-17T07:30:21Z</time>
      </trkpt>
      <trkpt lat="62.47422" lon="10.39309">
        <ele>730</ele>
        <time>2019-06-17T07:30:39Z</time>
      </trkpt>
      <trkpt lat="62.47527" lon="10.39274">
        <ele>729.59997558594</ele>
        <time>2019-06-17T07:30:52Z</time>
      </trkpt>
      <trkpt lat="62.47661" lon="10.39226">
        <ele>731.20001220703</ele>
        <time>2019-06-17T07:31:02Z</time>
      </trkpt>
      <trkpt lat="62.47668" lon="10.39219">
        <ele>730.20001220703</ele>
        <time>2019-06-17T07:31:16Z</time>
      </trkpt>
      <trkpt lat="62.47728" lon="10.39184">
        <ele>729.79998779297</ele>
        <time>2019-06-17T07:31:33Z</time>
      </trkpt>
      <trkpt lat="62.47799" lon="10.39137">
        <ele>728</ele>
        <time>2019-06-17T07:31:41Z</time>
      </trkpt>
      <trkpt lat="62.47931" lon="10.39048">
        <ele>728.79998779297</ele>
        <time>2019-06-17T07:32:04Z</time>
      </trkpt>
      <trkpt lat="62.47997" lon="10.39008">
        <ele>728.79998779297</ele>
        <time>2019-06-17T07:32:19Z</time>
      </trkpt>
      <trkpt lat="62.48082" lon="10.38973">
        <ele>727.59997558594</ele>
        <time>2019-06-17T07:32:33Z</time>
      </trkpt>
      <trkpt lat="62.4818" lon="10.38961">
        <ele>726.79998779297</ele>
        <time>2019-06-17T07:32:50Z</time>
      </trkpt>
      <trkpt lat="62.4825" lon="10.38966">
        <ele>726.79998779297</ele>
        <time>2019-06-17T07:32:58Z</time>
      </trkpt>
      <trkpt lat="62.48334" lon="10.38971">
        <ele>726.59997558594</ele>
        <time>2019-06-17T07:33:11Z</time>
      </trkpt>
      <trkpt lat="62.48444" lon="10.38964">
        <ele>726.79998779297</ele>
        <time>2019-06-17T07:33:14Z</time>
      </trkpt>
      <trkpt lat="62.48547" lon="10.38919">
        <ele>727.40002441406</ele>
        <time>2019-06-17T07:33:19Z</time>
      </trkpt>
      <trkpt lat="62.48708" lon="10.38735">
        <ele>727.40002441406</ele>
        <time>2019-06-17T07:33:31Z</time>
      </trkpt>
      <trkpt lat="62.48862" lon="10.38649">
        <ele>727.20001220703</ele>
        <time>2019-06-17T07:33:40Z</time>
      </trkpt>
      <trkpt lat="62.48954" lon="10.38654">
        <ele>727</ele>
        <time>2019-06-17T07:33:48Z</time>
      </trkpt>
      <trkpt lat="62.49171" lon="10.3866">
        <ele>727</ele>
        <time>2019-06-17T07:34:04Z</time>
      </trkpt>
      <trkpt lat="62.49232" lon="10.38646">
        <ele>727.20001220703</ele>
        <time>2019-06-17T07:34:15Z</time>
      </trkpt>
      <trkpt lat="62.49343" lon="10.38605">
        <ele>727</ele>
        <time>2019-06-17T07:34:30Z</time>
      </trkpt>
      <trkpt lat="62.49573" lon="10.38442">
        <ele>727</ele>
        <time>2019-06-17T07:34:41Z</time>
      </trkpt>
      <trkpt lat="62.49696" lon="10.3829">
        <ele>727.59997558594</ele>
        <time>2019-06-17T07:34:56Z</time>
      </trkpt>
      <trkpt lat="62.49778" lon="10.38136">
        <ele>728.20001220703</ele>
        <time>2019-06-17T07:35:13Z</time>
      </trkpt>
      <trkpt lat="62.49813" lon="10.38062">
        <ele>729</ele>
        <time>2019-06-17T07:35:22Z</time>
      </trkpt>
      <trkpt lat="62.49908" lon="10.37886">
        <ele>730.40002441406</ele>
        <time>2019-06-17T07:35:31Z</time>
      </trkpt>
      <trkpt lat="62.49985" lon="10.37784">
        <ele>730</ele>
        <time>2019-06-17T07:35:45Z</time>
      </trkpt>
      <trkpt lat="62.50105" lon="10.37588">
        <ele>728</ele>
        <time>2019-06-17T07:35:51Z</time>
      </trkpt>
      <trkpt lat="62.50151" lon="10.37516">
        <ele>726.79998779297</ele>
        <time>2019-06-17T07:36:09Z</time>
      </trkpt>
      <trkpt lat="62.5022" lon="10.37449">
        <ele>723.40002441406</ele>
        <time>2019-06-17T07:36:15Z</time>
      </trkpt>
      <trkpt lat="62.50269" lon="10.3743">
        <ele>722.20001220703</ele>
        <time>2019-06-17T07:36:20Z</time>
      </trkpt>
      <trkpt lat="62.50341" lon="10.37438">
        <ele>721</ele>
        <time>2019-06-17T07:36:26Z</time>
      </trkpt>
      <trkpt lat="62.50451" lon="10.37502">
        <ele>720.59997558594</ele>
        <time>2019-06-17T07:36:31Z</time>
      </trkpt>
      <trkpt lat="62.5054" lon="10.37521">
        <ele>720.20001220703</ele>
        <time>2019-06-17T07:36:48Z</time>
      </trkpt>
      <trkpt lat="62.50681" lon="10.3757">
        <ele>720.20001220703</ele>
        <time>2019-06-17T07:37:04Z</time>
      </trkpt>
      <trkpt lat="62.50764" lon="10.37658">
        <ele>720.79998779297</ele>
        <time>2019-06-17T07:37:09Z</time>
      </trkpt>
      <trkpt lat="62.50849" lon="10.3774">
        <ele>721.79998779297</ele>
        <time>2019-06-17T07:37:13Z</time>
      </trkpt>
      <trkpt lat="62.50906" lon="10.37783">
        <ele>721.79998779297</ele>
        <time>2019-06-17T07:37:16Z</time>
      </trkpt>
      <trkpt lat="62.51069" lon="10.37928">
        <ele>719.20001220703</ele>
        <time>2019-06-17T07:40:59Z</time>
      </trkpt>
      <trkpt lat="62.51135" lon="10.37986">
        <ele>717.40002441406</ele>
        <time>2019-06-17T07:41:10Z</time>
      </trkpt>
      <trkpt lat="62.51205" lon="10.38007">
        <ele>715.20001220703</ele>
        <time>2019-06-17T07:41:19Z</time>
      </trkpt>
      <trkpt lat="62.51296" lon="10.3799">
        <ele>713</ele>
        <time>2019-06-17T07:41:32Z</time>
      </trkpt>
      <trkpt lat="62.51357" lon="10.37958">
        <ele>712.20001220703</ele>
        <time>2019-06-17T08:08:08Z</time>
      </trkpt>
      <trkpt lat="62.51492" lon="10.37875">
        <ele>707.59997558594</ele>
        <time>2019-06-17T08:08:22Z</time>
      </trkpt>
      <trkpt lat="62.5155" lon="10.37866">
        <ele>706.20001220703</ele>
        <time>2019-06-17T08:12:43Z</time>
      </trkpt>
      <trkpt lat="62.51663" lon="10.3789">
        <ele>702.40002441406</ele>
        <time>2019-06-17T08:18:23Z</time>
      </trkpt>
      <trkpt lat="62.51727" lon="10.37917">
        <ele>698.59997558594</ele>
        <time>2019-06-17T08:18:27Z</time>
      </trkpt>
      <trkpt lat="62.51727" lon="10.37909">
        <ele>697.40002441406</ele>
        <time>2019-06-17T08:18:38Z</time>
      </trkpt>
      <trkpt lat="62.517" lon="10.37905">
        <ele>697.40002441406</ele>
        <time>2019-06-17T08:18:44Z</time>
      </trkpt>
      <trkpt lat="62.517" lon="10.37888">
        <ele>697.59997558594</ele>
        <time>2019-06-17T08:18:55Z</time>
      </trkpt>
      <trkpt lat="62.51751" lon="10.37864">
        <ele>697.59997558594</ele>
        <time>2019-06-17T08:19:05Z</time>
      </trkpt>
      <trkpt lat="62.51814" lon="10.37811">
        <ele>696.40002441406</ele>
        <time>2019-06-17T08:19:17Z</time>
      </trkpt>
      <trkpt lat="62.51859" lon="10.37769">
        <ele>695</ele>
        <time>2019-06-17T08:19:26Z</time>
      </trkpt>
      <trkpt lat="62.52045" lon="10.37685">
        <ele>688.40002441406</ele>
        <time>2019-06-17T08:19:31Z</time>
      </trkpt>
      <trkpt lat="62.5215" lon="10.37608">
        <ele>685</ele>
        <time>2019-06-17T08:19:35Z</time>
      </trkpt>
      <trkpt lat="62.52212" lon="10.37514">
        <ele>682.59997558594</ele>
        <time>2019-06-17T08:19:55Z</time>
      </trkpt>
      <trkpt lat="62.52272" lon="10.37396">
        <ele>680.59997558594</ele>
        <time>2019-06-17T08:20:13Z</time>
      </trkpt>
      <trkpt lat="62.52332" lon="10.37304">
        <ele>677.40002441406</ele>
        <time>2019-06-17T08:20:22Z</time>
      </trkpt>
      <trkpt lat="62.52427" lon="10.37193">
        <ele>674</ele>
        <time>2019-06-17T08:20:39Z</time>
      </trkpt>
      <trkpt lat="62.52504" lon="10.37025">
        <ele>670.59997558594</ele>
        <time>2019-06-17T08:20:52Z</time>
      </trkpt>
      <trkpt lat="62.52542" lon="10.36928">
        <ele>668</ele>
        <time>2019-06-17T08:21:09Z</time>
      </trkpt>
      <trkpt lat="62.52581" lon="10.36849">
        <ele>667.20001220703</ele>
        <time>2019-06-17T08:21:25Z</time>
      </trkpt>
      <trkpt lat="62.52662" lon="10.36762">
        <ele>666.20001220703</ele>
        <time>2019-06-17T08:21:30Z</time>
      </trkpt>
      <trkpt lat="62.52838" lon="10.36593">
        <ele>661.79998779297</ele>
        <time>2019-06-17T08:21:43Z</time>
      </trkpt>
      <trkpt lat="62.52945" lon="10.3642">
        <ele>657.79998779297</ele>
        <time>2019-06-17T08:22:00Z</time>
      </trkpt>
      <trkpt lat="62.53008" lon="10.36297">
        <ele>655.79998779297</ele>
        <time>2019-06-17T08:22:18Z</time>
      </trkpt>
      <trkpt lat="62.53158" lon="10.36065">
        <ele>648.59997558594</ele>
        <time>2019-06-17T08:22:26Z</time>
      </trkpt>
      <trkpt lat="62.53288" lon="10.36011">
        <ele>643.40002441406</ele>
        <time>2019-06-17T08:22:29Z</time>
      </trkpt>
      <trkpt lat="62.53391" lon="10.35915">
        <ele>642.79998779297</ele>
        <time>2019-06-17T08:22:42Z</time>
      </trkpt>
      <trkpt lat="62.5353" lon="10.35726">
        <ele>638</ele>
        <time>2019-06-17T08:22:52Z</time>
      </trkpt>
      <trkpt lat="62.53674" lon="10.35631">
        <ele>636.79998779297</ele>
        <time>2019-06-17T08:23:01Z</time>
      </trkpt>
      <trkpt lat="62.53739" lon="10.35566">
        <ele>635.79998779297</ele>
        <time>2019-06-17T08:23:15Z</time>
      </trkpt>
      <trkpt lat="62.53769" lon="10.35528">
        <ele>634.40002441406</ele>
        <time>2019-06-17T08:23:20Z</time>
      </trkpt>
      <trkpt lat="62.53821" lon="10.35472">
        <ele>632.20001220703</ele>
        <time>2019-06-17T08:23:25Z</time>
      </trkpt>
      <trkpt lat="62.539" lon="10.35436">
        <ele>629</ele>
        <time>2019-06-17T08:23:30Z</time>
      </trkpt>
      <trkpt lat="62.54053" lon="10.35491">
        <ele>621.40002441406</ele>
        <time>2019-06-17T08:23:36Z</time>
      </trkpt>
      <trkpt lat="62.54149" lon="10.35502">
        <ele>618.59997558594</ele>
        <time>2019-06-17T08:23:46Z</time>
      </trkpt>
      <trkpt lat="62.54243" lon="10.3546">
        <ele>617.40002441406</ele>
        <time>2019-06-17T08:23:52Z</time>
      </trkpt>
      <trkpt lat="62.54352" lon="10.35416">
        <ele>617.59997558594</ele>
        <time>2019-06-17T08:24:02Z</time>
      </trkpt>
      <trkpt lat="62.54429" lon="10.35359">
        <ele>617.79998779297</ele>
        <time>2019-06-17T08:24:09Z</time>
      </trkpt>
      <trkpt lat="62.54502" lon="10.35256">
        <ele>617</ele>
        <time>2019-06-17T08:24:17Z</time>
      </trkpt>
      <trkpt lat="62.54614" lon="10.35078">
        <ele>614.40002441406</ele>
        <time>2019-06-17T08:24:25Z</time>
      </trkpt>
      <trkpt lat="62.54648" lon="10.35023">
        <ele>613.20001220703</ele>
        <time>2019-06-17T08:24:28Z</time>
      </trkpt>
      <trkpt lat="62.54693" lon="10.34958">
        <ele>610.79998779297</ele>
        <time>2019-06-17T08:24:34Z</time>
      </trkpt>
      <trkpt lat="62.54851" lon="10.34824">
        <ele>605.20001220703</ele>
        <time>2019-06-17T08:24:42Z</time>
      </trkpt>
      <trkpt lat="62.55114" lon="10.3466">
        <ele>601</ele>
        <time>2019-06-17T08:24:47Z</time>
      </trkpt>
      <trkpt lat="62.55327" lon="10.34639">
        <ele>592.20001220703</ele>
        <time>2019-06-17T08:24:50Z</time>
      </trkpt>
      <trkpt lat="62.55375" lon="10.34613">
        <ele>590.79998779297</ele>
        <time>2019-06-17T08:24:54Z</time>
      </trkpt>
      <trkpt lat="62.55467" lon="10.34521">
        <ele>589.79998779297</ele>
        <time>2019-06-17T08:24:57Z</time>
      </trkpt>
      <trkpt lat="62.55527" lon="10.34445">
        <ele>589.40002441406</ele>
        <time>2019-06-17T08:25:02Z</time>
      </trkpt>
      <trkpt lat="62.55579" lon="10.34375">
        <ele>589.40002441406</ele>
        <time>2019-06-17T08:25:04Z</time>
      </trkpt>
      <trkpt lat="62.55666" lon="10.34279">
        <ele>589.20001220703</ele>
        <time>2019-06-17T08:25:06Z</time>
      </trkpt>
      <trkpt lat="62.55878" lon="10.34159">
        <ele>591.59997558594</ele>
        <time>2019-06-17T08:25:10Z</time>
      </trkpt>
      <trkpt lat="62.55999" lon="10.34021">
        <ele>593.59997558594</ele>
        <time>2019-06-17T08:25:14Z</time>
      </trkpt>
      <trkpt lat="62.561" lon="10.33788">
        <ele>598.79998779297</ele>
        <time>2019-06-17T08:25:17Z</time>
      </trkpt>
      <trkpt lat="62.56139" lon="10.33678">
        <ele>599.79998779297</ele>
        <time>2019-06-17T08:25:20Z</time>
      </trkpt>
      <trkpt lat="62.5617" lon="10.33589">
        <ele>600</ele>
        <time>2019-06-17T08:25:22Z</time>
      </trkpt>
      <trkpt lat="62.56193" lon="10.33544">
        <ele>599.59997558594</ele>
        <time>2019-06-17T08:25:25Z</time>
      </trkpt>
      <trkpt lat="62.56195" lon="10.33536">
        <ele>598.20001220703</ele>
        <time>2019-06-17T08:25:29Z</time>
      </trkpt>
      <trkpt lat="62.56217" lon="10.33474">
        <ele>598.20001220703</ele>
        <time>2019-06-17T08:25:32Z</time>
      </trkpt>
      <trkpt lat="62.56274" lon="10.33327">
        <ele>597.20001220703</ele>
        <time>2019-06-17T08:25:37Z</time>
      </trkpt>
      <trkpt lat="62.56301" lon="10.33243">
        <ele>596</ele>
        <time>2019-06-17T08:25:39Z</time>
      </trkpt>
      <trkpt lat="62.56334" lon="10.33144">
        <ele>595.40002441406</ele>
        <time>2019-06-17T08:25:41Z</time>
      </trkpt>
      <trkpt lat="62.56418" lon="10.32891">
        <ele>596.79998779297</ele>
        <time>2019-06-17T08:25:45Z</time>
      </trkpt>
      <trkpt lat="62.56469" lon="10.3264">
        <ele>597.20001220703</ele>
        <time>2019-06-17T08:25:48Z</time>
      </trkpt>
      <trkpt lat="62.56487" lon="10.32541">
        <ele>597.40002441406</ele>
        <time>2019-06-17T08:25:52Z</time>
      </trkpt>
      <trkpt lat="62.56498" lon="10.32494">
        <ele>597.40002441406</ele>
        <time>2019-06-17T08:25:57Z</time>
      </trkpt>
      <trkpt lat="62.56511" lon="10.32443">
        <ele>598</ele>
        <time>2019-06-17T08:26:01Z</time>
      </trkpt>
      <trkpt lat="62.56525" lon="10.32397">
        <ele>598.20001220703</ele>
        <time>2019-06-17T08:26:07Z</time>
      </trkpt>
      <trkpt lat="62.5657" lon="10.32271">
        <ele>598.40002441406</ele>
        <time>2019-06-17T08:26:10Z</time>
      </trkpt>
      <trkpt lat="62.56572" lon="10.32282">
        <ele>598</ele>
        <time>2019-06-17T08:26:15Z</time>
      </trkpt>
      <trkpt lat="62.56571" lon="10.32316">
        <ele>597.79998779297</ele>
        <time>2019-06-17T08:26:30Z</time>
      </trkpt>
      <trkpt lat="62.56575" lon="10.3234">
        <ele>600.40002441406</ele>
        <time>2019-06-17T08:26:45Z</time>
      </trkpt>
      <trkpt lat="62.56549" lon="10.32332">
        <ele>601</ele>
        <time>2019-06-17T08:27:06Z</time>
      </trkpt>
      <trkpt lat="62.56553" lon="10.32319">
        <ele>601.20001220703</ele>
        <time>2019-06-17T08:27:24Z</time>
      </trkpt>
      <trkpt lat="62.56566" lon="10.32298">
        <ele>601</ele>
        <time>2019-06-17T08:27:31Z</time>
      </trkpt>
      <trkpt lat="62.56568" lon="10.32291">
        <ele>601.20001220703</ele>
        <time>2019-06-17T08:27:53Z</time>
      </trkpt>
      <trkpt lat="62.56568" lon="10.32275">
        <ele>601.20001220703</ele>
        <time>2019-06-17T08:28:05Z</time>
      </trkpt>
      <trkpt lat="62.56581" lon="10.32274">
        <ele>600</ele>
        <time>2019-06-17T08:28:21Z</time>
      </trkpt>
      <trkpt lat="62.56579" lon="10.32265">
        <ele>600.40002441406</ele>
        <time>2019-06-17T08:28:39Z</time>
      </trkpt>
      <trkpt lat="62.56589" lon="10.32206">
        <ele>600.40002441406</ele>
        <time>2019-06-17T08:28:45Z</time>
      </trkpt>
      <trkpt lat="62.56588" lon="10.32196">
        <ele>600</ele>
        <time>2019-06-17T08:29:01Z</time>
      </trkpt>
      <trkpt lat="62.56613" lon="10.32102">
        <ele>600.20001220703</ele>
        <time>2019-06-17T08:29:14Z</time>
      </trkpt>
      <trkpt lat="62.56634" lon="10.3197">
        <ele>600.20001220703</ele>
        <time>2019-06-17T08:29:25Z</time>
      </trkpt>
      <trkpt lat="62.56632" lon="10.31964">
        <ele>599.79998779297</ele>
        <time>2019-06-17T08:29:33Z</time>
      </trkpt>
      <trkpt lat="62.56669" lon="10.31798">
        <ele>599.79998779297</ele>
        <time>2019-06-17T08:29:49Z</time>
      </trkpt>
      <trkpt lat="62.56698" lon="10.31659">
        <ele>598.79998779297</ele>
        <time>2019-06-17T08:30:06Z</time>
      </trkpt>
      <trkpt lat="62.56719" lon="10.31568">
        <ele>598.79998779297</ele>
        <time>2019-06-17T08:30:20Z</time>
      </trkpt>
      <trkpt lat="62.56742" lon="10.31486">
        <ele>598.59997558594</ele>
        <time>2019-06-17T08:30:35Z</time>
      </trkpt>
      <trkpt lat="62.56804" lon="10.31341">
        <ele>598.40002441406</ele>
        <time>2019-06-17T08:30:49Z</time>
      </trkpt>
      <trkpt lat="62.56832" lon="10.3127">
        <ele>597.79998779297</ele>
        <time>2019-06-17T08:31:04Z</time>
      </trkpt>
      <trkpt lat="62.56913" lon="10.31084">
        <ele>595.59997558594</ele>
        <time>2019-06-17T08:31:22Z</time>
      </trkpt>
      <trkpt lat="62.56967" lon="10.30966">
        <ele>592.40002441406</ele>
        <time>2019-06-17T08:31:37Z</time>
      </trkpt>
      <trkpt lat="62.56998" lon="10.30887">
        <ele>592.40002441406</ele>
        <time>2019-06-17T08:31:46Z</time>
      </trkpt>
      <trkpt lat="62.57031" lon="10.30838">
        <ele>592.20001220703</ele>
        <time>2019-06-17T08:31:56Z</time>
      </trkpt>
      <trkpt lat="62.57074" lon="10.30794">
        <ele>591.79998779297</ele>
        <time>2019-06-17T08:32:04Z</time>
      </trkpt>
      <trkpt lat="62.57205" lon="10.30643">
        <ele>589.20001220703</ele>
        <time>2019-06-17T08:32:17Z</time>
      </trkpt>
      <trkpt lat="62.57237" lon="10.30615">
        <ele>588.20001220703</ele>
        <time>2019-06-17T08:32:30Z</time>
      </trkpt>
      <trkpt lat="62.57324" lon="10.30547">
        <ele>586.79998779297</ele>
        <time>2019-06-17T08:32:35Z</time>
      </trkpt>
      <trkpt lat="62.57463" lon="10.30385">
        <ele>588.59997558594</ele>
        <time>2019-06-17T08:32:42Z</time>
      </trkpt>
      <trkpt lat="62.57489" lon="10.30336">
        <ele>588.40002441406</ele>
        <time>2019-06-17T08:32:50Z</time>
      </trkpt>
      <trkpt lat="62.57562" lon="10.30167">
        <ele>587.20001220703</ele>
        <time>2019-06-17T08:33:10Z</time>
      </trkpt>
      <trkpt lat="62.57613" lon="10.30044">
        <ele>586.59997558594</ele>
        <time>2019-06-17T08:33:20Z</time>
      </trkpt>
      <trkpt lat="62.5766" lon="10.29928">
        <ele>586.40002441406</ele>
        <time>2019-06-17T08:33:24Z</time>
      </trkpt>
      <trkpt lat="62.57752" lon="10.297">
        <ele>585.59997558594</ele>
        <time>2019-06-17T08:33:40Z</time>
      </trkpt>
      <trkpt lat="62.57791" lon="10.29603">
        <ele>585.40002441406</ele>
        <time>2019-06-17T08:34:08Z</time>
      </trkpt>
      <trkpt lat="62.57844" lon="10.29469">
        <ele>586.79998779297</ele>
        <time>2019-06-17T08:34:23Z</time>
      </trkpt>
      <trkpt lat="62.57872" lon="10.29399">
        <ele>588.40002441406</ele>
        <time>2019-06-17T08:34:29Z</time>
      </trkpt>
      <trkpt lat="62.57922" lon="10.2927">
        <ele>590.40002441406</ele>
        <time>2019-06-17T08:34:46Z</time>
      </trkpt>
      <trkpt lat="62.57967" lon="10.29167">
        <ele>590.59997558594</ele>
        <time>2019-06-17T08:34:54Z</time>
      </trkpt>
      <trkpt lat="62.58" lon="10.29093">
        <ele>590.40002441406</ele>
        <time>2019-06-17T08:35:04Z</time>
      </trkpt>
      <trkpt lat="62.58062" lon="10.28965">
        <ele>590.79998779297</ele>
        <time>2019-06-17T08:35:11Z</time>
      </trkpt>
      <trkpt lat="62.58123" lon="10.28868">
        <ele>590.79998779297</ele>
        <time>2019-06-17T08:35:17Z</time>
      </trkpt>
      <trkpt lat="62.58217" lon="10.28742">
        <ele>590.40002441406</ele>
        <time>2019-06-17T08:35:28Z</time>
      </trkpt>
      <trkpt lat="62.58249" lon="10.28704">
        <ele>590.59997558594</ele>
        <time>2019-06-17T08:35:36Z</time>
      </trkpt>
      <trkpt lat="62.58306" lon="10.28643">
        <ele>590.79998779297</ele>
        <time>2019-06-17T08:35:42Z</time>
      </trkpt>
      <trkpt lat="62.58396" lon="10.28577">
        <ele>590.59997558594</ele>
        <time>2019-06-17T08:35:50Z</time>
      </trkpt>
      <trkpt lat="62.58436" lon="10.2855">
        <ele>590</ele>
        <time>2019-06-17T08:36:03Z</time>
      </trkpt>
      <trkpt lat="62.58459" lon="10.28525">
        <ele>590</ele>
        <time>2019-06-17T08:36:12Z</time>
      </trkpt>
      <trkpt lat="62.58445" lon="10.28426">
        <ele>588.79998779297</ele>
        <time>2019-06-17T08:36:20Z</time>
      </trkpt>
      <trkpt lat="62.58388" lon="10.28426">
        <ele>587.40002441406</ele>
        <time>2019-06-17T08:36:29Z</time>
      </trkpt>
      <trkpt lat="62.58381" lon="10.28454">
        <ele>588.20001220703</ele>
        <time>2019-06-17T08:36:48Z</time>
      </trkpt>
      <trkpt lat="62.5843" lon="10.28417">
        <ele>588</ele>
        <time>2019-06-17T08:36:56Z</time>
      </trkpt>
      <trkpt lat="62.58444" lon="10.28425">
        <ele>588</ele>
        <time>2019-06-17T08:37:52Z</time>
      </trkpt>
      <trkpt lat="62.5845" lon="10.2847">
        <ele>588.79998779297</ele>
        <time>2019-06-17T08:38:06Z</time>
      </trkpt>
      <trkpt lat="62.58461" lon="10.28521">
        <ele>589.20001220703</ele>
        <time>2019-06-17T08:38:17Z</time>
      </trkpt>
      <trkpt lat="62.58463" lon="10.28525">
        <ele>590</ele>
        <time>2019-06-17T08:38:43Z</time>
      </trkpt>
      <trkpt lat="62.58487" lon="10.28527">
        <ele>590.20001220703</ele>
        <time>2019-06-17T08:39:00Z</time>
      </trkpt>
      <trkpt lat="62.58534" lon="10.28496">
        <ele>590.20001220703</ele>
        <time>2019-06-17T08:39:11Z</time>
      </trkpt>
      <trkpt lat="62.58714" lon="10.28327">
        <ele>590.79998779297</ele>
        <time>2019-06-17T08:39:40Z</time>
      </trkpt>
      <trkpt lat="62.58777" lon="10.28249">
        <ele>590.79998779297</ele>
        <time>2019-06-17T08:39:53Z</time>
      </trkpt>
      <trkpt lat="62.58884" lon="10.28096">
        <ele>590.20001220703</ele>
        <time>2019-06-17T08:40:12Z</time>
      </trkpt>
      <trkpt lat="62.59054" lon="10.27832">
        <ele>586.40002441406</ele>
        <time>2019-06-17T08:40:26Z</time>
      </trkpt>
      <trkpt lat="62.59094" lon="10.27771">
        <ele>586.20001220703</ele>
        <time>2019-06-17T08:40:39Z</time>
      </trkpt>
      <trkpt lat="62.59177" lon="10.27643">
        <ele>585.20001220703</ele>
        <time>2019-06-17T08:41:00Z</time>
      </trkpt>
      <trkpt lat="62.59247" lon="10.27532">
        <ele>585</ele>
        <time>2019-06-17T08:41:10Z</time>
      </trkpt>
      <trkpt lat="62.59304" lon="10.27432">
        <ele>585.59997558594</ele>
        <time>2019-06-17T08:41:21Z</time>
      </trkpt>
      <trkpt lat="62.59306" lon="10.27426">
        <ele>585.79998779297</ele>
        <time>2019-06-17T08:41:41Z</time>
      </trkpt>
      <trkpt lat="62.59329" lon="10.2738">
        <ele>585.79998779297</ele>
        <time>2019-06-17T08:41:54Z</time>
      </trkpt>
      <trkpt lat="62.59439" lon="10.27172">
        <ele>585</ele>
        <time>2019-06-17T08:42:08Z</time>
      </trkpt>
      <trkpt lat="62.59481" lon="10.27112">
        <ele>584.40002441406</ele>
        <time>2019-06-17T08:42:22Z</time>
      </trkpt>
      <trkpt lat="62.59577" lon="10.27004">
        <ele>584</ele>
        <time>2019-06-17T08:42:30Z</time>
      </trkpt>
      <trkpt lat="62.59666" lon="10.26922">
        <ele>584</ele>
        <time>2019-06-17T08:42:40Z</time>
      </trkpt>
      <trkpt lat="62.59698" lon="10.26893">
        <ele>584.59997558594</ele>
        <time>2019-06-17T08:42:47Z</time>
      </trkpt>
      <trkpt lat="62.59768" lon="10.26837">
        <ele>584.59997558594</ele>
        <time>2019-06-17T08:42:54Z</time>
      </trkpt>
      <trkpt lat="62.59834" lon="10.26786">
        <ele>584.40002441406</ele>
        <time>2019-06-17T08:43:02Z</time>
      </trkpt>
      <trkpt lat="62.59929" lon="10.26727">
        <ele>584.59997558594</ele>
        <time>2019-06-17T08:43:08Z</time>
      </trkpt>
      <trkpt lat="62.6005" lon="10.2666">
        <ele>587.40002441406</ele>
        <time>2019-06-17T08:43:24Z</time>
      </trkpt>
      <trkpt lat="62.60131" lon="10.26606">
        <ele>588.20001220703</ele>
        <time>2019-06-17T08:43:33Z</time>
      </trkpt>
      <trkpt lat="62.602" lon="10.26551">
        <ele>587.40002441406</ele>
        <time>2019-06-17T08:43:41Z</time>
      </trkpt>
      <trkpt lat="62.60273" lon="10.26495">
        <ele>586</ele>
        <time>2019-06-17T08:43:50Z</time>
      </trkpt>
      <trkpt lat="62.6035" lon="10.26433">
        <ele>585.20001220703</ele>
        <time>2019-06-17T08:44:00Z</time>
      </trkpt>
      <trkpt lat="62.60422" lon="10.26375">
        <ele>585.40002441406</ele>
        <time>2019-06-17T08:44:12Z</time>
      </trkpt>
      <trkpt lat="62.60531" lon="10.2629">
        <ele>586.59997558594</ele>
        <time>2019-06-17T08:44:21Z</time>
      </trkpt>
      <trkpt lat="62.60596" lon="10.26236">
        <ele>587</ele>
        <time>2019-06-17T08:44:30Z</time>
      </trkpt>
      <trkpt lat="62.60747" lon="10.26118">
        <ele>585.79998779297</ele>
        <time>2019-06-17T08:44:52Z</time>
      </trkpt>
      <trkpt lat="62.60853" lon="10.26034">
        <ele>586.40002441406</ele>
        <time>2019-06-17T08:45:11Z</time>
      </trkpt>
      <trkpt lat="62.6097" lon="10.25944">
        <ele>587.40002441406</ele>
        <time>2019-06-17T08:45:28Z</time>
      </trkpt>
      <trkpt lat="62.61062" lon="10.25871">
        <ele>587.79998779297</ele>
        <time>2019-06-17T08:45:39Z</time>
      </trkpt>
      <trkpt lat="62.61133" lon="10.25816">
        <ele>587</ele>
        <time>2019-06-17T08:45:49Z</time>
      </trkpt>
      <trkpt lat="62.61187" lon="10.25774">
        <ele>585.79998779297</ele>
        <time>2019-06-17T08:45:54Z</time>
      </trkpt>
      <trkpt lat="62.61273" lon="10.25734">
        <ele>584.59997558594</ele>
        <time>2019-06-17T08:46:03Z</time>
      </trkpt>
      <trkpt lat="62.61317" lon="10.25705">
        <ele>584.20001220703</ele>
        <time>2019-06-17T08:46:10Z</time>
      </trkpt>
      <trkpt lat="62.61514" lon="10.25584">
        <ele>584.20001220703</ele>
        <time>2019-06-17T08:46:19Z</time>
      </trkpt>
      <trkpt lat="62.61572" lon="10.2555">
        <ele>584</ele>
        <time>2019-06-17T08:46:25Z</time>
      </trkpt>
      <trkpt lat="62.6163" lon="10.25517">
        <ele>583.59997558594</ele>
        <time>2019-06-17T08:46:41Z</time>
      </trkpt>
      <trkpt lat="62.61734" lon="10.25427">
        <ele>582</ele>
        <time>2019-06-17T08:46:48Z</time>
      </trkpt>
      <trkpt lat="62.61771" lon="10.25401">
        <ele>581.79998779297</ele>
        <time>2019-06-17T08:46:54Z</time>
      </trkpt>
      <trkpt lat="62.61833" lon="10.25352">
        <ele>581.59997558594</ele>
        <time>2019-06-17T08:46:57Z</time>
      </trkpt>
      <trkpt lat="62.61908" lon="10.25272">
        <ele>581</ele>
        <time>2019-06-17T08:47:13Z</time>
      </trkpt>
      <trkpt lat="62.61957" lon="10.25209">
        <ele>580</ele>
        <time>2019-06-17T08:47:24Z</time>
      </trkpt>
      <trkpt lat="62.62005" lon="10.25139">
        <ele>579.59997558594</ele>
        <time>2019-06-17T08:47:35Z</time>
      </trkpt>
      <trkpt lat="62.62085" lon="10.25038">
        <ele>579.59997558594</ele>
        <time>2019-06-17T08:47:48Z</time>
      </trkpt>
      <trkpt lat="62.62134" lon="10.24984">
        <ele>579.79998779297</ele>
        <time>2019-06-17T08:47:53Z</time>
      </trkpt>
      <trkpt lat="62.62183" lon="10.24927">
        <ele>579.79998779297</ele>
        <time>2019-06-17T08:48:07Z</time>
      </trkpt>
      <trkpt lat="62.62214" lon="10.24844">
        <ele>580.40002441406</ele>
        <time>2019-06-17T08:48:19Z</time>
      </trkpt>
      <trkpt lat="62.62189" lon="10.24761">
        <ele>580.59997558594</ele>
        <time>2019-06-17T08:48:35Z</time>
      </trkpt>
      <trkpt lat="62.62173" lon="10.2472">
        <ele>579</ele>
        <time>2019-06-17T08:48:43Z</time>
      </trkpt>
      <trkpt lat="62.62167" lon="10.24719">
        <ele>577.20001220703</ele>
        <time>2019-06-17T08:48:52Z</time>
      </trkpt>
      <trkpt lat="62.62154" lon="10.24743">
        <ele>576.79998779297</ele>
        <time>2019-06-17T08:49:03Z</time>
      </trkpt>
      <trkpt lat="62.6215" lon="10.2474">
        <ele>577.20001220703</ele>
        <time>2019-06-17T08:49:11Z</time>
      </trkpt>
      <trkpt lat="62.62141" lon="10.24748">
        <ele>577</ele>
        <time>2019-06-17T08:49:18Z</time>
      </trkpt>
      <trkpt lat="62.62106" lon="10.24751">
        <ele>577.20001220703</ele>
        <time>2019-06-17T08:49:27Z</time>
      </trkpt>
      <trkpt lat="62.62118" lon="10.24757">
        <ele>577</ele>
        <time>2019-06-17T08:49:36Z</time>
      </trkpt>
      <trkpt lat="62.62116" lon="10.24755">
        <ele>577.40002441406</ele>
        <time>2019-06-17T08:49:58Z</time>
      </trkpt>
      <trkpt lat="62.62091" lon="10.24738">
        <ele>577</ele>
        <time>2019-06-17T08:50:02Z</time>
      </trkpt>
      <trkpt lat="62.62086" lon="10.24721">
        <ele>577</ele>
        <time>2019-06-17T08:50:07Z</time>
      </trkpt>
      <trkpt lat="62.6216" lon="10.24738">
        <ele>528.40002441406</ele>
        <time>2019-06-17T08:50:19Z</time>
      </trkpt>
      <trkpt lat="62.62179" lon="10.24743">
        <ele>529.20001220703</ele>
        <time>2019-06-17T08:50:21Z</time>
      </trkpt>
      <trkpt lat="62.62201" lon="10.24829">
        <ele>531.59997558594</ele>
        <time>2019-06-17T08:50:24Z</time>
      </trkpt>
      <trkpt lat="62.62221" lon="10.24888">
        <ele>531.79998779297</ele>
        <time>2019-06-17T08:50:29Z</time>
      </trkpt>
      <trkpt lat="62.62248" lon="10.24856">
        <ele>532.20001220703</ele>
        <time>2019-06-17T08:50:32Z</time>
      </trkpt>
      <trkpt lat="62.62289" lon="10.24793">
        <ele>532.40002441406</ele>
        <time>2019-06-17T08:50:37Z</time>
      </trkpt>
      <trkpt lat="62.62339" lon="10.24721">
        <ele>532.40002441406</ele>
        <time>2019-06-17T08:50:39Z</time>
      </trkpt>
      <trkpt lat="62.62412" lon="10.24619">
        <ele>531.79998779297</ele>
        <time>2019-06-17T08:50:42Z</time>
      </trkpt>
      <trkpt lat="62.62519" lon="10.24466">
        <ele>530.59997558594</ele>
        <time>2019-06-17T08:50:48Z</time>
      </trkpt>
      <trkpt lat="62.62595" lon="10.24355">
        <ele>530.59997558594</ele>
        <time>2019-06-17T08:50:54Z</time>
      </trkpt>
      <trkpt lat="62.6268" lon="10.24247">
        <ele>530.79998779297</ele>
        <time>2019-06-17T08:51:12Z</time>
      </trkpt>
      <trkpt lat="62.62755" lon="10.24172">
        <ele>531</ele>
        <time>2019-06-17T08:51:28Z</time>
      </trkpt>
      <trkpt lat="62.62847" lon="10.24076">
        <ele>530.79998779297</ele>
        <time>2019-06-17T08:51:34Z</time>
      </trkpt>
      <trkpt lat="62.6291" lon="10.23989">
        <ele>531</ele>
        <time>2019-06-17T08:51:45Z</time>
      </trkpt>
      <trkpt lat="62.62999" lon="10.23832">
        <ele>531.20001220703</ele>
        <time>2019-06-17T08:51:49Z</time>
      </trkpt>
      <trkpt lat="62.63053" lon="10.23722">
        <ele>531.20001220703</ele>
        <time>2019-06-17T08:51:56Z</time>
      </trkpt>
      <trkpt lat="62.63134" lon="10.23581">
        <ele>531.79998779297</ele>
        <time>2019-06-17T08:52:15Z</time>
      </trkpt>
      <trkpt lat="62.63186" lon="10.23493">
        <ele>532.40002441406</ele>
        <time>2019-06-17T08:52:21Z</time>
      </trkpt>
      <trkpt lat="62.63276" lon="10.23325">
        <ele>532</ele>
        <time>2019-06-17T08:52:24Z</time>
      </trkpt>
      <trkpt lat="62.63344" lon="10.23187">
        <ele>531.20001220703</ele>
        <time>2019-06-17T08:52:35Z</time>
      </trkpt>
      <trkpt lat="62.63437" lon="10.23005">
        <ele>531.20001220703</ele>
        <time>2019-06-17T08:52:41Z</time>
      </trkpt>
      <trkpt lat="62.63495" lon="10.22903">
        <ele>531.40002441406</ele>
        <time>2019-06-17T08:52:58Z</time>
      </trkpt>
      <trkpt lat="62.63564" lon="10.22781">
        <ele>532</ele>
        <time>2019-06-17T08:53:00Z</time>
      </trkpt>
      <trkpt lat="62.63639" lon="10.22623">
        <ele>532</ele>
        <time>2019-06-17T08:53:12Z</time>
      </trkpt>
      <trkpt lat="62.63765" lon="10.22275">
        <ele>531.59997558594</ele>
        <time>2019-06-17T08:53:23Z</time>
      </trkpt>
      <trkpt lat="62.63843" lon="10.2201">
        <ele>531</ele>
        <time>2019-06-17T08:53:33Z</time>
      </trkpt>
      <trkpt lat="62.63933" lon="10.21545">
        <ele>531.59997558594</ele>
        <time>2019-06-17T08:53:40Z</time>
      </trkpt>
      <trkpt lat="62.63966" lon="10.2136">
        <ele>531.79998779297</ele>
        <time>2019-06-17T08:53:48Z</time>
      </trkpt>
      <trkpt lat="62.63996" lon="10.21193">
        <ele>531.79998779297</ele>
        <time>2019-06-17T08:54:00Z</time>
      </trkpt>
      <trkpt lat="62.64044" lon="10.2093">
        <ele>531</ele>
        <time>2019-06-17T08:54:27Z</time>
      </trkpt>
      <trkpt lat="62.64067" lon="10.20796">
        <ele>530.79998779297</ele>
        <time>2019-06-17T08:54:32Z</time>
      </trkpt>
      <trkpt lat="62.64159" lon="10.20351">
        <ele>529.59997558594</ele>
        <time>2019-06-17T08:54:38Z</time>
      </trkpt>
      <trkpt lat="62.6419" lon="10.20246">
        <ele>529.59997558594</ele>
        <time>2019-06-17T08:54:44Z</time>
      </trkpt>
      <trkpt lat="62.64248" lon="10.20086">
        <ele>530</ele>
        <time>2019-06-17T08:54:54Z</time>
      </trkpt>
      <trkpt lat="62.64304" lon="10.1996">
        <ele>530</ele>
        <time>2019-06-17T08:55:06Z</time>
      </trkpt>
      <trkpt lat="62.64332" lon="10.19893">
        <ele>529.59997558594</ele>
        <time>2019-06-17T08:55:21Z</time>
      </trkpt>
      <trkpt lat="62.64483" lon="10.19548">
        <ele>526.59997558594</ele>
        <time>2019-06-17T08:55:30Z</time>
      </trkpt>
      <trkpt lat="62.64544" lon="10.19445">
        <ele>526.40002441406</ele>
        <time>2019-06-17T08:55:55Z</time>
      </trkpt>
      <trkpt lat="62.64627" lon="10.19353">
        <ele>525.79998779297</ele>
        <time>2019-06-17T08:56:07Z</time>
      </trkpt>
      <trkpt lat="62.6472" lon="10.19252">
        <ele>524.59997558594</ele>
        <time>2019-06-17T08:56:20Z</time>
      </trkpt>
      <trkpt lat="62.64905" lon="10.19052">
        <ele>521.59997558594</ele>
        <time>2019-06-17T08:56:35Z</time>
      </trkpt>
      <trkpt lat="62.6495" lon="10.19002">
        <ele>521.20001220703</ele>
        <time>2019-06-17T08:56:48Z</time>
      </trkpt>
      <trkpt lat="62.65056" lon="10.18858">
        <ele>520.40002441406</ele>
        <time>2019-06-17T08:57:04Z</time>
      </trkpt>
      <trkpt lat="62.65137" lon="10.18727">
        <ele>520.59997558594</ele>
        <time>2019-06-17T08:57:11Z</time>
      </trkpt>
      <trkpt lat="62.65203" lon="10.18621">
        <ele>521.59997558594</ele>
        <time>2019-06-17T08:57:24Z</time>
      </trkpt>
      <trkpt lat="62.65273" lon="10.18511">
        <ele>522.20001220703</ele>
        <time>2019-06-17T08:57:40Z</time>
      </trkpt>
      <trkpt lat="62.65338" lon="10.18409">
        <ele>522.20001220703</ele>
        <time>2019-06-17T08:57:47Z</time>
      </trkpt>
      <trkpt lat="62.65451" lon="10.18165">
        <ele>520</ele>
        <time>2019-06-17T08:57:56Z</time>
      </trkpt>
      <trkpt lat="62.65529" lon="10.17972">
        <ele>518.59997558594</ele>
        <time>2019-06-17T08:58:13Z</time>
      </trkpt>
      <trkpt lat="62.65647" lon="10.17676">
        <ele>516</ele>
        <time>2019-06-17T08:58:27Z</time>
      </trkpt>
      <trkpt lat="62.65715" lon="10.17486">
        <ele>515.20001220703</ele>
        <time>2019-06-17T08:58:38Z</time>
      </trkpt>
      <trkpt lat="62.65813" lon="10.17291">
        <ele>515.20001220703</ele>
        <time>2019-06-17T08:58:48Z</time>
      </trkpt>
      <trkpt lat="62.65856" lon="10.17188">
        <ele>515.40002441406</ele>
        <time>2019-06-17T08:58:55Z</time>
      </trkpt>
      <trkpt lat="62.65934" lon="10.17012">
        <ele>515.20001220703</ele>
        <time>2019-06-17T08:59:06Z</time>
      </trkpt>
      <trkpt lat="62.65968" lon="10.16957">
        <ele>515</ele>
        <time>2019-06-17T08:59:18Z</time>
      </trkpt>
      <trkpt lat="62.66043" lon="10.16873">
        <ele>515</ele>
        <time>2019-06-17T08:59:24Z</time>
      </trkpt>
      <trkpt lat="62.66143" lon="10.16754">
        <ele>514.20001220703</ele>
        <time>2019-06-17T08:59:33Z</time>
      </trkpt>
      <trkpt lat="62.66178" lon="10.16673">
        <ele>514</ele>
        <time>2019-06-17T08:59:39Z</time>
      </trkpt>
      <trkpt lat="62.66224" lon="10.16535">
        <ele>512.79998779297</ele>
        <time>2019-06-17T08:59:54Z</time>
      </trkpt>
      <trkpt lat="62.66267" lon="10.16403">
        <ele>512</ele>
        <time>2019-06-17T09:00:10Z</time>
      </trkpt>
      <trkpt lat="62.66314" lon="10.16256">
        <ele>512.20001220703</ele>
        <time>2019-06-17T09:00:15Z</time>
      </trkpt>
      <trkpt lat="62.66376" lon="10.16066">
        <ele>512.40002441406</ele>
        <time>2019-06-17T09:00:27Z</time>
      </trkpt>
      <trkpt lat="62.66443" lon="10.15917">
        <ele>514.40002441406</ele>
        <time>2019-06-17T09:00:34Z</time>
      </trkpt>
      <trkpt lat="62.6653" lon="10.15721">
        <ele>519.40002441406</ele>
        <time>2019-06-17T09:00:41Z</time>
      </trkpt>
      <trkpt lat="62.66556" lon="10.1567">
        <ele>520.20001220703</ele>
        <time>2019-06-17T09:00:53Z</time>
      </trkpt>
      <trkpt lat="62.66662" lon="10.15553">
        <ele>522</ele>
        <time>2019-06-17T09:01:01Z</time>
      </trkpt>
      <trkpt lat="62.66752" lon="10.15482">
        <ele>522.59997558594</ele>
        <time>2019-06-17T09:01:22Z</time>
      </trkpt>
      <trkpt lat="62.66806" lon="10.15411">
        <ele>522.59997558594</ele>
        <time>2019-06-17T09:01:37Z</time>
      </trkpt>
      <trkpt lat="62.66866" lon="10.15334">
        <ele>521.59997558594</ele>
        <time>2019-06-17T09:01:42Z</time>
      </trkpt>
      <trkpt lat="62.66899" lon="10.15295">
        <ele>520.79998779297</ele>
        <time>2019-06-17T09:01:53Z</time>
      </trkpt>
      <trkpt lat="62.6691" lon="10.15286">
        <ele>519.59997558594</ele>
        <time>2019-06-17T09:01:58Z</time>
      </trkpt>
      <trkpt lat="62.66942" lon="10.1524">
        <ele>518</ele>
        <time>2019-06-17T09:02:40Z</time>
      </trkpt>
      <trkpt lat="62.66986" lon="10.15184">
        <ele>517.20001220703</ele>
        <time>2019-06-17T09:02:51Z</time>
      </trkpt>
      <trkpt lat="62.67201" lon="10.15023">
        <ele>507.60000610352</ele>
        <time>2019-06-17T09:02:59Z</time>
      </trkpt>
      <trkpt lat="62.67429" lon="10.1473">
        <ele>494.79998779297</ele>
        <time>2019-06-17T09:03:24Z</time>
      </trkpt>
      <trkpt lat="62.67453" lon="10.14704">
        <ele>493</ele>
        <time>2019-06-17T09:03:32Z</time>
      </trkpt>
      <trkpt lat="62.67499" lon="10.14667">
        <ele>491</ele>
        <time>2019-06-17T09:03:39Z</time>
      </trkpt>
      <trkpt lat="62.67547" lon="10.14643">
        <ele>490</ele>
        <time>2019-06-17T09:03:48Z</time>
      </trkpt>
      <trkpt lat="62.6763" lon="10.14637">
        <ele>490</ele>
        <time>2019-06-17T09:03:59Z</time>
      </trkpt>
      <trkpt lat="62.67755" lon="10.14638">
        <ele>490.39999389648</ele>
        <time>2019-06-17T09:04:09Z</time>
      </trkpt>
      <trkpt lat="62.6788" lon="10.14595">
        <ele>488.79998779297</ele>
        <time>2019-06-17T09:04:20Z</time>
      </trkpt>
      <trkpt lat="62.67989" lon="10.14538">
        <ele>487.60000610352</ele>
        <time>2019-06-17T09:04:33Z</time>
      </trkpt>
      <trkpt lat="62.6817" lon="10.14464">
        <ele>489.20001220703</ele>
        <time>2019-06-17T09:04:51Z</time>
      </trkpt>
      <trkpt lat="62.68268" lon="10.1446">
        <ele>489</ele>
        <time>2019-06-17T09:05:04Z</time>
      </trkpt>
      <trkpt lat="62.68372" lon="10.14478">
        <ele>488</ele>
        <time>2019-06-17T09:05:14Z</time>
      </trkpt>
      <trkpt lat="62.68542" lon="10.14471">
        <ele>486.79998779297</ele>
        <time>2019-06-17T09:05:33Z</time>
      </trkpt>
      <trkpt lat="62.68661" lon="10.14394">
        <ele>485.20001220703</ele>
        <time>2019-06-17T09:05:40Z</time>
      </trkpt>
      <trkpt lat="62.68838" lon="10.14179">
        <ele>482.20001220703</ele>
        <time>2019-06-17T09:05:51Z</time>
      </trkpt>
      <trkpt lat="62.68947" lon="10.14103">
        <ele>480.20001220703</ele>
        <time>2019-06-17T09:05:58Z</time>
      </trkpt>
      <trkpt lat="62.69135" lon="10.14047">
        <ele>477.60000610352</ele>
        <time>2019-06-17T09:06:05Z</time>
      </trkpt>
      <trkpt lat="62.6922" lon="10.14">
        <ele>477</ele>
        <time>2019-06-17T09:06:14Z</time>
      </trkpt>
      <trkpt lat="62.69288" lon="10.13962">
        <ele>477</ele>
        <time>2019-06-17T09:06:25Z</time>
      </trkpt>
      <trkpt lat="62.69334" lon="10.13935">
        <ele>476.79998779297</ele>
        <time>2019-06-17T09:06:34Z</time>
      </trkpt>
      <trkpt lat="62.69408" lon="10.13861">
        <ele>476.60000610352</ele>
        <time>2019-06-17T09:06:47Z</time>
      </trkpt>
      <trkpt lat="62.69493" lon="10.13751">
        <ele>474.79998779297</ele>
        <time>2019-06-17T09:07:10Z</time>
      </trkpt>
      <trkpt lat="62.69585" lon="10.1371">
        <ele>471.60000610352</ele>
        <time>2019-06-17T09:07:23Z</time>
      </trkpt>
      <trkpt lat="62.6964" lon="10.13714">
        <ele>470.20001220703</ele>
        <time>2019-06-17T09:07:40Z</time>
      </trkpt>
      <trkpt lat="62.69718" lon="10.13715">
        <ele>469.60000610352</ele>
        <time>2019-06-17T09:07:54Z</time>
      </trkpt>
      <trkpt lat="62.6981" lon="10.1366">
        <ele>469</ele>
        <time>2019-06-17T09:08:07Z</time>
      </trkpt>
      <trkpt lat="62.6988" lon="10.13573">
        <ele>468.60000610352</ele>
        <time>2019-06-17T09:08:21Z</time>
      </trkpt>
      <trkpt lat="62.69941" lon="10.13457">
        <ele>468.60000610352</ele>
        <time>2019-06-17T09:08:32Z</time>
      </trkpt>
      <trkpt lat="62.69996" lon="10.13361">
        <ele>470.60000610352</ele>
        <time>2019-06-17T09:08:57Z</time>
      </trkpt>
      <trkpt lat="62.7008" lon="10.13302">
        <ele>470.60000610352</ele>
        <time>2019-06-17T09:09:17Z</time>
      </trkpt>
      <trkpt lat="62.70167" lon="10.13175">
        <ele>471</ele>
        <time>2019-06-17T09:09:37Z</time>
      </trkpt>
      <trkpt lat="62.70185" lon="10.13111">
        <ele>471.20001220703</ele>
        <time>2019-06-17T09:09:47Z</time>
      </trkpt>
      <trkpt lat="62.702" lon="10.13024">
        <ele>471</ele>
        <time>2019-06-17T09:09:56Z</time>
      </trkpt>
      <trkpt lat="62.70211" lon="10.12907">
        <ele>470.60000610352</ele>
        <time>2019-06-17T09:10:07Z</time>
      </trkpt>
      <trkpt lat="62.70226" lon="10.12724">
        <ele>470.39999389648</ele>
        <time>2019-06-17T09:10:16Z</time>
      </trkpt>
      <trkpt lat="62.70239" lon="10.12651">
        <ele>471</ele>
        <time>2019-06-17T09:10:31Z</time>
      </trkpt>
      <trkpt lat="62.70231" lon="10.12665">
        <ele>471.20001220703</ele>
        <time>2019-06-17T09:10:54Z</time>
      </trkpt>
      <trkpt lat="62.70213" lon="10.12818">
        <ele>471.20001220703</ele>
        <time>2019-06-17T09:11:10Z</time>
      </trkpt>
      <trkpt lat="62.70201" lon="10.12982">
        <ele>470.60000610352</ele>
        <time>2019-06-17T09:11:33Z</time>
      </trkpt>
      <trkpt lat="62.70178" lon="10.13101">
        <ele>470.79998779297</ele>
        <time>2019-06-17T09:11:40Z</time>
      </trkpt>
      <trkpt lat="62.70167" lon="10.13125">
        <ele>470</ele>
        <time>2019-06-17T09:11:49Z</time>
      </trkpt>
      <trkpt lat="62.70164" lon="10.13151">
        <ele>470</ele>
        <time>2019-06-17T09:12:02Z</time>
      </trkpt>
      <trkpt lat="62.70191" lon="10.13152">
        <ele>470.39999389648</ele>
        <time>2019-06-17T09:12:11Z</time>
      </trkpt>
      <trkpt lat="62.70199" lon="10.13157">
        <ele>471.60000610352</ele>
        <time>2019-06-17T09:12:24Z</time>
      </trkpt>
      <trkpt lat="62.70241" lon="10.13209">
        <ele>482.20001220703</ele>
        <time>2019-06-17T09:12:34Z</time>
      </trkpt>
      <trkpt lat="62.70217" lon="10.13112">
        <ele>491.39999389648</ele>
        <time>2019-06-17T09:12:41Z</time>
      </trkpt>
      <trkpt lat="62.70241" lon="10.13133">
        <ele>494.39999389648</ele>
        <time>2019-06-17T09:12:56Z</time>
      </trkpt>
      <trkpt lat="62.70246" lon="10.13118">
        <ele>497</ele>
        <time>2019-06-17T09:13:03Z</time>
      </trkpt>
      <trkpt lat="62.70241" lon="10.13056">
        <ele>500.39999389648</ele>
        <time>2019-06-17T09:13:10Z</time>
      </trkpt>
      <trkpt lat="62.70279" lon="10.13063">
        <ele>506.79998779297</ele>
        <time>2019-06-17T09:13:20Z</time>
      </trkpt>
      <trkpt lat="62.70312" lon="10.13036">
        <ele>510.20001220703</ele>
        <time>2019-06-17T09:13:30Z</time>
      </trkpt>
      <trkpt lat="62.70399" lon="10.12932">
        <ele>516.20001220703</ele>
        <time>2019-06-17T09:13:45Z</time>
      </trkpt>
      <trkpt lat="62.7042" lon="10.12936">
        <ele>517</ele>
        <time>2019-06-17T09:13:58Z</time>
      </trkpt>
      <trkpt lat="62.70454" lon="10.12976">
        <ele>518</ele>
        <time>2019-06-17T09:14:12Z</time>
      </trkpt>
      <trkpt lat="62.70491" lon="10.13026">
        <ele>521.59997558594</ele>
        <time>2019-06-17T09:14:24Z</time>
      </trkpt>
      <trkpt lat="62.70546" lon="10.13033">
        <ele>528.40002441406</ele>
        <time>2019-06-17T09:14:33Z</time>
      </trkpt>
      <trkpt lat="62.70591" lon="10.12965">
        <ele>536.20001220703</ele>
        <time>2019-06-17T09:14:42Z</time>
      </trkpt>
      <trkpt lat="62.70692" lon="10.12872">
        <ele>544.79998779297</ele>
        <time>2019-06-17T09:14:57Z</time>
      </trkpt>
      <trkpt lat="62.70796" lon="10.12782">
        <ele>556.79998779297</ele>
        <time>2019-06-17T09:15:09Z</time>
      </trkpt>
      <trkpt lat="62.70837" lon="10.1276">
        <ele>563.20001220703</ele>
        <time>2019-06-17T09:15:11Z</time>
      </trkpt>
      <trkpt lat="62.70852" lon="10.12751">
        <ele>564</ele>
        <time>2019-06-17T09:15:24Z</time>
      </trkpt>
      <trkpt lat="62.70869" lon="10.12732">
        <ele>564.20001220703</ele>
        <time>2019-06-17T09:15:35Z</time>
      </trkpt>
      <trkpt lat="62.70883" lon="10.12716">
        <ele>566</ele>
        <time>2019-06-17T09:15:55Z</time>
      </trkpt>
      <trkpt lat="62.70933" lon="10.12675">
        <ele>576.79998779297</ele>
        <time>2019-06-17T09:16:05Z</time>
      </trkpt>
      <trkpt lat="62.70982" lon="10.12652">
        <ele>581.59997558594</ele>
        <time>2019-06-17T09:16:33Z</time>
      </trkpt>
      <trkpt lat="62.71103" lon="10.1256">
        <ele>590.20001220703</ele>
        <time>2019-06-17T09:16:48Z</time>
      </trkpt>
      <trkpt lat="62.71232" lon="10.12427">
        <ele>608</ele>
        <time>2019-06-17T09:16:57Z</time>
      </trkpt>
      <trkpt lat="62.71252" lon="10.12412">
        <ele>608.40002441406</ele>
        <time>2019-06-17T09:17:04Z</time>
      </trkpt>
      <trkpt lat="62.71343" lon="10.12388">
        <ele>617.40002441406</ele>
        <time>2019-06-17T09:17:10Z</time>
      </trkpt>
      <trkpt lat="62.71367" lon="10.12375">
        <ele>617.79998779297</ele>
        <time>2019-06-17T09:17:19Z</time>
      </trkpt>
      <trkpt lat="62.71393" lon="10.12357">
        <ele>619.79998779297</ele>
        <time>2019-06-17T09:17:32Z</time>
      </trkpt>
      <trkpt lat="62.71464" lon="10.12294">
        <ele>620.20001220703</ele>
        <time>2019-06-17T09:17:45Z</time>
      </trkpt>
      <trkpt lat="62.71476" lon="10.1228">
        <ele>620.79998779297</ele>
        <time>2019-06-17T09:18:02Z</time>
      </trkpt>
      <trkpt lat="62.71523" lon="10.12238">
        <ele>625.40002441406</ele>
        <time>2019-06-17T09:18:20Z</time>
      </trkpt>
      <trkpt lat="62.7158" lon="10.12181">
        <ele>626.40002441406</ele>
        <time>2019-06-17T09:18:27Z</time>
      </trkpt>
      <trkpt lat="62.71632" lon="10.12126">
        <ele>627.79998779297</ele>
        <time>2019-06-17T09:18:34Z</time>
      </trkpt>
      <trkpt lat="62.7168" lon="10.12082">
        <ele>630</ele>
        <time>2019-06-17T09:18:37Z</time>
      </trkpt>
      <trkpt lat="62.71695" lon="10.12061">
        <ele>628.79998779297</ele>
        <time>2019-06-17T09:18:44Z</time>
      </trkpt>
      <trkpt lat="62.71706" lon="10.12046">
        <ele>628.79998779297</ele>
        <time>2019-06-17T09:18:59Z</time>
      </trkpt>
      <trkpt lat="62.71732" lon="10.12019">
        <ele>629</ele>
        <time>2019-06-17T09:19:06Z</time>
      </trkpt>
      <trkpt lat="62.71787" lon="10.11973">
        <ele>631.20001220703</ele>
        <time>2019-06-17T09:19:16Z</time>
      </trkpt>
      <trkpt lat="62.7184" lon="10.11933">
        <ele>632.20001220703</ele>
        <time>2019-06-17T09:19:35Z</time>
      </trkpt>
      <trkpt lat="62.71956" lon="10.11865">
        <ele>639.79998779297</ele>
        <time>2019-06-17T09:19:55Z</time>
      </trkpt>
      <trkpt lat="62.72036" lon="10.11796">
        <ele>641.20001220703</ele>
        <time>2019-06-17T09:20:10Z</time>
      </trkpt>
      <trkpt lat="62.7207" lon="10.11777">
        <ele>642.59997558594</ele>
        <time>2019-06-17T09:20:20Z</time>
      </trkpt>
      <trkpt lat="62.72136" lon="10.11752">
        <ele>643</ele>
        <time>2019-06-17T09:22:39Z</time>
      </trkpt>
      <trkpt lat="62.72198" lon="10.11722">
        <ele>644.40002441406</ele>
        <time>2019-06-17T09:23:43Z</time>
      </trkpt>
      <trkpt lat="62.72237" lon="10.11661">
        <ele>647.20001220703</ele>
        <time>2019-06-17T09:23:56Z</time>
      </trkpt>
      <trkpt lat="62.72333" lon="10.11587">
        <ele>661.79998779297</ele>
        <time>2019-06-17T09:24:03Z</time>
      </trkpt>
      <trkpt lat="62.72371" lon="10.1157">
        <ele>662.79998779297</ele>
        <time>2019-06-17T09:24:19Z</time>
      </trkpt>
      <trkpt lat="62.72404" lon="10.11556">
        <ele>665.40002441406</ele>
        <time>2019-06-17T09:24:30Z</time>
      </trkpt>
      <trkpt lat="62.72465" lon="10.11522">
        <ele>667.20001220703</ele>
        <time>2019-06-17T09:24:44Z</time>
      </trkpt>
      <trkpt lat="62.72529" lon="10.11488">
        <ele>672.20001220703</ele>
        <time>2019-06-17T09:25:04Z</time>
      </trkpt>
      <trkpt lat="62.72563" lon="10.11466">
        <ele>673</ele>
        <time>2019-06-17T09:25:20Z</time>
      </trkpt>
      <trkpt lat="62.72601" lon="10.11446">
        <ele>672.59997558594</ele>
        <time>2019-06-17T09:25:30Z</time>
      </trkpt>
      <trkpt lat="62.72639" lon="10.11418">
        <ele>675.40002441406</ele>
        <time>2019-06-17T09:25:45Z</time>
      </trkpt>
      <trkpt lat="62.7277" lon="10.11344">
        <ele>678.40002441406</ele>
        <time>2019-06-17T09:26:01Z</time>
      </trkpt>
      <trkpt lat="62.72812" lon="10.11332">
        <ele>678.20001220703</ele>
        <time>2019-06-17T09:26:22Z</time>
      </trkpt>
      <trkpt lat="62.72927" lon="10.11301">
        <ele>676</ele>
        <time>2019-06-17T09:26:35Z</time>
      </trkpt>
      <trkpt lat="62.73019" lon="10.1126">
        <ele>673.40002441406</ele>
        <time>2019-06-17T09:26:50Z</time>
      </trkpt>
      <trkpt lat="62.73092" lon="10.1119">
        <ele>669</ele>
        <time>2019-06-17T09:27:07Z</time>
      </trkpt>
      <trkpt lat="62.73117" lon="10.11158">
        <ele>668.40002441406</ele>
        <time>2019-06-17T09:27:23Z</time>
      </trkpt>
      <trkpt lat="62.73153" lon="10.11118">
        <ele>668.59997558594</ele>
        <time>2019-06-17T09:27:38Z</time>
      </trkpt>
      <trkpt lat="62.73268" lon="10.11001">
        <ele>666.20001220703</ele>
        <time>2019-06-17T09:27:45Z</time>
      </trkpt>
      <trkpt lat="62.73286" lon="10.1098">
        <ele>668</ele>
        <time>2019-06-17T09:27:57Z</time>
      </trkpt>
      <trkpt lat="62.73332" lon="10.10928">
        <ele>670</ele>
        <time>2019-06-17T09:28:11Z</time>
      </trkpt>
      <trkpt lat="62.73387" lon="10.10884">
        <ele>671</ele>
        <time>2019-06-17T09:28:23Z</time>
      </trkpt>
      <trkpt lat="62.7342" lon="10.10862">
        <ele>671.20001220703</ele>
        <time>2019-06-17T09:28:31Z</time>
      </trkpt>
      <trkpt lat="62.73464" lon="10.10825">
        <ele>671</ele>
        <time>2019-06-17T09:28:40Z</time>
      </trkpt>
      <trkpt lat="62.73474" lon="10.1082">
        <ele>670.20001220703</ele>
        <time>2019-06-17T09:28:45Z</time>
      </trkpt>
      <trkpt lat="62.73567" lon="10.10756">
        <ele>669.40002441406</ele>
        <time>2019-06-17T09:28:58Z</time>
      </trkpt>
      <trkpt lat="62.73571" lon="10.10755">
        <ele>669.59997558594</ele>
        <time>2019-06-17T09:29:14Z</time>
      </trkpt>
      <trkpt lat="62.73602" lon="10.10737">
        <ele>669.59997558594</ele>
        <time>2019-06-17T09:29:37Z</time>
      </trkpt>
      <trkpt lat="62.73684" lon="10.10694">
        <ele>666</ele>
        <time>2019-06-17T09:29:46Z</time>
      </trkpt>
      <trkpt lat="62.7382" lon="10.10631">
        <ele>654.79998779297</ele>
        <time>2019-06-17T09:30:02Z</time>
      </trkpt>
      <trkpt lat="62.73916" lon="10.10592">
        <ele>649.79998779297</ele>
        <time>2019-06-17T09:30:13Z</time>
      </trkpt>
      <trkpt lat="62.73944" lon="10.10585">
        <ele>643.79998779297</ele>
        <time>2019-06-17T09:30:18Z</time>
      </trkpt>
      <trkpt lat="62.73994" lon="10.10577">
        <ele>643.40002441406</ele>
        <time>2019-06-17T09:30:28Z</time>
      </trkpt>
      <trkpt lat="62.74031" lon="10.10574">
        <ele>644</ele>
        <time>2019-06-17T09:30:47Z</time>
      </trkpt>
      <trkpt lat="62.74068" lon="10.10569">
        <ele>642.79998779297</ele>
        <time>2019-06-17T09:30:54Z</time>
      </trkpt>
      <trkpt lat="62.74114" lon="10.10568">
        <ele>642.59997558594</ele>
        <time>2019-06-17T09:31:10Z</time>
      </trkpt>
      <trkpt lat="62.74178" lon="10.10558">
        <ele>641.59997558594</ele>
        <time>2019-06-17T09:31:18Z</time>
      </trkpt>
      <trkpt lat="62.74208" lon="10.10551">
        <ele>641.59997558594</ele>
        <time>2019-06-17T09:31:30Z</time>
      </trkpt>
      <trkpt lat="62.74254" lon="10.10549">
        <ele>641.40002441406</ele>
        <time>2019-06-17T09:31:41Z</time>
      </trkpt>
      <trkpt lat="62.74393" lon="10.10569">
        <ele>639</ele>
        <time>2019-06-17T09:31:50Z</time>
      </trkpt>
      <trkpt lat="62.74411" lon="10.10571">
        <ele>638.79998779297</ele>
        <time>2019-06-17T09:32:01Z</time>
      </trkpt>
      <trkpt lat="62.74427" lon="10.10569">
        <ele>638.79998779297</ele>
        <time>2019-06-17T09:32:18Z</time>
      </trkpt>
      <trkpt lat="62.74484" lon="10.10551">
        <ele>637.40002441406</ele>
        <time>2019-06-17T09:32:30Z</time>
      </trkpt>
      <trkpt lat="62.74505" lon="10.10533">
        <ele>637</ele>
        <time>2019-06-17T09:32:48Z</time>
      </trkpt>
      <trkpt lat="62.74539" lon="10.10495">
        <ele>636.79998779297</ele>
        <time>2019-06-17T09:32:58Z</time>
      </trkpt>
      <trkpt lat="62.74569" lon="10.10457">
        <ele>636.79998779297</ele>
        <time>2019-06-17T09:33:10Z</time>
      </trkpt>
      <trkpt lat="62.74604" lon="10.10417">
        <ele>639.79998779297</ele>
        <time>2019-06-17T09:33:21Z</time>
      </trkpt>
      <trkpt lat="62.74664" lon="10.10358">
        <ele>642</ele>
        <time>2019-06-17T09:33:31Z</time>
      </trkpt>
      <trkpt lat="62.74698" lon="10.10343">
        <ele>644.20001220703</ele>
        <time>2019-06-17T09:33:37Z</time>
      </trkpt>
      <trkpt lat="62.74753" lon="10.10374">
        <ele>641.79998779297</ele>
        <time>2019-06-17T09:33:48Z</time>
      </trkpt>
      <trkpt lat="62.74827" lon="10.10355">
        <ele>635.40002441406</ele>
        <time>2019-06-17T09:33:56Z</time>
      </trkpt>
      <trkpt lat="62.74845" lon="10.10346">
        <ele>635.20001220703</ele>
        <time>2019-06-17T09:34:10Z</time>
      </trkpt>
      <trkpt lat="62.74879" lon="10.10338">
        <ele>635.59997558594</ele>
        <time>2019-06-17T09:34:16Z</time>
      </trkpt>
      <trkpt lat="62.74943" lon="10.10331">
        <ele>633</ele>
        <time>2019-06-17T09:34:30Z</time>
      </trkpt>
      <trkpt lat="62.74958" lon="10.10327">
        <ele>633</ele>
        <time>2019-06-17T09:34:46Z</time>
      </trkpt>
      <trkpt lat="62.75004" lon="10.10307">
        <ele>632.79998779297</ele>
        <time>2019-06-17T09:34:53Z</time>
      </trkpt>
      <trkpt lat="62.75011" lon="10.10309">
        <ele>632.59997558594</ele>
        <time>2019-06-17T09:34:56Z</time>
      </trkpt>
      <trkpt lat="62.75087" lon="10.10269">
        <ele>633.79998779297</ele>
        <time>2019-06-17T09:40:49Z</time>
      </trkpt>
      <trkpt lat="62.75131" lon="10.10257">
        <ele>635.40002441406</ele>
        <time>2019-06-17T09:41:02Z</time>
      </trkpt>
      <trkpt lat="62.75138" lon="10.10257">
        <ele>635</ele>
        <time>2019-06-17T09:41:13Z</time>
      </trkpt>
      <trkpt lat="62.75206" lon="10.10189">
        <ele>639</ele>
        <time>2019-06-17T09:41:18Z</time>
      </trkpt>
      <trkpt lat="62.7531" lon="10.10164">
        <ele>636</ele>
        <time>2019-06-17T09:41:22Z</time>
      </trkpt>
      <trkpt lat="62.75421" lon="10.10188">
        <ele>632.20001220703</ele>
        <time>2019-06-17T09:41:28Z</time>
      </trkpt>
      <trkpt lat="62.75442" lon="10.10199">
        <ele>632.20001220703</ele>
        <time>2019-06-17T09:41:33Z</time>
      </trkpt>
      <trkpt lat="62.75478" lon="10.1021">
        <ele>632</ele>
        <time>2019-06-17T09:41:39Z</time>
      </trkpt>
      <trkpt lat="62.75493" lon="10.10215">
        <ele>632.20001220703</ele>
        <time>2019-06-17T09:41:47Z</time>
      </trkpt>
      <trkpt lat="62.75521" lon="10.10231">
        <ele>632.20001220703</ele>
        <time>2019-06-17T09:41:56Z</time>
      </trkpt>
      <trkpt lat="62.75546" lon="10.10239">
        <ele>632</ele>
        <time>2019-06-17T09:42:05Z</time>
      </trkpt>
      <trkpt lat="62.75596" lon="10.10228">
        <ele>632.59997558594</ele>
        <time>2019-06-17T09:42:15Z</time>
      </trkpt>
      <trkpt lat="62.75671" lon="10.10215">
        <ele>632.59997558594</ele>
        <time>2019-06-17T09:42:29Z</time>
      </trkpt>
      <trkpt lat="62.75713" lon="10.1019">
        <ele>632</ele>
        <time>2019-06-17T09:42:39Z</time>
      </trkpt>
      <trkpt lat="62.75731" lon="10.10172">
        <ele>632</ele>
        <time>2019-06-17T09:42:51Z</time>
      </trkpt>
      <trkpt lat="62.75786" lon="10.10138">
        <ele>634.20001220703</ele>
        <time>2019-06-17T09:43:06Z</time>
      </trkpt>
      <trkpt lat="62.75812" lon="10.10131">
        <ele>632.40002441406</ele>
        <time>2019-06-17T09:43:25Z</time>
      </trkpt>
      <trkpt lat="62.75844" lon="10.10123">
        <ele>632.40002441406</ele>
        <time>2019-06-17T09:43:36Z</time>
      </trkpt>
      <trkpt lat="62.75868" lon="10.1011">
        <ele>631.79998779297</ele>
        <time>2019-06-17T09:43:55Z</time>
      </trkpt>
      <trkpt lat="62.75918" lon="10.10108">
        <ele>631.79998779297</ele>
        <time>2019-06-17T09:44:12Z</time>
      </trkpt>
      <trkpt lat="62.75942" lon="10.10126">
        <ele>632.79998779297</ele>
        <time>2019-06-17T09:44:22Z</time>
      </trkpt>
      <trkpt lat="62.75977" lon="10.10132">
        <ele>633</ele>
        <time>2019-06-17T09:44:31Z</time>
      </trkpt>
      <trkpt lat="62.75999" lon="10.10135">
        <ele>632.79998779297</ele>
        <time>2019-06-17T09:44:47Z</time>
      </trkpt>
      <trkpt lat="62.76039" lon="10.10149">
        <ele>632.79998779297</ele>
        <time>2019-06-17T09:45:07Z</time>
      </trkpt>
      <trkpt lat="62.76056" lon="10.10191">
        <ele>632.59997558594</ele>
        <time>2019-06-17T09:45:14Z</time>
      </trkpt>
      <trkpt lat="62.76091" lon="10.10271">
        <ele>634</ele>
        <time>2019-06-17T09:45:28Z</time>
      </trkpt>
      <trkpt lat="62.7612" lon="10.10279">
        <ele>634</ele>
        <time>2019-06-17T09:45:50Z</time>
      </trkpt>
      <trkpt lat="62.76135" lon="10.10273">
        <ele>633.79998779297</ele>
        <time>2019-06-17T09:46:02Z</time>
      </trkpt>
      <trkpt lat="62.76157" lon="10.10256">
        <ele>634.20001220703</ele>
        <time>2019-06-17T09:46:16Z</time>
      </trkpt>
      <trkpt lat="62.76176" lon="10.10242">
        <ele>634.20001220703</ele>
        <time>2019-06-17T09:46:31Z</time>
      </trkpt>
      <trkpt lat="62.76191" lon="10.10232">
        <ele>634.59997558594</ele>
        <time>2019-06-17T09:46:43Z</time>
      </trkpt>
      <trkpt lat="62.76249" lon="10.10192">
        <ele>635</ele>
        <time>2019-06-17T09:46:57Z</time>
      </trkpt>
      <trkpt lat="62.76342" lon="10.1011">
        <ele>636.79998779297</ele>
        <time>2019-06-17T09:47:12Z</time>
      </trkpt>
      <trkpt lat="62.76383" lon="10.10051">
        <ele>636.20001220703</ele>
        <time>2019-06-17T09:47:25Z</time>
      </trkpt>
      <trkpt lat="62.76392" lon="10.10033">
        <ele>635</ele>
        <time>2019-06-17T09:47:45Z</time>
      </trkpt>
      <trkpt lat="62.76407" lon="10.0999">
        <ele>634.59997558594</ele>
        <time>2019-06-17T09:48:00Z</time>
      </trkpt>
      <trkpt lat="62.76427" lon="10.09903">
        <ele>633.20001220703</ele>
        <time>2019-06-17T09:48:15Z</time>
      </trkpt>
      <trkpt lat="62.76431" lon="10.09887">
        <ele>631</ele>
        <time>2019-06-17T09:48:28Z</time>
      </trkpt>
      <trkpt lat="62.76434" lon="10.09851">
        <ele>631</ele>
        <time>2019-06-17T09:48:33Z</time>
      </trkpt>
      <trkpt lat="62.76446" lon="10.0981">
        <ele>630</ele>
        <time>2019-06-17T09:48:51Z</time>
      </trkpt>
      <trkpt lat="62.76455" lon="10.09799">
        <ele>628.79998779297</ele>
        <time>2019-06-17T09:49:00Z</time>
      </trkpt>
      <trkpt lat="62.76473" lon="10.09778">
        <ele>628.79998779297</ele>
        <time>2019-06-17T09:49:04Z</time>
      </trkpt>
      <trkpt lat="62.76475" lon="10.09782">
        <ele>629.59997558594</ele>
        <time>2019-06-17T09:49:54Z</time>
      </trkpt>
      <trkpt lat="62.76516" lon="10.09797">
        <ele>630.59997558594</ele>
        <time>2019-06-17T09:50:04Z</time>
      </trkpt>
      <trkpt lat="62.76562" lon="10.09776">
        <ele>630.20001220703</ele>
        <time>2019-06-17T09:50:09Z</time>
      </trkpt>
      <trkpt lat="62.76614" lon="10.09733">
        <ele>631.59997558594</ele>
        <time>2019-06-17T09:50:17Z</time>
      </trkpt>
      <trkpt lat="62.76675" lon="10.09704">
        <ele>637.79998779297</ele>
        <time>2019-06-17T09:50:21Z</time>
      </trkpt>
      <trkpt lat="62.76767" lon="10.09669">
        <ele>641.79998779297</ele>
        <time>2019-06-17T09:50:32Z</time>
      </trkpt>
      <trkpt lat="62.76808" lon="10.09652">
        <ele>641.59997558594</ele>
        <time>2019-06-17T09:50:38Z</time>
      </trkpt>
      <trkpt lat="62.76896" lon="10.09616">
        <ele>639.20001220703</ele>
        <time>2019-06-17T09:50:41Z</time>
      </trkpt>
      <trkpt lat="62.7702" lon="10.09523">
        <ele>634</ele>
        <time>2019-06-17T09:50:49Z</time>
      </trkpt>
      <trkpt lat="62.77039" lon="10.09508">
        <ele>633.79998779297</ele>
        <time>2019-06-17T09:51:00Z</time>
      </trkpt>
      <trkpt lat="62.7706" lon="10.09493">
        <ele>637.59997558594</ele>
        <time>2019-06-17T09:51:07Z</time>
      </trkpt>
      <trkpt lat="62.77078" lon="10.09484">
        <ele>638.59997558594</ele>
        <time>2019-06-17T09:51:19Z</time>
      </trkpt>
      <trkpt lat="62.77111" lon="10.09473">
        <ele>639</ele>
        <time>2019-06-17T09:51:22Z</time>
      </trkpt>
      <trkpt lat="62.77117" lon="10.09471">
        <ele>637.79998779297</ele>
        <time>2019-06-17T09:51:35Z</time>
      </trkpt>
      <trkpt lat="62.77176" lon="10.09437">
        <ele>637</ele>
        <time>2019-06-17T09:51:47Z</time>
      </trkpt>
      <trkpt lat="62.77226" lon="10.0941">
        <ele>636.79998779297</ele>
        <time>2019-06-17T09:51:58Z</time>
      </trkpt>
      <trkpt lat="62.77278" lon="10.09387">
        <ele>636.79998779297</ele>
        <time>2019-06-17T09:52:15Z</time>
      </trkpt>
      <trkpt lat="62.77299" lon="10.09377">
        <ele>636</ele>
        <time>2019-06-17T09:52:20Z</time>
      </trkpt>
      <trkpt lat="62.7734" lon="10.09361">
        <ele>636.20001220703</ele>
        <time>2019-06-17T09:52:32Z</time>
      </trkpt>
      <trkpt lat="62.7737" lon="10.09348">
        <ele>635.79998779297</ele>
        <time>2019-06-17T09:52:50Z</time>
      </trkpt>
      <trkpt lat="62.7739" lon="10.09339">
        <ele>635.79998779297</ele>
        <time>2019-06-17T09:52:59Z</time>
      </trkpt>
      <trkpt lat="62.77513" lon="10.0929">
        <ele>633.59997558594</ele>
        <time>2019-06-17T09:53:21Z</time>
      </trkpt>
      <trkpt lat="62.77557" lon="10.09283">
        <ele>633.20001220703</ele>
        <time>2019-06-17T09:53:31Z</time>
      </trkpt>
      <trkpt lat="62.77706" lon="10.09223">
        <ele>629.40002441406</ele>
        <time>2019-06-17T09:53:39Z</time>
      </trkpt>
      <trkpt lat="62.77739" lon="10.09197">
        <ele>629.20001220703</ele>
        <time>2019-06-17T09:53:53Z</time>
      </trkpt>
      <trkpt lat="62.77809" lon="10.09144">
        <ele>626.79998779297</ele>
        <time>2019-06-17T09:54:00Z</time>
      </trkpt>
      <trkpt lat="62.77881" lon="10.09088">
        <ele>623.20001220703</ele>
        <time>2019-06-17T09:54:11Z</time>
      </trkpt>
      <trkpt lat="62.77954" lon="10.09032">
        <ele>621</ele>
        <time>2019-06-17T09:54:24Z</time>
      </trkpt>
      <trkpt lat="62.77991" lon="10.08999">
        <ele>618.59997558594</ele>
        <time>2019-06-17T09:54:30Z</time>
      </trkpt>
      <trkpt lat="62.78158" lon="10.08886">
        <ele>614.40002441406</ele>
        <time>2019-06-17T09:55:46Z</time>
      </trkpt>
      <trkpt lat="62.78287" lon="10.08825">
        <ele>610.40002441406</ele>
        <time>2019-06-17T09:55:52Z</time>
      </trkpt>
      <trkpt lat="62.78376" lon="10.08786">
        <ele>609</ele>
        <time>2019-06-17T09:55:56Z</time>
      </trkpt>
      <trkpt lat="62.78493" lon="10.08725">
        <ele>604.20001220703</ele>
        <time>2019-06-17T09:56:00Z</time>
      </trkpt>
      <trkpt lat="62.78549" lon="10.08666">
        <ele>602.20001220703</ele>
        <time>2019-06-17T09:56:04Z</time>
      </trkpt>
      <trkpt lat="62.78597" lon="10.08648">
        <ele>599.59997558594</ele>
        <time>2019-06-17T09:56:19Z</time>
      </trkpt>
      <trkpt lat="62.78689" lon="10.08644">
        <ele>599.20001220703</ele>
        <time>2019-06-17T09:56:31Z</time>
      </trkpt>
      <trkpt lat="62.7876" lon="10.08645">
        <ele>597.20001220703</ele>
        <time>2019-06-17T09:56:40Z</time>
      </trkpt>
      <trkpt lat="62.78862" lon="10.08612">
        <ele>592.59997558594</ele>
        <time>2019-06-17T09:58:47Z</time>
      </trkpt>
      <trkpt lat="62.78922" lon="10.08586">
        <ele>587.79998779297</ele>
        <time>2019-06-17T09:58:55Z</time>
      </trkpt>
      <trkpt lat="62.78992" lon="10.08548">
        <ele>586</ele>
        <time>2019-06-17T09:59:03Z</time>
      </trkpt>
      <trkpt lat="62.79045" lon="10.08525">
        <ele>585.59997558594</ele>
        <time>2019-06-17T09:59:11Z</time>
      </trkpt>
      <trkpt lat="62.79124" lon="10.08507">
        <ele>581.79998779297</ele>
        <time>2019-06-17T09:59:22Z</time>
      </trkpt>
      <trkpt lat="62.79172" lon="10.08495">
        <ele>581</ele>
        <time>2019-06-17T09:59:30Z</time>
      </trkpt>
      <trkpt lat="62.79217" lon="10.08463">
        <ele>580.20001220703</ele>
        <time>2019-06-17T09:59:35Z</time>
      </trkpt>
      <trkpt lat="62.793" lon="10.0837">
        <ele>575.79998779297</ele>
        <time>2019-06-17T09:59:43Z</time>
      </trkpt>
      <trkpt lat="62.7941" lon="10.08222">
        <ele>571.79998779297</ele>
        <time>2019-06-17T09:59:52Z</time>
      </trkpt>
      <trkpt lat="62.79427" lon="10.08201">
        <ele>570.20001220703</ele>
        <time>2019-06-17T10:00:00Z</time>
      </trkpt>
      <trkpt lat="62.79456" lon="10.08163">
        <ele>569.20001220703</ele>
        <time>2019-06-17T10:00:06Z</time>
      </trkpt>
      <trkpt lat="62.79472" lon="10.08146">
        <ele>569.20001220703</ele>
        <time>2019-06-17T10:00:17Z</time>
      </trkpt>
      <trkpt lat="62.79516" lon="10.08099">
        <ele>567.59997558594</ele>
        <time>2019-06-17T10:00:23Z</time>
      </trkpt>
      <trkpt lat="62.79667" lon="10.07903">
        <ele>558.79998779297</ele>
        <time>2019-06-17T10:00:40Z</time>
      </trkpt>
      <trkpt lat="62.79698" lon="10.07858">
        <ele>557.79998779297</ele>
        <time>2019-06-17T10:00:46Z</time>
      </trkpt>
      <trkpt lat="62.79766" lon="10.07767">
        <ele>552.40002441406</ele>
        <time>2019-06-17T10:00:57Z</time>
      </trkpt>
      <trkpt lat="62.79814" lon="10.0774">
        <ele>552.79998779297</ele>
        <time>2019-06-17T10:01:16Z</time>
      </trkpt>
      <trkpt lat="62.79865" lon="10.07703">
        <ele>552.40002441406</ele>
        <time>2019-06-17T10:01:20Z</time>
      </trkpt>
      <trkpt lat="62.79938" lon="10.07637">
        <ele>548.59997558594</ele>
        <time>2019-06-17T10:01:22Z</time>
      </trkpt>
      <trkpt lat="62.80027" lon="10.07564">
        <ele>546.20001220703</ele>
        <time>2019-06-17T10:01:28Z</time>
      </trkpt>
      <trkpt lat="62.80069" lon="10.07532">
        <ele>544.40002441406</ele>
        <time>2019-06-17T10:01:31Z</time>
      </trkpt>
      <trkpt lat="62.80126" lon="10.07429">
        <ele>541.20001220703</ele>
        <time>2019-06-17T10:01:39Z</time>
      </trkpt>
      <trkpt lat="62.80161" lon="10.07348">
        <ele>540.79998779297</ele>
        <time>2019-06-17T10:01:50Z</time>
      </trkpt>
      <trkpt lat="62.80175" lon="10.07303">
        <ele>540.40002441406</ele>
        <time>2019-06-17T10:01:52Z</time>
      </trkpt>
      <trkpt lat="62.80198" lon="10.07223">
        <ele>539.20001220703</ele>
        <time>2019-06-17T10:02:08Z</time>
      </trkpt>
      <trkpt lat="62.80217" lon="10.0718">
        <ele>538</ele>
        <time>2019-06-17T10:02:20Z</time>
      </trkpt>
      <trkpt lat="62.80262" lon="10.07129">
        <ele>533.20001220703</ele>
        <time>2019-06-17T10:02:35Z</time>
      </trkpt>
      <trkpt lat="62.80318" lon="10.0711">
        <ele>525.20001220703</ele>
        <time>2019-06-17T10:02:50Z</time>
      </trkpt>
      <trkpt lat="62.8033" lon="10.07129">
        <ele>524.20001220703</ele>
        <time>2019-06-17T10:02:55Z</time>
      </trkpt>
      <trkpt lat="62.80352" lon="10.07169">
        <ele>524</ele>
        <time>2019-06-17T10:03:12Z</time>
      </trkpt>
      <trkpt lat="62.80385" lon="10.07213">
        <ele>523.40002441406</ele>
        <time>2019-06-17T10:03:19Z</time>
      </trkpt>
      <trkpt lat="62.80442" lon="10.07283">
        <ele>524</ele>
        <time>2019-06-17T10:03:24Z</time>
      </trkpt>
      <trkpt lat="62.80476" lon="10.07321">
        <ele>524.79998779297</ele>
        <time>2019-06-17T10:03:31Z</time>
      </trkpt>
      <trkpt lat="62.805" lon="10.07349">
        <ele>526.20001220703</ele>
        <time>2019-06-17T10:03:37Z</time>
      </trkpt>
      <trkpt lat="62.80543" lon="10.07395">
        <ele>526.40002441406</ele>
        <time>2019-06-17T10:03:49Z</time>
      </trkpt>
      <trkpt lat="62.80553" lon="10.07398">
        <ele>525</ele>
        <time>2019-06-17T10:04:10Z</time>
      </trkpt>
      <trkpt lat="62.80557" lon="10.07418">
        <ele>525.40002441406</ele>
        <time>2019-06-17T10:04:16Z</time>
      </trkpt>
      <trkpt lat="62.80574" lon="10.07506">
        <ele>526</ele>
        <time>2019-06-17T10:04:38Z</time>
      </trkpt>
      <trkpt lat="62.80577" lon="10.07523">
        <ele>527.40002441406</ele>
        <time>2019-06-17T10:04:54Z</time>
      </trkpt>
      <trkpt lat="62.80583" lon="10.07602">
        <ele>528</ele>
        <time>2019-06-17T10:05:10Z</time>
      </trkpt>
      <trkpt lat="62.80585" lon="10.07676">
        <ele>528.20001220703</ele>
        <time>2019-06-17T10:05:32Z</time>
      </trkpt>
      <trkpt lat="62.80573" lon="10.07726">
        <ele>527.40002441406</ele>
        <time>2019-06-17T10:05:47Z</time>
      </trkpt>
      <trkpt lat="62.80586" lon="10.07718">
        <ele>526.40002441406</ele>
        <time>2019-06-17T10:06:09Z</time>
      </trkpt>
      <trkpt lat="62.80606" lon="10.07756">
        <ele>526.40002441406</ele>
        <time>2019-06-17T10:06:22Z</time>
      </trkpt>
      <trkpt lat="62.80649" lon="10.07799">
        <ele>527.40002441406</ele>
        <time>2019-06-17T10:06:35Z</time>
      </trkpt>
      <trkpt lat="62.8071" lon="10.0785">
        <ele>530.79998779297</ele>
        <time>2019-06-17T10:06:58Z</time>
      </trkpt>
      <trkpt lat="62.80724" lon="10.07868">
        <ele>530.79998779297</ele>
        <time>2019-06-17T10:07:02Z</time>
      </trkpt>
      <trkpt lat="62.8075" lon="10.07926">
        <ele>532.40002441406</ele>
        <time>2019-06-17T10:07:11Z</time>
      </trkpt>
      <trkpt lat="62.80758" lon="10.07948">
        <ele>532</ele>
        <time>2019-06-17T10:07:20Z</time>
      </trkpt>
      <trkpt lat="62.80785" lon="10.08027">
        <ele>531.79998779297</ele>
        <time>2019-06-17T10:07:27Z</time>
      </trkpt>
      <trkpt lat="62.80814" lon="10.08054">
        <ele>533</ele>
        <time>2019-06-17T10:07:45Z</time>
      </trkpt>
      <trkpt lat="62.80846" lon="10.0807">
        <ele>536.40002441406</ele>
        <time>2019-06-17T10:07:57Z</time>
      </trkpt>
      <trkpt lat="62.8088" lon="10.08069">
        <ele>536.40002441406</ele>
        <time>2019-06-17T10:08:03Z</time>
      </trkpt>
      <trkpt lat="62.80911" lon="10.08064">
        <ele>535.79998779297</ele>
        <time>2019-06-17T10:08:21Z</time>
      </trkpt>
      <trkpt lat="62.80946" lon="10.0806">
        <ele>535.79998779297</ele>
        <time>2019-06-17T10:08:36Z</time>
      </trkpt>
      <trkpt lat="62.81055" lon="10.08059">
        <ele>538.40002441406</ele>
        <time>2019-06-17T10:08:45Z</time>
      </trkpt>
      <trkpt lat="62.81083" lon="10.08061">
        <ele>538</ele>
        <time>2019-06-17T10:09:01Z</time>
      </trkpt>
      <trkpt lat="62.81122" lon="10.08064">
        <ele>538</ele>
        <time>2019-06-17T10:09:34Z</time>
      </trkpt>
      <trkpt lat="62.81248" lon="10.08085">
        <ele>541</ele>
        <time>2019-06-17T10:09:51Z</time>
      </trkpt>
      <trkpt lat="62.81291" lon="10.08111">
        <ele>544.40002441406</ele>
        <time>2019-06-17T10:10:01Z</time>
      </trkpt>
      <trkpt lat="62.8132" lon="10.0812">
        <ele>544.59997558594</ele>
        <time>2019-06-17T10:10:10Z</time>
      </trkpt>
      <trkpt lat="62.81346" lon="10.08124">
        <ele>544.20001220703</ele>
        <time>2019-06-17T10:10:31Z</time>
      </trkpt>
      <trkpt lat="62.81408" lon="10.08126">
        <ele>544.59997558594</ele>
        <time>2019-06-17T10:10:46Z</time>
      </trkpt>
      <trkpt lat="62.81549" lon="10.08129">
        <ele>556</ele>
        <time>2019-06-17T10:11:03Z</time>
      </trkpt>
      <trkpt lat="62.81575" lon="10.08122">
        <ele>561.40002441406</ele>
        <time>2019-06-17T10:11:48Z</time>
      </trkpt>
      <trkpt lat="62.81632" lon="10.08094">
        <ele>565</ele>
        <time>2019-06-17T10:12:01Z</time>
      </trkpt>
      <trkpt lat="62.81655" lon="10.08079">
        <ele>565</ele>
        <time>2019-06-17T10:12:09Z</time>
      </trkpt>
      <trkpt lat="62.81697" lon="10.08043">
        <ele>564.79998779297</ele>
        <time>2019-06-17T10:12:16Z</time>
      </trkpt>
      <trkpt lat="62.818" lon="10.07962">
        <ele>567</ele>
        <time>2019-06-17T10:12:27Z</time>
      </trkpt>
      <trkpt lat="62.81847" lon="10.07929">
        <ele>566.59997558594</ele>
        <time>2019-06-17T10:12:39Z</time>
      </trkpt>
      <trkpt lat="62.81905" lon="10.07908">
        <ele>569</ele>
        <time>2019-06-17T10:12:49Z</time>
      </trkpt>
      <trkpt lat="62.81966" lon="10.07904">
        <ele>568.20001220703</ele>
        <time>2019-06-17T10:13:00Z</time>
      </trkpt>
      <trkpt lat="62.81995" lon="10.07903">
        <ele>565.79998779297</ele>
        <time>2019-06-17T10:13:14Z</time>
      </trkpt>
      <trkpt lat="62.82021" lon="10.07908">
        <ele>565.40002441406</ele>
        <time>2019-06-17T10:13:27Z</time>
      </trkpt>
      <trkpt lat="62.8208" lon="10.07935">
        <ele>565.20001220703</ele>
        <time>2019-06-17T10:13:51Z</time>
      </trkpt>
      <trkpt lat="62.821" lon="10.07955">
        <ele>565</ele>
        <time>2019-06-17T10:14:05Z</time>
      </trkpt>
      <trkpt lat="62.82136" lon="10.07987">
        <ele>564</ele>
        <time>2019-06-17T10:14:14Z</time>
      </trkpt>
      <trkpt lat="62.8225" lon="10.08093">
        <ele>558</ele>
        <time>2019-06-17T10:14:36Z</time>
      </trkpt>
      <trkpt lat="62.82317" lon="10.08108">
        <ele>553.40002441406</ele>
        <time>2019-06-17T10:14:45Z</time>
      </trkpt>
      <trkpt lat="62.82401" lon="10.08075">
        <ele>548.40002441406</ele>
        <time>2019-06-17T10:15:01Z</time>
      </trkpt>
      <trkpt lat="62.82463" lon="10.08021">
        <ele>540.59997558594</ele>
        <time>2019-06-17T10:15:22Z</time>
      </trkpt>
      <trkpt lat="62.82496" lon="10.07984">
        <ele>541.20001220703</ele>
        <time>2019-06-17T10:15:30Z</time>
      </trkpt>
      <trkpt lat="62.82548" lon="10.07944">
        <ele>546.79998779297</ele>
        <time>2019-06-17T10:15:42Z</time>
      </trkpt>
      <trkpt lat="62.82597" lon="10.07923">
        <ele>547.79998779297</ele>
        <time>2019-06-17T10:15:49Z</time>
      </trkpt>
      <trkpt lat="62.82629" lon="10.07917">
        <ele>550.20001220703</ele>
        <time>2019-06-17T10:16:06Z</time>
      </trkpt>
      <trkpt lat="62.82695" lon="10.07946">
        <ele>555</ele>
        <time>2019-06-17T10:16:31Z</time>
      </trkpt>
      <trkpt lat="62.82734" lon="10.07969">
        <ele>561</ele>
        <time>2019-06-17T10:16:43Z</time>
      </trkpt>
      <trkpt lat="62.82814" lon="10.08045">
        <ele>569.79998779297</ele>
        <time>2019-06-17T10:16:52Z</time>
      </trkpt>
      <trkpt lat="62.82873" lon="10.08071">
        <ele>578.59997558594</ele>
        <time>2019-06-17T10:17:04Z</time>
      </trkpt>
      <trkpt lat="62.82951" lon="10.08057">
        <ele>584.79998779297</ele>
        <time>2019-06-17T10:17:11Z</time>
      </trkpt>
      <trkpt lat="62.83006" lon="10.08108">
        <ele>586.79998779297</ele>
        <time>2019-06-17T10:19:40Z</time>
      </trkpt>
      <trkpt lat="62.83028" lon="10.0815">
        <ele>587.59997558594</ele>
        <time>2019-06-17T10:19:54Z</time>
      </trkpt>
      <trkpt lat="62.8305" lon="10.08181">
        <ele>587.79998779297</ele>
        <time>2019-06-17T10:20:11Z</time>
      </trkpt>
      <trkpt lat="62.83085" lon="10.08225">
        <ele>590.40002441406</ele>
        <time>2019-06-17T10:20:26Z</time>
      </trkpt>
      <trkpt lat="62.83115" lon="10.08245">
        <ele>590.79998779297</ele>
        <time>2019-06-17T10:20:36Z</time>
      </trkpt>
      <trkpt lat="62.83128" lon="10.08253">
        <ele>590.79998779297</ele>
        <time>2019-06-17T10:21:00Z</time>
      </trkpt>
      <trkpt lat="62.83171" lon="10.0828">
        <ele>592.20001220703</ele>
        <time>2019-06-17T10:21:11Z</time>
      </trkpt>
      <trkpt lat="62.83202" lon="10.08284">
        <ele>591.59997558594</ele>
        <time>2019-06-17T10:21:15Z</time>
      </trkpt>
      <trkpt lat="62.8323" lon="10.0829">
        <ele>588.79998779297</ele>
        <time>2019-06-17T10:21:21Z</time>
      </trkpt>
      <trkpt lat="62.83246" lon="10.0829">
        <ele>588.79998779297</ele>
        <time>2019-06-17T10:21:31Z</time>
      </trkpt>
      <trkpt lat="62.83283" lon="10.08287">
        <ele>588</ele>
        <time>2019-06-17T10:21:52Z</time>
      </trkpt>
      <trkpt lat="62.83347" lon="10.08264">
        <ele>586.20001220703</ele>
        <time>2019-06-17T10:22:09Z</time>
      </trkpt>
      <trkpt lat="62.8339" lon="10.08243">
        <ele>586.20001220703</ele>
        <time>2019-06-17T10:22:26Z</time>
      </trkpt>
      <trkpt lat="62.83435" lon="10.08236">
        <ele>588.20001220703</ele>
        <time>2019-06-17T10:22:50Z</time>
      </trkpt>
      <trkpt lat="62.83465" lon="10.08227">
        <ele>587.40002441406</ele>
        <time>2019-06-17T10:23:10Z</time>
      </trkpt>
      <trkpt lat="62.83525" lon="10.08225">
        <ele>587.40002441406</ele>
        <time>2019-06-17T10:23:22Z</time>
      </trkpt>
      <trkpt lat="62.83577" lon="10.08224">
        <ele>586.20001220703</ele>
        <time>2019-06-17T10:23:55Z</time>
      </trkpt>
      <trkpt lat="62.83623" lon="10.08195">
        <ele>582.79998779297</ele>
        <time>2019-06-17T10:24:20Z</time>
      </trkpt>
      <trkpt lat="62.83709" lon="10.08134">
        <ele>579</ele>
        <time>2019-06-17T10:24:38Z</time>
      </trkpt>
      <trkpt lat="62.83855" lon="10.08106">
        <ele>574.79998779297</ele>
        <time>2019-06-17T10:24:49Z</time>
      </trkpt>
      <trkpt lat="62.83889" lon="10.08064">
        <ele>570.40002441406</ele>
        <time>2019-06-17T10:25:00Z</time>
      </trkpt>
      <trkpt lat="62.83894" lon="10.08052">
        <ele>570.20001220703</ele>
        <time>2019-06-17T10:25:14Z</time>
      </trkpt>
      <trkpt lat="62.8391" lon="10.08017">
        <ele>570.40002441406</ele>
        <time>2019-06-17T10:25:33Z</time>
      </trkpt>
      <trkpt lat="62.83966" lon="10.07943">
        <ele>569</ele>
        <time>2019-06-17T10:25:51Z</time>
      </trkpt>
      <trkpt lat="62.84032" lon="10.07864">
        <ele>566.59997558594</ele>
        <time>2019-06-17T10:26:14Z</time>
      </trkpt>
      <trkpt lat="62.84054" lon="10.07846">
        <ele>564.59997558594</ele>
        <time>2019-06-17T10:26:35Z</time>
      </trkpt>
      <trkpt lat="62.84156" lon="10.07933">
        <ele>553.20001220703</ele>
        <time>2019-06-17T10:26:46Z</time>
      </trkpt>
      <trkpt lat="62.84174" lon="10.07963">
        <ele>552</ele>
        <time>2019-06-17T10:27:13Z</time>
      </trkpt>
      <trkpt lat="62.84242" lon="10.08053">
        <ele>544.40002441406</ele>
        <time>2019-06-17T10:27:32Z</time>
      </trkpt>
      <trkpt lat="62.84276" lon="10.08098">
        <ele>543.40002441406</ele>
        <time>2019-06-17T10:27:54Z</time>
      </trkpt>
      <trkpt lat="62.843" lon="10.0813">
        <ele>543.59997558594</ele>
        <time>2019-06-17T10:28:16Z</time>
      </trkpt>
      <trkpt lat="62.84336" lon="10.08155">
        <ele>544.20001220703</ele>
        <time>2019-06-17T10:28:27Z</time>
      </trkpt>
      <trkpt lat="62.84408" lon="10.08145">
        <ele>539.59997558594</ele>
        <time>2019-06-17T10:29:05Z</time>
      </trkpt>
      <trkpt lat="62.84457" lon="10.08122">
        <ele>534.20001220703</ele>
        <time>2019-06-17T10:29:13Z</time>
      </trkpt>
      <trkpt lat="62.8447" lon="10.08112">
        <ele>533.40002441406</ele>
        <time>2019-06-17T10:29:28Z</time>
      </trkpt>
      <trkpt lat="62.84494" lon="10.08082">
        <ele>533.40002441406</ele>
        <time>2019-06-17T10:29:36Z</time>
      </trkpt>
      <trkpt lat="62.8452" lon="10.08046">
        <ele>533</ele>
        <time>2019-06-17T10:29:46Z</time>
      </trkpt>
      <trkpt lat="62.84571" lon="10.07982">
        <ele>529.40002441406</ele>
        <time>2019-06-17T10:30:14Z</time>
      </trkpt>
      <trkpt lat="62.84614" lon="10.07943">
        <ele>526.40002441406</ele>
        <time>2019-06-17T10:30:23Z</time>
      </trkpt>
      <trkpt lat="62.84621" lon="10.07939">
        <ele>524.59997558594</ele>
        <time>2019-06-17T10:30:32Z</time>
      </trkpt>
      <trkpt lat="62.84645" lon="10.07917">
        <ele>524.59997558594</ele>
        <time>2019-06-17T10:30:55Z</time>
      </trkpt>
      <trkpt lat="62.84669" lon="10.079">
        <ele>523.59997558594</ele>
        <time>2019-06-17T10:31:17Z</time>
      </trkpt>
      <trkpt lat="62.84727" lon="10.07868">
        <ele>518</ele>
        <time>2019-06-17T10:31:29Z</time>
      </trkpt>
      <trkpt lat="62.84788" lon="10.07824">
        <ele>516.79998779297</ele>
        <time>2019-06-17T10:31:52Z</time>
      </trkpt>
      <trkpt lat="62.8482" lon="10.078">
        <ele>515.59997558594</ele>
        <time>2019-06-17T10:32:06Z</time>
      </trkpt>
      <trkpt lat="62.84846" lon="10.07762">
        <ele>513.20001220703</ele>
        <time>2019-06-17T10:32:28Z</time>
      </trkpt>
      <trkpt lat="62.84875" lon="10.07706">
        <ele>512.40002441406</ele>
        <time>2019-06-17T10:32:39Z</time>
      </trkpt>
      <trkpt lat="62.84935" lon="10.07632">
        <ele>510</ele>
        <time>2019-06-17T10:32:51Z</time>
      </trkpt>
      <trkpt lat="62.85026" lon="10.07523">
        <ele>504.39999389648</ele>
        <time>2019-06-17T10:33:10Z</time>
      </trkpt>
      <trkpt lat="62.85093" lon="10.07499">
        <ele>503.79998779297</ele>
        <time>2019-06-17T10:33:18Z</time>
      </trkpt>
      <trkpt lat="62.85134" lon="10.07506">
        <ele>501</ele>
        <time>2019-06-17T10:33:30Z</time>
      </trkpt>
      <trkpt lat="62.85195" lon="10.07504">
        <ele>498.79998779297</ele>
        <time>2019-06-17T10:33:46Z</time>
      </trkpt>
      <trkpt lat="62.85258" lon="10.07455">
        <ele>495</ele>
        <time>2019-06-17T10:34:03Z</time>
      </trkpt>
      <trkpt lat="62.85416" lon="10.07376">
        <ele>479.60000610352</ele>
        <time>2019-06-17T10:34:19Z</time>
      </trkpt>
      <trkpt lat="62.8548" lon="10.07303">
        <ele>475.39999389648</ele>
        <time>2019-06-17T10:34:29Z</time>
      </trkpt>
      <trkpt lat="62.85521" lon="10.07278">
        <ele>475</ele>
        <time>2019-06-17T10:34:38Z</time>
      </trkpt>
      <trkpt lat="62.85546" lon="10.07259">
        <ele>474.20001220703</ele>
        <time>2019-06-17T10:34:49Z</time>
      </trkpt>
      <trkpt lat="62.8558" lon="10.07233">
        <ele>472</ele>
        <time>2019-06-17T10:35:09Z</time>
      </trkpt>
      <trkpt lat="62.85638" lon="10.07193">
        <ele>470.20001220703</ele>
        <time>2019-06-17T10:35:28Z</time>
      </trkpt>
      <trkpt lat="62.85686" lon="10.0713">
        <ele>467.39999389648</ele>
        <time>2019-06-17T10:35:46Z</time>
      </trkpt>
      <trkpt lat="62.85743" lon="10.07115">
        <ele>464</ele>
        <time>2019-06-17T10:36:03Z</time>
      </trkpt>
      <trkpt lat="62.85767" lon="10.07112">
        <ele>466.79998779297</ele>
        <time>2019-06-17T10:38:36Z</time>
      </trkpt>
      <trkpt lat="62.85787" lon="10.07118">
        <ele>467</ele>
        <time>2019-06-17T10:38:50Z</time>
      </trkpt>
      <trkpt lat="62.85819" lon="10.07134">
        <ele>466.79998779297</ele>
        <time>2019-06-17T10:39:01Z</time>
      </trkpt>
      <trkpt lat="62.85851" lon="10.07159">
        <ele>465.79998779297</ele>
        <time>2019-06-17T10:39:21Z</time>
      </trkpt>
      <trkpt lat="62.85898" lon="10.07203">
        <ele>465.60000610352</ele>
        <time>2019-06-17T10:39:24Z</time>
      </trkpt>
      <trkpt lat="62.85927" lon="10.07215">
        <ele>464.39999389648</ele>
        <time>2019-06-17T10:39:43Z</time>
      </trkpt>
      <trkpt lat="62.86043" lon="10.07235">
        <ele>451.39999389648</ele>
        <time>2019-06-17T10:39:59Z</time>
      </trkpt>
      <trkpt lat="62.8605" lon="10.07246">
        <ele>447</ele>
        <time>2019-06-17T10:40:10Z</time>
      </trkpt>
      <trkpt lat="62.86065" lon="10.07378">
        <ele>445.60000610352</ele>
        <time>2019-06-17T10:40:30Z</time>
      </trkpt>
      <trkpt lat="62.86071" lon="10.07415">
        <ele>444</ele>
        <time>2019-06-17T10:40:48Z</time>
      </trkpt>
      <trkpt lat="62.8609" lon="10.075">
        <ele>445.20001220703</ele>
        <time>2019-06-17T10:40:59Z</time>
      </trkpt>
      <trkpt lat="62.86117" lon="10.07584">
        <ele>452</ele>
        <time>2019-06-17T10:41:16Z</time>
      </trkpt>
      <trkpt lat="62.86134" lon="10.07643">
        <ele>454.20001220703</ele>
        <time>2019-06-17T10:41:28Z</time>
      </trkpt>
      <trkpt lat="62.86145" lon="10.07783">
        <ele>457.39999389648</ele>
        <time>2019-06-17T10:41:52Z</time>
      </trkpt>
      <trkpt lat="62.86147" lon="10.07795">
        <ele>458.20001220703</ele>
        <time>2019-06-17T10:42:13Z</time>
      </trkpt>
      <trkpt lat="62.86144" lon="10.07849">
        <ele>459</ele>
        <time>2019-06-17T10:42:24Z</time>
      </trkpt>
      <trkpt lat="62.86133" lon="10.08062">
        <ele>469</ele>
        <time>2019-06-17T10:42:48Z</time>
      </trkpt>
      <trkpt lat="62.86109" lon="10.08216">
        <ele>479.60000610352</ele>
        <time>2019-06-17T10:42:58Z</time>
      </trkpt>
      <trkpt lat="62.86082" lon="10.08318">
        <ele>479.60000610352</ele>
        <time>2019-06-17T10:43:08Z</time>
      </trkpt>
      <trkpt lat="62.8607" lon="10.08368">
        <ele>480.39999389648</ele>
        <time>2019-06-17T10:43:33Z</time>
      </trkpt>
      <trkpt lat="62.86059" lon="10.08458">
        <ele>486.20001220703</ele>
        <time>2019-06-17T10:43:39Z</time>
      </trkpt>
      <trkpt lat="62.86055" lon="10.08641">
        <ele>492.79998779297</ele>
        <time>2019-06-17T10:43:58Z</time>
      </trkpt>
      <trkpt lat="62.86055" lon="10.08652">
        <ele>493</ele>
        <time>2019-06-17T10:44:19Z</time>
      </trkpt>
      <trkpt lat="62.86058" lon="10.08731">
        <ele>493.39999389648</ele>
        <time>2019-06-17T10:44:38Z</time>
      </trkpt>
      <trkpt lat="62.86065" lon="10.08825">
        <ele>493.60000610352</ele>
        <time>2019-06-17T10:45:00Z</time>
      </trkpt>
      <trkpt lat="62.86076" lon="10.08897">
        <ele>494</ele>
        <time>2019-06-17T10:45:21Z</time>
      </trkpt>
      <trkpt lat="62.86086" lon="10.08963">
        <ele>495</ele>
        <time>2019-06-17T10:45:31Z</time>
      </trkpt>
      <trkpt lat="62.86091" lon="10.08996">
        <ele>495.20001220703</ele>
        <time>2019-06-17T10:46:03Z</time>
      </trkpt>
      <trkpt lat="62.86097" lon="10.09041">
        <ele>497.39999389648</ele>
        <time>2019-06-17T10:46:16Z</time>
      </trkpt>
      <trkpt lat="62.86097" lon="10.09061">
        <ele>497.39999389648</ele>
        <time>2019-06-17T10:46:33Z</time>
      </trkpt>
      <trkpt lat="62.86082" lon="10.09154">
        <ele>496.79998779297</ele>
        <time>2019-06-17T10:46:47Z</time>
      </trkpt>
      <trkpt lat="62.86087" lon="10.09254">
        <ele>495.39999389648</ele>
        <time>2019-06-17T10:47:09Z</time>
      </trkpt>
      <trkpt lat="62.86136" lon="10.09321">
        <ele>495.39999389648</ele>
        <time>2019-06-17T10:47:23Z</time>
      </trkpt>
      <trkpt lat="62.86157" lon="10.09334">
        <ele>494.60000610352</ele>
        <time>2019-06-17T10:47:32Z</time>
      </trkpt>
      <trkpt lat="62.86183" lon="10.09346">
        <ele>495.60000610352</ele>
        <time>2019-06-17T10:47:35Z</time>
      </trkpt>
      <trkpt lat="62.86239" lon="10.09379">
        <ele>493.60000610352</ele>
        <time>2019-06-17T10:47:45Z</time>
      </trkpt>
      <trkpt lat="62.86269" lon="10.0942">
        <ele>491.39999389648</ele>
        <time>2019-06-17T10:47:57Z</time>
      </trkpt>
      <trkpt lat="62.86317" lon="10.09552">
        <ele>483.39999389648</ele>
        <time>2019-06-17T10:48:16Z</time>
      </trkpt>
      <trkpt lat="62.86324" lon="10.09582">
        <ele>482.20001220703</ele>
        <time>2019-06-17T10:48:28Z</time>
      </trkpt>
      <trkpt lat="62.86367" lon="10.09787">
        <ele>477.20001220703</ele>
        <time>2019-06-17T10:48:38Z</time>
      </trkpt>
      <trkpt lat="62.86385" lon="10.09809">
        <ele>475.79998779297</ele>
        <time>2019-06-17T10:48:57Z</time>
      </trkpt>
      <trkpt lat="62.86424" lon="10.09824">
        <ele>479</ele>
        <time>2019-06-17T10:49:10Z</time>
      </trkpt>
      <trkpt lat="62.86464" lon="10.09844">
        <ele>479.20001220703</ele>
        <time>2019-06-17T10:49:30Z</time>
      </trkpt>
      <trkpt lat="62.86491" lon="10.0987">
        <ele>479.20001220703</ele>
        <time>2019-06-17T10:49:47Z</time>
      </trkpt>
      <trkpt lat="62.86555" lon="10.09951">
        <ele>479.60000610352</ele>
        <time>2019-06-17T10:49:58Z</time>
      </trkpt>
      <trkpt lat="62.86714" lon="10.10177">
        <ele>474.79998779297</ele>
        <time>2019-06-17T10:50:08Z</time>
      </trkpt>
      <trkpt lat="62.86747" lon="10.1017">
        <ele>471.60000610352</ele>
        <time>2019-06-17T10:50:26Z</time>
      </trkpt>
      <trkpt lat="62.86802" lon="10.10176">
        <ele>470.39999389648</ele>
        <time>2019-06-17T10:50:38Z</time>
      </trkpt>
      <trkpt lat="62.86824" lon="10.10189">
        <ele>469.20001220703</ele>
        <time>2019-06-17T10:50:59Z</time>
      </trkpt>
      <trkpt lat="62.8689" lon="10.10253">
        <ele>467</ele>
        <time>2019-06-17T10:51:11Z</time>
      </trkpt>
      <trkpt lat="62.86924" lon="10.10289">
        <ele>468.20001220703</ele>
        <time>2019-06-17T10:51:43Z</time>
      </trkpt>
      <trkpt lat="62.86965" lon="10.10343">
        <ele>472.39999389648</ele>
        <time>2019-06-17T10:51:55Z</time>
      </trkpt>
      <trkpt lat="62.86992" lon="10.10408">
        <ele>474.20001220703</ele>
        <time>2019-06-17T10:52:05Z</time>
      </trkpt>
      <trkpt lat="62.87001" lon="10.10437">
        <ele>476.39999389648</ele>
        <time>2019-06-17T10:52:29Z</time>
      </trkpt>
      <trkpt lat="62.87021" lon="10.1054">
        <ele>477.20001220703</ele>
        <time>2019-06-17T10:52:52Z</time>
      </trkpt>
      <trkpt lat="62.87079" lon="10.10701">
        <ele>481.79998779297</ele>
        <time>2019-06-17T10:53:02Z</time>
      </trkpt>
      <trkpt lat="62.87107" lon="10.10741">
        <ele>481.39999389648</ele>
        <time>2019-06-17T10:53:21Z</time>
      </trkpt>
      <trkpt lat="62.87151" lon="10.10804">
        <ele>480.20001220703</ele>
        <time>2019-06-17T10:53:38Z</time>
      </trkpt>
      <trkpt lat="62.87209" lon="10.10868">
        <ele>480.79998779297</ele>
        <time>2019-06-17T10:53:54Z</time>
      </trkpt>
      <trkpt lat="62.87241" lon="10.10913">
        <ele>481.60000610352</ele>
        <time>2019-06-17T10:54:06Z</time>
      </trkpt>
      <trkpt lat="62.87292" lon="10.10977">
        <ele>481.39999389648</ele>
        <time>2019-06-17T10:54:10Z</time>
      </trkpt>
      <trkpt lat="62.87319" lon="10.11015">
        <ele>481.20001220703</ele>
        <time>2019-06-17T10:54:41Z</time>
      </trkpt>
      <trkpt lat="62.87358" lon="10.11064">
        <ele>482</ele>
        <time>2019-06-17T10:54:57Z</time>
      </trkpt>
      <trkpt lat="62.87396" lon="10.11114">
        <ele>482.39999389648</ele>
        <time>2019-06-17T10:55:08Z</time>
      </trkpt>
      <trkpt lat="62.87427" lon="10.11162">
        <ele>482.60000610352</ele>
        <time>2019-06-17T10:55:19Z</time>
      </trkpt>
      <trkpt lat="62.87467" lon="10.11267">
        <ele>484.20001220703</ele>
        <time>2019-06-17T10:55:30Z</time>
      </trkpt>
      <trkpt lat="62.87477" lon="10.11291">
        <ele>485.20001220703</ele>
        <time>2019-06-17T10:55:55Z</time>
      </trkpt>
      <trkpt lat="62.87508" lon="10.1134">
        <ele>484.79998779297</ele>
        <time>2019-06-17T10:56:04Z</time>
      </trkpt>
      <trkpt lat="62.87535" lon="10.11366">
        <ele>483.79998779297</ele>
        <time>2019-06-17T10:56:11Z</time>
      </trkpt>
      <trkpt lat="62.87602" lon="10.11405">
        <ele>479.79998779297</ele>
        <time>2019-06-17T10:56:57Z</time>
      </trkpt>
      <trkpt lat="62.87704" lon="10.1141">
        <ele>472.60000610352</ele>
        <time>2019-06-17T10:57:03Z</time>
      </trkpt>
      <trkpt lat="62.87778" lon="10.11405">
        <ele>469.20001220703</ele>
        <time>2019-06-17T10:57:05Z</time>
      </trkpt>
      <trkpt lat="62.87935" lon="10.11303">
        <ele>455.39999389648</ele>
        <time>2019-06-17T10:57:22Z</time>
      </trkpt>
      <trkpt lat="62.8801" lon="10.11283">
        <ele>447</ele>
        <time>2019-06-17T10:57:30Z</time>
      </trkpt>
      <trkpt lat="62.88081" lon="10.11295">
        <ele>440.39999389648</ele>
        <time>2019-06-17T10:57:38Z</time>
      </trkpt>
      <trkpt lat="62.88128" lon="10.11275">
        <ele>434.20001220703</ele>
        <time>2019-06-17T10:57:44Z</time>
      </trkpt>
      <trkpt lat="62.88169" lon="10.11237">
        <ele>428.79998779297</ele>
        <time>2019-06-17T10:57:50Z</time>
      </trkpt>
      <trkpt lat="62.88243" lon="10.11164">
        <ele>423.60000610352</ele>
        <time>2019-06-17T10:57:57Z</time>
      </trkpt>
      <trkpt lat="62.88331" lon="10.11065">
        <ele>415</ele>
        <time>2019-06-17T10:58:01Z</time>
      </trkpt>
      <trkpt lat="62.88407" lon="10.10999">
        <ele>405.79998779297</ele>
        <time>2019-06-17T10:58:05Z</time>
      </trkpt>
      <trkpt lat="62.88552" lon="10.10898">
        <ele>395.60000610352</ele>
        <time>2019-06-17T10:58:18Z</time>
      </trkpt>
      <trkpt lat="62.88636" lon="10.10877">
        <ele>391.60000610352</ele>
        <time>2019-06-17T10:58:29Z</time>
      </trkpt>
      <trkpt lat="62.88663" lon="10.10902">
        <ele>390.60000610352</ele>
        <time>2019-06-17T10:58:47Z</time>
      </trkpt>
      <trkpt lat="62.88689" lon="10.10931">
        <ele>390.20001220703</ele>
        <time>2019-06-17T10:58:55Z</time>
      </trkpt>
      <trkpt lat="62.88715" lon="10.10961">
        <ele>390.39999389648</ele>
        <time>2019-06-17T10:59:08Z</time>
      </trkpt>
      <trkpt lat="62.88738" lon="10.10989">
        <ele>391.39999389648</ele>
        <time>2019-06-17T10:59:27Z</time>
      </trkpt>
      <trkpt lat="62.88902" lon="10.11158">
        <ele>401</ele>
        <time>2019-06-17T10:59:33Z</time>
      </trkpt>
      <trkpt lat="62.88928" lon="10.11196">
        <ele>404.20001220703</ele>
        <time>2019-06-17T10:59:37Z</time>
      </trkpt>
      <trkpt lat="62.88962" lon="10.11305">
        <ele>408.39999389648</ele>
        <time>2019-06-17T10:59:43Z</time>
      </trkpt>
      <trkpt lat="62.88974" lon="10.11331">
        <ele>408.39999389648</ele>
        <time>2019-06-17T10:59:46Z</time>
      </trkpt>
      <trkpt lat="62.89052" lon="10.11468">
        <ele>410.39999389648</ele>
        <time>2019-06-17T10:59:52Z</time>
      </trkpt>
      <trkpt lat="62.89092" lon="10.11593">
        <ele>411.20001220703</ele>
        <time>2019-06-17T11:00:08Z</time>
      </trkpt>
      <trkpt lat="62.89155" lon="10.1168">
        <ele>409.79998779297</ele>
        <time>2019-06-17T11:00:23Z</time>
      </trkpt>
      <trkpt lat="62.89192" lon="10.11691">
        <ele>409</ele>
        <time>2019-06-17T11:00:45Z</time>
      </trkpt>
      <trkpt lat="62.89229" lon="10.11741">
        <ele>408.79998779297</ele>
        <time>2019-06-17T11:00:49Z</time>
      </trkpt>
      <trkpt lat="62.89291" lon="10.11919">
        <ele>408</ele>
        <time>2019-06-17T11:00:59Z</time>
      </trkpt>
      <trkpt lat="62.89334" lon="10.11966">
        <ele>408.79998779297</ele>
        <time>2019-06-17T11:01:03Z</time>
      </trkpt>
      <trkpt lat="62.89485" lon="10.12023">
        <ele>406.60000610352</ele>
        <time>2019-06-17T11:01:14Z</time>
      </trkpt>
      <trkpt lat="62.89522" lon="10.12011">
        <ele>405.79998779297</ele>
        <time>2019-06-17T11:01:27Z</time>
      </trkpt>
      <trkpt lat="62.89567" lon="10.11941">
        <ele>404.79998779297</ele>
        <time>2019-06-17T11:01:31Z</time>
      </trkpt>
      <trkpt lat="62.89601" lon="10.11893">
        <ele>404.79998779297</ele>
        <time>2019-06-17T11:01:35Z</time>
      </trkpt>
      <trkpt lat="62.8964" lon="10.11866">
        <ele>403.79998779297</ele>
        <time>2019-06-17T11:01:41Z</time>
      </trkpt>
      <trkpt lat="62.89709" lon="10.11896">
        <ele>402.39999389648</ele>
        <time>2019-06-17T11:01:59Z</time>
      </trkpt>
      <trkpt lat="62.89836" lon="10.12065">
        <ele>399.60000610352</ele>
        <time>2019-06-17T11:02:15Z</time>
      </trkpt>
      <trkpt lat="62.89867" lon="10.12075">
        <ele>398.79998779297</ele>
        <time>2019-06-17T11:02:27Z</time>
      </trkpt>
      <trkpt lat="62.89902" lon="10.12053">
        <ele>397.79998779297</ele>
        <time>2019-06-17T11:02:36Z</time>
      </trkpt>
      <trkpt lat="62.89946" lon="10.12056">
        <ele>396</ele>
        <time>2019-06-17T11:02:54Z</time>
      </trkpt>
      <trkpt lat="62.90001" lon="10.12066">
        <ele>395.20001220703</ele>
        <time>2019-06-17T11:03:28Z</time>
      </trkpt>
      <trkpt lat="62.90032" lon="10.12041">
        <ele>394.79998779297</ele>
        <time>2019-06-17T11:03:37Z</time>
      </trkpt>
      <trkpt lat="62.90067" lon="10.12004">
        <ele>392.60000610352</ele>
        <time>2019-06-17T11:03:48Z</time>
      </trkpt>
      <trkpt lat="62.90114" lon="10.1198">
        <ele>391.79998779297</ele>
        <time>2019-06-17T11:03:53Z</time>
      </trkpt>
      <trkpt lat="62.90168" lon="10.11998">
        <ele>388.20001220703</ele>
        <time>2019-06-17T11:04:12Z</time>
      </trkpt>
      <trkpt lat="62.90207" lon="10.12036">
        <ele>387</ele>
        <time>2019-06-17T11:04:29Z</time>
      </trkpt>
      <trkpt lat="62.9024" lon="10.12077">
        <ele>386.79998779297</ele>
        <time>2019-06-17T11:04:55Z</time>
      </trkpt>
      <trkpt lat="62.90297" lon="10.12151">
        <ele>385.79998779297</ele>
        <time>2019-06-17T11:05:04Z</time>
      </trkpt>
      <trkpt lat="62.90403" lon="10.12286">
        <ele>378.79998779297</ele>
        <time>2019-06-17T11:05:18Z</time>
      </trkpt>
      <trkpt lat="62.90458" lon="10.12347">
        <ele>376.60000610352</ele>
        <time>2019-06-17T11:05:22Z</time>
      </trkpt>
      <trkpt lat="62.90492" lon="10.1241">
        <ele>378</ele>
        <time>2019-06-17T11:43:12Z</time>
      </trkpt>
      <trkpt lat="62.90566" lon="10.12562">
        <ele>379</ele>
        <time>2019-06-17T11:43:18Z</time>
      </trkpt>
      <trkpt lat="62.90593" lon="10.1262">
        <ele>379.20001220703</ele>
        <time>2019-06-17T11:43:40Z</time>
      </trkpt>
      <trkpt lat="62.9063" lon="10.12711">
        <ele>378.39999389648</ele>
        <time>2019-06-17T11:43:56Z</time>
      </trkpt>
      <trkpt lat="62.90654" lon="10.12776">
        <ele>377.20001220703</ele>
        <time>2019-06-17T11:44:09Z</time>
      </trkpt>
      <trkpt lat="62.90693" lon="10.12911">
        <ele>374</ele>
        <time>2019-06-17T11:44:36Z</time>
      </trkpt>
      <trkpt lat="62.90707" lon="10.12962">
        <ele>372</ele>
        <time>2019-06-17T11:44:43Z</time>
      </trkpt>
      <trkpt lat="62.90713" lon="10.1298">
        <ele>367.79998779297</ele>
        <time>2019-06-17T11:44:55Z</time>
      </trkpt>
      <trkpt lat="62.9073" lon="10.13039">
        <ele>367.39999389648</ele>
        <time>2019-06-17T11:45:11Z</time>
      </trkpt>
      <trkpt lat="62.90748" lon="10.13107">
        <ele>365.60000610352</ele>
        <time>2019-06-17T11:45:15Z</time>
      </trkpt>
      <trkpt lat="62.90765" lon="10.1316">
        <ele>365.20001220703</ele>
        <time>2019-06-17T11:45:29Z</time>
      </trkpt>
      <trkpt lat="62.90779" lon="10.13196">
        <ele>365.79998779297</ele>
        <time>2019-06-17T11:45:37Z</time>
      </trkpt>
      <trkpt lat="62.90802" lon="10.1316">
        <ele>366.79998779297</ele>
        <time>2019-06-17T11:45:42Z</time>
      </trkpt>
      <trkpt lat="62.90814" lon="10.13134">
        <ele>367</ele>
        <time>2019-06-17T11:45:57Z</time>
      </trkpt>
      <trkpt lat="62.90845" lon="10.13063">
        <ele>366.60000610352</ele>
        <time>2019-06-17T11:46:03Z</time>
      </trkpt>
      <trkpt lat="62.90898" lon="10.12988">
        <ele>368</ele>
        <time>2019-06-17T11:46:06Z</time>
      </trkpt>
      <trkpt lat="62.90933" lon="10.12938">
        <ele>371.39999389648</ele>
        <time>2019-06-17T11:46:16Z</time>
      </trkpt>
      <trkpt lat="62.90953" lon="10.12982">
        <ele>371.60000610352</ele>
        <time>2019-06-17T11:46:22Z</time>
      </trkpt>
      <trkpt lat="62.90994" lon="10.1313">
        <ele>371.39999389648</ele>
        <time>2019-06-17T11:46:34Z</time>
      </trkpt>
      <trkpt lat="62.91045" lon="10.1332">
        <ele>370</ele>
        <time>2019-06-17T11:46:46Z</time>
      </trkpt>
      <trkpt lat="62.9108" lon="10.13436">
        <ele>369.60000610352</ele>
        <time>2019-06-17T11:46:49Z</time>
      </trkpt>
      <trkpt lat="62.91153" lon="10.13601">
        <ele>368.79998779297</ele>
        <time>2019-06-17T11:47:17Z</time>
      </trkpt>
      <trkpt lat="62.91288" lon="10.13781">
        <ele>368.60000610352</ele>
        <time>2019-06-17T11:47:38Z</time>
      </trkpt>
      <trkpt lat="62.91379" lon="10.13881">
        <ele>368.60000610352</ele>
        <time>2019-06-17T11:47:54Z</time>
      </trkpt>
      <trkpt lat="62.91458" lon="10.13956">
        <ele>369</ele>
        <time>2019-06-17T11:48:12Z</time>
      </trkpt>
      <trkpt lat="62.91599" lon="10.14068">
        <ele>368.39999389648</ele>
        <time>2019-06-17T11:48:19Z</time>
      </trkpt>
      <trkpt lat="62.91694" lon="10.14145">
        <ele>368.39999389648</ele>
        <time>2019-06-17T11:48:33Z</time>
      </trkpt>
      <trkpt lat="62.91723" lon="10.14171">
        <ele>368</ele>
        <time>2019-06-17T11:48:43Z</time>
      </trkpt>
      <trkpt lat="62.91741" lon="10.14184">
        <ele>368</ele>
        <time>2019-06-17T11:48:53Z</time>
      </trkpt>
      <trkpt lat="62.91878" lon="10.14344">
        <ele>368.39999389648</ele>
        <time>2019-06-17T11:49:20Z</time>
      </trkpt>
      <trkpt lat="62.92003" lon="10.14494">
        <ele>368.39999389648</ele>
        <time>2019-06-17T11:49:26Z</time>
      </trkpt>
      <trkpt lat="62.92084" lon="10.14591">
        <ele>368.20001220703</ele>
        <time>2019-06-17T11:49:44Z</time>
      </trkpt>
      <trkpt lat="62.92173" lon="10.14698">
        <ele>367.20001220703</ele>
        <time>2019-06-17T11:49:52Z</time>
      </trkpt>
      <trkpt lat="62.9221" lon="10.14742">
        <ele>366.60000610352</ele>
        <time>2019-06-17T11:49:57Z</time>
      </trkpt>
      <trkpt lat="62.92255" lon="10.14798">
        <ele>366.20001220703</ele>
        <time>2019-06-17T11:50:12Z</time>
      </trkpt>
      <trkpt lat="62.9239" lon="10.14983">
        <ele>364</ele>
        <time>2019-06-17T11:50:31Z</time>
      </trkpt>
      <trkpt lat="62.92401" lon="10.15077">
        <ele>363.79998779297</ele>
        <time>2019-06-17T11:50:44Z</time>
      </trkpt>
      <trkpt lat="62.92413" lon="10.15134">
        <ele>364.39999389648</ele>
        <time>2019-06-17T11:50:55Z</time>
      </trkpt>
      <trkpt lat="62.92429" lon="10.15133">
        <ele>365.20001220703</ele>
        <time>2019-06-17T11:51:01Z</time>
      </trkpt>
      <trkpt lat="62.92489" lon="10.15006">
        <ele>368.79998779297</ele>
        <time>2019-06-17T11:51:12Z</time>
      </trkpt>
      <trkpt lat="62.92575" lon="10.14967">
        <ele>377</ele>
        <time>2019-06-17T11:51:17Z</time>
      </trkpt>
      <trkpt lat="62.92796" lon="10.15002">
        <ele>404.79998779297</ele>
        <time>2019-06-17T11:51:21Z</time>
      </trkpt>
      <trkpt lat="62.92878" lon="10.14925">
        <ele>415.39999389648</ele>
        <time>2019-06-17T11:51:29Z</time>
      </trkpt>
      <trkpt lat="62.92896" lon="10.14922">
        <ele>418.39999389648</ele>
        <time>2019-06-17T11:51:39Z</time>
      </trkpt>
      <trkpt lat="62.92934" lon="10.14952">
        <ele>420.60000610352</ele>
        <time>2019-06-17T11:51:50Z</time>
      </trkpt>
      <trkpt lat="62.93025" lon="10.15094">
        <ele>425.39999389648</ele>
        <time>2019-06-17T11:51:56Z</time>
      </trkpt>
      <trkpt lat="62.93043" lon="10.15155">
        <ele>426.20001220703</ele>
        <time>2019-06-17T11:52:10Z</time>
      </trkpt>
      <trkpt lat="62.93065" lon="10.15272">
        <ele>430</ele>
        <time>2019-06-17T11:52:28Z</time>
      </trkpt>
      <trkpt lat="62.93081" lon="10.15357">
        <ele>430.39999389648</ele>
        <time>2019-06-17T11:52:36Z</time>
      </trkpt>
      <trkpt lat="62.93107" lon="10.15491">
        <ele>431.39999389648</ele>
        <time>2019-06-17T11:52:47Z</time>
      </trkpt>
      <trkpt lat="62.9313" lon="10.15611">
        <ele>434.39999389648</ele>
        <time>2019-06-17T11:53:03Z</time>
      </trkpt>
      <trkpt lat="62.93149" lon="10.15711">
        <ele>436</ele>
        <time>2019-06-17T11:53:11Z</time>
      </trkpt>
      <trkpt lat="62.93163" lon="10.15795">
        <ele>436</ele>
        <time>2019-06-17T11:53:20Z</time>
      </trkpt>
      <trkpt lat="62.93174" lon="10.15908">
        <ele>436.20001220703</ele>
        <time>2019-06-17T11:53:30Z</time>
      </trkpt>
      <trkpt lat="62.93182" lon="10.16005">
        <ele>436.39999389648</ele>
        <time>2019-06-17T11:53:43Z</time>
      </trkpt>
      <trkpt lat="62.93185" lon="10.16049">
        <ele>436.60000610352</ele>
        <time>2019-06-17T11:53:52Z</time>
      </trkpt>
      <trkpt lat="62.93188" lon="10.16194">
        <ele>438.60000610352</ele>
        <time>2019-06-17T11:54:41Z</time>
      </trkpt>
      <trkpt lat="62.93184" lon="10.16237">
        <ele>438.39999389648</ele>
        <time>2019-06-17T11:54:54Z</time>
      </trkpt>
      <trkpt lat="62.9317" lon="10.16397">
        <ele>436.60000610352</ele>
        <time>2019-06-17T11:55:07Z</time>
      </trkpt>
      <trkpt lat="62.93156" lon="10.16558">
        <ele>430.79998779297</ele>
        <time>2019-06-17T11:55:15Z</time>
      </trkpt>
      <trkpt lat="62.93145" lon="10.16687">
        <ele>423.60000610352</ele>
        <time>2019-06-17T11:55:22Z</time>
      </trkpt>
      <trkpt lat="62.93144" lon="10.1671">
        <ele>416.79998779297</ele>
        <time>2019-06-17T11:55:32Z</time>
      </trkpt>
      <trkpt lat="62.93141" lon="10.16791">
        <ele>416.20001220703</ele>
        <time>2019-06-17T11:55:37Z</time>
      </trkpt>
      <trkpt lat="62.93153" lon="10.16948">
        <ele>410.60000610352</ele>
        <time>2019-06-17T11:55:49Z</time>
      </trkpt>
      <trkpt lat="62.93208" lon="10.17302">
        <ele>392</ele>
        <time>2019-06-17T11:56:02Z</time>
      </trkpt>
      <trkpt lat="62.93282" lon="10.17505">
        <ele>383</ele>
        <time>2019-06-17T11:56:11Z</time>
      </trkpt>
      <trkpt lat="62.93394" lon="10.17767">
        <ele>365</ele>
        <time>2019-06-17T11:56:26Z</time>
      </trkpt>
      <trkpt lat="62.93401" lon="10.17779">
        <ele>361.60000610352</ele>
        <time>2019-06-17T11:56:36Z</time>
      </trkpt>
      <trkpt lat="62.93473" lon="10.17903">
        <ele>357</ele>
        <time>2019-06-17T11:56:46Z</time>
      </trkpt>
      <trkpt lat="62.93552" lon="10.17998">
        <ele>349.39999389648</ele>
        <time>2019-06-17T11:56:57Z</time>
      </trkpt>
      <trkpt lat="62.93645" lon="10.18093">
        <ele>338.60000610352</ele>
        <time>2019-06-17T11:57:04Z</time>
      </trkpt>
      <trkpt lat="62.93651" lon="10.18148">
        <ele>330.79998779297</ele>
        <time>2019-06-17T11:57:17Z</time>
      </trkpt>
      <trkpt lat="62.93624" lon="10.18171">
        <ele>330.60000610352</ele>
        <time>2019-06-17T11:57:23Z</time>
      </trkpt>
      <trkpt lat="62.93604" lon="10.18175">
        <ele>330</ele>
        <time>2019-06-17T11:57:32Z</time>
      </trkpt>
      <trkpt lat="62.93556" lon="10.18195">
        <ele>326.79998779297</ele>
        <time>2019-06-17T11:57:40Z</time>
      </trkpt>
      <trkpt lat="62.93545" lon="10.18222">
        <ele>322.20001220703</ele>
        <time>2019-06-17T11:57:43Z</time>
      </trkpt>
      <trkpt lat="62.9354" lon="10.18305">
        <ele>319.79998779297</ele>
        <time>2019-06-17T11:57:53Z</time>
      </trkpt>
      <trkpt lat="62.9356" lon="10.18344">
        <ele>316.79998779297</ele>
        <time>2019-06-17T11:58:00Z</time>
      </trkpt>
      <trkpt lat="62.93712" lon="10.18408">
        <ele>304.60000610352</ele>
        <time>2019-06-17T11:58:04Z</time>
      </trkpt>
      <trkpt lat="62.93741" lon="10.1842">
        <ele>303.39999389648</ele>
        <time>2019-06-17T11:58:19Z</time>
      </trkpt>
      <trkpt lat="62.9379" lon="10.18439">
        <ele>303</ele>
        <time>2019-06-17T11:58:32Z</time>
      </trkpt>
      <trkpt lat="62.93866" lon="10.18464">
        <ele>303.20001220703</ele>
        <time>2019-06-17T11:58:45Z</time>
      </trkpt>
      <trkpt lat="62.93896" lon="10.18467">
        <ele>302.60000610352</ele>
        <time>2019-06-17T11:59:03Z</time>
      </trkpt>
      <trkpt lat="62.9404" lon="10.18538">
        <ele>293.20001220703</ele>
        <time>2019-06-17T11:59:24Z</time>
      </trkpt>
      <trkpt lat="62.94145" lon="10.1864">
        <ele>279.60000610352</ele>
        <time>2019-06-17T11:59:36Z</time>
      </trkpt>
      <trkpt lat="62.94185" lon="10.18729">
        <ele>272.39999389648</ele>
        <time>2019-06-17T11:59:48Z</time>
      </trkpt>
      <trkpt lat="62.94223" lon="10.18828">
        <ele>267.39999389648</ele>
        <time>2019-06-17T12:00:00Z</time>
      </trkpt>
      <trkpt lat="62.94269" lon="10.18883">
        <ele>263</ele>
        <time>2019-06-17T12:00:20Z</time>
      </trkpt>
      <trkpt lat="62.94279" lon="10.18885">
        <ele>258.79998779297</ele>
        <time>2019-06-17T12:00:25Z</time>
      </trkpt>
      <trkpt lat="62.94279" lon="10.1888">
        <ele>258.39999389648</ele>
        <time>2019-06-17T12:00:39Z</time>
      </trkpt>
      <trkpt lat="62.9423" lon="10.1883">
        <ele>262.39999389648</ele>
        <time>2019-06-17T12:01:35Z</time>
      </trkpt>
      <trkpt lat="62.94257" lon="10.18794">
        <ele>265.39999389648</ele>
        <time>2019-06-17T12:01:50Z</time>
      </trkpt>
      <trkpt lat="62.9431" lon="10.18758">
        <ele>265.20001220703</ele>
        <time>2019-06-17T12:02:09Z</time>
      </trkpt>
      <trkpt lat="62.94389" lon="10.18691">
        <ele>262.79998779297</ele>
        <time>2019-06-17T12:02:18Z</time>
      </trkpt>
      <trkpt lat="62.9442" lon="10.18663">
        <ele>259.39999389648</ele>
        <time>2019-06-17T12:02:30Z</time>
      </trkpt>
      <trkpt lat="62.94434" lon="10.18657">
        <ele>259.39999389648</ele>
        <time>2019-06-17T12:02:40Z</time>
      </trkpt>
      <trkpt lat="62.94499" lon="10.18664">
        <ele>258.39999389648</ele>
        <time>2019-06-17T12:02:50Z</time>
      </trkpt>
      <trkpt lat="62.94531" lon="10.18647">
        <ele>256.20001220703</ele>
        <time>2019-06-17T12:03:02Z</time>
      </trkpt>
      <trkpt lat="62.94525" lon="10.18661">
        <ele>256.79998779297</ele>
        <time>2019-06-17T12:03:25Z</time>
      </trkpt>
      <trkpt lat="62.94528" lon="10.1866">
        <ele>256.60000610352</ele>
        <time>2019-06-17T12:03:37Z</time>
      </trkpt>
      <trkpt lat="62.94533" lon="10.18625">
        <ele>256.39999389648</ele>
        <time>2019-06-17T12:03:57Z</time>
      </trkpt>
      <trkpt lat="62.94546" lon="10.18587">
        <ele>259.79998779297</ele>
        <time>2019-06-17T12:04:06Z</time>
      </trkpt>
      <trkpt lat="62.94615" lon="10.18572">
        <ele>267</ele>
        <time>2019-06-17T12:04:37Z</time>
      </trkpt>
      <trkpt lat="62.94654" lon="10.18571">
        <ele>267.20001220703</ele>
        <time>2019-06-17T12:04:51Z</time>
      </trkpt>
      <trkpt lat="62.94685" lon="10.18567">
        <ele>267.20001220703</ele>
        <time>2019-06-17T12:05:08Z</time>
      </trkpt>
      <trkpt lat="62.9474" lon="10.1856">
        <ele>267.79998779297</ele>
        <time>2019-06-17T12:05:18Z</time>
      </trkpt>
      <trkpt lat="62.9483" lon="10.18556">
        <ele>266.20001220703</ele>
        <time>2019-06-17T12:05:43Z</time>
      </trkpt>
      <trkpt lat="62.94869" lon="10.18539">
        <ele>265</ele>
        <time>2019-06-17T12:06:01Z</time>
      </trkpt>
      <trkpt lat="62.94945" lon="10.1849">
        <ele>265</ele>
        <time>2019-06-17T12:06:19Z</time>
      </trkpt>
      <trkpt lat="62.94977" lon="10.18506">
        <ele>264</ele>
        <time>2019-06-17T12:06:31Z</time>
      </trkpt>
      <trkpt lat="62.94985" lon="10.18539">
        <ele>262.79998779297</ele>
        <time>2019-06-17T12:06:43Z</time>
      </trkpt>
      <trkpt lat="62.94964" lon="10.18608">
        <ele>258</ele>
        <time>2019-06-17T12:06:57Z</time>
      </trkpt>
      <trkpt lat="62.94869" lon="10.1871">
        <ele>253.39999389648</ele>
        <time>2019-06-17T12:07:05Z</time>
      </trkpt>
      <trkpt lat="62.94819" lon="10.1876">
        <ele>247.60000610352</ele>
        <time>2019-06-17T12:07:18Z</time>
      </trkpt>
      <trkpt lat="62.94859" lon="10.18788">
        <ele>243.19999694824</ele>
        <time>2019-06-17T12:07:38Z</time>
      </trkpt>
      <trkpt lat="62.94896" lon="10.18804">
        <ele>242</ele>
        <time>2019-06-17T12:07:49Z</time>
      </trkpt>
      <trkpt lat="62.94898" lon="10.18799">
        <ele>240.80000305176</ele>
        <time>2019-06-17T12:08:02Z</time>
      </trkpt>
      <trkpt lat="62.94922" lon="10.1875">
        <ele>241.60000610352</ele>
        <time>2019-06-17T12:08:13Z</time>
      </trkpt>
      <trkpt lat="62.94934" lon="10.18742">
        <ele>244.19999694824</ele>
        <time>2019-06-17T12:08:25Z</time>
      </trkpt>
      <trkpt lat="62.94948" lon="10.18728">
        <ele>244.19999694824</ele>
        <time>2019-06-17T12:08:46Z</time>
      </trkpt>
      <trkpt lat="62.94936" lon="10.18738">
        <ele>244.19999694824</ele>
        <time>2019-06-17T12:09:02Z</time>
      </trkpt>
      <trkpt lat="62.94899" lon="10.18791">
        <ele>243</ele>
        <time>2019-06-17T12:09:12Z</time>
      </trkpt>
      <trkpt lat="62.949" lon="10.188">
        <ele>242.60000610352</ele>
        <time>2019-06-17T12:09:20Z</time>
      </trkpt>
      <trkpt lat="62.94992" lon="10.18843">
        <ele>239</ele>
        <time>2019-06-17T12:09:32Z</time>
      </trkpt>
      <trkpt lat="62.9509" lon="10.18801">
        <ele>226</ele>
        <time>2019-06-17T12:09:52Z</time>
      </trkpt>
      <trkpt lat="62.95091" lon="10.18789">
        <ele>225.60000610352</ele>
        <time>2019-06-17T12:10:05Z</time>
      </trkpt>
      <trkpt lat="62.95106" lon="10.18745">
        <ele>225.60000610352</ele>
        <time>2019-06-17T12:10:18Z</time>
      </trkpt>
      <trkpt lat="62.95255" lon="10.18431">
        <ele>240.80000305176</ele>
        <time>2019-06-17T12:10:39Z</time>
      </trkpt>
      <trkpt lat="62.95387" lon="10.18262">
        <ele>253.39999389648</ele>
        <time>2019-06-17T12:10:48Z</time>
      </trkpt>
      <trkpt lat="62.9543" lon="10.1814">
        <ele>257.39999389648</ele>
        <time>2019-06-17T12:11:00Z</time>
      </trkpt>
      <trkpt lat="62.95412" lon="10.18099">
        <ele>259.79998779297</ele>
        <time>2019-06-17T12:11:45Z</time>
      </trkpt>
      <trkpt lat="62.95393" lon="10.18105">
        <ele>261</ele>
        <time>2019-06-17T12:11:53Z</time>
      </trkpt>
      <trkpt lat="62.95338" lon="10.18141">
        <ele>263.39999389648</ele>
        <time>2019-06-17T12:11:57Z</time>
      </trkpt>
      <trkpt lat="62.95278" lon="10.18174">
        <ele>264.39999389648</ele>
        <time>2019-06-17T12:12:02Z</time>
      </trkpt>
      <trkpt lat="62.95224" lon="10.18175">
        <ele>266.39999389648</ele>
        <time>2019-06-17T12:12:11Z</time>
      </trkpt>
      <trkpt lat="62.95225" lon="10.1809">
        <ele>270.79998779297</ele>
        <time>2019-06-17T12:12:18Z</time>
      </trkpt>
      <trkpt lat="62.95267" lon="10.18054">
        <ele>275.60000610352</ele>
        <time>2019-06-17T12:12:24Z</time>
      </trkpt>
      <trkpt lat="62.953" lon="10.18016">
        <ele>277.20001220703</ele>
        <time>2019-06-17T12:13:52Z</time>
      </trkpt>
      <trkpt lat="62.95351" lon="10.17946">
        <ele>282.60000610352</ele>
        <time>2019-06-17T12:14:01Z</time>
      </trkpt>
      <trkpt lat="62.95371" lon="10.17918">
        <ele>282.39999389648</ele>
        <time>2019-06-17T12:14:11Z</time>
      </trkpt>
      <trkpt lat="62.95416" lon="10.17889">
        <ele>282.60000610352</ele>
        <time>2019-06-17T12:14:23Z</time>
      </trkpt>
      <trkpt lat="62.95442" lon="10.1787">
        <ele>282.39999389648</ele>
        <time>2019-06-17T12:14:29Z</time>
      </trkpt>
      <trkpt lat="62.95467" lon="10.17855">
        <ele>282.39999389648</ele>
        <time>2019-06-17T12:14:42Z</time>
      </trkpt>
      <trkpt lat="62.95515" lon="10.17822">
        <ele>282.79998779297</ele>
        <time>2019-06-17T12:15:05Z</time>
      </trkpt>
      <trkpt lat="62.95541" lon="10.17795">
        <ele>282.60000610352</ele>
        <time>2019-06-17T12:15:13Z</time>
      </trkpt>
      <trkpt lat="62.95573" lon="10.1775">
        <ele>282.60000610352</ele>
        <time>2019-06-17T12:15:32Z</time>
      </trkpt>
      <trkpt lat="62.9563" lon="10.177">
        <ele>282.79998779297</ele>
        <time>2019-06-17T12:15:46Z</time>
      </trkpt>
      <trkpt lat="62.95675" lon="10.17675">
        <ele>282.60000610352</ele>
        <time>2019-06-17T12:15:58Z</time>
      </trkpt>
      <trkpt lat="62.95694" lon="10.17668">
        <ele>282.39999389648</ele>
        <time>2019-06-17T12:16:20Z</time>
      </trkpt>
      <trkpt lat="62.95752" lon="10.17681">
        <ele>280.79998779297</ele>
        <time>2019-06-17T12:16:32Z</time>
      </trkpt>
      <trkpt lat="62.9579" lon="10.17707">
        <ele>278.20001220703</ele>
        <time>2019-06-17T12:16:41Z</time>
      </trkpt>
      <trkpt lat="62.95825" lon="10.177">
        <ele>276.39999389648</ele>
        <time>2019-06-17T12:16:50Z</time>
      </trkpt>
      <trkpt lat="62.95911" lon="10.17646">
        <ele>270.20001220703</ele>
        <time>2019-06-17T12:16:59Z</time>
      </trkpt>
      <trkpt lat="62.95943" lon="10.17604">
        <ele>269.39999389648</ele>
        <time>2019-06-17T12:17:12Z</time>
      </trkpt>
      <trkpt lat="62.95995" lon="10.17492">
        <ele>276.20001220703</ele>
        <time>2019-06-17T12:17:26Z</time>
      </trkpt>
      <trkpt lat="62.96026" lon="10.17487">
        <ele>279</ele>
        <time>2019-06-17T12:17:38Z</time>
      </trkpt>
      <trkpt lat="62.96118" lon="10.17501">
        <ele>283</ele>
        <time>2019-06-17T12:17:48Z</time>
      </trkpt>
      <trkpt lat="62.96159" lon="10.1751">
        <ele>282.60000610352</ele>
        <time>2019-06-17T12:18:58Z</time>
      </trkpt>
      <trkpt lat="62.96209" lon="10.17512">
        <ele>281.39999389648</ele>
        <time>2019-06-17T12:19:08Z</time>
      </trkpt>
      <trkpt lat="62.96234" lon="10.17497">
        <ele>282.20001220703</ele>
        <time>2019-06-17T12:19:30Z</time>
      </trkpt>
      <trkpt lat="62.96263" lon="10.17484">
        <ele>285.79998779297</ele>
        <time>2019-06-17T12:19:38Z</time>
      </trkpt>
      <trkpt lat="62.96386" lon="10.17465">
        <ele>292.79998779297</ele>
        <time>2019-06-17T12:20:01Z</time>
      </trkpt>
      <trkpt lat="62.96404" lon="10.17448">
        <ele>292</ele>
        <time>2019-06-17T12:20:15Z</time>
      </trkpt>
      <trkpt lat="62.96431" lon="10.17376">
        <ele>291.39999389648</ele>
        <time>2019-06-17T12:20:29Z</time>
      </trkpt>
      <trkpt lat="62.96453" lon="10.17346">
        <ele>290</ele>
        <time>2019-06-17T12:20:44Z</time>
      </trkpt>
      <trkpt lat="62.96469" lon="10.17321">
        <ele>290</ele>
        <time>2019-06-17T12:20:59Z</time>
      </trkpt>
      <trkpt lat="62.96483" lon="10.17278">
        <ele>292</ele>
        <time>2019-06-17T12:21:14Z</time>
      </trkpt>
      <trkpt lat="62.96483" lon="10.1725">
        <ele>292.20001220703</ele>
        <time>2019-06-17T12:21:27Z</time>
      </trkpt>
      <trkpt lat="62.96477" lon="10.17175">
        <ele>290.79998779297</ele>
        <time>2019-06-17T12:21:34Z</time>
      </trkpt>
      <trkpt lat="62.96476" lon="10.17009">
        <ele>282.60000610352</ele>
        <time>2019-06-17T12:21:44Z</time>
      </trkpt>
      <trkpt lat="62.96501" lon="10.17018">
        <ele>282.79998779297</ele>
        <time>2019-06-17T12:21:55Z</time>
      </trkpt>
      <trkpt lat="62.96535" lon="10.17108">
        <ele>285.79998779297</ele>
        <time>2019-06-17T12:22:05Z</time>
      </trkpt>
      <trkpt lat="62.96571" lon="10.17159">
        <ele>286.79998779297</ele>
        <time>2019-06-17T12:22:22Z</time>
      </trkpt>
      <trkpt lat="62.96608" lon="10.17199">
        <ele>287</ele>
        <time>2019-06-17T12:22:37Z</time>
      </trkpt>
      <trkpt lat="62.96653" lon="10.17273">
        <ele>288.20001220703</ele>
        <time>2019-06-17T12:22:46Z</time>
      </trkpt>
      <trkpt lat="62.96664" lon="10.17307">
        <ele>287.79998779297</ele>
        <time>2019-06-17T12:23:01Z</time>
      </trkpt>
      <trkpt lat="62.96674" lon="10.17385">
        <ele>284</ele>
        <time>2019-06-17T12:23:15Z</time>
      </trkpt>
      <trkpt lat="62.96695" lon="10.17446">
        <ele>282</ele>
        <time>2019-06-17T12:23:38Z</time>
      </trkpt>
      <trkpt lat="62.96725" lon="10.17491">
        <ele>280.60000610352</ele>
        <time>2019-06-17T12:23:49Z</time>
      </trkpt>
      <trkpt lat="62.96766" lon="10.17549">
        <ele>280.20001220703</ele>
        <time>2019-06-17T12:24:01Z</time>
      </trkpt>
      <trkpt lat="62.96811" lon="10.17641">
        <ele>281.79998779297</ele>
        <time>2019-06-17T12:24:29Z</time>
      </trkpt>
      <trkpt lat="62.96837" lon="10.17717">
        <ele>281.20001220703</ele>
        <time>2019-06-17T12:24:44Z</time>
      </trkpt>
      <trkpt lat="62.96858" lon="10.17768">
        <ele>282</ele>
        <time>2019-06-17T12:24:57Z</time>
      </trkpt>
      <trkpt lat="62.96872" lon="10.1781">
        <ele>283.39999389648</ele>
        <time>2019-06-17T12:25:04Z</time>
      </trkpt>
      <trkpt lat="62.96907" lon="10.17818">
        <ele>286.60000610352</ele>
        <time>2019-06-17T12:25:11Z</time>
      </trkpt>
      <trkpt lat="62.97062" lon="10.1802">
        <ele>301</ele>
        <time>2019-06-17T12:25:23Z</time>
      </trkpt>
      <trkpt lat="62.97144" lon="10.18163">
        <ele>305</ele>
        <time>2019-06-17T12:25:37Z</time>
      </trkpt>
      <trkpt lat="62.97148" lon="10.18173">
        <ele>306</ele>
        <time>2019-06-17T12:25:52Z</time>
      </trkpt>
      <trkpt lat="62.97171" lon="10.18225">
        <ele>306</ele>
        <time>2019-06-17T12:26:09Z</time>
      </trkpt>
      <trkpt lat="62.97201" lon="10.18293">
        <ele>306.20001220703</ele>
        <time>2019-06-17T12:26:16Z</time>
      </trkpt>
      <trkpt lat="62.97221" lon="10.18343">
        <ele>306.79998779297</ele>
        <time>2019-06-17T12:26:26Z</time>
      </trkpt>
      <trkpt lat="62.9726" lon="10.18438">
        <ele>311</ele>
        <time>2019-06-17T12:26:33Z</time>
      </trkpt>
      <trkpt lat="62.97294" lon="10.1852">
        <ele>312.60000610352</ele>
        <time>2019-06-17T12:26:38Z</time>
      </trkpt>
      <trkpt lat="62.97322" lon="10.18555">
        <ele>313</ele>
        <time>2019-06-17T12:26:55Z</time>
      </trkpt>
      <trkpt lat="62.9736" lon="10.18514">
        <ele>312.39999389648</ele>
        <time>2019-06-17T12:27:08Z</time>
      </trkpt>
      <trkpt lat="62.97376" lon="10.18501">
        <ele>311</ele>
        <time>2019-06-17T12:27:21Z</time>
      </trkpt>
      <trkpt lat="62.97399" lon="10.18573">
        <ele>307</ele>
        <time>2019-06-17T12:27:36Z</time>
      </trkpt>
      <trkpt lat="62.97403" lon="10.18634">
        <ele>308.60000610352</ele>
        <time>2019-06-17T12:27:44Z</time>
      </trkpt>
      <trkpt lat="62.97462" lon="10.18691">
        <ele>314.39999389648</ele>
        <time>2019-06-17T12:27:59Z</time>
      </trkpt>
      <trkpt lat="62.97488" lon="10.1871">
        <ele>314.79998779297</ele>
        <time>2019-06-17T12:28:07Z</time>
      </trkpt>
      <trkpt lat="62.97499" lon="10.18764">
        <ele>314.39999389648</ele>
        <time>2019-06-17T12:28:17Z</time>
      </trkpt>
      <trkpt lat="62.97473" lon="10.18832">
        <ele>316.39999389648</ele>
        <time>2019-06-17T12:28:30Z</time>
      </trkpt>
      <trkpt lat="62.97484" lon="10.18892">
        <ele>316.39999389648</ele>
        <time>2019-06-17T12:28:37Z</time>
      </trkpt>
      <trkpt lat="62.97499" lon="10.18962">
        <ele>317.39999389648</ele>
        <time>2019-06-17T12:28:45Z</time>
      </trkpt>
      <trkpt lat="62.97526" lon="10.19106">
        <ele>322</ele>
        <time>2019-06-17T12:29:47Z</time>
      </trkpt>
      <trkpt lat="62.97543" lon="10.19199">
        <ele>326.20001220703</ele>
        <time>2019-06-17T12:29:57Z</time>
      </trkpt>
      <trkpt lat="62.97576" lon="10.19331">
        <ele>330</ele>
        <time>2019-06-17T12:30:14Z</time>
      </trkpt>
      <trkpt lat="62.97725" lon="10.19558">
        <ele>351</ele>
        <time>2019-06-17T12:30:21Z</time>
      </trkpt>
      <trkpt lat="62.97776" lon="10.19619">
        <ele>354.60000610352</ele>
        <time>2019-06-17T12:30:27Z</time>
      </trkpt>
      <trkpt lat="62.97895" lon="10.19721">
        <ele>368.20001220703</ele>
        <time>2019-06-17T12:30:39Z</time>
      </trkpt>
      <trkpt lat="62.97987" lon="10.19776">
        <ele>374.60000610352</ele>
        <time>2019-06-17T12:30:43Z</time>
      </trkpt>
      <trkpt lat="62.98062" lon="10.19831">
        <ele>383</ele>
        <time>2019-06-17T12:30:47Z</time>
      </trkpt>
      <trkpt lat="62.98129" lon="10.19915">
        <ele>386.79998779297</ele>
        <time>2019-06-17T12:30:56Z</time>
      </trkpt>
      <trkpt lat="62.98203" lon="10.20012">
        <ele>392.79998779297</ele>
        <time>2019-06-17T12:31:07Z</time>
      </trkpt>
      <trkpt lat="62.98217" lon="10.19972">
        <ele>394.39999389648</ele>
        <time>2019-06-17T12:31:12Z</time>
      </trkpt>
      <trkpt lat="62.98214" lon="10.19982">
        <ele>395.39999389648</ele>
        <time>2019-06-17T12:31:15Z</time>
      </trkpt>
      <trkpt lat="62.98202" lon="10.20001">
        <ele>394.79998779297</ele>
        <time>2019-06-17T12:31:21Z</time>
      </trkpt>
      <trkpt lat="62.98198" lon="10.19999">
        <ele>392.60000610352</ele>
        <time>2019-06-17T12:31:37Z</time>
      </trkpt>
      <trkpt lat="62.9822" lon="10.20054">
        <ele>393</ele>
        <time>2019-06-17T12:31:44Z</time>
      </trkpt>
      <trkpt lat="62.98234" lon="10.2011">
        <ele>393.20001220703</ele>
        <time>2019-06-17T12:31:55Z</time>
      </trkpt>
      <trkpt lat="62.98242" lon="10.20164">
        <ele>393.20001220703</ele>
        <time>2019-06-17T12:32:13Z</time>
      </trkpt>
      <trkpt lat="62.98263" lon="10.20281">
        <ele>392.79998779297</ele>
        <time>2019-06-17T12:32:18Z</time>
      </trkpt>
      <trkpt lat="62.9828" lon="10.20368">
        <ele>390.20001220703</ele>
        <time>2019-06-17T12:32:34Z</time>
      </trkpt>
      <trkpt lat="62.98354" lon="10.20537">
        <ele>379.39999389648</ele>
        <time>2019-06-17T12:32:43Z</time>
      </trkpt>
      <trkpt lat="62.98341" lon="10.20569">
        <ele>377.60000610352</ele>
        <time>2019-06-17T12:33:06Z</time>
      </trkpt>
      <trkpt lat="62.98288" lon="10.20584">
        <ele>379.20001220703</ele>
        <time>2019-06-17T12:33:16Z</time>
      </trkpt>
      <trkpt lat="62.98243" lon="10.20641">
        <ele>377.79998779297</ele>
        <time>2019-06-17T12:33:21Z</time>
      </trkpt>
      <trkpt lat="62.98244" lon="10.20846">
        <ele>374</ele>
        <time>2019-06-17T12:33:27Z</time>
      </trkpt>
      <trkpt lat="62.98266" lon="10.21032">
        <ele>368.79998779297</ele>
        <time>2019-06-17T12:33:36Z</time>
      </trkpt>
      <trkpt lat="62.98297" lon="10.21205">
        <ele>362.79998779297</ele>
        <time>2019-06-17T12:33:43Z</time>
      </trkpt>
      <trkpt lat="62.98303" lon="10.21273">
        <ele>358.20001220703</ele>
        <time>2019-06-17T12:33:57Z</time>
      </trkpt>
      <trkpt lat="62.98305" lon="10.21361">
        <ele>357</ele>
        <time>2019-06-17T12:34:08Z</time>
      </trkpt>
      <trkpt lat="62.98313" lon="10.21513">
        <ele>351.39999389648</ele>
        <time>2019-06-17T12:34:17Z</time>
      </trkpt>
      <trkpt lat="62.98335" lon="10.21703">
        <ele>342.39999389648</ele>
        <time>2019-06-17T12:34:28Z</time>
      </trkpt>
      <trkpt lat="62.98351" lon="10.21862">
        <ele>336.60000610352</ele>
        <time>2019-06-17T12:34:36Z</time>
      </trkpt>
      <trkpt lat="62.98406" lon="10.22164">
        <ele>319.20001220703</ele>
        <time>2019-06-17T12:34:51Z</time>
      </trkpt>
      <trkpt lat="62.98427" lon="10.22238">
        <ele>310.20001220703</ele>
        <time>2019-06-17T12:34:57Z</time>
      </trkpt>
      <trkpt lat="62.98444" lon="10.22311">
        <ele>309.20001220703</ele>
        <time>2019-06-17T12:35:11Z</time>
      </trkpt>
      <trkpt lat="62.98462" lon="10.22378">
        <ele>306.79998779297</ele>
        <time>2019-06-17T12:35:28Z</time>
      </trkpt>
      <trkpt lat="62.98477" lon="10.2242">
        <ele>304.39999389648</ele>
        <time>2019-06-17T12:35:36Z</time>
      </trkpt>
      <trkpt lat="62.9849" lon="10.22475">
        <ele>298</ele>
        <time>2019-06-17T12:35:44Z</time>
      </trkpt>
      <trkpt lat="62.98506" lon="10.22521">
        <ele>296.79998779297</ele>
        <time>2019-06-17T12:35:56Z</time>
      </trkpt>
      <trkpt lat="62.98542" lon="10.22647">
        <ele>288.79998779297</ele>
        <time>2019-06-17T12:36:03Z</time>
      </trkpt>
      <trkpt lat="62.98648" lon="10.22998">
        <ele>271.79998779297</ele>
        <time>2019-06-17T12:36:12Z</time>
      </trkpt>
      <trkpt lat="62.98668" lon="10.23071">
        <ele>269.20001220703</ele>
        <time>2019-06-17T12:36:21Z</time>
      </trkpt>
      <trkpt lat="62.98684" lon="10.2314">
        <ele>265.20001220703</ele>
        <time>2019-06-17T12:36:31Z</time>
      </trkpt>
      <trkpt lat="62.98707" lon="10.23308">
        <ele>261.39999389648</ele>
        <time>2019-06-17T12:36:52Z</time>
      </trkpt>
      <trkpt lat="62.98764" lon="10.23519">
        <ele>252.80000305176</ele>
        <time>2019-06-17T12:37:04Z</time>
      </trkpt>
      <trkpt lat="62.9882" lon="10.23641">
        <ele>245.60000610352</ele>
        <time>2019-06-17T12:37:14Z</time>
      </trkpt>
      <trkpt lat="62.98853" lon="10.23673">
        <ele>242</ele>
        <time>2019-06-17T12:37:29Z</time>
      </trkpt>
      <trkpt lat="62.98863" lon="10.23704">
        <ele>236.19999694824</ele>
        <time>2019-06-17T12:37:37Z</time>
      </trkpt>
      <trkpt lat="62.98843" lon="10.23779">
        <ele>235</ele>
        <time>2019-06-17T12:37:51Z</time>
      </trkpt>
      <trkpt lat="62.98776" lon="10.23746">
        <ele>229.39999389648</ele>
        <time>2019-06-17T12:38:01Z</time>
      </trkpt>
      <trkpt lat="62.98649" lon="10.2363">
        <ele>221.19999694824</ele>
        <time>2019-06-17T12:38:07Z</time>
      </trkpt>
      <trkpt lat="62.9862" lon="10.2363">
        <ele>218.39999389648</ele>
        <time>2019-06-17T12:38:20Z</time>
      </trkpt>
      <trkpt lat="62.98633" lon="10.23687">
        <ele>216</ele>
        <time>2019-06-17T12:38:27Z</time>
      </trkpt>
      <trkpt lat="62.98668" lon="10.23752">
        <ele>210</ele>
        <time>2019-06-17T12:38:34Z</time>
      </trkpt>
      <trkpt lat="62.98731" lon="10.23838">
        <ele>205</ele>
        <time>2019-06-17T12:38:48Z</time>
      </trkpt>
      <trkpt lat="62.98758" lon="10.23894">
        <ele>203</ele>
        <time>2019-06-17T12:38:57Z</time>
      </trkpt>
      <trkpt lat="62.98751" lon="10.23944">
        <ele>199.60000610352</ele>
        <time>2019-06-17T12:39:17Z</time>
      </trkpt>
      <trkpt lat="62.98752" lon="10.23943">
        <ele>198</ele>
        <time>2019-06-17T12:39:24Z</time>
      </trkpt>
      <trkpt lat="62.98742" lon="10.23929">
        <ele>198</ele>
        <time>2019-06-17T12:39:28Z</time>
      </trkpt>
      <trkpt lat="62.98724" lon="10.23895">
        <ele>199</ele>
        <time>2019-06-17T12:44:41Z</time>
      </trkpt>
      <trkpt lat="62.98677" lon="10.23821">
        <ele>203.39999389648</ele>
        <time>2019-06-17T12:44:53Z</time>
      </trkpt>
      <trkpt lat="62.9866" lon="10.23809">
        <ele>203.60000610352</ele>
        <time>2019-06-17T12:45:06Z</time>
      </trkpt>
      <trkpt lat="62.98656" lon="10.23803">
        <ele>203.19999694824</ele>
        <time>2019-06-17T12:45:21Z</time>
      </trkpt>
      <trkpt lat="62.98641" lon="10.23759">
        <ele>203.60000610352</ele>
        <time>2019-06-17T12:45:29Z</time>
      </trkpt>
      <trkpt lat="62.98558" lon="10.23614">
        <ele>206</ele>
        <time>2019-06-17T12:45:39Z</time>
      </trkpt>
      <trkpt lat="62.98519" lon="10.23534">
        <ele>206.39999389648</ele>
        <time>2019-06-17T12:45:47Z</time>
      </trkpt>
      <trkpt lat="62.98503" lon="10.23495">
        <ele>206.80000305176</ele>
        <time>2019-06-17T12:45:55Z</time>
      </trkpt>
      <trkpt lat="62.98476" lon="10.23423">
        <ele>208</ele>
        <time>2019-06-17T12:46:06Z</time>
      </trkpt>
      <trkpt lat="62.98475" lon="10.23425">
        <ele>208.60000610352</ele>
        <time>2019-06-17T12:46:15Z</time>
      </trkpt>
      <trkpt lat="62.98505" lon="10.23499">
        <ele>208.39999389648</ele>
        <time>2019-06-17T12:46:34Z</time>
      </trkpt>
      <trkpt lat="62.98588" lon="10.23671">
        <ele>206.39999389648</ele>
        <time>2019-06-17T12:46:49Z</time>
      </trkpt>
      <trkpt lat="62.98662" lon="10.23797">
        <ele>204.60000610352</ele>
        <time>2019-06-17T12:46:58Z</time>
      </trkpt>
      <trkpt lat="62.98706" lon="10.23869">
        <ele>204.60000610352</ele>
        <time>2019-06-17T12:47:24Z</time>
      </trkpt>
      <trkpt lat="62.98748" lon="10.23948">
        <ele>202.39999389648</ele>
        <time>2019-06-17T12:47:39Z</time>
      </trkpt>
      <trkpt lat="62.98818" lon="10.2408">
        <ele>195.39999389648</ele>
        <time>2019-06-17T12:47:56Z</time>
      </trkpt>
      <trkpt lat="62.98931" lon="10.24167">
        <ele>186</ele>
        <time>2019-06-17T12:48:09Z</time>
      </trkpt>
      <trkpt lat="62.98966" lon="10.24327">
        <ele>178.19999694824</ele>
        <time>2019-06-17T12:48:22Z</time>
      </trkpt>
      <trkpt lat="62.98956" lon="10.24392">
        <ele>176</ele>
        <time>2019-06-17T12:48:37Z</time>
      </trkpt>
      <trkpt lat="62.98905" lon="10.24332">
        <ele>172</ele>
        <time>2019-06-17T12:48:53Z</time>
      </trkpt>
      <trkpt lat="62.98788" lon="10.24281">
        <ele>160</ele>
        <time>2019-06-17T12:49:08Z</time>
      </trkpt>
      <trkpt lat="62.98721" lon="10.24266">
        <ele>152.19999694824</ele>
        <time>2019-06-17T12:49:13Z</time>
      </trkpt>
      <trkpt lat="62.98706" lon="10.24298">
        <ele>149.39999389648</ele>
        <time>2019-06-17T12:49:21Z</time>
      </trkpt>
      <trkpt lat="62.98705" lon="10.24357">
        <ele>146.39999389648</ele>
        <time>2019-06-17T12:49:27Z</time>
      </trkpt>
      <trkpt lat="62.98702" lon="10.24442">
        <ele>145.19999694824</ele>
        <time>2019-06-17T12:49:34Z</time>
      </trkpt>
      <trkpt lat="62.98775" lon="10.24502">
        <ele>142.60000610352</ele>
        <time>2019-06-17T12:49:37Z</time>
      </trkpt>
      <trkpt lat="62.98811" lon="10.24536">
        <ele>142</ele>
        <time>2019-06-17T12:49:46Z</time>
      </trkpt>
      <trkpt lat="62.98875" lon="10.24617">
        <ele>141.19999694824</ele>
        <time>2019-06-17T12:49:51Z</time>
      </trkpt>
      <trkpt lat="62.98914" lon="10.24669">
        <ele>141</ele>
        <time>2019-06-17T12:50:05Z</time>
      </trkpt>
      <trkpt lat="62.9897" lon="10.24738">
        <ele>140.19999694824</ele>
        <time>2019-06-17T12:50:17Z</time>
      </trkpt>
      <trkpt lat="62.99021" lon="10.24782">
        <ele>139.80000305176</ele>
        <time>2019-06-17T12:50:22Z</time>
      </trkpt>
      <trkpt lat="62.99138" lon="10.24809">
        <ele>136.80000305176</ele>
        <time>2019-06-17T12:50:25Z</time>
      </trkpt>
      <trkpt lat="62.99246" lon="10.24749">
        <ele>133.39999389648</ele>
        <time>2019-06-17T12:50:37Z</time>
      </trkpt>
      <trkpt lat="62.99286" lon="10.24702">
        <ele>132.19999694824</ele>
        <time>2019-06-17T12:50:44Z</time>
      </trkpt>
      <trkpt lat="62.99376" lon="10.24526">
        <ele>129.39999389648</ele>
        <time>2019-06-17T12:50:52Z</time>
      </trkpt>
      <trkpt lat="62.99418" lon="10.24402">
        <ele>126.19999694824</ele>
        <time>2019-06-17T12:50:54Z</time>
      </trkpt>
      <trkpt lat="62.99465" lon="10.24255">
        <ele>124.19999694824</ele>
        <time>2019-06-17T12:51:04Z</time>
      </trkpt>
      <trkpt lat="62.99482" lon="10.24211">
        <ele>124</ele>
        <time>2019-06-17T12:51:19Z</time>
      </trkpt>
      <trkpt lat="62.99529" lon="10.24116">
        <ele>123.80000305176</ele>
        <time>2019-06-17T12:51:30Z</time>
      </trkpt>
      <trkpt lat="62.99557" lon="10.24074">
        <ele>123.80000305176</ele>
        <time>2019-06-17T12:51:37Z</time>
      </trkpt>
      <trkpt lat="62.99602" lon="10.24023">
        <ele>123.59999847412</ele>
        <time>2019-06-17T12:52:00Z</time>
      </trkpt>
      <trkpt lat="62.99672" lon="10.23973">
        <ele>123.19999694824</ele>
        <time>2019-06-17T12:52:09Z</time>
      </trkpt>
      <trkpt lat="62.99945" lon="10.23864">
        <ele>118.40000152588</ele>
        <time>2019-06-17T12:52:21Z</time>
      </trkpt>
      <trkpt lat="63.00109" lon="10.23809">
        <ele>116.59999847412</ele>
        <time>2019-06-17T12:52:35Z</time>
      </trkpt>
      <trkpt lat="63.00298" lon="10.23807">
        <ele>114.59999847412</ele>
        <time>2019-06-17T12:52:40Z</time>
      </trkpt>
      <trkpt lat="63.00487" lon="10.23876">
        <ele>112.80000305176</ele>
        <time>2019-06-17T12:53:01Z</time>
      </trkpt>
      <trkpt lat="63.00532" lon="10.23905">
        <ele>112</ele>
        <time>2019-06-17T12:53:18Z</time>
      </trkpt>
      <trkpt lat="63.00584" lon="10.23943">
        <ele>111.80000305176</ele>
        <time>2019-06-17T12:53:30Z</time>
      </trkpt>
      <trkpt lat="63.00653" lon="10.24004">
        <ele>110.80000305176</ele>
        <time>2019-06-17T12:53:41Z</time>
      </trkpt>
      <trkpt lat="63.00765" lon="10.24125">
        <ele>109.40000152588</ele>
        <time>2019-06-17T12:53:49Z</time>
      </trkpt>
      <trkpt lat="63.00936" lon="10.24322">
        <ele>107.40000152588</ele>
        <time>2019-06-17T12:54:03Z</time>
      </trkpt>
      <trkpt lat="63.01028" lon="10.24429">
        <ele>106.59999847412</ele>
        <time>2019-06-17T12:54:12Z</time>
      </trkpt>
      <trkpt lat="63.01101" lon="10.24515">
        <ele>105.59999847412</ele>
        <time>2019-06-17T12:54:22Z</time>
      </trkpt>
      <trkpt lat="63.01145" lon="10.24565">
        <ele>105.19999694824</ele>
        <time>2019-06-17T12:54:47Z</time>
      </trkpt>
      <trkpt lat="63.01257" lon="10.24653">
        <ele>105</ele>
        <time>2019-06-17T12:55:04Z</time>
      </trkpt>
      <trkpt lat="63.01331" lon="10.24674">
        <ele>105</ele>
        <time>2019-06-17T12:55:18Z</time>
      </trkpt>
      <trkpt lat="63.01423" lon="10.24661">
        <ele>104.80000305176</ele>
        <time>2019-06-17T12:55:43Z</time>
      </trkpt>
      <trkpt lat="63.01466" lon="10.24651">
        <ele>104.40000152588</ele>
        <time>2019-06-17T12:55:58Z</time>
      </trkpt>
      <trkpt lat="63.01635" lon="10.24614">
        <ele>101.40000152588</ele>
        <time>2019-06-17T12:56:21Z</time>
      </trkpt>
      <trkpt lat="63.01681" lon="10.24609">
        <ele>100.19999694824</ele>
        <time>2019-06-17T12:56:30Z</time>
      </trkpt>
      <trkpt lat="63.01811" lon="10.2461">
        <ele>98.199996948242</ele>
        <time>2019-06-17T12:56:38Z</time>
      </trkpt>
      <trkpt lat="63.01896" lon="10.2464">
        <ele>96.800003051758</ele>
        <time>2019-06-17T12:56:45Z</time>
      </trkpt>
      <trkpt lat="63.02017" lon="10.24737">
        <ele>95.199996948242</ele>
        <time>2019-06-17T12:56:49Z</time>
      </trkpt>
      <trkpt lat="63.02021" lon="10.2474">
        <ele>94</ele>
        <time>2019-06-17T12:57:00Z</time>
      </trkpt>
      <trkpt lat="63.02033" lon="10.24726">
        <ele>94</ele>
        <time>2019-06-17T12:57:08Z</time>
      </trkpt>
      <trkpt lat="63.02124" lon="10.24807">
        <ele>93</ele>
        <time>2019-06-17T12:57:22Z</time>
      </trkpt>
      <trkpt lat="63.02159" lon="10.24843">
        <ele>92.800003051758</ele>
        <time>2019-06-17T12:57:39Z</time>
      </trkpt>
      <trkpt lat="63.02214" lon="10.24899">
        <ele>91.400001525879</ele>
        <time>2019-06-17T12:57:45Z</time>
      </trkpt>
      <trkpt lat="63.02249" lon="10.24934">
        <ele>91</ele>
        <time>2019-06-17T12:57:56Z</time>
      </trkpt>
      <trkpt lat="63.02277" lon="10.24959">
        <ele>90.800003051758</ele>
        <time>2019-06-17T12:58:10Z</time>
      </trkpt>
      <trkpt lat="63.02363" lon="10.25062">
        <ele>91</ele>
        <time>2019-06-17T12:58:20Z</time>
      </trkpt>
      <trkpt lat="63.02417" lon="10.25167">
        <ele>90.400001525879</ele>
        <time>2019-06-17T12:58:35Z</time>
      </trkpt>
      <trkpt lat="63.02443" lon="10.25209">
        <ele>90</ele>
        <time>2019-06-17T12:58:43Z</time>
      </trkpt>
      <trkpt lat="63.02527" lon="10.25303">
        <ele>89.599998474121</ele>
        <time>2019-06-17T12:58:57Z</time>
      </trkpt>
      <trkpt lat="63.02571" lon="10.25338">
        <ele>89.199996948242</ele>
        <time>2019-06-17T12:59:04Z</time>
      </trkpt>
      <trkpt lat="63.02621" lon="10.25376">
        <ele>89</ele>
        <time>2019-06-17T12:59:12Z</time>
      </trkpt>
      <trkpt lat="63.02644" lon="10.25418">
        <ele>88.599998474121</ele>
        <time>2019-06-17T12:59:28Z</time>
      </trkpt>
      <trkpt lat="63.02635" lon="10.25513">
        <ele>87.800003051758</ele>
        <time>2019-06-17T12:59:53Z</time>
      </trkpt>
      <trkpt lat="63.02635" lon="10.25523">
        <ele>86.400001525879</ele>
        <time>2019-06-17T01:00:03Z</time>
      </trkpt>
      <trkpt lat="63.02634" lon="10.25541">
        <ele>86.400001525879</ele>
        <time>2019-06-17T01:00:27Z</time>
      </trkpt>
      <trkpt lat="63.0265" lon="10.25613">
        <ele>86.199996948242</ele>
        <time>2019-06-17T01:00:37Z</time>
      </trkpt>
      <trkpt lat="63.02674" lon="10.25694">
        <ele>84.400001525879</ele>
        <time>2019-06-17T01:00:48Z</time>
      </trkpt>
      <trkpt lat="63.02704" lon="10.25805">
        <ele>83</ele>
        <time>2019-06-17T01:01:10Z</time>
      </trkpt>
      <trkpt lat="63.02794" lon="10.262">
        <ele>79.599998474121</ele>
        <time>2019-06-17T01:01:22Z</time>
      </trkpt>
      <trkpt lat="63.02822" lon="10.26372">
        <ele>78.800003051758</ele>
        <time>2019-06-17T01:01:36Z</time>
      </trkpt>
      <trkpt lat="63.02847" lon="10.26495">
        <ele>78.400001525879</ele>
        <time>2019-06-17T01:02:02Z</time>
      </trkpt>
      <trkpt lat="63.02865" lon="10.2657">
        <ele>77.800003051758</ele>
        <time>2019-06-17T01:02:16Z</time>
      </trkpt>
      <trkpt lat="63.02937" lon="10.26825">
        <ele>76.599998474121</ele>
        <time>2019-06-17T01:02:34Z</time>
      </trkpt>
      <trkpt lat="63.02969" lon="10.26915">
        <ele>76</ele>
        <time>2019-06-17T01:02:47Z</time>
      </trkpt>
      <trkpt lat="63.02992" lon="10.26974">
        <ele>75.400001525879</ele>
        <time>2019-06-17T01:02:59Z</time>
      </trkpt>
      <trkpt lat="63.03035" lon="10.27088">
        <ele>75</ele>
        <time>2019-06-17T01:03:18Z</time>
      </trkpt>
      <trkpt lat="63.03084" lon="10.27215">
        <ele>74</ele>
        <time>2019-06-17T01:03:31Z</time>
      </trkpt>
      <trkpt lat="63.03125" lon="10.27335">
        <ele>73.800003051758</ele>
        <time>2019-06-17T01:03:41Z</time>
      </trkpt>
      <trkpt lat="63.03157" lon="10.27446">
        <ele>72.800003051758</ele>
        <time>2019-06-17T01:03:54Z</time>
      </trkpt>
      <trkpt lat="63.03204" lon="10.27657">
        <ele>71.800003051758</ele>
        <time>2019-06-17T01:04:03Z</time>
      </trkpt>
      <trkpt lat="63.0322" lon="10.27771">
        <ele>71</ele>
        <time>2019-06-17T01:04:15Z</time>
      </trkpt>
      <trkpt lat="63.03251" lon="10.28033">
        <ele>70.199996948242</ele>
        <time>2019-06-17T01:04:23Z</time>
      </trkpt>
      <trkpt lat="63.0326" lon="10.28127">
        <ele>70.400001525879</ele>
        <time>2019-06-17T01:05:18Z</time>
      </trkpt>
      <trkpt lat="63.0328" lon="10.28355">
        <ele>69.599998474121</ele>
        <time>2019-06-17T01:05:35Z</time>
      </trkpt>
      <trkpt lat="63.0329" lon="10.28456">
        <ele>69</ele>
        <time>2019-06-17T01:05:41Z</time>
      </trkpt>
      <trkpt lat="63.03322" lon="10.28686">
        <ele>68</ele>
        <time>2019-06-17T01:05:53Z</time>
      </trkpt>
      <trkpt lat="63.03341" lon="10.28785">
        <ele>68</ele>
        <time>2019-06-17T01:06:14Z</time>
      </trkpt>
      <trkpt lat="63.03365" lon="10.28875">
        <ele>67.800003051758</ele>
        <time>2019-06-17T01:06:24Z</time>
      </trkpt>
      <trkpt lat="63.03396" lon="10.28951">
        <ele>67.800003051758</ele>
        <time>2019-06-17T01:06:44Z</time>
      </trkpt>
      <trkpt lat="63.03439" lon="10.28967">
        <ele>68.400001525879</ele>
        <time>2019-06-17T01:06:50Z</time>
      </trkpt>
      <trkpt lat="63.03494" lon="10.28935">
        <ele>72.800003051758</ele>
        <time>2019-06-17T01:07:01Z</time>
      </trkpt>
      <trkpt lat="63.03511" lon="10.28971">
        <ele>72.599998474121</ele>
        <time>2019-06-17T01:07:17Z</time>
      </trkpt>
      <trkpt lat="63.03517" lon="10.29">
        <ele>72.199996948242</ele>
        <time>2019-06-17T01:07:21Z</time>
      </trkpt>
      <trkpt lat="63.03527" lon="10.29039">
        <ele>74.400001525879</ele>
        <time>2019-06-17T01:07:28Z</time>
      </trkpt>
      <trkpt lat="63.03553" lon="10.29064">
        <ele>74.599998474121</ele>
        <time>2019-06-17T01:07:41Z</time>
      </trkpt>
      <trkpt lat="63.0357" lon="10.29098">
        <ele>71</ele>
        <time>2019-06-17T01:07:52Z</time>
      </trkpt>
      <trkpt lat="63.03585" lon="10.291">
        <ele>71.199996948242</ele>
        <time>2019-06-17T01:08:04Z</time>
      </trkpt>
      <trkpt lat="63.03573" lon="10.29128">
        <ele>71.599998474121</ele>
        <time>2019-06-17T01:08:11Z</time>
      </trkpt>
      <trkpt lat="63.03548" lon="10.2917">
        <ele>71.800003051758</ele>
        <time>2019-06-17T01:08:19Z</time>
      </trkpt>
      <trkpt lat="63.03546" lon="10.2917">
        <ele>71.599998474121</ele>
        <time>2019-06-17T01:08:42Z</time>
      </trkpt>
      <trkpt lat="63.03591" lon="10.29258">
        <ele>72.199996948242</ele>
        <time>2019-06-17T01:08:58Z</time>
      </trkpt>
      <trkpt lat="63.03582" lon="10.29249">
        <ele>72.400001525879</ele>
        <time>2019-06-17T01:09:13Z</time>
      </trkpt>
      <trkpt lat="63.03555" lon="10.29228">
        <ele>72</ele>
        <time>2019-06-17T01:09:19Z</time>
      </trkpt>
      <trkpt lat="63.03542" lon="10.29233">
        <ele>72.400001525879</ele>
        <time>2019-06-17T01:09:34Z</time>
      </trkpt>
      <trkpt lat="63.03507" lon="10.29275">
        <ele>72</ele>
        <time>2019-06-17T01:09:52Z</time>
      </trkpt>
      <trkpt lat="63.03526" lon="10.29294">
        <ele>71.800003051758</ele>
        <time>2019-06-17T01:09:57Z</time>
      </trkpt>
      <trkpt lat="63.03541" lon="10.29203">
        <ele>72</ele>
        <time>2019-06-17T01:10:02Z</time>
      </trkpt>
      <trkpt lat="63.03545" lon="10.29186">
        <ele>72.400001525879</ele>
        <time>2019-06-17T01:10:12Z</time>
      </trkpt>
      <trkpt lat="63.03577" lon="10.29138">
        <ele>72</ele>
        <time>2019-06-17T01:10:21Z</time>
      </trkpt>
      <trkpt lat="63.0365" lon="10.29132">
        <ele>72.400001525879</ele>
        <time>2019-06-17T01:10:31Z</time>
      </trkpt>
      <trkpt lat="63.03704" lon="10.29152">
        <ele>72.400001525879</ele>
        <time>2019-06-17T01:10:41Z</time>
      </trkpt>
      <trkpt lat="63.03753" lon="10.29152">
        <ele>72.199996948242</ele>
        <time>2019-06-17T01:10:49Z</time>
      </trkpt>
      <trkpt lat="63.03819" lon="10.29121">
        <ele>71.199996948242</ele>
        <time>2019-06-17T01:11:02Z</time>
      </trkpt>
      <trkpt lat="63.03913" lon="10.29045">
        <ele>68.400001525879</ele>
        <time>2019-06-17T01:11:15Z</time>
      </trkpt>
      <trkpt lat="63.04007" lon="10.28958">
        <ele>67</ele>
        <time>2019-06-17T01:11:21Z</time>
      </trkpt>
      <trkpt lat="63.04093" lon="10.28815">
        <ele>65</ele>
        <time>2019-06-17T01:11:34Z</time>
      </trkpt>
      <trkpt lat="63.04129" lon="10.28736">
        <ele>65.199996948242</ele>
        <time>2019-06-17T01:11:47Z</time>
      </trkpt>
      <trkpt lat="63.04197" lon="10.28591">
        <ele>68.199996948242</ele>
        <time>2019-06-17T01:11:58Z</time>
      </trkpt>
      <trkpt lat="63.04227" lon="10.28534">
        <ele>69</ele>
        <time>2019-06-17T01:12:08Z</time>
      </trkpt>
      <trkpt lat="63.04255" lon="10.28482">
        <ele>69.199996948242</ele>
        <time>2019-06-17T01:12:20Z</time>
      </trkpt>
      <trkpt lat="63.04301" lon="10.28407">
        <ele>69</ele>
        <time>2019-06-17T01:12:57Z</time>
      </trkpt>
      <trkpt lat="63.04348" lon="10.28332">
        <ele>68</ele>
        <time>2019-06-17T01:13:14Z</time>
      </trkpt>
      <trkpt lat="63.04384" lon="10.28284">
        <ele>66.400001525879</ele>
        <time>2019-06-17T01:13:21Z</time>
      </trkpt>
      <trkpt lat="63.04446" lon="10.28255">
        <ele>63.799999237061</ele>
        <time>2019-06-17T01:13:33Z</time>
      </trkpt>
      <trkpt lat="63.04471" lon="10.28271">
        <ele>62.599998474121</ele>
        <time>2019-06-17T01:13:39Z</time>
      </trkpt>
      <trkpt lat="63.04499" lon="10.28302">
        <ele>61.799999237061</ele>
        <time>2019-06-17T01:13:59Z</time>
      </trkpt>
      <trkpt lat="63.04547" lon="10.28344">
        <ele>62</ele>
        <time>2019-06-17T01:14:12Z</time>
      </trkpt>
      <trkpt lat="63.04629" lon="10.28382">
        <ele>61.400001525879</ele>
        <time>2019-06-17T01:14:18Z</time>
      </trkpt>
      <trkpt lat="63.04623" lon="10.28411">
        <ele>61.200000762939</ele>
        <time>2019-06-17T01:14:27Z</time>
      </trkpt>
      <trkpt lat="63.04603" lon="10.28508">
        <ele>61.400001525879</ele>
        <time>2019-06-17T01:14:39Z</time>
      </trkpt>
      <trkpt lat="63.04585" lon="10.28596">
        <ele>62</ele>
        <time>2019-06-17T01:14:52Z</time>
      </trkpt>
      <trkpt lat="63.04553" lon="10.2869">
        <ele>62.400001525879</ele>
        <time>2019-06-17T01:15:00Z</time>
      </trkpt>
      <trkpt lat="63.04521" lon="10.28821">
        <ele>63.200000762939</ele>
        <time>2019-06-17T01:15:04Z</time>
      </trkpt>
      <trkpt lat="63.04519" lon="10.28868">
        <ele>64.199996948242</ele>
        <time>2019-06-17T01:15:17Z</time>
      </trkpt>
      <trkpt lat="63.04514" lon="10.28913">
        <ele>64.599998474121</ele>
        <time>2019-06-17T01:15:29Z</time>
      </trkpt>
      <trkpt lat="63.04467" lon="10.28977">
        <ele>63.599998474121</ele>
        <time>2019-06-17T01:15:43Z</time>
      </trkpt>
      <trkpt lat="63.04451" lon="10.29007">
        <ele>63.599998474121</ele>
        <time>2019-06-17T01:15:56Z</time>
      </trkpt>
      <trkpt lat="63.0445" lon="10.29012">
        <ele>62.799999237061</ele>
        <time>2019-06-17T01:16:02Z</time>
      </trkpt>
      <trkpt lat="63.0445" lon="10.29028">
        <ele>62.799999237061</ele>
        <time>2019-06-17T01:16:17Z</time>
      </trkpt>
      <trkpt lat="63.04435" lon="10.29083">
        <ele>62.400001525879</ele>
        <time>2019-06-17T01:18:28Z</time>
      </trkpt>
      <trkpt lat="63.04433" lon="10.29127">
        <ele>62.400001525879</ele>
        <time>2019-06-17T01:18:39Z</time>
      </trkpt>
      <trkpt lat="63.04428" lon="10.29136">
        <ele>61.599998474121</ele>
        <time>2019-06-17T01:18:53Z</time>
      </trkpt>
      <trkpt lat="63.04531" lon="10.28901">
        <ele>126.59999847412</ele>
        <time>2019-06-17T01:19:08Z</time>
      </trkpt>
      <trkpt lat="63.04527" lon="10.28799">
        <ele>125.80000305176</ele>
        <time>2019-06-17T01:19:23Z</time>
      </trkpt>
      <trkpt lat="63.04541" lon="10.28742">
        <ele>125.80000305176</ele>
        <time>2019-06-17T01:21:18Z</time>
      </trkpt>
      <trkpt lat="63.04581" lon="10.28635">
        <ele>124.40000152588</ele>
        <time>2019-06-17T01:21:28Z</time>
      </trkpt>
      <trkpt lat="63.04591" lon="10.28596">
        <ele>124.40000152588</ele>
        <time>2019-06-17T01:21:49Z</time>
      </trkpt>
      <trkpt lat="63.04613" lon="10.28471">
        <ele>124</ele>
        <time>2019-06-17T01:22:02Z</time>
      </trkpt>
      <trkpt lat="63.04627" lon="10.28436">
        <ele>123.80000305176</ele>
        <time>2019-06-17T01:22:18Z</time>
      </trkpt>
      <trkpt lat="63.04641" lon="10.28393">
        <ele>123.19999694824</ele>
        <time>2019-06-17T01:22:36Z</time>
      </trkpt>
      <trkpt lat="63.04665" lon="10.28249">
        <ele>122</ele>
        <time>2019-06-17T01:22:50Z</time>
      </trkpt>
      <trkpt lat="63.04699" lon="10.28258">
        <ele>123.19999694824</ele>
        <time>2019-06-17T01:22:57Z</time>
      </trkpt>
      <trkpt lat="63.04747" lon="10.28274">
        <ele>123.19999694824</ele>
        <time>2019-06-17T01:23:15Z</time>
      </trkpt>
      <trkpt lat="63.04865" lon="10.2833">
        <ele>123.59999847412</ele>
        <time>2019-06-17T01:23:31Z</time>
      </trkpt>
      <trkpt lat="63.04956" lon="10.28369">
        <ele>124.40000152588</ele>
        <time>2019-06-17T01:23:47Z</time>
      </trkpt>
      <trkpt lat="63.05005" lon="10.28403">
        <ele>124.59999847412</ele>
        <time>2019-06-17T01:23:59Z</time>
      </trkpt>
      <trkpt lat="63.05021" lon="10.28426">
        <ele>124.59999847412</ele>
        <time>2019-06-17T01:24:14Z</time>
      </trkpt>
      <trkpt lat="63.05049" lon="10.28445">
        <ele>124.80000305176</ele>
        <time>2019-06-17T01:24:33Z</time>
      </trkpt>
      <trkpt lat="63.05111" lon="10.28449">
        <ele>124.40000152588</ele>
        <time>2019-06-17T01:24:46Z</time>
      </trkpt>
      <trkpt lat="63.05169" lon="10.28445">
        <ele>124.40000152588</ele>
        <time>2019-06-17T01:24:58Z</time>
      </trkpt>
      <trkpt lat="63.05217" lon="10.28453">
        <ele>124.19999694824</ele>
        <time>2019-06-17T01:25:22Z</time>
      </trkpt>
      <trkpt lat="63.05252" lon="10.28462">
        <ele>124.19999694824</ele>
        <time>2019-06-17T01:25:29Z</time>
      </trkpt>
      <trkpt lat="63.0529" lon="10.28476">
        <ele>124</ele>
        <time>2019-06-17T01:25:50Z</time>
      </trkpt>
      <trkpt lat="63.05366" lon="10.28507">
        <ele>124</ele>
        <time>2019-06-17T01:25:55Z</time>
      </trkpt>
      <trkpt lat="63.05443" lon="10.2853">
        <ele>123.59999847412</ele>
        <time>2019-06-17T01:26:02Z</time>
      </trkpt>
      <trkpt lat="63.05489" lon="10.28547">
        <ele>123</ele>
        <time>2019-06-17T01:26:15Z</time>
      </trkpt>
      <trkpt lat="63.05589" lon="10.2858">
        <ele>122.59999847412</ele>
        <time>2019-06-17T01:26:29Z</time>
      </trkpt>
      <trkpt lat="63.05638" lon="10.28595">
        <ele>122</ele>
        <time>2019-06-17T01:26:41Z</time>
      </trkpt>
      <trkpt lat="63.0571" lon="10.2862">
        <ele>121.59999847412</ele>
        <time>2019-06-17T01:26:53Z</time>
      </trkpt>
      <trkpt lat="63.05795" lon="10.28661">
        <ele>122.40000152588</ele>
        <time>2019-06-17T01:27:03Z</time>
      </trkpt>
      <trkpt lat="63.05852" lon="10.28706">
        <ele>124</ele>
        <time>2019-06-17T01:27:22Z</time>
      </trkpt>
      <trkpt lat="63.05898" lon="10.28745">
        <ele>124.19999694824</ele>
        <time>2019-06-17T01:27:36Z</time>
      </trkpt>
      <trkpt lat="63.06042" lon="10.28794">
        <ele>126</ele>
        <time>2019-06-17T01:27:42Z</time>
      </trkpt>
      <trkpt lat="63.06195" lon="10.28804">
        <ele>122.80000305176</ele>
        <time>2019-06-17T01:27:55Z</time>
      </trkpt>
      <trkpt lat="63.06242" lon="10.28792">
        <ele>122.40000152588</ele>
        <time>2019-06-17T01:28:10Z</time>
      </trkpt>
      <trkpt lat="63.06298" lon="10.28782">
        <ele>122.40000152588</ele>
        <time>2019-06-17T01:28:22Z</time>
      </trkpt>
      <trkpt lat="63.06364" lon="10.2876">
        <ele>123</ele>
        <time>2019-06-17T01:29:03Z</time>
      </trkpt>
      <trkpt lat="63.06446" lon="10.28723">
        <ele>123.19999694824</ele>
        <time>2019-06-17T01:29:16Z</time>
      </trkpt>
      <trkpt lat="63.06505" lon="10.2868">
        <ele>124.19999694824</ele>
        <time>2019-06-17T01:29:38Z</time>
      </trkpt>
      <trkpt lat="63.06544" lon="10.28643">
        <ele>127.19999694824</ele>
        <time>2019-06-17T01:29:45Z</time>
      </trkpt>
      <trkpt lat="63.06564" lon="10.28662">
        <ele>127.40000152588</ele>
        <time>2019-06-17T01:29:56Z</time>
      </trkpt>
      <trkpt lat="63.06619" lon="10.28749">
        <ele>127.40000152588</ele>
        <time>2019-06-17T01:30:15Z</time>
      </trkpt>
      <trkpt lat="63.06649" lon="10.28741">
        <ele>127.80000305176</ele>
        <time>2019-06-17T01:30:25Z</time>
      </trkpt>
      <trkpt lat="63.0668" lon="10.28761">
        <ele>130.60000610352</ele>
        <time>2019-06-17T01:30:34Z</time>
      </trkpt>
      <trkpt lat="63.06718" lon="10.28748">
        <ele>130.80000305176</ele>
        <time>2019-06-17T01:30:46Z</time>
      </trkpt>
      <trkpt lat="63.06736" lon="10.28697">
        <ele>130.39999389648</ele>
        <time>2019-06-17T01:30:54Z</time>
      </trkpt>
      <trkpt lat="63.06787" lon="10.28583">
        <ele>127.80000305176</ele>
        <time>2019-06-17T01:31:09Z</time>
      </trkpt>
      <trkpt lat="63.06834" lon="10.28473">
        <ele>123.80000305176</ele>
        <time>2019-06-17T01:31:20Z</time>
      </trkpt>
      <trkpt lat="63.06885" lon="10.28295">
        <ele>123.19999694824</ele>
        <time>2019-06-17T01:31:32Z</time>
      </trkpt>
      <trkpt lat="63.06898" lon="10.28202">
        <ele>122.80000305176</ele>
        <time>2019-06-17T01:31:47Z</time>
      </trkpt>
      <trkpt lat="63.06945" lon="10.27829">
        <ele>120.80000305176</ele>
        <time>2019-06-17T01:31:54Z</time>
      </trkpt>
      <trkpt lat="63.06959" lon="10.27679">
        <ele>120.59999847412</ele>
        <time>2019-06-17T01:32:01Z</time>
      </trkpt>
      <trkpt lat="63.06977" lon="10.27526">
        <ele>121.19999694824</ele>
        <time>2019-06-17T01:32:13Z</time>
      </trkpt>
      <trkpt lat="63.0699" lon="10.27394">
        <ele>121.40000152588</ele>
        <time>2019-06-17T01:33:16Z</time>
      </trkpt>
      <trkpt lat="63.07011" lon="10.27219">
        <ele>122</ele>
        <time>2019-06-17T01:33:31Z</time>
      </trkpt>
      <trkpt lat="63.07029" lon="10.27079">
        <ele>123</ele>
        <time>2019-06-17T01:33:43Z</time>
      </trkpt>
      <trkpt lat="63.07053" lon="10.26961">
        <ele>123.40000152588</ele>
        <time>2019-06-17T01:34:00Z</time>
      </trkpt>
      <trkpt lat="63.07083" lon="10.26879">
        <ele>124.19999694824</ele>
        <time>2019-06-17T01:34:19Z</time>
      </trkpt>
      <trkpt lat="63.07137" lon="10.26767">
        <ele>124.59999847412</ele>
        <time>2019-06-17T01:34:35Z</time>
      </trkpt>
      <trkpt lat="63.07174" lon="10.26733">
        <ele>124.40000152588</ele>
        <time>2019-06-17T01:34:53Z</time>
      </trkpt>
      <trkpt lat="63.07231" lon="10.26668">
        <ele>124.19999694824</ele>
        <time>2019-06-17T01:35:01Z</time>
      </trkpt>
      <trkpt lat="63.07423" lon="10.26441">
        <ele>121.80000305176</ele>
        <time>2019-06-17T01:35:08Z</time>
      </trkpt>
      <trkpt lat="63.07525" lon="10.26313">
        <ele>121.19999694824</ele>
        <time>2019-06-17T01:35:20Z</time>
      </trkpt>
      <trkpt lat="63.07629" lon="10.26191">
        <ele>120.19999694824</ele>
        <time>2019-06-17T01:35:27Z</time>
      </trkpt>
      <trkpt lat="63.07723" lon="10.26079">
        <ele>120</ele>
        <time>2019-06-17T01:35:36Z</time>
      </trkpt>
      <trkpt lat="63.07776" lon="10.26022">
        <ele>119.80000305176</ele>
        <time>2019-06-17T01:35:47Z</time>
      </trkpt>
      <trkpt lat="63.07952" lon="10.25861">
        <ele>118.19999694824</ele>
        <time>2019-06-17T01:35:53Z</time>
      </trkpt>
      <trkpt lat="63.08083" lon="10.25737">
        <ele>118.40000152588</ele>
        <time>2019-06-17T01:36:52Z</time>
      </trkpt>
      <trkpt lat="63.08168" lon="10.25631">
        <ele>118.40000152588</ele>
        <time>2019-06-17T01:37:07Z</time>
      </trkpt>
      <trkpt lat="63.08236" lon="10.25532">
        <ele>117.80000305176</ele>
        <time>2019-06-17T01:37:21Z</time>
      </trkpt>
      <trkpt lat="63.0833" lon="10.2544">
        <ele>117</ele>
        <time>2019-06-17T01:37:33Z</time>
      </trkpt>
      <trkpt lat="63.08483" lon="10.25312">
        <ele>116.40000152588</ele>
        <time>2019-06-17T01:37:40Z</time>
      </trkpt>
      <trkpt lat="63.0856" lon="10.25253">
        <ele>116.19999694824</ele>
        <time>2019-06-17T01:37:46Z</time>
      </trkpt>
      <trkpt lat="63.08637" lon="10.25194">
        <ele>116.19999694824</ele>
        <time>2019-06-17T01:37:59Z</time>
      </trkpt>
      <trkpt lat="63.08763" lon="10.25101">
        <ele>116.40000152588</ele>
        <time>2019-06-17T01:38:11Z</time>
      </trkpt>
      <trkpt lat="63.08805" lon="10.25072">
        <ele>116.59999847412</ele>
        <time>2019-06-17T01:38:17Z</time>
      </trkpt>
      <trkpt lat="63.08874" lon="10.25068">
        <ele>117</ele>
        <time>2019-06-17T01:38:26Z</time>
      </trkpt>
      <trkpt lat="63.08906" lon="10.2507">
        <ele>117</ele>
        <time>2019-06-17T01:38:30Z</time>
      </trkpt>
      <trkpt lat="63.0898" lon="10.25037">
        <ele>116.59999847412</ele>
        <time>2019-06-17T01:38:35Z</time>
      </trkpt>
      <trkpt lat="63.09041" lon="10.24981">
        <ele>116.40000152588</ele>
        <time>2019-06-17T01:38:41Z</time>
      </trkpt>
      <trkpt lat="63.09106" lon="10.24914">
        <ele>115.59999847412</ele>
        <time>2019-06-17T01:38:46Z</time>
      </trkpt>
      <trkpt lat="63.09177" lon="10.24816">
        <ele>115.80000305176</ele>
        <time>2019-06-17T01:38:58Z</time>
      </trkpt>
      <trkpt lat="63.0923" lon="10.24681">
        <ele>115.80000305176</ele>
        <time>2019-06-17T01:39:11Z</time>
      </trkpt>
      <trkpt lat="63.09284" lon="10.24507">
        <ele>116.80000305176</ele>
        <time>2019-06-17T01:39:24Z</time>
      </trkpt>
      <trkpt lat="63.09328" lon="10.24374">
        <ele>117.19999694824</ele>
        <time>2019-06-17T01:39:31Z</time>
      </trkpt>
      <trkpt lat="63.09349" lon="10.24315">
        <ele>118</ele>
        <time>2019-06-17T01:40:26Z</time>
      </trkpt>
      <trkpt lat="63.09394" lon="10.24254">
        <ele>118.40000152588</ele>
        <time>2019-06-17T01:40:45Z</time>
      </trkpt>
      <trkpt lat="63.09413" lon="10.24219">
        <ele>118.80000305176</ele>
        <time>2019-06-17T01:40:54Z</time>
      </trkpt>
      <trkpt lat="63.09507" lon="10.2418">
        <ele>120</ele>
        <time>2019-06-17T01:41:01Z</time>
      </trkpt>
      <trkpt lat="63.09558" lon="10.24176">
        <ele>120.19999694824</ele>
        <time>2019-06-17T01:41:16Z</time>
      </trkpt>
      <trkpt lat="63.09624" lon="10.24172">
        <ele>120</ele>
        <time>2019-06-17T01:41:24Z</time>
      </trkpt>
      <trkpt lat="63.09704" lon="10.24164">
        <ele>120</ele>
        <time>2019-06-17T01:41:40Z</time>
      </trkpt>
      <trkpt lat="63.09768" lon="10.24158">
        <ele>120.40000152588</ele>
        <time>2019-06-17T01:42:35Z</time>
      </trkpt>
      <trkpt lat="63.09819" lon="10.24161">
        <ele>121</ele>
        <time>2019-06-17T01:42:47Z</time>
      </trkpt>
      <trkpt lat="63.099" lon="10.24185">
        <ele>120.19999694824</ele>
        <time>2019-06-17T01:42:57Z</time>
      </trkpt>
      <trkpt lat="63.10029" lon="10.24226">
        <ele>119.40000152588</ele>
        <time>2019-06-17T01:43:06Z</time>
      </trkpt>
      <trkpt lat="63.10062" lon="10.24237">
        <ele>119</ele>
        <time>2019-06-17T01:43:19Z</time>
      </trkpt>
      <trkpt lat="63.10166" lon="10.24269">
        <ele>119.40000152588</ele>
        <time>2019-06-17T01:43:39Z</time>
      </trkpt>
      <trkpt lat="63.10225" lon="10.24217">
        <ele>120</ele>
        <time>2019-06-17T01:43:50Z</time>
      </trkpt>
      <trkpt lat="63.10271" lon="10.2411">
        <ele>119.19999694824</ele>
        <time>2019-06-17T01:43:59Z</time>
      </trkpt>
      <trkpt lat="63.10317" lon="10.24012">
        <ele>119</ele>
        <time>2019-06-17T01:44:07Z</time>
      </trkpt>
      <trkpt lat="63.10367" lon="10.23969">
        <ele>119.80000305176</ele>
        <time>2019-06-17T01:44:17Z</time>
      </trkpt>
      <trkpt lat="63.10471" lon="10.23893">
        <ele>124.40000152588</ele>
        <time>2019-06-17T01:44:33Z</time>
      </trkpt>
      <trkpt lat="63.10637" lon="10.23784">
        <ele>135.80000305176</ele>
        <time>2019-06-17T01:44:38Z</time>
      </trkpt>
      <trkpt lat="63.10723" lon="10.23739">
        <ele>137.60000610352</ele>
        <time>2019-06-17T01:44:49Z</time>
      </trkpt>
      <trkpt lat="63.10877" lon="10.23716">
        <ele>141.60000610352</ele>
        <time>2019-06-17T01:44:58Z</time>
      </trkpt>
      <trkpt lat="63.10898" lon="10.23688">
        <ele>141.39999389648</ele>
        <time>2019-06-17T01:45:05Z</time>
      </trkpt>
      <trkpt lat="63.10897" lon="10.23696">
        <ele>141.19999694824</ele>
        <time>2019-06-17T01:45:22Z</time>
      </trkpt>
      <trkpt lat="63.10909" lon="10.2371">
        <ele>141.19999694824</ele>
        <time>2019-06-17T01:45:28Z</time>
      </trkpt>
      <trkpt lat="63.11148" lon="10.23704">
        <ele>159</ele>
        <time>2019-06-17T01:45:42Z</time>
      </trkpt>
      <trkpt lat="63.11162" lon="10.23706">
        <ele>158.60000610352</ele>
        <time>2019-06-17T01:45:54Z</time>
      </trkpt>
      <trkpt lat="63.11219" lon="10.23759">
        <ele>158.19999694824</ele>
        <time>2019-06-17T01:46:01Z</time>
      </trkpt>
      <trkpt lat="63.11289" lon="10.23963">
        <ele>152.80000305176</ele>
        <time>2019-06-17T01:46:18Z</time>
      </trkpt>
      <trkpt lat="63.11358" lon="10.24095">
        <ele>146.39999389648</ele>
        <time>2019-06-17T01:46:30Z</time>
      </trkpt>
      <trkpt lat="63.11431" lon="10.2417">
        <ele>140</ele>
        <time>2019-06-17T01:46:42Z</time>
      </trkpt>
      <trkpt lat="63.11546" lon="10.24271">
        <ele>138.19999694824</ele>
        <time>2019-06-17T01:46:56Z</time>
      </trkpt>
      <trkpt lat="63.11634" lon="10.24331">
        <ele>135.19999694824</ele>
        <time>2019-06-17T01:46:59Z</time>
      </trkpt>
      <trkpt lat="63.11715" lon="10.24401">
        <ele>134.60000610352</ele>
        <time>2019-06-17T01:47:06Z</time>
      </trkpt>
      <trkpt lat="63.11748" lon="10.24404">
        <ele>134.60000610352</ele>
        <time>2019-06-17T01:47:16Z</time>
      </trkpt>
      <trkpt lat="63.11792" lon="10.24407">
        <ele>134</ele>
        <time>2019-06-17T01:47:24Z</time>
      </trkpt>
      <trkpt lat="63.11907" lon="10.24525">
        <ele>129.80000305176</ele>
        <time>2019-06-17T01:47:36Z</time>
      </trkpt>
      <trkpt lat="63.11969" lon="10.24607">
        <ele>128</ele>
        <time>2019-06-17T01:47:51Z</time>
      </trkpt>
      <trkpt lat="63.12005" lon="10.24653">
        <ele>126.40000152588</ele>
        <time>2019-06-17T01:48:05Z</time>
      </trkpt>
      <trkpt lat="63.12101" lon="10.24756">
        <ele>124.59999847412</ele>
        <time>2019-06-17T01:48:25Z</time>
      </trkpt>
      <trkpt lat="63.1217" lon="10.24792">
        <ele>124.59999847412</ele>
        <time>2019-06-17T01:48:36Z</time>
      </trkpt>
      <trkpt lat="63.1225" lon="10.24789">
        <ele>125.80000305176</ele>
        <time>2019-06-17T01:48:50Z</time>
      </trkpt>
      <trkpt lat="63.1228" lon="10.24763">
        <ele>125.80000305176</ele>
        <time>2019-06-17T01:48:59Z</time>
      </trkpt>
      <trkpt lat="63.12303" lon="10.24643">
        <ele>125</ele>
        <time>2019-06-17T01:49:04Z</time>
      </trkpt>
      <trkpt lat="63.12302" lon="10.24504">
        <ele>121.19999694824</ele>
        <time>2019-06-17T01:49:16Z</time>
      </trkpt>
      <trkpt lat="63.12387" lon="10.2436">
        <ele>108.19999694824</ele>
        <time>2019-06-17T01:49:22Z</time>
      </trkpt>
      <trkpt lat="63.12436" lon="10.24322">
        <ele>109.40000152588</ele>
        <time>2019-06-17T01:49:45Z</time>
      </trkpt>
      <trkpt lat="63.12489" lon="10.24298">
        <ele>112.19999694824</ele>
        <time>2019-06-17T01:49:59Z</time>
      </trkpt>
      <trkpt lat="63.12547" lon="10.24303">
        <ele>112.59999847412</ele>
        <time>2019-06-17T01:50:09Z</time>
      </trkpt>
      <trkpt lat="63.12672" lon="10.24363">
        <ele>111.59999847412</ele>
        <time>2019-06-17T01:50:21Z</time>
      </trkpt>
      <trkpt lat="63.12709" lon="10.24382">
        <ele>110.59999847412</ele>
        <time>2019-06-17T01:50:36Z</time>
      </trkpt>
      <trkpt lat="63.12757" lon="10.24412">
        <ele>110.40000152588</ele>
        <time>2019-06-17T01:50:44Z</time>
      </trkpt>
      <trkpt lat="63.12934" lon="10.24527">
        <ele>108.19999694824</ele>
        <time>2019-06-17T01:51:07Z</time>
      </trkpt>
      <trkpt lat="63.13149" lon="10.24728">
        <ele>105.80000305176</ele>
        <time>2019-06-17T01:51:22Z</time>
      </trkpt>
      <trkpt lat="63.13236" lon="10.24829">
        <ele>105.40000152588</ele>
        <time>2019-06-17T01:51:36Z</time>
      </trkpt>
      <trkpt lat="63.13279" lon="10.24864">
        <ele>105</ele>
        <time>2019-06-17T01:51:53Z</time>
      </trkpt>
      <trkpt lat="63.13294" lon="10.24916">
        <ele>104</ele>
        <time>2019-06-17T01:52:06Z</time>
      </trkpt>
      <trkpt lat="63.13306" lon="10.24957">
        <ele>101.80000305176</ele>
        <time>2019-06-17T01:52:22Z</time>
      </trkpt>
      <trkpt lat="63.13347" lon="10.25003">
        <ele>102.59999847412</ele>
        <time>2019-06-17T01:52:42Z</time>
      </trkpt>
      <trkpt lat="63.13372" lon="10.25037">
        <ele>104.40000152588</ele>
        <time>2019-06-17T01:52:56Z</time>
      </trkpt>
      <trkpt lat="63.13426" lon="10.25103">
        <ele>104.40000152588</ele>
        <time>2019-06-17T01:53:10Z</time>
      </trkpt>
      <trkpt lat="63.13489" lon="10.25184">
        <ele>103.80000305176</ele>
        <time>2019-06-17T01:53:23Z</time>
      </trkpt>
      <trkpt lat="63.13522" lon="10.25226">
        <ele>103</ele>
        <time>2019-06-17T01:53:32Z</time>
      </trkpt>
      <trkpt lat="63.13604" lon="10.25314">
        <ele>103</ele>
        <time>2019-06-17T01:53:41Z</time>
      </trkpt>
      <trkpt lat="63.13629" lon="10.25349">
        <ele>102.59999847412</ele>
        <time>2019-06-17T01:53:45Z</time>
      </trkpt>
      <trkpt lat="63.13625" lon="10.25423">
        <ele>102</ele>
        <time>2019-06-17T01:53:54Z</time>
      </trkpt>
      <trkpt lat="63.13637" lon="10.2543">
        <ele>101.40000152588</ele>
        <time>2019-06-17T01:54:18Z</time>
      </trkpt>
      <trkpt lat="63.13653" lon="10.25435">
        <ele>101.40000152588</ele>
        <time>2019-06-17T01:54:35Z</time>
      </trkpt>
      <trkpt lat="63.13651" lon="10.25439">
        <ele>100.80000305176</ele>
        <time>2019-06-17T01:54:49Z</time>
      </trkpt>
      <trkpt lat="63.13645" lon="10.25433">
        <ele>100.59999847412</ele>
        <time>2019-06-17T01:54:56Z</time>
      </trkpt>
      <trkpt lat="63.13629" lon="10.25419">
        <ele>100.59999847412</ele>
        <time>2019-06-17T01:55:09Z</time>
      </trkpt>
      <trkpt lat="63.1363" lon="10.25347">
        <ele>101.19999694824</ele>
        <time>2019-06-17T01:55:24Z</time>
      </trkpt>
      <trkpt lat="63.13666" lon="10.25357">
        <ele>102.19999694824</ele>
        <time>2019-06-17T01:55:28Z</time>
      </trkpt>
      <trkpt lat="63.13695" lon="10.25365">
        <ele>102.19999694824</ele>
        <time>2019-06-17T02:11:08Z</time>
      </trkpt>
      <trkpt lat="63.13756" lon="10.25385">
        <ele>102.40000152588</ele>
        <time>2019-06-17T02:11:21Z</time>
      </trkpt>
      <trkpt lat="63.13807" lon="10.25436">
        <ele>102</ele>
        <time>2019-06-17T02:11:29Z</time>
      </trkpt>
      <trkpt lat="63.13892" lon="10.25554">
        <ele>101.59999847412</ele>
        <time>2019-06-17T02:11:51Z</time>
      </trkpt>
      <trkpt lat="63.13974" lon="10.25677">
        <ele>100.80000305176</ele>
        <time>2019-06-17T02:12:06Z</time>
      </trkpt>
      <trkpt lat="63.14072" lon="10.25822">
        <ele>98</ele>
        <time>2019-06-17T02:12:14Z</time>
      </trkpt>
      <trkpt lat="63.14149" lon="10.25938">
        <ele>97.400001525879</ele>
        <time>2019-06-17T02:12:29Z</time>
      </trkpt>
      <trkpt lat="63.14197" lon="10.26012">
        <ele>96.599998474121</ele>
        <time>2019-06-17T02:12:37Z</time>
      </trkpt>
      <trkpt lat="63.14271" lon="10.26127">
        <ele>96.400001525879</ele>
        <time>2019-06-17T02:12:53Z</time>
      </trkpt>
      <trkpt lat="63.1439" lon="10.26307">
        <ele>96</ele>
        <time>2019-06-17T02:13:05Z</time>
      </trkpt>
      <trkpt lat="63.14584" lon="10.26599">
        <ele>96</ele>
        <time>2019-06-17T02:13:11Z</time>
      </trkpt>
      <trkpt lat="63.14618" lon="10.26657">
        <ele>95.599998474121</ele>
        <time>2019-06-17T02:13:21Z</time>
      </trkpt>
      <trkpt lat="63.14701" lon="10.26794">
        <ele>95.199996948242</ele>
        <time>2019-06-17T02:13:30Z</time>
      </trkpt>
      <trkpt lat="63.14771" lon="10.26938">
        <ele>96.599998474121</ele>
        <time>2019-06-17T02:13:40Z</time>
      </trkpt>
      <trkpt lat="63.14827" lon="10.27038">
        <ele>96.599998474121</ele>
        <time>2019-06-17T02:13:55Z</time>
      </trkpt>
      <trkpt lat="63.14848" lon="10.27087">
        <ele>96.199996948242</ele>
        <time>2019-06-17T02:13:59Z</time>
      </trkpt>
      <trkpt lat="63.14883" lon="10.27136">
        <ele>95.400001525879</ele>
        <time>2019-06-17T02:14:19Z</time>
      </trkpt>
      <trkpt lat="63.14924" lon="10.27218">
        <ele>95.199996948242</ele>
        <time>2019-06-17T02:14:35Z</time>
      </trkpt>
      <trkpt lat="63.14955" lon="10.27302">
        <ele>94.199996948242</ele>
        <time>2019-06-17T02:14:44Z</time>
      </trkpt>
      <trkpt lat="63.1499" lon="10.27444">
        <ele>93.800003051758</ele>
        <time>2019-06-17T02:15:04Z</time>
      </trkpt>
      <trkpt lat="63.15012" lon="10.27533">
        <ele>97</ele>
        <time>2019-06-17T02:15:15Z</time>
      </trkpt>
      <trkpt lat="63.15028" lon="10.27599">
        <ele>97</ele>
        <time>2019-06-17T02:15:29Z</time>
      </trkpt>
      <trkpt lat="63.15077" lon="10.27783">
        <ele>96.599998474121</ele>
        <time>2019-06-17T02:15:44Z</time>
      </trkpt>
      <trkpt lat="63.15124" lon="10.27955">
        <ele>96</ele>
        <time>2019-06-17T02:16:23Z</time>
      </trkpt>
      <trkpt lat="63.15163" lon="10.28107">
        <ele>94.800003051758</ele>
        <time>2019-06-17T02:16:37Z</time>
      </trkpt>
      <trkpt lat="63.15162" lon="10.281">
        <ele>94.599998474121</ele>
        <time>2019-06-17T02:16:52Z</time>
      </trkpt>
      <trkpt lat="63.15162" lon="10.28068">
        <ele>94.599998474121</ele>
        <time>2019-06-17T02:17:05Z</time>
      </trkpt>
      <trkpt lat="63.15182" lon="10.28109">
        <ele>94.400001525879</ele>
        <time>2019-06-17T02:17:21Z</time>
      </trkpt>
      <trkpt lat="63.15204" lon="10.28198">
        <ele>94.599998474121</ele>
        <time>2019-06-17T02:17:32Z</time>
      </trkpt>
      <trkpt lat="63.1521" lon="10.28244">
        <ele>95.599998474121</ele>
        <time>2019-06-17T02:17:47Z</time>
      </trkpt>
      <trkpt lat="63.15208" lon="10.28247">
        <ele>97</ele>
        <time>2019-06-17T02:18:10Z</time>
      </trkpt>
      <trkpt lat="63.15206" lon="10.28248">
        <ele>96.800003051758</ele>
        <time>2019-06-17T02:18:27Z</time>
      </trkpt>
      <trkpt lat="63.15726" lon="10.29475">
        <ele>107.19999694824</ele>
        <time>2019-06-17T02:18:49Z</time>
      </trkpt>
      <trkpt lat="63.15781" lon="10.29527">
        <ele>108.19999694824</ele>
        <time>2019-06-17T02:18:54Z</time>
      </trkpt>
      <trkpt lat="63.15848" lon="10.2959">
        <ele>110.40000152588</ele>
        <time>2019-06-17T02:19:03Z</time>
      </trkpt>
      <trkpt lat="63.15891" lon="10.29635">
        <ele>111</ele>
        <time>2019-06-17T02:21:30Z</time>
      </trkpt>
      <trkpt lat="63.15953" lon="10.29706">
        <ele>110.59999847412</ele>
        <time>2019-06-17T02:21:36Z</time>
      </trkpt>
      <trkpt lat="63.1603" lon="10.29851">
        <ele>109.80000305176</ele>
        <time>2019-06-17T02:21:44Z</time>
      </trkpt>
      <trkpt lat="63.16079" lon="10.29956">
        <ele>110.59999847412</ele>
        <time>2019-06-17T02:21:59Z</time>
      </trkpt>
      <trkpt lat="63.16123" lon="10.30046">
        <ele>112</ele>
        <time>2019-06-17T02:22:07Z</time>
      </trkpt>
      <trkpt lat="63.1617" lon="10.30145">
        <ele>112.40000152588</ele>
        <time>2019-06-17T02:22:20Z</time>
      </trkpt>
      <trkpt lat="63.16215" lon="10.30239">
        <ele>112.59999847412</ele>
        <time>2019-06-17T02:22:27Z</time>
      </trkpt>
      <trkpt lat="63.16262" lon="10.3034">
        <ele>112.59999847412</ele>
        <time>2019-06-17T02:22:40Z</time>
      </trkpt>
      <trkpt lat="63.16302" lon="10.30425">
        <ele>112.80000305176</ele>
        <time>2019-06-17T02:23:03Z</time>
      </trkpt>
      <trkpt lat="63.16337" lon="10.30503">
        <ele>113.19999694824</ele>
        <time>2019-06-17T02:23:13Z</time>
      </trkpt>
      <trkpt lat="63.16428" lon="10.30696">
        <ele>113.80000305176</ele>
        <time>2019-06-17T02:23:22Z</time>
      </trkpt>
      <trkpt lat="63.1647" lon="10.30785">
        <ele>114.40000152588</ele>
        <time>2019-06-17T02:23:39Z</time>
      </trkpt>
      <trkpt lat="63.16561" lon="10.30987">
        <ele>117</ele>
        <time>2019-06-17T02:23:45Z</time>
      </trkpt>
      <trkpt lat="63.1663" lon="10.31146">
        <ele>122.19999694824</ele>
        <time>2019-06-17T02:24:04Z</time>
      </trkpt>
      <trkpt lat="63.16649" lon="10.31184">
        <ele>122.80000305176</ele>
        <time>2019-06-17T02:24:11Z</time>
      </trkpt>
      <trkpt lat="63.16685" lon="10.31228">
        <ele>123</ele>
        <time>2019-06-17T02:24:20Z</time>
      </trkpt>
      <trkpt lat="63.16756" lon="10.31295">
        <ele>123</ele>
        <time>2019-06-17T02:24:32Z</time>
      </trkpt>
      <trkpt lat="63.1684" lon="10.31361">
        <ele>121.80000305176</ele>
        <time>2019-06-17T02:24:37Z</time>
      </trkpt>
      <trkpt lat="63.16975" lon="10.3145">
        <ele>118</ele>
        <time>2019-06-17T02:24:52Z</time>
      </trkpt>
      <trkpt lat="63.1705" lon="10.3149">
        <ele>117.40000152588</ele>
        <time>2019-06-17T02:24:59Z</time>
      </trkpt>
      <trkpt lat="63.17136" lon="10.31536">
        <ele>118</ele>
        <time>2019-06-17T02:25:10Z</time>
      </trkpt>
      <trkpt lat="63.17238" lon="10.31592">
        <ele>117.59999847412</ele>
        <time>2019-06-17T02:25:29Z</time>
      </trkpt>
      <trkpt lat="63.17326" lon="10.3164">
        <ele>117.80000305176</ele>
        <time>2019-06-17T02:25:45Z</time>
      </trkpt>
      <trkpt lat="63.17433" lon="10.31688">
        <ele>119.19999694824</ele>
        <time>2019-06-17T02:26:03Z</time>
      </trkpt>
      <trkpt lat="63.17539" lon="10.31694">
        <ele>118.80000305176</ele>
        <time>2019-06-17T02:26:17Z</time>
      </trkpt>
      <trkpt lat="63.17595" lon="10.31696">
        <ele>117</ele>
        <time>2019-06-17T02:26:31Z</time>
      </trkpt>
      <trkpt lat="63.17758" lon="10.31695">
        <ele>108</ele>
        <time>2019-06-17T02:26:54Z</time>
      </trkpt>
      <trkpt lat="63.17842" lon="10.31686">
        <ele>104.80000305176</ele>
        <time>2019-06-17T02:27:09Z</time>
      </trkpt>
      <trkpt lat="63.1807" lon="10.31658">
        <ele>99.800003051758</ele>
        <time>2019-06-17T02:27:22Z</time>
      </trkpt>
      <trkpt lat="63.18132" lon="10.31637">
        <ele>99</ele>
        <time>2019-06-17T02:27:55Z</time>
      </trkpt>
      <trkpt lat="63.18235" lon="10.31572">
        <ele>98.199996948242</ele>
        <time>2019-06-17T02:28:43Z</time>
      </trkpt>
      <trkpt lat="63.18348" lon="10.31499">
        <ele>98.599998474121</ele>
        <time>2019-06-17T02:28:52Z</time>
      </trkpt>
      <trkpt lat="63.1841" lon="10.3146">
        <ele>98.599998474121</ele>
        <time>2019-06-17T02:29:01Z</time>
      </trkpt>
      <trkpt lat="63.18516" lon="10.31389">
        <ele>98.400001525879</ele>
        <time>2019-06-17T02:29:11Z</time>
      </trkpt>
      <trkpt lat="63.18625" lon="10.31287">
        <ele>98.800003051758</ele>
        <time>2019-06-17T02:29:27Z</time>
      </trkpt>
      <trkpt lat="63.18699" lon="10.31213">
        <ele>98</ele>
        <time>2019-06-17T02:35:25Z</time>
      </trkpt>
      <trkpt lat="63.18802" lon="10.31114">
        <ele>96.400001525879</ele>
        <time>2019-06-17T02:35:33Z</time>
      </trkpt>
      <trkpt lat="63.18843" lon="10.31074">
        <ele>96</ele>
        <time>2019-06-17T02:35:50Z</time>
      </trkpt>
      <trkpt lat="63.18921" lon="10.30999">
        <ele>96</ele>
        <time>2019-06-18T07:34:41Z</time>
      </trkpt>
      <trkpt lat="63.19019" lon="10.30905">
        <ele>96.199996948242</ele>
        <time>2019-06-18T07:34:54Z</time>
      </trkpt>
      <trkpt lat="63.19073" lon="10.30853">
        <ele>97.599998474121</ele>
        <time>2019-06-18T07:35:13Z</time>
      </trkpt>
      <trkpt lat="63.192" lon="10.30741">
        <ele>105.40000152588</ele>
        <time>2019-06-18T07:35:24Z</time>
      </trkpt>
      <trkpt lat="63.19247" lon="10.3069">
        <ele>106.40000152588</ele>
        <time>2019-06-18T07:35:34Z</time>
      </trkpt>
      <trkpt lat="63.19248" lon="10.30688">
        <ele>106</ele>
        <time>2019-06-18T07:35:47Z</time>
      </trkpt>
      <trkpt lat="63.1929" lon="10.30646">
        <ele>105.80000305176</ele>
        <time>2019-06-18T07:35:53Z</time>
      </trkpt>
      <trkpt lat="63.19411" lon="10.30526">
        <ele>104</ele>
        <time>2019-06-18T07:36:04Z</time>
      </trkpt>
      <trkpt lat="63.1953" lon="10.3041">
        <ele>100.19999694824</ele>
        <time>2019-06-18T07:36:12Z</time>
      </trkpt>
      <trkpt lat="63.19594" lon="10.30345">
        <ele>97.199996948242</ele>
        <time>2019-06-18T07:36:28Z</time>
      </trkpt>
      <trkpt lat="63.197" lon="10.3025">
        <ele>90</ele>
        <time>2019-06-18T07:36:51Z</time>
      </trkpt>
      <trkpt lat="63.19791" lon="10.30199">
        <ele>86.800003051758</ele>
        <time>2019-06-18T07:37:02Z</time>
      </trkpt>
      <trkpt lat="63.19778" lon="10.3025">
        <ele>86.800003051758</ele>
        <time>2019-06-18T07:37:09Z</time>
      </trkpt>
      <trkpt lat="63.1978" lon="10.30309">
        <ele>87.400001525879</ele>
        <time>2019-06-18T07:37:15Z</time>
      </trkpt>
      <trkpt lat="63.19802" lon="10.3032">
        <ele>88.199996948242</ele>
        <time>2019-06-18T07:37:21Z</time>
      </trkpt>
      <trkpt lat="63.19868" lon="10.30326">
        <ele>88</ele>
        <time>2019-06-18T07:37:36Z</time>
      </trkpt>
      <trkpt lat="63.20013" lon="10.30353">
        <ele>86.400001525879</ele>
        <time>2019-06-18T07:37:42Z</time>
      </trkpt>
      <trkpt lat="63.20043" lon="10.30357">
        <ele>86.400001525879</ele>
        <time>2019-06-18T07:37:45Z</time>
      </trkpt>
      <trkpt lat="63.20109" lon="10.30364">
        <ele>87.199996948242</ele>
        <time>2019-06-18T07:37:54Z</time>
      </trkpt>
      <trkpt lat="63.20156" lon="10.30342">
        <ele>90.199996948242</ele>
        <time>2019-06-18T07:38:08Z</time>
      </trkpt>
      <trkpt lat="63.20284" lon="10.3043">
        <ele>98.199996948242</ele>
        <time>2019-06-18T07:38:20Z</time>
      </trkpt>
      <trkpt lat="63.20312" lon="10.30446">
        <ele>99</ele>
        <time>2019-06-18T07:38:26Z</time>
      </trkpt>
      <trkpt lat="63.20379" lon="10.30485">
        <ele>98.599998474121</ele>
        <time>2019-06-18T07:38:31Z</time>
      </trkpt>
      <trkpt lat="63.20388" lon="10.30486">
        <ele>98.199996948242</ele>
        <time>2019-06-18T07:38:42Z</time>
      </trkpt>
      <trkpt lat="63.20458" lon="10.30531">
        <ele>97.599998474121</ele>
        <time>2019-06-18T07:38:49Z</time>
      </trkpt>
      <trkpt lat="63.20503" lon="10.30558">
        <ele>96.599998474121</ele>
        <time>2019-06-18T07:39:02Z</time>
      </trkpt>
      <trkpt lat="63.20597" lon="10.30616">
        <ele>92.400001525879</ele>
        <time>2019-06-18T07:39:09Z</time>
      </trkpt>
      <trkpt lat="63.20667" lon="10.30655">
        <ele>91.400001525879</ele>
        <time>2019-06-18T07:39:13Z</time>
      </trkpt>
      <trkpt lat="63.20731" lon="10.30692">
        <ele>89.400001525879</ele>
        <time>2019-06-18T07:39:31Z</time>
      </trkpt>
      <trkpt lat="63.20834" lon="10.30753">
        <ele>88.599998474121</ele>
        <time>2019-06-18T07:39:46Z</time>
      </trkpt>
      <trkpt lat="63.20908" lon="10.30796">
        <ele>85.800003051758</ele>
        <time>2019-06-18T07:39:53Z</time>
      </trkpt>
      <trkpt lat="63.20994" lon="10.30847">
        <ele>84.199996948242</ele>
        <time>2019-06-18T07:40:10Z</time>
      </trkpt>
      <trkpt lat="63.21071" lon="10.30912">
        <ele>83.599998474121</ele>
        <time>2019-06-18T07:40:18Z</time>
      </trkpt>
      <trkpt lat="63.21122" lon="10.3093">
        <ele>82.599998474121</ele>
        <time>2019-06-18T07:40:24Z</time>
      </trkpt>
      <trkpt lat="63.21172" lon="10.30848">
        <ele>81.400001525879</ele>
        <time>2019-06-18T07:40:34Z</time>
      </trkpt>
      <trkpt lat="63.21246" lon="10.3074">
        <ele>80.800003051758</ele>
        <time>2019-06-18T07:40:48Z</time>
      </trkpt>
      <trkpt lat="63.2132" lon="10.30685">
        <ele>80.599998474121</ele>
        <time>2019-06-18T07:41:02Z</time>
      </trkpt>
      <trkpt lat="63.2142" lon="10.30687">
        <ele>80.599998474121</ele>
        <time>2019-06-18T07:41:14Z</time>
      </trkpt>
      <trkpt lat="63.21536" lon="10.30714">
        <ele>81.599998474121</ele>
        <time>2019-06-18T07:41:19Z</time>
      </trkpt>
      <trkpt lat="63.21597" lon="10.30703">
        <ele>82.199996948242</ele>
        <time>2019-06-18T07:41:42Z</time>
      </trkpt>
      <trkpt lat="63.21625" lon="10.30701">
        <ele>82.199996948242</ele>
        <time>2019-06-18T07:41:49Z</time>
      </trkpt>
      <trkpt lat="63.21752" lon="10.30661">
        <ele>81.800003051758</ele>
        <time>2019-06-18T07:42:06Z</time>
      </trkpt>
      <trkpt lat="63.21828" lon="10.30594">
        <ele>81.199996948242</ele>
        <time>2019-06-18T07:42:16Z</time>
      </trkpt>
      <trkpt lat="63.21907" lon="10.30433">
        <ele>82.199996948242</ele>
        <time>2019-06-18T07:42:25Z</time>
      </trkpt>
      <trkpt lat="63.21963" lon="10.30294">
        <ele>82.400001525879</ele>
        <time>2019-06-18T07:42:34Z</time>
      </trkpt>
      <trkpt lat="63.22007" lon="10.3016">
        <ele>82.400001525879</ele>
        <time>2019-06-18T07:42:40Z</time>
      </trkpt>
      <trkpt lat="63.22044" lon="10.29949">
        <ele>82.599998474121</ele>
        <time>2019-06-18T07:42:56Z</time>
      </trkpt>
      <trkpt lat="63.22071" lon="10.29772">
        <ele>82.599998474121</ele>
        <time>2019-06-18T07:43:08Z</time>
      </trkpt>
      <trkpt lat="63.22086" lon="10.2968">
        <ele>82.800003051758</ele>
        <time>2019-06-18T07:43:16Z</time>
      </trkpt>
      <trkpt lat="63.22129" lon="10.29496">
        <ele>81.599998474121</ele>
        <time>2019-06-18T07:43:27Z</time>
      </trkpt>
      <trkpt lat="63.22182" lon="10.29356">
        <ele>81.400001525879</ele>
        <time>2019-06-18T07:43:37Z</time>
      </trkpt>
      <trkpt lat="63.22284" lon="10.29167">
        <ele>81.199996948242</ele>
        <time>2019-06-18T07:43:46Z</time>
      </trkpt>
      <trkpt lat="63.22361" lon="10.29058">
        <ele>81.199996948242</ele>
        <time>2019-06-18T07:44:07Z</time>
      </trkpt>
      <trkpt lat="63.22427" lon="10.28974">
        <ele>81</ele>
        <time>2019-06-18T07:44:15Z</time>
      </trkpt>
      <trkpt lat="63.22548" lon="10.28826">
        <ele>81.199996948242</ele>
        <time>2019-06-18T07:44:24Z</time>
      </trkpt>
      <trkpt lat="63.22604" lon="10.28768">
        <ele>81.199996948242</ele>
        <time>2019-06-18T07:44:29Z</time>
      </trkpt>
      <trkpt lat="63.22646" lon="10.28747">
        <ele>80.800003051758</ele>
        <time>2019-06-18T07:44:36Z</time>
      </trkpt>
      <trkpt lat="63.22677" lon="10.2868">
        <ele>80.599998474121</ele>
        <time>2019-06-18T07:44:49Z</time>
      </trkpt>
      <trkpt lat="63.22693" lon="10.28602">
        <ele>81</ele>
        <time>2019-06-18T07:44:55Z</time>
      </trkpt>
      <trkpt lat="63.22721" lon="10.28465">
        <ele>85.199996948242</ele>
        <time>2019-06-18T07:45:01Z</time>
      </trkpt>
      <trkpt lat="63.22764" lon="10.28348">
        <ele>85</ele>
        <time>2019-06-18T07:45:08Z</time>
      </trkpt>
      <trkpt lat="63.22779" lon="10.28323">
        <ele>84</ele>
        <time>2019-06-18T07:45:11Z</time>
      </trkpt>
      <trkpt lat="63.22786" lon="10.28346">
        <ele>84</ele>
        <time>2019-06-18T07:45:14Z</time>
      </trkpt>
      <trkpt lat="63.2282" lon="10.28454">
        <ele>85.800003051758</ele>
        <time>2019-06-18T07:45:19Z</time>
      </trkpt>
      <trkpt lat="63.22826" lon="10.28536">
        <ele>88</ele>
        <time>2019-06-18T07:45:27Z</time>
      </trkpt>
      <trkpt lat="63.2284" lon="10.28572">
        <ele>90.199996948242</ele>
        <time>2019-06-18T07:45:41Z</time>
      </trkpt>
      <trkpt lat="63.22854" lon="10.2856">
        <ele>91.800003051758</ele>
        <time>2019-06-18T07:45:55Z</time>
      </trkpt>
      <trkpt lat="63.22904" lon="10.28495">
        <ele>96.400001525879</ele>
        <time>2019-06-18T07:46:09Z</time>
      </trkpt>
      <trkpt lat="63.22957" lon="10.28342">
        <ele>104</ele>
        <time>2019-06-18T07:46:15Z</time>
      </trkpt>
      <trkpt lat="63.22985" lon="10.28255">
        <ele>105.80000305176</ele>
        <time>2019-06-18T07:46:21Z</time>
      </trkpt>
      <trkpt lat="63.23003" lon="10.2821">
        <ele>106.19999694824</ele>
        <time>2019-06-18T07:46:27Z</time>
      </trkpt>
      <trkpt lat="63.23036" lon="10.28134">
        <ele>106.40000152588</ele>
        <time>2019-06-18T07:46:38Z</time>
      </trkpt>
      <trkpt lat="63.23098" lon="10.28011">
        <ele>105.59999847412</ele>
        <time>2019-06-18T07:46:44Z</time>
      </trkpt>
      <trkpt lat="63.2316" lon="10.27892">
        <ele>105.80000305176</ele>
        <time>2019-06-18T07:47:04Z</time>
      </trkpt>
      <trkpt lat="63.2316" lon="10.27827">
        <ele>105.59999847412</ele>
        <time>2019-06-18T07:47:22Z</time>
      </trkpt>
      <trkpt lat="63.23157" lon="10.27726">
        <ele>104.80000305176</ele>
        <time>2019-06-18T07:47:31Z</time>
      </trkpt>
      <trkpt lat="63.2317" lon="10.27629">
        <ele>99.400001525879</ele>
        <time>2019-06-18T07:47:54Z</time>
      </trkpt>
      <trkpt lat="63.2325" lon="10.27505">
        <ele>93.199996948242</ele>
        <time>2019-06-18T07:48:01Z</time>
      </trkpt>
      <trkpt lat="63.23273" lon="10.27497">
        <ele>91</ele>
        <time>2019-06-18T07:48:09Z</time>
      </trkpt>
      <trkpt lat="63.23318" lon="10.275">
        <ele>89.400001525879</ele>
        <time>2019-06-18T07:48:17Z</time>
      </trkpt>
      <trkpt lat="63.23347" lon="10.27508">
        <ele>88.800003051758</ele>
        <time>2019-06-18T07:48:34Z</time>
      </trkpt>
      <trkpt lat="63.23498" lon="10.27527">
        <ele>87.400001525879</ele>
        <time>2019-06-18T07:48:51Z</time>
      </trkpt>
      <trkpt lat="63.23576" lon="10.27303">
        <ele>86.599998474121</ele>
        <time>2019-06-18T07:48:58Z</time>
      </trkpt>
      <trkpt lat="63.23628" lon="10.27228">
        <ele>85.599998474121</ele>
        <time>2019-06-18T07:49:16Z</time>
      </trkpt>
      <trkpt lat="63.23706" lon="10.27192">
        <ele>82.800003051758</ele>
        <time>2019-06-18T07:49:25Z</time>
      </trkpt>
      <trkpt lat="63.23797" lon="10.27212">
        <ele>82.199996948242</ele>
        <time>2019-06-18T07:49:38Z</time>
      </trkpt>
      <trkpt lat="63.23936" lon="10.27235">
        <ele>81.599998474121</ele>
        <time>2019-06-18T07:49:54Z</time>
      </trkpt>
      <trkpt lat="63.24096" lon="10.272">
        <ele>81.599998474121</ele>
        <time>2019-06-18T07:50:09Z</time>
      </trkpt>
      <trkpt lat="63.24159" lon="10.27175">
        <ele>81.800003051758</ele>
        <time>2019-06-18T07:50:25Z</time>
      </trkpt>
      <trkpt lat="63.24267" lon="10.27127">
        <ele>80.800003051758</ele>
        <time>2019-06-18T07:50:34Z</time>
      </trkpt>
      <trkpt lat="63.24401" lon="10.27067">
        <ele>80.800003051758</ele>
        <time>2019-06-18T07:50:48Z</time>
      </trkpt>
      <trkpt lat="63.24475" lon="10.27089">
        <ele>81.199996948242</ele>
        <time>2019-06-18T07:51:04Z</time>
      </trkpt>
      <trkpt lat="63.24506" lon="10.27246">
        <ele>90</ele>
        <time>2019-06-18T07:51:22Z</time>
      </trkpt>
      <trkpt lat="63.24514" lon="10.2732">
        <ele>93</ele>
        <time>2019-06-18T07:51:30Z</time>
      </trkpt>
      <trkpt lat="63.24572" lon="10.27373">
        <ele>99.199996948242</ele>
        <time>2019-06-18T07:51:49Z</time>
      </trkpt>
      <trkpt lat="63.24587" lon="10.27489">
        <ele>100</ele>
        <time>2019-06-18T07:52:03Z</time>
      </trkpt>
      <trkpt lat="63.24592" lon="10.27511">
        <ele>100.59999847412</ele>
        <time>2019-06-18T07:52:11Z</time>
      </trkpt>
      <trkpt lat="63.24606" lon="10.27524">
        <ele>100.59999847412</ele>
        <time>2019-06-18T07:52:25Z</time>
      </trkpt>
      <trkpt lat="63.24681" lon="10.27552">
        <ele>99.599998474121</ele>
        <time>2019-06-18T07:52:35Z</time>
      </trkpt>
      <trkpt lat="63.24768" lon="10.27583">
        <ele>99</ele>
        <time>2019-06-18T07:52:43Z</time>
      </trkpt>
      <trkpt lat="63.24807" lon="10.27604">
        <ele>98.199996948242</ele>
        <time>2019-06-18T07:52:57Z</time>
      </trkpt>
      <trkpt lat="63.24874" lon="10.27642">
        <ele>95.800003051758</ele>
        <time>2019-06-18T07:53:05Z</time>
      </trkpt>
      <trkpt lat="63.24975" lon="10.27746">
        <ele>90</ele>
        <time>2019-06-18T07:53:27Z</time>
      </trkpt>
      <trkpt lat="63.25025" lon="10.27792">
        <ele>90</ele>
        <time>2019-06-18T07:53:41Z</time>
      </trkpt>
      <trkpt lat="63.2509" lon="10.27839">
        <ele>91</ele>
        <time>2019-06-18T07:53:49Z</time>
      </trkpt>
      <trkpt lat="63.25108" lon="10.27857">
        <ele>92.400001525879</ele>
        <time>2019-06-18T07:54:07Z</time>
      </trkpt>
      <trkpt lat="63.25118" lon="10.27833">
        <ele>93</ele>
        <time>2019-06-18T07:54:12Z</time>
      </trkpt>
      <trkpt lat="63.25133" lon="10.27847">
        <ele>93.400001525879</ele>
        <time>2019-06-18T07:54:42Z</time>
      </trkpt>
      <trkpt lat="63.2517" lon="10.27877">
        <ele>94</ele>
        <time>2019-06-18T07:55:06Z</time>
      </trkpt>
      <trkpt lat="63.25192" lon="10.27896">
        <ele>94</ele>
        <time>2019-06-18T07:55:12Z</time>
      </trkpt>
      <trkpt lat="63.2523" lon="10.27932">
        <ele>94.199996948242</ele>
        <time>2019-06-18T07:55:25Z</time>
      </trkpt>
      <trkpt lat="63.25377" lon="10.28075">
        <ele>93.199996948242</ele>
        <time>2019-06-18T07:56:16Z</time>
      </trkpt>
      <trkpt lat="63.25448" lon="10.28114">
        <ele>92.599998474121</ele>
        <time>2019-06-18T07:56:27Z</time>
      </trkpt>
      <trkpt lat="63.25515" lon="10.28148">
        <ele>92.599998474121</ele>
        <time>2019-06-18T07:56:35Z</time>
      </trkpt>
      <trkpt lat="63.25553" lon="10.28194">
        <ele>91.599998474121</ele>
        <time>2019-06-18T07:56:41Z</time>
      </trkpt>
      <trkpt lat="63.2556" lon="10.28234">
        <ele>90.599998474121</ele>
        <time>2019-06-18T07:56:51Z</time>
      </trkpt>
      <trkpt lat="63.25603" lon="10.28338">
        <ele>89.199996948242</ele>
        <time>2019-06-18T07:57:03Z</time>
      </trkpt>
      <trkpt lat="63.25659" lon="10.28455">
        <ele>85.800003051758</ele>
        <time>2019-06-18T07:57:15Z</time>
      </trkpt>
      <trkpt lat="63.25733" lon="10.28548">
        <ele>81</ele>
        <time>2019-06-18T07:57:23Z</time>
      </trkpt>
      <trkpt lat="63.258" lon="10.28576">
        <ele>75.400001525879</ele>
        <time>2019-06-18T07:57:29Z</time>
      </trkpt>
      <trkpt lat="63.25835" lon="10.28585">
        <ele>75.400001525879</ele>
        <time>2019-06-18T07:57:37Z</time>
      </trkpt>
      <trkpt lat="63.25884" lon="10.28588">
        <ele>77</ele>
        <time>2019-06-18T07:57:44Z</time>
      </trkpt>
      <trkpt lat="63.25945" lon="10.28579">
        <ele>78</ele>
        <time>2019-06-18T07:57:53Z</time>
      </trkpt>
      <trkpt lat="63.25993" lon="10.28575">
        <ele>77.199996948242</ele>
        <time>2019-06-18T07:58:03Z</time>
      </trkpt>
      <trkpt lat="63.26042" lon="10.28587">
        <ele>77.800003051758</ele>
        <time>2019-06-18T07:58:20Z</time>
      </trkpt>
      <trkpt lat="63.26102" lon="10.28619">
        <ele>81.199996948242</ele>
        <time>2019-06-18T07:58:28Z</time>
      </trkpt>
      <trkpt lat="63.26147" lon="10.28651">
        <ele>81.599998474121</ele>
        <time>2019-06-18T07:58:44Z</time>
      </trkpt>
      <trkpt lat="63.26182" lon="10.2867">
        <ele>82.599998474121</ele>
        <time>2019-06-18T07:59:02Z</time>
      </trkpt>
      <trkpt lat="63.26277" lon="10.28738">
        <ele>90.400001525879</ele>
        <time>2019-06-18T07:59:08Z</time>
      </trkpt>
      <trkpt lat="63.26308" lon="10.28761">
        <ele>91.400001525879</ele>
        <time>2019-06-18T07:59:29Z</time>
      </trkpt>
      <trkpt lat="63.26373" lon="10.28808">
        <ele>91.400001525879</ele>
        <time>2019-06-18T07:59:50Z</time>
      </trkpt>
      <trkpt lat="63.26421" lon="10.2884">
        <ele>91.199996948242</ele>
        <time>2019-06-18T08:00:09Z</time>
      </trkpt>
      <trkpt lat="63.26505" lon="10.28904">
        <ele>91</ele>
        <time>2019-06-18T08:00:22Z</time>
      </trkpt>
      <trkpt lat="63.26558" lon="10.28955">
        <ele>90.599998474121</ele>
        <time>2019-06-18T08:00:30Z</time>
      </trkpt>
      <trkpt lat="63.26607" lon="10.29025">
        <ele>91.199996948242</ele>
        <time>2019-06-18T08:00:45Z</time>
      </trkpt>
      <trkpt lat="63.2664" lon="10.29084">
        <ele>94.599998474121</ele>
        <time>2019-06-18T08:00:56Z</time>
      </trkpt>
      <trkpt lat="63.26657" lon="10.29121">
        <ele>95.800003051758</ele>
        <time>2019-06-18T08:01:10Z</time>
      </trkpt>
      <trkpt lat="63.2667" lon="10.29154">
        <ele>96.199996948242</ele>
        <time>2019-06-18T08:01:26Z</time>
      </trkpt>
      <trkpt lat="63.26746" lon="10.29266">
        <ele>94.800003051758</ele>
        <time>2019-06-18T08:01:32Z</time>
      </trkpt>
      <trkpt lat="63.26823" lon="10.29335">
        <ele>91.199996948242</ele>
        <time>2019-06-18T08:01:41Z</time>
      </trkpt>
      <trkpt lat="63.26895" lon="10.29393">
        <ele>90.400001525879</ele>
        <time>2019-06-18T08:01:47Z</time>
      </trkpt>
      <trkpt lat="63.26992" lon="10.29454">
        <ele>90.400001525879</ele>
        <time>2019-06-18T08:01:53Z</time>
      </trkpt>
      <trkpt lat="63.27073" lon="10.29485">
        <ele>90.800003051758</ele>
        <time>2019-06-18T08:02:01Z</time>
      </trkpt>
      <trkpt lat="63.27106" lon="10.29464">
        <ele>91.199996948242</ele>
        <time>2019-06-18T08:02:08Z</time>
      </trkpt>
      <trkpt lat="63.27145" lon="10.29485">
        <ele>91.599998474121</ele>
        <time>2019-06-18T08:02:15Z</time>
      </trkpt>
      <trkpt lat="63.27197" lon="10.29469">
        <ele>91.599998474121</ele>
        <time>2019-06-18T08:02:27Z</time>
      </trkpt>
      <trkpt lat="63.27268" lon="10.29411">
        <ele>91.199996948242</ele>
        <time>2019-06-18T08:02:40Z</time>
      </trkpt>
      <trkpt lat="63.27304" lon="10.29361">
        <ele>91.199996948242</ele>
        <time>2019-06-18T08:03:02Z</time>
      </trkpt>
      <trkpt lat="63.27323" lon="10.29361">
        <ele>91.800003051758</ele>
        <time>2019-06-18T08:03:16Z</time>
      </trkpt>
      <trkpt lat="63.27334" lon="10.29364">
        <ele>91.599998474121</ele>
        <time>2019-06-18T08:03:35Z</time>
      </trkpt>
      <trkpt lat="63.27349" lon="10.29373">
        <ele>90.400001525879</ele>
        <time>2019-06-18T08:03:58Z</time>
      </trkpt>
      <trkpt lat="63.27358" lon="10.29388">
        <ele>90.400001525879</ele>
        <time>2019-06-18T08:04:11Z</time>
      </trkpt>
      <trkpt lat="63.27384" lon="10.29419">
        <ele>89.400001525879</ele>
        <time>2019-06-18T08:04:28Z</time>
      </trkpt>
      <trkpt lat="63.2744" lon="10.29384">
        <ele>88.199996948242</ele>
        <time>2019-06-18T08:04:49Z</time>
      </trkpt>
      <trkpt lat="63.27497" lon="10.29324">
        <ele>83.599998474121</ele>
        <time>2019-06-18T08:05:03Z</time>
      </trkpt>
      <trkpt lat="63.2754" lon="10.29281">
        <ele>81.599998474121</ele>
        <time>2019-06-18T08:05:19Z</time>
      </trkpt>
      <trkpt lat="63.27548" lon="10.29281">
        <ele>80.199996948242</ele>
        <time>2019-06-18T08:05:28Z</time>
      </trkpt>
      <trkpt lat="63.27548" lon="10.29267">
        <ele>80</ele>
        <time>2019-06-18T08:05:41Z</time>
      </trkpt>
      <trkpt lat="63.27547" lon="10.2923">
        <ele>80</ele>
        <time>2019-06-18T08:05:47Z</time>
      </trkpt>
      <trkpt lat="63.27552" lon="10.29127">
        <ele>80.199996948242</ele>
        <time>2019-06-18T08:06:09Z</time>
      </trkpt>
      <trkpt lat="63.27565" lon="10.29119">
        <ele>80.199996948242</ele>
        <time>2019-06-18T08:06:13Z</time>
      </trkpt>
      <trkpt lat="63.27611" lon="10.29111">
        <ele>80</ele>
        <time>2019-06-18T08:06:21Z</time>
      </trkpt>
      <trkpt lat="63.27712" lon="10.29095">
        <ele>78</ele>
        <time>2019-06-18T08:06:29Z</time>
      </trkpt>
      <trkpt lat="63.27751" lon="10.29086">
        <ele>78.599998474121</ele>
        <time>2019-06-18T08:06:46Z</time>
      </trkpt>
      <trkpt lat="63.27799" lon="10.29056">
        <ele>77.800003051758</ele>
        <time>2019-06-18T08:06:57Z</time>
      </trkpt>
      <trkpt lat="63.27819" lon="10.29028">
        <ele>77.599998474121</ele>
        <time>2019-06-18T08:07:09Z</time>
      </trkpt>
      <trkpt lat="63.27877" lon="10.28948">
        <ele>77.400001525879</ele>
        <time>2019-06-18T08:07:25Z</time>
      </trkpt>
      <trkpt lat="63.27922" lon="10.28869">
        <ele>77</ele>
        <time>2019-06-18T08:07:37Z</time>
      </trkpt>
      <trkpt lat="63.27954" lon="10.28811">
        <ele>77.199996948242</ele>
        <time>2019-06-18T08:07:50Z</time>
      </trkpt>
      <trkpt lat="63.28012" lon="10.28714">
        <ele>77.199996948242</ele>
        <time>2019-06-18T08:08:06Z</time>
      </trkpt>
      <trkpt lat="63.28103" lon="10.28562">
        <ele>77</ele>
        <time>2019-06-18T08:08:14Z</time>
      </trkpt>
      <trkpt lat="63.28158" lon="10.28469">
        <ele>77.599998474121</ele>
        <time>2019-06-18T08:08:28Z</time>
      </trkpt>
      <trkpt lat="63.28234" lon="10.2834">
        <ele>78</ele>
        <time>2019-06-18T08:08:37Z</time>
      </trkpt>
      <trkpt lat="63.28279" lon="10.28254">
        <ele>78.199996948242</ele>
        <time>2019-06-18T08:08:43Z</time>
      </trkpt>
      <trkpt lat="63.28304" lon="10.28174">
        <ele>77.800003051758</ele>
        <time>2019-06-18T08:09:05Z</time>
      </trkpt>
      <trkpt lat="63.28329" lon="10.28108">
        <ele>77.800003051758</ele>
        <time>2019-06-18T08:09:23Z</time>
      </trkpt>
      <trkpt lat="63.28343" lon="10.28115">
        <ele>77.800003051758</ele>
        <time>2019-06-18T08:09:58Z</time>
      </trkpt>
      <trkpt lat="63.28406" lon="10.2806">
        <ele>78.800003051758</ele>
        <time>2019-06-18T08:10:18Z</time>
      </trkpt>
      <trkpt lat="63.2844" lon="10.28003">
        <ele>79.199996948242</ele>
        <time>2019-06-18T08:10:25Z</time>
      </trkpt>
      <trkpt lat="63.28496" lon="10.27916">
        <ele>80.199996948242</ele>
        <time>2019-06-18T08:10:47Z</time>
      </trkpt>
      <trkpt lat="63.28519" lon="10.27888">
        <ele>79.800003051758</ele>
        <time>2019-06-18T08:11:00Z</time>
      </trkpt>
      <trkpt lat="63.28545" lon="10.27843">
        <ele>79.800003051758</ele>
        <time>2019-06-18T08:11:09Z</time>
      </trkpt>
      <trkpt lat="63.28563" lon="10.27801">
        <ele>79.599998474121</ele>
        <time>2019-06-18T08:11:23Z</time>
      </trkpt>
      <trkpt lat="63.28566" lon="10.27811">
        <ele>79.199996948242</ele>
        <time>2019-06-18T08:11:38Z</time>
      </trkpt>
      <trkpt lat="63.28597" lon="10.27765">
        <ele>79</ele>
        <time>2019-06-18T08:11:58Z</time>
      </trkpt>
      <trkpt lat="63.28648" lon="10.27691">
        <ele>79.199996948242</ele>
        <time>2019-06-18T08:12:08Z</time>
      </trkpt>
      <trkpt lat="63.28672" lon="10.27649">
        <ele>79.400001525879</ele>
        <time>2019-06-18T08:12:24Z</time>
      </trkpt>
      <trkpt lat="63.287" lon="10.27602">
        <ele>79.199996948242</ele>
        <time>2019-06-18T08:12:45Z</time>
      </trkpt>
      <trkpt lat="63.28714" lon="10.27651">
        <ele>79.199996948242</ele>
        <time>2019-06-18T08:12:59Z</time>
      </trkpt>
      <trkpt lat="63.28747" lon="10.27704">
        <ele>79.599998474121</ele>
        <time>2019-06-18T08:13:05Z</time>
      </trkpt>
      <trkpt lat="63.28751" lon="10.27702">
        <ele>78</ele>
        <time>2019-06-18T08:13:19Z</time>
      </trkpt>
      <trkpt lat="63.28733" lon="10.27656">
        <ele>77.800003051758</ele>
        <time>2019-06-18T08:13:33Z</time>
      </trkpt>
      <trkpt lat="63.28722" lon="10.2761">
        <ele>77.199996948242</ele>
        <time>2019-06-18T08:13:43Z</time>
      </trkpt>
      <trkpt lat="63.28711" lon="10.276">
        <ele>77.400001525879</ele>
        <time>2019-06-18T08:13:49Z</time>
      </trkpt>
      <trkpt lat="63.28724" lon="10.2757">
        <ele>77.400001525879</ele>
        <time>2019-06-18T08:13:55Z</time>
      </trkpt>
      <trkpt lat="63.28786" lon="10.2744">
        <ele>80.400001525879</ele>
        <time>2019-06-18T08:14:13Z</time>
      </trkpt>
      <trkpt lat="63.28815" lon="10.27399">
        <ele>81.800003051758</ele>
        <time>2019-06-18T08:14:27Z</time>
      </trkpt>
      <trkpt lat="63.28851" lon="10.27384">
        <ele>82.400001525879</ele>
        <time>2019-06-18T08:14:40Z</time>
      </trkpt>
      <trkpt lat="63.28892" lon="10.27391">
        <ele>82.599998474121</ele>
        <time>2019-06-18T08:15:01Z</time>
      </trkpt>
      <trkpt lat="63.28911" lon="10.27393">
        <ele>83</ele>
        <time>2019-06-18T08:15:16Z</time>
      </trkpt>
      <trkpt lat="63.28979" lon="10.27406">
        <ele>83.199996948242</ele>
        <time>2019-06-18T08:15:36Z</time>
      </trkpt>
      <trkpt lat="63.28997" lon="10.27409">
        <ele>83.400001525879</ele>
        <time>2019-06-18T08:15:51Z</time>
      </trkpt>
      <trkpt lat="63.29068" lon="10.27455">
        <ele>84</ele>
        <time>2019-06-18T08:16:05Z</time>
      </trkpt>
      <trkpt lat="63.29112" lon="10.27515">
        <ele>84.599998474121</ele>
        <time>2019-06-18T08:16:27Z</time>
      </trkpt>
      <trkpt lat="63.29199" lon="10.27657">
        <ele>84.599998474121</ele>
        <time>2019-06-18T08:16:34Z</time>
      </trkpt>
      <trkpt lat="63.29225" lon="10.27737">
        <ele>84</ele>
        <time>2019-06-18T08:16:48Z</time>
      </trkpt>
      <trkpt lat="63.29227" lon="10.27831">
        <ele>83.800003051758</ele>
        <time>2019-06-18T08:17:07Z</time>
      </trkpt>
      <trkpt lat="63.29225" lon="10.27864">
        <ele>83.800003051758</ele>
        <time>2019-06-18T08:17:09Z</time>
      </trkpt>
      <trkpt lat="63.29231" lon="10.27893">
        <ele>84.400001525879</ele>
        <time>2019-06-18T08:17:14Z</time>
      </trkpt>
      <trkpt lat="63.29251" lon="10.27914">
        <ele>84.599998474121</ele>
        <time>2019-06-18T08:18:01Z</time>
      </trkpt>
      <trkpt lat="63.29275" lon="10.27941">
        <ele>85.800003051758</ele>
        <time>2019-06-18T08:18:12Z</time>
      </trkpt>
      <trkpt lat="63.2934" lon="10.28018">
        <ele>84.199996948242</ele>
        <time>2019-06-18T08:18:26Z</time>
      </trkpt>
      <trkpt lat="63.2943" lon="10.28121">
        <ele>80.199996948242</ele>
        <time>2019-06-18T08:18:32Z</time>
      </trkpt>
      <trkpt lat="63.29479" lon="10.28181">
        <ele>79.599998474121</ele>
        <time>2019-06-18T08:18:49Z</time>
      </trkpt>
      <trkpt lat="63.29503" lon="10.28215">
        <ele>78.800003051758</ele>
        <time>2019-06-18T08:19:05Z</time>
      </trkpt>
      <trkpt lat="63.29561" lon="10.28289">
        <ele>78</ele>
        <time>2019-06-18T08:19:13Z</time>
      </trkpt>
      <trkpt lat="63.29656" lon="10.28414">
        <ele>72.800003051758</ele>
        <time>2019-06-18T08:19:25Z</time>
      </trkpt>
      <trkpt lat="63.29695" lon="10.28463">
        <ele>74.400001525879</ele>
        <time>2019-06-18T08:19:30Z</time>
      </trkpt>
      <trkpt lat="63.29722" lon="10.28487">
        <ele>74.800003051758</ele>
        <time>2019-06-18T08:19:39Z</time>
      </trkpt>
      <trkpt lat="63.29787" lon="10.28528">
        <ele>74.800003051758</ele>
        <time>2019-06-18T08:19:53Z</time>
      </trkpt>
      <trkpt lat="63.29845" lon="10.2849">
        <ele>78</ele>
        <time>2019-06-18T08:20:03Z</time>
      </trkpt>
      <trkpt lat="63.29947" lon="10.28474">
        <ele>80.800003051758</ele>
        <time>2019-06-18T08:20:14Z</time>
      </trkpt>
      <trkpt lat="63.30133" lon="10.28573">
        <ele>78.199996948242</ele>
        <time>2019-06-18T08:20:33Z</time>
      </trkpt>
      <trkpt lat="63.30217" lon="10.28628">
        <ele>76</ele>
        <time>2019-06-18T08:20:39Z</time>
      </trkpt>
      <trkpt lat="63.30253" lon="10.28649">
        <ele>74.400001525879</ele>
        <time>2019-06-18T08:20:46Z</time>
      </trkpt>
      <trkpt lat="63.30269" lon="10.28723">
        <ele>71.800003051758</ele>
        <time>2019-06-18T08:20:49Z</time>
      </trkpt>
      <trkpt lat="63.30277" lon="10.28877">
        <ele>70</ele>
        <time>2019-06-18T08:21:01Z</time>
      </trkpt>
      <trkpt lat="63.30303" lon="10.28891">
        <ele>71</ele>
        <time>2019-06-18T08:21:15Z</time>
      </trkpt>
      <trkpt lat="63.30391" lon="10.28894">
        <ele>77.400001525879</ele>
        <time>2019-06-18T08:21:22Z</time>
      </trkpt>
      <trkpt lat="63.30411" lon="10.28899">
        <ele>78.400001525879</ele>
        <time>2019-06-18T08:21:38Z</time>
      </trkpt>
      <trkpt lat="63.30449" lon="10.28913">
        <ele>79</ele>
        <time>2019-06-18T08:21:56Z</time>
      </trkpt>
      <trkpt lat="63.30549" lon="10.28953">
        <ele>77.400001525879</ele>
        <time>2019-06-18T08:22:12Z</time>
      </trkpt>
      <trkpt lat="63.3067" lon="10.29">
        <ele>78.599998474121</ele>
        <time>2019-06-18T08:22:34Z</time>
      </trkpt>
      <trkpt lat="63.30707" lon="10.29013">
        <ele>79.199996948242</ele>
        <time>2019-06-18T08:22:41Z</time>
      </trkpt>
      <trkpt lat="63.30791" lon="10.29048">
        <ele>79.800003051758</ele>
        <time>2019-06-18T08:23:04Z</time>
      </trkpt>
      <trkpt lat="63.30839" lon="10.29081">
        <ele>80.400001525879</ele>
        <time>2019-06-18T08:23:12Z</time>
      </trkpt>
      <trkpt lat="63.30906" lon="10.29128">
        <ele>80.199996948242</ele>
        <time>2019-06-18T08:23:18Z</time>
      </trkpt>
      <trkpt lat="63.30942" lon="10.2916">
        <ele>80</ele>
        <time>2019-06-18T08:23:24Z</time>
      </trkpt>
      <trkpt lat="63.31007" lon="10.29205">
        <ele>79.400001525879</ele>
        <time>2019-06-18T08:23:30Z</time>
      </trkpt>
      <trkpt lat="63.31083" lon="10.29259">
        <ele>79.400001525879</ele>
        <time>2019-06-18T08:23:40Z</time>
      </trkpt>
      <trkpt lat="63.31139" lon="10.29297">
        <ele>79.800003051758</ele>
        <time>2019-06-18T08:23:49Z</time>
      </trkpt>
      <trkpt lat="63.31203" lon="10.29343">
        <ele>79.800003051758</ele>
        <time>2019-06-18T08:23:53Z</time>
      </trkpt>
      <trkpt lat="63.31282" lon="10.29397">
        <ele>80</ele>
        <time>2019-06-18T08:24:01Z</time>
      </trkpt>
      <trkpt lat="63.31382" lon="10.29476">
        <ele>80.800003051758</ele>
        <time>2019-06-18T08:24:10Z</time>
      </trkpt>
      <trkpt lat="63.31413" lon="10.29491">
        <ele>80.800003051758</ele>
        <time>2019-06-18T08:24:16Z</time>
      </trkpt>
      <trkpt lat="63.31469" lon="10.29528">
        <ele>81</ele>
        <time>2019-06-18T08:24:30Z</time>
      </trkpt>
      <trkpt lat="63.31568" lon="10.29599">
        <ele>80.199996948242</ele>
        <time>2019-06-18T08:24:41Z</time>
      </trkpt>
      <trkpt lat="63.31627" lon="10.2964">
        <ele>80</ele>
        <time>2019-06-18T08:24:55Z</time>
      </trkpt>
      <trkpt lat="63.31668" lon="10.29701">
        <ele>79.599998474121</ele>
        <time>2019-06-18T08:25:12Z</time>
      </trkpt>
      <trkpt lat="63.31693" lon="10.29738">
        <ele>78.800003051758</ele>
        <time>2019-06-18T08:25:16Z</time>
      </trkpt>
      <trkpt lat="63.31734" lon="10.29708">
        <ele>76.599998474121</ele>
        <time>2019-06-18T08:25:28Z</time>
      </trkpt>
      <trkpt lat="63.31767" lon="10.29653">
        <ele>75.400001525879</ele>
        <time>2019-06-18T08:25:37Z</time>
      </trkpt>
      <trkpt lat="63.31799" lon="10.2967">
        <ele>76.800003051758</ele>
        <time>2019-06-18T08:25:41Z</time>
      </trkpt>
      <trkpt lat="63.31873" lon="10.29799">
        <ele>81</ele>
        <time>2019-06-18T08:25:48Z</time>
      </trkpt>
      <trkpt lat="63.31934" lon="10.29901">
        <ele>82.400001525879</ele>
        <time>2019-06-18T08:25:51Z</time>
      </trkpt>
      <trkpt lat="63.31982" lon="10.29956">
        <ele>83</ele>
        <time>2019-06-18T08:25:56Z</time>
      </trkpt>
      <trkpt lat="63.32064" lon="10.30002">
        <ele>83.599998474121</ele>
        <time>2019-06-18T08:26:03Z</time>
      </trkpt>
      <trkpt lat="63.321" lon="10.30015">
        <ele>83.599998474121</ele>
        <time>2019-06-18T08:26:07Z</time>
      </trkpt>
      <trkpt lat="63.32173" lon="10.30097">
        <ele>84.400001525879</ele>
        <time>2019-06-18T08:26:11Z</time>
      </trkpt>
      <trkpt lat="63.32221" lon="10.3015">
        <ele>85</ele>
        <time>2019-06-18T08:26:31Z</time>
      </trkpt>
      <trkpt lat="63.32248" lon="10.30173">
        <ele>85.800003051758</ele>
        <time>2019-06-18T08:26:50Z</time>
      </trkpt>
      <trkpt lat="63.3228" lon="10.30179">
        <ele>86</ele>
        <time>2019-06-18T08:27:08Z</time>
      </trkpt>
      <trkpt lat="63.32314" lon="10.3023">
        <ele>84.199996948242</ele>
        <time>2019-06-18T08:27:24Z</time>
      </trkpt>
      <trkpt lat="63.3233" lon="10.30264">
        <ele>83.800003051758</ele>
        <time>2019-06-18T08:27:30Z</time>
      </trkpt>
      <trkpt lat="63.32353" lon="10.30343">
        <ele>84.400001525879</ele>
        <time>2019-06-18T08:27:51Z</time>
      </trkpt>
      <trkpt lat="63.32382" lon="10.30448">
        <ele>88.199996948242</ele>
        <time>2019-06-18T08:28:05Z</time>
      </trkpt>
      <trkpt lat="63.32401" lon="10.30546">
        <ele>88.599998474121</ele>
        <time>2019-06-18T08:28:19Z</time>
      </trkpt>
      <trkpt lat="63.32465" lon="10.3069">
        <ele>88.199996948242</ele>
        <time>2019-06-18T08:28:32Z</time>
      </trkpt>
      <trkpt lat="63.32461" lon="10.30708">
        <ele>88.199996948242</ele>
        <time>2019-06-18T08:28:36Z</time>
      </trkpt>
      <trkpt lat="63.3247" lon="10.3081">
        <ele>88.800003051758</ele>
        <time>2019-06-18T08:28:47Z</time>
      </trkpt>
      <trkpt lat="63.32472" lon="10.30956">
        <ele>90.400001525879</ele>
        <time>2019-06-18T08:45:58Z</time>
      </trkpt>
      <trkpt lat="63.32483" lon="10.31384">
        <ele>94.400001525879</ele>
        <time>2019-06-18T08:46:14Z</time>
      </trkpt>
      <trkpt lat="63.32485" lon="10.31474">
        <ele>94.599998474121</ele>
        <time>2019-06-18T08:46:32Z</time>
      </trkpt>
      <trkpt lat="63.32488" lon="10.31664">
        <ele>95.400001525879</ele>
        <time>2019-06-18T08:46:52Z</time>
      </trkpt>
      <trkpt lat="63.32491" lon="10.3181">
        <ele>97</ele>
        <time>2019-06-18T08:46:54Z</time>
      </trkpt>
      <trkpt lat="63.32513" lon="10.31891">
        <ele>98.400001525879</ele>
        <time>2019-06-18T08:49:41Z</time>
      </trkpt>
      <trkpt lat="63.32637" lon="10.3208">
        <ele>101.19999694824</ele>
        <time>2019-06-18T08:51:08Z</time>
      </trkpt>
      <trkpt lat="63.3272" lon="10.32213">
        <ele>103.80000305176</ele>
        <time>2019-06-18T08:57:49Z</time>
      </trkpt>
      <trkpt lat="63.32785" lon="10.32343">
        <ele>107</ele>
        <time>2019-06-18T08:58:01Z</time>
      </trkpt>
      <trkpt lat="63.32817" lon="10.32472">
        <ele>107.80000305176</ele>
        <time>2019-06-18T08:59:08Z</time>
      </trkpt>
      <trkpt lat="63.32817" lon="10.32512">
        <ele>108.19999694824</ele>
        <time>2019-06-18T08:59:55Z</time>
      </trkpt>
      <trkpt lat="63.32822" lon="10.32636">
        <ele>107.40000152588</ele>
        <time>2019-06-18T09:00:08Z</time>
      </trkpt>
      <trkpt lat="63.32847" lon="10.32695">
        <ele>105.40000152588</ele>
        <time>2019-06-18T09:00:48Z</time>
      </trkpt>
      <trkpt lat="63.32895" lon="10.32751">
        <ele>106.80000305176</ele>
        <time>2019-06-18T09:00:59Z</time>
      </trkpt>
      <trkpt lat="63.32913" lon="10.32797">
        <ele>107.40000152588</ele>
        <time>2019-06-18T09:01:54Z</time>
      </trkpt>
      <trkpt lat="63.32965" lon="10.32894">
        <ele>109.40000152588</ele>
        <time>2019-06-18T09:15:29Z</time>
      </trkpt>
      <trkpt lat="63.33042" lon="10.32868">
        <ele>112.40000152588</ele>
        <time>2019-06-18T09:15:37Z</time>
      </trkpt>
      <trkpt lat="63.33103" lon="10.32918">
        <ele>115.19999694824</ele>
        <time>2019-06-18T09:15:51Z</time>
      </trkpt>
      <trkpt lat="63.33157" lon="10.33036">
        <ele>117.80000305176</ele>
        <time>2019-06-18T09:16:00Z</time>
      </trkpt>
      <trkpt lat="63.33186" lon="10.33137">
        <ele>120.59999847412</ele>
        <time>2019-06-18T09:16:05Z</time>
      </trkpt>
      <trkpt lat="63.33243" lon="10.33253">
        <ele>123</ele>
        <time>2019-06-18T09:16:14Z</time>
      </trkpt>
      <trkpt lat="63.33354" lon="10.33279">
        <ele>126.19999694824</ele>
        <time>2019-06-18T09:16:21Z</time>
      </trkpt>
      <trkpt lat="63.33418" lon="10.33252">
        <ele>128.19999694824</ele>
        <time>2019-06-18T09:16:34Z</time>
      </trkpt>
      <trkpt lat="63.33462" lon="10.33314">
        <ele>130.39999389648</ele>
        <time>2019-06-18T09:16:41Z</time>
      </trkpt>
      <trkpt lat="63.33488" lon="10.33414">
        <ele>132.39999389648</ele>
        <time>2019-06-18T09:16:53Z</time>
      </trkpt>
      <trkpt lat="63.33512" lon="10.33486">
        <ele>134.60000610352</ele>
        <time>2019-06-18T09:17:02Z</time>
      </trkpt>
      <trkpt lat="63.33566" lon="10.33529">
        <ele>138.19999694824</ele>
        <time>2019-06-18T09:17:14Z</time>
      </trkpt>
      <trkpt lat="63.33677" lon="10.33535">
        <ele>142.39999389648</ele>
        <time>2019-06-18T09:17:29Z</time>
      </trkpt>
      <trkpt lat="63.33742" lon="10.33662">
        <ele>145.60000610352</ele>
        <time>2019-06-18T09:17:44Z</time>
      </trkpt>
      <trkpt lat="63.33748" lon="10.33731">
        <ele>146.39999389648</ele>
        <time>2019-06-18T09:18:02Z</time>
      </trkpt>
      <trkpt lat="63.33765" lon="10.33808">
        <ele>148.19999694824</ele>
        <time>2019-06-18T09:18:09Z</time>
      </trkpt>
      <trkpt lat="63.33801" lon="10.33859">
        <ele>150</ele>
        <time>2019-06-18T09:18:27Z</time>
      </trkpt>
      <trkpt lat="63.33871" lon="10.33978">
        <ele>152.60000610352</ele>
        <time>2019-06-18T09:18:31Z</time>
      </trkpt>
      <trkpt lat="63.33888" lon="10.33999">
        <ele>153.60000610352</ele>
        <time>2019-06-18T09:18:33Z</time>
      </trkpt>
      <trkpt lat="63.33923" lon="10.34009">
        <ele>155</ele>
        <time>2019-06-18T09:18:46Z</time>
      </trkpt>
      <trkpt lat="63.33948" lon="10.33989">
        <ele>156.39999389648</ele>
        <time>2019-06-18T09:18:51Z</time>
      </trkpt>
      <trkpt lat="63.34007" lon="10.33887">
        <ele>158</ele>
        <time>2019-06-18T09:18:56Z</time>
      </trkpt>
      <trkpt lat="63.34035" lon="10.33849">
        <ele>159.19999694824</ele>
        <time>2019-06-18T09:18:59Z</time>
      </trkpt>
      <trkpt lat="63.34044" lon="10.33841">
        <ele>160.39999389648</ele>
        <time>2019-06-18T09:19:03Z</time>
      </trkpt>
      <trkpt lat="63.34093" lon="10.33877">
        <ele>162.19999694824</ele>
        <time>2019-06-18T09:19:17Z</time>
      </trkpt>
      <trkpt lat="63.34105" lon="10.33915">
        <ele>163.19999694824</ele>
        <time>2019-06-18T09:19:24Z</time>
      </trkpt>
      <trkpt lat="63.34165" lon="10.34125">
        <ele>165.39999389648</ele>
        <time>2019-06-18T09:19:32Z</time>
      </trkpt>
      <trkpt lat="63.34246" lon="10.34295">
        <ele>168.19999694824</ele>
        <time>2019-06-18T09:19:49Z</time>
      </trkpt>
      <trkpt lat="63.34313" lon="10.34413">
        <ele>169.39999389648</ele>
        <time>2019-06-18T09:20:00Z</time>
      </trkpt>
      <trkpt lat="63.34371" lon="10.34582">
        <ele>173.39999389648</ele>
        <time>2019-06-18T09:20:10Z</time>
      </trkpt>
      <trkpt lat="63.34397" lon="10.3463">
        <ele>174.19999694824</ele>
        <time>2019-06-18T09:20:22Z</time>
      </trkpt>
      <trkpt lat="63.34424" lon="10.3469">
        <ele>174.39999389648</ele>
        <time>2019-06-18T09:20:29Z</time>
      </trkpt>
      <trkpt lat="63.34475" lon="10.34876">
        <ele>176.19999694824</ele>
        <time>2019-06-18T09:20:46Z</time>
      </trkpt>
      <trkpt lat="63.34493" lon="10.34964">
        <ele>176.60000610352</ele>
        <time>2019-06-18T09:21:03Z</time>
      </trkpt>
      <trkpt lat="63.34522" lon="10.35063">
        <ele>178.39999389648</ele>
        <time>2019-06-18T09:21:18Z</time>
      </trkpt>
      <trkpt lat="63.34613" lon="10.35213">
        <ele>182.19999694824</ele>
        <time>2019-06-18T09:21:30Z</time>
      </trkpt>
      <trkpt lat="63.34663" lon="10.35288">
        <ele>184.80000305176</ele>
        <time>2019-06-18T09:21:35Z</time>
      </trkpt>
      <trkpt lat="63.34688" lon="10.35326">
        <ele>185.39999389648</ele>
        <time>2019-06-18T09:21:57Z</time>
      </trkpt>
      <trkpt lat="63.34762" lon="10.35385">
        <ele>188.80000305176</ele>
        <time>2019-06-18T09:22:05Z</time>
      </trkpt>
      <trkpt lat="63.34772" lon="10.35418">
        <ele>189</ele>
        <time>2019-06-18T09:22:15Z</time>
      </trkpt>
      <trkpt lat="63.34802" lon="10.35386">
        <ele>190</ele>
        <time>2019-06-18T09:22:26Z</time>
      </trkpt>
      <trkpt lat="63.35007" lon="10.35546">
        <ele>197.19999694824</ele>
        <time>2019-06-18T09:22:32Z</time>
      </trkpt>
      <trkpt lat="63.3505" lon="10.35587">
        <ele>197.60000610352</ele>
        <time>2019-06-18T09:22:47Z</time>
      </trkpt>
      <trkpt lat="63.35075" lon="10.35617">
        <ele>197.39999389648</ele>
        <time>2019-06-18T09:22:54Z</time>
      </trkpt>
      <trkpt lat="63.35107" lon="10.3564">
        <ele>197.60000610352</ele>
        <time>2019-06-18T09:22:58Z</time>
      </trkpt>
      <trkpt lat="63.35133" lon="10.35661">
        <ele>197</ele>
        <time>2019-06-18T09:23:04Z</time>
      </trkpt>
      <trkpt lat="63.35213" lon="10.35719">
        <ele>196.60000610352</ele>
        <time>2019-06-18T09:23:07Z</time>
      </trkpt>
      <trkpt lat="63.35252" lon="10.35742">
        <ele>196.19999694824</ele>
        <time>2019-06-18T09:23:10Z</time>
      </trkpt>
      <trkpt lat="63.35282" lon="10.35755">
        <ele>195.60000610352</ele>
        <time>2019-06-18T09:23:24Z</time>
      </trkpt>
      <trkpt lat="63.35311" lon="10.35748">
        <ele>193.80000305176</ele>
        <time>2019-06-18T09:23:33Z</time>
      </trkpt>
      <trkpt lat="63.35369" lon="10.35753">
        <ele>193.39999389648</ele>
        <time>2019-06-18T09:23:51Z</time>
      </trkpt>
      <trkpt lat="63.35398" lon="10.35792">
        <ele>193</ele>
        <time>2019-06-18T09:23:57Z</time>
      </trkpt>
      <trkpt lat="63.35471" lon="10.35839">
        <ele>191</ele>
        <time>2019-06-18T09:24:01Z</time>
      </trkpt>
      <trkpt lat="63.35615" lon="10.35891">
        <ele>189</ele>
        <time>2019-06-18T09:24:08Z</time>
      </trkpt>
      <trkpt lat="63.35648" lon="10.35905">
        <ele>187.60000610352</ele>
        <time>2019-06-18T09:24:11Z</time>
      </trkpt>
      <trkpt lat="63.35679" lon="10.35921">
        <ele>187.19999694824</ele>
        <time>2019-06-18T09:24:14Z</time>
      </trkpt>
      <trkpt lat="63.35824" lon="10.35975">
        <ele>183.60000610352</ele>
        <time>2019-06-18T09:24:21Z</time>
      </trkpt>
      <trkpt lat="63.35878" lon="10.36011">
        <ele>181.60000610352</ele>
        <time>2019-06-18T09:24:25Z</time>
      </trkpt>
      <trkpt lat="63.35909" lon="10.36035">
        <ele>181.19999694824</ele>
        <time>2019-06-18T09:24:37Z</time>
      </trkpt>
      <trkpt lat="63.35952" lon="10.3606">
        <ele>178.60000610352</ele>
        <time>2019-06-18T09:24:53Z</time>
      </trkpt>
      <trkpt lat="63.35988" lon="10.36061">
        <ele>178.39999389648</ele>
        <time>2019-06-18T09:25:02Z</time>
      </trkpt>
      <trkpt lat="63.36091" lon="10.36112">
        <ele>175</ele>
        <time>2019-06-18T09:25:22Z</time>
      </trkpt>
      <trkpt lat="63.36133" lon="10.36149">
        <ele>172.60000610352</ele>
        <time>2019-06-18T09:25:33Z</time>
      </trkpt>
      <trkpt lat="63.36203" lon="10.36216">
        <ele>170.39999389648</ele>
        <time>2019-06-18T09:25:43Z</time>
      </trkpt>
      <trkpt lat="63.36249" lon="10.3631">
        <ele>167</ele>
        <time>2019-06-18T09:26:07Z</time>
      </trkpt>
      <trkpt lat="63.36254" lon="10.36332">
        <ele>167</ele>
        <time>2019-06-18T09:26:16Z</time>
      </trkpt>
      <trkpt lat="63.36277" lon="10.36357">
        <ele>166.80000305176</ele>
        <time>2019-06-18T09:26:42Z</time>
      </trkpt>
      <trkpt lat="63.36306" lon="10.3638">
        <ele>166.80000305176</ele>
        <time>2019-06-18T09:26:49Z</time>
      </trkpt>
      <trkpt lat="63.36313" lon="10.36392">
        <ele>166</ele>
        <time>2019-06-18T09:26:57Z</time>
      </trkpt>
      <trkpt lat="63.36334" lon="10.36407">
        <ele>166</ele>
        <time>2019-06-18T09:27:11Z</time>
      </trkpt>
      <trkpt lat="63.36364" lon="10.36422">
        <ele>165.60000610352</ele>
        <time>2019-06-18T09:27:19Z</time>
      </trkpt>
      <trkpt lat="63.36481" lon="10.36456">
        <ele>160.60000610352</ele>
        <time>2019-06-18T09:27:26Z</time>
      </trkpt>
      <trkpt lat="63.3656" lon="10.36527">
        <ele>157</ele>
        <time>2019-06-18T09:27:35Z</time>
      </trkpt>
      <trkpt lat="63.36667" lon="10.36587">
        <ele>154.39999389648</ele>
        <time>2019-06-18T09:27:44Z</time>
      </trkpt>
      <trkpt lat="63.36686" lon="10.36619">
        <ele>154</ele>
        <time>2019-06-18T09:28:01Z</time>
      </trkpt>
      <trkpt lat="63.36818" lon="10.36712">
        <ele>150</ele>
        <time>2019-06-18T09:28:11Z</time>
      </trkpt>
      <trkpt lat="63.36938" lon="10.36706">
        <ele>145.39999389648</ele>
        <time>2019-06-18T09:28:20Z</time>
      </trkpt>
      <trkpt lat="63.36992" lon="10.36768">
        <ele>142.39999389648</ele>
        <time>2019-06-18T09:28:44Z</time>
      </trkpt>
      <trkpt lat="63.37061" lon="10.3682">
        <ele>140.60000610352</ele>
        <time>2019-06-18T09:28:53Z</time>
      </trkpt>
      <trkpt lat="63.37214" lon="10.3689">
        <ele>134.80000305176</ele>
        <time>2019-06-18T09:29:06Z</time>
      </trkpt>
      <trkpt lat="63.37298" lon="10.36817">
        <ele>131.60000610352</ele>
        <time>2019-06-18T09:29:29Z</time>
      </trkpt>
      <trkpt lat="63.37359" lon="10.367">
        <ele>127.80000305176</ele>
        <time>2019-06-18T09:29:45Z</time>
      </trkpt>
      <trkpt lat="63.37414" lon="10.36637">
        <ele>125.80000305176</ele>
        <time>2019-06-18T09:30:01Z</time>
      </trkpt>
      <trkpt lat="63.37453" lon="10.36509">
        <ele>123.40000152588</ele>
        <time>2019-06-18T09:30:18Z</time>
      </trkpt>
      <trkpt lat="63.37492" lon="10.36472">
        <ele>122.40000152588</ele>
        <time>2019-06-18T09:30:35Z</time>
      </trkpt>
      <trkpt lat="63.37545" lon="10.36533">
        <ele>120.19999694824</ele>
        <time>2019-06-18T09:30:53Z</time>
      </trkpt>
      <trkpt lat="63.37608" lon="10.36666">
        <ele>117.59999847412</ele>
        <time>2019-06-18T09:31:13Z</time>
      </trkpt>
      <trkpt lat="63.37696" lon="10.36754">
        <ele>115</ele>
        <time>2019-06-18T09:31:30Z</time>
      </trkpt>
      <trkpt lat="63.37767" lon="10.36729">
        <ele>112.59999847412</ele>
        <time>2019-06-18T09:31:46Z</time>
      </trkpt>
      <trkpt lat="63.3787" lon="10.36838">
        <ele>109</ele>
        <time>2019-06-18T09:32:02Z</time>
      </trkpt>
      <trkpt lat="63.37914" lon="10.36814">
        <ele>107.80000305176</ele>
        <time>2019-06-18T09:32:19Z</time>
      </trkpt>
      <trkpt lat="63.37955" lon="10.36847">
        <ele>106.80000305176</ele>
        <time>2019-06-18T09:32:34Z</time>
      </trkpt>
      <trkpt lat="63.3802" lon="10.36949">
        <ele>103.59999847412</ele>
        <time>2019-06-18T09:32:42Z</time>
      </trkpt>
      <trkpt lat="63.38059" lon="10.37003">
        <ele>103.19999694824</ele>
        <time>2019-06-18T09:33:03Z</time>
      </trkpt>
      <trkpt lat="63.38099" lon="10.37041">
        <ele>102.59999847412</ele>
        <time>2019-06-18T09:33:18Z</time>
      </trkpt>
      <trkpt lat="63.38156" lon="10.37061">
        <ele>101.40000152588</ele>
        <time>2019-06-18T09:33:38Z</time>
      </trkpt>
      <trkpt lat="63.38191" lon="10.37039">
        <ele>99.800003051758</ele>
        <time>2019-06-18T09:33:50Z</time>
      </trkpt>
      <trkpt lat="63.38307" lon="10.37083">
        <ele>95</ele>
        <time>2019-06-18T09:33:59Z</time>
      </trkpt>
      <trkpt lat="63.38351" lon="10.37133">
        <ele>93.199996948242</ele>
        <time>2019-06-18T09:34:21Z</time>
      </trkpt>
      <trkpt lat="63.38425" lon="10.37328">
        <ele>91.400001525879</ele>
        <time>2019-06-18T09:34:36Z</time>
      </trkpt>
      <trkpt lat="63.38459" lon="10.37349">
        <ele>90.400001525879</ele>
        <time>2019-06-18T09:34:38Z</time>
      </trkpt>
      <trkpt lat="63.38551" lon="10.37342">
        <ele>88.800003051758</ele>
        <time>2019-06-18T09:34:55Z</time>
      </trkpt>
      <trkpt lat="63.3857" lon="10.37363">
        <ele>88.400001525879</ele>
        <time>2019-06-18T09:35:03Z</time>
      </trkpt>
      <trkpt lat="63.38744" lon="10.37651">
        <ele>85.400001525879</ele>
        <time>2019-06-18T09:35:12Z</time>
      </trkpt>
      <trkpt lat="63.3879" lon="10.37714">
        <ele>85.199996948242</ele>
        <time>2019-06-18T09:35:22Z</time>
      </trkpt>
      <trkpt lat="63.38832" lon="10.37773">
        <ele>85.199996948242</ele>
        <time>2019-06-18T09:35:32Z</time>
      </trkpt>
      <trkpt lat="63.38864" lon="10.37829">
        <ele>84.199996948242</ele>
        <time>2019-06-18T09:35:52Z</time>
      </trkpt>
      <trkpt lat="63.38937" lon="10.37937">
        <ele>81</ele>
        <time>2019-06-18T09:36:02Z</time>
      </trkpt>
      <trkpt lat="63.38993" lon="10.38013">
        <ele>80</ele>
        <time>2019-06-18T09:36:17Z</time>
      </trkpt>
      <trkpt lat="63.39115" lon="10.38173">
        <ele>77.199996948242</ele>
        <time>2019-06-18T09:36:42Z</time>
      </trkpt>
      <trkpt lat="63.39145" lon="10.38195">
        <ele>76.199996948242</ele>
        <time>2019-06-18T09:36:57Z</time>
      </trkpt>
      <trkpt lat="63.39234" lon="10.38259">
        <ele>74.599998474121</ele>
        <time>2019-06-18T09:37:16Z</time>
      </trkpt>
      <trkpt lat="63.39333" lon="10.38327">
        <ele>71</ele>
        <time>2019-06-18T09:37:28Z</time>
      </trkpt>
      <trkpt lat="63.39427" lon="10.38444">
        <ele>68.800003051758</ele>
        <time>2019-06-18T09:37:40Z</time>
      </trkpt>
      <trkpt lat="63.39452" lon="10.38477">
        <ele>68.400001525879</ele>
        <time>2019-06-18T09:38:03Z</time>
      </trkpt>
      <trkpt lat="63.39534" lon="10.38518">
        <ele>69.800003051758</ele>
        <time>2019-06-18T09:38:18Z</time>
      </trkpt>
      <trkpt lat="63.39558" lon="10.38528">
        <ele>69.800003051758</ele>
        <time>2019-06-18T09:38:32Z</time>
      </trkpt>
      <trkpt lat="63.39553" lon="10.38573">
        <ele>70</ele>
        <time>2019-06-18T09:38:58Z</time>
      </trkpt>
      <trkpt lat="63.39601" lon="10.38762">
        <ele>70</ele>
        <time>2019-06-18T09:39:07Z</time>
      </trkpt>
      <trkpt lat="63.39703" lon="10.38894">
        <ele>76.599998474121</ele>
        <time>2019-06-18T09:39:17Z</time>
      </trkpt>
      <trkpt lat="63.39756" lon="10.38964">
        <ele>78.800003051758</ele>
        <time>2019-06-18T09:39:23Z</time>
      </trkpt>
      <trkpt lat="63.39777" lon="10.39008">
        <ele>79.400001525879</ele>
        <time>2019-06-18T09:39:32Z</time>
      </trkpt>
      <trkpt lat="63.39793" lon="10.39037">
        <ele>80.599998474121</ele>
        <time>2019-06-18T09:39:47Z</time>
      </trkpt>
      <trkpt lat="63.39828" lon="10.39101">
        <ele>81.199996948242</ele>
        <time>2019-06-18T09:39:55Z</time>
      </trkpt>
      <trkpt lat="63.39988" lon="10.39345">
        <ele>85.599998474121</ele>
        <time>2019-06-18T09:40:03Z</time>
      </trkpt>
      <trkpt lat="63.40048" lon="10.39405">
        <ele>87.599998474121</ele>
        <time>2019-06-18T09:40:11Z</time>
      </trkpt>
      <trkpt lat="63.40208" lon="10.39514">
        <ele>91</ele>
        <time>2019-06-18T09:40:20Z</time>
      </trkpt>
      <trkpt lat="63.40272" lon="10.39543">
        <ele>91.800003051758</ele>
        <time>2019-06-18T09:40:35Z</time>
      </trkpt>
      <trkpt lat="63.40318" lon="10.39563">
        <ele>92</ele>
        <time>2019-06-18T09:40:51Z</time>
      </trkpt>
      <trkpt lat="63.40518" lon="10.39663">
        <ele>90.800003051758</ele>
        <time>2019-06-18T09:41:07Z</time>
      </trkpt>
      <trkpt lat="63.40549" lon="10.39678">
        <ele>90.400001525879</ele>
        <time>2019-06-18T09:41:29Z</time>
      </trkpt>
      <trkpt lat="63.40639" lon="10.39721">
        <ele>87.599998474121</ele>
        <time>2019-06-18T09:41:44Z</time>
      </trkpt>
      <trkpt lat="63.40756" lon="10.39691">
        <ele>85</ele>
        <time>2019-06-18T09:41:59Z</time>
      </trkpt>
      <trkpt lat="63.40816" lon="10.39722">
        <ele>84</ele>
        <time>2019-06-18T09:42:19Z</time>
      </trkpt>
      <trkpt lat="63.40875" lon="10.3974">
        <ele>83.599998474121</ele>
        <time>2019-06-18T09:42:22Z</time>
      </trkpt>
      <trkpt lat="63.40937" lon="10.39768">
        <ele>82.800003051758</ele>
        <time>2019-06-18T09:42:30Z</time>
      </trkpt>
      <trkpt lat="63.40998" lon="10.39786">
        <ele>82.400001525879</ele>
        <time>2019-06-18T09:42:40Z</time>
      </trkpt>
      <trkpt lat="63.4109" lon="10.39804">
        <ele>82.199996948242</ele>
        <time>2019-06-18T09:42:54Z</time>
      </trkpt>
      <trkpt lat="63.41107" lon="10.39805">
        <ele>82</ele>
        <time>2019-06-18T09:43:04Z</time>
      </trkpt>
      <trkpt lat="63.41139" lon="10.39792">
        <ele>81.800003051758</ele>
        <time>2019-06-18T09:43:12Z</time>
      </trkpt>
      <trkpt lat="63.41213" lon="10.39777">
        <ele>82</ele>
        <time>2019-06-18T09:43:20Z</time>
      </trkpt>
      <trkpt lat="63.41259" lon="10.3976">
        <ele>81.400001525879</ele>
        <time>2019-06-18T09:43:35Z</time>
      </trkpt>
      <trkpt lat="63.41282" lon="10.39769">
        <ele>80.800003051758</ele>
        <time>2019-06-18T09:43:51Z</time>
      </trkpt>
      <trkpt lat="63.41336" lon="10.39765">
        <ele>80.599998474121</ele>
        <time>2019-06-18T09:44:08Z</time>
      </trkpt>
      <trkpt lat="63.41355" lon="10.39746">
        <ele>80.599998474121</ele>
        <time>2019-06-18T09:44:18Z</time>
      </trkpt>
      <trkpt lat="63.41363" lon="10.39677">
        <ele>80.400001525879</ele>
        <time>2019-06-18T09:44:37Z</time>
      </trkpt>
      <trkpt lat="63.41394" lon="10.39609">
        <ele>80.599998474121</ele>
        <time>2019-06-18T09:44:52Z</time>
      </trkpt>
      <trkpt lat="63.41437" lon="10.39537">
        <ele>80.599998474121</ele>
        <time>2019-06-18T09:44:59Z</time>
      </trkpt>
      <trkpt lat="63.41466" lon="10.39509">
        <ele>80</ele>
        <time>2019-06-18T09:45:25Z</time>
      </trkpt>
      <trkpt lat="63.41464" lon="10.3948">
        <ele>79.400001525879</ele>
        <time>2019-06-18T09:45:37Z</time>
      </trkpt>
      <trkpt lat="63.41491" lon="10.39369">
        <ele>78.800003051758</ele>
        <time>2019-06-18T09:45:48Z</time>
      </trkpt>
      <trkpt lat="63.4152" lon="10.39347">
        <ele>78</ele>
        <time>2019-06-18T09:46:12Z</time>
      </trkpt>
      <trkpt lat="63.41543" lon="10.39331">
        <ele>78</ele>
        <time>2019-06-18T09:46:19Z</time>
      </trkpt>
      <trkpt lat="63.41582" lon="10.39301">
        <ele>77.800003051758</ele>
        <time>2019-06-18T09:46:36Z</time>
      </trkpt>
      <trkpt lat="63.41656" lon="10.39244">
        <ele>77.599998474121</ele>
        <time>2019-06-18T09:46:53Z</time>
      </trkpt>
      <trkpt lat="63.41739" lon="10.39174">
        <ele>76.599998474121</ele>
        <time>2019-06-18T09:47:03Z</time>
      </trkpt>
      <trkpt lat="63.41787" lon="10.3914">
        <ele>76.400001525879</ele>
        <time>2019-06-18T09:47:16Z</time>
      </trkpt>
      <trkpt lat="63.41815" lon="10.39127">
        <ele>76</ele>
        <time>2019-06-18T09:47:29Z</time>
      </trkpt>
      <trkpt lat="63.41889" lon="10.39086">
        <ele>75.400001525879</ele>
        <time>2019-06-18T09:47:34Z</time>
      </trkpt>
      <trkpt lat="63.41947" lon="10.39062">
        <ele>75</ele>
        <time>2019-06-18T09:47:41Z</time>
      </trkpt>
      <trkpt lat="63.42018" lon="10.39019">
        <ele>74.800003051758</ele>
        <time>2019-06-18T09:47:47Z</time>
      </trkpt>
      <trkpt lat="63.42049" lon="10.3899">
        <ele>74.199996948242</ele>
        <time>2019-06-18T09:47:51Z</time>
      </trkpt>
      <trkpt lat="63.42054" lon="10.38996">
        <ele>74</ele>
        <time>2019-06-18T09:47:57Z</time>
      </trkpt>
      <trkpt lat="63.42085" lon="10.39191">
        <ele>74</ele>
        <time>2019-06-18T09:48:02Z</time>
      </trkpt>
      <trkpt lat="63.42102" lon="10.3929">
        <ele>73.400001525879</ele>
        <time>2019-06-18T09:48:08Z</time>
      </trkpt>
      <trkpt lat="63.4209" lon="10.39356">
        <ele>73.800003051758</ele>
        <time>2019-06-18T09:48:12Z</time>
      </trkpt>
      <trkpt lat="63.42106" lon="10.3936">
        <ele>73.800003051758</ele>
        <time>2019-06-18T09:48:16Z</time>
      </trkpt>
      <trkpt lat="63.42111" lon="10.39352">
        <ele>73.599998474121</ele>
        <time>2019-06-18T09:48:30Z</time>
      </trkpt>
      <trkpt lat="63.42125" lon="10.39369">
        <ele>73.800003051758</ele>
        <time>2019-06-18T09:48:40Z</time>
      </trkpt>
      <trkpt lat="63.42235" lon="10.39409">
        <ele>72.400001525879</ele>
        <time>2019-06-18T09:48:48Z</time>
      </trkpt>
      <trkpt lat="63.4227" lon="10.39415">
        <ele>71.599998474121</ele>
        <time>2019-06-18T09:49:12Z</time>
      </trkpt>
      <trkpt lat="63.42324" lon="10.39406">
        <ele>72</ele>
        <time>2019-06-18T09:49:20Z</time>
      </trkpt>
      <trkpt lat="63.42356" lon="10.39394">
        <ele>73</ele>
        <time>2019-06-18T09:49:47Z</time>
      </trkpt>
      <trkpt lat="63.42501" lon="10.39364">
        <ele>73</ele>
        <time>2019-06-18T09:50:03Z</time>
      </trkpt>
      <trkpt lat="63.42658" lon="10.39312">
        <ele>71.599998474121</ele>
        <time>2019-06-18T09:50:18Z</time>
      </trkpt>
      <trkpt lat="63.42754" lon="10.39293">
        <ele>69.599998474121</ele>
        <time>2019-06-18T09:50:42Z</time>
      </trkpt>
      <trkpt lat="63.42776" lon="10.39292">
        <ele>69.599998474121</ele>
        <time>2019-06-18T09:50:51Z</time>
      </trkpt>
      <trkpt lat="63.42814" lon="10.39295">
        <ele>69.400001525879</ele>
        <time>2019-06-18T09:51:07Z</time>
      </trkpt>
      <trkpt lat="63.42895" lon="10.39262">
        <ele>68.800003051758</ele>
        <time>2019-06-18T09:51:23Z</time>
      </trkpt>
      <trkpt lat="63.42933" lon="10.39249">
        <ele>69</ele>
        <time>2019-06-18T09:51:32Z</time>
      </trkpt>
      <trkpt lat="63.42981" lon="10.39248">
        <ele>68.199996948242</ele>
        <time>2019-06-18T09:51:46Z</time>
      </trkpt>
      <trkpt lat="63.42992" lon="10.39229">
        <ele>67.800003051758</ele>
        <time>2019-06-18T09:51:54Z</time>
      </trkpt>
      <trkpt lat="63.43024" lon="10.39238">
        <ele>67.599998474121</ele>
        <time>2019-06-18T09:52:08Z</time>
      </trkpt>
      <trkpt lat="63.43053" lon="10.39215">
        <ele>66.800003051758</ele>
        <time>2019-06-18T09:52:28Z</time>
      </trkpt>
      <trkpt lat="63.43057" lon="10.39285">
        <ele>66.800003051758</ele>
        <time>2019-06-18T09:52:40Z</time>
      </trkpt>
      <trkpt lat="63.4306" lon="10.393">
        <ele>67</ele>
        <time>2019-06-18T09:52:49Z</time>
      </trkpt>
      <trkpt lat="63.43074" lon="10.39345">
        <ele>66.800003051758</ele>
        <time>2019-06-18T09:53:03Z</time>
      </trkpt>
      <trkpt lat="63.43073" lon="10.39363">
        <ele>66.800003051758</ele>
        <time>2019-06-18T09:53:13Z</time>
      </trkpt>
      <trkpt lat="63.43065" lon="10.39414">
        <ele>66.400001525879</ele>
        <time>2019-06-18T09:53:33Z</time>
      </trkpt>
      <trkpt lat="63.43062" lon="10.39427">
        <ele>66.800003051758</ele>
        <time>2019-06-18T09:53:44Z</time>
      </trkpt>
      <trkpt lat="63.4306" lon="10.39441">
        <ele>66.199996948242</ele>
        <time>2019-06-18T09:54:01Z</time>
      </trkpt>
      <trkpt lat="63.43067" lon="10.3945">
        <ele>66.400001525879</ele>
        <time>2019-06-18T09:55:15Z</time>
      </trkpt>
      <trkpt lat="63.43067" lon="10.39488">
        <ele>65.599998474121</ele>
        <time>2019-06-18T09:55:24Z</time>
      </trkpt>
      <trkpt lat="63.43069" lon="10.39518">
        <ele>65.400001525879</ele>
        <time>2019-06-18T09:55:45Z</time>
      </trkpt>
      <trkpt lat="63.43078" lon="10.39587">
        <ele>65.400001525879</ele>
        <time>2019-06-18T09:55:58Z</time>
      </trkpt>
      <trkpt lat="63.43131" lon="10.39614">
        <ele>64.199996948242</ele>
        <time>2019-06-18T09:56:10Z</time>
      </trkpt>
      <trkpt lat="63.43147" lon="10.39623">
        <ele>64.199996948242</ele>
        <time>2019-06-18T09:56:35Z</time>
      </trkpt>
      <trkpt lat="63.43162" lon="10.39629">
        <ele>64</ele>
        <time>2019-06-18T09:56:48Z</time>
      </trkpt>
      <trkpt lat="63.43184" lon="10.39634">
        <ele>64</ele>
        <time>2019-06-18T09:57:00Z</time>
      </trkpt>
      <trkpt lat="63.43186" lon="10.39599">
        <ele>64</ele>
        <time>2019-06-18T09:57:08Z</time>
      </trkpt>
      <trkpt lat="63.43198" lon="10.3971">
        <ele>64.400001525879</ele>
        <time>2019-06-18T09:57:16Z</time>
      </trkpt>
      <trkpt lat="63.43211" lon="10.39747">
        <ele>64</ele>
        <time>2019-06-18T09:57:37Z</time>
      </trkpt>
      <trkpt lat="63.43219" lon="10.39747">
        <ele>64.199996948242</ele>
        <time>2019-06-18T09:57:51Z</time>
      </trkpt>
      <trkpt lat="63.43235" lon="10.39739">
        <ele>64.199996948242</ele>
        <time>2019-06-18T09:58:06Z</time>
      </trkpt>
      <trkpt lat="63.43247" lon="10.39735">
        <ele>63.200000762939</ele>
        <time>2019-06-18T09:58:31Z</time>
      </trkpt>
      <trkpt lat="63.43223" lon="10.39717">
        <ele>63.599998474121</ele>
        <time>2019-06-18T09:58:47Z</time>
      </trkpt>
      <trkpt lat="63.43213" lon="10.39726">
        <ele>64</ele>
        <time>2019-06-18T09:58:57Z</time>
      </trkpt>
      <trkpt lat="63.43243" lon="10.39725">
        <ele>64</ele>
        <time>2019-06-18T09:59:07Z</time>
      </trkpt>
      <trkpt lat="63.43319" lon="10.39754">
        <ele>63.200000762939</ele>
        <time>2019-06-18T09:59:20Z</time>
      </trkpt>
      <trkpt lat="63.43341" lon="10.39738">
        <ele>63</ele>
        <time>2019-06-18T09:59:37Z</time>
      </trkpt>
      <trkpt lat="63.43373" lon="10.39732">
        <ele>63</ele>
        <time>2019-06-18T09:59:52Z</time>
      </trkpt>
      <trkpt lat="63.43403" lon="10.39731">
        <ele>62.599998474121</ele>
        <time>2019-06-18T10:00:04Z</time>
      </trkpt>
      <trkpt lat="63.43471" lon="10.39712">
        <ele>60.799999237061</ele>
        <time>2019-06-18T10:00:18Z</time>
      </trkpt>
      <trkpt lat="63.435" lon="10.39717">
        <ele>58.599998474121</ele>
        <time>2019-06-18T10:00:35Z</time>
      </trkpt>
      <trkpt lat="63.43463" lon="10.39702">
        <ele>60.799999237061</ele>
        <time>2019-06-18T10:00:48Z</time>
      </trkpt>
      <trkpt lat="63.43457" lon="10.39657">
        <ele>61.400001525879</ele>
        <time>2019-06-18T10:01:10Z</time>
      </trkpt>
      <trkpt lat="63.43449" lon="10.3956">
        <ele>61.599998474121</ele>
        <time>2019-06-18T10:01:22Z</time>
      </trkpt>
      <trkpt lat="63.4344" lon="10.39519">
        <ele>61.400001525879</ele>
        <time>2019-06-18T10:01:31Z</time>
      </trkpt>
      <trkpt lat="63.43422" lon="10.39441">
        <ele>61.200000762939</ele>
        <time>2019-06-18T10:01:46Z</time>
      </trkpt>
      <trkpt lat="63.43392" lon="10.39359">
        <ele>61.200000762939</ele>
        <time>2019-06-18T10:01:56Z</time>
      </trkpt>
      <trkpt lat="63.43388" lon="10.39353">
        <ele>61.400001525879</ele>
        <time>2019-06-18T10:02:14Z</time>
      </trkpt>
      <trkpt lat="63.43375" lon="10.39336">
        <ele>61.200000762939</ele>
        <time>2019-06-18T10:02:22Z</time>
      </trkpt>
      <trkpt lat="63.43373" lon="10.39319">
        <ele>61.200000762939</ele>
        <time>2019-06-18T10:02:35Z</time>
      </trkpt>
      <trkpt lat="63.43382" lon="10.3928">
        <ele>60.200000762939</ele>
        <time>2019-06-18T10:02:52Z</time>
      </trkpt>
      <trkpt lat="63.43388" lon="10.39319">
        <ele>58.799999237061</ele>
        <time>2019-06-18T10:03:02Z</time>
      </trkpt>
      <trkpt lat="63.43381" lon="10.39275">
        <ele>59</ele>
        <time>2019-06-18T10:03:21Z</time>
      </trkpt>
      <trkpt lat="63.43373" lon="10.39293">
        <ele>59</ele>
        <time>2019-06-18T10:03:34Z</time>
      </trkpt>
      <trkpt lat="63.43359" lon="10.39319">
        <ele>59.400001525879</ele>
        <time>2019-06-18T10:03:50Z</time>
      </trkpt>
      <trkpt lat="63.43333" lon="10.39332">
        <ele>62</ele>
        <time>2019-06-18T10:04:11Z</time>
      </trkpt>
      <trkpt lat="63.43324" lon="10.39264">
        <ele>62.599998474121</ele>
        <time>2019-06-18T10:04:25Z</time>
      </trkpt>
      <trkpt lat="63.43308" lon="10.39189">
        <ele>62.799999237061</ele>
        <time>2019-06-18T10:04:32Z</time>
      </trkpt>
      <trkpt lat="63.43293" lon="10.39129">
        <ele>62.799999237061</ele>
        <time>2019-06-18T10:04:57Z</time>
      </trkpt>
      <trkpt lat="63.43289" lon="10.39103">
        <ele>62.599998474121</ele>
        <time>2019-06-18T10:05:02Z</time>
      </trkpt>
      <trkpt lat="63.43287" lon="10.39075">
        <ele>62.599998474121</ele>
        <time>2019-06-18T10:05:21Z</time>
      </trkpt>
      <trkpt lat="63.43272" lon="10.39018">
        <ele>62.400001525879</ele>
        <time>2019-06-18T10:05:35Z</time>
      </trkpt>
      <trkpt lat="63.43252" lon="10.38932">
        <ele>61.799999237061</ele>
        <time>2019-06-18T10:05:51Z</time>
      </trkpt>
      <trkpt lat="63.43198" lon="10.38733">
        <ele>61.400001525879</ele>
        <time>2019-06-18T10:06:06Z</time>
      </trkpt>
      <trkpt lat="63.4318" lon="10.38643">
        <ele>61.599998474121</ele>
        <time>2019-06-18T10:06:15Z</time>
      </trkpt>
      <trkpt lat="63.43157" lon="10.38497">
        <ele>61.200000762939</ele>
        <time>2019-06-18T10:06:28Z</time>
      </trkpt>
      <trkpt lat="63.43147" lon="10.38398">
        <ele>60.599998474121</ele>
        <time>2019-06-18T10:06:45Z</time>
      </trkpt>
      <trkpt lat="63.43139" lon="10.38258">
        <ele>60</ele>
        <time>2019-06-18T10:06:54Z</time>
      </trkpt>
      <trkpt lat="63.43131" lon="10.38135">
        <ele>59.799999237061</ele>
        <time>2019-06-18T10:07:16Z</time>
      </trkpt>
      <trkpt lat="63.43126" lon="10.38008">
        <ele>59.799999237061</ele>
        <time>2019-06-18T10:07:24Z</time>
      </trkpt>
      <trkpt lat="63.43123" lon="10.37868">
        <ele>60.200000762939</ele>
        <time>2019-06-18T10:07:40Z</time>
      </trkpt>
      <trkpt lat="63.43079" lon="10.37651">
        <ele>61.799999237061</ele>
        <time>2019-06-18T10:08:03Z</time>
      </trkpt>
      <trkpt lat="63.4306" lon="10.37595">
        <ele>62.799999237061</ele>
        <time>2019-06-18T10:08:18Z</time>
      </trkpt>
      <trkpt lat="63.43039" lon="10.37517">
        <ele>67.800003051758</ele>
        <time>2019-06-18T10:08:39Z</time>
      </trkpt>
      <trkpt lat="63.43035" lon="10.37475">
        <ele>67.800003051758</ele>
        <time>2019-06-18T10:08:49Z</time>
      </trkpt>
      <trkpt lat="63.43033" lon="10.37449">
        <ele>68.400001525879</ele>
        <time>2019-06-18T10:08:58Z</time>
      </trkpt>
      <trkpt lat="63.43041" lon="10.37429">
        <ele>68.199996948242</ele>
        <time>2019-06-18T10:09:07Z</time>
      </trkpt>
      <trkpt lat="63.43052" lon="10.37403">
        <ele>68.199996948242</ele>
        <time>2019-06-18T10:09:22Z</time>
      </trkpt>
      <trkpt lat="63.43029" lon="10.3736">
        <ele>67.400001525879</ele>
        <time>2019-06-18T10:09:29Z</time>
      </trkpt>
      <trkpt lat="63.43008" lon="10.37338">
        <ele>67.599998474121</ele>
        <time>2019-06-18T10:09:46Z</time>
      </trkpt>
      <trkpt lat="63.42993" lon="10.37286">
        <ele>69.199996948242</ele>
        <time>2019-06-18T10:10:01Z</time>
      </trkpt>
      <trkpt lat="63.42979" lon="10.37173">
        <ele>69.199996948242</ele>
        <time>2019-06-18T10:10:15Z</time>
      </trkpt>
      <trkpt lat="63.42971" lon="10.37109">
        <ele>69.599998474121</ele>
        <time>2019-06-18T10:10:30Z</time>
      </trkpt>
      <trkpt lat="63.42965" lon="10.3706">
        <ele>69.599998474121</ele>
        <time>2019-06-18T10:10:44Z</time>
      </trkpt>
      <trkpt lat="63.4295" lon="10.36936">
        <ele>70.199996948242</ele>
        <time>2019-06-18T10:11:06Z</time>
      </trkpt>
      <trkpt lat="63.42938" lon="10.36808">
        <ele>70.199996948242</ele>
        <time>2019-06-18T10:11:24Z</time>
      </trkpt>
      <trkpt lat="63.42924" lon="10.36689">
        <ele>70.400001525879</ele>
        <time>2019-06-18T10:11:37Z</time>
      </trkpt>
      <trkpt lat="63.4293" lon="10.3663">
        <ele>70.400001525879</ele>
        <time>2019-06-18T10:11:54Z</time>
      </trkpt>
      <trkpt lat="63.42963" lon="10.36401">
        <ele>68.199996948242</ele>
        <time>2019-06-18T10:12:03Z</time>
      </trkpt>
      <trkpt lat="63.42981" lon="10.36296">
        <ele>69.599998474121</ele>
        <time>2019-06-18T10:12:13Z</time>
      </trkpt>
      <trkpt lat="63.42993" lon="10.36111">
        <ele>74.800003051758</ele>
        <time>2019-06-18T10:12:27Z</time>
      </trkpt>
      <trkpt lat="63.42988" lon="10.35998">
        <ele>76.199996948242</ele>
        <time>2019-06-18T10:12:35Z</time>
      </trkpt>
      <trkpt lat="63.42989" lon="10.3595">
        <ele>76.199996948242</ele>
        <time>2019-06-18T10:12:59Z</time>
      </trkpt>
      <trkpt lat="63.42992" lon="10.35856">
        <ele>76</ele>
        <time>2019-06-18T10:13:11Z</time>
      </trkpt>
      <trkpt lat="63.43014" lon="10.35709">
        <ele>75.599998474121</ele>
        <time>2019-06-18T10:13:22Z</time>
      </trkpt>
      <trkpt lat="63.43035" lon="10.35667">
        <ele>75.400001525879</ele>
        <time>2019-06-18T10:13:29Z</time>
      </trkpt>
      <trkpt lat="63.43049" lon="10.3565">
        <ele>75.599998474121</ele>
        <time>2019-06-18T10:13:44Z</time>
      </trkpt>
      <trkpt lat="63.43078" lon="10.35628">
        <ele>75.599998474121</ele>
        <time>2019-06-18T10:14:01Z</time>
      </trkpt>
      <trkpt lat="63.43125" lon="10.35583">
        <ele>74.199996948242</ele>
        <time>2019-06-18T10:14:11Z</time>
      </trkpt>
      <trkpt lat="63.43148" lon="10.35524">
        <ele>68.800003051758</ele>
        <time>2019-06-18T10:14:14Z</time>
      </trkpt>
      <trkpt lat="63.43156" lon="10.35487">
        <ele>67.400001525879</ele>
        <time>2019-06-18T10:14:23Z</time>
      </trkpt>
      <trkpt lat="63.43173" lon="10.35398">
        <ele>67.599998474121</ele>
        <time>2019-06-18T10:14:37Z</time>
      </trkpt>
      <trkpt lat="63.43195" lon="10.35295">
        <ele>69</ele>
        <time>2019-06-18T10:14:55Z</time>
      </trkpt>
      <trkpt lat="63.43223" lon="10.35211">
        <ele>69.599998474121</ele>
        <time>2019-06-18T10:15:12Z</time>
      </trkpt>
      <trkpt lat="63.43254" lon="10.35151">
        <ele>69.599998474121</ele>
        <time>2019-06-18T10:15:29Z</time>
      </trkpt>
      <trkpt lat="63.43291" lon="10.35101">
        <ele>69.800003051758</ele>
        <time>2019-06-18T10:15:55Z</time>
      </trkpt>
      <trkpt lat="63.4343" lon="10.35054">
        <ele>69.800003051758</ele>
        <time>2019-06-18T10:16:11Z</time>
      </trkpt>
      <trkpt lat="63.43453" lon="10.35045">
        <ele>69.599998474121</ele>
        <time>2019-06-18T10:16:27Z</time>
      </trkpt>
      <trkpt lat="63.43455" lon="10.3504">
        <ele>69.199996948242</ele>
        <time>2019-06-18T10:16:45Z</time>
      </trkpt>
      <trkpt lat="63.43499" lon="10.35024">
        <ele>69.199996948242</ele>
        <time>2019-06-18T10:17:00Z</time>
      </trkpt>
      <trkpt lat="63.43563" lon="10.35005">
        <ele>69.599998474121</ele>
        <time>2019-06-18T10:17:08Z</time>
      </trkpt>
      <trkpt lat="63.4362" lon="10.34988">
        <ele>69.400001525879</ele>
        <time>2019-06-18T10:17:23Z</time>
      </trkpt>
      <trkpt lat="63.43721" lon="10.34958">
        <ele>72.199996948242</ele>
        <time>2019-06-18T10:17:36Z</time>
      </trkpt>
      <trkpt lat="63.43766" lon="10.34934">
        <ele>73</ele>
        <time>2019-06-18T10:17:49Z</time>
      </trkpt>
      <trkpt lat="63.43834" lon="10.34872">
        <ele>73.800003051758</ele>
        <time>2019-06-18T10:17:53Z</time>
      </trkpt>
      <trkpt lat="63.43898" lon="10.34789">
        <ele>74.400001525879</ele>
        <time>2019-06-18T10:17:59Z</time>
      </trkpt>
      <trkpt lat="63.4394" lon="10.34794">
        <ele>75</ele>
        <time>2019-06-18T10:18:18Z</time>
      </trkpt>
      <trkpt lat="63.44006" lon="10.34789">
        <ele>78</ele>
        <time>2019-06-18T10:18:36Z</time>
      </trkpt>
      <trkpt lat="63.44082" lon="10.347">
        <ele>80.599998474121</ele>
        <time>2019-06-18T10:18:58Z</time>
      </trkpt>
      <trkpt lat="63.44101" lon="10.34695">
        <ele>81.800003051758</ele>
        <time>2019-06-18T10:19:12Z</time>
      </trkpt>
      <trkpt lat="63.44163" lon="10.34734">
        <ele>84</ele>
        <time>2019-06-18T10:19:19Z</time>
      </trkpt>
      <trkpt lat="63.44181" lon="10.34744">
        <ele>85.599998474121</ele>
        <time>2019-06-18T10:19:33Z</time>
      </trkpt>
      <trkpt lat="63.44203" lon="10.34739">
        <ele>85.599998474121</ele>
        <time>2019-06-18T10:19:37Z</time>
      </trkpt>
      <trkpt lat="63.44242" lon="10.34683">
        <ele>87.199996948242</ele>
        <time>2019-06-18T10:19:45Z</time>
      </trkpt>
      <trkpt lat="63.44276" lon="10.34593">
        <ele>89.199996948242</ele>
        <time>2019-06-18T10:19:55Z</time>
      </trkpt>
      <trkpt lat="63.44321" lon="10.34422">
        <ele>91.400001525879</ele>
        <time>2019-06-18T10:20:00Z</time>
      </trkpt>
      <trkpt lat="63.44374" lon="10.34258">
        <ele>94.800003051758</ele>
        <time>2019-06-18T10:20:18Z</time>
      </trkpt>
      <trkpt lat="63.44393" lon="10.34132">
        <ele>96.800003051758</ele>
        <time>2019-06-18T10:20:28Z</time>
      </trkpt>
      <trkpt lat="63.44398" lon="10.34078">
        <ele>97.199996948242</ele>
        <time>2019-06-18T10:20:36Z</time>
      </trkpt>
      <trkpt lat="63.44443" lon="10.33919">
        <ele>100.59999847412</ele>
        <time>2019-06-18T10:20:48Z</time>
      </trkpt>
      <trkpt lat="63.44513" lon="10.33781">
        <ele>104.19999694824</ele>
        <time>2019-06-18T10:20:56Z</time>
      </trkpt>
      <trkpt lat="63.44588" lon="10.33651">
        <ele>109.59999847412</ele>
        <time>2019-06-18T10:21:14Z</time>
      </trkpt>
      <trkpt lat="63.44606" lon="10.33603">
        <ele>110.19999694824</ele>
        <time>2019-06-18T10:21:37Z</time>
      </trkpt>
      <trkpt lat="63.44627" lon="10.33477">
        <ele>112.80000305176</ele>
        <time>2019-06-18T10:21:55Z</time>
      </trkpt>
      <trkpt lat="63.44625" lon="10.33441">
        <ele>113</ele>
        <time>2019-06-18T10:22:11Z</time>
      </trkpt>
      <trkpt lat="63.44617" lon="10.3336">
        <ele>113</ele>
        <time>2019-06-18T10:22:20Z</time>
      </trkpt>
      <trkpt lat="63.44608" lon="10.33237">
        <ele>111.80000305176</ele>
        <time>2019-06-18T10:22:28Z</time>
      </trkpt>
      <trkpt lat="63.44604" lon="10.33117">
        <ele>109.19999694824</ele>
        <time>2019-06-18T10:22:41Z</time>
      </trkpt>
      <trkpt lat="63.44616" lon="10.32984">
        <ele>104</ele>
        <time>2019-06-18T10:22:53Z</time>
      </trkpt>
      <trkpt lat="63.44632" lon="10.32818">
        <ele>99.400001525879</ele>
        <time>2019-06-18T10:23:08Z</time>
      </trkpt>
      <trkpt lat="63.4469" lon="10.32672">
        <ele>92.800003051758</ele>
        <time>2019-06-18T10:23:21Z</time>
      </trkpt>
      <trkpt lat="63.44767" lon="10.32591">
        <ele>89.599998474121</ele>
        <time>2019-06-18T10:23:35Z</time>
      </trkpt>
      <trkpt lat="63.44801" lon="10.3252">
        <ele>87.800003051758</ele>
        <time>2019-06-18T10:23:56Z</time>
      </trkpt>
      <trkpt lat="63.44853" lon="10.32381">
        <ele>83</ele>
        <time>2019-06-18T10:24:10Z</time>
      </trkpt>
      <trkpt lat="63.44887" lon="10.3229">
        <ele>81.400001525879</ele>
        <time>2019-06-18T10:24:25Z</time>
      </trkpt>
      <trkpt lat="63.44898" lon="10.32239">
        <ele>82.199996948242</ele>
        <time>2019-06-18T10:24:32Z</time>
      </trkpt>
      <trkpt lat="63.44886" lon="10.32215">
        <ele>83</ele>
        <time>2019-06-18T10:24:45Z</time>
      </trkpt>
      <trkpt lat="63.44868" lon="10.32127">
        <ele>84</ele>
        <time>2019-06-18T10:24:59Z</time>
      </trkpt>
      <trkpt lat="63.44884" lon="10.32057">
        <ele>85</ele>
        <time>2019-06-18T10:25:10Z</time>
      </trkpt>
      <trkpt lat="63.44898" lon="10.32021">
        <ele>86.599998474121</ele>
        <time>2019-06-18T10:25:15Z</time>
      </trkpt>
      <trkpt lat="63.44919" lon="10.31958">
        <ele>87.800003051758</ele>
        <time>2019-06-18T10:25:37Z</time>
      </trkpt>
      <trkpt lat="63.44935" lon="10.31873">
        <ele>87.599998474121</ele>
        <time>2019-06-18T10:25:50Z</time>
      </trkpt>
      <trkpt lat="63.44967" lon="10.31753">
        <ele>87.800003051758</ele>
        <time>2019-06-18T10:26:02Z</time>
      </trkpt>
      <trkpt lat="63.45024" lon="10.31641">
        <ele>87.199996948242</ele>
        <time>2019-06-18T10:26:25Z</time>
      </trkpt>
      <trkpt lat="63.45043" lon="10.3159">
        <ele>86.800003051758</ele>
        <time>2019-06-18T10:26:33Z</time>
      </trkpt>
      <trkpt lat="63.45052" lon="10.31522">
        <ele>86.599998474121</ele>
        <time>2019-06-18T10:26:37Z</time>
      </trkpt>
      <trkpt lat="63.45066" lon="10.31439">
        <ele>85.199996948242</ele>
        <time>2019-06-18T10:26:43Z</time>
      </trkpt>
      <trkpt lat="63.45111" lon="10.31325">
        <ele>84.199996948242</ele>
        <time>2019-06-18T11:08:09Z</time>
      </trkpt>
      <trkpt lat="63.45138" lon="10.31232">
        <ele>82.599998474121</ele>
        <time>2019-06-18T11:08:23Z</time>
      </trkpt>
      <trkpt lat="63.45144" lon="10.31062">
        <ele>80</ele>
        <time>2019-06-18T11:08:38Z</time>
      </trkpt>
      <trkpt lat="63.45142" lon="10.31055">
        <ele>77.599998474121</ele>
        <time>2019-06-18T11:08:45Z</time>
      </trkpt>
      <trkpt lat="63.45142" lon="10.31051">
        <ele>77.800003051758</ele>
        <time>2019-06-18T11:08:59Z</time>
      </trkpt>
      <trkpt lat="63.45148" lon="10.31036">
        <ele>77.800003051758</ele>
        <time>2019-06-18T11:09:08Z</time>
      </trkpt>
      <trkpt lat="63.45181" lon="10.30947">
        <ele>77.400001525879</ele>
        <time>2019-06-18T11:09:14Z</time>
      </trkpt>
      <trkpt lat="63.45189" lon="10.3089">
        <ele>77.599998474121</ele>
        <time>2019-06-18T11:09:23Z</time>
      </trkpt>
      <trkpt lat="63.45227" lon="10.30727">
        <ele>77.599998474121</ele>
        <time>2019-06-18T11:09:28Z</time>
      </trkpt>
      <trkpt lat="63.4525" lon="10.30717">
        <ele>77.800003051758</ele>
        <time>2019-06-18T11:09:36Z</time>
      </trkpt>
      <trkpt lat="63.45309" lon="10.30638">
        <ele>78</ele>
        <time>2019-06-18T11:09:48Z</time>
      </trkpt>
      <trkpt lat="63.45358" lon="10.30527">
        <ele>77.599998474121</ele>
        <time>2019-06-18T11:09:51Z</time>
      </trkpt>
      <trkpt lat="63.45404" lon="10.30363">
        <ele>77.400001525879</ele>
        <time>2019-06-18T11:09:56Z</time>
      </trkpt>
      <trkpt lat="63.45421" lon="10.30166">
        <ele>77.400001525879</ele>
        <time>2019-06-18T11:10:01Z</time>
      </trkpt>
      <trkpt lat="63.45416" lon="10.30007">
        <ele>77.599998474121</ele>
        <time>2019-06-18T11:10:06Z</time>
      </trkpt>
      <trkpt lat="63.45366" lon="10.29763">
        <ele>78</ele>
        <time>2019-06-18T11:10:21Z</time>
      </trkpt>
      <trkpt lat="63.45306" lon="10.2946">
        <ele>78.800003051758</ele>
        <time>2019-06-18T11:10:26Z</time>
      </trkpt>
      <trkpt lat="63.45316" lon="10.29344">
        <ele>78.800003051758</ele>
        <time>2019-06-18T11:11:18Z</time>
      </trkpt>
      <trkpt lat="63.45318" lon="10.29316">
        <ele>79</ele>
        <time>2019-06-18T11:11:21Z</time>
      </trkpt>
      <trkpt lat="63.45313" lon="10.29281">
        <ele>79</ele>
        <time>2019-06-18T11:11:35Z</time>
      </trkpt>
      <trkpt lat="63.453" lon="10.29215">
        <ele>79.199996948242</ele>
        <time>2019-06-18T11:11:47Z</time>
      </trkpt>
      <trkpt lat="63.45268" lon="10.29055">
        <ele>79.400001525879</ele>
        <time>2019-06-18T11:12:01Z</time>
      </trkpt>
      <trkpt lat="63.4522" lon="10.28761">
        <ele>79.199996948242</ele>
        <time>2019-06-18T11:12:16Z</time>
      </trkpt>
      <trkpt lat="63.45193" lon="10.28584">
        <ele>79</ele>
        <time>2019-06-18T11:12:25Z</time>
      </trkpt>
      <trkpt lat="63.45158" lon="10.28439">
        <ele>79.199996948242</ele>
        <time>2019-06-18T11:12:41Z</time>
      </trkpt>
      <trkpt lat="63.45134" lon="10.28304">
        <ele>79</ele>
        <time>2019-06-18T11:13:05Z</time>
      </trkpt>
      <trkpt lat="63.45132" lon="10.28201">
        <ele>78.400001525879</ele>
        <time>2019-06-18T11:13:23Z</time>
      </trkpt>
      <trkpt lat="63.4514" lon="10.28043">
        <ele>77</ele>
        <time>2019-06-18T11:13:34Z</time>
      </trkpt>
      <trkpt lat="63.4516" lon="10.27687">
        <ele>72.400001525879</ele>
        <time>2019-06-18T11:13:44Z</time>
      </trkpt>
      <trkpt lat="63.45152" lon="10.27577">
        <ele>71.599998474121</ele>
        <time>2019-06-18T11:13:48Z</time>
      </trkpt>
      <trkpt lat="63.45154" lon="10.27453">
        <ele>69.199996948242</ele>
        <time>2019-06-18T11:14:01Z</time>
      </trkpt>
      <trkpt lat="63.45177" lon="10.27322">
        <ele>67.400001525879</ele>
        <time>2019-06-18T11:14:07Z</time>
      </trkpt>
      <trkpt lat="63.45198" lon="10.27217">
        <ele>67.400001525879</ele>
        <time>2019-06-18T11:14:22Z</time>
      </trkpt>
      <trkpt lat="63.45234" lon="10.26971">
        <ele>66.800003051758</ele>
        <time>2019-06-18T11:14:46Z</time>
      </trkpt>
      <trkpt lat="63.45272" lon="10.26861">
        <ele>66.800003051758</ele>
        <time>2019-06-18T11:14:51Z</time>
      </trkpt>
      <trkpt lat="63.45303" lon="10.26699">
        <ele>67.599998474121</ele>
        <time>2019-06-18T11:15:17Z</time>
      </trkpt>
      <trkpt lat="63.45308" lon="10.26405">
        <ele>67.199996948242</ele>
        <time>2019-06-18T11:15:25Z</time>
      </trkpt>
      <trkpt lat="63.45292" lon="10.26208">
        <ele>66.599998474121</ele>
        <time>2019-06-18T11:15:40Z</time>
      </trkpt>
      <trkpt lat="63.45301" lon="10.25998">
        <ele>66.800003051758</ele>
        <time>2019-06-18T11:15:53Z</time>
      </trkpt>
      <trkpt lat="63.45301" lon="10.25718">
        <ele>66.599998474121</ele>
        <time>2019-06-18T11:16:01Z</time>
      </trkpt>
      <trkpt lat="63.45294" lon="10.25589">
        <ele>66.599998474121</ele>
        <time>2019-06-18T11:16:17Z</time>
      </trkpt>
      <trkpt lat="63.45279" lon="10.25319">
        <ele>66.400001525879</ele>
        <time>2019-06-18T11:16:25Z</time>
      </trkpt>
      <trkpt lat="63.45257" lon="10.25167">
        <ele>66.400001525879</ele>
        <time>2019-06-18T11:16:30Z</time>
      </trkpt>
      <trkpt lat="63.4524" lon="10.25088">
        <ele>66.199996948242</ele>
        <time>2019-06-18T11:16:34Z</time>
      </trkpt>
      <trkpt lat="63.45252" lon="10.24863">
        <ele>66.199996948242</ele>
        <time>2019-06-18T11:16:43Z</time>
      </trkpt>
      <trkpt lat="63.45281" lon="10.24774">
        <ele>66.400001525879</ele>
        <time>2019-06-18T11:16:45Z</time>
      </trkpt>
      <trkpt lat="63.45302" lon="10.24615">
        <ele>68</ele>
        <time>2019-06-18T11:17:02Z</time>
      </trkpt>
      <trkpt lat="63.4529" lon="10.24511">
        <ele>68.400001525879</ele>
        <time>2019-06-18T11:17:10Z</time>
      </trkpt>
      <trkpt lat="63.45262" lon="10.24434">
        <ele>68.800003051758</ele>
        <time>2019-06-18T11:17:18Z</time>
      </trkpt>
      <trkpt lat="63.45188" lon="10.24317">
        <ele>68.800003051758</ele>
        <time>2019-06-18T11:17:29Z</time>
      </trkpt>
      <trkpt lat="63.45169" lon="10.24189">
        <ele>68.800003051758</ele>
        <time>2019-06-18T11:17:41Z</time>
      </trkpt>
      <trkpt lat="63.45201" lon="10.23937">
        <ele>70</ele>
        <time>2019-06-18T11:17:53Z</time>
      </trkpt>
      <trkpt lat="63.45241" lon="10.23799">
        <ele>70.400001525879</ele>
        <time>2019-06-18T11:18:05Z</time>
      </trkpt>
      <trkpt lat="63.45251" lon="10.23735">
        <ele>71.199996948242</ele>
        <time>2019-06-18T11:18:17Z</time>
      </trkpt>
      <trkpt lat="63.45257" lon="10.23634">
        <ele>71.400001525879</ele>
        <time>2019-06-18T11:18:35Z</time>
      </trkpt>
      <trkpt lat="63.45251" lon="10.23483">
        <ele>71.599998474121</ele>
        <time>2019-06-18T11:18:43Z</time>
      </trkpt>
      <trkpt lat="63.4527" lon="10.23286">
        <ele>72.599998474121</ele>
        <time>2019-06-18T11:18:57Z</time>
      </trkpt>
      <trkpt lat="63.45288" lon="10.2323">
        <ele>73.199996948242</ele>
        <time>2019-06-18T11:19:06Z</time>
      </trkpt>
      <trkpt lat="63.45349" lon="10.23073">
        <ele>76.199996948242</ele>
        <time>2019-06-18T11:19:25Z</time>
      </trkpt>
      <trkpt lat="63.45358" lon="10.22988">
        <ele>77.199996948242</ele>
        <time>2019-06-18T11:19:42Z</time>
      </trkpt>
      <trkpt lat="63.45333" lon="10.2284">
        <ele>77.599998474121</ele>
        <time>2019-06-18T11:19:54Z</time>
      </trkpt>
      <trkpt lat="63.45269" lon="10.2277">
        <ele>77.400001525879</ele>
        <time>2019-06-18T11:20:01Z</time>
      </trkpt>
      <trkpt lat="63.45204" lon="10.22679">
        <ele>76.599998474121</ele>
        <time>2019-06-18T11:20:07Z</time>
      </trkpt>
      <trkpt lat="63.4516" lon="10.2249">
        <ele>77.800003051758</ele>
        <time>2019-06-18T11:20:15Z</time>
      </trkpt>
      <trkpt lat="63.45127" lon="10.22383">
        <ele>78.199996948242</ele>
        <time>2019-06-18T11:20:24Z</time>
      </trkpt>
      <trkpt lat="63.45106" lon="10.22291">
        <ele>78.199996948242</ele>
        <time>2019-06-18T11:20:33Z</time>
      </trkpt>
      <trkpt lat="63.45101" lon="10.22125">
        <ele>78.800003051758</ele>
        <time>2019-06-18T11:20:49Z</time>
      </trkpt>
      <trkpt lat="63.45095" lon="10.22065">
        <ele>79.599998474121</ele>
        <time>2019-06-18T11:21:12Z</time>
      </trkpt>
      <trkpt lat="63.45047" lon="10.21913">
        <ele>80.199996948242</ele>
        <time>2019-06-18T11:21:20Z</time>
      </trkpt>
      <trkpt lat="63.45001" lon="10.21774">
        <ele>81.800003051758</ele>
        <time>2019-06-18T11:21:29Z</time>
      </trkpt>
      <trkpt lat="63.44991" lon="10.21646">
        <ele>82.599998474121</ele>
        <time>2019-06-18T11:21:35Z</time>
      </trkpt>
      <trkpt lat="63.44983" lon="10.21418">
        <ele>83.599998474121</ele>
        <time>2019-06-18T11:22:01Z</time>
      </trkpt>
      <trkpt lat="63.4495" lon="10.21316">
        <ele>84.400001525879</ele>
        <time>2019-06-18T11:22:06Z</time>
      </trkpt>
      <trkpt lat="63.44927" lon="10.21169">
        <ele>85</ele>
        <time>2019-06-18T11:22:20Z</time>
      </trkpt>
      <trkpt lat="63.44924" lon="10.21091">
        <ele>85.800003051758</ele>
        <time>2019-06-18T11:22:31Z</time>
      </trkpt>
      <trkpt lat="63.44914" lon="10.21032">
        <ele>86</ele>
        <time>2019-06-18T11:22:42Z</time>
      </trkpt>
      <trkpt lat="63.44866" lon="10.20795">
        <ele>86</ele>
        <time>2019-06-18T11:22:46Z</time>
      </trkpt>
      <trkpt lat="63.44834" lon="10.20669">
        <ele>86.199996948242</ele>
        <time>2019-06-18T11:22:52Z</time>
      </trkpt>
      <trkpt lat="63.44783" lon="10.20557">
        <ele>86.800003051758</ele>
        <time>2019-06-18T11:23:05Z</time>
      </trkpt>
      <trkpt lat="63.44739" lon="10.20468">
        <ele>87</ele>
        <time>2019-06-18T11:23:10Z</time>
      </trkpt>
      <trkpt lat="63.44701" lon="10.20385">
        <ele>87.400001525879</ele>
        <time>2019-06-18T11:23:22Z</time>
      </trkpt>
      <trkpt lat="63.44636" lon="10.20188">
        <ele>87.599998474121</ele>
        <time>2019-06-18T11:23:31Z</time>
      </trkpt>
      <trkpt lat="63.44614" lon="10.2005">
        <ele>88.400001525879</ele>
        <time>2019-06-18T11:23:41Z</time>
      </trkpt>
      <trkpt lat="63.44601" lon="10.19962">
        <ele>89.599998474121</ele>
        <time>2019-06-18T11:23:56Z</time>
      </trkpt>
      <trkpt lat="63.44581" lon="10.19805">
        <ele>89.800003051758</ele>
        <time>2019-06-18T11:24:04Z</time>
      </trkpt>
      <trkpt lat="63.44571" lon="10.19729">
        <ele>89.400001525879</ele>
        <time>2019-06-18T11:24:12Z</time>
      </trkpt>
      <trkpt lat="63.44576" lon="10.19721">
        <ele>89</ele>
        <time>2019-06-18T11:24:27Z</time>
      </trkpt>
      <trkpt lat="63.44596" lon="10.19691">
        <ele>89</ele>
        <time>2019-06-18T11:24:36Z</time>
      </trkpt>
      <trkpt lat="63.4461" lon="10.1967">
        <ele>88.400001525879</ele>
        <time>2019-06-18T11:24:44Z</time>
      </trkpt>
      <trkpt lat="63.44645" lon="10.19626">
        <ele>88.400001525879</ele>
        <time>2019-06-18T11:24:54Z</time>
      </trkpt>
      <trkpt lat="63.44702" lon="10.19564">
        <ele>87.599998474121</ele>
        <time>2019-06-18T11:25:07Z</time>
      </trkpt>
      <trkpt lat="63.44726" lon="10.19528">
        <ele>87.400001525879</ele>
        <time>2019-06-18T11:25:20Z</time>
      </trkpt>
      <trkpt lat="63.44731" lon="10.19466">
        <ele>87.599998474121</ele>
        <time>2019-06-18T11:26:32Z</time>
      </trkpt>
      <trkpt lat="63.44727" lon="10.19412">
        <ele>89</ele>
        <time>2019-06-18T11:26:43Z</time>
      </trkpt>
      <trkpt lat="63.44725" lon="10.19303">
        <ele>89</ele>
        <time>2019-06-18T11:27:00Z</time>
      </trkpt>
      <trkpt lat="63.44733" lon="10.19262">
        <ele>88.599998474121</ele>
        <time>2019-06-18T11:27:13Z</time>
      </trkpt>
      <trkpt lat="63.44733" lon="10.19179">
        <ele>85.199996948242</ele>
        <time>2019-06-18T11:27:18Z</time>
      </trkpt>
      <trkpt lat="63.44713" lon="10.19214">
        <ele>83.400001525879</ele>
        <time>2019-06-18T11:27:30Z</time>
      </trkpt>
      <trkpt lat="63.4474" lon="10.19261">
        <ele>81</ele>
        <time>2019-06-18T11:27:42Z</time>
      </trkpt>
      <trkpt lat="63.44863" lon="10.19401">
        <ele>76.400001525879</ele>
        <time>2019-06-18T11:28:04Z</time>
      </trkpt>
      <trkpt lat="63.44896" lon="10.19499">
        <ele>72</ele>
        <time>2019-06-18T11:28:15Z</time>
      </trkpt>
      <trkpt lat="63.44973" lon="10.19635">
        <ele>67.400001525879</ele>
        <time>2019-06-18T11:28:20Z</time>
      </trkpt>
      <trkpt lat="63.45003" lon="10.19774">
        <ele>62</ele>
        <time>2019-06-18T11:28:26Z</time>
      </trkpt>
      <trkpt lat="63.45003" lon="10.19834">
        <ele>60.799999237061</ele>
        <time>2019-06-18T11:28:34Z</time>
      </trkpt>
      <trkpt lat="63.45023" lon="10.19936">
        <ele>60.400001525879</ele>
        <time>2019-06-18T11:28:39Z</time>
      </trkpt>
      <trkpt lat="63.45024" lon="10.20003">
        <ele>60.400001525879</ele>
        <time>2019-06-18T11:29:06Z</time>
      </trkpt>
      <trkpt lat="63.45011" lon="10.20118">
        <ele>61</ele>
        <time>2019-06-18T11:29:17Z</time>
      </trkpt>
      <trkpt lat="63.45011" lon="10.20115">
        <ele>61.400001525879</ele>
        <time>2019-06-18T11:29:32Z</time>
      </trkpt>
      <trkpt lat="63.44982" lon="10.20072">
        <ele>60.799999237061</ele>
        <time>2019-06-18T11:29:41Z</time>
      </trkpt>
      <trkpt lat="63.44975" lon="10.20065">
        <ele>61</ele>
        <time>2019-06-18T11:29:55Z</time>
      </trkpt>
    </trkseg>
  </trk>
</gpx>